<?xml version="1.0" encoding="UTF-8"?>
<gpx version="1.1" creator="https://www.youtrack.es" xsi:schemaLocation="http://www.topografix.com/GPX/1/1 http://www.topografix.com/GPX/1/1/gpx.xsd http://www.garmin.com/xmlschemas/GpxExtensions/v3 http://www.garmin.com/xmlschemas/GpxExtensionsv3.xsd http://www.garmin.com/xmlschemas/TrackPointExtension/v1 http://www.garmin.com/xmlschemas/TrackPointExtensionv1.xsd" xmlns:gpxtpx="http://www.garmin.com/xmlschemas/TrackPointExtension/v1" xmlns:gpxx="http://www.garmin.com/xmlschemas/GpxExtensions/v3" xmlns:xsi="http://www.w3.org/2001/XMLSchema-instance">
  <metadata>
    <link href="https://www.youtrack.es">
      <text>YouTrack.es</text>
    </link>
    <time>2026-05-11T01:50:49Z</time>
  </metadata>
  <trk>
    <src>https://www.youtrack.es</src>
    <link href="https://www.youtrack.es/ruta/5343-rabosa-2019">
      <text>YouTrack.es</text>
    </link>
    <trkseg>
      <trkpt lat="38.498553" lon="-0.701885">
        <ele>723.799987792969</ele>
        <time>2019-04-19T06:32:25.000Z</time>
      </trkpt>
      <trkpt lat="38.498552" lon="-0.701912">
        <ele>726</ele>
        <time>2019-04-19T06:32:27.000Z</time>
      </trkpt>
      <trkpt lat="38.498551" lon="-0.701964">
        <ele>724</ele>
        <time>2019-04-19T06:32:30.000Z</time>
      </trkpt>
      <trkpt lat="38.498553" lon="-0.702061">
        <ele>725</ele>
        <time>2019-04-19T06:32:34.000Z</time>
      </trkpt>
      <trkpt lat="38.498565" lon="-0.70211">
        <ele>724.378642707129</ele>
        <time>2019-04-19T06:32:36.000Z</time>
      </trkpt>
      <trkpt lat="38.498575" lon="-0.702159">
        <ele>724</ele>
        <time>2019-04-19T06:32:38.000Z</time>
      </trkpt>
      <trkpt lat="38.498578" lon="-0.702188">
        <ele>724</ele>
        <time>2019-04-19T06:32:39.000Z</time>
      </trkpt>
      <trkpt lat="38.498613" lon="-0.702321">
        <ele>723.51145157508</ele>
        <time>2019-04-19T06:32:44.000Z</time>
      </trkpt>
      <trkpt lat="38.498621" lon="-0.702347">
        <ele>723</ele>
        <time>2019-04-19T06:32:45.000Z</time>
      </trkpt>
      <trkpt lat="38.498625" lon="-0.702372">
        <ele>723</ele>
        <time>2019-04-19T06:32:46.000Z</time>
      </trkpt>
      <trkpt lat="38.498632" lon="-0.702399">
        <ele>722.400002844465</ele>
        <time>2019-04-19T06:32:47.000Z</time>
      </trkpt>
      <trkpt lat="38.498638" lon="-0.702425">
        <ele>722</ele>
        <time>2019-04-19T06:32:48.000Z</time>
      </trkpt>
      <trkpt lat="38.498645" lon="-0.70245">
        <ele>722</ele>
        <time>2019-04-19T06:32:49.000Z</time>
      </trkpt>
      <trkpt lat="38.498652" lon="-0.702479">
        <ele>722</ele>
        <time>2019-04-19T06:32:50.000Z</time>
      </trkpt>
      <trkpt lat="38.49866" lon="-0.702597">
        <ele>722</ele>
        <time>2019-04-19T06:32:54.000Z</time>
      </trkpt>
      <trkpt lat="38.49869" lon="-0.702724">
        <ele>722</ele>
        <time>2019-04-19T06:32:58.000Z</time>
      </trkpt>
      <trkpt lat="38.498725" lon="-0.702845">
        <ele>722</ele>
        <time>2019-04-19T06:33:04.000Z</time>
      </trkpt>
      <trkpt lat="38.498735" lon="-0.702968">
        <ele>722</ele>
        <time>2019-04-19T06:33:09.000Z</time>
      </trkpt>
      <trkpt lat="38.498746" lon="-0.7031">
        <ele>722</ele>
        <time>2019-04-19T06:33:13.000Z</time>
      </trkpt>
      <trkpt lat="38.498767" lon="-0.703231">
        <ele>722</ele>
        <time>2019-04-19T06:33:18.000Z</time>
      </trkpt>
      <trkpt lat="38.498789" lon="-0.703368">
        <ele>722</ele>
        <time>2019-04-19T06:33:23.000Z</time>
      </trkpt>
      <trkpt lat="38.498809" lon="-0.703494">
        <ele>722</ele>
        <time>2019-04-19T06:33:28.000Z</time>
      </trkpt>
      <trkpt lat="38.498834" lon="-0.703647">
        <ele>722</ele>
        <time>2019-04-19T06:33:32.000Z</time>
      </trkpt>
      <trkpt lat="38.498853" lon="-0.703788">
        <ele>722</ele>
        <time>2019-04-19T06:33:36.000Z</time>
      </trkpt>
      <trkpt lat="38.498875" lon="-0.703906">
        <ele>722</ele>
        <time>2019-04-19T06:33:40.000Z</time>
      </trkpt>
      <trkpt lat="38.498914" lon="-0.704041">
        <ele>722</ele>
        <time>2019-04-19T06:33:45.000Z</time>
      </trkpt>
      <trkpt lat="38.498974" lon="-0.704168">
        <ele>722</ele>
        <time>2019-04-19T06:33:50.000Z</time>
      </trkpt>
      <trkpt lat="38.499012" lon="-0.704299">
        <ele>722</ele>
        <time>2019-04-19T06:33:55.000Z</time>
      </trkpt>
      <trkpt lat="38.499049" lon="-0.704409">
        <ele>722</ele>
        <time>2019-04-19T06:33:59.000Z</time>
      </trkpt>
      <trkpt lat="38.49909" lon="-0.704523">
        <ele>722</ele>
        <time>2019-04-19T06:34:03.000Z</time>
      </trkpt>
      <trkpt lat="38.499131" lon="-0.704626">
        <ele>722</ele>
        <time>2019-04-19T06:34:07.000Z</time>
      </trkpt>
      <trkpt lat="38.499172" lon="-0.70473">
        <ele>722.604396995527</ele>
        <time>2019-04-19T06:34:11.000Z</time>
      </trkpt>
      <trkpt lat="38.499193" lon="-0.70479">
        <ele>723</ele>
        <time>2019-04-19T06:34:13.000Z</time>
      </trkpt>
      <trkpt lat="38.499199" lon="-0.704819">
        <ele>723</ele>
        <time>2019-04-19T06:34:14.000Z</time>
      </trkpt>
      <trkpt lat="38.499253" lon="-0.704941">
        <ele>723</ele>
        <time>2019-04-19T06:34:19.000Z</time>
      </trkpt>
      <trkpt lat="38.499301" lon="-0.705054">
        <ele>723</ele>
        <time>2019-04-19T06:34:24.000Z</time>
      </trkpt>
      <trkpt lat="38.499324" lon="-0.705172">
        <ele>723</ele>
        <time>2019-04-19T06:34:28.000Z</time>
      </trkpt>
      <trkpt lat="38.499332" lon="-0.70522">
        <ele>723.64</ele>
        <time>2019-04-19T06:34:30.000Z</time>
      </trkpt>
      <trkpt lat="38.499356" lon="-0.705268">
        <ele>724</ele>
        <time>2019-04-19T06:34:32.000Z</time>
      </trkpt>
      <trkpt lat="38.499367" lon="-0.705289">
        <ele>724</ele>
        <time>2019-04-19T06:34:33.000Z</time>
      </trkpt>
      <trkpt lat="38.499387" lon="-0.705308">
        <ele>724</ele>
        <time>2019-04-19T06:34:34.000Z</time>
      </trkpt>
      <trkpt lat="38.499431" lon="-0.705333">
        <ele>724</ele>
        <time>2019-04-19T06:34:36.000Z</time>
      </trkpt>
      <trkpt lat="38.49945" lon="-0.705346">
        <ele>724</ele>
        <time>2019-04-19T06:34:37.000Z</time>
      </trkpt>
      <trkpt lat="38.499469" lon="-0.705357">
        <ele>724.460430594692</ele>
        <time>2019-04-19T06:34:38.000Z</time>
      </trkpt>
      <trkpt lat="38.499563" lon="-0.705365">
        <ele>726</ele>
        <time>2019-04-19T06:34:43.000Z</time>
      </trkpt>
      <trkpt lat="38.49966" lon="-0.705407">
        <ele>726</ele>
        <time>2019-04-19T06:34:48.000Z</time>
      </trkpt>
      <trkpt lat="38.499752" lon="-0.705457">
        <ele>726</ele>
        <time>2019-04-19T06:34:52.000Z</time>
      </trkpt>
      <trkpt lat="38.499847" lon="-0.705491">
        <ele>727</ele>
        <time>2019-04-19T06:34:56.000Z</time>
      </trkpt>
      <trkpt lat="38.499955" lon="-0.705515">
        <ele>725</ele>
        <time>2019-04-19T06:35:01.000Z</time>
      </trkpt>
      <trkpt lat="38.500053" lon="-0.705562">
        <ele>725</ele>
        <time>2019-04-19T06:35:05.000Z</time>
      </trkpt>
      <trkpt lat="38.50012" lon="-0.705674">
        <ele>725</ele>
        <time>2019-04-19T06:35:10.000Z</time>
      </trkpt>
      <trkpt lat="38.500139" lon="-0.705763">
        <ele>725.576574914379</ele>
        <time>2019-04-19T06:35:14.000Z</time>
      </trkpt>
      <trkpt lat="38.500147" lon="-0.705784">
        <ele>726</ele>
        <time>2019-04-19T06:35:15.000Z</time>
      </trkpt>
      <trkpt lat="38.500152" lon="-0.705806">
        <ele>726</ele>
        <time>2019-04-19T06:35:16.000Z</time>
      </trkpt>
      <trkpt lat="38.500152" lon="-0.705833">
        <ele>726</ele>
        <time>2019-04-19T06:35:17.000Z</time>
      </trkpt>
      <trkpt lat="38.500155" lon="-0.705871">
        <ele>726</ele>
        <time>2019-04-19T06:35:19.000Z</time>
      </trkpt>
      <trkpt lat="38.50015" lon="-0.705912">
        <ele>726.633665373989</ele>
        <time>2019-04-19T06:35:21.000Z</time>
      </trkpt>
      <trkpt lat="38.500148" lon="-0.705954">
        <ele>727</ele>
        <time>2019-04-19T06:35:23.000Z</time>
      </trkpt>
      <trkpt lat="38.500145" lon="-0.706001">
        <ele>728</ele>
        <time>2019-04-19T06:35:25.000Z</time>
      </trkpt>
      <trkpt lat="38.500141" lon="-0.706031">
        <ele>728</ele>
        <time>2019-04-19T06:35:26.000Z</time>
      </trkpt>
      <trkpt lat="38.500136" lon="-0.706056">
        <ele>728</ele>
        <time>2019-04-19T06:35:27.000Z</time>
      </trkpt>
      <trkpt lat="38.500132" lon="-0.706083">
        <ele>728</ele>
        <time>2019-04-19T06:35:28.000Z</time>
      </trkpt>
      <trkpt lat="38.500128" lon="-0.706108">
        <ele>728</ele>
        <time>2019-04-19T06:35:29.000Z</time>
      </trkpt>
      <trkpt lat="38.500126" lon="-0.706133">
        <ele>728.64</ele>
        <time>2019-04-19T06:35:30.000Z</time>
      </trkpt>
      <trkpt lat="38.500121" lon="-0.706156">
        <ele>729</ele>
        <time>2019-04-19T06:35:31.000Z</time>
      </trkpt>
      <trkpt lat="38.500114" lon="-0.706179">
        <ele>729</ele>
        <time>2019-04-19T06:35:32.000Z</time>
      </trkpt>
      <trkpt lat="38.500106" lon="-0.706205">
        <ele>729</ele>
        <time>2019-04-19T06:35:33.000Z</time>
      </trkpt>
      <trkpt lat="38.500101" lon="-0.706229">
        <ele>729</ele>
        <time>2019-04-19T06:35:34.000Z</time>
      </trkpt>
      <trkpt lat="38.500095" lon="-0.706255">
        <ele>729</ele>
        <time>2019-04-19T06:35:35.000Z</time>
      </trkpt>
      <trkpt lat="38.500089" lon="-0.706281">
        <ele>729</ele>
        <time>2019-04-19T06:35:36.000Z</time>
      </trkpt>
      <trkpt lat="38.500085" lon="-0.70631">
        <ele>729.598129052324</ele>
        <time>2019-04-19T06:35:37.000Z</time>
      </trkpt>
      <trkpt lat="38.500084" lon="-0.706336">
        <ele>730.612901893856</ele>
        <time>2019-04-19T06:35:38.000Z</time>
      </trkpt>
      <trkpt lat="38.500082" lon="-0.706363">
        <ele>731</ele>
        <time>2019-04-19T06:35:39.000Z</time>
      </trkpt>
      <trkpt lat="38.500079" lon="-0.70639">
        <ele>731</ele>
        <time>2019-04-19T06:35:40.000Z</time>
      </trkpt>
      <trkpt lat="38.500081" lon="-0.706418">
        <ele>731</ele>
        <time>2019-04-19T06:35:41.000Z</time>
      </trkpt>
      <trkpt lat="38.500082" lon="-0.706441">
        <ele>731</ele>
        <time>2019-04-19T06:35:42.000Z</time>
      </trkpt>
      <trkpt lat="38.50008" lon="-0.706466">
        <ele>731</ele>
        <time>2019-04-19T06:35:43.000Z</time>
      </trkpt>
      <trkpt lat="38.500077" lon="-0.706494">
        <ele>731</ele>
        <time>2019-04-19T06:35:44.000Z</time>
      </trkpt>
      <trkpt lat="38.500071" lon="-0.706522">
        <ele>731</ele>
        <time>2019-04-19T06:35:45.000Z</time>
      </trkpt>
      <trkpt lat="38.500069" lon="-0.706547">
        <ele>731</ele>
        <time>2019-04-19T06:35:46.000Z</time>
      </trkpt>
      <trkpt lat="38.500062" lon="-0.706569">
        <ele>731</ele>
        <time>2019-04-19T06:35:47.000Z</time>
      </trkpt>
      <trkpt lat="38.500055" lon="-0.706592">
        <ele>731</ele>
        <time>2019-04-19T06:35:48.000Z</time>
      </trkpt>
      <trkpt lat="38.500048" lon="-0.706618">
        <ele>731.566373285305</ele>
        <time>2019-04-19T06:35:49.000Z</time>
      </trkpt>
      <trkpt lat="38.500042" lon="-0.706646">
        <ele>732</ele>
        <time>2019-04-19T06:35:50.000Z</time>
      </trkpt>
      <trkpt lat="38.500036" lon="-0.706672">
        <ele>732</ele>
        <time>2019-04-19T06:35:51.000Z</time>
      </trkpt>
      <trkpt lat="38.500032" lon="-0.706699">
        <ele>732</ele>
        <time>2019-04-19T06:35:52.000Z</time>
      </trkpt>
      <trkpt lat="38.50003" lon="-0.706727">
        <ele>732</ele>
        <time>2019-04-19T06:35:53.000Z</time>
      </trkpt>
      <trkpt lat="38.500025" lon="-0.706756">
        <ele>732</ele>
        <time>2019-04-19T06:35:54.000Z</time>
      </trkpt>
      <trkpt lat="38.50002" lon="-0.706782">
        <ele>732</ele>
        <time>2019-04-19T06:35:55.000Z</time>
      </trkpt>
      <trkpt lat="38.500016" lon="-0.706809">
        <ele>732</ele>
        <time>2019-04-19T06:35:56.000Z</time>
      </trkpt>
      <trkpt lat="38.500016" lon="-0.706837">
        <ele>732</ele>
        <time>2019-04-19T06:35:57.000Z</time>
      </trkpt>
      <trkpt lat="38.500013" lon="-0.706867">
        <ele>732.64</ele>
        <time>2019-04-19T06:35:58.000Z</time>
      </trkpt>
      <trkpt lat="38.500011" lon="-0.706896">
        <ele>733</ele>
        <time>2019-04-19T06:35:59.000Z</time>
      </trkpt>
      <trkpt lat="38.500006" lon="-0.706925">
        <ele>733</ele>
        <time>2019-04-19T06:36:00.000Z</time>
      </trkpt>
      <trkpt lat="38.500002" lon="-0.70695">
        <ele>733</ele>
        <time>2019-04-19T06:36:01.000Z</time>
      </trkpt>
      <trkpt lat="38.499998" lon="-0.706978">
        <ele>733</ele>
        <time>2019-04-19T06:36:02.000Z</time>
      </trkpt>
      <trkpt lat="38.499996" lon="-0.707007">
        <ele>733</ele>
        <time>2019-04-19T06:36:03.000Z</time>
      </trkpt>
      <trkpt lat="38.499992" lon="-0.707036">
        <ele>733</ele>
        <time>2019-04-19T06:36:04.000Z</time>
      </trkpt>
      <trkpt lat="38.49999" lon="-0.707064">
        <ele>733.571428571429</ele>
        <time>2019-04-19T06:36:05.000Z</time>
      </trkpt>
      <trkpt lat="38.499991" lon="-0.707092">
        <ele>734</ele>
        <time>2019-04-19T06:36:06.000Z</time>
      </trkpt>
      <trkpt lat="38.499992" lon="-0.707121">
        <ele>734</ele>
        <time>2019-04-19T06:36:07.000Z</time>
      </trkpt>
      <trkpt lat="38.499991" lon="-0.707148">
        <ele>734</ele>
        <time>2019-04-19T06:36:08.000Z</time>
      </trkpt>
      <trkpt lat="38.499993" lon="-0.707174">
        <ele>734</ele>
        <time>2019-04-19T06:36:09.000Z</time>
      </trkpt>
      <trkpt lat="38.499994" lon="-0.707204">
        <ele>734</ele>
        <time>2019-04-19T06:36:10.000Z</time>
      </trkpt>
      <trkpt lat="38.499993" lon="-0.707229">
        <ele>734</ele>
        <time>2019-04-19T06:36:11.000Z</time>
      </trkpt>
      <trkpt lat="38.499993" lon="-0.707255">
        <ele>734</ele>
        <time>2019-04-19T06:36:12.000Z</time>
      </trkpt>
      <trkpt lat="38.499989" lon="-0.70728">
        <ele>734</ele>
        <time>2019-04-19T06:36:13.000Z</time>
      </trkpt>
      <trkpt lat="38.499987" lon="-0.707305">
        <ele>734</ele>
        <time>2019-04-19T06:36:14.000Z</time>
      </trkpt>
      <trkpt lat="38.499989" lon="-0.707329">
        <ele>734.581821566962</ele>
        <time>2019-04-19T06:36:15.000Z</time>
      </trkpt>
      <trkpt lat="38.499989" lon="-0.707356">
        <ele>735</ele>
        <time>2019-04-19T06:36:16.000Z</time>
      </trkpt>
      <trkpt lat="38.499992" lon="-0.707383">
        <ele>735</ele>
        <time>2019-04-19T06:36:17.000Z</time>
      </trkpt>
      <trkpt lat="38.499999" lon="-0.707412">
        <ele>735</ele>
        <time>2019-04-19T06:36:18.000Z</time>
      </trkpt>
      <trkpt lat="38.500004" lon="-0.707441">
        <ele>735</ele>
        <time>2019-04-19T06:36:19.000Z</time>
      </trkpt>
      <trkpt lat="38.500009" lon="-0.70747">
        <ele>735.632655460209</ele>
        <time>2019-04-19T06:36:20.000Z</time>
      </trkpt>
      <trkpt lat="38.500011" lon="-0.707494">
        <ele>736</ele>
        <time>2019-04-19T06:36:21.000Z</time>
      </trkpt>
      <trkpt lat="38.500016" lon="-0.70752">
        <ele>736</ele>
        <time>2019-04-19T06:36:22.000Z</time>
      </trkpt>
      <trkpt lat="38.500021" lon="-0.707543">
        <ele>736</ele>
        <time>2019-04-19T06:36:23.000Z</time>
      </trkpt>
      <trkpt lat="38.500026" lon="-0.707569">
        <ele>736</ele>
        <time>2019-04-19T06:36:24.000Z</time>
      </trkpt>
      <trkpt lat="38.500032" lon="-0.707598">
        <ele>736</ele>
        <time>2019-04-19T06:36:25.000Z</time>
      </trkpt>
      <trkpt lat="38.500042" lon="-0.707627">
        <ele>736</ele>
        <time>2019-04-19T06:36:26.000Z</time>
      </trkpt>
      <trkpt lat="38.500051" lon="-0.707653">
        <ele>736</ele>
        <time>2019-04-19T06:36:27.000Z</time>
      </trkpt>
      <trkpt lat="38.50006" lon="-0.707678">
        <ele>736</ele>
        <time>2019-04-19T06:36:28.000Z</time>
      </trkpt>
      <trkpt lat="38.500068" lon="-0.7077">
        <ele>736</ele>
        <time>2019-04-19T06:36:29.000Z</time>
      </trkpt>
      <trkpt lat="38.500076" lon="-0.707725">
        <ele>736</ele>
        <time>2019-04-19T06:36:30.000Z</time>
      </trkpt>
      <trkpt lat="38.500082" lon="-0.707749">
        <ele>736</ele>
        <time>2019-04-19T06:36:31.000Z</time>
      </trkpt>
      <trkpt lat="38.500091" lon="-0.707774">
        <ele>736.468254129503</ele>
        <time>2019-04-19T06:36:32.000Z</time>
      </trkpt>
      <trkpt lat="38.500095" lon="-0.707797">
        <ele>737</ele>
        <time>2019-04-19T06:36:33.000Z</time>
      </trkpt>
      <trkpt lat="38.500104" lon="-0.707822">
        <ele>737</ele>
        <time>2019-04-19T06:36:34.000Z</time>
      </trkpt>
      <trkpt lat="38.500112" lon="-0.707845">
        <ele>737</ele>
        <time>2019-04-19T06:36:35.000Z</time>
      </trkpt>
      <trkpt lat="38.500121" lon="-0.707869">
        <ele>737</ele>
        <time>2019-04-19T06:36:36.000Z</time>
      </trkpt>
      <trkpt lat="38.500129" lon="-0.707892">
        <ele>737.64</ele>
        <time>2019-04-19T06:36:37.000Z</time>
      </trkpt>
      <trkpt lat="38.500136" lon="-0.707913">
        <ele>738</ele>
        <time>2019-04-19T06:36:38.000Z</time>
      </trkpt>
      <trkpt lat="38.500154" lon="-0.707958">
        <ele>738</ele>
        <time>2019-04-19T06:36:40.000Z</time>
      </trkpt>
      <trkpt lat="38.500162" lon="-0.707985">
        <ele>738</ele>
        <time>2019-04-19T06:36:41.000Z</time>
      </trkpt>
      <trkpt lat="38.500172" lon="-0.708011">
        <ele>738</ele>
        <time>2019-04-19T06:36:42.000Z</time>
      </trkpt>
      <trkpt lat="38.50018" lon="-0.708034">
        <ele>738.633665373989</ele>
        <time>2019-04-19T06:36:43.000Z</time>
      </trkpt>
      <trkpt lat="38.500189" lon="-0.708059">
        <ele>739</ele>
        <time>2019-04-19T06:36:44.000Z</time>
      </trkpt>
      <trkpt lat="38.500198" lon="-0.708084">
        <ele>739.598129052324</ele>
        <time>2019-04-19T06:36:45.000Z</time>
      </trkpt>
      <trkpt lat="38.500207" lon="-0.708111">
        <ele>740</ele>
        <time>2019-04-19T06:36:46.000Z</time>
      </trkpt>
      <trkpt lat="38.500216" lon="-0.708138">
        <ele>740</ele>
        <time>2019-04-19T06:36:47.000Z</time>
      </trkpt>
      <trkpt lat="38.500226" lon="-0.708162">
        <ele>740</ele>
        <time>2019-04-19T06:36:48.000Z</time>
      </trkpt>
      <trkpt lat="38.500233" lon="-0.708187">
        <ele>740</ele>
        <time>2019-04-19T06:36:49.000Z</time>
      </trkpt>
      <trkpt lat="38.500238" lon="-0.708214">
        <ele>740</ele>
        <time>2019-04-19T06:36:50.000Z</time>
      </trkpt>
      <trkpt lat="38.500245" lon="-0.70824">
        <ele>740</ele>
        <time>2019-04-19T06:36:51.000Z</time>
      </trkpt>
      <trkpt lat="38.500254" lon="-0.708265">
        <ele>740</ele>
        <time>2019-04-19T06:36:52.000Z</time>
      </trkpt>
      <trkpt lat="38.50026" lon="-0.708287">
        <ele>740</ele>
        <time>2019-04-19T06:36:53.000Z</time>
      </trkpt>
      <trkpt lat="38.500268" lon="-0.70831">
        <ele>740</ele>
        <time>2019-04-19T06:36:54.000Z</time>
      </trkpt>
      <trkpt lat="38.500274" lon="-0.708335">
        <ele>740</ele>
        <time>2019-04-19T06:36:55.000Z</time>
      </trkpt>
      <trkpt lat="38.500281" lon="-0.708359">
        <ele>740.64</ele>
        <time>2019-04-19T06:36:56.000Z</time>
      </trkpt>
      <trkpt lat="38.50029" lon="-0.708385">
        <ele>741</ele>
        <time>2019-04-19T06:36:57.000Z</time>
      </trkpt>
      <trkpt lat="38.500299" lon="-0.70841">
        <ele>741</ele>
        <time>2019-04-19T06:36:58.000Z</time>
      </trkpt>
      <trkpt lat="38.500306" lon="-0.708437">
        <ele>741</ele>
        <time>2019-04-19T06:36:59.000Z</time>
      </trkpt>
      <trkpt lat="38.500314" lon="-0.708464">
        <ele>741</ele>
        <time>2019-04-19T06:37:00.000Z</time>
      </trkpt>
      <trkpt lat="38.500323" lon="-0.708494">
        <ele>741</ele>
        <time>2019-04-19T06:37:01.000Z</time>
      </trkpt>
      <trkpt lat="38.500335" lon="-0.708525">
        <ele>741</ele>
        <time>2019-04-19T06:37:02.000Z</time>
      </trkpt>
      <trkpt lat="38.500346" lon="-0.708553">
        <ele>741</ele>
        <time>2019-04-19T06:37:03.000Z</time>
      </trkpt>
      <trkpt lat="38.500361" lon="-0.708578">
        <ele>741</ele>
        <time>2019-04-19T06:37:04.000Z</time>
      </trkpt>
      <trkpt lat="38.500377" lon="-0.708608">
        <ele>741.633665373989</ele>
        <time>2019-04-19T06:37:05.000Z</time>
      </trkpt>
      <trkpt lat="38.500388" lon="-0.708638">
        <ele>742</ele>
        <time>2019-04-19T06:37:06.000Z</time>
      </trkpt>
      <trkpt lat="38.500397" lon="-0.708669">
        <ele>742</ele>
        <time>2019-04-19T06:37:07.000Z</time>
      </trkpt>
      <trkpt lat="38.500407" lon="-0.708696">
        <ele>742</ele>
        <time>2019-04-19T06:37:08.000Z</time>
      </trkpt>
      <trkpt lat="38.500421" lon="-0.708723">
        <ele>742.64</ele>
        <time>2019-04-19T06:37:09.000Z</time>
      </trkpt>
      <trkpt lat="38.500464" lon="-0.708832">
        <ele>743</ele>
        <time>2019-04-19T06:37:13.000Z</time>
      </trkpt>
      <trkpt lat="38.500498" lon="-0.708956">
        <ele>743</ele>
        <time>2019-04-19T06:37:18.000Z</time>
      </trkpt>
      <trkpt lat="38.500549" lon="-0.709064">
        <ele>744</ele>
        <time>2019-04-19T06:37:23.000Z</time>
      </trkpt>
      <trkpt lat="38.500589" lon="-0.709174">
        <ele>744</ele>
        <time>2019-04-19T06:37:27.000Z</time>
      </trkpt>
      <trkpt lat="38.500628" lon="-0.709288">
        <ele>745</ele>
        <time>2019-04-19T06:37:32.000Z</time>
      </trkpt>
      <trkpt lat="38.500656" lon="-0.709418">
        <ele>747</ele>
        <time>2019-04-19T06:37:37.000Z</time>
      </trkpt>
      <trkpt lat="38.500669" lon="-0.709537">
        <ele>748</ele>
        <time>2019-04-19T06:37:42.000Z</time>
      </trkpt>
      <trkpt lat="38.500671" lon="-0.709669">
        <ele>749</ele>
        <time>2019-04-19T06:37:47.000Z</time>
      </trkpt>
      <trkpt lat="38.500663" lon="-0.709787">
        <ele>750</ele>
        <time>2019-04-19T06:37:53.000Z</time>
      </trkpt>
      <trkpt lat="38.500567" lon="-0.709831">
        <ele>752</ele>
        <time>2019-04-19T06:37:59.000Z</time>
      </trkpt>
      <trkpt lat="38.500484" lon="-0.709766">
        <ele>753</ele>
        <time>2019-04-19T06:38:05.000Z</time>
      </trkpt>
      <trkpt lat="38.500411" lon="-0.709691">
        <ele>754</ele>
        <time>2019-04-19T06:38:10.000Z</time>
      </trkpt>
      <trkpt lat="38.500325" lon="-0.709608">
        <ele>755</ele>
        <time>2019-04-19T06:38:15.000Z</time>
      </trkpt>
      <trkpt lat="38.500225" lon="-0.70954">
        <ele>755</ele>
        <time>2019-04-19T06:38:20.000Z</time>
      </trkpt>
      <trkpt lat="38.500126" lon="-0.709496">
        <ele>756</ele>
        <time>2019-04-19T06:38:25.000Z</time>
      </trkpt>
      <trkpt lat="38.500017" lon="-0.70949">
        <ele>758</ele>
        <time>2019-04-19T06:38:30.000Z</time>
      </trkpt>
      <trkpt lat="38.500013" lon="-0.709616">
        <ele>758</ele>
        <time>2019-04-19T06:38:36.000Z</time>
      </trkpt>
      <trkpt lat="38.500088" lon="-0.70968">
        <ele>760</ele>
        <time>2019-04-19T06:38:41.000Z</time>
      </trkpt>
      <trkpt lat="38.500168" lon="-0.709753">
        <ele>760</ele>
        <time>2019-04-19T06:38:46.000Z</time>
      </trkpt>
      <trkpt lat="38.500258" lon="-0.709815">
        <ele>762.63636481175</ele>
        <time>2019-04-19T06:38:52.000Z</time>
      </trkpt>
      <trkpt lat="38.500279" lon="-0.709847">
        <ele>763</ele>
        <time>2019-04-19T06:38:54.000Z</time>
      </trkpt>
      <trkpt lat="38.500293" lon="-0.709862">
        <ele>763.64</ele>
        <time>2019-04-19T06:38:55.000Z</time>
      </trkpt>
      <trkpt lat="38.50032" lon="-0.709888">
        <ele>764</ele>
        <time>2019-04-19T06:38:57.000Z</time>
      </trkpt>
      <trkpt lat="38.500334" lon="-0.709906">
        <ele>764</ele>
        <time>2019-04-19T06:38:58.000Z</time>
      </trkpt>
      <trkpt lat="38.500349" lon="-0.709926">
        <ele>764</ele>
        <time>2019-04-19T06:38:59.000Z</time>
      </trkpt>
      <trkpt lat="38.50036" lon="-0.709946">
        <ele>764</ele>
        <time>2019-04-19T06:39:00.000Z</time>
      </trkpt>
      <trkpt lat="38.500371" lon="-0.709968">
        <ele>764</ele>
        <time>2019-04-19T06:39:01.000Z</time>
      </trkpt>
      <trkpt lat="38.500386" lon="-0.709982">
        <ele>764</ele>
        <time>2019-04-19T06:39:02.000Z</time>
      </trkpt>
      <trkpt lat="38.500399" lon="-0.710003">
        <ele>764</ele>
        <time>2019-04-19T06:39:03.000Z</time>
      </trkpt>
      <trkpt lat="38.500411" lon="-0.710025">
        <ele>764</ele>
        <time>2019-04-19T06:39:04.000Z</time>
      </trkpt>
      <trkpt lat="38.500422" lon="-0.710051">
        <ele>764</ele>
        <time>2019-04-19T06:39:05.000Z</time>
      </trkpt>
      <trkpt lat="38.500433" lon="-0.710073">
        <ele>764</ele>
        <time>2019-04-19T06:39:06.000Z</time>
      </trkpt>
      <trkpt lat="38.500442" lon="-0.710097">
        <ele>764.599997155535</ele>
        <time>2019-04-19T06:39:07.000Z</time>
      </trkpt>
      <trkpt lat="38.50045" lon="-0.710119">
        <ele>765</ele>
        <time>2019-04-19T06:39:08.000Z</time>
      </trkpt>
      <trkpt lat="38.50046" lon="-0.71014">
        <ele>765</ele>
        <time>2019-04-19T06:39:09.000Z</time>
      </trkpt>
      <trkpt lat="38.500471" lon="-0.710163">
        <ele>765</ele>
        <time>2019-04-19T06:39:10.000Z</time>
      </trkpt>
      <trkpt lat="38.50049" lon="-0.710201">
        <ele>765</ele>
        <time>2019-04-19T06:39:12.000Z</time>
      </trkpt>
      <trkpt lat="38.500502" lon="-0.710219">
        <ele>765</ele>
        <time>2019-04-19T06:39:13.000Z</time>
      </trkpt>
      <trkpt lat="38.500523" lon="-0.710258">
        <ele>766</ele>
        <time>2019-04-19T06:39:15.000Z</time>
      </trkpt>
      <trkpt lat="38.50054" lon="-0.710277">
        <ele>766.64</ele>
        <time>2019-04-19T06:39:16.000Z</time>
      </trkpt>
      <trkpt lat="38.500554" lon="-0.7103">
        <ele>767</ele>
        <time>2019-04-19T06:39:17.000Z</time>
      </trkpt>
      <trkpt lat="38.500566" lon="-0.710319">
        <ele>767</ele>
        <time>2019-04-19T06:39:18.000Z</time>
      </trkpt>
      <trkpt lat="38.500576" lon="-0.710341">
        <ele>767</ele>
        <time>2019-04-19T06:39:19.000Z</time>
      </trkpt>
      <trkpt lat="38.500587" lon="-0.710366">
        <ele>767</ele>
        <time>2019-04-19T06:39:20.000Z</time>
      </trkpt>
      <trkpt lat="38.500597" lon="-0.710387">
        <ele>767</ele>
        <time>2019-04-19T06:39:21.000Z</time>
      </trkpt>
      <trkpt lat="38.500605" lon="-0.71041">
        <ele>767</ele>
        <time>2019-04-19T06:39:22.000Z</time>
      </trkpt>
      <trkpt lat="38.500614" lon="-0.710433">
        <ele>767</ele>
        <time>2019-04-19T06:39:23.000Z</time>
      </trkpt>
      <trkpt lat="38.500621" lon="-0.710457">
        <ele>767</ele>
        <time>2019-04-19T06:39:24.000Z</time>
      </trkpt>
      <trkpt lat="38.500626" lon="-0.710484">
        <ele>767</ele>
        <time>2019-04-19T06:39:25.000Z</time>
      </trkpt>
      <trkpt lat="38.500632" lon="-0.710509">
        <ele>767</ele>
        <time>2019-04-19T06:39:26.000Z</time>
      </trkpt>
      <trkpt lat="38.500638" lon="-0.710532">
        <ele>767</ele>
        <time>2019-04-19T06:39:27.000Z</time>
      </trkpt>
      <trkpt lat="38.500652" lon="-0.710579">
        <ele>767</ele>
        <time>2019-04-19T06:39:29.000Z</time>
      </trkpt>
      <trkpt lat="38.50066" lon="-0.710601">
        <ele>767.598129052324</ele>
        <time>2019-04-19T06:39:30.000Z</time>
      </trkpt>
      <trkpt lat="38.500665" lon="-0.710624">
        <ele>768</ele>
        <time>2019-04-19T06:39:31.000Z</time>
      </trkpt>
      <trkpt lat="38.500669" lon="-0.710648">
        <ele>768</ele>
        <time>2019-04-19T06:39:32.000Z</time>
      </trkpt>
      <trkpt lat="38.500678" lon="-0.710694">
        <ele>768</ele>
        <time>2019-04-19T06:39:34.000Z</time>
      </trkpt>
      <trkpt lat="38.500679" lon="-0.710721">
        <ele>768</ele>
        <time>2019-04-19T06:39:35.000Z</time>
      </trkpt>
      <trkpt lat="38.500684" lon="-0.710746">
        <ele>768.547618322007</ele>
        <time>2019-04-19T06:39:36.000Z</time>
      </trkpt>
      <trkpt lat="38.500688" lon="-0.710773">
        <ele>769.632650662208</ele>
        <time>2019-04-19T06:39:37.000Z</time>
      </trkpt>
      <trkpt lat="38.500695" lon="-0.7108">
        <ele>770</ele>
        <time>2019-04-19T06:39:38.000Z</time>
      </trkpt>
      <trkpt lat="38.500701" lon="-0.710826">
        <ele>770</ele>
        <time>2019-04-19T06:39:39.000Z</time>
      </trkpt>
      <trkpt lat="38.500705" lon="-0.710851">
        <ele>770</ele>
        <time>2019-04-19T06:39:40.000Z</time>
      </trkpt>
      <trkpt lat="38.500707" lon="-0.710877">
        <ele>770</ele>
        <time>2019-04-19T06:39:41.000Z</time>
      </trkpt>
      <trkpt lat="38.500712" lon="-0.710902">
        <ele>770</ele>
        <time>2019-04-19T06:39:42.000Z</time>
      </trkpt>
      <trkpt lat="38.500719" lon="-0.710926">
        <ele>770</ele>
        <time>2019-04-19T06:39:43.000Z</time>
      </trkpt>
      <trkpt lat="38.500724" lon="-0.710951">
        <ele>770</ele>
        <time>2019-04-19T06:39:44.000Z</time>
      </trkpt>
      <trkpt lat="38.500729" lon="-0.710978">
        <ele>770</ele>
        <time>2019-04-19T06:39:45.000Z</time>
      </trkpt>
      <trkpt lat="38.500735" lon="-0.711003">
        <ele>770</ele>
        <time>2019-04-19T06:39:46.000Z</time>
      </trkpt>
      <trkpt lat="38.500742" lon="-0.711029">
        <ele>770.621357292871</ele>
        <time>2019-04-19T06:39:47.000Z</time>
      </trkpt>
      <trkpt lat="38.500748" lon="-0.711053">
        <ele>771</ele>
        <time>2019-04-19T06:39:48.000Z</time>
      </trkpt>
      <trkpt lat="38.500753" lon="-0.711076">
        <ele>771</ele>
        <time>2019-04-19T06:39:49.000Z</time>
      </trkpt>
      <trkpt lat="38.50077" lon="-0.711182">
        <ele>772</ele>
        <time>2019-04-19T06:39:53.000Z</time>
      </trkpt>
      <trkpt lat="38.500773" lon="-0.711211">
        <ele>772</ele>
        <time>2019-04-19T06:39:54.000Z</time>
      </trkpt>
      <trkpt lat="38.500775" lon="-0.711241">
        <ele>772.599997155535</ele>
        <time>2019-04-19T06:39:55.000Z</time>
      </trkpt>
      <trkpt lat="38.500777" lon="-0.711269">
        <ele>773</ele>
        <time>2019-04-19T06:39:56.000Z</time>
      </trkpt>
      <trkpt lat="38.500779" lon="-0.711294">
        <ele>773</ele>
        <time>2019-04-19T06:39:57.000Z</time>
      </trkpt>
      <trkpt lat="38.500784" lon="-0.71134">
        <ele>773</ele>
        <time>2019-04-19T06:39:59.000Z</time>
      </trkpt>
      <trkpt lat="38.500787" lon="-0.711366">
        <ele>773.64</ele>
        <time>2019-04-19T06:40:00.000Z</time>
      </trkpt>
      <trkpt lat="38.500791" lon="-0.711392">
        <ele>774</ele>
        <time>2019-04-19T06:40:01.000Z</time>
      </trkpt>
      <trkpt lat="38.500794" lon="-0.711421">
        <ele>774</ele>
        <time>2019-04-19T06:40:02.000Z</time>
      </trkpt>
      <trkpt lat="38.500802" lon="-0.711446">
        <ele>774</ele>
        <time>2019-04-19T06:40:03.000Z</time>
      </trkpt>
      <trkpt lat="38.500813" lon="-0.711472">
        <ele>774</ele>
        <time>2019-04-19T06:40:04.000Z</time>
      </trkpt>
      <trkpt lat="38.500826" lon="-0.7115">
        <ele>774</ele>
        <time>2019-04-19T06:40:05.000Z</time>
      </trkpt>
      <trkpt lat="38.500838" lon="-0.711525">
        <ele>774</ele>
        <time>2019-04-19T06:40:06.000Z</time>
      </trkpt>
      <trkpt lat="38.500849" lon="-0.711548">
        <ele>774</ele>
        <time>2019-04-19T06:40:07.000Z</time>
      </trkpt>
      <trkpt lat="38.500863" lon="-0.711571">
        <ele>774</ele>
        <time>2019-04-19T06:40:08.000Z</time>
      </trkpt>
      <trkpt lat="38.500876" lon="-0.711594">
        <ele>774.612901893856</ele>
        <time>2019-04-19T06:40:09.000Z</time>
      </trkpt>
      <trkpt lat="38.500893" lon="-0.711614">
        <ele>775</ele>
        <time>2019-04-19T06:40:10.000Z</time>
      </trkpt>
      <trkpt lat="38.500909" lon="-0.711629">
        <ele>775</ele>
        <time>2019-04-19T06:40:11.000Z</time>
      </trkpt>
      <trkpt lat="38.500926" lon="-0.711645">
        <ele>775</ele>
        <time>2019-04-19T06:40:12.000Z</time>
      </trkpt>
      <trkpt lat="38.500941" lon="-0.711664">
        <ele>775</ele>
        <time>2019-04-19T06:40:13.000Z</time>
      </trkpt>
      <trkpt lat="38.50096" lon="-0.711678">
        <ele>775</ele>
        <time>2019-04-19T06:40:14.000Z</time>
      </trkpt>
      <trkpt lat="38.500975" lon="-0.711691">
        <ele>775</ele>
        <time>2019-04-19T06:40:15.000Z</time>
      </trkpt>
      <trkpt lat="38.500991" lon="-0.711707">
        <ele>775</ele>
        <time>2019-04-19T06:40:16.000Z</time>
      </trkpt>
      <trkpt lat="38.501009" lon="-0.711718">
        <ele>775</ele>
        <time>2019-04-19T06:40:17.000Z</time>
      </trkpt>
      <trkpt lat="38.50103" lon="-0.711728">
        <ele>775</ele>
        <time>2019-04-19T06:40:18.000Z</time>
      </trkpt>
      <trkpt lat="38.501049" lon="-0.711738">
        <ele>775</ele>
        <time>2019-04-19T06:40:19.000Z</time>
      </trkpt>
      <trkpt lat="38.501068" lon="-0.71175">
        <ele>775.48854842492</ele>
        <time>2019-04-19T06:40:20.000Z</time>
      </trkpt>
      <trkpt lat="38.501087" lon="-0.711762">
        <ele>776</ele>
        <time>2019-04-19T06:40:21.000Z</time>
      </trkpt>
      <trkpt lat="38.501106" lon="-0.711776">
        <ele>776</ele>
        <time>2019-04-19T06:40:22.000Z</time>
      </trkpt>
      <trkpt lat="38.501123" lon="-0.711792">
        <ele>776</ele>
        <time>2019-04-19T06:40:23.000Z</time>
      </trkpt>
      <trkpt lat="38.501141" lon="-0.71181">
        <ele>775.36363518825</ele>
        <time>2019-04-19T06:40:24.000Z</time>
      </trkpt>
      <trkpt lat="38.501156" lon="-0.711828">
        <ele>775.587157687068</ele>
        <time>2019-04-19T06:40:25.000Z</time>
      </trkpt>
      <trkpt lat="38.501172" lon="-0.711845">
        <ele>776</ele>
        <time>2019-04-19T06:40:26.000Z</time>
      </trkpt>
      <trkpt lat="38.501186" lon="-0.711864">
        <ele>776</ele>
        <time>2019-04-19T06:40:27.000Z</time>
      </trkpt>
      <trkpt lat="38.501201" lon="-0.71188">
        <ele>776</ele>
        <time>2019-04-19T06:40:28.000Z</time>
      </trkpt>
      <trkpt lat="38.501213" lon="-0.711897">
        <ele>776</ele>
        <time>2019-04-19T06:40:29.000Z</time>
      </trkpt>
      <trkpt lat="38.501227" lon="-0.711919">
        <ele>776</ele>
        <time>2019-04-19T06:40:30.000Z</time>
      </trkpt>
      <trkpt lat="38.501244" lon="-0.711938">
        <ele>776</ele>
        <time>2019-04-19T06:40:31.000Z</time>
      </trkpt>
      <trkpt lat="38.501258" lon="-0.71196">
        <ele>776</ele>
        <time>2019-04-19T06:40:32.000Z</time>
      </trkpt>
      <trkpt lat="38.50127" lon="-0.71198">
        <ele>776</ele>
        <time>2019-04-19T06:40:33.000Z</time>
      </trkpt>
      <trkpt lat="38.501292" lon="-0.712016">
        <ele>776</ele>
        <time>2019-04-19T06:40:35.000Z</time>
      </trkpt>
      <trkpt lat="38.501305" lon="-0.71205">
        <ele>776</ele>
        <time>2019-04-19T06:40:37.000Z</time>
      </trkpt>
      <trkpt lat="38.501288" lon="-0.712078">
        <ele>776</ele>
        <time>2019-04-19T06:40:39.000Z</time>
      </trkpt>
      <trkpt lat="38.50127" lon="-0.712097">
        <ele>776</ele>
        <time>2019-04-19T06:40:41.000Z</time>
      </trkpt>
      <trkpt lat="38.501249" lon="-0.712108">
        <ele>776.64</ele>
        <time>2019-04-19T06:40:43.000Z</time>
      </trkpt>
      <trkpt lat="38.501228" lon="-0.712114">
        <ele>778</ele>
        <time>2019-04-19T06:40:45.000Z</time>
      </trkpt>
      <trkpt lat="38.501207" lon="-0.712122">
        <ele>779</ele>
        <time>2019-04-19T06:40:47.000Z</time>
      </trkpt>
      <trkpt lat="38.501187" lon="-0.712127">
        <ele>779</ele>
        <time>2019-04-19T06:40:49.000Z</time>
      </trkpt>
      <trkpt lat="38.501167" lon="-0.712139">
        <ele>779.603769939502</ele>
        <time>2019-04-19T06:40:51.000Z</time>
      </trkpt>
      <trkpt lat="38.501145" lon="-0.712154">
        <ele>780.561400357051</ele>
        <time>2019-04-19T06:40:53.000Z</time>
      </trkpt>
      <trkpt lat="38.501123" lon="-0.712168">
        <ele>781</ele>
        <time>2019-04-19T06:40:55.000Z</time>
      </trkpt>
      <trkpt lat="38.5011" lon="-0.71218">
        <ele>781</ele>
        <time>2019-04-19T06:40:57.000Z</time>
      </trkpt>
      <trkpt lat="38.501077" lon="-0.712191">
        <ele>781</ele>
        <time>2019-04-19T06:40:59.000Z</time>
      </trkpt>
      <trkpt lat="38.501055" lon="-0.712202">
        <ele>781.613317018176</ele>
        <time>2019-04-19T06:41:01.000Z</time>
      </trkpt>
      <trkpt lat="38.501036" lon="-0.712219">
        <ele>782.633665373989</ele>
        <time>2019-04-19T06:41:03.000Z</time>
      </trkpt>
      <trkpt lat="38.501018" lon="-0.712233">
        <ele>783</ele>
        <time>2019-04-19T06:41:05.000Z</time>
      </trkpt>
      <trkpt lat="38.500991" lon="-0.712238">
        <ele>783.64</ele>
        <time>2019-04-19T06:41:08.000Z</time>
      </trkpt>
      <trkpt lat="38.500967" lon="-0.712255">
        <ele>785</ele>
        <time>2019-04-19T06:41:11.000Z</time>
      </trkpt>
      <trkpt lat="38.500945" lon="-0.712269">
        <ele>785</ele>
        <time>2019-04-19T06:41:14.000Z</time>
      </trkpt>
      <trkpt lat="38.500925" lon="-0.712283">
        <ele>785</ele>
        <time>2019-04-19T06:41:16.000Z</time>
      </trkpt>
      <trkpt lat="38.500906" lon="-0.71229">
        <ele>785</ele>
        <time>2019-04-19T06:41:18.000Z</time>
      </trkpt>
      <trkpt lat="38.500884" lon="-0.712297">
        <ele>786</ele>
        <time>2019-04-19T06:41:20.000Z</time>
      </trkpt>
      <trkpt lat="38.500862" lon="-0.712313">
        <ele>786.63636481175</ele>
        <time>2019-04-19T06:41:23.000Z</time>
      </trkpt>
      <trkpt lat="38.500844" lon="-0.712329">
        <ele>787.604396995527</ele>
        <time>2019-04-19T06:41:25.000Z</time>
      </trkpt>
      <trkpt lat="38.500826" lon="-0.712346">
        <ele>788</ele>
        <time>2019-04-19T06:41:27.000Z</time>
      </trkpt>
      <trkpt lat="38.500813" lon="-0.712368">
        <ele>789.592592592593</ele>
        <time>2019-04-19T06:41:29.000Z</time>
      </trkpt>
      <trkpt lat="38.500798" lon="-0.712384">
        <ele>790</ele>
        <time>2019-04-19T06:41:31.000Z</time>
      </trkpt>
      <trkpt lat="38.500781" lon="-0.712397">
        <ele>790</ele>
        <time>2019-04-19T06:41:33.000Z</time>
      </trkpt>
      <trkpt lat="38.50076" lon="-0.71241">
        <ele>790</ele>
        <time>2019-04-19T06:41:35.000Z</time>
      </trkpt>
      <trkpt lat="38.500739" lon="-0.712412">
        <ele>791</ele>
        <time>2019-04-19T06:41:37.000Z</time>
      </trkpt>
      <trkpt lat="38.500707" lon="-0.712413">
        <ele>792.627454917364</ele>
        <time>2019-04-19T06:41:41.000Z</time>
      </trkpt>
      <trkpt lat="38.500688" lon="-0.712412">
        <ele>793</ele>
        <time>2019-04-19T06:41:43.000Z</time>
      </trkpt>
      <trkpt lat="38.500669" lon="-0.71241">
        <ele>793</ele>
        <time>2019-04-19T06:41:45.000Z</time>
      </trkpt>
      <trkpt lat="38.50065" lon="-0.712418">
        <ele>793.627454917364</ele>
        <time>2019-04-19T06:41:47.000Z</time>
      </trkpt>
      <trkpt lat="38.50063" lon="-0.71243">
        <ele>794</ele>
        <time>2019-04-19T06:41:49.000Z</time>
      </trkpt>
      <trkpt lat="38.500609" lon="-0.712436">
        <ele>794</ele>
        <time>2019-04-19T06:41:51.000Z</time>
      </trkpt>
      <trkpt lat="38.500587" lon="-0.712441">
        <ele>794</ele>
        <time>2019-04-19T06:41:53.000Z</time>
      </trkpt>
      <trkpt lat="38.500564" lon="-0.712442">
        <ele>794.474072950346</ele>
        <time>2019-04-19T06:41:55.000Z</time>
      </trkpt>
      <trkpt lat="38.500544" lon="-0.712447">
        <ele>795.566373285305</ele>
        <time>2019-04-19T06:41:57.000Z</time>
      </trkpt>
      <trkpt lat="38.500517" lon="-0.71245">
        <ele>797</ele>
        <time>2019-04-19T06:42:01.000Z</time>
      </trkpt>
      <trkpt lat="38.500475" lon="-0.712399">
        <ele>799.64</ele>
        <time>2019-04-19T06:42:09.000Z</time>
      </trkpt>
      <trkpt lat="38.500455" lon="-0.712394">
        <ele>800</ele>
        <time>2019-04-19T06:42:11.000Z</time>
      </trkpt>
      <trkpt lat="38.500436" lon="-0.712403">
        <ele>800</ele>
        <time>2019-04-19T06:42:13.000Z</time>
      </trkpt>
      <trkpt lat="38.500421" lon="-0.71242">
        <ele>801</ele>
        <time>2019-04-19T06:42:15.000Z</time>
      </trkpt>
      <trkpt lat="38.500404" lon="-0.712428">
        <ele>802</ele>
        <time>2019-04-19T06:42:17.000Z</time>
      </trkpt>
      <trkpt lat="38.500381" lon="-0.712433">
        <ele>802.64</ele>
        <time>2019-04-19T06:42:20.000Z</time>
      </trkpt>
      <trkpt lat="38.500356" lon="-0.712434">
        <ele>803</ele>
        <time>2019-04-19T06:42:23.000Z</time>
      </trkpt>
      <trkpt lat="38.500333" lon="-0.71244">
        <ele>803.587157687068</ele>
        <time>2019-04-19T06:42:26.000Z</time>
      </trkpt>
      <trkpt lat="38.50031" lon="-0.712447">
        <ele>805</ele>
        <time>2019-04-19T06:42:30.000Z</time>
      </trkpt>
      <trkpt lat="38.500289" lon="-0.712458">
        <ele>806</ele>
        <time>2019-04-19T06:42:34.000Z</time>
      </trkpt>
      <trkpt lat="38.500276" lon="-0.712484">
        <ele>807</ele>
        <time>2019-04-19T06:42:37.000Z</time>
      </trkpt>
      <trkpt lat="38.500259" lon="-0.712504">
        <ele>808</ele>
        <time>2019-04-19T06:42:40.000Z</time>
      </trkpt>
      <trkpt lat="38.50024" lon="-0.712526">
        <ele>809.633665373989</ele>
        <time>2019-04-19T06:42:43.000Z</time>
      </trkpt>
      <trkpt lat="38.500225" lon="-0.712543">
        <ele>810</ele>
        <time>2019-04-19T06:42:45.000Z</time>
      </trkpt>
      <trkpt lat="38.500213" lon="-0.712561">
        <ele>811</ele>
        <time>2019-04-19T06:42:48.000Z</time>
      </trkpt>
      <trkpt lat="38.500181" lon="-0.712562">
        <ele>811</ele>
        <time>2019-04-19T06:42:51.000Z</time>
      </trkpt>
      <trkpt lat="38.50016" lon="-0.712559">
        <ele>812</ele>
        <time>2019-04-19T06:42:53.000Z</time>
      </trkpt>
      <trkpt lat="38.500142" lon="-0.712563">
        <ele>812</ele>
        <time>2019-04-19T06:42:55.000Z</time>
      </trkpt>
      <trkpt lat="38.500116" lon="-0.712581">
        <ele>813</ele>
        <time>2019-04-19T06:42:59.000Z</time>
      </trkpt>
      <trkpt lat="38.500109" lon="-0.712605">
        <ele>814</ele>
        <time>2019-04-19T06:43:01.000Z</time>
      </trkpt>
      <trkpt lat="38.500104" lon="-0.712636">
        <ele>815</ele>
        <time>2019-04-19T06:43:04.000Z</time>
      </trkpt>
      <trkpt lat="38.500083" lon="-0.712643">
        <ele>816</ele>
        <time>2019-04-19T06:43:08.000Z</time>
      </trkpt>
      <trkpt lat="38.500064" lon="-0.712649">
        <ele>816.492305268651</ele>
        <time>2019-04-19T06:43:11.000Z</time>
      </trkpt>
      <trkpt lat="38.500044" lon="-0.712656">
        <ele>817.617018669063</ele>
        <time>2019-04-19T06:43:14.000Z</time>
      </trkpt>
      <trkpt lat="38.50002" lon="-0.712663">
        <ele>819</ele>
        <time>2019-04-19T06:43:17.000Z</time>
      </trkpt>
      <trkpt lat="38.5" lon="-0.712676">
        <ele>820</ele>
        <time>2019-04-19T06:43:20.000Z</time>
      </trkpt>
      <trkpt lat="38.499995" lon="-0.7127">
        <ele>820.609525667126</ele>
        <time>2019-04-19T06:43:23.000Z</time>
      </trkpt>
      <trkpt lat="38.499991" lon="-0.712722">
        <ele>821</ele>
        <time>2019-04-19T06:43:25.000Z</time>
      </trkpt>
      <trkpt lat="38.499972" lon="-0.712732">
        <ele>821</ele>
        <time>2019-04-19T06:43:28.000Z</time>
      </trkpt>
      <trkpt lat="38.499951" lon="-0.712745">
        <ele>821</ele>
        <time>2019-04-19T06:43:31.000Z</time>
      </trkpt>
      <trkpt lat="38.499929" lon="-0.712748">
        <ele>822</ele>
        <time>2019-04-19T06:43:34.000Z</time>
      </trkpt>
      <trkpt lat="38.499905" lon="-0.712753">
        <ele>823</ele>
        <time>2019-04-19T06:43:37.000Z</time>
      </trkpt>
      <trkpt lat="38.499887" lon="-0.712757">
        <ele>823.621053908029</ele>
        <time>2019-04-19T06:43:39.000Z</time>
      </trkpt>
      <trkpt lat="38.499848" lon="-0.712743">
        <ele>824</ele>
        <time>2019-04-19T06:43:43.000Z</time>
      </trkpt>
      <trkpt lat="38.499823" lon="-0.712731">
        <ele>824</ele>
        <time>2019-04-19T06:43:45.000Z</time>
      </trkpt>
      <trkpt lat="38.499792" lon="-0.712714">
        <ele>824.462689133425</ele>
        <time>2019-04-19T06:43:47.000Z</time>
      </trkpt>
      <trkpt lat="38.499764" lon="-0.712698">
        <ele>825</ele>
        <time>2019-04-19T06:43:49.000Z</time>
      </trkpt>
      <trkpt lat="38.499729" lon="-0.712699">
        <ele>825</ele>
        <time>2019-04-19T06:43:51.000Z</time>
      </trkpt>
      <trkpt lat="38.499702" lon="-0.712698">
        <ele>825</ele>
        <time>2019-04-19T06:43:53.000Z</time>
      </trkpt>
      <trkpt lat="38.499683" lon="-0.7127">
        <ele>825</ele>
        <time>2019-04-19T06:43:54.000Z</time>
      </trkpt>
      <trkpt lat="38.499651" lon="-0.712699">
        <ele>825</ele>
        <time>2019-04-19T06:43:56.000Z</time>
      </trkpt>
      <trkpt lat="38.499597" lon="-0.71267">
        <ele>826</ele>
        <time>2019-04-19T06:44:02.000Z</time>
      </trkpt>
      <trkpt lat="38.499568" lon="-0.712673">
        <ele>824</ele>
        <time>2019-04-19T06:44:08.000Z</time>
      </trkpt>
      <trkpt lat="38.499541" lon="-0.712669">
        <ele>824</ele>
        <time>2019-04-19T06:44:09.000Z</time>
      </trkpt>
      <trkpt lat="38.49952" lon="-0.712669">
        <ele>824.587157687068</ele>
        <time>2019-04-19T06:44:10.000Z</time>
      </trkpt>
      <trkpt lat="38.499501" lon="-0.712668">
        <ele>825</ele>
        <time>2019-04-19T06:44:11.000Z</time>
      </trkpt>
      <trkpt lat="38.499467" lon="-0.712659">
        <ele>826</ele>
        <time>2019-04-19T06:44:13.000Z</time>
      </trkpt>
      <trkpt lat="38.499443" lon="-0.712652">
        <ele>826</ele>
        <time>2019-04-19T06:44:15.000Z</time>
      </trkpt>
      <trkpt lat="38.499424" lon="-0.712644">
        <ele>825</ele>
        <time>2019-04-19T06:44:17.000Z</time>
      </trkpt>
      <trkpt lat="38.4994" lon="-0.71264">
        <ele>824</ele>
        <time>2019-04-19T06:44:19.000Z</time>
      </trkpt>
      <trkpt lat="38.499374" lon="-0.712629">
        <ele>823.395603004473</ele>
        <time>2019-04-19T06:44:21.000Z</time>
      </trkpt>
      <trkpt lat="38.499342" lon="-0.712627">
        <ele>822.36</ele>
        <time>2019-04-19T06:44:23.000Z</time>
      </trkpt>
      <trkpt lat="38.499312" lon="-0.712636">
        <ele>821</ele>
        <time>2019-04-19T06:44:25.000Z</time>
      </trkpt>
      <trkpt lat="38.499286" lon="-0.712648">
        <ele>821</ele>
        <time>2019-04-19T06:44:27.000Z</time>
      </trkpt>
      <trkpt lat="38.49927" lon="-0.712662">
        <ele>820.401870947676</ele>
        <time>2019-04-19T06:44:29.000Z</time>
      </trkpt>
      <trkpt lat="38.499245" lon="-0.712671">
        <ele>818.36</ele>
        <time>2019-04-19T06:44:31.000Z</time>
      </trkpt>
      <trkpt lat="38.499193" lon="-0.712729">
        <ele>816</ele>
        <time>2019-04-19T06:44:35.000Z</time>
      </trkpt>
      <trkpt lat="38.499169" lon="-0.712754">
        <ele>816</ele>
        <time>2019-04-19T06:44:37.000Z</time>
      </trkpt>
      <trkpt lat="38.499155" lon="-0.712771">
        <ele>815.36363518825</ele>
        <time>2019-04-19T06:44:38.000Z</time>
      </trkpt>
      <trkpt lat="38.499146" lon="-0.712791">
        <ele>814.412842312932</ele>
        <time>2019-04-19T06:44:39.000Z</time>
      </trkpt>
      <trkpt lat="38.499133" lon="-0.712806">
        <ele>814</ele>
        <time>2019-04-19T06:44:40.000Z</time>
      </trkpt>
      <trkpt lat="38.49912" lon="-0.712823">
        <ele>814</ele>
        <time>2019-04-19T06:44:41.000Z</time>
      </trkpt>
      <trkpt lat="38.499103" lon="-0.712855">
        <ele>813</ele>
        <time>2019-04-19T06:44:43.000Z</time>
      </trkpt>
      <trkpt lat="38.499082" lon="-0.712879">
        <ele>813</ele>
        <time>2019-04-19T06:44:45.000Z</time>
      </trkpt>
      <trkpt lat="38.499058" lon="-0.712893">
        <ele>812</ele>
        <time>2019-04-19T06:44:47.000Z</time>
      </trkpt>
      <trkpt lat="38.499038" lon="-0.712907">
        <ele>810.395603004473</ele>
        <time>2019-04-19T06:44:49.000Z</time>
      </trkpt>
      <trkpt lat="38.499021" lon="-0.712921">
        <ele>810</ele>
        <time>2019-04-19T06:44:51.000Z</time>
      </trkpt>
      <trkpt lat="38.499005" lon="-0.712936">
        <ele>809.395603004473</ele>
        <time>2019-04-19T06:44:54.000Z</time>
      </trkpt>
      <trkpt lat="38.498988" lon="-0.712961">
        <ele>808.372552956531</ele>
        <time>2019-04-19T06:44:56.000Z</time>
      </trkpt>
      <trkpt lat="38.498973" lon="-0.712995">
        <ele>808</ele>
        <time>2019-04-19T06:44:58.000Z</time>
      </trkpt>
      <trkpt lat="38.498954" lon="-0.713009">
        <ele>806.36</ele>
        <time>2019-04-19T06:45:00.000Z</time>
      </trkpt>
      <trkpt lat="38.498929" lon="-0.71302">
        <ele>806</ele>
        <time>2019-04-19T06:45:02.000Z</time>
      </trkpt>
      <trkpt lat="38.498911" lon="-0.713046">
        <ele>805</ele>
        <time>2019-04-19T06:45:04.000Z</time>
      </trkpt>
      <trkpt lat="38.498881" lon="-0.713056">
        <ele>804</ele>
        <time>2019-04-19T06:45:06.000Z</time>
      </trkpt>
      <trkpt lat="38.498857" lon="-0.713078">
        <ele>803</ele>
        <time>2019-04-19T06:45:08.000Z</time>
      </trkpt>
      <trkpt lat="38.498821" lon="-0.713084">
        <ele>803</ele>
        <time>2019-04-19T06:45:10.000Z</time>
      </trkpt>
      <trkpt lat="38.498801" lon="-0.713083">
        <ele>803</ele>
        <time>2019-04-19T06:45:11.000Z</time>
      </trkpt>
      <trkpt lat="38.498781" lon="-0.713083">
        <ele>803</ele>
        <time>2019-04-19T06:45:12.000Z</time>
      </trkpt>
      <trkpt lat="38.498758" lon="-0.713091">
        <ele>802.387098106144</ele>
        <time>2019-04-19T06:45:13.000Z</time>
      </trkpt>
      <trkpt lat="38.498722" lon="-0.713126">
        <ele>801</ele>
        <time>2019-04-19T06:45:15.000Z</time>
      </trkpt>
      <trkpt lat="38.498701" lon="-0.713132">
        <ele>800.36363518825</ele>
        <time>2019-04-19T06:45:16.000Z</time>
      </trkpt>
      <trkpt lat="38.49868" lon="-0.713137">
        <ele>800</ele>
        <time>2019-04-19T06:45:17.000Z</time>
      </trkpt>
      <trkpt lat="38.498659" lon="-0.713142">
        <ele>800</ele>
        <time>2019-04-19T06:45:18.000Z</time>
      </trkpt>
      <trkpt lat="38.498634" lon="-0.713139">
        <ele>799</ele>
        <time>2019-04-19T06:45:20.000Z</time>
      </trkpt>
      <trkpt lat="38.498607" lon="-0.713144">
        <ele>799</ele>
        <time>2019-04-19T06:45:22.000Z</time>
      </trkpt>
      <trkpt lat="38.498572" lon="-0.713149">
        <ele>798.507689884012</ele>
        <time>2019-04-19T06:45:24.000Z</time>
      </trkpt>
      <trkpt lat="38.498552" lon="-0.713154">
        <ele>798</ele>
        <time>2019-04-19T06:45:25.000Z</time>
      </trkpt>
      <trkpt lat="38.498533" lon="-0.713154">
        <ele>797.36</ele>
        <time>2019-04-19T06:45:26.000Z</time>
      </trkpt>
      <trkpt lat="38.498512" lon="-0.713152">
        <ele>797</ele>
        <time>2019-04-19T06:45:27.000Z</time>
      </trkpt>
      <trkpt lat="38.498492" lon="-0.713157">
        <ele>797</ele>
        <time>2019-04-19T06:45:28.000Z</time>
      </trkpt>
      <trkpt lat="38.498472" lon="-0.713165">
        <ele>797</ele>
        <time>2019-04-19T06:45:29.000Z</time>
      </trkpt>
      <trkpt lat="38.498438" lon="-0.71317">
        <ele>797</ele>
        <time>2019-04-19T06:45:31.000Z</time>
      </trkpt>
      <trkpt lat="38.498404" lon="-0.713193">
        <ele>796</ele>
        <time>2019-04-19T06:45:33.000Z</time>
      </trkpt>
      <trkpt lat="38.498394" lon="-0.713214">
        <ele>795.395603004473</ele>
        <time>2019-04-19T06:45:34.000Z</time>
      </trkpt>
      <trkpt lat="38.49842" lon="-0.71328">
        <ele>795</ele>
        <time>2019-04-19T06:45:38.000Z</time>
      </trkpt>
      <trkpt lat="38.498433" lon="-0.713296">
        <ele>795</ele>
        <time>2019-04-19T06:45:39.000Z</time>
      </trkpt>
      <trkpt lat="38.498451" lon="-0.713325">
        <ele>794.366334626011</ele>
        <time>2019-04-19T06:45:41.000Z</time>
      </trkpt>
      <trkpt lat="38.498473" lon="-0.713356">
        <ele>794</ele>
        <time>2019-04-19T06:45:43.000Z</time>
      </trkpt>
      <trkpt lat="38.498498" lon="-0.713376">
        <ele>793.367349337792</ele>
        <time>2019-04-19T06:45:45.000Z</time>
      </trkpt>
      <trkpt lat="38.498522" lon="-0.713403">
        <ele>793</ele>
        <time>2019-04-19T06:45:47.000Z</time>
      </trkpt>
      <trkpt lat="38.498542" lon="-0.713439">
        <ele>793</ele>
        <time>2019-04-19T06:45:49.000Z</time>
      </trkpt>
      <trkpt lat="38.498547" lon="-0.713461">
        <ele>792.36</ele>
        <time>2019-04-19T06:45:50.000Z</time>
      </trkpt>
      <trkpt lat="38.498546" lon="-0.713485">
        <ele>792</ele>
        <time>2019-04-19T06:45:51.000Z</time>
      </trkpt>
      <trkpt lat="38.49855" lon="-0.713511">
        <ele>791.36</ele>
        <time>2019-04-19T06:45:52.000Z</time>
      </trkpt>
      <trkpt lat="38.49856" lon="-0.713534">
        <ele>791</ele>
        <time>2019-04-19T06:45:53.000Z</time>
      </trkpt>
      <trkpt lat="38.498578" lon="-0.71355">
        <ele>791</ele>
        <time>2019-04-19T06:45:54.000Z</time>
      </trkpt>
      <trkpt lat="38.498601" lon="-0.713559">
        <ele>791</ele>
        <time>2019-04-19T06:45:55.000Z</time>
      </trkpt>
      <trkpt lat="38.498622" lon="-0.713568">
        <ele>791</ele>
        <time>2019-04-19T06:45:56.000Z</time>
      </trkpt>
      <trkpt lat="38.498642" lon="-0.713574">
        <ele>791</ele>
        <time>2019-04-19T06:45:57.000Z</time>
      </trkpt>
      <trkpt lat="38.49867" lon="-0.713597">
        <ele>791</ele>
        <time>2019-04-19T06:45:59.000Z</time>
      </trkpt>
      <trkpt lat="38.498682" lon="-0.71364">
        <ele>790</ele>
        <time>2019-04-19T06:46:01.000Z</time>
      </trkpt>
      <trkpt lat="38.49869" lon="-0.713678">
        <ele>790</ele>
        <time>2019-04-19T06:46:03.000Z</time>
      </trkpt>
      <trkpt lat="38.498695" lon="-0.713707">
        <ele>789.395603004473</ele>
        <time>2019-04-19T06:46:05.000Z</time>
      </trkpt>
      <trkpt lat="38.498697" lon="-0.713744">
        <ele>788</ele>
        <time>2019-04-19T06:46:07.000Z</time>
      </trkpt>
      <trkpt lat="38.498691" lon="-0.713786">
        <ele>787.418178433038</ele>
        <time>2019-04-19T06:46:09.000Z</time>
      </trkpt>
      <trkpt lat="38.498693" lon="-0.713811">
        <ele>786.399997155576</ele>
        <time>2019-04-19T06:46:10.000Z</time>
      </trkpt>
      <trkpt lat="38.498699" lon="-0.713842">
        <ele>786</ele>
        <time>2019-04-19T06:46:11.000Z</time>
      </trkpt>
      <trkpt lat="38.498706" lon="-0.713865">
        <ele>786</ele>
        <time>2019-04-19T06:46:12.000Z</time>
      </trkpt>
      <trkpt lat="38.498699" lon="-0.7139">
        <ele>786</ele>
        <time>2019-04-19T06:46:14.000Z</time>
      </trkpt>
      <trkpt lat="38.498683" lon="-0.71393">
        <ele>785</ele>
        <time>2019-04-19T06:46:16.000Z</time>
      </trkpt>
      <trkpt lat="38.498681" lon="-0.71397">
        <ele>785</ele>
        <time>2019-04-19T06:46:18.000Z</time>
      </trkpt>
      <trkpt lat="38.498672" lon="-0.713994">
        <ele>785</ele>
        <time>2019-04-19T06:46:19.000Z</time>
      </trkpt>
      <trkpt lat="38.498662" lon="-0.714016">
        <ele>784.367344539791</ele>
        <time>2019-04-19T06:46:20.000Z</time>
      </trkpt>
      <trkpt lat="38.498658" lon="-0.714045">
        <ele>784</ele>
        <time>2019-04-19T06:46:21.000Z</time>
      </trkpt>
      <trkpt lat="38.498664" lon="-0.714094">
        <ele>783.396230060498</ele>
        <time>2019-04-19T06:46:23.000Z</time>
      </trkpt>
      <trkpt lat="38.49867" lon="-0.714124">
        <ele>782.382981330937</ele>
        <time>2019-04-19T06:46:24.000Z</time>
      </trkpt>
      <trkpt lat="38.49869" lon="-0.714239">
        <ele>782</ele>
        <time>2019-04-19T06:46:28.000Z</time>
      </trkpt>
      <trkpt lat="38.498674" lon="-0.714324">
        <ele>781</ele>
        <time>2019-04-19T06:46:32.000Z</time>
      </trkpt>
      <trkpt lat="38.498682" lon="-0.714378">
        <ele>780</ele>
        <time>2019-04-19T06:46:34.000Z</time>
      </trkpt>
      <trkpt lat="38.498687" lon="-0.714408">
        <ele>780</ele>
        <time>2019-04-19T06:46:35.000Z</time>
      </trkpt>
      <trkpt lat="38.498692" lon="-0.714436">
        <ele>780</ele>
        <time>2019-04-19T06:46:36.000Z</time>
      </trkpt>
      <trkpt lat="38.498698" lon="-0.714464">
        <ele>780</ele>
        <time>2019-04-19T06:46:37.000Z</time>
      </trkpt>
      <trkpt lat="38.498704" lon="-0.714494">
        <ele>779.36</ele>
        <time>2019-04-19T06:46:38.000Z</time>
      </trkpt>
      <trkpt lat="38.498711" lon="-0.714522">
        <ele>778.36</ele>
        <time>2019-04-19T06:46:39.000Z</time>
      </trkpt>
      <trkpt lat="38.498719" lon="-0.714546">
        <ele>778</ele>
        <time>2019-04-19T06:46:40.000Z</time>
      </trkpt>
      <trkpt lat="38.498722" lon="-0.71457">
        <ele>778</ele>
        <time>2019-04-19T06:46:41.000Z</time>
      </trkpt>
      <trkpt lat="38.498746" lon="-0.71471">
        <ele>776</ele>
        <time>2019-04-19T06:46:46.000Z</time>
      </trkpt>
      <trkpt lat="38.498754" lon="-0.714842">
        <ele>776</ele>
        <time>2019-04-19T06:46:51.000Z</time>
      </trkpt>
      <trkpt lat="38.498753" lon="-0.714962">
        <ele>774</ele>
        <time>2019-04-19T06:46:56.000Z</time>
      </trkpt>
      <trkpt lat="38.498751" lon="-0.715093">
        <ele>772.372545082636</ele>
        <time>2019-04-19T06:47:01.000Z</time>
      </trkpt>
      <trkpt lat="38.498763" lon="-0.715174">
        <ele>772</ele>
        <time>2019-04-19T06:47:04.000Z</time>
      </trkpt>
      <trkpt lat="38.498754" lon="-0.71525">
        <ele>770</ele>
        <time>2019-04-19T06:47:07.000Z</time>
      </trkpt>
      <trkpt lat="38.498755" lon="-0.715276">
        <ele>770</ele>
        <time>2019-04-19T06:47:08.000Z</time>
      </trkpt>
      <trkpt lat="38.498748" lon="-0.715318">
        <ele>769.378946091971</ele>
        <time>2019-04-19T06:47:10.000Z</time>
      </trkpt>
      <trkpt lat="38.498736" lon="-0.715354">
        <ele>769</ele>
        <time>2019-04-19T06:47:12.000Z</time>
      </trkpt>
      <trkpt lat="38.49872" lon="-0.715381">
        <ele>768</ele>
        <time>2019-04-19T06:47:14.000Z</time>
      </trkpt>
      <trkpt lat="38.498695" lon="-0.715402">
        <ele>767</ele>
        <time>2019-04-19T06:47:16.000Z</time>
      </trkpt>
      <trkpt lat="38.498686" lon="-0.715423">
        <ele>766.36</ele>
        <time>2019-04-19T06:47:17.000Z</time>
      </trkpt>
      <trkpt lat="38.498684" lon="-0.715447">
        <ele>765.507689884012</ele>
        <time>2019-04-19T06:47:18.000Z</time>
      </trkpt>
      <trkpt lat="38.498688" lon="-0.715489">
        <ele>765</ele>
        <time>2019-04-19T06:47:20.000Z</time>
      </trkpt>
      <trkpt lat="38.498686" lon="-0.715528">
        <ele>765</ele>
        <time>2019-04-19T06:47:22.000Z</time>
      </trkpt>
      <trkpt lat="38.49868" lon="-0.715562">
        <ele>764.36363518825</ele>
        <time>2019-04-19T06:47:24.000Z</time>
      </trkpt>
      <trkpt lat="38.498676" lon="-0.715603">
        <ele>763.395603004473</ele>
        <time>2019-04-19T06:47:26.000Z</time>
      </trkpt>
      <trkpt lat="38.498661" lon="-0.715728">
        <ele>761.36</ele>
        <time>2019-04-19T06:47:31.000Z</time>
      </trkpt>
      <trkpt lat="38.498664" lon="-0.715758">
        <ele>760.36</ele>
        <time>2019-04-19T06:47:32.000Z</time>
      </trkpt>
      <trkpt lat="38.498664" lon="-0.71579">
        <ele>760</ele>
        <time>2019-04-19T06:47:33.000Z</time>
      </trkpt>
      <trkpt lat="38.498664" lon="-0.715819">
        <ele>760</ele>
        <time>2019-04-19T06:47:34.000Z</time>
      </trkpt>
      <trkpt lat="38.498662" lon="-0.715846">
        <ele>760</ele>
        <time>2019-04-19T06:47:35.000Z</time>
      </trkpt>
      <trkpt lat="38.498627" lon="-0.715967">
        <ele>758.36</ele>
        <time>2019-04-19T06:47:40.000Z</time>
      </trkpt>
      <trkpt lat="38.498628" lon="-0.716094">
        <ele>758</ele>
        <time>2019-04-19T06:47:44.000Z</time>
      </trkpt>
      <trkpt lat="38.498647" lon="-0.716168">
        <ele>756.387098106144</ele>
        <time>2019-04-19T06:47:49.000Z</time>
      </trkpt>
      <trkpt lat="38.498641" lon="-0.716196">
        <ele>756</ele>
        <time>2019-04-19T06:47:51.000Z</time>
      </trkpt>
      <trkpt lat="38.49863" lon="-0.716233">
        <ele>755.412842312932</ele>
        <time>2019-04-19T06:47:53.000Z</time>
      </trkpt>
      <trkpt lat="38.49862" lon="-0.716274">
        <ele>754</ele>
        <time>2019-04-19T06:47:55.000Z</time>
      </trkpt>
      <trkpt lat="38.498616" lon="-0.716315">
        <ele>754</ele>
        <time>2019-04-19T06:47:57.000Z</time>
      </trkpt>
      <trkpt lat="38.498617" lon="-0.716359">
        <ele>753</ele>
        <time>2019-04-19T06:47:59.000Z</time>
      </trkpt>
      <trkpt lat="38.49861" lon="-0.716381">
        <ele>752.36</ele>
        <time>2019-04-19T06:48:00.000Z</time>
      </trkpt>
      <trkpt lat="38.498601" lon="-0.716426">
        <ele>752</ele>
        <time>2019-04-19T06:48:02.000Z</time>
      </trkpt>
      <trkpt lat="38.498595" lon="-0.716448">
        <ele>752</ele>
        <time>2019-04-19T06:48:03.000Z</time>
      </trkpt>
      <trkpt lat="38.498554" lon="-0.716557">
        <ele>750.423425085621</ele>
        <time>2019-04-19T06:48:08.000Z</time>
      </trkpt>
      <trkpt lat="38.498556" lon="-0.716582">
        <ele>750</ele>
        <time>2019-04-19T06:48:09.000Z</time>
      </trkpt>
      <trkpt lat="38.498559" lon="-0.716609">
        <ele>750</ele>
        <time>2019-04-19T06:48:10.000Z</time>
      </trkpt>
      <trkpt lat="38.498562" lon="-0.716634">
        <ele>749.529411764706</ele>
        <time>2019-04-19T06:48:11.000Z</time>
      </trkpt>
      <trkpt lat="38.498581" lon="-0.716685">
        <ele>749</ele>
        <time>2019-04-19T06:48:13.000Z</time>
      </trkpt>
      <trkpt lat="38.498582" lon="-0.71673">
        <ele>749</ele>
        <time>2019-04-19T06:48:15.000Z</time>
      </trkpt>
      <trkpt lat="38.498578" lon="-0.716754">
        <ele>749</ele>
        <time>2019-04-19T06:48:16.000Z</time>
      </trkpt>
      <trkpt lat="38.498578" lon="-0.71678">
        <ele>749</ele>
        <time>2019-04-19T06:48:17.000Z</time>
      </trkpt>
      <trkpt lat="38.498573" lon="-0.716808">
        <ele>748.36</ele>
        <time>2019-04-19T06:48:18.000Z</time>
      </trkpt>
      <trkpt lat="38.498573" lon="-0.716836">
        <ele>748.64</ele>
        <time>2019-04-19T06:48:19.000Z</time>
      </trkpt>
      <trkpt lat="38.498577" lon="-0.716862">
        <ele>749</ele>
        <time>2019-04-19T06:48:20.000Z</time>
      </trkpt>
      <trkpt lat="38.498583" lon="-0.716887">
        <ele>749</ele>
        <time>2019-04-19T06:48:21.000Z</time>
      </trkpt>
      <trkpt lat="38.49859" lon="-0.71691">
        <ele>748.36</ele>
        <time>2019-04-19T06:48:22.000Z</time>
      </trkpt>
      <trkpt lat="38.498594" lon="-0.716934">
        <ele>748</ele>
        <time>2019-04-19T06:48:23.000Z</time>
      </trkpt>
      <trkpt lat="38.498594" lon="-0.71698">
        <ele>748</ele>
        <time>2019-04-19T06:48:25.000Z</time>
      </trkpt>
      <trkpt lat="38.498593" lon="-0.717005">
        <ele>746.745105913061</ele>
        <time>2019-04-19T06:48:26.000Z</time>
      </trkpt>
      <trkpt lat="38.498589" lon="-0.71703">
        <ele>746</ele>
        <time>2019-04-19T06:48:27.000Z</time>
      </trkpt>
      <trkpt lat="38.498585" lon="-0.717056">
        <ele>746</ele>
        <time>2019-04-19T06:48:28.000Z</time>
      </trkpt>
      <trkpt lat="38.49858" lon="-0.717081">
        <ele>746</ele>
        <time>2019-04-19T06:48:29.000Z</time>
      </trkpt>
      <trkpt lat="38.49858" lon="-0.717106">
        <ele>746</ele>
        <time>2019-04-19T06:48:30.000Z</time>
      </trkpt>
      <trkpt lat="38.498584" lon="-0.717132">
        <ele>746</ele>
        <time>2019-04-19T06:48:31.000Z</time>
      </trkpt>
      <trkpt lat="38.498591" lon="-0.717161">
        <ele>746</ele>
        <time>2019-04-19T06:48:32.000Z</time>
      </trkpt>
      <trkpt lat="38.498599" lon="-0.717186">
        <ele>746</ele>
        <time>2019-04-19T06:48:33.000Z</time>
      </trkpt>
      <trkpt lat="38.498608" lon="-0.717209">
        <ele>746</ele>
        <time>2019-04-19T06:48:34.000Z</time>
      </trkpt>
      <trkpt lat="38.498618" lon="-0.717234">
        <ele>746</ele>
        <time>2019-04-19T06:48:35.000Z</time>
      </trkpt>
      <trkpt lat="38.498617" lon="-0.717279">
        <ele>745.514281012288</ele>
        <time>2019-04-19T06:48:37.000Z</time>
      </trkpt>
      <trkpt lat="38.498618" lon="-0.717325">
        <ele>745</ele>
        <time>2019-04-19T06:48:39.000Z</time>
      </trkpt>
      <trkpt lat="38.49862" lon="-0.717349">
        <ele>745</ele>
        <time>2019-04-19T06:48:40.000Z</time>
      </trkpt>
      <trkpt lat="38.498621" lon="-0.717378">
        <ele>744.428571428571</ele>
        <time>2019-04-19T06:48:41.000Z</time>
      </trkpt>
      <trkpt lat="38.498623" lon="-0.71741">
        <ele>743.409090909091</ele>
        <time>2019-04-19T06:48:42.000Z</time>
      </trkpt>
      <trkpt lat="38.498645" lon="-0.717507">
        <ele>742.371135244982</ele>
        <time>2019-04-19T06:48:45.000Z</time>
      </trkpt>
      <trkpt lat="38.49865" lon="-0.717539">
        <ele>742</ele>
        <time>2019-04-19T06:48:46.000Z</time>
      </trkpt>
      <trkpt lat="38.498654" lon="-0.717564">
        <ele>742</ele>
        <time>2019-04-19T06:48:47.000Z</time>
      </trkpt>
      <trkpt lat="38.498665" lon="-0.717589">
        <ele>742</ele>
        <time>2019-04-19T06:48:48.000Z</time>
      </trkpt>
      <trkpt lat="38.498677" lon="-0.717669">
        <ele>742</ele>
        <time>2019-04-19T06:48:51.000Z</time>
      </trkpt>
      <trkpt lat="38.498679" lon="-0.717696">
        <ele>742</ele>
        <time>2019-04-19T06:48:52.000Z</time>
      </trkpt>
      <trkpt lat="38.498684" lon="-0.717721">
        <ele>742</ele>
        <time>2019-04-19T06:48:53.000Z</time>
      </trkpt>
      <trkpt lat="38.498683" lon="-0.717746">
        <ele>742</ele>
        <time>2019-04-19T06:48:54.000Z</time>
      </trkpt>
      <trkpt lat="38.498683" lon="-0.717774">
        <ele>741.36</ele>
        <time>2019-04-19T06:48:55.000Z</time>
      </trkpt>
      <trkpt lat="38.498681" lon="-0.717799">
        <ele>740.36</ele>
        <time>2019-04-19T06:48:56.000Z</time>
      </trkpt>
      <trkpt lat="38.498682" lon="-0.71783">
        <ele>740</ele>
        <time>2019-04-19T06:48:57.000Z</time>
      </trkpt>
      <trkpt lat="38.498681" lon="-0.71786">
        <ele>740</ele>
        <time>2019-04-19T06:48:58.000Z</time>
      </trkpt>
      <trkpt lat="38.498686" lon="-0.717887">
        <ele>740</ele>
        <time>2019-04-19T06:48:59.000Z</time>
      </trkpt>
      <trkpt lat="38.498694" lon="-0.717931">
        <ele>740</ele>
        <time>2019-04-19T06:49:01.000Z</time>
      </trkpt>
      <trkpt lat="38.498698" lon="-0.71796">
        <ele>740</ele>
        <time>2019-04-19T06:49:02.000Z</time>
      </trkpt>
      <trkpt lat="38.498702" lon="-0.718008">
        <ele>739.36363518825</ele>
        <time>2019-04-19T06:49:04.000Z</time>
      </trkpt>
      <trkpt lat="38.498702" lon="-0.718035">
        <ele>739</ele>
        <time>2019-04-19T06:49:05.000Z</time>
      </trkpt>
      <trkpt lat="38.498704" lon="-0.71808">
        <ele>738.36</ele>
        <time>2019-04-19T06:49:07.000Z</time>
      </trkpt>
      <trkpt lat="38.498694" lon="-0.718126">
        <ele>737</ele>
        <time>2019-04-19T06:49:09.000Z</time>
      </trkpt>
      <trkpt lat="38.498687" lon="-0.718152">
        <ele>737</ele>
        <time>2019-04-19T06:49:10.000Z</time>
      </trkpt>
      <trkpt lat="38.498686" lon="-0.718179">
        <ele>737</ele>
        <time>2019-04-19T06:49:11.000Z</time>
      </trkpt>
      <trkpt lat="38.498687" lon="-0.718204">
        <ele>737</ele>
        <time>2019-04-19T06:49:12.000Z</time>
      </trkpt>
      <trkpt lat="38.498692" lon="-0.718228">
        <ele>737</ele>
        <time>2019-04-19T06:49:13.000Z</time>
      </trkpt>
      <trkpt lat="38.498696" lon="-0.718253">
        <ele>736.423425085621</ele>
        <time>2019-04-19T06:49:14.000Z</time>
      </trkpt>
      <trkpt lat="38.498708" lon="-0.718282">
        <ele>735.40449583639</ele>
        <time>2019-04-19T06:49:15.000Z</time>
      </trkpt>
      <trkpt lat="38.498716" lon="-0.718312">
        <ele>735</ele>
        <time>2019-04-19T06:49:16.000Z</time>
      </trkpt>
      <trkpt lat="38.498726" lon="-0.718342">
        <ele>735</ele>
        <time>2019-04-19T06:49:17.000Z</time>
      </trkpt>
      <trkpt lat="38.498738" lon="-0.71837">
        <ele>735</ele>
        <time>2019-04-19T06:49:18.000Z</time>
      </trkpt>
      <trkpt lat="38.498748" lon="-0.718396">
        <ele>735</ele>
        <time>2019-04-19T06:49:19.000Z</time>
      </trkpt>
      <trkpt lat="38.498758" lon="-0.718421">
        <ele>735</ele>
        <time>2019-04-19T06:49:20.000Z</time>
      </trkpt>
      <trkpt lat="38.498766" lon="-0.718446">
        <ele>735</ele>
        <time>2019-04-19T06:49:21.000Z</time>
      </trkpt>
      <trkpt lat="38.498776" lon="-0.718477">
        <ele>735</ele>
        <time>2019-04-19T06:49:22.000Z</time>
      </trkpt>
      <trkpt lat="38.498796" lon="-0.718562">
        <ele>734.36</ele>
        <time>2019-04-19T06:49:25.000Z</time>
      </trkpt>
      <trkpt lat="38.498806" lon="-0.718588">
        <ele>734</ele>
        <time>2019-04-19T06:49:26.000Z</time>
      </trkpt>
      <trkpt lat="38.498816" lon="-0.718617">
        <ele>734</ele>
        <time>2019-04-19T06:49:27.000Z</time>
      </trkpt>
      <trkpt lat="38.498822" lon="-0.718643">
        <ele>734</ele>
        <time>2019-04-19T06:49:28.000Z</time>
      </trkpt>
      <trkpt lat="38.49883" lon="-0.71867">
        <ele>734</ele>
        <time>2019-04-19T06:49:29.000Z</time>
      </trkpt>
      <trkpt lat="38.498836" lon="-0.718697">
        <ele>734</ele>
        <time>2019-04-19T06:49:30.000Z</time>
      </trkpt>
      <trkpt lat="38.498842" lon="-0.718723">
        <ele>734</ele>
        <time>2019-04-19T06:49:31.000Z</time>
      </trkpt>
      <trkpt lat="38.49885" lon="-0.718748">
        <ele>734</ele>
        <time>2019-04-19T06:49:32.000Z</time>
      </trkpt>
      <trkpt lat="38.498858" lon="-0.718771">
        <ele>733.417799221066</ele>
        <time>2019-04-19T06:49:33.000Z</time>
      </trkpt>
      <trkpt lat="38.498868" lon="-0.718795">
        <ele>733</ele>
        <time>2019-04-19T06:49:34.000Z</time>
      </trkpt>
      <trkpt lat="38.498876" lon="-0.718821">
        <ele>733</ele>
        <time>2019-04-19T06:49:35.000Z</time>
      </trkpt>
      <trkpt lat="38.49888" lon="-0.718847">
        <ele>733</ele>
        <time>2019-04-19T06:49:36.000Z</time>
      </trkpt>
      <trkpt lat="38.498884" lon="-0.718871">
        <ele>733</ele>
        <time>2019-04-19T06:49:37.000Z</time>
      </trkpt>
      <trkpt lat="38.498896" lon="-0.718914">
        <ele>733</ele>
        <time>2019-04-19T06:49:39.000Z</time>
      </trkpt>
      <trkpt lat="38.498906" lon="-0.718956">
        <ele>733</ele>
        <time>2019-04-19T06:49:41.000Z</time>
      </trkpt>
      <trkpt lat="38.498914" lon="-0.718979">
        <ele>733</ele>
        <time>2019-04-19T06:49:42.000Z</time>
      </trkpt>
      <trkpt lat="38.49892" lon="-0.719004">
        <ele>733</ele>
        <time>2019-04-19T06:49:43.000Z</time>
      </trkpt>
      <trkpt lat="38.498926" lon="-0.719026">
        <ele>733</ele>
        <time>2019-04-19T06:49:44.000Z</time>
      </trkpt>
      <trkpt lat="38.498932" lon="-0.719048">
        <ele>733</ele>
        <time>2019-04-19T06:49:45.000Z</time>
      </trkpt>
      <trkpt lat="38.498934" lon="-0.719072">
        <ele>733</ele>
        <time>2019-04-19T06:49:46.000Z</time>
      </trkpt>
      <trkpt lat="38.498938" lon="-0.719109">
        <ele>733</ele>
        <time>2019-04-19T06:49:48.000Z</time>
      </trkpt>
      <trkpt lat="38.498938" lon="-0.719142">
        <ele>733</ele>
        <time>2019-04-19T06:49:50.000Z</time>
      </trkpt>
      <trkpt lat="38.498936" lon="-0.719172">
        <ele>733</ele>
        <time>2019-04-19T06:49:52.000Z</time>
      </trkpt>
      <trkpt lat="38.498934" lon="-0.719203">
        <ele>732</ele>
        <time>2019-04-19T06:49:56.000Z</time>
      </trkpt>
      <trkpt lat="38.49893" lon="-0.719243">
        <ele>731</ele>
        <time>2019-04-19T06:50:02.000Z</time>
      </trkpt>
      <trkpt lat="38.498928" lon="-0.719267">
        <ele>730.413791581456</ele>
        <time>2019-04-19T06:50:03.000Z</time>
      </trkpt>
      <trkpt lat="38.498928" lon="-0.719291">
        <ele>730</ele>
        <time>2019-04-19T06:50:04.000Z</time>
      </trkpt>
      <trkpt lat="38.498926" lon="-0.719314">
        <ele>730</ele>
        <time>2019-04-19T06:50:05.000Z</time>
      </trkpt>
      <trkpt lat="38.498928" lon="-0.71934">
        <ele>729.36</ele>
        <time>2019-04-19T06:50:06.000Z</time>
      </trkpt>
      <trkpt lat="38.498931" lon="-0.719365">
        <ele>729</ele>
        <time>2019-04-19T06:50:07.000Z</time>
      </trkpt>
      <trkpt lat="38.49893" lon="-0.719391">
        <ele>728.36363518825</ele>
        <time>2019-04-19T06:50:08.000Z</time>
      </trkpt>
      <trkpt lat="38.498931" lon="-0.719416">
        <ele>728</ele>
        <time>2019-04-19T06:50:09.000Z</time>
      </trkpt>
      <trkpt lat="38.498928" lon="-0.71946">
        <ele>728</ele>
        <time>2019-04-19T06:50:11.000Z</time>
      </trkpt>
      <trkpt lat="38.498923" lon="-0.719485">
        <ele>727.36</ele>
        <time>2019-04-19T06:50:12.000Z</time>
      </trkpt>
      <trkpt lat="38.498918" lon="-0.71951">
        <ele>727</ele>
        <time>2019-04-19T06:50:13.000Z</time>
      </trkpt>
      <trkpt lat="38.498915" lon="-0.719537">
        <ele>726.366334626011</ele>
        <time>2019-04-19T06:50:14.000Z</time>
      </trkpt>
      <trkpt lat="38.498913" lon="-0.719562">
        <ele>726</ele>
        <time>2019-04-19T06:50:15.000Z</time>
      </trkpt>
      <trkpt lat="38.498908" lon="-0.719587">
        <ele>725.407407407407</ele>
        <time>2019-04-19T06:50:16.000Z</time>
      </trkpt>
      <trkpt lat="38.498903" lon="-0.719614">
        <ele>725</ele>
        <time>2019-04-19T06:50:17.000Z</time>
      </trkpt>
      <trkpt lat="38.498897" lon="-0.71964">
        <ele>724.36</ele>
        <time>2019-04-19T06:50:18.000Z</time>
      </trkpt>
      <trkpt lat="38.498888" lon="-0.719666">
        <ele>724</ele>
        <time>2019-04-19T06:50:19.000Z</time>
      </trkpt>
      <trkpt lat="38.498879" lon="-0.719689">
        <ele>724</ele>
        <time>2019-04-19T06:50:20.000Z</time>
      </trkpt>
      <trkpt lat="38.498871" lon="-0.719713">
        <ele>724</ele>
        <time>2019-04-19T06:50:21.000Z</time>
      </trkpt>
      <trkpt lat="38.498866" lon="-0.719739">
        <ele>723.6</ele>
        <time>2019-04-19T06:50:22.000Z</time>
      </trkpt>
      <trkpt lat="38.498864" lon="-0.719768">
        <ele>722.36</ele>
        <time>2019-04-19T06:50:23.000Z</time>
      </trkpt>
      <trkpt lat="38.498859" lon="-0.719797">
        <ele>722</ele>
        <time>2019-04-19T06:50:24.000Z</time>
      </trkpt>
      <trkpt lat="38.498851" lon="-0.719823">
        <ele>722</ele>
        <time>2019-04-19T06:50:25.000Z</time>
      </trkpt>
      <trkpt lat="38.498844" lon="-0.719849">
        <ele>722</ele>
        <time>2019-04-19T06:50:26.000Z</time>
      </trkpt>
      <trkpt lat="38.498832" lon="-0.719874">
        <ele>722</ele>
        <time>2019-04-19T06:50:27.000Z</time>
      </trkpt>
      <trkpt lat="38.498824" lon="-0.719902">
        <ele>722</ele>
        <time>2019-04-19T06:50:28.000Z</time>
      </trkpt>
      <trkpt lat="38.498818" lon="-0.719932">
        <ele>722</ele>
        <time>2019-04-19T06:50:29.000Z</time>
      </trkpt>
      <trkpt lat="38.498813" lon="-0.719961">
        <ele>722</ele>
        <time>2019-04-19T06:50:30.000Z</time>
      </trkpt>
      <trkpt lat="38.498807" lon="-0.719987">
        <ele>721.40449583639</ele>
        <time>2019-04-19T06:50:31.000Z</time>
      </trkpt>
      <trkpt lat="38.498805" lon="-0.72001">
        <ele>721</ele>
        <time>2019-04-19T06:50:32.000Z</time>
      </trkpt>
      <trkpt lat="38.498798" lon="-0.720043">
        <ele>721</ele>
        <time>2019-04-19T06:50:34.000Z</time>
      </trkpt>
      <trkpt lat="38.498781" lon="-0.720085">
        <ele>721</ele>
        <time>2019-04-19T06:50:36.000Z</time>
      </trkpt>
      <trkpt lat="38.49877" lon="-0.720112">
        <ele>721</ele>
        <time>2019-04-19T06:50:37.000Z</time>
      </trkpt>
      <trkpt lat="38.498761" lon="-0.720136">
        <ele>721</ele>
        <time>2019-04-19T06:50:38.000Z</time>
      </trkpt>
      <trkpt lat="38.49875" lon="-0.720155">
        <ele>720.36</ele>
        <time>2019-04-19T06:50:39.000Z</time>
      </trkpt>
      <trkpt lat="38.498737" lon="-0.720176">
        <ele>720</ele>
        <time>2019-04-19T06:50:40.000Z</time>
      </trkpt>
      <trkpt lat="38.498717" lon="-0.720193">
        <ele>720</ele>
        <time>2019-04-19T06:50:41.000Z</time>
      </trkpt>
      <trkpt lat="38.498703" lon="-0.720214">
        <ele>720</ele>
        <time>2019-04-19T06:50:42.000Z</time>
      </trkpt>
      <trkpt lat="38.498689" lon="-0.720237">
        <ele>720</ele>
        <time>2019-04-19T06:50:43.000Z</time>
      </trkpt>
      <trkpt lat="38.498674" lon="-0.720258">
        <ele>720</ele>
        <time>2019-04-19T06:50:44.000Z</time>
      </trkpt>
      <trkpt lat="38.498658" lon="-0.720272">
        <ele>720</ele>
        <time>2019-04-19T06:50:45.000Z</time>
      </trkpt>
      <trkpt lat="38.49862" lon="-0.72032">
        <ele>719</ele>
        <time>2019-04-19T06:50:48.000Z</time>
      </trkpt>
      <trkpt lat="38.49855" lon="-0.72041">
        <ele>716.36</ele>
        <time>2019-04-19T06:50:52.000Z</time>
      </trkpt>
      <trkpt lat="38.498504" lon="-0.720474">
        <ele>715.36</ele>
        <time>2019-04-19T06:50:55.000Z</time>
      </trkpt>
      <trkpt lat="38.498491" lon="-0.720494">
        <ele>715</ele>
        <time>2019-04-19T06:50:56.000Z</time>
      </trkpt>
      <trkpt lat="38.498484" lon="-0.72052">
        <ele>715</ele>
        <time>2019-04-19T06:50:57.000Z</time>
      </trkpt>
      <trkpt lat="38.498475" lon="-0.720548">
        <ele>715</ele>
        <time>2019-04-19T06:50:58.000Z</time>
      </trkpt>
      <trkpt lat="38.498464" lon="-0.720576">
        <ele>715</ele>
        <time>2019-04-19T06:50:59.000Z</time>
      </trkpt>
      <trkpt lat="38.498455" lon="-0.720603">
        <ele>715</ele>
        <time>2019-04-19T06:51:00.000Z</time>
      </trkpt>
      <trkpt lat="38.498446" lon="-0.720632">
        <ele>715</ele>
        <time>2019-04-19T06:51:01.000Z</time>
      </trkpt>
      <trkpt lat="38.498437" lon="-0.720663">
        <ele>714.36</ele>
        <time>2019-04-19T06:51:02.000Z</time>
      </trkpt>
      <trkpt lat="38.498425" lon="-0.720687">
        <ele>714</ele>
        <time>2019-04-19T06:51:03.000Z</time>
      </trkpt>
      <trkpt lat="38.498367" lon="-0.720807">
        <ele>712.521741550106</ele>
        <time>2019-04-19T06:51:08.000Z</time>
      </trkpt>
      <trkpt lat="38.498316" lon="-0.720911">
        <ele>711</ele>
        <time>2019-04-19T06:51:12.000Z</time>
      </trkpt>
      <trkpt lat="38.498293" lon="-0.720963">
        <ele>711</ele>
        <time>2019-04-19T06:51:14.000Z</time>
      </trkpt>
      <trkpt lat="38.49828" lon="-0.720985">
        <ele>711</ele>
        <time>2019-04-19T06:51:15.000Z</time>
      </trkpt>
      <trkpt lat="38.498271" lon="-0.721008">
        <ele>711</ele>
        <time>2019-04-19T06:51:16.000Z</time>
      </trkpt>
      <trkpt lat="38.498263" lon="-0.721029">
        <ele>711</ele>
        <time>2019-04-19T06:51:17.000Z</time>
      </trkpt>
      <trkpt lat="38.498253" lon="-0.72105">
        <ele>711</ele>
        <time>2019-04-19T06:51:18.000Z</time>
      </trkpt>
      <trkpt lat="38.49824" lon="-0.72107">
        <ele>711</ele>
        <time>2019-04-19T06:51:19.000Z</time>
      </trkpt>
      <trkpt lat="38.498226" lon="-0.721095">
        <ele>710.36</ele>
        <time>2019-04-19T06:51:20.000Z</time>
      </trkpt>
      <trkpt lat="38.498213" lon="-0.721115">
        <ele>710</ele>
        <time>2019-04-19T06:51:21.000Z</time>
      </trkpt>
      <trkpt lat="38.498194" lon="-0.72113">
        <ele>710</ele>
        <time>2019-04-19T06:51:22.000Z</time>
      </trkpt>
      <trkpt lat="38.49818" lon="-0.721144">
        <ele>710</ele>
        <time>2019-04-19T06:51:23.000Z</time>
      </trkpt>
      <trkpt lat="38.498162" lon="-0.721155">
        <ele>710</ele>
        <time>2019-04-19T06:51:24.000Z</time>
      </trkpt>
      <trkpt lat="38.49813" lon="-0.721175">
        <ele>710</ele>
        <time>2019-04-19T06:51:26.000Z</time>
      </trkpt>
      <trkpt lat="38.498099" lon="-0.721195">
        <ele>709</ele>
        <time>2019-04-19T06:51:28.000Z</time>
      </trkpt>
      <trkpt lat="38.498078" lon="-0.721201">
        <ele>708.36</ele>
        <time>2019-04-19T06:51:29.000Z</time>
      </trkpt>
      <trkpt lat="38.498059" lon="-0.721212">
        <ele>707.518795834697</ele>
        <time>2019-04-19T06:51:30.000Z</time>
      </trkpt>
      <trkpt lat="38.498037" lon="-0.721226">
        <ele>707</ele>
        <time>2019-04-19T06:51:31.000Z</time>
      </trkpt>
      <trkpt lat="38.497963" lon="-0.721298">
        <ele>706</ele>
        <time>2019-04-19T06:51:35.000Z</time>
      </trkpt>
      <trkpt lat="38.497899" lon="-0.721386">
        <ele>704</ele>
        <time>2019-04-19T06:51:39.000Z</time>
      </trkpt>
      <trkpt lat="38.497833" lon="-0.721417">
        <ele>704</ele>
        <time>2019-04-19T06:51:42.000Z</time>
      </trkpt>
      <trkpt lat="38.497814" lon="-0.721411">
        <ele>704</ele>
        <time>2019-04-19T06:51:43.000Z</time>
      </trkpt>
      <trkpt lat="38.497794" lon="-0.721408">
        <ele>704</ele>
        <time>2019-04-19T06:51:44.000Z</time>
      </trkpt>
      <trkpt lat="38.497774" lon="-0.72141">
        <ele>704</ele>
        <time>2019-04-19T06:51:45.000Z</time>
      </trkpt>
      <trkpt lat="38.497736" lon="-0.721414">
        <ele>703</ele>
        <time>2019-04-19T06:51:47.000Z</time>
      </trkpt>
      <trkpt lat="38.497715" lon="-0.721419">
        <ele>703</ele>
        <time>2019-04-19T06:51:48.000Z</time>
      </trkpt>
      <trkpt lat="38.497696" lon="-0.721419">
        <ele>702.366334626011</ele>
        <time>2019-04-19T06:51:49.000Z</time>
      </trkpt>
      <trkpt lat="38.497676" lon="-0.721422">
        <ele>702</ele>
        <time>2019-04-19T06:51:50.000Z</time>
      </trkpt>
      <trkpt lat="38.497658" lon="-0.721426">
        <ele>702</ele>
        <time>2019-04-19T06:51:51.000Z</time>
      </trkpt>
      <trkpt lat="38.49764" lon="-0.721432">
        <ele>701.399997155576</ele>
        <time>2019-04-19T06:51:52.000Z</time>
      </trkpt>
      <trkpt lat="38.49762" lon="-0.721437">
        <ele>701</ele>
        <time>2019-04-19T06:51:53.000Z</time>
      </trkpt>
      <trkpt lat="38.497603" lon="-0.721443">
        <ele>700.522390340822</ele>
        <time>2019-04-19T06:51:54.000Z</time>
      </trkpt>
      <trkpt lat="38.497584" lon="-0.721447">
        <ele>700</ele>
        <time>2019-04-19T06:51:55.000Z</time>
      </trkpt>
      <trkpt lat="38.497565" lon="-0.721452">
        <ele>700</ele>
        <time>2019-04-19T06:51:56.000Z</time>
      </trkpt>
      <trkpt lat="38.497529" lon="-0.721466">
        <ele>699</ele>
        <time>2019-04-19T06:51:58.000Z</time>
      </trkpt>
      <trkpt lat="38.497496" lon="-0.721487">
        <ele>698</ele>
        <time>2019-04-19T06:52:00.000Z</time>
      </trkpt>
      <trkpt lat="38.497476" lon="-0.721503">
        <ele>698</ele>
        <time>2019-04-19T06:52:01.000Z</time>
      </trkpt>
      <trkpt lat="38.497456" lon="-0.721519">
        <ele>697.36</ele>
        <time>2019-04-19T06:52:02.000Z</time>
      </trkpt>
      <trkpt lat="38.497439" lon="-0.721529">
        <ele>697</ele>
        <time>2019-04-19T06:52:03.000Z</time>
      </trkpt>
      <trkpt lat="38.497417" lon="-0.721534">
        <ele>697</ele>
        <time>2019-04-19T06:52:04.000Z</time>
      </trkpt>
      <trkpt lat="38.497397" lon="-0.721539">
        <ele>696.407407407407</ele>
        <time>2019-04-19T06:52:05.000Z</time>
      </trkpt>
      <trkpt lat="38.49738" lon="-0.72155">
        <ele>696</ele>
        <time>2019-04-19T06:52:06.000Z</time>
      </trkpt>
      <trkpt lat="38.497365" lon="-0.721568">
        <ele>695.36</ele>
        <time>2019-04-19T06:52:07.000Z</time>
      </trkpt>
      <trkpt lat="38.497293" lon="-0.72165">
        <ele>695</ele>
        <time>2019-04-19T06:52:11.000Z</time>
      </trkpt>
      <trkpt lat="38.497227" lon="-0.721746">
        <ele>694</ele>
        <time>2019-04-19T06:52:15.000Z</time>
      </trkpt>
      <trkpt lat="38.49721" lon="-0.721766">
        <ele>694</ele>
        <time>2019-04-19T06:52:16.000Z</time>
      </trkpt>
      <trkpt lat="38.497192" lon="-0.721787">
        <ele>693.529411764706</ele>
        <time>2019-04-19T06:52:17.000Z</time>
      </trkpt>
      <trkpt lat="38.49715" lon="-0.721866">
        <ele>692.36</ele>
        <time>2019-04-19T06:52:20.000Z</time>
      </trkpt>
      <trkpt lat="38.497141" lon="-0.72189">
        <ele>692</ele>
        <time>2019-04-19T06:52:21.000Z</time>
      </trkpt>
      <trkpt lat="38.497135" lon="-0.721913">
        <ele>692</ele>
        <time>2019-04-19T06:52:22.000Z</time>
      </trkpt>
      <trkpt lat="38.497125" lon="-0.721938">
        <ele>692</ele>
        <time>2019-04-19T06:52:23.000Z</time>
      </trkpt>
      <trkpt lat="38.497117" lon="-0.721961">
        <ele>692</ele>
        <time>2019-04-19T06:52:24.000Z</time>
      </trkpt>
      <trkpt lat="38.497105" lon="-0.721983">
        <ele>691.400002844465</ele>
        <time>2019-04-19T06:52:25.000Z</time>
      </trkpt>
      <trkpt lat="38.497097" lon="-0.722009">
        <ele>691</ele>
        <time>2019-04-19T06:52:26.000Z</time>
      </trkpt>
      <trkpt lat="38.497087" lon="-0.722036">
        <ele>691</ele>
        <time>2019-04-19T06:52:27.000Z</time>
      </trkpt>
      <trkpt lat="38.497078" lon="-0.722069">
        <ele>691</ele>
        <time>2019-04-19T06:52:28.000Z</time>
      </trkpt>
      <trkpt lat="38.497072" lon="-0.722097">
        <ele>691</ele>
        <time>2019-04-19T06:52:29.000Z</time>
      </trkpt>
      <trkpt lat="38.497065" lon="-0.722124">
        <ele>691</ele>
        <time>2019-04-19T06:52:30.000Z</time>
      </trkpt>
      <trkpt lat="38.497057" lon="-0.722147">
        <ele>691</ele>
        <time>2019-04-19T06:52:31.000Z</time>
      </trkpt>
      <trkpt lat="38.497052" lon="-0.722171">
        <ele>691</ele>
        <time>2019-04-19T06:52:32.000Z</time>
      </trkpt>
      <trkpt lat="38.497048" lon="-0.722195">
        <ele>691</ele>
        <time>2019-04-19T06:52:33.000Z</time>
      </trkpt>
      <trkpt lat="38.497044" lon="-0.722218">
        <ele>691</ele>
        <time>2019-04-19T06:52:34.000Z</time>
      </trkpt>
      <trkpt lat="38.497043" lon="-0.722244">
        <ele>691</ele>
        <time>2019-04-19T06:52:35.000Z</time>
      </trkpt>
      <trkpt lat="38.497036" lon="-0.722288">
        <ele>691</ele>
        <time>2019-04-19T06:52:37.000Z</time>
      </trkpt>
      <trkpt lat="38.497027" lon="-0.722314">
        <ele>691</ele>
        <time>2019-04-19T06:52:38.000Z</time>
      </trkpt>
      <trkpt lat="38.497018" lon="-0.722342">
        <ele>691</ele>
        <time>2019-04-19T06:52:39.000Z</time>
      </trkpt>
      <trkpt lat="38.49701" lon="-0.72237">
        <ele>691</ele>
        <time>2019-04-19T06:52:40.000Z</time>
      </trkpt>
      <trkpt lat="38.496999" lon="-0.722394">
        <ele>691</ele>
        <time>2019-04-19T06:52:41.000Z</time>
      </trkpt>
      <trkpt lat="38.49699" lon="-0.722421">
        <ele>691</ele>
        <time>2019-04-19T06:52:42.000Z</time>
      </trkpt>
      <trkpt lat="38.496983" lon="-0.722446">
        <ele>691</ele>
        <time>2019-04-19T06:52:43.000Z</time>
      </trkpt>
      <trkpt lat="38.496974" lon="-0.72247">
        <ele>691</ele>
        <time>2019-04-19T06:52:44.000Z</time>
      </trkpt>
      <trkpt lat="38.496967" lon="-0.722498">
        <ele>691</ele>
        <time>2019-04-19T06:52:45.000Z</time>
      </trkpt>
      <trkpt lat="38.496957" lon="-0.72252">
        <ele>691</ele>
        <time>2019-04-19T06:52:46.000Z</time>
      </trkpt>
      <trkpt lat="38.496944" lon="-0.722537">
        <ele>691</ele>
        <time>2019-04-19T06:52:47.000Z</time>
      </trkpt>
      <trkpt lat="38.496935" lon="-0.722559">
        <ele>691</ele>
        <time>2019-04-19T06:52:48.000Z</time>
      </trkpt>
      <trkpt lat="38.496926" lon="-0.722585">
        <ele>691</ele>
        <time>2019-04-19T06:52:49.000Z</time>
      </trkpt>
      <trkpt lat="38.496923" lon="-0.722611">
        <ele>691</ele>
        <time>2019-04-19T06:52:50.000Z</time>
      </trkpt>
      <trkpt lat="38.496918" lon="-0.722636">
        <ele>691</ele>
        <time>2019-04-19T06:52:51.000Z</time>
      </trkpt>
      <trkpt lat="38.496914" lon="-0.722663">
        <ele>691</ele>
        <time>2019-04-19T06:52:52.000Z</time>
      </trkpt>
      <trkpt lat="38.496909" lon="-0.722692">
        <ele>691</ele>
        <time>2019-04-19T06:52:53.000Z</time>
      </trkpt>
      <trkpt lat="38.4969" lon="-0.722721">
        <ele>691</ele>
        <time>2019-04-19T06:52:54.000Z</time>
      </trkpt>
      <trkpt lat="38.49689" lon="-0.722747">
        <ele>691</ele>
        <time>2019-04-19T06:52:55.000Z</time>
      </trkpt>
      <trkpt lat="38.496879" lon="-0.722774">
        <ele>691</ele>
        <time>2019-04-19T06:52:56.000Z</time>
      </trkpt>
      <trkpt lat="38.496869" lon="-0.722799">
        <ele>691</ele>
        <time>2019-04-19T06:52:57.000Z</time>
      </trkpt>
      <trkpt lat="38.496856" lon="-0.722824">
        <ele>691</ele>
        <time>2019-04-19T06:52:58.000Z</time>
      </trkpt>
      <trkpt lat="38.496846" lon="-0.722852">
        <ele>691</ele>
        <time>2019-04-19T06:52:59.000Z</time>
      </trkpt>
      <trkpt lat="38.496833" lon="-0.72288">
        <ele>691</ele>
        <time>2019-04-19T06:53:00.000Z</time>
      </trkpt>
      <trkpt lat="38.496824" lon="-0.722906">
        <ele>691</ele>
        <time>2019-04-19T06:53:01.000Z</time>
      </trkpt>
      <trkpt lat="38.496818" lon="-0.72293">
        <ele>691</ele>
        <time>2019-04-19T06:53:02.000Z</time>
      </trkpt>
      <trkpt lat="38.496812" lon="-0.722954">
        <ele>690.455694356681</ele>
        <time>2019-04-19T06:53:03.000Z</time>
      </trkpt>
      <trkpt lat="38.496807" lon="-0.722977">
        <ele>690</ele>
        <time>2019-04-19T06:53:04.000Z</time>
      </trkpt>
      <trkpt lat="38.496802" lon="-0.723003">
        <ele>690</ele>
        <time>2019-04-19T06:53:05.000Z</time>
      </trkpt>
      <trkpt lat="38.496793" lon="-0.723027">
        <ele>690</ele>
        <time>2019-04-19T06:53:06.000Z</time>
      </trkpt>
      <trkpt lat="38.496783" lon="-0.723051">
        <ele>690</ele>
        <time>2019-04-19T06:53:07.000Z</time>
      </trkpt>
      <trkpt lat="38.496776" lon="-0.723077">
        <ele>690</ele>
        <time>2019-04-19T06:53:08.000Z</time>
      </trkpt>
      <trkpt lat="38.49677" lon="-0.723101">
        <ele>690</ele>
        <time>2019-04-19T06:53:09.000Z</time>
      </trkpt>
      <trkpt lat="38.496763" lon="-0.723128">
        <ele>690</ele>
        <time>2019-04-19T06:53:10.000Z</time>
      </trkpt>
      <trkpt lat="38.496758" lon="-0.723157">
        <ele>690</ele>
        <time>2019-04-19T06:53:11.000Z</time>
      </trkpt>
      <trkpt lat="38.496753" lon="-0.723187">
        <ele>690</ele>
        <time>2019-04-19T06:53:12.000Z</time>
      </trkpt>
      <trkpt lat="38.496747" lon="-0.723217">
        <ele>690</ele>
        <time>2019-04-19T06:53:13.000Z</time>
      </trkpt>
      <trkpt lat="38.496737" lon="-0.723245">
        <ele>690</ele>
        <time>2019-04-19T06:53:14.000Z</time>
      </trkpt>
      <trkpt lat="38.496724" lon="-0.723267">
        <ele>690</ele>
        <time>2019-04-19T06:53:15.000Z</time>
      </trkpt>
      <trkpt lat="38.496713" lon="-0.723288">
        <ele>690</ele>
        <time>2019-04-19T06:53:16.000Z</time>
      </trkpt>
      <trkpt lat="38.496699" lon="-0.723307">
        <ele>690</ele>
        <time>2019-04-19T06:53:17.000Z</time>
      </trkpt>
      <trkpt lat="38.496684" lon="-0.723329">
        <ele>690</ele>
        <time>2019-04-19T06:53:18.000Z</time>
      </trkpt>
      <trkpt lat="38.496669" lon="-0.723348">
        <ele>690</ele>
        <time>2019-04-19T06:53:19.000Z</time>
      </trkpt>
      <trkpt lat="38.496655" lon="-0.723369">
        <ele>690</ele>
        <time>2019-04-19T06:53:20.000Z</time>
      </trkpt>
      <trkpt lat="38.49664" lon="-0.723392">
        <ele>689.407407407407</ele>
        <time>2019-04-19T06:53:21.000Z</time>
      </trkpt>
      <trkpt lat="38.496627" lon="-0.723415">
        <ele>688.391304347826</ele>
        <time>2019-04-19T06:53:22.000Z</time>
      </trkpt>
      <trkpt lat="38.496611" lon="-0.723436">
        <ele>688</ele>
        <time>2019-04-19T06:53:23.000Z</time>
      </trkpt>
      <trkpt lat="38.496594" lon="-0.723453">
        <ele>688</ele>
        <time>2019-04-19T06:53:24.000Z</time>
      </trkpt>
      <trkpt lat="38.496578" lon="-0.723471">
        <ele>688</ele>
        <time>2019-04-19T06:53:25.000Z</time>
      </trkpt>
      <trkpt lat="38.496563" lon="-0.723491">
        <ele>688</ele>
        <time>2019-04-19T06:53:26.000Z</time>
      </trkpt>
      <trkpt lat="38.496547" lon="-0.723509">
        <ele>687.36</ele>
        <time>2019-04-19T06:53:27.000Z</time>
      </trkpt>
      <trkpt lat="38.496533" lon="-0.723525">
        <ele>686.36</ele>
        <time>2019-04-19T06:53:28.000Z</time>
      </trkpt>
      <trkpt lat="38.496521" lon="-0.723544">
        <ele>686</ele>
        <time>2019-04-19T06:53:29.000Z</time>
      </trkpt>
      <trkpt lat="38.49651" lon="-0.723567">
        <ele>686</ele>
        <time>2019-04-19T06:53:30.000Z</time>
      </trkpt>
      <trkpt lat="38.4965" lon="-0.72359">
        <ele>686</ele>
        <time>2019-04-19T06:53:31.000Z</time>
      </trkpt>
      <trkpt lat="38.496488" lon="-0.723613">
        <ele>686</ele>
        <time>2019-04-19T06:53:32.000Z</time>
      </trkpt>
      <trkpt lat="38.496475" lon="-0.723632">
        <ele>686</ele>
        <time>2019-04-19T06:53:33.000Z</time>
      </trkpt>
      <trkpt lat="38.496455" lon="-0.723658">
        <ele>686</ele>
        <time>2019-04-19T06:53:35.000Z</time>
      </trkpt>
      <trkpt lat="38.496426" lon="-0.723681">
        <ele>685.36</ele>
        <time>2019-04-19T06:53:37.000Z</time>
      </trkpt>
      <trkpt lat="38.496411" lon="-0.723698">
        <ele>685</ele>
        <time>2019-04-19T06:53:38.000Z</time>
      </trkpt>
      <trkpt lat="38.496397" lon="-0.723714">
        <ele>685</ele>
        <time>2019-04-19T06:53:39.000Z</time>
      </trkpt>
      <trkpt lat="38.496383" lon="-0.723729">
        <ele>684.36</ele>
        <time>2019-04-19T06:53:40.000Z</time>
      </trkpt>
      <trkpt lat="38.496367" lon="-0.723744">
        <ele>683.36</ele>
        <time>2019-04-19T06:53:41.000Z</time>
      </trkpt>
      <trkpt lat="38.496353" lon="-0.723762">
        <ele>682.36</ele>
        <time>2019-04-19T06:53:42.000Z</time>
      </trkpt>
      <trkpt lat="38.496337" lon="-0.723785">
        <ele>682</ele>
        <time>2019-04-19T06:53:43.000Z</time>
      </trkpt>
      <trkpt lat="38.496321" lon="-0.723807">
        <ele>681.36363518825</ele>
        <time>2019-04-19T06:53:44.000Z</time>
      </trkpt>
      <trkpt lat="38.496306" lon="-0.72383">
        <ele>681</ele>
        <time>2019-04-19T06:53:45.000Z</time>
      </trkpt>
      <trkpt lat="38.496289" lon="-0.723851">
        <ele>680.36</ele>
        <time>2019-04-19T06:53:46.000Z</time>
      </trkpt>
      <trkpt lat="38.496271" lon="-0.723874">
        <ele>680</ele>
        <time>2019-04-19T06:53:47.000Z</time>
      </trkpt>
      <trkpt lat="38.496251" lon="-0.7239">
        <ele>680</ele>
        <time>2019-04-19T06:53:48.000Z</time>
      </trkpt>
      <trkpt lat="38.496235" lon="-0.72393">
        <ele>679.515151515152</ele>
        <time>2019-04-19T06:53:49.000Z</time>
      </trkpt>
      <trkpt lat="38.496224" lon="-0.723958">
        <ele>679</ele>
        <time>2019-04-19T06:53:50.000Z</time>
      </trkpt>
      <trkpt lat="38.496206" lon="-0.723984">
        <ele>678.366334626011</ele>
        <time>2019-04-19T06:53:52.000Z</time>
      </trkpt>
      <trkpt lat="38.496199" lon="-0.724026">
        <ele>678</ele>
        <time>2019-04-19T06:54:05.000Z</time>
      </trkpt>
      <trkpt lat="38.496188" lon="-0.724046">
        <ele>678</ele>
        <time>2019-04-19T06:54:06.000Z</time>
      </trkpt>
      <trkpt lat="38.496175" lon="-0.724066">
        <ele>678</ele>
        <time>2019-04-19T06:54:07.000Z</time>
      </trkpt>
      <trkpt lat="38.496161" lon="-0.724089">
        <ele>678</ele>
        <time>2019-04-19T06:54:08.000Z</time>
      </trkpt>
      <trkpt lat="38.496147" lon="-0.724108">
        <ele>677.36</ele>
        <time>2019-04-19T06:54:09.000Z</time>
      </trkpt>
      <trkpt lat="38.496133" lon="-0.724127">
        <ele>677</ele>
        <time>2019-04-19T06:54:10.000Z</time>
      </trkpt>
      <trkpt lat="38.496117" lon="-0.724149">
        <ele>677</ele>
        <time>2019-04-19T06:54:11.000Z</time>
      </trkpt>
      <trkpt lat="38.4961" lon="-0.724168">
        <ele>677</ele>
        <time>2019-04-19T06:54:12.000Z</time>
      </trkpt>
      <trkpt lat="38.49608" lon="-0.724188">
        <ele>677</ele>
        <time>2019-04-19T06:54:13.000Z</time>
      </trkpt>
      <trkpt lat="38.49606" lon="-0.724204">
        <ele>677</ele>
        <time>2019-04-19T06:54:14.000Z</time>
      </trkpt>
      <trkpt lat="38.49604" lon="-0.724218">
        <ele>677</ele>
        <time>2019-04-19T06:54:15.000Z</time>
      </trkpt>
      <trkpt lat="38.496023" lon="-0.724234">
        <ele>677</ele>
        <time>2019-04-19T06:54:16.000Z</time>
      </trkpt>
      <trkpt lat="38.496008" lon="-0.724254">
        <ele>677</ele>
        <time>2019-04-19T06:54:17.000Z</time>
      </trkpt>
      <trkpt lat="38.495993" lon="-0.724274">
        <ele>677</ele>
        <time>2019-04-19T06:54:18.000Z</time>
      </trkpt>
      <trkpt lat="38.495977" lon="-0.724292">
        <ele>677</ele>
        <time>2019-04-19T06:54:19.000Z</time>
      </trkpt>
      <trkpt lat="38.495958" lon="-0.724308">
        <ele>676.36</ele>
        <time>2019-04-19T06:54:20.000Z</time>
      </trkpt>
      <trkpt lat="38.495941" lon="-0.724326">
        <ele>675.36</ele>
        <time>2019-04-19T06:54:21.000Z</time>
      </trkpt>
      <trkpt lat="38.495926" lon="-0.72434">
        <ele>675</ele>
        <time>2019-04-19T06:54:22.000Z</time>
      </trkpt>
      <trkpt lat="38.495914" lon="-0.724358">
        <ele>675</ele>
        <time>2019-04-19T06:54:23.000Z</time>
      </trkpt>
      <trkpt lat="38.495899" lon="-0.724376">
        <ele>675</ele>
        <time>2019-04-19T06:54:24.000Z</time>
      </trkpt>
      <trkpt lat="38.495881" lon="-0.724388">
        <ele>675</ele>
        <time>2019-04-19T06:54:25.000Z</time>
      </trkpt>
      <trkpt lat="38.495864" lon="-0.724398">
        <ele>675</ele>
        <time>2019-04-19T06:54:26.000Z</time>
      </trkpt>
      <trkpt lat="38.495849" lon="-0.724412">
        <ele>674.36</ele>
        <time>2019-04-19T06:54:27.000Z</time>
      </trkpt>
      <trkpt lat="38.495831" lon="-0.724424">
        <ele>674</ele>
        <time>2019-04-19T06:54:28.000Z</time>
      </trkpt>
      <trkpt lat="38.495814" lon="-0.724436">
        <ele>674</ele>
        <time>2019-04-19T06:54:29.000Z</time>
      </trkpt>
      <trkpt lat="38.495795" lon="-0.724451">
        <ele>674</ele>
        <time>2019-04-19T06:54:30.000Z</time>
      </trkpt>
      <trkpt lat="38.495777" lon="-0.724464">
        <ele>674</ele>
        <time>2019-04-19T06:54:31.000Z</time>
      </trkpt>
      <trkpt lat="38.495758" lon="-0.724481">
        <ele>673.36</ele>
        <time>2019-04-19T06:54:32.000Z</time>
      </trkpt>
      <trkpt lat="38.49574" lon="-0.724496">
        <ele>673</ele>
        <time>2019-04-19T06:54:33.000Z</time>
      </trkpt>
      <trkpt lat="38.495721" lon="-0.724513">
        <ele>673</ele>
        <time>2019-04-19T06:54:34.000Z</time>
      </trkpt>
      <trkpt lat="38.495702" lon="-0.724526">
        <ele>672.542857142857</ele>
        <time>2019-04-19T06:54:35.000Z</time>
      </trkpt>
      <trkpt lat="38.495687" lon="-0.724542">
        <ele>672</ele>
        <time>2019-04-19T06:54:36.000Z</time>
      </trkpt>
      <trkpt lat="38.495668" lon="-0.724556">
        <ele>672</ele>
        <time>2019-04-19T06:54:37.000Z</time>
      </trkpt>
      <trkpt lat="38.495651" lon="-0.72457">
        <ele>671.372552956531</ele>
        <time>2019-04-19T06:54:38.000Z</time>
      </trkpt>
      <trkpt lat="38.495633" lon="-0.724587">
        <ele>671</ele>
        <time>2019-04-19T06:54:39.000Z</time>
      </trkpt>
      <trkpt lat="38.495613" lon="-0.724602">
        <ele>671</ele>
        <time>2019-04-19T06:54:40.000Z</time>
      </trkpt>
      <trkpt lat="38.495594" lon="-0.724617">
        <ele>671</ele>
        <time>2019-04-19T06:54:41.000Z</time>
      </trkpt>
      <trkpt lat="38.495575" lon="-0.724628">
        <ele>671</ele>
        <time>2019-04-19T06:54:42.000Z</time>
      </trkpt>
      <trkpt lat="38.495554" lon="-0.724644">
        <ele>671</ele>
        <time>2019-04-19T06:54:43.000Z</time>
      </trkpt>
      <trkpt lat="38.495535" lon="-0.724656">
        <ele>670.36</ele>
        <time>2019-04-19T06:54:44.000Z</time>
      </trkpt>
      <trkpt lat="38.495513" lon="-0.72467">
        <ele>670</ele>
        <time>2019-04-19T06:54:45.000Z</time>
      </trkpt>
      <trkpt lat="38.495495" lon="-0.724684">
        <ele>670</ele>
        <time>2019-04-19T06:54:46.000Z</time>
      </trkpt>
      <trkpt lat="38.495474" lon="-0.724698">
        <ele>670</ele>
        <time>2019-04-19T06:54:47.000Z</time>
      </trkpt>
      <trkpt lat="38.495457" lon="-0.724716">
        <ele>670</ele>
        <time>2019-04-19T06:54:48.000Z</time>
      </trkpt>
      <trkpt lat="38.495443" lon="-0.724738">
        <ele>669.537310866575</ele>
        <time>2019-04-19T06:54:49.000Z</time>
      </trkpt>
      <trkpt lat="38.495429" lon="-0.724762">
        <ele>669</ele>
        <time>2019-04-19T06:54:50.000Z</time>
      </trkpt>
      <trkpt lat="38.495417" lon="-0.724786">
        <ele>668.36</ele>
        <time>2019-04-19T06:54:51.000Z</time>
      </trkpt>
      <trkpt lat="38.495405" lon="-0.724812">
        <ele>668</ele>
        <time>2019-04-19T06:54:52.000Z</time>
      </trkpt>
      <trkpt lat="38.495392" lon="-0.724836">
        <ele>668</ele>
        <time>2019-04-19T06:54:53.000Z</time>
      </trkpt>
      <trkpt lat="38.495385" lon="-0.724866">
        <ele>668</ele>
        <time>2019-04-19T06:54:54.000Z</time>
      </trkpt>
      <trkpt lat="38.495379" lon="-0.724898">
        <ele>668</ele>
        <time>2019-04-19T06:54:55.000Z</time>
      </trkpt>
      <trkpt lat="38.495371" lon="-0.724922">
        <ele>667.418185203286</ele>
        <time>2019-04-19T06:54:56.000Z</time>
      </trkpt>
      <trkpt lat="38.495366" lon="-0.724952">
        <ele>667</ele>
        <time>2019-04-19T06:54:57.000Z</time>
      </trkpt>
      <trkpt lat="38.495364" lon="-0.724976">
        <ele>666.36</ele>
        <time>2019-04-19T06:54:58.000Z</time>
      </trkpt>
      <trkpt lat="38.495364" lon="-0.725007">
        <ele>665.367344539791</ele>
        <time>2019-04-19T06:55:00.000Z</time>
      </trkpt>
      <trkpt lat="38.495364" lon="-0.725031">
        <ele>665</ele>
        <time>2019-04-19T06:55:05.000Z</time>
      </trkpt>
      <trkpt lat="38.495366" lon="-0.725056">
        <ele>665</ele>
        <time>2019-04-19T06:55:06.000Z</time>
      </trkpt>
      <trkpt lat="38.495368" lon="-0.725083">
        <ele>664.36</ele>
        <time>2019-04-19T06:55:07.000Z</time>
      </trkpt>
      <trkpt lat="38.495371" lon="-0.725112">
        <ele>664</ele>
        <time>2019-04-19T06:55:08.000Z</time>
      </trkpt>
      <trkpt lat="38.495372" lon="-0.725139">
        <ele>664</ele>
        <time>2019-04-19T06:55:09.000Z</time>
      </trkpt>
      <trkpt lat="38.495377" lon="-0.725169">
        <ele>664</ele>
        <time>2019-04-19T06:55:10.000Z</time>
      </trkpt>
      <trkpt lat="38.495378" lon="-0.725197">
        <ele>664</ele>
        <time>2019-04-19T06:55:11.000Z</time>
      </trkpt>
      <trkpt lat="38.495377" lon="-0.725228">
        <ele>664</ele>
        <time>2019-04-19T06:55:12.000Z</time>
      </trkpt>
      <trkpt lat="38.495378" lon="-0.725256">
        <ele>664</ele>
        <time>2019-04-19T06:55:13.000Z</time>
      </trkpt>
      <trkpt lat="38.495376" lon="-0.725284">
        <ele>664</ele>
        <time>2019-04-19T06:55:14.000Z</time>
      </trkpt>
      <trkpt lat="38.495371" lon="-0.725309">
        <ele>664</ele>
        <time>2019-04-19T06:55:15.000Z</time>
      </trkpt>
      <trkpt lat="38.495365" lon="-0.725333">
        <ele>664</ele>
        <time>2019-04-19T06:55:16.000Z</time>
      </trkpt>
      <trkpt lat="38.495356" lon="-0.725359">
        <ele>664</ele>
        <time>2019-04-19T06:55:17.000Z</time>
      </trkpt>
      <trkpt lat="38.495346" lon="-0.72538">
        <ele>664</ele>
        <time>2019-04-19T06:55:18.000Z</time>
      </trkpt>
      <trkpt lat="38.495338" lon="-0.725406">
        <ele>664</ele>
        <time>2019-04-19T06:55:19.000Z</time>
      </trkpt>
      <trkpt lat="38.495329" lon="-0.72543">
        <ele>664</ele>
        <time>2019-04-19T06:55:20.000Z</time>
      </trkpt>
      <trkpt lat="38.495316" lon="-0.725452">
        <ele>663.36</ele>
        <time>2019-04-19T06:55:21.000Z</time>
      </trkpt>
      <trkpt lat="38.495304" lon="-0.725477">
        <ele>663</ele>
        <time>2019-04-19T06:55:22.000Z</time>
      </trkpt>
      <trkpt lat="38.495288" lon="-0.725499">
        <ele>662.36</ele>
        <time>2019-04-19T06:55:23.000Z</time>
      </trkpt>
      <trkpt lat="38.495274" lon="-0.725523">
        <ele>662</ele>
        <time>2019-04-19T06:55:24.000Z</time>
      </trkpt>
      <trkpt lat="38.49526" lon="-0.725548">
        <ele>662</ele>
        <time>2019-04-19T06:55:25.000Z</time>
      </trkpt>
      <trkpt lat="38.495249" lon="-0.725575">
        <ele>662</ele>
        <time>2019-04-19T06:55:26.000Z</time>
      </trkpt>
      <trkpt lat="38.495241" lon="-0.725601">
        <ele>661.371135244982</ele>
        <time>2019-04-19T06:55:27.000Z</time>
      </trkpt>
      <trkpt lat="38.495241" lon="-0.725629">
        <ele>661</ele>
        <time>2019-04-19T06:55:28.000Z</time>
      </trkpt>
      <trkpt lat="38.495243" lon="-0.72566">
        <ele>661</ele>
        <time>2019-04-19T06:55:29.000Z</time>
      </trkpt>
      <trkpt lat="38.495244" lon="-0.725691">
        <ele>660.36</ele>
        <time>2019-04-19T06:55:30.000Z</time>
      </trkpt>
      <trkpt lat="38.495244" lon="-0.72572">
        <ele>660</ele>
        <time>2019-04-19T06:55:31.000Z</time>
      </trkpt>
      <trkpt lat="38.495241" lon="-0.72575">
        <ele>660</ele>
        <time>2019-04-19T06:55:32.000Z</time>
      </trkpt>
      <trkpt lat="38.49524" lon="-0.725775">
        <ele>660</ele>
        <time>2019-04-19T06:55:33.000Z</time>
      </trkpt>
      <trkpt lat="38.495239" lon="-0.725804">
        <ele>660</ele>
        <time>2019-04-19T06:55:34.000Z</time>
      </trkpt>
      <trkpt lat="38.495236" lon="-0.725828">
        <ele>660</ele>
        <time>2019-04-19T06:55:35.000Z</time>
      </trkpt>
      <trkpt lat="38.495232" lon="-0.725851">
        <ele>660</ele>
        <time>2019-04-19T06:55:36.000Z</time>
      </trkpt>
      <trkpt lat="38.495231" lon="-0.725876">
        <ele>660</ele>
        <time>2019-04-19T06:55:37.000Z</time>
      </trkpt>
      <trkpt lat="38.495228" lon="-0.725903">
        <ele>660</ele>
        <time>2019-04-19T06:55:38.000Z</time>
      </trkpt>
      <trkpt lat="38.495227" lon="-0.725933">
        <ele>660</ele>
        <time>2019-04-19T06:55:39.000Z</time>
      </trkpt>
      <trkpt lat="38.495226" lon="-0.725963">
        <ele>660</ele>
        <time>2019-04-19T06:55:40.000Z</time>
      </trkpt>
      <trkpt lat="38.495222" lon="-0.72599">
        <ele>660</ele>
        <time>2019-04-19T06:55:41.000Z</time>
      </trkpt>
      <trkpt lat="38.495215" lon="-0.726018">
        <ele>660</ele>
        <time>2019-04-19T06:55:42.000Z</time>
      </trkpt>
      <trkpt lat="38.495211" lon="-0.726045">
        <ele>660</ele>
        <time>2019-04-19T06:55:43.000Z</time>
      </trkpt>
      <trkpt lat="38.495208" lon="-0.726071">
        <ele>660</ele>
        <time>2019-04-19T06:55:44.000Z</time>
      </trkpt>
      <trkpt lat="38.495206" lon="-0.726098">
        <ele>660</ele>
        <time>2019-04-19T06:55:45.000Z</time>
      </trkpt>
      <trkpt lat="38.495205" lon="-0.726122">
        <ele>660</ele>
        <time>2019-04-19T06:55:46.000Z</time>
      </trkpt>
      <trkpt lat="38.495204" lon="-0.726158">
        <ele>660</ele>
        <time>2019-04-19T06:55:48.000Z</time>
      </trkpt>
      <trkpt lat="38.495204" lon="-0.726188">
        <ele>660</ele>
        <time>2019-04-19T06:55:50.000Z</time>
      </trkpt>
      <trkpt lat="38.495203" lon="-0.726216">
        <ele>661</ele>
        <time>2019-04-19T06:55:52.000Z</time>
      </trkpt>
      <trkpt lat="38.495201" lon="-0.726244">
        <ele>661</ele>
        <time>2019-04-19T06:55:54.000Z</time>
      </trkpt>
      <trkpt lat="38.495199" lon="-0.726272">
        <ele>661</ele>
        <time>2019-04-19T06:55:56.000Z</time>
      </trkpt>
      <trkpt lat="38.495197" lon="-0.7263">
        <ele>661</ele>
        <time>2019-04-19T06:55:58.000Z</time>
      </trkpt>
      <trkpt lat="38.495194" lon="-0.726329">
        <ele>661</ele>
        <time>2019-04-19T06:56:00.000Z</time>
      </trkpt>
      <trkpt lat="38.495191" lon="-0.726359">
        <ele>661</ele>
        <time>2019-04-19T06:56:02.000Z</time>
      </trkpt>
      <trkpt lat="38.495189" lon="-0.726384">
        <ele>661</ele>
        <time>2019-04-19T06:56:04.000Z</time>
      </trkpt>
      <trkpt lat="38.495184" lon="-0.726409">
        <ele>661</ele>
        <time>2019-04-19T06:56:06.000Z</time>
      </trkpt>
      <trkpt lat="38.495181" lon="-0.726434">
        <ele>661</ele>
        <time>2019-04-19T06:56:08.000Z</time>
      </trkpt>
      <trkpt lat="38.495175" lon="-0.726469">
        <ele>661</ele>
        <time>2019-04-19T06:56:11.000Z</time>
      </trkpt>
      <trkpt lat="38.495172" lon="-0.726496">
        <ele>661</ele>
        <time>2019-04-19T06:56:18.000Z</time>
      </trkpt>
      <trkpt lat="38.495166" lon="-0.726529">
        <ele>661</ele>
        <time>2019-04-19T06:56:21.000Z</time>
      </trkpt>
      <trkpt lat="38.495155" lon="-0.726555">
        <ele>661</ele>
        <time>2019-04-19T06:56:23.000Z</time>
      </trkpt>
      <trkpt lat="38.495141" lon="-0.726578">
        <ele>661</ele>
        <time>2019-04-19T06:56:25.000Z</time>
      </trkpt>
      <trkpt lat="38.495126" lon="-0.7266">
        <ele>661</ele>
        <time>2019-04-19T06:56:27.000Z</time>
      </trkpt>
      <trkpt lat="38.495108" lon="-0.72662">
        <ele>661</ele>
        <time>2019-04-19T06:56:29.000Z</time>
      </trkpt>
      <trkpt lat="38.495087" lon="-0.726635">
        <ele>661</ele>
        <time>2019-04-19T06:56:31.000Z</time>
      </trkpt>
      <trkpt lat="38.495065" lon="-0.726646">
        <ele>661</ele>
        <time>2019-04-19T06:56:33.000Z</time>
      </trkpt>
      <trkpt lat="38.495046" lon="-0.726659">
        <ele>661</ele>
        <time>2019-04-19T06:56:35.000Z</time>
      </trkpt>
      <trkpt lat="38.495025" lon="-0.726669">
        <ele>662</ele>
        <time>2019-04-19T06:56:37.000Z</time>
      </trkpt>
      <trkpt lat="38.495002" lon="-0.726677">
        <ele>662</ele>
        <time>2019-04-19T06:56:39.000Z</time>
      </trkpt>
      <trkpt lat="38.494979" lon="-0.726685">
        <ele>661.390474332874</ele>
        <time>2019-04-19T06:56:41.000Z</time>
      </trkpt>
      <trkpt lat="38.494954" lon="-0.726692">
        <ele>661</ele>
        <time>2019-04-19T06:56:43.000Z</time>
      </trkpt>
      <trkpt lat="38.494931" lon="-0.7267">
        <ele>661</ele>
        <time>2019-04-19T06:56:45.000Z</time>
      </trkpt>
      <trkpt lat="38.494909" lon="-0.726706">
        <ele>661</ele>
        <time>2019-04-19T06:56:47.000Z</time>
      </trkpt>
      <trkpt lat="38.494882" lon="-0.726711">
        <ele>661</ele>
        <time>2019-04-19T06:56:53.000Z</time>
      </trkpt>
      <trkpt lat="38.494846" lon="-0.726715">
        <ele>661</ele>
        <time>2019-04-19T06:56:55.000Z</time>
      </trkpt>
      <trkpt lat="38.494825" lon="-0.726718">
        <ele>661</ele>
        <time>2019-04-19T06:56:56.000Z</time>
      </trkpt>
      <trkpt lat="38.494805" lon="-0.72672">
        <ele>660.36</ele>
        <time>2019-04-19T06:56:57.000Z</time>
      </trkpt>
      <trkpt lat="38.494785" lon="-0.726724">
        <ele>660</ele>
        <time>2019-04-19T06:56:58.000Z</time>
      </trkpt>
      <trkpt lat="38.494764" lon="-0.726727">
        <ele>660</ele>
        <time>2019-04-19T06:56:59.000Z</time>
      </trkpt>
      <trkpt lat="38.49474" lon="-0.726727">
        <ele>659.412842312932</ele>
        <time>2019-04-19T06:57:00.000Z</time>
      </trkpt>
      <trkpt lat="38.494719" lon="-0.726732">
        <ele>659</ele>
        <time>2019-04-19T06:57:01.000Z</time>
      </trkpt>
      <trkpt lat="38.4947" lon="-0.726736">
        <ele>659</ele>
        <time>2019-04-19T06:57:02.000Z</time>
      </trkpt>
      <trkpt lat="38.494682" lon="-0.726739">
        <ele>659</ele>
        <time>2019-04-19T06:57:03.000Z</time>
      </trkpt>
      <trkpt lat="38.494662" lon="-0.726743">
        <ele>659</ele>
        <time>2019-04-19T06:57:04.000Z</time>
      </trkpt>
      <trkpt lat="38.494645" lon="-0.726751">
        <ele>659</ele>
        <time>2019-04-19T06:57:05.000Z</time>
      </trkpt>
      <trkpt lat="38.494617" lon="-0.726755">
        <ele>659</ele>
        <time>2019-04-19T06:57:07.000Z</time>
      </trkpt>
      <trkpt lat="38.494582" lon="-0.726762">
        <ele>658.36</ele>
        <time>2019-04-19T06:57:09.000Z</time>
      </trkpt>
      <trkpt lat="38.494558" lon="-0.726767">
        <ele>658</ele>
        <time>2019-04-19T06:57:10.000Z</time>
      </trkpt>
      <trkpt lat="38.494534" lon="-0.726772">
        <ele>657.36</ele>
        <time>2019-04-19T06:57:11.000Z</time>
      </trkpt>
      <trkpt lat="38.494511" lon="-0.726779">
        <ele>657</ele>
        <time>2019-04-19T06:57:12.000Z</time>
      </trkpt>
      <trkpt lat="38.494488" lon="-0.726788">
        <ele>657</ele>
        <time>2019-04-19T06:57:13.000Z</time>
      </trkpt>
      <trkpt lat="38.494466" lon="-0.726798">
        <ele>657</ele>
        <time>2019-04-19T06:57:14.000Z</time>
      </trkpt>
      <trkpt lat="38.494443" lon="-0.726806">
        <ele>656.400002844465</ele>
        <time>2019-04-19T06:57:15.000Z</time>
      </trkpt>
      <trkpt lat="38.494422" lon="-0.726815">
        <ele>656</ele>
        <time>2019-04-19T06:57:16.000Z</time>
      </trkpt>
      <trkpt lat="38.494402" lon="-0.726824">
        <ele>656</ele>
        <time>2019-04-19T06:57:17.000Z</time>
      </trkpt>
      <trkpt lat="38.494379" lon="-0.72683">
        <ele>655.36</ele>
        <time>2019-04-19T06:57:18.000Z</time>
      </trkpt>
      <trkpt lat="38.494356" lon="-0.726837">
        <ele>655.587157687068</ele>
        <time>2019-04-19T06:57:19.000Z</time>
      </trkpt>
      <trkpt lat="38.494334" lon="-0.726847">
        <ele>656</ele>
        <time>2019-04-19T06:57:20.000Z</time>
      </trkpt>
      <trkpt lat="38.494313" lon="-0.726856">
        <ele>655.36</ele>
        <time>2019-04-19T06:57:21.000Z</time>
      </trkpt>
      <trkpt lat="38.494291" lon="-0.726868">
        <ele>654.366334626011</ele>
        <time>2019-04-19T06:57:22.000Z</time>
      </trkpt>
      <trkpt lat="38.49427" lon="-0.726879">
        <ele>654</ele>
        <time>2019-04-19T06:57:23.000Z</time>
      </trkpt>
      <trkpt lat="38.49425" lon="-0.726893">
        <ele>654</ele>
        <time>2019-04-19T06:57:24.000Z</time>
      </trkpt>
      <trkpt lat="38.494231" lon="-0.726905">
        <ele>654</ele>
        <time>2019-04-19T06:57:25.000Z</time>
      </trkpt>
      <trkpt lat="38.494211" lon="-0.726919">
        <ele>654</ele>
        <time>2019-04-19T06:57:26.000Z</time>
      </trkpt>
      <trkpt lat="38.494175" lon="-0.726953">
        <ele>654</ele>
        <time>2019-04-19T06:57:28.000Z</time>
      </trkpt>
      <trkpt lat="38.494157" lon="-0.726972">
        <ele>653.367349337792</ele>
        <time>2019-04-19T06:57:29.000Z</time>
      </trkpt>
      <trkpt lat="38.494139" lon="-0.726987">
        <ele>652.36</ele>
        <time>2019-04-19T06:57:30.000Z</time>
      </trkpt>
      <trkpt lat="38.494119" lon="-0.727001">
        <ele>652</ele>
        <time>2019-04-19T06:57:31.000Z</time>
      </trkpt>
      <trkpt lat="38.494102" lon="-0.727013">
        <ele>652</ele>
        <time>2019-04-19T06:57:32.000Z</time>
      </trkpt>
      <trkpt lat="38.494084" lon="-0.727028">
        <ele>652</ele>
        <time>2019-04-19T06:57:33.000Z</time>
      </trkpt>
      <trkpt lat="38.494063" lon="-0.727044">
        <ele>652</ele>
        <time>2019-04-19T06:57:34.000Z</time>
      </trkpt>
      <trkpt lat="38.494044" lon="-0.727063">
        <ele>650.827583162913</ele>
        <time>2019-04-19T06:57:35.000Z</time>
      </trkpt>
      <trkpt lat="38.494024" lon="-0.727081">
        <ele>650</ele>
        <time>2019-04-19T06:57:36.000Z</time>
      </trkpt>
      <trkpt lat="38.494005" lon="-0.727095">
        <ele>650</ele>
        <time>2019-04-19T06:57:37.000Z</time>
      </trkpt>
      <trkpt lat="38.493983" lon="-0.72711">
        <ele>650</ele>
        <time>2019-04-19T06:57:38.000Z</time>
      </trkpt>
      <trkpt lat="38.49396" lon="-0.727124">
        <ele>650</ele>
        <time>2019-04-19T06:57:39.000Z</time>
      </trkpt>
      <trkpt lat="38.493939" lon="-0.727138">
        <ele>650</ele>
        <time>2019-04-19T06:57:40.000Z</time>
      </trkpt>
      <trkpt lat="38.493917" lon="-0.727148">
        <ele>649.371135244982</ele>
        <time>2019-04-19T06:57:41.000Z</time>
      </trkpt>
      <trkpt lat="38.493893" lon="-0.727156">
        <ele>649</ele>
        <time>2019-04-19T06:57:42.000Z</time>
      </trkpt>
      <trkpt lat="38.493871" lon="-0.727165">
        <ele>649</ele>
        <time>2019-04-19T06:57:43.000Z</time>
      </trkpt>
      <trkpt lat="38.49385" lon="-0.727171">
        <ele>649</ele>
        <time>2019-04-19T06:57:44.000Z</time>
      </trkpt>
      <trkpt lat="38.493826" lon="-0.727178">
        <ele>649</ele>
        <time>2019-04-19T06:57:45.000Z</time>
      </trkpt>
      <trkpt lat="38.493798" lon="-0.727181">
        <ele>649</ele>
        <time>2019-04-19T06:57:46.000Z</time>
      </trkpt>
      <trkpt lat="38.49377" lon="-0.727184">
        <ele>648.537310866575</ele>
        <time>2019-04-19T06:57:47.000Z</time>
      </trkpt>
      <trkpt lat="38.493747" lon="-0.727184">
        <ele>647.36</ele>
        <time>2019-04-19T06:57:48.000Z</time>
      </trkpt>
      <trkpt lat="38.493723" lon="-0.72718">
        <ele>647</ele>
        <time>2019-04-19T06:57:49.000Z</time>
      </trkpt>
      <trkpt lat="38.4937" lon="-0.727177">
        <ele>647.64</ele>
        <time>2019-04-19T06:57:50.000Z</time>
      </trkpt>
      <trkpt lat="38.493679" lon="-0.727179">
        <ele>648</ele>
        <time>2019-04-19T06:57:51.000Z</time>
      </trkpt>
      <trkpt lat="38.493657" lon="-0.72718">
        <ele>648</ele>
        <time>2019-04-19T06:57:52.000Z</time>
      </trkpt>
      <trkpt lat="38.493631" lon="-0.727177">
        <ele>648</ele>
        <time>2019-04-19T06:57:53.000Z</time>
      </trkpt>
      <trkpt lat="38.493607" lon="-0.727175">
        <ele>648</ele>
        <time>2019-04-19T06:57:54.000Z</time>
      </trkpt>
      <trkpt lat="38.49358" lon="-0.72717">
        <ele>648</ele>
        <time>2019-04-19T06:57:55.000Z</time>
      </trkpt>
      <trkpt lat="38.493554" lon="-0.727166">
        <ele>648</ele>
        <time>2019-04-19T06:57:56.000Z</time>
      </trkpt>
      <trkpt lat="38.493527" lon="-0.72716">
        <ele>648</ele>
        <time>2019-04-19T06:57:57.000Z</time>
      </trkpt>
      <trkpt lat="38.493501" lon="-0.727157">
        <ele>648</ele>
        <time>2019-04-19T06:57:58.000Z</time>
      </trkpt>
      <trkpt lat="38.493478" lon="-0.727155">
        <ele>648</ele>
        <time>2019-04-19T06:57:59.000Z</time>
      </trkpt>
      <trkpt lat="38.493452" lon="-0.727154">
        <ele>648</ele>
        <time>2019-04-19T06:58:00.000Z</time>
      </trkpt>
      <trkpt lat="38.493429" lon="-0.727153">
        <ele>648</ele>
        <time>2019-04-19T06:58:01.000Z</time>
      </trkpt>
      <trkpt lat="38.493402" lon="-0.727152">
        <ele>648</ele>
        <time>2019-04-19T06:58:02.000Z</time>
      </trkpt>
      <trkpt lat="38.493378" lon="-0.727149">
        <ele>648</ele>
        <time>2019-04-19T06:58:03.000Z</time>
      </trkpt>
      <trkpt lat="38.493353" lon="-0.727147">
        <ele>648</ele>
        <time>2019-04-19T06:58:04.000Z</time>
      </trkpt>
      <trkpt lat="38.493329" lon="-0.727147">
        <ele>648</ele>
        <time>2019-04-19T06:58:05.000Z</time>
      </trkpt>
      <trkpt lat="38.493309" lon="-0.727145">
        <ele>648</ele>
        <time>2019-04-19T06:58:06.000Z</time>
      </trkpt>
      <trkpt lat="38.49329" lon="-0.727141">
        <ele>648</ele>
        <time>2019-04-19T06:58:07.000Z</time>
      </trkpt>
      <trkpt lat="38.49327" lon="-0.727139">
        <ele>648</ele>
        <time>2019-04-19T06:58:08.000Z</time>
      </trkpt>
      <trkpt lat="38.49325" lon="-0.727136">
        <ele>648</ele>
        <time>2019-04-19T06:58:09.000Z</time>
      </trkpt>
      <trkpt lat="38.493231" lon="-0.727131">
        <ele>648</ele>
        <time>2019-04-19T06:58:10.000Z</time>
      </trkpt>
      <trkpt lat="38.493207" lon="-0.727122">
        <ele>648</ele>
        <time>2019-04-19T06:58:11.000Z</time>
      </trkpt>
      <trkpt lat="38.493184" lon="-0.727117">
        <ele>648</ele>
        <time>2019-04-19T06:58:12.000Z</time>
      </trkpt>
      <trkpt lat="38.493162" lon="-0.72711">
        <ele>648</ele>
        <time>2019-04-19T06:58:13.000Z</time>
      </trkpt>
      <trkpt lat="38.493138" lon="-0.72711">
        <ele>648</ele>
        <time>2019-04-19T06:58:14.000Z</time>
      </trkpt>
      <trkpt lat="38.493114" lon="-0.727108">
        <ele>648</ele>
        <time>2019-04-19T06:58:15.000Z</time>
      </trkpt>
      <trkpt lat="38.493094" lon="-0.72711">
        <ele>648</ele>
        <time>2019-04-19T06:58:16.000Z</time>
      </trkpt>
      <trkpt lat="38.493057" lon="-0.727104">
        <ele>648</ele>
        <time>2019-04-19T06:58:18.000Z</time>
      </trkpt>
      <trkpt lat="38.493039" lon="-0.727102">
        <ele>648</ele>
        <time>2019-04-19T06:58:19.000Z</time>
      </trkpt>
      <trkpt lat="38.493017" lon="-0.727101">
        <ele>648</ele>
        <time>2019-04-19T06:58:20.000Z</time>
      </trkpt>
      <trkpt lat="38.492996" lon="-0.727096">
        <ele>648</ele>
        <time>2019-04-19T06:58:21.000Z</time>
      </trkpt>
      <trkpt lat="38.492977" lon="-0.727092">
        <ele>648</ele>
        <time>2019-04-19T06:58:22.000Z</time>
      </trkpt>
      <trkpt lat="38.492957" lon="-0.727085">
        <ele>648</ele>
        <time>2019-04-19T06:58:23.000Z</time>
      </trkpt>
      <trkpt lat="38.492935" lon="-0.727084">
        <ele>648</ele>
        <time>2019-04-19T06:58:24.000Z</time>
      </trkpt>
      <trkpt lat="38.492913" lon="-0.727084">
        <ele>648</ele>
        <time>2019-04-19T06:58:25.000Z</time>
      </trkpt>
      <trkpt lat="38.492892" lon="-0.727085">
        <ele>648</ele>
        <time>2019-04-19T06:58:26.000Z</time>
      </trkpt>
      <trkpt lat="38.492866" lon="-0.727086">
        <ele>647.36</ele>
        <time>2019-04-19T06:58:27.000Z</time>
      </trkpt>
      <trkpt lat="38.492841" lon="-0.727088">
        <ele>647</ele>
        <time>2019-04-19T06:58:28.000Z</time>
      </trkpt>
      <trkpt lat="38.492816" lon="-0.72709">
        <ele>647</ele>
        <time>2019-04-19T06:58:29.000Z</time>
      </trkpt>
      <trkpt lat="38.49279" lon="-0.727093">
        <ele>647</ele>
        <time>2019-04-19T06:58:30.000Z</time>
      </trkpt>
      <trkpt lat="38.492766" lon="-0.7271">
        <ele>647</ele>
        <time>2019-04-19T06:58:31.000Z</time>
      </trkpt>
      <trkpt lat="38.492742" lon="-0.727105">
        <ele>647</ele>
        <time>2019-04-19T06:58:32.000Z</time>
      </trkpt>
      <trkpt lat="38.492722" lon="-0.727114">
        <ele>647</ele>
        <time>2019-04-19T06:58:33.000Z</time>
      </trkpt>
      <trkpt lat="38.492702" lon="-0.727126">
        <ele>647</ele>
        <time>2019-04-19T06:58:34.000Z</time>
      </trkpt>
      <trkpt lat="38.492682" lon="-0.727137">
        <ele>646.36</ele>
        <time>2019-04-19T06:58:35.000Z</time>
      </trkpt>
      <trkpt lat="38.492663" lon="-0.727147">
        <ele>646</ele>
        <time>2019-04-19T06:58:36.000Z</time>
      </trkpt>
      <trkpt lat="38.492643" lon="-0.727156">
        <ele>646</ele>
        <time>2019-04-19T06:58:37.000Z</time>
      </trkpt>
      <trkpt lat="38.492625" lon="-0.727163">
        <ele>645.412842312932</ele>
        <time>2019-04-19T06:58:38.000Z</time>
      </trkpt>
      <trkpt lat="38.492605" lon="-0.727168">
        <ele>645</ele>
        <time>2019-04-19T06:58:39.000Z</time>
      </trkpt>
      <trkpt lat="38.492573" lon="-0.72717">
        <ele>645</ele>
        <time>2019-04-19T06:58:41.000Z</time>
      </trkpt>
      <trkpt lat="38.492544" lon="-0.727175">
        <ele>645</ele>
        <time>2019-04-19T06:58:43.000Z</time>
      </trkpt>
      <trkpt lat="38.492519" lon="-0.727175">
        <ele>644.395603004473</ele>
        <time>2019-04-19T06:58:45.000Z</time>
      </trkpt>
      <trkpt lat="38.492501" lon="-0.727191">
        <ele>643.427273150411</ele>
        <time>2019-04-19T06:58:52.000Z</time>
      </trkpt>
      <trkpt lat="38.492475" lon="-0.727223">
        <ele>643</ele>
        <time>2019-04-19T06:58:54.000Z</time>
      </trkpt>
      <trkpt lat="38.492448" lon="-0.727238">
        <ele>643</ele>
        <time>2019-04-19T06:58:56.000Z</time>
      </trkpt>
      <trkpt lat="38.49243" lon="-0.727253">
        <ele>643</ele>
        <time>2019-04-19T06:58:58.000Z</time>
      </trkpt>
      <trkpt lat="38.492412" lon="-0.727263">
        <ele>642</ele>
        <time>2019-04-19T06:59:02.000Z</time>
      </trkpt>
      <trkpt lat="38.492389" lon="-0.727267">
        <ele>643</ele>
        <time>2019-04-19T06:59:06.000Z</time>
      </trkpt>
      <trkpt lat="38.49237" lon="-0.727278">
        <ele>643</ele>
        <time>2019-04-19T06:59:09.000Z</time>
      </trkpt>
      <trkpt lat="38.492349" lon="-0.7273">
        <ele>643</ele>
        <time>2019-04-19T06:59:12.000Z</time>
      </trkpt>
      <trkpt lat="38.492332" lon="-0.727316">
        <ele>643</ele>
        <time>2019-04-19T06:59:14.000Z</time>
      </trkpt>
      <trkpt lat="38.492316" lon="-0.727332">
        <ele>643</ele>
        <time>2019-04-19T06:59:16.000Z</time>
      </trkpt>
      <trkpt lat="38.4923" lon="-0.727349">
        <ele>643</ele>
        <time>2019-04-19T06:59:18.000Z</time>
      </trkpt>
      <trkpt lat="38.492283" lon="-0.727369">
        <ele>643</ele>
        <time>2019-04-19T06:59:20.000Z</time>
      </trkpt>
      <trkpt lat="38.492269" lon="-0.727385">
        <ele>643</ele>
        <time>2019-04-19T06:59:22.000Z</time>
      </trkpt>
      <trkpt lat="38.492252" lon="-0.727397">
        <ele>642</ele>
        <time>2019-04-19T06:59:28.000Z</time>
      </trkpt>
      <trkpt lat="38.492242" lon="-0.727416">
        <ele>642</ele>
        <time>2019-04-19T06:59:30.000Z</time>
      </trkpt>
      <trkpt lat="38.492228" lon="-0.727443">
        <ele>642</ele>
        <time>2019-04-19T06:59:32.000Z</time>
      </trkpt>
      <trkpt lat="38.492217" lon="-0.727464">
        <ele>642</ele>
        <time>2019-04-19T06:59:33.000Z</time>
      </trkpt>
      <trkpt lat="38.492208" lon="-0.727486">
        <ele>642</ele>
        <time>2019-04-19T06:59:34.000Z</time>
      </trkpt>
      <trkpt lat="38.492189" lon="-0.727509">
        <ele>642</ele>
        <time>2019-04-19T06:59:35.000Z</time>
      </trkpt>
      <trkpt lat="38.492167" lon="-0.727532">
        <ele>642</ele>
        <time>2019-04-19T06:59:36.000Z</time>
      </trkpt>
      <trkpt lat="38.492149" lon="-0.727558">
        <ele>642</ele>
        <time>2019-04-19T06:59:37.000Z</time>
      </trkpt>
      <trkpt lat="38.492133" lon="-0.727584">
        <ele>642</ele>
        <time>2019-04-19T06:59:38.000Z</time>
      </trkpt>
      <trkpt lat="38.492123" lon="-0.727614">
        <ele>642</ele>
        <time>2019-04-19T06:59:39.000Z</time>
      </trkpt>
      <trkpt lat="38.492116" lon="-0.727643">
        <ele>642</ele>
        <time>2019-04-19T06:59:40.000Z</time>
      </trkpt>
      <trkpt lat="38.492111" lon="-0.727672">
        <ele>642</ele>
        <time>2019-04-19T06:59:41.000Z</time>
      </trkpt>
      <trkpt lat="38.492106" lon="-0.727697">
        <ele>642</ele>
        <time>2019-04-19T06:59:42.000Z</time>
      </trkpt>
      <trkpt lat="38.492097" lon="-0.727726">
        <ele>641.36</ele>
        <time>2019-04-19T06:59:43.000Z</time>
      </trkpt>
      <trkpt lat="38.492087" lon="-0.727758">
        <ele>641</ele>
        <time>2019-04-19T06:59:44.000Z</time>
      </trkpt>
      <trkpt lat="38.492078" lon="-0.727787">
        <ele>641</ele>
        <time>2019-04-19T06:59:45.000Z</time>
      </trkpt>
      <trkpt lat="38.49207" lon="-0.727816">
        <ele>641</ele>
        <time>2019-04-19T06:59:46.000Z</time>
      </trkpt>
      <trkpt lat="38.492061" lon="-0.727844">
        <ele>641</ele>
        <time>2019-04-19T06:59:47.000Z</time>
      </trkpt>
      <trkpt lat="38.49205" lon="-0.727873">
        <ele>641</ele>
        <time>2019-04-19T06:59:48.000Z</time>
      </trkpt>
      <trkpt lat="38.492042" lon="-0.727904">
        <ele>641</ele>
        <time>2019-04-19T06:59:49.000Z</time>
      </trkpt>
      <trkpt lat="38.492036" lon="-0.727937">
        <ele>641</ele>
        <time>2019-04-19T06:59:50.000Z</time>
      </trkpt>
      <trkpt lat="38.49203" lon="-0.727967">
        <ele>641</ele>
        <time>2019-04-19T06:59:51.000Z</time>
      </trkpt>
      <trkpt lat="38.492021" lon="-0.727995">
        <ele>640.399997155576</ele>
        <time>2019-04-19T06:59:52.000Z</time>
      </trkpt>
      <trkpt lat="38.492014" lon="-0.728025">
        <ele>640</ele>
        <time>2019-04-19T06:59:53.000Z</time>
      </trkpt>
      <trkpt lat="38.492006" lon="-0.728053">
        <ele>639.366334626011</ele>
        <time>2019-04-19T06:59:54.000Z</time>
      </trkpt>
      <trkpt lat="38.491998" lon="-0.728084">
        <ele>639</ele>
        <time>2019-04-19T06:59:55.000Z</time>
      </trkpt>
      <trkpt lat="38.491989" lon="-0.728112">
        <ele>639</ele>
        <time>2019-04-19T06:59:56.000Z</time>
      </trkpt>
      <trkpt lat="38.491982" lon="-0.72814">
        <ele>639</ele>
        <time>2019-04-19T06:59:57.000Z</time>
      </trkpt>
      <trkpt lat="38.491976" lon="-0.728167">
        <ele>639</ele>
        <time>2019-04-19T06:59:58.000Z</time>
      </trkpt>
      <trkpt lat="38.491971" lon="-0.728196">
        <ele>639</ele>
        <time>2019-04-19T06:59:59.000Z</time>
      </trkpt>
      <trkpt lat="38.491967" lon="-0.728228">
        <ele>638.428571428571</ele>
        <time>2019-04-19T07:00:00.000Z</time>
      </trkpt>
      <trkpt lat="38.491967" lon="-0.728263">
        <ele>638</ele>
        <time>2019-04-19T07:00:01.000Z</time>
      </trkpt>
      <trkpt lat="38.491969" lon="-0.728297">
        <ele>638</ele>
        <time>2019-04-19T07:00:02.000Z</time>
      </trkpt>
      <trkpt lat="38.491973" lon="-0.728329">
        <ele>638</ele>
        <time>2019-04-19T07:00:03.000Z</time>
      </trkpt>
      <trkpt lat="38.491977" lon="-0.728358">
        <ele>638</ele>
        <time>2019-04-19T07:00:04.000Z</time>
      </trkpt>
      <trkpt lat="38.491984" lon="-0.728389">
        <ele>638</ele>
        <time>2019-04-19T07:00:05.000Z</time>
      </trkpt>
      <trkpt lat="38.491992" lon="-0.728418">
        <ele>638</ele>
        <time>2019-04-19T07:00:06.000Z</time>
      </trkpt>
      <trkpt lat="38.492001" lon="-0.728449">
        <ele>638</ele>
        <time>2019-04-19T07:00:07.000Z</time>
      </trkpt>
      <trkpt lat="38.49201" lon="-0.728478">
        <ele>638</ele>
        <time>2019-04-19T07:00:08.000Z</time>
      </trkpt>
      <trkpt lat="38.492021" lon="-0.728506">
        <ele>638</ele>
        <time>2019-04-19T07:00:09.000Z</time>
      </trkpt>
      <trkpt lat="38.492035" lon="-0.72853">
        <ele>638</ele>
        <time>2019-04-19T07:00:10.000Z</time>
      </trkpt>
      <trkpt lat="38.49205" lon="-0.728558">
        <ele>638</ele>
        <time>2019-04-19T07:00:11.000Z</time>
      </trkpt>
      <trkpt lat="38.492065" lon="-0.728586">
        <ele>638</ele>
        <time>2019-04-19T07:00:12.000Z</time>
      </trkpt>
      <trkpt lat="38.492081" lon="-0.728612">
        <ele>638</ele>
        <time>2019-04-19T07:00:13.000Z</time>
      </trkpt>
      <trkpt lat="38.492102" lon="-0.728639">
        <ele>638</ele>
        <time>2019-04-19T07:00:14.000Z</time>
      </trkpt>
      <trkpt lat="38.492121" lon="-0.728662">
        <ele>637.372545082636</ele>
        <time>2019-04-19T07:00:15.000Z</time>
      </trkpt>
      <trkpt lat="38.492143" lon="-0.728681">
        <ele>637</ele>
        <time>2019-04-19T07:00:16.000Z</time>
      </trkpt>
      <trkpt lat="38.492161" lon="-0.728697">
        <ele>637</ele>
        <time>2019-04-19T07:00:17.000Z</time>
      </trkpt>
      <trkpt lat="38.492177" lon="-0.728713">
        <ele>637</ele>
        <time>2019-04-19T07:00:18.000Z</time>
      </trkpt>
      <trkpt lat="38.492196" lon="-0.728731">
        <ele>636.371135244982</ele>
        <time>2019-04-19T07:00:19.000Z</time>
      </trkpt>
      <trkpt lat="38.492215" lon="-0.72875">
        <ele>635.372552956531</ele>
        <time>2019-04-19T07:00:20.000Z</time>
      </trkpt>
      <trkpt lat="38.492236" lon="-0.728768">
        <ele>635</ele>
        <time>2019-04-19T07:00:21.000Z</time>
      </trkpt>
      <trkpt lat="38.492256" lon="-0.728786">
        <ele>634.412842312932</ele>
        <time>2019-04-19T07:00:22.000Z</time>
      </trkpt>
      <trkpt lat="38.492279" lon="-0.728804">
        <ele>634</ele>
        <time>2019-04-19T07:00:23.000Z</time>
      </trkpt>
      <trkpt lat="38.4923" lon="-0.728822">
        <ele>634</ele>
        <time>2019-04-19T07:00:24.000Z</time>
      </trkpt>
      <trkpt lat="38.492323" lon="-0.728841">
        <ele>634</ele>
        <time>2019-04-19T07:00:25.000Z</time>
      </trkpt>
      <trkpt lat="38.492345" lon="-0.728861">
        <ele>634</ele>
        <time>2019-04-19T07:00:26.000Z</time>
      </trkpt>
      <trkpt lat="38.49237" lon="-0.728879">
        <ele>634</ele>
        <time>2019-04-19T07:00:27.000Z</time>
      </trkpt>
      <trkpt lat="38.492395" lon="-0.728898">
        <ele>633.36</ele>
        <time>2019-04-19T07:00:28.000Z</time>
      </trkpt>
      <trkpt lat="38.492419" lon="-0.728917">
        <ele>633</ele>
        <time>2019-04-19T07:00:29.000Z</time>
      </trkpt>
      <trkpt lat="38.492441" lon="-0.728934">
        <ele>633</ele>
        <time>2019-04-19T07:00:30.000Z</time>
      </trkpt>
      <trkpt lat="38.492463" lon="-0.72895">
        <ele>632.412842312932</ele>
        <time>2019-04-19T07:00:31.000Z</time>
      </trkpt>
      <trkpt lat="38.492485" lon="-0.728967">
        <ele>632</ele>
        <time>2019-04-19T07:00:32.000Z</time>
      </trkpt>
      <trkpt lat="38.492506" lon="-0.728983">
        <ele>632</ele>
        <time>2019-04-19T07:00:33.000Z</time>
      </trkpt>
      <trkpt lat="38.492528" lon="-0.728997">
        <ele>632</ele>
        <time>2019-04-19T07:00:34.000Z</time>
      </trkpt>
      <trkpt lat="38.492552" lon="-0.729012">
        <ele>632</ele>
        <time>2019-04-19T07:00:35.000Z</time>
      </trkpt>
      <trkpt lat="38.492575" lon="-0.729031">
        <ele>632</ele>
        <time>2019-04-19T07:00:36.000Z</time>
      </trkpt>
      <trkpt lat="38.492596" lon="-0.72905">
        <ele>632</ele>
        <time>2019-04-19T07:00:37.000Z</time>
      </trkpt>
      <trkpt lat="38.492618" lon="-0.729069">
        <ele>632</ele>
        <time>2019-04-19T07:00:38.000Z</time>
      </trkpt>
      <trkpt lat="38.492639" lon="-0.729086">
        <ele>631.391304347826</ele>
        <time>2019-04-19T07:00:39.000Z</time>
      </trkpt>
      <trkpt lat="38.49266" lon="-0.729107">
        <ele>631</ele>
        <time>2019-04-19T07:00:40.000Z</time>
      </trkpt>
      <trkpt lat="38.492678" lon="-0.729128">
        <ele>631</ele>
        <time>2019-04-19T07:00:41.000Z</time>
      </trkpt>
      <trkpt lat="38.4927" lon="-0.72915">
        <ele>631</ele>
        <time>2019-04-19T07:00:42.000Z</time>
      </trkpt>
      <trkpt lat="38.492718" lon="-0.72917">
        <ele>631</ele>
        <time>2019-04-19T07:00:43.000Z</time>
      </trkpt>
      <trkpt lat="38.492735" lon="-0.729194">
        <ele>631</ele>
        <time>2019-04-19T07:00:44.000Z</time>
      </trkpt>
      <trkpt lat="38.492749" lon="-0.729219">
        <ele>631</ele>
        <time>2019-04-19T07:00:45.000Z</time>
      </trkpt>
      <trkpt lat="38.492761" lon="-0.729247">
        <ele>631</ele>
        <time>2019-04-19T07:00:46.000Z</time>
      </trkpt>
      <trkpt lat="38.492769" lon="-0.729274">
        <ele>631</ele>
        <time>2019-04-19T07:00:47.000Z</time>
      </trkpt>
      <trkpt lat="38.492776" lon="-0.729301">
        <ele>631</ele>
        <time>2019-04-19T07:00:48.000Z</time>
      </trkpt>
      <trkpt lat="38.492778" lon="-0.729331">
        <ele>631</ele>
        <time>2019-04-19T07:00:49.000Z</time>
      </trkpt>
      <trkpt lat="38.492775" lon="-0.72936">
        <ele>631</ele>
        <time>2019-04-19T07:00:50.000Z</time>
      </trkpt>
      <trkpt lat="38.492773" lon="-0.72939">
        <ele>631</ele>
        <time>2019-04-19T07:00:51.000Z</time>
      </trkpt>
      <trkpt lat="38.492767" lon="-0.729419">
        <ele>631</ele>
        <time>2019-04-19T07:00:52.000Z</time>
      </trkpt>
      <trkpt lat="38.492754" lon="-0.729444">
        <ele>631</ele>
        <time>2019-04-19T07:00:53.000Z</time>
      </trkpt>
      <trkpt lat="38.492741" lon="-0.729468">
        <ele>631</ele>
        <time>2019-04-19T07:00:54.000Z</time>
      </trkpt>
      <trkpt lat="38.492724" lon="-0.729495">
        <ele>631</ele>
        <time>2019-04-19T07:00:55.000Z</time>
      </trkpt>
      <trkpt lat="38.492711" lon="-0.729518">
        <ele>631</ele>
        <time>2019-04-19T07:00:56.000Z</time>
      </trkpt>
      <trkpt lat="38.492696" lon="-0.72954">
        <ele>631</ele>
        <time>2019-04-19T07:00:57.000Z</time>
      </trkpt>
      <trkpt lat="38.492683" lon="-0.729563">
        <ele>630.36</ele>
        <time>2019-04-19T07:00:58.000Z</time>
      </trkpt>
      <trkpt lat="38.492667" lon="-0.729586">
        <ele>630</ele>
        <time>2019-04-19T07:00:59.000Z</time>
      </trkpt>
      <trkpt lat="38.49265" lon="-0.729607">
        <ele>630.592592592593</ele>
        <time>2019-04-19T07:01:00.000Z</time>
      </trkpt>
      <trkpt lat="38.492633" lon="-0.729628">
        <ele>631</ele>
        <time>2019-04-19T07:01:01.000Z</time>
      </trkpt>
      <trkpt lat="38.492619" lon="-0.729647">
        <ele>631</ele>
        <time>2019-04-19T07:01:02.000Z</time>
      </trkpt>
      <trkpt lat="38.492603" lon="-0.729669">
        <ele>630.36</ele>
        <time>2019-04-19T07:01:03.000Z</time>
      </trkpt>
      <trkpt lat="38.492588" lon="-0.729691">
        <ele>630</ele>
        <time>2019-04-19T07:01:04.000Z</time>
      </trkpt>
      <trkpt lat="38.492571" lon="-0.729715">
        <ele>630</ele>
        <time>2019-04-19T07:01:05.000Z</time>
      </trkpt>
      <trkpt lat="38.492555" lon="-0.72974">
        <ele>630</ele>
        <time>2019-04-19T07:01:06.000Z</time>
      </trkpt>
      <trkpt lat="38.492542" lon="-0.729763">
        <ele>630</ele>
        <time>2019-04-19T07:01:07.000Z</time>
      </trkpt>
      <trkpt lat="38.492529" lon="-0.729786">
        <ele>630</ele>
        <time>2019-04-19T07:01:08.000Z</time>
      </trkpt>
      <trkpt lat="38.492517" lon="-0.729809">
        <ele>630</ele>
        <time>2019-04-19T07:01:09.000Z</time>
      </trkpt>
      <trkpt lat="38.492507" lon="-0.729835">
        <ele>629.372552956531</ele>
        <time>2019-04-19T07:01:10.000Z</time>
      </trkpt>
      <trkpt lat="38.492498" lon="-0.729855">
        <ele>629</ele>
        <time>2019-04-19T07:01:11.000Z</time>
      </trkpt>
      <trkpt lat="38.492491" lon="-0.729899">
        <ele>629</ele>
        <time>2019-04-19T07:01:13.000Z</time>
      </trkpt>
      <trkpt lat="38.492487" lon="-0.729924">
        <ele>629</ele>
        <time>2019-04-19T07:01:14.000Z</time>
      </trkpt>
      <trkpt lat="38.492485" lon="-0.729951">
        <ele>629</ele>
        <time>2019-04-19T07:01:15.000Z</time>
      </trkpt>
      <trkpt lat="38.492481" lon="-0.729979">
        <ele>628.384615384615</ele>
        <time>2019-04-19T07:01:16.000Z</time>
      </trkpt>
      <trkpt lat="38.492481" lon="-0.730008">
        <ele>628</ele>
        <time>2019-04-19T07:01:17.000Z</time>
      </trkpt>
      <trkpt lat="38.492481" lon="-0.730038">
        <ele>628</ele>
        <time>2019-04-19T07:01:18.000Z</time>
      </trkpt>
      <trkpt lat="38.492482" lon="-0.730068">
        <ele>628</ele>
        <time>2019-04-19T07:01:19.000Z</time>
      </trkpt>
      <trkpt lat="38.492483" lon="-0.730098">
        <ele>628</ele>
        <time>2019-04-19T07:01:20.000Z</time>
      </trkpt>
      <trkpt lat="38.492485" lon="-0.730127">
        <ele>628</ele>
        <time>2019-04-19T07:01:21.000Z</time>
      </trkpt>
      <trkpt lat="38.492486" lon="-0.730154">
        <ele>627.395603004473</ele>
        <time>2019-04-19T07:01:22.000Z</time>
      </trkpt>
      <trkpt lat="38.492488" lon="-0.730185">
        <ele>627</ele>
        <time>2019-04-19T07:01:23.000Z</time>
      </trkpt>
      <trkpt lat="38.492491" lon="-0.730219">
        <ele>627</ele>
        <time>2019-04-19T07:01:24.000Z</time>
      </trkpt>
      <trkpt lat="38.492497" lon="-0.730253">
        <ele>626.36363518825</ele>
        <time>2019-04-19T07:01:25.000Z</time>
      </trkpt>
      <trkpt lat="38.492499" lon="-0.730282">
        <ele>626</ele>
        <time>2019-04-19T07:01:26.000Z</time>
      </trkpt>
      <trkpt lat="38.492504" lon="-0.730314">
        <ele>625.36</ele>
        <time>2019-04-19T07:01:27.000Z</time>
      </trkpt>
      <trkpt lat="38.492503" lon="-0.730346">
        <ele>625</ele>
        <time>2019-04-19T07:01:28.000Z</time>
      </trkpt>
      <trkpt lat="38.492503" lon="-0.730379">
        <ele>625</ele>
        <time>2019-04-19T07:01:29.000Z</time>
      </trkpt>
      <trkpt lat="38.492502" lon="-0.730412">
        <ele>625</ele>
        <time>2019-04-19T07:01:30.000Z</time>
      </trkpt>
      <trkpt lat="38.492499" lon="-0.730445">
        <ele>625</ele>
        <time>2019-04-19T07:01:31.000Z</time>
      </trkpt>
      <trkpt lat="38.492494" lon="-0.730477">
        <ele>625</ele>
        <time>2019-04-19T07:01:32.000Z</time>
      </trkpt>
      <trkpt lat="38.492485" lon="-0.730508">
        <ele>625</ele>
        <time>2019-04-19T07:01:33.000Z</time>
      </trkpt>
      <trkpt lat="38.492471" lon="-0.730537">
        <ele>625</ele>
        <time>2019-04-19T07:01:34.000Z</time>
      </trkpt>
      <trkpt lat="38.492456" lon="-0.730565">
        <ele>625</ele>
        <time>2019-04-19T07:01:35.000Z</time>
      </trkpt>
      <trkpt lat="38.492442" lon="-0.730595">
        <ele>624.395603004473</ele>
        <time>2019-04-19T07:01:36.000Z</time>
      </trkpt>
      <trkpt lat="38.492431" lon="-0.730623">
        <ele>624</ele>
        <time>2019-04-19T07:01:37.000Z</time>
      </trkpt>
      <trkpt lat="38.492418" lon="-0.730649">
        <ele>624</ele>
        <time>2019-04-19T07:01:38.000Z</time>
      </trkpt>
      <trkpt lat="38.492406" lon="-0.730675">
        <ele>623.36363518825</ele>
        <time>2019-04-19T07:01:39.000Z</time>
      </trkpt>
      <trkpt lat="38.492394" lon="-0.730701">
        <ele>623</ele>
        <time>2019-04-19T07:01:40.000Z</time>
      </trkpt>
      <trkpt lat="38.492383" lon="-0.730729">
        <ele>623</ele>
        <time>2019-04-19T07:01:41.000Z</time>
      </trkpt>
      <trkpt lat="38.492369" lon="-0.730754">
        <ele>623</ele>
        <time>2019-04-19T07:01:42.000Z</time>
      </trkpt>
      <trkpt lat="38.492357" lon="-0.730784">
        <ele>623</ele>
        <time>2019-04-19T07:01:43.000Z</time>
      </trkpt>
      <trkpt lat="38.492347" lon="-0.730815">
        <ele>623</ele>
        <time>2019-04-19T07:01:44.000Z</time>
      </trkpt>
      <trkpt lat="38.492337" lon="-0.730845">
        <ele>622.412842312932</ele>
        <time>2019-04-19T07:01:45.000Z</time>
      </trkpt>
      <trkpt lat="38.492326" lon="-0.730873">
        <ele>622</ele>
        <time>2019-04-19T07:01:46.000Z</time>
      </trkpt>
      <trkpt lat="38.492315" lon="-0.7309">
        <ele>621.36</ele>
        <time>2019-04-19T07:01:47.000Z</time>
      </trkpt>
      <trkpt lat="38.492303" lon="-0.730931">
        <ele>621</ele>
        <time>2019-04-19T07:01:48.000Z</time>
      </trkpt>
      <trkpt lat="38.492296" lon="-0.730959">
        <ele>620.51145157508</ele>
        <time>2019-04-19T07:01:49.000Z</time>
      </trkpt>
      <trkpt lat="38.492288" lon="-0.73099">
        <ele>620</ele>
        <time>2019-04-19T07:01:50.000Z</time>
      </trkpt>
      <trkpt lat="38.492278" lon="-0.731018">
        <ele>620</ele>
        <time>2019-04-19T07:01:51.000Z</time>
      </trkpt>
      <trkpt lat="38.492266" lon="-0.731047">
        <ele>620</ele>
        <time>2019-04-19T07:01:52.000Z</time>
      </trkpt>
      <trkpt lat="38.492257" lon="-0.731077">
        <ele>620</ele>
        <time>2019-04-19T07:01:53.000Z</time>
      </trkpt>
      <trkpt lat="38.492248" lon="-0.731106">
        <ele>620</ele>
        <time>2019-04-19T07:01:54.000Z</time>
      </trkpt>
      <trkpt lat="38.492241" lon="-0.731135">
        <ele>619.36</ele>
        <time>2019-04-19T07:01:55.000Z</time>
      </trkpt>
      <trkpt lat="38.492232" lon="-0.731165">
        <ele>619</ele>
        <time>2019-04-19T07:01:56.000Z</time>
      </trkpt>
      <trkpt lat="38.49222" lon="-0.731195">
        <ele>619</ele>
        <time>2019-04-19T07:01:57.000Z</time>
      </trkpt>
      <trkpt lat="38.49221" lon="-0.731222">
        <ele>618.36363518825</ele>
        <time>2019-04-19T07:01:58.000Z</time>
      </trkpt>
      <trkpt lat="38.492199" lon="-0.731248">
        <ele>618</ele>
        <time>2019-04-19T07:01:59.000Z</time>
      </trkpt>
      <trkpt lat="38.492189" lon="-0.731277">
        <ele>618</ele>
        <time>2019-04-19T07:02:00.000Z</time>
      </trkpt>
      <trkpt lat="38.492182" lon="-0.731304">
        <ele>618</ele>
        <time>2019-04-19T07:02:01.000Z</time>
      </trkpt>
      <trkpt lat="38.492172" lon="-0.731326">
        <ele>618</ele>
        <time>2019-04-19T07:02:02.000Z</time>
      </trkpt>
      <trkpt lat="38.492164" lon="-0.731349">
        <ele>617.36363518825</ele>
        <time>2019-04-19T07:02:03.000Z</time>
      </trkpt>
      <trkpt lat="38.492154" lon="-0.731373">
        <ele>617</ele>
        <time>2019-04-19T07:02:04.000Z</time>
      </trkpt>
      <trkpt lat="38.492144" lon="-0.731397">
        <ele>617</ele>
        <time>2019-04-19T07:02:05.000Z</time>
      </trkpt>
      <trkpt lat="38.492136" lon="-0.73142">
        <ele>616.36</ele>
        <time>2019-04-19T07:02:06.000Z</time>
      </trkpt>
      <trkpt lat="38.492126" lon="-0.731444">
        <ele>615.366334626011</ele>
        <time>2019-04-19T07:02:07.000Z</time>
      </trkpt>
      <trkpt lat="38.492116" lon="-0.731467">
        <ele>615</ele>
        <time>2019-04-19T07:02:08.000Z</time>
      </trkpt>
      <trkpt lat="38.492104" lon="-0.731491">
        <ele>615</ele>
        <time>2019-04-19T07:02:09.000Z</time>
      </trkpt>
      <trkpt lat="38.492095" lon="-0.731514">
        <ele>615</ele>
        <time>2019-04-19T07:02:10.000Z</time>
      </trkpt>
      <trkpt lat="38.492088" lon="-0.73154">
        <ele>614.616767201404</ele>
        <time>2019-04-19T07:02:11.000Z</time>
      </trkpt>
      <trkpt lat="38.492082" lon="-0.731567">
        <ele>614.017965953598</ele>
        <time>2019-04-19T07:02:12.000Z</time>
      </trkpt>
      <trkpt lat="38.492078" lon="-0.731599">
        <ele>614</ele>
        <time>2019-04-19T07:02:13.000Z</time>
      </trkpt>
      <trkpt lat="38.492078" lon="-0.731634">
        <ele>614</ele>
        <time>2019-04-19T07:02:14.000Z</time>
      </trkpt>
      <trkpt lat="38.492078" lon="-0.731667">
        <ele>614</ele>
        <time>2019-04-19T07:02:15.000Z</time>
      </trkpt>
      <trkpt lat="38.492074" lon="-0.731699">
        <ele>614</ele>
        <time>2019-04-19T07:02:16.000Z</time>
      </trkpt>
      <trkpt lat="38.49207" lon="-0.731734">
        <ele>614</ele>
        <time>2019-04-19T07:02:17.000Z</time>
      </trkpt>
      <trkpt lat="38.49206" lon="-0.731831">
        <ele>613</ele>
        <time>2019-04-19T07:02:20.000Z</time>
      </trkpt>
      <trkpt lat="38.492054" lon="-0.731864">
        <ele>613</ele>
        <time>2019-04-19T07:02:21.000Z</time>
      </trkpt>
      <trkpt lat="38.492048" lon="-0.731894">
        <ele>613</ele>
        <time>2019-04-19T07:02:22.000Z</time>
      </trkpt>
      <trkpt lat="38.492046" lon="-0.731925">
        <ele>613</ele>
        <time>2019-04-19T07:02:23.000Z</time>
      </trkpt>
      <trkpt lat="38.492048" lon="-0.731958">
        <ele>613</ele>
        <time>2019-04-19T07:02:24.000Z</time>
      </trkpt>
      <trkpt lat="38.492051" lon="-0.731989">
        <ele>613</ele>
        <time>2019-04-19T07:02:25.000Z</time>
      </trkpt>
      <trkpt lat="38.492054" lon="-0.73202">
        <ele>612.366334626011</ele>
        <time>2019-04-19T07:02:26.000Z</time>
      </trkpt>
      <trkpt lat="38.492056" lon="-0.732053">
        <ele>612</ele>
        <time>2019-04-19T07:02:27.000Z</time>
      </trkpt>
      <trkpt lat="38.49206" lon="-0.732088">
        <ele>612</ele>
        <time>2019-04-19T07:02:28.000Z</time>
      </trkpt>
      <trkpt lat="38.492066" lon="-0.732121">
        <ele>612</ele>
        <time>2019-04-19T07:02:29.000Z</time>
      </trkpt>
      <trkpt lat="38.492072" lon="-0.732154">
        <ele>612</ele>
        <time>2019-04-19T07:02:30.000Z</time>
      </trkpt>
      <trkpt lat="38.492078" lon="-0.732189">
        <ele>612</ele>
        <time>2019-04-19T07:02:31.000Z</time>
      </trkpt>
      <trkpt lat="38.492084" lon="-0.732224">
        <ele>612</ele>
        <time>2019-04-19T07:02:32.000Z</time>
      </trkpt>
      <trkpt lat="38.492092" lon="-0.732255">
        <ele>611.409090909091</ele>
        <time>2019-04-19T07:02:33.000Z</time>
      </trkpt>
      <trkpt lat="38.4921" lon="-0.732284">
        <ele>611</ele>
        <time>2019-04-19T07:02:34.000Z</time>
      </trkpt>
      <trkpt lat="38.492108" lon="-0.732318">
        <ele>611</ele>
        <time>2019-04-19T07:02:35.000Z</time>
      </trkpt>
      <trkpt lat="38.492116" lon="-0.732354">
        <ele>611</ele>
        <time>2019-04-19T07:02:36.000Z</time>
      </trkpt>
      <trkpt lat="38.492126" lon="-0.732389">
        <ele>611</ele>
        <time>2019-04-19T07:02:37.000Z</time>
      </trkpt>
      <trkpt lat="38.492136" lon="-0.73242">
        <ele>611</ele>
        <time>2019-04-19T07:02:38.000Z</time>
      </trkpt>
      <trkpt lat="38.492164" lon="-0.732541">
        <ele>611</ele>
        <time>2019-04-19T07:02:42.000Z</time>
      </trkpt>
      <trkpt lat="38.49217" lon="-0.732678">
        <ele>610</ele>
        <time>2019-04-19T07:02:46.000Z</time>
      </trkpt>
      <trkpt lat="38.492136" lon="-0.732768">
        <ele>609</ele>
        <time>2019-04-19T07:02:50.000Z</time>
      </trkpt>
      <trkpt lat="38.492118" lon="-0.732784">
        <ele>609</ele>
        <time>2019-04-19T07:02:51.000Z</time>
      </trkpt>
      <trkpt lat="38.4921" lon="-0.732798">
        <ele>609</ele>
        <time>2019-04-19T07:02:52.000Z</time>
      </trkpt>
      <trkpt lat="38.49208" lon="-0.732814">
        <ele>608.372545082636</ele>
        <time>2019-04-19T07:02:53.000Z</time>
      </trkpt>
      <trkpt lat="38.49206" lon="-0.732823">
        <ele>607.367344539791</ele>
        <time>2019-04-19T07:02:54.000Z</time>
      </trkpt>
      <trkpt lat="38.49204" lon="-0.732829">
        <ele>607</ele>
        <time>2019-04-19T07:02:55.000Z</time>
      </trkpt>
      <trkpt lat="38.492017" lon="-0.732834">
        <ele>607</ele>
        <time>2019-04-19T07:02:56.000Z</time>
      </trkpt>
      <trkpt lat="38.491992" lon="-0.73284">
        <ele>607</ele>
        <time>2019-04-19T07:02:57.000Z</time>
      </trkpt>
      <trkpt lat="38.49197" lon="-0.732847">
        <ele>607</ele>
        <time>2019-04-19T07:02:58.000Z</time>
      </trkpt>
      <trkpt lat="38.491944" lon="-0.732852">
        <ele>607</ele>
        <time>2019-04-19T07:02:59.000Z</time>
      </trkpt>
      <trkpt lat="38.491924" lon="-0.732863">
        <ele>607</ele>
        <time>2019-04-19T07:03:00.000Z</time>
      </trkpt>
      <trkpt lat="38.491901" lon="-0.732875">
        <ele>607</ele>
        <time>2019-04-19T07:03:01.000Z</time>
      </trkpt>
      <trkpt lat="38.491879" lon="-0.732884">
        <ele>607</ele>
        <time>2019-04-19T07:03:02.000Z</time>
      </trkpt>
      <trkpt lat="38.491838" lon="-0.732918">
        <ele>607</ele>
        <time>2019-04-19T07:03:04.000Z</time>
      </trkpt>
      <trkpt lat="38.491779" lon="-0.732969">
        <ele>605.36</ele>
        <time>2019-04-19T07:03:07.000Z</time>
      </trkpt>
      <trkpt lat="38.491755" lon="-0.732981">
        <ele>605</ele>
        <time>2019-04-19T07:03:08.000Z</time>
      </trkpt>
      <trkpt lat="38.491736" lon="-0.732991">
        <ele>605</ele>
        <time>2019-04-19T07:03:09.000Z</time>
      </trkpt>
      <trkpt lat="38.491714" lon="-0.733001">
        <ele>605</ele>
        <time>2019-04-19T07:03:10.000Z</time>
      </trkpt>
      <trkpt lat="38.491691" lon="-0.733011">
        <ele>605</ele>
        <time>2019-04-19T07:03:11.000Z</time>
      </trkpt>
      <trkpt lat="38.491668" lon="-0.733018">
        <ele>605</ele>
        <time>2019-04-19T07:03:12.000Z</time>
      </trkpt>
      <trkpt lat="38.491645" lon="-0.733031">
        <ele>605</ele>
        <time>2019-04-19T07:03:13.000Z</time>
      </trkpt>
      <trkpt lat="38.491625" lon="-0.733045">
        <ele>605</ele>
        <time>2019-04-19T07:03:14.000Z</time>
      </trkpt>
      <trkpt lat="38.491604" lon="-0.733061">
        <ele>605</ele>
        <time>2019-04-19T07:03:15.000Z</time>
      </trkpt>
      <trkpt lat="38.491584" lon="-0.733077">
        <ele>605</ele>
        <time>2019-04-19T07:03:16.000Z</time>
      </trkpt>
      <trkpt lat="38.491564" lon="-0.733093">
        <ele>605</ele>
        <time>2019-04-19T07:03:17.000Z</time>
      </trkpt>
      <trkpt lat="38.491546" lon="-0.733109">
        <ele>605</ele>
        <time>2019-04-19T07:03:18.000Z</time>
      </trkpt>
      <trkpt lat="38.491524" lon="-0.733125">
        <ele>605</ele>
        <time>2019-04-19T07:03:19.000Z</time>
      </trkpt>
      <trkpt lat="38.491503" lon="-0.733145">
        <ele>604.36</ele>
        <time>2019-04-19T07:03:20.000Z</time>
      </trkpt>
      <trkpt lat="38.49148" lon="-0.733167">
        <ele>604</ele>
        <time>2019-04-19T07:03:21.000Z</time>
      </trkpt>
      <trkpt lat="38.491463" lon="-0.733196">
        <ele>604</ele>
        <time>2019-04-19T07:03:22.000Z</time>
      </trkpt>
      <trkpt lat="38.491445" lon="-0.73322">
        <ele>604</ele>
        <time>2019-04-19T07:03:23.000Z</time>
      </trkpt>
      <trkpt lat="38.491428" lon="-0.733246">
        <ele>604</ele>
        <time>2019-04-19T07:03:24.000Z</time>
      </trkpt>
      <trkpt lat="38.491417" lon="-0.733277">
        <ele>604</ele>
        <time>2019-04-19T07:03:25.000Z</time>
      </trkpt>
      <trkpt lat="38.491407" lon="-0.733306">
        <ele>604</ele>
        <time>2019-04-19T07:03:26.000Z</time>
      </trkpt>
      <trkpt lat="38.491403" lon="-0.733339">
        <ele>603.553723117284</ele>
        <time>2019-04-19T07:03:27.000Z</time>
      </trkpt>
      <trkpt lat="38.491398" lon="-0.733371">
        <ele>603</ele>
        <time>2019-04-19T07:03:28.000Z</time>
      </trkpt>
      <trkpt lat="38.491393" lon="-0.733403">
        <ele>603</ele>
        <time>2019-04-19T07:03:29.000Z</time>
      </trkpt>
      <trkpt lat="38.491389" lon="-0.733434">
        <ele>603</ele>
        <time>2019-04-19T07:03:30.000Z</time>
      </trkpt>
      <trkpt lat="38.491386" lon="-0.733464">
        <ele>603</ele>
        <time>2019-04-19T07:03:31.000Z</time>
      </trkpt>
      <trkpt lat="38.491386" lon="-0.733494">
        <ele>603</ele>
        <time>2019-04-19T07:03:32.000Z</time>
      </trkpt>
      <trkpt lat="38.491386" lon="-0.733522">
        <ele>603</ele>
        <time>2019-04-19T07:03:33.000Z</time>
      </trkpt>
      <trkpt lat="38.491387" lon="-0.733553">
        <ele>603</ele>
        <time>2019-04-19T07:03:34.000Z</time>
      </trkpt>
      <trkpt lat="38.491386" lon="-0.733581">
        <ele>603</ele>
        <time>2019-04-19T07:03:35.000Z</time>
      </trkpt>
      <trkpt lat="38.491388" lon="-0.73361">
        <ele>603</ele>
        <time>2019-04-19T07:03:36.000Z</time>
      </trkpt>
      <trkpt lat="38.491389" lon="-0.733638">
        <ele>603</ele>
        <time>2019-04-19T07:03:37.000Z</time>
      </trkpt>
      <trkpt lat="38.491387" lon="-0.733668">
        <ele>603</ele>
        <time>2019-04-19T07:03:38.000Z</time>
      </trkpt>
      <trkpt lat="38.491385" lon="-0.733701">
        <ele>603</ele>
        <time>2019-04-19T07:03:39.000Z</time>
      </trkpt>
      <trkpt lat="38.491382" lon="-0.733728">
        <ele>603</ele>
        <time>2019-04-19T07:03:40.000Z</time>
      </trkpt>
      <trkpt lat="38.491381" lon="-0.733761">
        <ele>603</ele>
        <time>2019-04-19T07:03:41.000Z</time>
      </trkpt>
      <trkpt lat="38.491382" lon="-0.73379">
        <ele>602.412842312932</ele>
        <time>2019-04-19T07:03:42.000Z</time>
      </trkpt>
      <trkpt lat="38.491381" lon="-0.733821">
        <ele>602</ele>
        <time>2019-04-19T07:03:43.000Z</time>
      </trkpt>
      <trkpt lat="38.491379" lon="-0.733851">
        <ele>601.36</ele>
        <time>2019-04-19T07:03:44.000Z</time>
      </trkpt>
      <trkpt lat="38.491378" lon="-0.733883">
        <ele>601</ele>
        <time>2019-04-19T07:03:45.000Z</time>
      </trkpt>
      <trkpt lat="38.491377" lon="-0.733915">
        <ele>601</ele>
        <time>2019-04-19T07:03:46.000Z</time>
      </trkpt>
      <trkpt lat="38.491374" lon="-0.733947">
        <ele>601</ele>
        <time>2019-04-19T07:03:47.000Z</time>
      </trkpt>
      <trkpt lat="38.491371" lon="-0.73398">
        <ele>601</ele>
        <time>2019-04-19T07:03:48.000Z</time>
      </trkpt>
      <trkpt lat="38.491367" lon="-0.734013">
        <ele>601</ele>
        <time>2019-04-19T07:03:49.000Z</time>
      </trkpt>
      <trkpt lat="38.491366" lon="-0.734046">
        <ele>601</ele>
        <time>2019-04-19T07:03:50.000Z</time>
      </trkpt>
      <trkpt lat="38.491364" lon="-0.73408">
        <ele>600.366334626011</ele>
        <time>2019-04-19T07:03:51.000Z</time>
      </trkpt>
      <trkpt lat="38.491365" lon="-0.734106">
        <ele>600</ele>
        <time>2019-04-19T07:03:52.000Z</time>
      </trkpt>
      <trkpt lat="38.491374" lon="-0.734133">
        <ele>600</ele>
        <time>2019-04-19T07:03:59.000Z</time>
      </trkpt>
      <trkpt lat="38.491375" lon="-0.73416">
        <ele>600</ele>
        <time>2019-04-19T07:04:01.000Z</time>
      </trkpt>
      <trkpt lat="38.491373" lon="-0.734196">
        <ele>600</ele>
        <time>2019-04-19T07:04:03.000Z</time>
      </trkpt>
      <trkpt lat="38.49137" lon="-0.73422">
        <ele>599.371135244982</ele>
        <time>2019-04-19T07:04:04.000Z</time>
      </trkpt>
      <trkpt lat="38.491365" lon="-0.734243">
        <ele>599</ele>
        <time>2019-04-19T07:04:05.000Z</time>
      </trkpt>
      <trkpt lat="38.491364" lon="-0.734271">
        <ele>599</ele>
        <time>2019-04-19T07:04:06.000Z</time>
      </trkpt>
      <trkpt lat="38.491362" lon="-0.734299">
        <ele>598.375</ele>
        <time>2019-04-19T07:04:07.000Z</time>
      </trkpt>
      <trkpt lat="38.491359" lon="-0.734326">
        <ele>597.36</ele>
        <time>2019-04-19T07:04:08.000Z</time>
      </trkpt>
      <trkpt lat="38.491354" lon="-0.734356">
        <ele>597</ele>
        <time>2019-04-19T07:04:09.000Z</time>
      </trkpt>
      <trkpt lat="38.491352" lon="-0.734385">
        <ele>597</ele>
        <time>2019-04-19T07:04:10.000Z</time>
      </trkpt>
      <trkpt lat="38.491351" lon="-0.734416">
        <ele>597</ele>
        <time>2019-04-19T07:04:11.000Z</time>
      </trkpt>
      <trkpt lat="38.491349" lon="-0.734447">
        <ele>597</ele>
        <time>2019-04-19T07:04:12.000Z</time>
      </trkpt>
      <trkpt lat="38.491346" lon="-0.734478">
        <ele>597</ele>
        <time>2019-04-19T07:04:13.000Z</time>
      </trkpt>
      <trkpt lat="38.491347" lon="-0.734514">
        <ele>597</ele>
        <time>2019-04-19T07:04:14.000Z</time>
      </trkpt>
      <trkpt lat="38.491348" lon="-0.734551">
        <ele>597</ele>
        <time>2019-04-19T07:04:15.000Z</time>
      </trkpt>
      <trkpt lat="38.49135" lon="-0.734581">
        <ele>596.409090909091</ele>
        <time>2019-04-19T07:04:16.000Z</time>
      </trkpt>
      <trkpt lat="38.49135" lon="-0.73461">
        <ele>596</ele>
        <time>2019-04-19T07:04:17.000Z</time>
      </trkpt>
      <trkpt lat="38.491349" lon="-0.73464">
        <ele>596</ele>
        <time>2019-04-19T07:04:18.000Z</time>
      </trkpt>
      <trkpt lat="38.491349" lon="-0.734673">
        <ele>596</ele>
        <time>2019-04-19T07:04:19.000Z</time>
      </trkpt>
      <trkpt lat="38.49135" lon="-0.734705">
        <ele>596</ele>
        <time>2019-04-19T07:04:20.000Z</time>
      </trkpt>
      <trkpt lat="38.491351" lon="-0.734735">
        <ele>596</ele>
        <time>2019-04-19T07:04:21.000Z</time>
      </trkpt>
      <trkpt lat="38.491354" lon="-0.734765">
        <ele>596</ele>
        <time>2019-04-19T07:04:22.000Z</time>
      </trkpt>
      <trkpt lat="38.491357" lon="-0.734791">
        <ele>596</ele>
        <time>2019-04-19T07:04:23.000Z</time>
      </trkpt>
      <trkpt lat="38.491359" lon="-0.734821">
        <ele>596</ele>
        <time>2019-04-19T07:04:24.000Z</time>
      </trkpt>
      <trkpt lat="38.491359" lon="-0.734852">
        <ele>596</ele>
        <time>2019-04-19T07:04:25.000Z</time>
      </trkpt>
      <trkpt lat="38.491359" lon="-0.734882">
        <ele>594.72</ele>
        <time>2019-04-19T07:04:26.000Z</time>
      </trkpt>
      <trkpt lat="38.491359" lon="-0.734911">
        <ele>593.36</ele>
        <time>2019-04-19T07:04:27.000Z</time>
      </trkpt>
      <trkpt lat="38.491357" lon="-0.734945">
        <ele>593</ele>
        <time>2019-04-19T07:04:28.000Z</time>
      </trkpt>
      <trkpt lat="38.491357" lon="-0.734975">
        <ele>593.64</ele>
        <time>2019-04-19T07:04:29.000Z</time>
      </trkpt>
      <trkpt lat="38.491359" lon="-0.735006">
        <ele>594</ele>
        <time>2019-04-19T07:04:30.000Z</time>
      </trkpt>
      <trkpt lat="38.491361" lon="-0.735036">
        <ele>594</ele>
        <time>2019-04-19T07:04:31.000Z</time>
      </trkpt>
      <trkpt lat="38.491365" lon="-0.735069">
        <ele>593.33334913599</ele>
        <time>2019-04-19T07:04:32.000Z</time>
      </trkpt>
      <trkpt lat="38.491368" lon="-0.735101">
        <ele>591.384615384615</ele>
        <time>2019-04-19T07:04:33.000Z</time>
      </trkpt>
      <trkpt lat="38.49137" lon="-0.73513">
        <ele>591</ele>
        <time>2019-04-19T07:04:34.000Z</time>
      </trkpt>
      <trkpt lat="38.49137" lon="-0.735161">
        <ele>591</ele>
        <time>2019-04-19T07:04:35.000Z</time>
      </trkpt>
      <trkpt lat="38.491372" lon="-0.73519">
        <ele>591</ele>
        <time>2019-04-19T07:04:36.000Z</time>
      </trkpt>
      <trkpt lat="38.491374" lon="-0.73522">
        <ele>590.36</ele>
        <time>2019-04-19T07:04:37.000Z</time>
      </trkpt>
      <trkpt lat="38.491372" lon="-0.735252">
        <ele>590</ele>
        <time>2019-04-19T07:04:38.000Z</time>
      </trkpt>
      <trkpt lat="38.491371" lon="-0.735285">
        <ele>590</ele>
        <time>2019-04-19T07:04:39.000Z</time>
      </trkpt>
      <trkpt lat="38.49137" lon="-0.735319">
        <ele>590</ele>
        <time>2019-04-19T07:04:40.000Z</time>
      </trkpt>
      <trkpt lat="38.491367" lon="-0.73535">
        <ele>590</ele>
        <time>2019-04-19T07:04:41.000Z</time>
      </trkpt>
      <trkpt lat="38.491365" lon="-0.735386">
        <ele>589.518795834697</ele>
        <time>2019-04-19T07:04:42.000Z</time>
      </trkpt>
      <trkpt lat="38.491363" lon="-0.735419">
        <ele>589</ele>
        <time>2019-04-19T07:04:43.000Z</time>
      </trkpt>
      <trkpt lat="38.491358" lon="-0.735453">
        <ele>589</ele>
        <time>2019-04-19T07:04:44.000Z</time>
      </trkpt>
      <trkpt lat="38.491355" lon="-0.735487">
        <ele>588.36</ele>
        <time>2019-04-19T07:04:45.000Z</time>
      </trkpt>
      <trkpt lat="38.491351" lon="-0.735519">
        <ele>588</ele>
        <time>2019-04-19T07:04:46.000Z</time>
      </trkpt>
      <trkpt lat="38.491346" lon="-0.735548">
        <ele>588</ele>
        <time>2019-04-19T07:04:47.000Z</time>
      </trkpt>
      <trkpt lat="38.491335" lon="-0.735571">
        <ele>588</ele>
        <time>2019-04-19T07:04:48.000Z</time>
      </trkpt>
      <trkpt lat="38.491318" lon="-0.735594">
        <ele>588</ele>
        <time>2019-04-19T07:04:49.000Z</time>
      </trkpt>
      <trkpt lat="38.491301" lon="-0.735615">
        <ele>588</ele>
        <time>2019-04-19T07:04:50.000Z</time>
      </trkpt>
      <trkpt lat="38.491284" lon="-0.735632">
        <ele>588</ele>
        <time>2019-04-19T07:04:51.000Z</time>
      </trkpt>
      <trkpt lat="38.491267" lon="-0.735646">
        <ele>587.36363518825</ele>
        <time>2019-04-19T07:04:52.000Z</time>
      </trkpt>
      <trkpt lat="38.491245" lon="-0.735654">
        <ele>587</ele>
        <time>2019-04-19T07:04:53.000Z</time>
      </trkpt>
      <trkpt lat="38.491223" lon="-0.735658">
        <ele>587</ele>
        <time>2019-04-19T07:04:54.000Z</time>
      </trkpt>
      <trkpt lat="38.491201" lon="-0.735658">
        <ele>587</ele>
        <time>2019-04-19T07:04:55.000Z</time>
      </trkpt>
      <trkpt lat="38.491182" lon="-0.735657">
        <ele>587</ele>
        <time>2019-04-19T07:04:56.000Z</time>
      </trkpt>
      <trkpt lat="38.491161" lon="-0.735648">
        <ele>587</ele>
        <time>2019-04-19T07:04:58.000Z</time>
      </trkpt>
      <trkpt lat="38.491131" lon="-0.735641">
        <ele>587</ele>
        <time>2019-04-19T07:05:03.000Z</time>
      </trkpt>
      <trkpt lat="38.491158" lon="-0.73564">
        <ele>587</ele>
        <time>2019-04-19T07:05:06.000Z</time>
      </trkpt>
      <trkpt lat="38.491131" lon="-0.735634">
        <ele>587</ele>
        <time>2019-04-19T07:05:53.000Z</time>
      </trkpt>
      <trkpt lat="38.49117" lon="-0.735645">
        <ele>587</ele>
        <time>2019-04-19T07:07:09.000Z</time>
      </trkpt>
      <trkpt lat="38.491082" lon="-0.73562">
        <ele>586.537310866575</ele>
        <time>2019-04-19T07:07:17.000Z</time>
      </trkpt>
      <trkpt lat="38.49106" lon="-0.735606">
        <ele>586</ele>
        <time>2019-04-19T07:07:18.000Z</time>
      </trkpt>
      <trkpt lat="38.491042" lon="-0.735601">
        <ele>586</ele>
        <time>2019-04-19T07:07:19.000Z</time>
      </trkpt>
      <trkpt lat="38.491021" lon="-0.735604">
        <ele>587</ele>
        <time>2019-04-19T07:07:24.000Z</time>
      </trkpt>
      <trkpt lat="38.490998" lon="-0.735592">
        <ele>587</ele>
        <time>2019-04-19T07:07:26.000Z</time>
      </trkpt>
      <trkpt lat="38.490977" lon="-0.735583">
        <ele>587</ele>
        <time>2019-04-19T07:07:27.000Z</time>
      </trkpt>
      <trkpt lat="38.490951" lon="-0.735581">
        <ele>587</ele>
        <time>2019-04-19T07:07:28.000Z</time>
      </trkpt>
      <trkpt lat="38.490922" lon="-0.735578">
        <ele>587</ele>
        <time>2019-04-19T07:07:29.000Z</time>
      </trkpt>
      <trkpt lat="38.490892" lon="-0.735585">
        <ele>587</ele>
        <time>2019-04-19T07:07:30.000Z</time>
      </trkpt>
      <trkpt lat="38.490864" lon="-0.7356">
        <ele>586.418178433038</ele>
        <time>2019-04-19T07:07:31.000Z</time>
      </trkpt>
      <trkpt lat="38.49084" lon="-0.73562">
        <ele>586</ele>
        <time>2019-04-19T07:07:32.000Z</time>
      </trkpt>
      <trkpt lat="38.490823" lon="-0.735646">
        <ele>586</ele>
        <time>2019-04-19T07:07:33.000Z</time>
      </trkpt>
      <trkpt lat="38.490813" lon="-0.735679">
        <ele>585.515151515152</ele>
        <time>2019-04-19T07:07:34.000Z</time>
      </trkpt>
      <trkpt lat="38.490804" lon="-0.735711">
        <ele>585</ele>
        <time>2019-04-19T07:07:35.000Z</time>
      </trkpt>
      <trkpt lat="38.490799" lon="-0.735741">
        <ele>585</ele>
        <time>2019-04-19T07:07:36.000Z</time>
      </trkpt>
      <trkpt lat="38.490797" lon="-0.735774">
        <ele>585</ele>
        <time>2019-04-19T07:07:37.000Z</time>
      </trkpt>
      <trkpt lat="38.490797" lon="-0.735809">
        <ele>585</ele>
        <time>2019-04-19T07:07:38.000Z</time>
      </trkpt>
      <trkpt lat="38.4908" lon="-0.735843">
        <ele>585</ele>
        <time>2019-04-19T07:07:39.000Z</time>
      </trkpt>
      <trkpt lat="38.490804" lon="-0.735876">
        <ele>585</ele>
        <time>2019-04-19T07:07:40.000Z</time>
      </trkpt>
      <trkpt lat="38.49081" lon="-0.73591">
        <ele>585</ele>
        <time>2019-04-19T07:07:41.000Z</time>
      </trkpt>
      <trkpt lat="38.490816" lon="-0.735941">
        <ele>585</ele>
        <time>2019-04-19T07:07:42.000Z</time>
      </trkpt>
      <trkpt lat="38.49082" lon="-0.735969">
        <ele>584.36</ele>
        <time>2019-04-19T07:07:43.000Z</time>
      </trkpt>
      <trkpt lat="38.490823" lon="-0.736001">
        <ele>584</ele>
        <time>2019-04-19T07:07:44.000Z</time>
      </trkpt>
      <trkpt lat="38.490828" lon="-0.736098">
        <ele>584</ele>
        <time>2019-04-19T07:07:47.000Z</time>
      </trkpt>
      <trkpt lat="38.490829" lon="-0.736135">
        <ele>583.36363518825</ele>
        <time>2019-04-19T07:07:48.000Z</time>
      </trkpt>
      <trkpt lat="38.490842" lon="-0.73621">
        <ele>582</ele>
        <time>2019-04-19T07:07:51.000Z</time>
      </trkpt>
      <trkpt lat="38.490847" lon="-0.736233">
        <ele>581.36</ele>
        <time>2019-04-19T07:07:52.000Z</time>
      </trkpt>
      <trkpt lat="38.490865" lon="-0.73637">
        <ele>580</ele>
        <time>2019-04-19T07:07:57.000Z</time>
      </trkpt>
      <trkpt lat="38.490896" lon="-0.736481">
        <ele>580</ele>
        <time>2019-04-19T07:08:01.000Z</time>
      </trkpt>
      <trkpt lat="38.490942" lon="-0.736585">
        <ele>580</ele>
        <time>2019-04-19T07:08:05.000Z</time>
      </trkpt>
      <trkpt lat="38.490913" lon="-0.736716">
        <ele>579</ele>
        <time>2019-04-19T07:08:09.000Z</time>
      </trkpt>
      <trkpt lat="38.490841" lon="-0.736794">
        <ele>579</ele>
        <time>2019-04-19T07:08:13.000Z</time>
      </trkpt>
      <trkpt lat="38.490782" lon="-0.736845">
        <ele>579</ele>
        <time>2019-04-19T07:08:16.000Z</time>
      </trkpt>
      <trkpt lat="38.490763" lon="-0.73686">
        <ele>579</ele>
        <time>2019-04-19T07:08:17.000Z</time>
      </trkpt>
      <trkpt lat="38.490747" lon="-0.73687">
        <ele>579</ele>
        <time>2019-04-19T07:08:18.000Z</time>
      </trkpt>
      <trkpt lat="38.490729" lon="-0.73688">
        <ele>579</ele>
        <time>2019-04-19T07:08:19.000Z</time>
      </trkpt>
      <trkpt lat="38.490705" lon="-0.736918">
        <ele>579</ele>
        <time>2019-04-19T07:08:21.000Z</time>
      </trkpt>
      <trkpt lat="38.490691" lon="-0.736942">
        <ele>579</ele>
        <time>2019-04-19T07:08:22.000Z</time>
      </trkpt>
      <trkpt lat="38.490677" lon="-0.736963">
        <ele>579.372876575619</ele>
        <time>2019-04-19T07:08:23.000Z</time>
      </trkpt>
      <trkpt lat="38.490658" lon="-0.736984">
        <ele>580</ele>
        <time>2019-04-19T07:08:24.000Z</time>
      </trkpt>
      <trkpt lat="38.490639" lon="-0.737002">
        <ele>580</ele>
        <time>2019-04-19T07:08:25.000Z</time>
      </trkpt>
      <trkpt lat="38.490624" lon="-0.737022">
        <ele>580</ele>
        <time>2019-04-19T07:08:26.000Z</time>
      </trkpt>
      <trkpt lat="38.490613" lon="-0.737044">
        <ele>580</ele>
        <time>2019-04-19T07:08:27.000Z</time>
      </trkpt>
      <trkpt lat="38.490593" lon="-0.737071">
        <ele>581</ele>
        <time>2019-04-19T07:08:29.000Z</time>
      </trkpt>
      <trkpt lat="38.490589" lon="-0.737038">
        <ele>582.621053908029</ele>
        <time>2019-04-19T07:08:34.000Z</time>
      </trkpt>
      <trkpt lat="38.490591" lon="-0.736998">
        <ele>583</ele>
        <time>2019-04-19T07:08:36.000Z</time>
      </trkpt>
      <trkpt lat="38.490593" lon="-0.736962">
        <ele>584</ele>
        <time>2019-04-19T07:08:38.000Z</time>
      </trkpt>
      <trkpt lat="38.4906" lon="-0.736925">
        <ele>584</ele>
        <time>2019-04-19T07:08:40.000Z</time>
      </trkpt>
      <trkpt lat="38.49061" lon="-0.736887">
        <ele>585</ele>
        <time>2019-04-19T07:08:42.000Z</time>
      </trkpt>
      <trkpt lat="38.490606" lon="-0.736845">
        <ele>585.621053908029</ele>
        <time>2019-04-19T07:08:44.000Z</time>
      </trkpt>
      <trkpt lat="38.490598" lon="-0.736811">
        <ele>586</ele>
        <time>2019-04-19T07:08:46.000Z</time>
      </trkpt>
      <trkpt lat="38.490592" lon="-0.73678">
        <ele>586</ele>
        <time>2019-04-19T07:08:48.000Z</time>
      </trkpt>
      <trkpt lat="38.490589" lon="-0.736751">
        <ele>586.441380284425</ele>
        <time>2019-04-19T07:08:50.000Z</time>
      </trkpt>
      <trkpt lat="38.490581" lon="-0.736718">
        <ele>587</ele>
        <time>2019-04-19T07:08:52.000Z</time>
      </trkpt>
      <trkpt lat="38.490578" lon="-0.736692">
        <ele>587</ele>
        <time>2019-04-19T07:08:54.000Z</time>
      </trkpt>
      <trkpt lat="38.490573" lon="-0.736661">
        <ele>587</ele>
        <time>2019-04-19T07:08:56.000Z</time>
      </trkpt>
      <trkpt lat="38.490568" lon="-0.736629">
        <ele>588</ele>
        <time>2019-04-19T07:08:58.000Z</time>
      </trkpt>
      <trkpt lat="38.490565" lon="-0.736596">
        <ele>588</ele>
        <time>2019-04-19T07:09:00.000Z</time>
      </trkpt>
      <trkpt lat="38.490562" lon="-0.736564">
        <ele>588</ele>
        <time>2019-04-19T07:09:02.000Z</time>
      </trkpt>
      <trkpt lat="38.490557" lon="-0.736533">
        <ele>588</ele>
        <time>2019-04-19T07:09:04.000Z</time>
      </trkpt>
      <trkpt lat="38.490555" lon="-0.736499">
        <ele>589</ele>
        <time>2019-04-19T07:09:06.000Z</time>
      </trkpt>
      <trkpt lat="38.490558" lon="-0.736466">
        <ele>589</ele>
        <time>2019-04-19T07:09:08.000Z</time>
      </trkpt>
      <trkpt lat="38.490553" lon="-0.736435">
        <ele>590</ele>
        <time>2019-04-19T07:09:10.000Z</time>
      </trkpt>
      <trkpt lat="38.490546" lon="-0.736403">
        <ele>590</ele>
        <time>2019-04-19T07:09:12.000Z</time>
      </trkpt>
      <trkpt lat="38.490539" lon="-0.736363">
        <ele>590.587157687068</ele>
        <time>2019-04-19T07:09:14.000Z</time>
      </trkpt>
      <trkpt lat="38.490528" lon="-0.736325">
        <ele>591</ele>
        <time>2019-04-19T07:09:16.000Z</time>
      </trkpt>
      <trkpt lat="38.490514" lon="-0.736297">
        <ele>591</ele>
        <time>2019-04-19T07:09:18.000Z</time>
      </trkpt>
      <trkpt lat="38.490501" lon="-0.73627">
        <ele>591.604396995527</ele>
        <time>2019-04-19T07:09:20.000Z</time>
      </trkpt>
      <trkpt lat="38.49049" lon="-0.736238">
        <ele>592</ele>
        <time>2019-04-19T07:09:22.000Z</time>
      </trkpt>
      <trkpt lat="38.490478" lon="-0.736206">
        <ele>592</ele>
        <time>2019-04-19T07:09:24.000Z</time>
      </trkpt>
      <trkpt lat="38.490469" lon="-0.736171">
        <ele>592</ele>
        <time>2019-04-19T07:09:26.000Z</time>
      </trkpt>
      <trkpt lat="38.490457" lon="-0.736138">
        <ele>592</ele>
        <time>2019-04-19T07:09:28.000Z</time>
      </trkpt>
      <trkpt lat="38.490444" lon="-0.736107">
        <ele>592</ele>
        <time>2019-04-19T07:09:30.000Z</time>
      </trkpt>
      <trkpt lat="38.490435" lon="-0.736077">
        <ele>593</ele>
        <time>2019-04-19T07:09:32.000Z</time>
      </trkpt>
      <trkpt lat="38.490406" lon="-0.73603">
        <ele>594</ele>
        <time>2019-04-19T07:09:36.000Z</time>
      </trkpt>
      <trkpt lat="38.49039" lon="-0.73602">
        <ele>594</ele>
        <time>2019-04-19T07:09:37.000Z</time>
      </trkpt>
      <trkpt lat="38.490361" lon="-0.735996">
        <ele>594.627454917364</ele>
        <time>2019-04-19T07:09:39.000Z</time>
      </trkpt>
      <trkpt lat="38.49034" lon="-0.735981">
        <ele>595</ele>
        <time>2019-04-19T07:09:41.000Z</time>
      </trkpt>
      <trkpt lat="38.490311" lon="-0.735978">
        <ele>595</ele>
        <time>2019-04-19T07:09:43.000Z</time>
      </trkpt>
      <trkpt lat="38.490283" lon="-0.735962">
        <ele>595</ele>
        <time>2019-04-19T07:09:45.000Z</time>
      </trkpt>
      <trkpt lat="38.490253" lon="-0.735945">
        <ele>595</ele>
        <time>2019-04-19T07:09:47.000Z</time>
      </trkpt>
      <trkpt lat="38.490238" lon="-0.735932">
        <ele>595</ele>
        <time>2019-04-19T07:09:48.000Z</time>
      </trkpt>
      <trkpt lat="38.490213" lon="-0.735908">
        <ele>596</ele>
        <time>2019-04-19T07:09:50.000Z</time>
      </trkpt>
      <trkpt lat="38.490184" lon="-0.735895">
        <ele>596</ele>
        <time>2019-04-19T07:09:52.000Z</time>
      </trkpt>
      <trkpt lat="38.490157" lon="-0.735883">
        <ele>596</ele>
        <time>2019-04-19T07:09:54.000Z</time>
      </trkpt>
      <trkpt lat="38.490132" lon="-0.735867">
        <ele>596</ele>
        <time>2019-04-19T07:09:56.000Z</time>
      </trkpt>
      <trkpt lat="38.490114" lon="-0.735859">
        <ele>597</ele>
        <time>2019-04-19T07:10:02.000Z</time>
      </trkpt>
      <trkpt lat="38.490092" lon="-0.735849">
        <ele>597</ele>
        <time>2019-04-19T07:10:04.000Z</time>
      </trkpt>
      <trkpt lat="38.490064" lon="-0.735838">
        <ele>597</ele>
        <time>2019-04-19T07:10:06.000Z</time>
      </trkpt>
      <trkpt lat="38.49004" lon="-0.735816">
        <ele>597</ele>
        <time>2019-04-19T07:10:08.000Z</time>
      </trkpt>
      <trkpt lat="38.49002" lon="-0.735793">
        <ele>597</ele>
        <time>2019-04-19T07:10:10.000Z</time>
      </trkpt>
      <trkpt lat="38.489984" lon="-0.73576">
        <ele>598</ele>
        <time>2019-04-19T07:10:13.000Z</time>
      </trkpt>
      <trkpt lat="38.489964" lon="-0.735742">
        <ele>598</ele>
        <time>2019-04-19T07:10:15.000Z</time>
      </trkpt>
      <trkpt lat="38.489944" lon="-0.735712">
        <ele>598</ele>
        <time>2019-04-19T07:10:17.000Z</time>
      </trkpt>
      <trkpt lat="38.489934" lon="-0.735694">
        <ele>598</ele>
        <time>2019-04-19T07:10:18.000Z</time>
      </trkpt>
      <trkpt lat="38.489912" lon="-0.735668">
        <ele>598</ele>
        <time>2019-04-19T07:10:20.000Z</time>
      </trkpt>
      <trkpt lat="38.489891" lon="-0.73565">
        <ele>598</ele>
        <time>2019-04-19T07:10:22.000Z</time>
      </trkpt>
      <trkpt lat="38.48987" lon="-0.735627">
        <ele>598.627447043469</ele>
        <time>2019-04-19T07:10:24.000Z</time>
      </trkpt>
      <trkpt lat="38.489846" lon="-0.735592">
        <ele>599</ele>
        <time>2019-04-19T07:10:27.000Z</time>
      </trkpt>
      <trkpt lat="38.489824" lon="-0.735569">
        <ele>599</ele>
        <time>2019-04-19T07:10:29.000Z</time>
      </trkpt>
      <trkpt lat="38.489804" lon="-0.735548">
        <ele>600</ele>
        <time>2019-04-19T07:10:31.000Z</time>
      </trkpt>
      <trkpt lat="38.489784" lon="-0.73553">
        <ele>600</ele>
        <time>2019-04-19T07:10:33.000Z</time>
      </trkpt>
      <trkpt lat="38.489754" lon="-0.735512">
        <ele>600</ele>
        <time>2019-04-19T07:10:35.000Z</time>
      </trkpt>
      <trkpt lat="38.489729" lon="-0.735482">
        <ele>601</ele>
        <time>2019-04-19T07:10:37.000Z</time>
      </trkpt>
      <trkpt lat="38.489666" lon="-0.735412">
        <ele>602</ele>
        <time>2019-04-19T07:10:43.000Z</time>
      </trkpt>
      <trkpt lat="38.4896" lon="-0.735334">
        <ele>602</ele>
        <time>2019-04-19T07:10:50.000Z</time>
      </trkpt>
      <trkpt lat="38.489518" lon="-0.735282">
        <ele>602.478258449894</ele>
        <time>2019-04-19T07:10:56.000Z</time>
      </trkpt>
      <trkpt lat="38.489434" lon="-0.735228">
        <ele>604</ele>
        <time>2019-04-19T07:11:02.000Z</time>
      </trkpt>
      <trkpt lat="38.489347" lon="-0.735196">
        <ele>605</ele>
        <time>2019-04-19T07:11:07.000Z</time>
      </trkpt>
      <trkpt lat="38.48928" lon="-0.735139">
        <ele>605</ele>
        <time>2019-04-19T07:11:13.000Z</time>
      </trkpt>
      <trkpt lat="38.489259" lon="-0.735131">
        <ele>605</ele>
        <time>2019-04-19T07:11:15.000Z</time>
      </trkpt>
      <trkpt lat="38.489232" lon="-0.73512">
        <ele>606</ele>
        <time>2019-04-19T07:11:17.000Z</time>
      </trkpt>
      <trkpt lat="38.489204" lon="-0.735106">
        <ele>606</ele>
        <time>2019-04-19T07:11:19.000Z</time>
      </trkpt>
      <trkpt lat="38.489174" lon="-0.735094">
        <ele>606</ele>
        <time>2019-04-19T07:11:21.000Z</time>
      </trkpt>
      <trkpt lat="38.489151" lon="-0.735082">
        <ele>606</ele>
        <time>2019-04-19T07:11:23.000Z</time>
      </trkpt>
      <trkpt lat="38.489125" lon="-0.735063">
        <ele>606</ele>
        <time>2019-04-19T07:11:25.000Z</time>
      </trkpt>
      <trkpt lat="38.489097" lon="-0.735052">
        <ele>607</ele>
        <time>2019-04-19T07:11:27.000Z</time>
      </trkpt>
      <trkpt lat="38.489067" lon="-0.735044">
        <ele>607</ele>
        <time>2019-04-19T07:11:29.000Z</time>
      </trkpt>
      <trkpt lat="38.489038" lon="-0.735034">
        <ele>608</ele>
        <time>2019-04-19T07:11:31.000Z</time>
      </trkpt>
      <trkpt lat="38.489012" lon="-0.735026">
        <ele>608</ele>
        <time>2019-04-19T07:11:33.000Z</time>
      </trkpt>
      <trkpt lat="38.488986" lon="-0.735017">
        <ele>609</ele>
        <time>2019-04-19T07:11:35.000Z</time>
      </trkpt>
      <trkpt lat="38.488959" lon="-0.735004">
        <ele>609</ele>
        <time>2019-04-19T07:11:37.000Z</time>
      </trkpt>
      <trkpt lat="38.488932" lon="-0.73499">
        <ele>609</ele>
        <time>2019-04-19T07:11:39.000Z</time>
      </trkpt>
      <trkpt lat="38.488905" lon="-0.734979">
        <ele>609</ele>
        <time>2019-04-19T07:11:41.000Z</time>
      </trkpt>
      <trkpt lat="38.488876" lon="-0.734967">
        <ele>609.63636481175</ele>
        <time>2019-04-19T07:11:43.000Z</time>
      </trkpt>
      <trkpt lat="38.488849" lon="-0.734954">
        <ele>610</ele>
        <time>2019-04-19T07:11:45.000Z</time>
      </trkpt>
      <trkpt lat="38.488822" lon="-0.734942">
        <ele>611</ele>
        <time>2019-04-19T07:11:47.000Z</time>
      </trkpt>
      <trkpt lat="38.488797" lon="-0.734931">
        <ele>611</ele>
        <time>2019-04-19T07:11:49.000Z</time>
      </trkpt>
      <trkpt lat="38.488772" lon="-0.734923">
        <ele>611</ele>
        <time>2019-04-19T07:11:51.000Z</time>
      </trkpt>
      <trkpt lat="38.48875" lon="-0.734916">
        <ele>611</ele>
        <time>2019-04-19T07:11:53.000Z</time>
      </trkpt>
      <trkpt lat="38.488721" lon="-0.734908">
        <ele>611</ele>
        <time>2019-04-19T07:11:55.000Z</time>
      </trkpt>
      <trkpt lat="38.488694" lon="-0.734898">
        <ele>612</ele>
        <time>2019-04-19T07:11:57.000Z</time>
      </trkpt>
      <trkpt lat="38.488668" lon="-0.734891">
        <ele>612.64</ele>
        <time>2019-04-19T07:11:59.000Z</time>
      </trkpt>
      <trkpt lat="38.488641" lon="-0.734884">
        <ele>613</ele>
        <time>2019-04-19T07:12:01.000Z</time>
      </trkpt>
      <trkpt lat="38.488616" lon="-0.734875">
        <ele>613</ele>
        <time>2019-04-19T07:12:03.000Z</time>
      </trkpt>
      <trkpt lat="38.488589" lon="-0.734865">
        <ele>613</ele>
        <time>2019-04-19T07:12:05.000Z</time>
      </trkpt>
      <trkpt lat="38.488563" lon="-0.734855">
        <ele>613</ele>
        <time>2019-04-19T07:12:07.000Z</time>
      </trkpt>
      <trkpt lat="38.488536" lon="-0.734842">
        <ele>613</ele>
        <time>2019-04-19T07:12:09.000Z</time>
      </trkpt>
      <trkpt lat="38.488511" lon="-0.734829">
        <ele>613</ele>
        <time>2019-04-19T07:12:11.000Z</time>
      </trkpt>
      <trkpt lat="38.488486" lon="-0.734818">
        <ele>613</ele>
        <time>2019-04-19T07:12:13.000Z</time>
      </trkpt>
      <trkpt lat="38.488465" lon="-0.734808">
        <ele>614</ele>
        <time>2019-04-19T07:12:15.000Z</time>
      </trkpt>
      <trkpt lat="38.488441" lon="-0.734798">
        <ele>614</ele>
        <time>2019-04-19T07:12:17.000Z</time>
      </trkpt>
      <trkpt lat="38.488415" lon="-0.734787">
        <ele>614</ele>
        <time>2019-04-19T07:12:19.000Z</time>
      </trkpt>
      <trkpt lat="38.488393" lon="-0.734775">
        <ele>614</ele>
        <time>2019-04-19T07:12:26.000Z</time>
      </trkpt>
      <trkpt lat="38.488374" lon="-0.734768">
        <ele>614</ele>
        <time>2019-04-19T07:12:28.000Z</time>
      </trkpt>
      <trkpt lat="38.488349" lon="-0.73475">
        <ele>615</ele>
        <time>2019-04-19T07:12:31.000Z</time>
      </trkpt>
      <trkpt lat="38.488329" lon="-0.734743">
        <ele>615</ele>
        <time>2019-04-19T07:12:33.000Z</time>
      </trkpt>
      <trkpt lat="38.488312" lon="-0.734722">
        <ele>615</ele>
        <time>2019-04-19T07:12:38.000Z</time>
      </trkpt>
      <trkpt lat="38.488281" lon="-0.734714">
        <ele>615</ele>
        <time>2019-04-19T07:12:40.000Z</time>
      </trkpt>
      <trkpt lat="38.48825" lon="-0.734705">
        <ele>616</ele>
        <time>2019-04-19T07:12:42.000Z</time>
      </trkpt>
      <trkpt lat="38.488224" lon="-0.734703">
        <ele>616</ele>
        <time>2019-04-19T07:12:44.000Z</time>
      </trkpt>
      <trkpt lat="38.488196" lon="-0.734693">
        <ele>616</ele>
        <time>2019-04-19T07:12:46.000Z</time>
      </trkpt>
      <trkpt lat="38.488166" lon="-0.734684">
        <ele>616</ele>
        <time>2019-04-19T07:12:48.000Z</time>
      </trkpt>
      <trkpt lat="38.488143" lon="-0.734676">
        <ele>616</ele>
        <time>2019-04-19T07:12:50.000Z</time>
      </trkpt>
      <trkpt lat="38.488113" lon="-0.734668">
        <ele>616</ele>
        <time>2019-04-19T07:12:52.000Z</time>
      </trkpt>
      <trkpt lat="38.488085" lon="-0.734661">
        <ele>616</ele>
        <time>2019-04-19T07:12:54.000Z</time>
      </trkpt>
      <trkpt lat="38.488052" lon="-0.734651">
        <ele>617</ele>
        <time>2019-04-19T07:12:56.000Z</time>
      </trkpt>
      <trkpt lat="38.488035" lon="-0.734641">
        <ele>617</ele>
        <time>2019-04-19T07:12:57.000Z</time>
      </trkpt>
      <trkpt lat="38.488008" lon="-0.734631">
        <ele>617</ele>
        <time>2019-04-19T07:12:59.000Z</time>
      </trkpt>
      <trkpt lat="38.487982" lon="-0.734623">
        <ele>617</ele>
        <time>2019-04-19T07:13:01.000Z</time>
      </trkpt>
      <trkpt lat="38.487952" lon="-0.734611">
        <ele>617</ele>
        <time>2019-04-19T07:13:03.000Z</time>
      </trkpt>
      <trkpt lat="38.48792" lon="-0.734597">
        <ele>617</ele>
        <time>2019-04-19T07:13:05.000Z</time>
      </trkpt>
      <trkpt lat="38.487899" lon="-0.734586">
        <ele>617</ele>
        <time>2019-04-19T07:13:06.000Z</time>
      </trkpt>
      <trkpt lat="38.48788" lon="-0.734578">
        <ele>617.615384615385</ele>
        <time>2019-04-19T07:13:07.000Z</time>
      </trkpt>
      <trkpt lat="38.487858" lon="-0.734572">
        <ele>618</ele>
        <time>2019-04-19T07:13:08.000Z</time>
      </trkpt>
      <trkpt lat="38.48784" lon="-0.734564">
        <ele>618</ele>
        <time>2019-04-19T07:13:09.000Z</time>
      </trkpt>
      <trkpt lat="38.487824" lon="-0.734551">
        <ele>618</ele>
        <time>2019-04-19T07:13:10.000Z</time>
      </trkpt>
      <trkpt lat="38.487806" lon="-0.734537">
        <ele>618</ele>
        <time>2019-04-19T07:13:11.000Z</time>
      </trkpt>
      <trkpt lat="38.487788" lon="-0.734523">
        <ele>618</ele>
        <time>2019-04-19T07:13:12.000Z</time>
      </trkpt>
      <trkpt lat="38.48777" lon="-0.734512">
        <ele>618</ele>
        <time>2019-04-19T07:13:13.000Z</time>
      </trkpt>
      <trkpt lat="38.487754" lon="-0.734494">
        <ele>618</ele>
        <time>2019-04-19T07:13:14.000Z</time>
      </trkpt>
      <trkpt lat="38.48774" lon="-0.734478">
        <ele>618</ele>
        <time>2019-04-19T07:13:15.000Z</time>
      </trkpt>
      <trkpt lat="38.487724" lon="-0.734459">
        <ele>618</ele>
        <time>2019-04-19T07:13:16.000Z</time>
      </trkpt>
      <trkpt lat="38.487706" lon="-0.734442">
        <ele>618</ele>
        <time>2019-04-19T07:13:17.000Z</time>
      </trkpt>
      <trkpt lat="38.487692" lon="-0.734427">
        <ele>618</ele>
        <time>2019-04-19T07:13:18.000Z</time>
      </trkpt>
      <trkpt lat="38.48768" lon="-0.73441">
        <ele>618</ele>
        <time>2019-04-19T07:13:19.000Z</time>
      </trkpt>
      <trkpt lat="38.487666" lon="-0.73439">
        <ele>618</ele>
        <time>2019-04-19T07:13:20.000Z</time>
      </trkpt>
      <trkpt lat="38.48765" lon="-0.734369">
        <ele>618</ele>
        <time>2019-04-19T07:13:21.000Z</time>
      </trkpt>
      <trkpt lat="38.487635" lon="-0.734348">
        <ele>618</ele>
        <time>2019-04-19T07:13:22.000Z</time>
      </trkpt>
      <trkpt lat="38.487618" lon="-0.734322">
        <ele>618</ele>
        <time>2019-04-19T07:13:23.000Z</time>
      </trkpt>
      <trkpt lat="38.487606" lon="-0.734297">
        <ele>617.36</ele>
        <time>2019-04-19T07:13:24.000Z</time>
      </trkpt>
      <trkpt lat="38.487596" lon="-0.734273">
        <ele>616.36</ele>
        <time>2019-04-19T07:13:25.000Z</time>
      </trkpt>
      <trkpt lat="38.487582" lon="-0.734248">
        <ele>616</ele>
        <time>2019-04-19T07:13:26.000Z</time>
      </trkpt>
      <trkpt lat="38.487566" lon="-0.734224">
        <ele>616</ele>
        <time>2019-04-19T07:13:27.000Z</time>
      </trkpt>
      <trkpt lat="38.487538" lon="-0.734197">
        <ele>616</ele>
        <time>2019-04-19T07:13:29.000Z</time>
      </trkpt>
      <trkpt lat="38.48752" lon="-0.734182">
        <ele>615.36</ele>
        <time>2019-04-19T07:13:30.000Z</time>
      </trkpt>
      <trkpt lat="38.487496" lon="-0.734167">
        <ele>615</ele>
        <time>2019-04-19T07:13:31.000Z</time>
      </trkpt>
      <trkpt lat="38.487476" lon="-0.734154">
        <ele>615</ele>
        <time>2019-04-19T07:13:32.000Z</time>
      </trkpt>
      <trkpt lat="38.487454" lon="-0.734138">
        <ele>615</ele>
        <time>2019-04-19T07:13:33.000Z</time>
      </trkpt>
      <trkpt lat="38.487438" lon="-0.734122">
        <ele>615</ele>
        <time>2019-04-19T07:13:34.000Z</time>
      </trkpt>
      <trkpt lat="38.48743" lon="-0.734101">
        <ele>615</ele>
        <time>2019-04-19T07:13:35.000Z</time>
      </trkpt>
      <trkpt lat="38.487421" lon="-0.734078">
        <ele>615</ele>
        <time>2019-04-19T07:13:36.000Z</time>
      </trkpt>
      <trkpt lat="38.487404" lon="-0.734037">
        <ele>614</ele>
        <time>2019-04-19T07:13:38.000Z</time>
      </trkpt>
      <trkpt lat="38.487402" lon="-0.734013">
        <ele>614</ele>
        <time>2019-04-19T07:13:39.000Z</time>
      </trkpt>
      <trkpt lat="38.487396" lon="-0.733984">
        <ele>614</ele>
        <time>2019-04-19T07:13:40.000Z</time>
      </trkpt>
      <trkpt lat="38.487394" lon="-0.733955">
        <ele>614</ele>
        <time>2019-04-19T07:13:41.000Z</time>
      </trkpt>
      <trkpt lat="38.487396" lon="-0.733925">
        <ele>614</ele>
        <time>2019-04-19T07:13:42.000Z</time>
      </trkpt>
      <trkpt lat="38.4874" lon="-0.733897">
        <ele>614</ele>
        <time>2019-04-19T07:13:43.000Z</time>
      </trkpt>
      <trkpt lat="38.48741" lon="-0.733869">
        <ele>614</ele>
        <time>2019-04-19T07:13:44.000Z</time>
      </trkpt>
      <trkpt lat="38.487418" lon="-0.733843">
        <ele>614</ele>
        <time>2019-04-19T07:13:45.000Z</time>
      </trkpt>
      <trkpt lat="38.487428" lon="-0.73382">
        <ele>614.64</ele>
        <time>2019-04-19T07:13:46.000Z</time>
      </trkpt>
      <trkpt lat="38.487438" lon="-0.733797">
        <ele>615</ele>
        <time>2019-04-19T07:13:47.000Z</time>
      </trkpt>
      <trkpt lat="38.48746" lon="-0.733757">
        <ele>615.587157687068</ele>
        <time>2019-04-19T07:13:49.000Z</time>
      </trkpt>
      <trkpt lat="38.487522" lon="-0.733644">
        <ele>616</ele>
        <time>2019-04-19T07:13:54.000Z</time>
      </trkpt>
      <trkpt lat="38.487528" lon="-0.733621">
        <ele>616</ele>
        <time>2019-04-19T07:13:55.000Z</time>
      </trkpt>
      <trkpt lat="38.487532" lon="-0.733598">
        <ele>616</ele>
        <time>2019-04-19T07:13:56.000Z</time>
      </trkpt>
      <trkpt lat="38.487538" lon="-0.733571">
        <ele>616.633665373989</ele>
        <time>2019-04-19T07:13:57.000Z</time>
      </trkpt>
      <trkpt lat="38.487548" lon="-0.733547">
        <ele>617</ele>
        <time>2019-04-19T07:13:58.000Z</time>
      </trkpt>
      <trkpt lat="38.487554" lon="-0.733522">
        <ele>617.581821566962</ele>
        <time>2019-04-19T07:13:59.000Z</time>
      </trkpt>
      <trkpt lat="38.48756" lon="-0.733496">
        <ele>618</ele>
        <time>2019-04-19T07:14:00.000Z</time>
      </trkpt>
      <trkpt lat="38.487568" lon="-0.73347">
        <ele>618.64</ele>
        <time>2019-04-19T07:14:01.000Z</time>
      </trkpt>
      <trkpt lat="38.487572" lon="-0.733443">
        <ele>619</ele>
        <time>2019-04-19T07:14:02.000Z</time>
      </trkpt>
      <trkpt lat="38.487574" lon="-0.733417">
        <ele>619</ele>
        <time>2019-04-19T07:14:03.000Z</time>
      </trkpt>
      <trkpt lat="38.487576" lon="-0.733372">
        <ele>619</ele>
        <time>2019-04-19T07:14:05.000Z</time>
      </trkpt>
      <trkpt lat="38.487568" lon="-0.733326">
        <ele>620.587157687068</ele>
        <time>2019-04-19T07:14:07.000Z</time>
      </trkpt>
      <trkpt lat="38.487558" lon="-0.733306">
        <ele>621</ele>
        <time>2019-04-19T07:14:08.000Z</time>
      </trkpt>
      <trkpt lat="38.487548" lon="-0.733287">
        <ele>621</ele>
        <time>2019-04-19T07:14:09.000Z</time>
      </trkpt>
      <trkpt lat="38.487534" lon="-0.73325">
        <ele>621.63636481175</ele>
        <time>2019-04-19T07:14:11.000Z</time>
      </trkpt>
      <trkpt lat="38.487526" lon="-0.733213">
        <ele>622</ele>
        <time>2019-04-19T07:14:13.000Z</time>
      </trkpt>
      <trkpt lat="38.487514" lon="-0.733175">
        <ele>622.598129052324</ele>
        <time>2019-04-19T07:14:15.000Z</time>
      </trkpt>
      <trkpt lat="38.487501" lon="-0.733151">
        <ele>623</ele>
        <time>2019-04-19T07:14:16.000Z</time>
      </trkpt>
      <trkpt lat="38.487492" lon="-0.733127">
        <ele>623</ele>
        <time>2019-04-19T07:14:17.000Z</time>
      </trkpt>
      <trkpt lat="38.48748" lon="-0.733107">
        <ele>623</ele>
        <time>2019-04-19T07:14:18.000Z</time>
      </trkpt>
      <trkpt lat="38.487469" lon="-0.733087">
        <ele>623</ele>
        <time>2019-04-19T07:14:19.000Z</time>
      </trkpt>
      <trkpt lat="38.487458" lon="-0.733066">
        <ele>623.603777230353</ele>
        <time>2019-04-19T07:14:20.000Z</time>
      </trkpt>
      <trkpt lat="38.487448" lon="-0.733045">
        <ele>624</ele>
        <time>2019-04-19T07:14:21.000Z</time>
      </trkpt>
      <trkpt lat="38.487438" lon="-0.733021">
        <ele>624</ele>
        <time>2019-04-19T07:14:22.000Z</time>
      </trkpt>
      <trkpt lat="38.487432" lon="-0.733">
        <ele>624.64</ele>
        <time>2019-04-19T07:14:23.000Z</time>
      </trkpt>
      <trkpt lat="38.48742" lon="-0.732978">
        <ele>625</ele>
        <time>2019-04-19T07:14:24.000Z</time>
      </trkpt>
      <trkpt lat="38.487412" lon="-0.732956">
        <ele>625</ele>
        <time>2019-04-19T07:14:25.000Z</time>
      </trkpt>
      <trkpt lat="38.487404" lon="-0.732933">
        <ele>625</ele>
        <time>2019-04-19T07:14:26.000Z</time>
      </trkpt>
      <trkpt lat="38.487394" lon="-0.732909">
        <ele>625</ele>
        <time>2019-04-19T07:14:27.000Z</time>
      </trkpt>
      <trkpt lat="38.487382" lon="-0.732887">
        <ele>625.615384615385</ele>
        <time>2019-04-19T07:14:28.000Z</time>
      </trkpt>
      <trkpt lat="38.487368" lon="-0.732868">
        <ele>626</ele>
        <time>2019-04-19T07:14:29.000Z</time>
      </trkpt>
      <trkpt lat="38.487352" lon="-0.732851">
        <ele>626</ele>
        <time>2019-04-19T07:14:30.000Z</time>
      </trkpt>
      <trkpt lat="38.487334" lon="-0.732838">
        <ele>626</ele>
        <time>2019-04-19T07:14:31.000Z</time>
      </trkpt>
      <trkpt lat="38.48731" lon="-0.732828">
        <ele>626</ele>
        <time>2019-04-19T07:14:32.000Z</time>
      </trkpt>
      <trkpt lat="38.487286" lon="-0.732825">
        <ele>626</ele>
        <time>2019-04-19T07:14:33.000Z</time>
      </trkpt>
      <trkpt lat="38.487264" lon="-0.732821">
        <ele>626</ele>
        <time>2019-04-19T07:14:34.000Z</time>
      </trkpt>
      <trkpt lat="38.487242" lon="-0.732818">
        <ele>626</ele>
        <time>2019-04-19T07:14:35.000Z</time>
      </trkpt>
      <trkpt lat="38.48722" lon="-0.732818">
        <ele>626</ele>
        <time>2019-04-19T07:14:36.000Z</time>
      </trkpt>
      <trkpt lat="38.48719" lon="-0.732823">
        <ele>626</ele>
        <time>2019-04-19T07:14:38.000Z</time>
      </trkpt>
      <trkpt lat="38.48717" lon="-0.732832">
        <ele>626</ele>
        <time>2019-04-19T07:14:40.000Z</time>
      </trkpt>
      <trkpt lat="38.48715" lon="-0.73283">
        <ele>626</ele>
        <time>2019-04-19T07:14:42.000Z</time>
      </trkpt>
      <trkpt lat="38.48713" lon="-0.732827">
        <ele>626</ele>
        <time>2019-04-19T07:14:44.000Z</time>
      </trkpt>
      <trkpt lat="38.487106" lon="-0.732828">
        <ele>626</ele>
        <time>2019-04-19T07:14:46.000Z</time>
      </trkpt>
      <trkpt lat="38.487086" lon="-0.732835">
        <ele>626</ele>
        <time>2019-04-19T07:14:48.000Z</time>
      </trkpt>
      <trkpt lat="38.48707" lon="-0.732852">
        <ele>626</ele>
        <time>2019-04-19T07:14:50.000Z</time>
      </trkpt>
      <trkpt lat="38.487048" lon="-0.732867">
        <ele>626</ele>
        <time>2019-04-19T07:14:52.000Z</time>
      </trkpt>
      <trkpt lat="38.487026" lon="-0.732887">
        <ele>626</ele>
        <time>2019-04-19T07:14:54.000Z</time>
      </trkpt>
      <trkpt lat="38.487008" lon="-0.732913">
        <ele>626</ele>
        <time>2019-04-19T07:14:56.000Z</time>
      </trkpt>
      <trkpt lat="38.486991" lon="-0.732933">
        <ele>626</ele>
        <time>2019-04-19T07:14:58.000Z</time>
      </trkpt>
      <trkpt lat="38.486974" lon="-0.732956">
        <ele>626</ele>
        <time>2019-04-19T07:15:00.000Z</time>
      </trkpt>
      <trkpt lat="38.486952" lon="-0.732978">
        <ele>626</ele>
        <time>2019-04-19T07:15:02.000Z</time>
      </trkpt>
      <trkpt lat="38.486922" lon="-0.732992">
        <ele>627</ele>
        <time>2019-04-19T07:15:04.000Z</time>
      </trkpt>
      <trkpt lat="38.486902" lon="-0.732996">
        <ele>627</ele>
        <time>2019-04-19T07:15:05.000Z</time>
      </trkpt>
      <trkpt lat="38.486881" lon="-0.733">
        <ele>627</ele>
        <time>2019-04-19T07:15:06.000Z</time>
      </trkpt>
      <trkpt lat="38.486862" lon="-0.733008">
        <ele>627.628864755018</ele>
        <time>2019-04-19T07:15:07.000Z</time>
      </trkpt>
      <trkpt lat="38.486843" lon="-0.733013">
        <ele>628</ele>
        <time>2019-04-19T07:15:08.000Z</time>
      </trkpt>
      <trkpt lat="38.486808" lon="-0.733006">
        <ele>628</ele>
        <time>2019-04-19T07:15:10.000Z</time>
      </trkpt>
      <trkpt lat="38.486789" lon="-0.732999">
        <ele>628</ele>
        <time>2019-04-19T07:15:11.000Z</time>
      </trkpt>
      <trkpt lat="38.486772" lon="-0.732991">
        <ele>628</ele>
        <time>2019-04-19T07:15:12.000Z</time>
      </trkpt>
      <trkpt lat="38.486755" lon="-0.732978">
        <ele>628</ele>
        <time>2019-04-19T07:15:13.000Z</time>
      </trkpt>
      <trkpt lat="38.486739" lon="-0.732966">
        <ele>628</ele>
        <time>2019-04-19T07:15:14.000Z</time>
      </trkpt>
      <trkpt lat="38.486726" lon="-0.732948">
        <ele>628.633665373989</ele>
        <time>2019-04-19T07:15:15.000Z</time>
      </trkpt>
      <trkpt lat="38.486713" lon="-0.73293">
        <ele>629</ele>
        <time>2019-04-19T07:15:16.000Z</time>
      </trkpt>
      <trkpt lat="38.4867" lon="-0.732888">
        <ele>629</ele>
        <time>2019-04-19T07:15:18.000Z</time>
      </trkpt>
      <trkpt lat="38.486694" lon="-0.732844">
        <ele>629</ele>
        <time>2019-04-19T07:15:20.000Z</time>
      </trkpt>
      <trkpt lat="38.486686" lon="-0.732804">
        <ele>629</ele>
        <time>2019-04-19T07:15:22.000Z</time>
      </trkpt>
      <trkpt lat="38.486674" lon="-0.732764">
        <ele>630</ele>
        <time>2019-04-19T07:15:24.000Z</time>
      </trkpt>
      <trkpt lat="38.486663" lon="-0.732725">
        <ele>630</ele>
        <time>2019-04-19T07:15:26.000Z</time>
      </trkpt>
      <trkpt lat="38.486653" lon="-0.732702">
        <ele>630</ele>
        <time>2019-04-19T07:15:27.000Z</time>
      </trkpt>
      <trkpt lat="38.486646" lon="-0.73268">
        <ele>630.617018669063</ele>
        <time>2019-04-19T07:15:28.000Z</time>
      </trkpt>
      <trkpt lat="38.486637" lon="-0.732659">
        <ele>631</ele>
        <time>2019-04-19T07:15:29.000Z</time>
      </trkpt>
      <trkpt lat="38.486629" lon="-0.732637">
        <ele>631</ele>
        <time>2019-04-19T07:15:30.000Z</time>
      </trkpt>
      <trkpt lat="38.486621" lon="-0.732615">
        <ele>631</ele>
        <time>2019-04-19T07:15:31.000Z</time>
      </trkpt>
      <trkpt lat="38.486613" lon="-0.732594">
        <ele>631</ele>
        <time>2019-04-19T07:15:32.000Z</time>
      </trkpt>
      <trkpt lat="38.486598" lon="-0.732571">
        <ele>631</ele>
        <time>2019-04-19T07:15:33.000Z</time>
      </trkpt>
      <trkpt lat="38.486585" lon="-0.73255">
        <ele>631</ele>
        <time>2019-04-19T07:15:34.000Z</time>
      </trkpt>
      <trkpt lat="38.486569" lon="-0.732531">
        <ele>631.633665373989</ele>
        <time>2019-04-19T07:15:35.000Z</time>
      </trkpt>
      <trkpt lat="38.486551" lon="-0.732514">
        <ele>632</ele>
        <time>2019-04-19T07:15:36.000Z</time>
      </trkpt>
      <trkpt lat="38.486532" lon="-0.732501">
        <ele>632</ele>
        <time>2019-04-19T07:15:37.000Z</time>
      </trkpt>
      <trkpt lat="38.486509" lon="-0.732492">
        <ele>632</ele>
        <time>2019-04-19T07:15:38.000Z</time>
      </trkpt>
      <trkpt lat="38.486488" lon="-0.732486">
        <ele>632</ele>
        <time>2019-04-19T07:15:39.000Z</time>
      </trkpt>
      <trkpt lat="38.486466" lon="-0.732482">
        <ele>632</ele>
        <time>2019-04-19T07:15:40.000Z</time>
      </trkpt>
      <trkpt lat="38.486445" lon="-0.732478">
        <ele>632</ele>
        <time>2019-04-19T07:15:41.000Z</time>
      </trkpt>
      <trkpt lat="38.486422" lon="-0.732476">
        <ele>632</ele>
        <time>2019-04-19T07:15:42.000Z</time>
      </trkpt>
      <trkpt lat="38.4864" lon="-0.732475">
        <ele>632</ele>
        <time>2019-04-19T07:15:43.000Z</time>
      </trkpt>
      <trkpt lat="38.486377" lon="-0.732471">
        <ele>632</ele>
        <time>2019-04-19T07:15:44.000Z</time>
      </trkpt>
      <trkpt lat="38.486353" lon="-0.732473">
        <ele>632</ele>
        <time>2019-04-19T07:15:45.000Z</time>
      </trkpt>
      <trkpt lat="38.486333" lon="-0.732479">
        <ele>632</ele>
        <time>2019-04-19T07:15:46.000Z</time>
      </trkpt>
      <trkpt lat="38.486313" lon="-0.73249">
        <ele>632</ele>
        <time>2019-04-19T07:15:47.000Z</time>
      </trkpt>
      <trkpt lat="38.486294" lon="-0.732506">
        <ele>632</ele>
        <time>2019-04-19T07:15:48.000Z</time>
      </trkpt>
      <trkpt lat="38.48628" lon="-0.732531">
        <ele>632</ele>
        <time>2019-04-19T07:15:49.000Z</time>
      </trkpt>
      <trkpt lat="38.48627" lon="-0.732555">
        <ele>632.617018669063</ele>
        <time>2019-04-19T07:15:50.000Z</time>
      </trkpt>
      <trkpt lat="38.486262" lon="-0.732584">
        <ele>633</ele>
        <time>2019-04-19T07:15:51.000Z</time>
      </trkpt>
      <trkpt lat="38.486255" lon="-0.732611">
        <ele>633</ele>
        <time>2019-04-19T07:15:52.000Z</time>
      </trkpt>
      <trkpt lat="38.486245" lon="-0.732638">
        <ele>633.566373285305</ele>
        <time>2019-04-19T07:15:53.000Z</time>
      </trkpt>
      <trkpt lat="38.486234" lon="-0.732663">
        <ele>634</ele>
        <time>2019-04-19T07:15:54.000Z</time>
      </trkpt>
      <trkpt lat="38.486223" lon="-0.732684">
        <ele>634</ele>
        <time>2019-04-19T07:15:55.000Z</time>
      </trkpt>
      <trkpt lat="38.486213" lon="-0.732707">
        <ele>634</ele>
        <time>2019-04-19T07:15:56.000Z</time>
      </trkpt>
      <trkpt lat="38.486202" lon="-0.73273">
        <ele>634</ele>
        <time>2019-04-19T07:15:57.000Z</time>
      </trkpt>
      <trkpt lat="38.486194" lon="-0.732756">
        <ele>634</ele>
        <time>2019-04-19T07:15:58.000Z</time>
      </trkpt>
      <trkpt lat="38.486186" lon="-0.732784">
        <ele>634</ele>
        <time>2019-04-19T07:15:59.000Z</time>
      </trkpt>
      <trkpt lat="38.486181" lon="-0.73281">
        <ele>634</ele>
        <time>2019-04-19T07:16:00.000Z</time>
      </trkpt>
      <trkpt lat="38.486162" lon="-0.732849">
        <ele>634</ele>
        <time>2019-04-19T07:16:02.000Z</time>
      </trkpt>
      <trkpt lat="38.486148" lon="-0.732874">
        <ele>634.64</ele>
        <time>2019-04-19T07:16:03.000Z</time>
      </trkpt>
      <trkpt lat="38.486135" lon="-0.732899">
        <ele>635</ele>
        <time>2019-04-19T07:16:04.000Z</time>
      </trkpt>
      <trkpt lat="38.486123" lon="-0.732921">
        <ele>635</ele>
        <time>2019-04-19T07:16:05.000Z</time>
      </trkpt>
      <trkpt lat="38.486109" lon="-0.732942">
        <ele>635</ele>
        <time>2019-04-19T07:16:06.000Z</time>
      </trkpt>
      <trkpt lat="38.486093" lon="-0.732958">
        <ele>635</ele>
        <time>2019-04-19T07:16:07.000Z</time>
      </trkpt>
      <trkpt lat="38.486077" lon="-0.732971">
        <ele>635</ele>
        <time>2019-04-19T07:16:08.000Z</time>
      </trkpt>
      <trkpt lat="38.486059" lon="-0.732981">
        <ele>635</ele>
        <time>2019-04-19T07:16:09.000Z</time>
      </trkpt>
      <trkpt lat="38.486042" lon="-0.732989">
        <ele>635</ele>
        <time>2019-04-19T07:16:10.000Z</time>
      </trkpt>
      <trkpt lat="38.486011" lon="-0.732993">
        <ele>636.64</ele>
        <time>2019-04-19T07:16:12.000Z</time>
      </trkpt>
      <trkpt lat="38.485992" lon="-0.73299">
        <ele>637</ele>
        <time>2019-04-19T07:16:13.000Z</time>
      </trkpt>
      <trkpt lat="38.485965" lon="-0.732976">
        <ele>637</ele>
        <time>2019-04-19T07:16:15.000Z</time>
      </trkpt>
      <trkpt lat="38.485939" lon="-0.732955">
        <ele>638</ele>
        <time>2019-04-19T07:16:17.000Z</time>
      </trkpt>
      <trkpt lat="38.485915" lon="-0.732925">
        <ele>638</ele>
        <time>2019-04-19T07:16:19.000Z</time>
      </trkpt>
      <trkpt lat="38.485895" lon="-0.732895">
        <ele>638</ele>
        <time>2019-04-19T07:16:21.000Z</time>
      </trkpt>
      <trkpt lat="38.485869" lon="-0.732872">
        <ele>638</ele>
        <time>2019-04-19T07:16:23.000Z</time>
      </trkpt>
      <trkpt lat="38.485842" lon="-0.73285">
        <ele>639</ele>
        <time>2019-04-19T07:16:25.000Z</time>
      </trkpt>
      <trkpt lat="38.485813" lon="-0.732829">
        <ele>639</ele>
        <time>2019-04-19T07:16:27.000Z</time>
      </trkpt>
      <trkpt lat="38.485798" lon="-0.732817">
        <ele>639.581814796714</ele>
        <time>2019-04-19T07:16:28.000Z</time>
      </trkpt>
      <trkpt lat="38.485781" lon="-0.732805">
        <ele>640</ele>
        <time>2019-04-19T07:16:29.000Z</time>
      </trkpt>
      <trkpt lat="38.485749" lon="-0.732782">
        <ele>640.627454917364</ele>
        <time>2019-04-19T07:16:31.000Z</time>
      </trkpt>
      <trkpt lat="38.485732" lon="-0.732768">
        <ele>641</ele>
        <time>2019-04-19T07:16:32.000Z</time>
      </trkpt>
      <trkpt lat="38.485715" lon="-0.732757">
        <ele>641</ele>
        <time>2019-04-19T07:16:33.000Z</time>
      </trkpt>
      <trkpt lat="38.485686" lon="-0.732739">
        <ele>641</ele>
        <time>2019-04-19T07:16:35.000Z</time>
      </trkpt>
      <trkpt lat="38.48567" lon="-0.732731">
        <ele>641</ele>
        <time>2019-04-19T07:16:36.000Z</time>
      </trkpt>
      <trkpt lat="38.485642" lon="-0.732714">
        <ele>641.587157687068</ele>
        <time>2019-04-19T07:16:38.000Z</time>
      </trkpt>
      <trkpt lat="38.485618" lon="-0.732696">
        <ele>642</ele>
        <time>2019-04-19T07:16:40.000Z</time>
      </trkpt>
      <trkpt lat="38.485603" lon="-0.732682">
        <ele>643</ele>
        <time>2019-04-19T07:16:42.000Z</time>
      </trkpt>
      <trkpt lat="38.485579" lon="-0.732654">
        <ele>643</ele>
        <time>2019-04-19T07:16:44.000Z</time>
      </trkpt>
      <trkpt lat="38.485564" lon="-0.732624">
        <ele>644</ele>
        <time>2019-04-19T07:16:46.000Z</time>
      </trkpt>
      <trkpt lat="38.485552" lon="-0.732597">
        <ele>644</ele>
        <time>2019-04-19T07:16:48.000Z</time>
      </trkpt>
      <trkpt lat="38.485539" lon="-0.732564">
        <ele>644</ele>
        <time>2019-04-19T07:16:50.000Z</time>
      </trkpt>
      <trkpt lat="38.485526" lon="-0.732533">
        <ele>645</ele>
        <time>2019-04-19T07:16:52.000Z</time>
      </trkpt>
      <trkpt lat="38.485514" lon="-0.732503">
        <ele>645</ele>
        <time>2019-04-19T07:16:54.000Z</time>
      </trkpt>
      <trkpt lat="38.485502" lon="-0.732483">
        <ele>645</ele>
        <time>2019-04-19T07:16:56.000Z</time>
      </trkpt>
      <trkpt lat="38.485487" lon="-0.732461">
        <ele>646.633665373989</ele>
        <time>2019-04-19T07:16:58.000Z</time>
      </trkpt>
      <trkpt lat="38.485473" lon="-0.732445">
        <ele>647</ele>
        <time>2019-04-19T07:17:00.000Z</time>
      </trkpt>
      <trkpt lat="38.485459" lon="-0.732418">
        <ele>647</ele>
        <time>2019-04-19T07:17:02.000Z</time>
      </trkpt>
      <trkpt lat="38.485444" lon="-0.732391">
        <ele>647</ele>
        <time>2019-04-19T07:17:04.000Z</time>
      </trkpt>
      <trkpt lat="38.485424" lon="-0.732372">
        <ele>647</ele>
        <time>2019-04-19T07:17:06.000Z</time>
      </trkpt>
      <trkpt lat="38.485401" lon="-0.732359">
        <ele>647</ele>
        <time>2019-04-19T07:17:08.000Z</time>
      </trkpt>
      <trkpt lat="38.485377" lon="-0.732346">
        <ele>648</ele>
        <time>2019-04-19T07:17:10.000Z</time>
      </trkpt>
      <trkpt lat="38.485351" lon="-0.73233">
        <ele>648</ele>
        <time>2019-04-19T07:17:12.000Z</time>
      </trkpt>
      <trkpt lat="38.48533" lon="-0.732325">
        <ele>649</ele>
        <time>2019-04-19T07:17:14.000Z</time>
      </trkpt>
      <trkpt lat="38.485308" lon="-0.732317">
        <ele>649</ele>
        <time>2019-04-19T07:17:16.000Z</time>
      </trkpt>
      <trkpt lat="38.485284" lon="-0.732307">
        <ele>650</ele>
        <time>2019-04-19T07:17:18.000Z</time>
      </trkpt>
      <trkpt lat="38.485265" lon="-0.732299">
        <ele>650</ele>
        <time>2019-04-19T07:17:20.000Z</time>
      </trkpt>
      <trkpt lat="38.485248" lon="-0.73229">
        <ele>650</ele>
        <time>2019-04-19T07:17:22.000Z</time>
      </trkpt>
      <trkpt lat="38.485226" lon="-0.732282">
        <ele>650</ele>
        <time>2019-04-19T07:17:24.000Z</time>
      </trkpt>
      <trkpt lat="38.485209" lon="-0.732267">
        <ele>650</ele>
        <time>2019-04-19T07:17:26.000Z</time>
      </trkpt>
      <trkpt lat="38.485194" lon="-0.732246">
        <ele>651</ele>
        <time>2019-04-19T07:17:28.000Z</time>
      </trkpt>
      <trkpt lat="38.485177" lon="-0.732216">
        <ele>651</ele>
        <time>2019-04-19T07:17:31.000Z</time>
      </trkpt>
      <trkpt lat="38.485157" lon="-0.732192">
        <ele>652</ele>
        <time>2019-04-19T07:17:33.000Z</time>
      </trkpt>
      <trkpt lat="38.485142" lon="-0.732173">
        <ele>652</ele>
        <time>2019-04-19T07:17:35.000Z</time>
      </trkpt>
      <trkpt lat="38.485127" lon="-0.732155">
        <ele>652.63636481175</ele>
        <time>2019-04-19T07:17:37.000Z</time>
      </trkpt>
      <trkpt lat="38.485107" lon="-0.732139">
        <ele>653</ele>
        <time>2019-04-19T07:17:39.000Z</time>
      </trkpt>
      <trkpt lat="38.485084" lon="-0.732131">
        <ele>653</ele>
        <time>2019-04-19T07:17:41.000Z</time>
      </trkpt>
      <trkpt lat="38.485063" lon="-0.73212">
        <ele>654</ele>
        <time>2019-04-19T07:17:43.000Z</time>
      </trkpt>
      <trkpt lat="38.485042" lon="-0.732104">
        <ele>654.617023884093</ele>
        <time>2019-04-19T07:17:45.000Z</time>
      </trkpt>
      <trkpt lat="38.485003" lon="-0.732085">
        <ele>656</ele>
        <time>2019-04-19T07:17:49.000Z</time>
      </trkpt>
      <trkpt lat="38.484975" lon="-0.732086">
        <ele>656</ele>
        <time>2019-04-19T07:17:52.000Z</time>
      </trkpt>
      <trkpt lat="38.484952" lon="-0.732083">
        <ele>657</ele>
        <time>2019-04-19T07:17:54.000Z</time>
      </trkpt>
      <trkpt lat="38.484929" lon="-0.73207">
        <ele>657.64</ele>
        <time>2019-04-19T07:17:56.000Z</time>
      </trkpt>
      <trkpt lat="38.484906" lon="-0.732059">
        <ele>658</ele>
        <time>2019-04-19T07:17:58.000Z</time>
      </trkpt>
      <trkpt lat="38.484861" lon="-0.732044">
        <ele>659</ele>
        <time>2019-04-19T07:18:02.000Z</time>
      </trkpt>
      <trkpt lat="38.484832" lon="-0.732035">
        <ele>659</ele>
        <time>2019-04-19T07:18:05.000Z</time>
      </trkpt>
      <trkpt lat="38.484812" lon="-0.732018">
        <ele>659</ele>
        <time>2019-04-19T07:18:08.000Z</time>
      </trkpt>
      <trkpt lat="38.484796" lon="-0.731997">
        <ele>660</ele>
        <time>2019-04-19T07:18:10.000Z</time>
      </trkpt>
      <trkpt lat="38.48478" lon="-0.73198">
        <ele>660</ele>
        <time>2019-04-19T07:18:12.000Z</time>
      </trkpt>
      <trkpt lat="38.484766" lon="-0.73196">
        <ele>660</ele>
        <time>2019-04-19T07:18:14.000Z</time>
      </trkpt>
      <trkpt lat="38.484752" lon="-0.731939">
        <ele>660.633665373989</ele>
        <time>2019-04-19T07:18:16.000Z</time>
      </trkpt>
      <trkpt lat="38.484741" lon="-0.731922">
        <ele>661</ele>
        <time>2019-04-19T07:18:18.000Z</time>
      </trkpt>
      <trkpt lat="38.484723" lon="-0.731901">
        <ele>661</ele>
        <time>2019-04-19T07:18:21.000Z</time>
      </trkpt>
      <trkpt lat="38.484706" lon="-0.731883">
        <ele>661</ele>
        <time>2019-04-19T07:18:23.000Z</time>
      </trkpt>
      <trkpt lat="38.484689" lon="-0.731866">
        <ele>663</ele>
        <time>2019-04-19T07:18:25.000Z</time>
      </trkpt>
      <trkpt lat="38.484665" lon="-0.731853">
        <ele>663.428574331051</ele>
        <time>2019-04-19T07:18:27.000Z</time>
      </trkpt>
      <trkpt lat="38.484642" lon="-0.73184">
        <ele>664</ele>
        <time>2019-04-19T07:18:29.000Z</time>
      </trkpt>
      <trkpt lat="38.484625" lon="-0.731832">
        <ele>664</ele>
        <time>2019-04-19T07:18:34.000Z</time>
      </trkpt>
      <trkpt lat="38.484607" lon="-0.731821">
        <ele>664</ele>
        <time>2019-04-19T07:18:37.000Z</time>
      </trkpt>
      <trkpt lat="38.484595" lon="-0.731793">
        <ele>665</ele>
        <time>2019-04-19T07:18:40.000Z</time>
      </trkpt>
      <trkpt lat="38.484591" lon="-0.731761">
        <ele>665.586208418544</ele>
        <time>2019-04-19T07:18:42.000Z</time>
      </trkpt>
      <trkpt lat="38.484591" lon="-0.73173">
        <ele>666</ele>
        <time>2019-04-19T07:18:45.000Z</time>
      </trkpt>
      <trkpt lat="38.484597" lon="-0.731697">
        <ele>666</ele>
        <time>2019-04-19T07:18:47.000Z</time>
      </trkpt>
      <trkpt lat="38.484599" lon="-0.731664">
        <ele>666</ele>
        <time>2019-04-19T07:18:49.000Z</time>
      </trkpt>
      <trkpt lat="38.484607" lon="-0.73163">
        <ele>666</ele>
        <time>2019-04-19T07:18:51.000Z</time>
      </trkpt>
      <trkpt lat="38.484612" lon="-0.731604">
        <ele>666</ele>
        <time>2019-04-19T07:18:53.000Z</time>
      </trkpt>
      <trkpt lat="38.484618" lon="-0.731571">
        <ele>666</ele>
        <time>2019-04-19T07:18:55.000Z</time>
      </trkpt>
      <trkpt lat="38.484627" lon="-0.731524">
        <ele>666</ele>
        <time>2019-04-19T07:18:57.000Z</time>
      </trkpt>
      <trkpt lat="38.484634" lon="-0.731499">
        <ele>666</ele>
        <time>2019-04-19T07:18:58.000Z</time>
      </trkpt>
      <trkpt lat="38.484641" lon="-0.731454">
        <ele>666</ele>
        <time>2019-04-19T07:19:00.000Z</time>
      </trkpt>
      <trkpt lat="38.484646" lon="-0.731424">
        <ele>664.791206008946</ele>
        <time>2019-04-19T07:19:01.000Z</time>
      </trkpt>
      <trkpt lat="38.484654" lon="-0.731398">
        <ele>664.64</ele>
        <time>2019-04-19T07:19:02.000Z</time>
      </trkpt>
      <trkpt lat="38.484661" lon="-0.731365">
        <ele>665</ele>
        <time>2019-04-19T07:19:03.000Z</time>
      </trkpt>
      <trkpt lat="38.484669" lon="-0.731334">
        <ele>665</ele>
        <time>2019-04-19T07:19:04.000Z</time>
      </trkpt>
      <trkpt lat="38.484674" lon="-0.731306">
        <ele>665</ele>
        <time>2019-04-19T07:19:05.000Z</time>
      </trkpt>
      <trkpt lat="38.484684" lon="-0.731277">
        <ele>665</ele>
        <time>2019-04-19T07:19:06.000Z</time>
      </trkpt>
      <trkpt lat="38.484694" lon="-0.731249">
        <ele>665</ele>
        <time>2019-04-19T07:19:07.000Z</time>
      </trkpt>
      <trkpt lat="38.484702" lon="-0.731224">
        <ele>665</ele>
        <time>2019-04-19T07:19:08.000Z</time>
      </trkpt>
      <trkpt lat="38.484721" lon="-0.731189">
        <ele>664</ele>
        <time>2019-04-19T07:19:10.000Z</time>
      </trkpt>
      <trkpt lat="38.484753" lon="-0.73117">
        <ele>665</ele>
        <time>2019-04-19T07:19:12.000Z</time>
      </trkpt>
      <trkpt lat="38.484776" lon="-0.731164">
        <ele>665</ele>
        <time>2019-04-19T07:19:13.000Z</time>
      </trkpt>
      <trkpt lat="38.484798" lon="-0.731161">
        <ele>665</ele>
        <time>2019-04-19T07:19:14.000Z</time>
      </trkpt>
      <trkpt lat="38.48482" lon="-0.731157">
        <ele>665</ele>
        <time>2019-04-19T07:19:15.000Z</time>
      </trkpt>
      <trkpt lat="38.484841" lon="-0.731162">
        <ele>665</ele>
        <time>2019-04-19T07:19:16.000Z</time>
      </trkpt>
      <trkpt lat="38.484861" lon="-0.731164">
        <ele>665</ele>
        <time>2019-04-19T07:19:17.000Z</time>
      </trkpt>
      <trkpt lat="38.48488" lon="-0.731167">
        <ele>665</ele>
        <time>2019-04-19T07:19:18.000Z</time>
      </trkpt>
      <trkpt lat="38.484902" lon="-0.731167">
        <ele>665</ele>
        <time>2019-04-19T07:19:19.000Z</time>
      </trkpt>
      <trkpt lat="38.484925" lon="-0.731165">
        <ele>665</ele>
        <time>2019-04-19T07:19:20.000Z</time>
      </trkpt>
      <trkpt lat="38.484947" lon="-0.731161">
        <ele>664.36</ele>
        <time>2019-04-19T07:19:21.000Z</time>
      </trkpt>
      <trkpt lat="38.484968" lon="-0.731159">
        <ele>664</ele>
        <time>2019-04-19T07:19:22.000Z</time>
      </trkpt>
      <trkpt lat="38.485004" lon="-0.731139">
        <ele>665</ele>
        <time>2019-04-19T07:19:24.000Z</time>
      </trkpt>
      <trkpt lat="38.485023" lon="-0.731121">
        <ele>665</ele>
        <time>2019-04-19T07:19:25.000Z</time>
      </trkpt>
      <trkpt lat="38.485041" lon="-0.731099">
        <ele>665</ele>
        <time>2019-04-19T07:19:26.000Z</time>
      </trkpt>
      <trkpt lat="38.485056" lon="-0.731079">
        <ele>665</ele>
        <time>2019-04-19T07:19:27.000Z</time>
      </trkpt>
      <trkpt lat="38.485072" lon="-0.731058">
        <ele>665</ele>
        <time>2019-04-19T07:19:28.000Z</time>
      </trkpt>
      <trkpt lat="38.485087" lon="-0.731037">
        <ele>665</ele>
        <time>2019-04-19T07:19:29.000Z</time>
      </trkpt>
      <trkpt lat="38.485101" lon="-0.731012">
        <ele>665</ele>
        <time>2019-04-19T07:19:30.000Z</time>
      </trkpt>
      <trkpt lat="38.485114" lon="-0.730988">
        <ele>665</ele>
        <time>2019-04-19T07:19:31.000Z</time>
      </trkpt>
      <trkpt lat="38.485124" lon="-0.730966">
        <ele>665</ele>
        <time>2019-04-19T07:19:32.000Z</time>
      </trkpt>
      <trkpt lat="38.485136" lon="-0.730942">
        <ele>665</ele>
        <time>2019-04-19T07:19:33.000Z</time>
      </trkpt>
      <trkpt lat="38.485147" lon="-0.730918">
        <ele>665</ele>
        <time>2019-04-19T07:19:34.000Z</time>
      </trkpt>
      <trkpt lat="38.485158" lon="-0.730891">
        <ele>665</ele>
        <time>2019-04-19T07:19:35.000Z</time>
      </trkpt>
      <trkpt lat="38.485169" lon="-0.730864">
        <ele>665</ele>
        <time>2019-04-19T07:19:36.000Z</time>
      </trkpt>
      <trkpt lat="38.485178" lon="-0.73084">
        <ele>665</ele>
        <time>2019-04-19T07:19:37.000Z</time>
      </trkpt>
      <trkpt lat="38.485186" lon="-0.730818">
        <ele>665</ele>
        <time>2019-04-19T07:19:38.000Z</time>
      </trkpt>
      <trkpt lat="38.485197" lon="-0.730793">
        <ele>665</ele>
        <time>2019-04-19T07:19:39.000Z</time>
      </trkpt>
      <trkpt lat="38.48521" lon="-0.730765">
        <ele>665</ele>
        <time>2019-04-19T07:19:40.000Z</time>
      </trkpt>
      <trkpt lat="38.485217" lon="-0.730738">
        <ele>665</ele>
        <time>2019-04-19T07:19:41.000Z</time>
      </trkpt>
      <trkpt lat="38.485229" lon="-0.730713">
        <ele>665</ele>
        <time>2019-04-19T07:19:42.000Z</time>
      </trkpt>
      <trkpt lat="38.485241" lon="-0.730689">
        <ele>665</ele>
        <time>2019-04-19T07:19:43.000Z</time>
      </trkpt>
      <trkpt lat="38.485244" lon="-0.730662">
        <ele>665</ele>
        <time>2019-04-19T07:19:44.000Z</time>
      </trkpt>
      <trkpt lat="38.485245" lon="-0.730638">
        <ele>665</ele>
        <time>2019-04-19T07:19:45.000Z</time>
      </trkpt>
      <trkpt lat="38.485239" lon="-0.730614">
        <ele>665.633665373989</ele>
        <time>2019-04-19T07:19:46.000Z</time>
      </trkpt>
      <trkpt lat="38.485218" lon="-0.730593">
        <ele>667</ele>
        <time>2019-04-19T07:19:48.000Z</time>
      </trkpt>
      <trkpt lat="38.485186" lon="-0.730583">
        <ele>668</ele>
        <time>2019-04-19T07:19:50.000Z</time>
      </trkpt>
      <trkpt lat="38.485159" lon="-0.730578">
        <ele>668.63636481175</ele>
        <time>2019-04-19T07:19:52.000Z</time>
      </trkpt>
      <trkpt lat="38.48513" lon="-0.730573">
        <ele>669</ele>
        <time>2019-04-19T07:19:54.000Z</time>
      </trkpt>
      <trkpt lat="38.485102" lon="-0.73057">
        <ele>669.411764705882</ele>
        <time>2019-04-19T07:19:56.000Z</time>
      </trkpt>
      <trkpt lat="38.485075" lon="-0.730565">
        <ele>670</ele>
        <time>2019-04-19T07:19:58.000Z</time>
      </trkpt>
      <trkpt lat="38.485052" lon="-0.730565">
        <ele>671</ele>
        <time>2019-04-19T07:20:00.000Z</time>
      </trkpt>
      <trkpt lat="38.485031" lon="-0.730564">
        <ele>671</ele>
        <time>2019-04-19T07:20:02.000Z</time>
      </trkpt>
      <trkpt lat="38.485009" lon="-0.730556">
        <ele>672</ele>
        <time>2019-04-19T07:20:04.000Z</time>
      </trkpt>
      <trkpt lat="38.484988" lon="-0.730556">
        <ele>672</ele>
        <time>2019-04-19T07:20:06.000Z</time>
      </trkpt>
      <trkpt lat="38.484969" lon="-0.730555">
        <ele>672.64</ele>
        <time>2019-04-19T07:20:08.000Z</time>
      </trkpt>
      <trkpt lat="38.484947" lon="-0.730548">
        <ele>673</ele>
        <time>2019-04-19T07:20:11.000Z</time>
      </trkpt>
      <trkpt lat="38.484919" lon="-0.730535">
        <ele>673</ele>
        <time>2019-04-19T07:20:14.000Z</time>
      </trkpt>
      <trkpt lat="38.484897" lon="-0.730531">
        <ele>673</ele>
        <time>2019-04-19T07:20:16.000Z</time>
      </trkpt>
      <trkpt lat="38.484875" lon="-0.730528">
        <ele>673</ele>
        <time>2019-04-19T07:20:18.000Z</time>
      </trkpt>
      <trkpt lat="38.484855" lon="-0.730525">
        <ele>673</ele>
        <time>2019-04-19T07:20:20.000Z</time>
      </trkpt>
      <trkpt lat="38.484831" lon="-0.730518">
        <ele>673</ele>
        <time>2019-04-19T07:20:23.000Z</time>
      </trkpt>
      <trkpt lat="38.484807" lon="-0.730505">
        <ele>674.64</ele>
        <time>2019-04-19T07:20:26.000Z</time>
      </trkpt>
      <trkpt lat="38.48479" lon="-0.730488">
        <ele>675</ele>
        <time>2019-04-19T07:20:29.000Z</time>
      </trkpt>
      <trkpt lat="38.484772" lon="-0.73047">
        <ele>675.64</ele>
        <time>2019-04-19T07:20:32.000Z</time>
      </trkpt>
      <trkpt lat="38.484755" lon="-0.730463">
        <ele>677</ele>
        <time>2019-04-19T07:20:36.000Z</time>
      </trkpt>
      <trkpt lat="38.484735" lon="-0.730462">
        <ele>678</ele>
        <time>2019-04-19T07:21:16.000Z</time>
      </trkpt>
      <trkpt lat="38.484751" lon="-0.730479">
        <ele>678</ele>
        <time>2019-04-19T07:21:23.000Z</time>
      </trkpt>
      <trkpt lat="38.484759" lon="-0.730483">
        <ele>677.867366674811</ele>
        <time>2019-04-19T07:21:24.000Z</time>
      </trkpt>
      <trkpt lat="38.487672" lon="-0.734506">
        <ele>619</ele>
        <time>2019-04-19T07:28:02.000Z</time>
      </trkpt>
      <trkpt lat="38.487662" lon="-0.734509">
        <ele>619</ele>
        <time>2019-04-19T07:28:03.000Z</time>
      </trkpt>
      <trkpt lat="38.487641" lon="-0.734496">
        <ele>619</ele>
        <time>2019-04-19T07:28:07.000Z</time>
      </trkpt>
      <trkpt lat="38.487623" lon="-0.734477">
        <ele>619</ele>
        <time>2019-04-19T07:28:09.000Z</time>
      </trkpt>
      <trkpt lat="38.487598" lon="-0.734457">
        <ele>619</ele>
        <time>2019-04-19T07:28:11.000Z</time>
      </trkpt>
      <trkpt lat="38.487581" lon="-0.734446">
        <ele>619</ele>
        <time>2019-04-19T07:28:13.000Z</time>
      </trkpt>
      <trkpt lat="38.487565" lon="-0.734428">
        <ele>619</ele>
        <time>2019-04-19T07:28:15.000Z</time>
      </trkpt>
      <trkpt lat="38.487547" lon="-0.734407">
        <ele>619</ele>
        <time>2019-04-19T07:28:17.000Z</time>
      </trkpt>
      <trkpt lat="38.487525" lon="-0.734391">
        <ele>619</ele>
        <time>2019-04-19T07:28:19.000Z</time>
      </trkpt>
      <trkpt lat="38.487498" lon="-0.734376">
        <ele>619</ele>
        <time>2019-04-19T07:28:21.000Z</time>
      </trkpt>
      <trkpt lat="38.487472" lon="-0.73436">
        <ele>619</ele>
        <time>2019-04-19T07:28:23.000Z</time>
      </trkpt>
      <trkpt lat="38.487447" lon="-0.734344">
        <ele>619</ele>
        <time>2019-04-19T07:28:25.000Z</time>
      </trkpt>
      <trkpt lat="38.487423" lon="-0.734333">
        <ele>619</ele>
        <time>2019-04-19T07:28:27.000Z</time>
      </trkpt>
      <trkpt lat="38.487396" lon="-0.734318">
        <ele>619</ele>
        <time>2019-04-19T07:28:29.000Z</time>
      </trkpt>
      <trkpt lat="38.48737" lon="-0.734305">
        <ele>619</ele>
        <time>2019-04-19T07:28:31.000Z</time>
      </trkpt>
      <trkpt lat="38.487348" lon="-0.734297">
        <ele>619</ele>
        <time>2019-04-19T07:28:33.000Z</time>
      </trkpt>
      <trkpt lat="38.487326" lon="-0.734284">
        <ele>619</ele>
        <time>2019-04-19T07:28:35.000Z</time>
      </trkpt>
      <trkpt lat="38.487303" lon="-0.734268">
        <ele>619</ele>
        <time>2019-04-19T07:28:37.000Z</time>
      </trkpt>
      <trkpt lat="38.487276" lon="-0.734254">
        <ele>620</ele>
        <time>2019-04-19T07:28:39.000Z</time>
      </trkpt>
      <trkpt lat="38.48725" lon="-0.734246">
        <ele>619.36</ele>
        <time>2019-04-19T07:28:43.000Z</time>
      </trkpt>
      <trkpt lat="38.487227" lon="-0.734239">
        <ele>620</ele>
        <time>2019-04-19T07:28:45.000Z</time>
      </trkpt>
      <trkpt lat="38.4872" lon="-0.734229">
        <ele>620</ele>
        <time>2019-04-19T07:28:47.000Z</time>
      </trkpt>
      <trkpt lat="38.487177" lon="-0.734216">
        <ele>621</ele>
        <time>2019-04-19T07:28:49.000Z</time>
      </trkpt>
      <trkpt lat="38.487154" lon="-0.734211">
        <ele>621</ele>
        <time>2019-04-19T07:28:51.000Z</time>
      </trkpt>
      <trkpt lat="38.487127" lon="-0.734205">
        <ele>621</ele>
        <time>2019-04-19T07:28:53.000Z</time>
      </trkpt>
      <trkpt lat="38.487099" lon="-0.734201">
        <ele>620.633665373989</ele>
        <time>2019-04-19T07:28:55.000Z</time>
      </trkpt>
      <trkpt lat="38.487071" lon="-0.734203">
        <ele>621</ele>
        <time>2019-04-19T07:28:57.000Z</time>
      </trkpt>
      <trkpt lat="38.487042" lon="-0.734204">
        <ele>621</ele>
        <time>2019-04-19T07:28:59.000Z</time>
      </trkpt>
      <trkpt lat="38.487015" lon="-0.734207">
        <ele>621</ele>
        <time>2019-04-19T07:29:01.000Z</time>
      </trkpt>
      <trkpt lat="38.486997" lon="-0.734202">
        <ele>621</ele>
        <time>2019-04-19T07:29:06.000Z</time>
      </trkpt>
      <trkpt lat="38.486979" lon="-0.734203">
        <ele>621</ele>
        <time>2019-04-19T07:29:08.000Z</time>
      </trkpt>
      <trkpt lat="38.486958" lon="-0.734207">
        <ele>621.587157687068</ele>
        <time>2019-04-19T07:29:10.000Z</time>
      </trkpt>
      <trkpt lat="38.486937" lon="-0.734209">
        <ele>622</ele>
        <time>2019-04-19T07:29:12.000Z</time>
      </trkpt>
      <trkpt lat="38.486916" lon="-0.734211">
        <ele>622</ele>
        <time>2019-04-19T07:29:14.000Z</time>
      </trkpt>
      <trkpt lat="38.486894" lon="-0.734213">
        <ele>623</ele>
        <time>2019-04-19T07:29:16.000Z</time>
      </trkpt>
      <trkpt lat="38.48687" lon="-0.734214">
        <ele>622.521741550106</ele>
        <time>2019-04-19T07:29:18.000Z</time>
      </trkpt>
      <trkpt lat="38.486848" lon="-0.734219">
        <ele>622</ele>
        <time>2019-04-19T07:29:20.000Z</time>
      </trkpt>
      <trkpt lat="38.486817" lon="-0.734223">
        <ele>622</ele>
        <time>2019-04-19T07:29:22.000Z</time>
      </trkpt>
      <trkpt lat="38.486786" lon="-0.734223">
        <ele>622</ele>
        <time>2019-04-19T07:29:24.000Z</time>
      </trkpt>
      <trkpt lat="38.486759" lon="-0.734229">
        <ele>622</ele>
        <time>2019-04-19T07:29:26.000Z</time>
      </trkpt>
      <trkpt lat="38.486732" lon="-0.734231">
        <ele>623</ele>
        <time>2019-04-19T07:29:28.000Z</time>
      </trkpt>
      <trkpt lat="38.486708" lon="-0.734237">
        <ele>623</ele>
        <time>2019-04-19T07:29:30.000Z</time>
      </trkpt>
      <trkpt lat="38.486686" lon="-0.734249">
        <ele>623</ele>
        <time>2019-04-19T07:29:32.000Z</time>
      </trkpt>
      <trkpt lat="38.486669" lon="-0.734271">
        <ele>623</ele>
        <time>2019-04-19T07:29:34.000Z</time>
      </trkpt>
      <trkpt lat="38.486658" lon="-0.734297">
        <ele>623.48854842492</ele>
        <time>2019-04-19T07:29:36.000Z</time>
      </trkpt>
      <trkpt lat="38.48665" lon="-0.734326">
        <ele>624</ele>
        <time>2019-04-19T07:29:38.000Z</time>
      </trkpt>
      <trkpt lat="38.486647" lon="-0.734355">
        <ele>624</ele>
        <time>2019-04-19T07:29:40.000Z</time>
      </trkpt>
      <trkpt lat="38.486646" lon="-0.734384">
        <ele>624.64</ele>
        <time>2019-04-19T07:29:42.000Z</time>
      </trkpt>
      <trkpt lat="38.486644" lon="-0.734413">
        <ele>625</ele>
        <time>2019-04-19T07:29:44.000Z</time>
      </trkpt>
      <trkpt lat="38.486642" lon="-0.734442">
        <ele>626</ele>
        <time>2019-04-19T07:29:46.000Z</time>
      </trkpt>
      <trkpt lat="38.48664" lon="-0.734471">
        <ele>626</ele>
        <time>2019-04-19T07:29:48.000Z</time>
      </trkpt>
      <trkpt lat="38.486632" lon="-0.7345">
        <ele>626</ele>
        <time>2019-04-19T07:29:50.000Z</time>
      </trkpt>
      <trkpt lat="38.486615" lon="-0.734527">
        <ele>626</ele>
        <time>2019-04-19T07:29:52.000Z</time>
      </trkpt>
      <trkpt lat="38.4866" lon="-0.734551">
        <ele>626</ele>
        <time>2019-04-19T07:29:54.000Z</time>
      </trkpt>
      <trkpt lat="38.486587" lon="-0.734572">
        <ele>627</ele>
        <time>2019-04-19T07:29:56.000Z</time>
      </trkpt>
      <trkpt lat="38.48657" lon="-0.734595">
        <ele>627</ele>
        <time>2019-04-19T07:29:58.000Z</time>
      </trkpt>
      <trkpt lat="38.486555" lon="-0.734616">
        <ele>628</ele>
        <time>2019-04-19T07:30:00.000Z</time>
      </trkpt>
      <trkpt lat="38.486539" lon="-0.734643">
        <ele>628</ele>
        <time>2019-04-19T07:30:02.000Z</time>
      </trkpt>
      <trkpt lat="38.486524" lon="-0.734671">
        <ele>628</ele>
        <time>2019-04-19T07:30:04.000Z</time>
      </trkpt>
      <trkpt lat="38.486508" lon="-0.7347">
        <ele>628</ele>
        <time>2019-04-19T07:30:06.000Z</time>
      </trkpt>
      <trkpt lat="38.486494" lon="-0.734727">
        <ele>628</ele>
        <time>2019-04-19T07:30:08.000Z</time>
      </trkpt>
      <trkpt lat="38.48648" lon="-0.734753">
        <ele>628</ele>
        <time>2019-04-19T07:30:10.000Z</time>
      </trkpt>
      <trkpt lat="38.486468" lon="-0.734782">
        <ele>628.64</ele>
        <time>2019-04-19T07:30:12.000Z</time>
      </trkpt>
      <trkpt lat="38.486454" lon="-0.734808">
        <ele>629.484615460355</ele>
        <time>2019-04-19T07:30:14.000Z</time>
      </trkpt>
      <trkpt lat="38.486444" lon="-0.734834">
        <ele>630</ele>
        <time>2019-04-19T07:30:16.000Z</time>
      </trkpt>
      <trkpt lat="38.48643" lon="-0.734858">
        <ele>630</ele>
        <time>2019-04-19T07:30:18.000Z</time>
      </trkpt>
      <trkpt lat="38.486418" lon="-0.734885">
        <ele>631</ele>
        <time>2019-04-19T07:30:20.000Z</time>
      </trkpt>
      <trkpt lat="38.486408" lon="-0.734912">
        <ele>631</ele>
        <time>2019-04-19T07:30:22.000Z</time>
      </trkpt>
      <trkpt lat="38.4864" lon="-0.734944">
        <ele>631.64</ele>
        <time>2019-04-19T07:30:24.000Z</time>
      </trkpt>
      <trkpt lat="38.486392" lon="-0.734973">
        <ele>632</ele>
        <time>2019-04-19T07:30:26.000Z</time>
      </trkpt>
      <trkpt lat="38.486388" lon="-0.735004">
        <ele>632</ele>
        <time>2019-04-19T07:30:28.000Z</time>
      </trkpt>
      <trkpt lat="38.486386" lon="-0.735039">
        <ele>632</ele>
        <time>2019-04-19T07:30:30.000Z</time>
      </trkpt>
      <trkpt lat="38.486384" lon="-0.73507">
        <ele>632.64</ele>
        <time>2019-04-19T07:30:32.000Z</time>
      </trkpt>
      <trkpt lat="38.48638" lon="-0.735101">
        <ele>633</ele>
        <time>2019-04-19T07:30:34.000Z</time>
      </trkpt>
      <trkpt lat="38.486376" lon="-0.735134">
        <ele>633.617018669063</ele>
        <time>2019-04-19T07:30:36.000Z</time>
      </trkpt>
      <trkpt lat="38.486372" lon="-0.735167">
        <ele>634</ele>
        <time>2019-04-19T07:30:38.000Z</time>
      </trkpt>
      <trkpt lat="38.486364" lon="-0.735197">
        <ele>635</ele>
        <time>2019-04-19T07:30:40.000Z</time>
      </trkpt>
      <trkpt lat="38.486352" lon="-0.735226">
        <ele>635</ele>
        <time>2019-04-19T07:30:42.000Z</time>
      </trkpt>
      <trkpt lat="38.48634" lon="-0.735249">
        <ele>636</ele>
        <time>2019-04-19T07:30:44.000Z</time>
      </trkpt>
      <trkpt lat="38.486326" lon="-0.735266">
        <ele>636</ele>
        <time>2019-04-19T07:30:47.000Z</time>
      </trkpt>
      <trkpt lat="38.486308" lon="-0.735279">
        <ele>636</ele>
        <time>2019-04-19T07:30:51.000Z</time>
      </trkpt>
      <trkpt lat="38.486286" lon="-0.735284">
        <ele>636</ele>
        <time>2019-04-19T07:30:53.000Z</time>
      </trkpt>
      <trkpt lat="38.48626" lon="-0.735283">
        <ele>636</ele>
        <time>2019-04-19T07:30:55.000Z</time>
      </trkpt>
      <trkpt lat="38.486236" lon="-0.735283">
        <ele>636</ele>
        <time>2019-04-19T07:30:57.000Z</time>
      </trkpt>
      <trkpt lat="38.486216" lon="-0.735289">
        <ele>636.566373285305</ele>
        <time>2019-04-19T07:30:59.000Z</time>
      </trkpt>
      <trkpt lat="38.486198" lon="-0.735292">
        <ele>637</ele>
        <time>2019-04-19T07:31:01.000Z</time>
      </trkpt>
      <trkpt lat="38.48618" lon="-0.735296">
        <ele>637</ele>
        <time>2019-04-19T07:31:03.000Z</time>
      </trkpt>
      <trkpt lat="38.486161" lon="-0.735304">
        <ele>637</ele>
        <time>2019-04-19T07:31:05.000Z</time>
      </trkpt>
      <trkpt lat="38.48614" lon="-0.73531">
        <ele>637</ele>
        <time>2019-04-19T07:31:07.000Z</time>
      </trkpt>
      <trkpt lat="38.486118" lon="-0.73531">
        <ele>637</ele>
        <time>2019-04-19T07:31:10.000Z</time>
      </trkpt>
      <trkpt lat="38.486093" lon="-0.735302">
        <ele>637</ele>
        <time>2019-04-19T07:31:13.000Z</time>
      </trkpt>
      <trkpt lat="38.486072" lon="-0.735302">
        <ele>638</ele>
        <time>2019-04-19T07:31:16.000Z</time>
      </trkpt>
      <trkpt lat="38.486053" lon="-0.735324">
        <ele>638</ele>
        <time>2019-04-19T07:31:20.000Z</time>
      </trkpt>
      <trkpt lat="38.486036" lon="-0.735338">
        <ele>638.592592592593</ele>
        <time>2019-04-19T07:31:23.000Z</time>
      </trkpt>
      <trkpt lat="38.486016" lon="-0.73535">
        <ele>640</ele>
        <time>2019-04-19T07:31:26.000Z</time>
      </trkpt>
      <trkpt lat="38.485996" lon="-0.73536">
        <ele>641</ele>
        <time>2019-04-19T07:31:29.000Z</time>
      </trkpt>
      <trkpt lat="38.485971" lon="-0.73536">
        <ele>641</ele>
        <time>2019-04-19T07:31:32.000Z</time>
      </trkpt>
      <trkpt lat="38.48595" lon="-0.735362">
        <ele>642</ele>
        <time>2019-04-19T07:31:35.000Z</time>
      </trkpt>
      <trkpt lat="38.485931" lon="-0.735374">
        <ele>643</ele>
        <time>2019-04-19T07:31:39.000Z</time>
      </trkpt>
      <trkpt lat="38.485912" lon="-0.735372">
        <ele>643</ele>
        <time>2019-04-19T07:31:42.000Z</time>
      </trkpt>
      <trkpt lat="38.485894" lon="-0.73537">
        <ele>643</ele>
        <time>2019-04-19T07:31:44.000Z</time>
      </trkpt>
      <trkpt lat="38.485872" lon="-0.735366">
        <ele>644</ele>
        <time>2019-04-19T07:31:52.000Z</time>
      </trkpt>
      <trkpt lat="38.485849" lon="-0.735364">
        <ele>644.64</ele>
        <time>2019-04-19T07:31:54.000Z</time>
      </trkpt>
      <trkpt lat="38.485828" lon="-0.735368">
        <ele>645</ele>
        <time>2019-04-19T07:31:56.000Z</time>
      </trkpt>
      <trkpt lat="38.485801" lon="-0.735365">
        <ele>645</ele>
        <time>2019-04-19T07:31:59.000Z</time>
      </trkpt>
      <trkpt lat="38.485779" lon="-0.735369">
        <ele>645</ele>
        <time>2019-04-19T07:32:01.000Z</time>
      </trkpt>
      <trkpt lat="38.485757" lon="-0.735364">
        <ele>645</ele>
        <time>2019-04-19T07:32:03.000Z</time>
      </trkpt>
      <trkpt lat="38.485737" lon="-0.735361">
        <ele>645</ele>
        <time>2019-04-19T07:32:05.000Z</time>
      </trkpt>
      <trkpt lat="38.485713" lon="-0.735354">
        <ele>646</ele>
        <time>2019-04-19T07:32:07.000Z</time>
      </trkpt>
      <trkpt lat="38.485689" lon="-0.735349">
        <ele>646</ele>
        <time>2019-04-19T07:32:09.000Z</time>
      </trkpt>
      <trkpt lat="38.485663" lon="-0.735345">
        <ele>646</ele>
        <time>2019-04-19T07:32:11.000Z</time>
      </trkpt>
      <trkpt lat="38.485638" lon="-0.735335">
        <ele>646</ele>
        <time>2019-04-19T07:32:13.000Z</time>
      </trkpt>
      <trkpt lat="38.485613" lon="-0.735328">
        <ele>647</ele>
        <time>2019-04-19T07:32:15.000Z</time>
      </trkpt>
      <trkpt lat="38.48559" lon="-0.735321">
        <ele>647</ele>
        <time>2019-04-19T07:32:17.000Z</time>
      </trkpt>
      <trkpt lat="38.48557" lon="-0.73531">
        <ele>647</ele>
        <time>2019-04-19T07:32:19.000Z</time>
      </trkpt>
      <trkpt lat="38.485548" lon="-0.735298">
        <ele>648</ele>
        <time>2019-04-19T07:32:21.000Z</time>
      </trkpt>
      <trkpt lat="38.485526" lon="-0.735293">
        <ele>648</ele>
        <time>2019-04-19T07:32:23.000Z</time>
      </trkpt>
      <trkpt lat="38.485502" lon="-0.735286">
        <ele>649</ele>
        <time>2019-04-19T07:32:25.000Z</time>
      </trkpt>
      <trkpt lat="38.485481" lon="-0.73528">
        <ele>649</ele>
        <time>2019-04-19T07:32:27.000Z</time>
      </trkpt>
      <trkpt lat="38.485462" lon="-0.735268">
        <ele>649</ele>
        <time>2019-04-19T07:32:29.000Z</time>
      </trkpt>
      <trkpt lat="38.485442" lon="-0.735251">
        <ele>649</ele>
        <time>2019-04-19T07:32:31.000Z</time>
      </trkpt>
      <trkpt lat="38.485428" lon="-0.735235">
        <ele>650</ele>
        <time>2019-04-19T07:32:33.000Z</time>
      </trkpt>
      <trkpt lat="38.485402" lon="-0.735217">
        <ele>651</ele>
        <time>2019-04-19T07:32:38.000Z</time>
      </trkpt>
      <trkpt lat="38.485383" lon="-0.735209">
        <ele>651</ele>
        <time>2019-04-19T07:32:40.000Z</time>
      </trkpt>
      <trkpt lat="38.485362" lon="-0.7352">
        <ele>652</ele>
        <time>2019-04-19T07:32:42.000Z</time>
      </trkpt>
      <trkpt lat="38.48534" lon="-0.735187">
        <ele>652</ele>
        <time>2019-04-19T07:32:44.000Z</time>
      </trkpt>
      <trkpt lat="38.485317" lon="-0.735176">
        <ele>652</ele>
        <time>2019-04-19T07:32:46.000Z</time>
      </trkpt>
      <trkpt lat="38.485294" lon="-0.735167">
        <ele>653</ele>
        <time>2019-04-19T07:32:48.000Z</time>
      </trkpt>
      <trkpt lat="38.48527" lon="-0.735166">
        <ele>653</ele>
        <time>2019-04-19T07:32:50.000Z</time>
      </trkpt>
      <trkpt lat="38.485247" lon="-0.735166">
        <ele>653</ele>
        <time>2019-04-19T07:32:52.000Z</time>
      </trkpt>
      <trkpt lat="38.485223" lon="-0.735161">
        <ele>654</ele>
        <time>2019-04-19T07:32:54.000Z</time>
      </trkpt>
      <trkpt lat="38.485201" lon="-0.735156">
        <ele>654.587157687068</ele>
        <time>2019-04-19T07:32:56.000Z</time>
      </trkpt>
      <trkpt lat="38.485183" lon="-0.735148">
        <ele>655</ele>
        <time>2019-04-19T07:32:58.000Z</time>
      </trkpt>
      <trkpt lat="38.485166" lon="-0.735134">
        <ele>655</ele>
        <time>2019-04-19T07:33:01.000Z</time>
      </trkpt>
      <trkpt lat="38.485146" lon="-0.735128">
        <ele>655</ele>
        <time>2019-04-19T07:33:03.000Z</time>
      </trkpt>
      <trkpt lat="38.485123" lon="-0.735127">
        <ele>655</ele>
        <time>2019-04-19T07:33:05.000Z</time>
      </trkpt>
      <trkpt lat="38.485096" lon="-0.735128">
        <ele>655</ele>
        <time>2019-04-19T07:33:08.000Z</time>
      </trkpt>
      <trkpt lat="38.485073" lon="-0.735131">
        <ele>655</ele>
        <time>2019-04-19T07:33:10.000Z</time>
      </trkpt>
      <trkpt lat="38.485049" lon="-0.735132">
        <ele>655</ele>
        <time>2019-04-19T07:33:12.000Z</time>
      </trkpt>
      <trkpt lat="38.485026" lon="-0.735136">
        <ele>656</ele>
        <time>2019-04-19T07:33:14.000Z</time>
      </trkpt>
      <trkpt lat="38.485005" lon="-0.735142">
        <ele>656</ele>
        <time>2019-04-19T07:33:16.000Z</time>
      </trkpt>
      <trkpt lat="38.484983" lon="-0.735142">
        <ele>656.64</ele>
        <time>2019-04-19T07:33:18.000Z</time>
      </trkpt>
      <trkpt lat="38.48496" lon="-0.735136">
        <ele>657</ele>
        <time>2019-04-19T07:33:20.000Z</time>
      </trkpt>
      <trkpt lat="38.484935" lon="-0.735138">
        <ele>657.64</ele>
        <time>2019-04-19T07:33:22.000Z</time>
      </trkpt>
      <trkpt lat="38.484912" lon="-0.735136">
        <ele>658</ele>
        <time>2019-04-19T07:33:24.000Z</time>
      </trkpt>
      <trkpt lat="38.48489" lon="-0.735135">
        <ele>658</ele>
        <time>2019-04-19T07:33:26.000Z</time>
      </trkpt>
      <trkpt lat="38.484866" lon="-0.735142">
        <ele>658</ele>
        <time>2019-04-19T07:33:28.000Z</time>
      </trkpt>
      <trkpt lat="38.484846" lon="-0.735156">
        <ele>658</ele>
        <time>2019-04-19T07:33:30.000Z</time>
      </trkpt>
      <trkpt lat="38.484825" lon="-0.735156">
        <ele>659</ele>
        <time>2019-04-19T07:33:32.000Z</time>
      </trkpt>
      <trkpt lat="38.484804" lon="-0.73515">
        <ele>660</ele>
        <time>2019-04-19T07:33:34.000Z</time>
      </trkpt>
      <trkpt lat="38.484784" lon="-0.735156">
        <ele>660</ele>
        <time>2019-04-19T07:33:39.000Z</time>
      </trkpt>
      <trkpt lat="38.484766" lon="-0.73516">
        <ele>660</ele>
        <time>2019-04-19T07:33:44.000Z</time>
      </trkpt>
      <trkpt lat="38.484751" lon="-0.735143">
        <ele>661</ele>
        <time>2019-04-19T07:34:11.000Z</time>
      </trkpt>
      <trkpt lat="38.484732" lon="-0.735139">
        <ele>661</ele>
        <time>2019-04-19T07:34:13.000Z</time>
      </trkpt>
      <trkpt lat="38.484713" lon="-0.735142">
        <ele>661</ele>
        <time>2019-04-19T07:34:15.000Z</time>
      </trkpt>
      <trkpt lat="38.484696" lon="-0.735153">
        <ele>661</ele>
        <time>2019-04-19T07:34:17.000Z</time>
      </trkpt>
      <trkpt lat="38.484676" lon="-0.735149">
        <ele>661</ele>
        <time>2019-04-19T07:34:19.000Z</time>
      </trkpt>
      <trkpt lat="38.484659" lon="-0.73514">
        <ele>661</ele>
        <time>2019-04-19T07:34:21.000Z</time>
      </trkpt>
      <trkpt lat="38.484636" lon="-0.735127">
        <ele>661</ele>
        <time>2019-04-19T07:34:23.000Z</time>
      </trkpt>
      <trkpt lat="38.484612" lon="-0.73512">
        <ele>662</ele>
        <time>2019-04-19T07:34:25.000Z</time>
      </trkpt>
      <trkpt lat="38.484588" lon="-0.73512">
        <ele>662.64</ele>
        <time>2019-04-19T07:34:27.000Z</time>
      </trkpt>
      <trkpt lat="38.484562" lon="-0.735121">
        <ele>663</ele>
        <time>2019-04-19T07:34:29.000Z</time>
      </trkpt>
      <trkpt lat="38.484539" lon="-0.735123">
        <ele>663</ele>
        <time>2019-04-19T07:34:31.000Z</time>
      </trkpt>
      <trkpt lat="38.484517" lon="-0.735119">
        <ele>663</ele>
        <time>2019-04-19T07:34:33.000Z</time>
      </trkpt>
      <trkpt lat="38.484496" lon="-0.735115">
        <ele>663</ele>
        <time>2019-04-19T07:34:35.000Z</time>
      </trkpt>
      <trkpt lat="38.484471" lon="-0.735109">
        <ele>664</ele>
        <time>2019-04-19T07:34:37.000Z</time>
      </trkpt>
      <trkpt lat="38.484452" lon="-0.735105">
        <ele>664</ele>
        <time>2019-04-19T07:34:39.000Z</time>
      </trkpt>
      <trkpt lat="38.484432" lon="-0.735102">
        <ele>664</ele>
        <time>2019-04-19T07:34:41.000Z</time>
      </trkpt>
      <trkpt lat="38.48441" lon="-0.735095">
        <ele>664</ele>
        <time>2019-04-19T07:34:43.000Z</time>
      </trkpt>
      <trkpt lat="38.484384" lon="-0.735083">
        <ele>664</ele>
        <time>2019-04-19T07:34:45.000Z</time>
      </trkpt>
      <trkpt lat="38.484361" lon="-0.735083">
        <ele>664</ele>
        <time>2019-04-19T07:34:47.000Z</time>
      </trkpt>
      <trkpt lat="38.484343" lon="-0.735082">
        <ele>664</ele>
        <time>2019-04-19T07:34:50.000Z</time>
      </trkpt>
      <trkpt lat="38.484316" lon="-0.735089">
        <ele>665</ele>
        <time>2019-04-19T07:34:52.000Z</time>
      </trkpt>
      <trkpt lat="38.484291" lon="-0.735101">
        <ele>665</ele>
        <time>2019-04-19T07:34:54.000Z</time>
      </trkpt>
      <trkpt lat="38.484264" lon="-0.735108">
        <ele>665</ele>
        <time>2019-04-19T07:34:56.000Z</time>
      </trkpt>
      <trkpt lat="38.484242" lon="-0.735112">
        <ele>665.603777230353</ele>
        <time>2019-04-19T07:34:58.000Z</time>
      </trkpt>
      <trkpt lat="38.484223" lon="-0.735116">
        <ele>666</ele>
        <time>2019-04-19T07:35:00.000Z</time>
      </trkpt>
      <trkpt lat="38.484207" lon="-0.735104">
        <ele>667</ele>
        <time>2019-04-19T07:35:06.000Z</time>
      </trkpt>
      <trkpt lat="38.484179" lon="-0.735092">
        <ele>667</ele>
        <time>2019-04-19T07:35:09.000Z</time>
      </trkpt>
      <trkpt lat="38.484164" lon="-0.735078">
        <ele>669</ele>
        <time>2019-04-19T07:35:13.000Z</time>
      </trkpt>
      <trkpt lat="38.48415" lon="-0.735053">
        <ele>669.64</ele>
        <time>2019-04-19T07:35:16.000Z</time>
      </trkpt>
      <trkpt lat="38.48413" lon="-0.735033">
        <ele>671</ele>
        <time>2019-04-19T07:35:19.000Z</time>
      </trkpt>
      <trkpt lat="38.484117" lon="-0.735014">
        <ele>671.612901893856</ele>
        <time>2019-04-19T07:35:21.000Z</time>
      </trkpt>
      <trkpt lat="38.484104" lon="-0.734995">
        <ele>672</ele>
        <time>2019-04-19T07:35:23.000Z</time>
      </trkpt>
      <trkpt lat="38.48408" lon="-0.73498">
        <ele>673</ele>
        <time>2019-04-19T07:35:26.000Z</time>
      </trkpt>
      <trkpt lat="38.484066" lon="-0.734962">
        <ele>673</ele>
        <time>2019-04-19T07:35:33.000Z</time>
      </trkpt>
      <trkpt lat="38.484045" lon="-0.734965">
        <ele>673</ele>
        <time>2019-04-19T07:35:36.000Z</time>
      </trkpt>
      <trkpt lat="38.484031" lon="-0.734986">
        <ele>673</ele>
        <time>2019-04-19T07:35:43.000Z</time>
      </trkpt>
      <trkpt lat="38.484022" lon="-0.735006">
        <ele>673</ele>
        <time>2019-04-19T07:35:45.000Z</time>
      </trkpt>
      <trkpt lat="38.48399" lon="-0.735019">
        <ele>673</ele>
        <time>2019-04-19T07:35:48.000Z</time>
      </trkpt>
      <trkpt lat="38.483967" lon="-0.735033">
        <ele>673.604396995527</ele>
        <time>2019-04-19T07:35:50.000Z</time>
      </trkpt>
      <trkpt lat="38.483941" lon="-0.735042">
        <ele>673.36</ele>
        <time>2019-04-19T07:35:52.000Z</time>
      </trkpt>
      <trkpt lat="38.483913" lon="-0.73505">
        <ele>673</ele>
        <time>2019-04-19T07:35:54.000Z</time>
      </trkpt>
      <trkpt lat="38.483885" lon="-0.735061">
        <ele>673</ele>
        <time>2019-04-19T07:35:56.000Z</time>
      </trkpt>
      <trkpt lat="38.483857" lon="-0.735064">
        <ele>673</ele>
        <time>2019-04-19T07:35:58.000Z</time>
      </trkpt>
      <trkpt lat="38.483832" lon="-0.735074">
        <ele>673</ele>
        <time>2019-04-19T07:36:00.000Z</time>
      </trkpt>
      <trkpt lat="38.483811" lon="-0.735089">
        <ele>672</ele>
        <time>2019-04-19T07:36:02.000Z</time>
      </trkpt>
      <trkpt lat="38.483793" lon="-0.73511">
        <ele>672.612901893856</ele>
        <time>2019-04-19T07:36:04.000Z</time>
      </trkpt>
      <trkpt lat="38.483773" lon="-0.735121">
        <ele>673</ele>
        <time>2019-04-19T07:36:06.000Z</time>
      </trkpt>
      <trkpt lat="38.483753" lon="-0.735119">
        <ele>673</ele>
        <time>2019-04-19T07:36:08.000Z</time>
      </trkpt>
      <trkpt lat="38.483732" lon="-0.73512">
        <ele>674</ele>
        <time>2019-04-19T07:36:10.000Z</time>
      </trkpt>
      <trkpt lat="38.483714" lon="-0.735124">
        <ele>674</ele>
        <time>2019-04-19T07:36:12.000Z</time>
      </trkpt>
      <trkpt lat="38.483696" lon="-0.735136">
        <ele>675</ele>
        <time>2019-04-19T07:36:14.000Z</time>
      </trkpt>
      <trkpt lat="38.483676" lon="-0.735147">
        <ele>676</ele>
        <time>2019-04-19T07:36:16.000Z</time>
      </trkpt>
      <trkpt lat="38.483653" lon="-0.735157">
        <ele>676</ele>
        <time>2019-04-19T07:36:18.000Z</time>
      </trkpt>
      <trkpt lat="38.483635" lon="-0.735168">
        <ele>677</ele>
        <time>2019-04-19T07:36:20.000Z</time>
      </trkpt>
      <trkpt lat="38.483617" lon="-0.735167">
        <ele>677</ele>
        <time>2019-04-19T07:36:22.000Z</time>
      </trkpt>
      <trkpt lat="38.483582" lon="-0.735178">
        <ele>677.64</ele>
        <time>2019-04-19T07:36:24.000Z</time>
      </trkpt>
      <trkpt lat="38.483563" lon="-0.735183">
        <ele>678</ele>
        <time>2019-04-19T07:36:25.000Z</time>
      </trkpt>
      <trkpt lat="38.483532" lon="-0.735204">
        <ele>678</ele>
        <time>2019-04-19T07:36:27.000Z</time>
      </trkpt>
      <trkpt lat="38.483515" lon="-0.735213">
        <ele>678</ele>
        <time>2019-04-19T07:36:28.000Z</time>
      </trkpt>
      <trkpt lat="38.483495" lon="-0.735217">
        <ele>678</ele>
        <time>2019-04-19T07:36:29.000Z</time>
      </trkpt>
      <trkpt lat="38.483475" lon="-0.735218">
        <ele>678</ele>
        <time>2019-04-19T07:36:30.000Z</time>
      </trkpt>
      <trkpt lat="38.483441" lon="-0.73523">
        <ele>679</ele>
        <time>2019-04-19T07:36:32.000Z</time>
      </trkpt>
      <trkpt lat="38.48341" lon="-0.735243">
        <ele>679.48854842492</ele>
        <time>2019-04-19T07:36:34.000Z</time>
      </trkpt>
      <trkpt lat="38.483379" lon="-0.73526">
        <ele>680</ele>
        <time>2019-04-19T07:36:36.000Z</time>
      </trkpt>
      <trkpt lat="38.483363" lon="-0.73527">
        <ele>680</ele>
        <time>2019-04-19T07:36:37.000Z</time>
      </trkpt>
      <trkpt lat="38.483332" lon="-0.735295">
        <ele>681</ele>
        <time>2019-04-19T07:36:39.000Z</time>
      </trkpt>
      <trkpt lat="38.483313" lon="-0.735307">
        <ele>680.407407407407</ele>
        <time>2019-04-19T07:36:40.000Z</time>
      </trkpt>
      <trkpt lat="38.483294" lon="-0.735315">
        <ele>680</ele>
        <time>2019-04-19T07:36:41.000Z</time>
      </trkpt>
      <trkpt lat="38.483273" lon="-0.735321">
        <ele>680</ele>
        <time>2019-04-19T07:36:42.000Z</time>
      </trkpt>
      <trkpt lat="38.483248" lon="-0.73533">
        <ele>680</ele>
        <time>2019-04-19T07:36:43.000Z</time>
      </trkpt>
      <trkpt lat="38.483224" lon="-0.735334">
        <ele>680</ele>
        <time>2019-04-19T07:36:44.000Z</time>
      </trkpt>
      <trkpt lat="38.483198" lon="-0.735335">
        <ele>679.407407407407</ele>
        <time>2019-04-19T07:36:45.000Z</time>
      </trkpt>
      <trkpt lat="38.483164" lon="-0.735327">
        <ele>679</ele>
        <time>2019-04-19T07:36:47.000Z</time>
      </trkpt>
      <trkpt lat="38.483131" lon="-0.735301">
        <ele>679</ele>
        <time>2019-04-19T07:36:49.000Z</time>
      </trkpt>
      <trkpt lat="38.483115" lon="-0.735291">
        <ele>678.36</ele>
        <time>2019-04-19T07:36:50.000Z</time>
      </trkpt>
      <trkpt lat="38.483096" lon="-0.735275">
        <ele>677.36</ele>
        <time>2019-04-19T07:36:52.000Z</time>
      </trkpt>
      <trkpt lat="38.483082" lon="-0.735242">
        <ele>677</ele>
        <time>2019-04-19T07:36:54.000Z</time>
      </trkpt>
      <trkpt lat="38.483068" lon="-0.735209">
        <ele>677</ele>
        <time>2019-04-19T07:36:57.000Z</time>
      </trkpt>
      <trkpt lat="38.483053" lon="-0.735194">
        <ele>677</ele>
        <time>2019-04-19T07:36:59.000Z</time>
      </trkpt>
      <trkpt lat="38.483041" lon="-0.735212">
        <ele>677</ele>
        <time>2019-04-19T07:37:02.000Z</time>
      </trkpt>
      <trkpt lat="38.483028" lon="-0.735232">
        <ele>676</ele>
        <time>2019-04-19T07:37:10.000Z</time>
      </trkpt>
      <trkpt lat="38.483007" lon="-0.735245">
        <ele>677</ele>
        <time>2019-04-19T07:37:12.000Z</time>
      </trkpt>
      <trkpt lat="38.482989" lon="-0.735254">
        <ele>677</ele>
        <time>2019-04-19T07:37:14.000Z</time>
      </trkpt>
      <trkpt lat="38.48297" lon="-0.735255">
        <ele>677.576574914379</ele>
        <time>2019-04-19T07:37:17.000Z</time>
      </trkpt>
      <trkpt lat="38.482955" lon="-0.735239">
        <ele>678</ele>
        <time>2019-04-19T07:37:20.000Z</time>
      </trkpt>
      <trkpt lat="38.482933" lon="-0.735229">
        <ele>679</ele>
        <time>2019-04-19T07:37:23.000Z</time>
      </trkpt>
      <trkpt lat="38.482911" lon="-0.735227">
        <ele>680.64</ele>
        <time>2019-04-19T07:37:26.000Z</time>
      </trkpt>
      <trkpt lat="38.482887" lon="-0.735224">
        <ele>682</ele>
        <time>2019-04-19T07:37:29.000Z</time>
      </trkpt>
      <trkpt lat="38.482865" lon="-0.735216">
        <ele>682</ele>
        <time>2019-04-19T07:37:32.000Z</time>
      </trkpt>
      <trkpt lat="38.482839" lon="-0.735212">
        <ele>682.64</ele>
        <time>2019-04-19T07:37:35.000Z</time>
      </trkpt>
      <trkpt lat="38.482819" lon="-0.735213">
        <ele>683.587157687068</ele>
        <time>2019-04-19T07:37:38.000Z</time>
      </trkpt>
      <trkpt lat="38.482796" lon="-0.735214">
        <ele>685.64</ele>
        <time>2019-04-19T07:37:42.000Z</time>
      </trkpt>
      <trkpt lat="38.482776" lon="-0.735215">
        <ele>686.64</ele>
        <time>2019-04-19T07:37:45.000Z</time>
      </trkpt>
      <trkpt lat="38.482754" lon="-0.735203">
        <ele>687</ele>
        <time>2019-04-19T07:37:48.000Z</time>
      </trkpt>
      <trkpt lat="38.48273" lon="-0.735193">
        <ele>688</ele>
        <time>2019-04-19T07:37:52.000Z</time>
      </trkpt>
      <trkpt lat="38.482714" lon="-0.735175">
        <ele>688</ele>
        <time>2019-04-19T07:37:54.000Z</time>
      </trkpt>
      <trkpt lat="38.482693" lon="-0.735163">
        <ele>688.64</ele>
        <time>2019-04-19T07:37:56.000Z</time>
      </trkpt>
      <trkpt lat="38.48265" lon="-0.73518">
        <ele>690</ele>
        <time>2019-04-19T07:38:00.000Z</time>
      </trkpt>
      <trkpt lat="38.482628" lon="-0.735194">
        <ele>691</ele>
        <time>2019-04-19T07:38:03.000Z</time>
      </trkpt>
      <trkpt lat="38.482609" lon="-0.735196">
        <ele>691</ele>
        <time>2019-04-19T07:38:05.000Z</time>
      </trkpt>
      <trkpt lat="38.482588" lon="-0.735195">
        <ele>691.598129052324</ele>
        <time>2019-04-19T07:38:07.000Z</time>
      </trkpt>
      <trkpt lat="38.48257" lon="-0.735199">
        <ele>692</ele>
        <time>2019-04-19T07:38:09.000Z</time>
      </trkpt>
      <trkpt lat="38.48255" lon="-0.735196">
        <ele>692</ele>
        <time>2019-04-19T07:38:11.000Z</time>
      </trkpt>
      <trkpt lat="38.482527" lon="-0.735199">
        <ele>693</ele>
        <time>2019-04-19T07:38:13.000Z</time>
      </trkpt>
      <trkpt lat="38.482507" lon="-0.735192">
        <ele>694</ele>
        <time>2019-04-19T07:38:15.000Z</time>
      </trkpt>
      <trkpt lat="38.482488" lon="-0.735177">
        <ele>694.409832969616</ele>
        <time>2019-04-19T07:38:17.000Z</time>
      </trkpt>
      <trkpt lat="38.482467" lon="-0.735176">
        <ele>695.64</ele>
        <time>2019-04-19T07:38:27.000Z</time>
      </trkpt>
      <trkpt lat="38.482452" lon="-0.735201">
        <ele>695.628864755018</ele>
        <time>2019-04-19T07:38:39.000Z</time>
      </trkpt>
      <trkpt lat="38.482426" lon="-0.735214">
        <ele>696</ele>
        <time>2019-04-19T07:38:42.000Z</time>
      </trkpt>
      <trkpt lat="38.482402" lon="-0.735226">
        <ele>696</ele>
        <time>2019-04-19T07:38:45.000Z</time>
      </trkpt>
      <trkpt lat="38.48238" lon="-0.735238">
        <ele>697.478258449894</ele>
        <time>2019-04-19T07:38:48.000Z</time>
      </trkpt>
      <trkpt lat="38.482355" lon="-0.735245">
        <ele>698</ele>
        <time>2019-04-19T07:38:50.000Z</time>
      </trkpt>
      <trkpt lat="38.482336" lon="-0.73526">
        <ele>698.64</ele>
        <time>2019-04-19T07:38:52.000Z</time>
      </trkpt>
      <trkpt lat="38.482314" lon="-0.735266">
        <ele>699.608695652174</ele>
        <time>2019-04-19T07:38:55.000Z</time>
      </trkpt>
      <trkpt lat="38.482291" lon="-0.735282">
        <ele>700</ele>
        <time>2019-04-19T07:38:59.000Z</time>
      </trkpt>
      <trkpt lat="38.48226" lon="-0.735306">
        <ele>701</ele>
        <time>2019-04-19T07:39:05.000Z</time>
      </trkpt>
      <trkpt lat="38.48221" lon="-0.735355">
        <ele>703</ele>
        <time>2019-04-19T07:39:11.000Z</time>
      </trkpt>
      <trkpt lat="38.482198" lon="-0.735374">
        <ele>703</ele>
        <time>2019-04-19T07:39:13.000Z</time>
      </trkpt>
      <trkpt lat="38.482181" lon="-0.735397">
        <ele>704</ele>
        <time>2019-04-19T07:39:15.000Z</time>
      </trkpt>
      <trkpt lat="38.482173" lon="-0.73542">
        <ele>704.63636481175</ele>
        <time>2019-04-19T07:39:17.000Z</time>
      </trkpt>
      <trkpt lat="38.482159" lon="-0.73544">
        <ele>705.604396995527</ele>
        <time>2019-04-19T07:39:19.000Z</time>
      </trkpt>
      <trkpt lat="38.482143" lon="-0.735452">
        <ele>706.633665373989</ele>
        <time>2019-04-19T07:39:21.000Z</time>
      </trkpt>
      <trkpt lat="38.482129" lon="-0.735484">
        <ele>707</ele>
        <time>2019-04-19T07:39:24.000Z</time>
      </trkpt>
      <trkpt lat="38.482102" lon="-0.735525">
        <ele>709</ele>
        <time>2019-04-19T07:39:32.000Z</time>
      </trkpt>
      <trkpt lat="38.482052" lon="-0.735563">
        <ele>710</ele>
        <time>2019-04-19T07:39:39.000Z</time>
      </trkpt>
      <trkpt lat="38.482035" lon="-0.735573">
        <ele>712</ele>
        <time>2019-04-19T07:39:43.000Z</time>
      </trkpt>
      <trkpt lat="38.482025" lon="-0.735603">
        <ele>713.64</ele>
        <time>2019-04-19T07:39:48.000Z</time>
      </trkpt>
      <trkpt lat="38.48197" lon="-0.735666">
        <ele>716.609525667126</ele>
        <time>2019-04-19T07:39:59.000Z</time>
      </trkpt>
      <trkpt lat="38.481946" lon="-0.735755">
        <ele>718</ele>
        <time>2019-04-19T07:40:09.000Z</time>
      </trkpt>
      <trkpt lat="38.48193" lon="-0.735776">
        <ele>718</ele>
        <time>2019-04-19T07:40:12.000Z</time>
      </trkpt>
      <trkpt lat="38.481912" lon="-0.73579">
        <ele>719.617018669063</ele>
        <time>2019-04-19T07:40:16.000Z</time>
      </trkpt>
      <trkpt lat="38.481892" lon="-0.735803">
        <ele>720.64</ele>
        <time>2019-04-19T07:40:19.000Z</time>
      </trkpt>
      <trkpt lat="38.481878" lon="-0.735821">
        <ele>722</ele>
        <time>2019-04-19T07:40:22.000Z</time>
      </trkpt>
      <trkpt lat="38.481798" lon="-0.735816">
        <ele>725</ele>
        <time>2019-04-19T07:40:34.000Z</time>
      </trkpt>
      <trkpt lat="38.48178" lon="-0.735801">
        <ele>726</ele>
        <time>2019-04-19T07:40:37.000Z</time>
      </trkpt>
      <trkpt lat="38.481762" lon="-0.735783">
        <ele>727</ele>
        <time>2019-04-19T07:40:41.000Z</time>
      </trkpt>
      <trkpt lat="38.481745" lon="-0.735784">
        <ele>727</ele>
        <time>2019-04-19T07:40:43.000Z</time>
      </trkpt>
      <trkpt lat="38.481722" lon="-0.735776">
        <ele>727.486403340109</ele>
        <time>2019-04-19T07:40:46.000Z</time>
      </trkpt>
      <trkpt lat="38.481704" lon="-0.735765">
        <ele>728</ele>
        <time>2019-04-19T07:40:49.000Z</time>
      </trkpt>
      <trkpt lat="38.481664" lon="-0.7357">
        <ele>734</ele>
        <time>2019-04-19T07:41:07.000Z</time>
      </trkpt>
      <trkpt lat="38.48164" lon="-0.735687">
        <ele>735</ele>
        <time>2019-04-19T07:41:11.000Z</time>
      </trkpt>
      <trkpt lat="38.481623" lon="-0.735678">
        <ele>736</ele>
        <time>2019-04-19T07:41:13.000Z</time>
      </trkpt>
      <trkpt lat="38.481606" lon="-0.735669">
        <ele>736</ele>
        <time>2019-04-19T07:41:16.000Z</time>
      </trkpt>
      <trkpt lat="38.481595" lon="-0.735644">
        <ele>737.486403340109</ele>
        <time>2019-04-19T07:41:20.000Z</time>
      </trkpt>
      <trkpt lat="38.481581" lon="-0.735624">
        <ele>738</ele>
        <time>2019-04-19T07:41:23.000Z</time>
      </trkpt>
      <trkpt lat="38.481565" lon="-0.735612">
        <ele>738.604150078417</ele>
        <time>2019-04-19T07:41:26.000Z</time>
      </trkpt>
      <trkpt lat="38.481547" lon="-0.735598">
        <ele>739.6409984</ele>
        <time>2019-04-19T07:41:30.000Z</time>
      </trkpt>
      <trkpt lat="38.481535" lon="-0.735576">
        <ele>741</ele>
        <time>2019-04-19T07:41:34.000Z</time>
      </trkpt>
      <trkpt lat="38.48152" lon="-0.735552">
        <ele>742</ele>
        <time>2019-04-19T07:41:37.000Z</time>
      </trkpt>
      <trkpt lat="38.4815" lon="-0.735536">
        <ele>743</ele>
        <time>2019-04-19T07:41:40.000Z</time>
      </trkpt>
      <trkpt lat="38.481478" lon="-0.735531">
        <ele>744</ele>
        <time>2019-04-19T07:41:44.000Z</time>
      </trkpt>
      <trkpt lat="38.481457" lon="-0.735514">
        <ele>745</ele>
        <time>2019-04-19T07:41:47.000Z</time>
      </trkpt>
      <trkpt lat="38.481438" lon="-0.735496">
        <ele>745</ele>
        <time>2019-04-19T07:41:50.000Z</time>
      </trkpt>
      <trkpt lat="38.481422" lon="-0.735486">
        <ele>745</ele>
        <time>2019-04-19T07:41:52.000Z</time>
      </trkpt>
      <trkpt lat="38.481399" lon="-0.735472">
        <ele>746</ele>
        <time>2019-04-19T07:41:55.000Z</time>
      </trkpt>
      <trkpt lat="38.481382" lon="-0.735448">
        <ele>747.494366222575</ele>
        <time>2019-04-19T07:41:58.000Z</time>
      </trkpt>
      <trkpt lat="38.481368" lon="-0.73542">
        <ele>748</ele>
        <time>2019-04-19T07:42:01.000Z</time>
      </trkpt>
      <trkpt lat="38.481357" lon="-0.735398">
        <ele>749</ele>
        <time>2019-04-19T07:42:06.000Z</time>
      </trkpt>
      <trkpt lat="38.481374" lon="-0.735383">
        <ele>749</ele>
        <time>2019-04-19T07:42:18.000Z</time>
      </trkpt>
      <trkpt lat="38.481394" lon="-0.735377">
        <ele>748</ele>
        <time>2019-04-19T07:42:47.000Z</time>
      </trkpt>
      <trkpt lat="38.481394" lon="-0.735347">
        <ele>748.64</ele>
        <time>2019-04-19T07:42:52.000Z</time>
      </trkpt>
      <trkpt lat="38.481388" lon="-0.735314">
        <ele>749</ele>
        <time>2019-04-19T07:42:55.000Z</time>
      </trkpt>
      <trkpt lat="38.481389" lon="-0.735286">
        <ele>749</ele>
        <time>2019-04-19T07:42:57.000Z</time>
      </trkpt>
      <trkpt lat="38.481389" lon="-0.735256">
        <ele>749</ele>
        <time>2019-04-19T07:42:59.000Z</time>
      </trkpt>
      <trkpt lat="38.481387" lon="-0.735228">
        <ele>749</ele>
        <time>2019-04-19T07:43:01.000Z</time>
      </trkpt>
      <trkpt lat="38.481389" lon="-0.735203">
        <ele>749</ele>
        <time>2019-04-19T07:43:03.000Z</time>
      </trkpt>
      <trkpt lat="38.481406" lon="-0.735198">
        <ele>749</ele>
        <time>2019-04-19T07:43:12.000Z</time>
      </trkpt>
      <trkpt lat="38.48139" lon="-0.735183">
        <ele>749</ele>
        <time>2019-04-19T07:43:51.000Z</time>
      </trkpt>
      <trkpt lat="38.481368" lon="-0.735165">
        <ele>749</ele>
        <time>2019-04-19T07:43:54.000Z</time>
      </trkpt>
      <trkpt lat="38.481357" lon="-0.735146">
        <ele>748</ele>
        <time>2019-04-19T07:43:56.000Z</time>
      </trkpt>
      <trkpt lat="38.481348" lon="-0.735124">
        <ele>748.609525667126</ele>
        <time>2019-04-19T07:43:58.000Z</time>
      </trkpt>
      <trkpt lat="38.481329" lon="-0.735111">
        <ele>749</ele>
        <time>2019-04-19T07:44:00.000Z</time>
      </trkpt>
      <trkpt lat="38.481314" lon="-0.735095">
        <ele>748</ele>
        <time>2019-04-19T07:44:02.000Z</time>
      </trkpt>
      <trkpt lat="38.481302" lon="-0.735078">
        <ele>748</ele>
        <time>2019-04-19T07:44:04.000Z</time>
      </trkpt>
      <trkpt lat="38.481293" lon="-0.735052">
        <ele>748</ele>
        <time>2019-04-19T07:44:07.000Z</time>
      </trkpt>
      <trkpt lat="38.481285" lon="-0.735031">
        <ele>747.378946091971</ele>
        <time>2019-04-19T07:44:09.000Z</time>
      </trkpt>
      <trkpt lat="38.481279" lon="-0.735004">
        <ele>747</ele>
        <time>2019-04-19T07:44:12.000Z</time>
      </trkpt>
      <trkpt lat="38.481269" lon="-0.734971">
        <ele>746</ele>
        <time>2019-04-19T07:44:15.000Z</time>
      </trkpt>
      <trkpt lat="38.481266" lon="-0.734944">
        <ele>746</ele>
        <time>2019-04-19T07:44:17.000Z</time>
      </trkpt>
      <trkpt lat="38.481267" lon="-0.734916">
        <ele>746</ele>
        <time>2019-04-19T07:44:19.000Z</time>
      </trkpt>
      <trkpt lat="38.481268" lon="-0.734892">
        <ele>746</ele>
        <time>2019-04-19T07:44:21.000Z</time>
      </trkpt>
      <trkpt lat="38.481259" lon="-0.73487">
        <ele>747</ele>
        <time>2019-04-19T07:44:24.000Z</time>
      </trkpt>
      <trkpt lat="38.481242" lon="-0.734847">
        <ele>747</ele>
        <time>2019-04-19T07:44:27.000Z</time>
      </trkpt>
      <trkpt lat="38.48123" lon="-0.734823">
        <ele>747</ele>
        <time>2019-04-19T07:44:31.000Z</time>
      </trkpt>
      <trkpt lat="38.481224" lon="-0.734796">
        <ele>747</ele>
        <time>2019-04-19T07:44:35.000Z</time>
      </trkpt>
      <trkpt lat="38.481214" lon="-0.734774">
        <ele>747</ele>
        <time>2019-04-19T07:44:38.000Z</time>
      </trkpt>
      <trkpt lat="38.481205" lon="-0.734742">
        <ele>747</ele>
        <time>2019-04-19T07:44:41.000Z</time>
      </trkpt>
      <trkpt lat="38.481202" lon="-0.734714">
        <ele>747</ele>
        <time>2019-04-19T07:44:43.000Z</time>
      </trkpt>
      <trkpt lat="38.481194" lon="-0.73469">
        <ele>747</ele>
        <time>2019-04-19T07:44:46.000Z</time>
      </trkpt>
      <trkpt lat="38.481187" lon="-0.734665">
        <ele>746</ele>
        <time>2019-04-19T07:44:49.000Z</time>
      </trkpt>
      <trkpt lat="38.481176" lon="-0.734638">
        <ele>745.36</ele>
        <time>2019-04-19T07:44:52.000Z</time>
      </trkpt>
      <trkpt lat="38.481172" lon="-0.734607">
        <ele>746</ele>
        <time>2019-04-19T07:44:56.000Z</time>
      </trkpt>
      <trkpt lat="38.481159" lon="-0.734582">
        <ele>746</ele>
        <time>2019-04-19T07:44:59.000Z</time>
      </trkpt>
      <trkpt lat="38.48115" lon="-0.734557">
        <ele>746</ele>
        <time>2019-04-19T07:45:02.000Z</time>
      </trkpt>
      <trkpt lat="38.481135" lon="-0.734539">
        <ele>746</ele>
        <time>2019-04-19T07:45:05.000Z</time>
      </trkpt>
      <trkpt lat="38.481128" lon="-0.734516">
        <ele>746</ele>
        <time>2019-04-19T07:45:24.000Z</time>
      </trkpt>
      <trkpt lat="38.48111" lon="-0.734506">
        <ele>746</ele>
        <time>2019-04-19T07:45:54.000Z</time>
      </trkpt>
      <trkpt lat="38.481089" lon="-0.734494">
        <ele>746</ele>
        <time>2019-04-19T07:45:56.000Z</time>
      </trkpt>
      <trkpt lat="38.481056" lon="-0.734484">
        <ele>746</ele>
        <time>2019-04-19T07:45:58.000Z</time>
      </trkpt>
      <trkpt lat="38.481037" lon="-0.734486">
        <ele>746</ele>
        <time>2019-04-19T07:45:59.000Z</time>
      </trkpt>
      <trkpt lat="38.481008" lon="-0.734499">
        <ele>745</ele>
        <time>2019-04-19T07:46:01.000Z</time>
      </trkpt>
      <trkpt lat="38.48098" lon="-0.734522">
        <ele>745</ele>
        <time>2019-04-19T07:46:03.000Z</time>
      </trkpt>
      <trkpt lat="38.480962" lon="-0.734537">
        <ele>744.619047619048</ele>
        <time>2019-04-19T07:46:04.000Z</time>
      </trkpt>
      <trkpt lat="38.48094" lon="-0.734547">
        <ele>744.02380952381</ele>
        <time>2019-04-19T07:46:05.000Z</time>
      </trkpt>
      <trkpt lat="38.480916" lon="-0.734554">
        <ele>743</ele>
        <time>2019-04-19T07:46:06.000Z</time>
      </trkpt>
      <trkpt lat="38.480894" lon="-0.73456">
        <ele>743</ele>
        <time>2019-04-19T07:46:07.000Z</time>
      </trkpt>
      <trkpt lat="38.480874" lon="-0.734571">
        <ele>743</ele>
        <time>2019-04-19T07:46:08.000Z</time>
      </trkpt>
      <trkpt lat="38.480855" lon="-0.734583">
        <ele>743</ele>
        <time>2019-04-19T07:46:09.000Z</time>
      </trkpt>
      <trkpt lat="38.480833" lon="-0.734595">
        <ele>742.371135244982</ele>
        <time>2019-04-19T07:46:10.000Z</time>
      </trkpt>
      <trkpt lat="38.480811" lon="-0.734608">
        <ele>742</ele>
        <time>2019-04-19T07:46:11.000Z</time>
      </trkpt>
      <trkpt lat="38.480786" lon="-0.734625">
        <ele>742</ele>
        <time>2019-04-19T07:46:12.000Z</time>
      </trkpt>
      <trkpt lat="38.480766" lon="-0.734642">
        <ele>742</ele>
        <time>2019-04-19T07:46:13.000Z</time>
      </trkpt>
      <trkpt lat="38.480749" lon="-0.734658">
        <ele>742</ele>
        <time>2019-04-19T07:46:14.000Z</time>
      </trkpt>
      <trkpt lat="38.480732" lon="-0.734673">
        <ele>741.371135244982</ele>
        <time>2019-04-19T07:46:15.000Z</time>
      </trkpt>
      <trkpt lat="38.480714" lon="-0.734687">
        <ele>741</ele>
        <time>2019-04-19T07:46:16.000Z</time>
      </trkpt>
      <trkpt lat="38.480695" lon="-0.734704">
        <ele>741</ele>
        <time>2019-04-19T07:46:17.000Z</time>
      </trkpt>
      <trkpt lat="38.480678" lon="-0.734729">
        <ele>741</ele>
        <time>2019-04-19T07:46:18.000Z</time>
      </trkpt>
      <trkpt lat="38.480661" lon="-0.734755">
        <ele>741</ele>
        <time>2019-04-19T07:46:19.000Z</time>
      </trkpt>
      <trkpt lat="38.480646" lon="-0.734782">
        <ele>741</ele>
        <time>2019-04-19T07:46:20.000Z</time>
      </trkpt>
      <trkpt lat="38.480629" lon="-0.734807">
        <ele>741</ele>
        <time>2019-04-19T07:46:21.000Z</time>
      </trkpt>
      <trkpt lat="38.48061" lon="-0.734825">
        <ele>741</ele>
        <time>2019-04-19T07:46:22.000Z</time>
      </trkpt>
      <trkpt lat="38.480588" lon="-0.734844">
        <ele>741</ele>
        <time>2019-04-19T07:46:23.000Z</time>
      </trkpt>
      <trkpt lat="38.480568" lon="-0.734866">
        <ele>741</ele>
        <time>2019-04-19T07:46:24.000Z</time>
      </trkpt>
      <trkpt lat="38.480551" lon="-0.734884">
        <ele>741</ele>
        <time>2019-04-19T07:46:25.000Z</time>
      </trkpt>
      <trkpt lat="38.480538" lon="-0.734901">
        <ele>741</ele>
        <time>2019-04-19T07:46:26.000Z</time>
      </trkpt>
      <trkpt lat="38.480522" lon="-0.734914">
        <ele>741</ele>
        <time>2019-04-19T07:46:27.000Z</time>
      </trkpt>
      <trkpt lat="38.480506" lon="-0.73493">
        <ele>741</ele>
        <time>2019-04-19T07:46:28.000Z</time>
      </trkpt>
      <trkpt lat="38.480491" lon="-0.734945">
        <ele>741</ele>
        <time>2019-04-19T07:46:29.000Z</time>
      </trkpt>
      <trkpt lat="38.480476" lon="-0.734961">
        <ele>741</ele>
        <time>2019-04-19T07:46:30.000Z</time>
      </trkpt>
      <trkpt lat="38.480461" lon="-0.734978">
        <ele>741</ele>
        <time>2019-04-19T07:46:31.000Z</time>
      </trkpt>
      <trkpt lat="38.480445" lon="-0.73499">
        <ele>741</ele>
        <time>2019-04-19T07:46:32.000Z</time>
      </trkpt>
      <trkpt lat="38.480427" lon="-0.734999">
        <ele>741</ele>
        <time>2019-04-19T07:46:33.000Z</time>
      </trkpt>
      <trkpt lat="38.480389" lon="-0.735016">
        <ele>741</ele>
        <time>2019-04-19T07:46:35.000Z</time>
      </trkpt>
      <trkpt lat="38.480366" lon="-0.735028">
        <ele>740.418607766383</ele>
        <time>2019-04-19T07:46:36.000Z</time>
      </trkpt>
      <trkpt lat="38.480345" lon="-0.735054">
        <ele>740</ele>
        <time>2019-04-19T07:46:37.000Z</time>
      </trkpt>
      <trkpt lat="38.480328" lon="-0.735081">
        <ele>740</ele>
        <time>2019-04-19T07:46:38.000Z</time>
      </trkpt>
      <trkpt lat="38.480314" lon="-0.735099">
        <ele>739.378946091971</ele>
        <time>2019-04-19T07:46:39.000Z</time>
      </trkpt>
      <trkpt lat="38.480298" lon="-0.735117">
        <ele>739</ele>
        <time>2019-04-19T07:46:40.000Z</time>
      </trkpt>
      <trkpt lat="38.480283" lon="-0.735137">
        <ele>739</ele>
        <time>2019-04-19T07:46:41.000Z</time>
      </trkpt>
      <trkpt lat="38.480271" lon="-0.735161">
        <ele>739.492310115988</ele>
        <time>2019-04-19T07:46:42.000Z</time>
      </trkpt>
      <trkpt lat="38.480261" lon="-0.735188">
        <ele>740</ele>
        <time>2019-04-19T07:46:43.000Z</time>
      </trkpt>
      <trkpt lat="38.480248" lon="-0.735209">
        <ele>740</ele>
        <time>2019-04-19T07:46:44.000Z</time>
      </trkpt>
      <trkpt lat="38.480238" lon="-0.735232">
        <ele>740</ele>
        <time>2019-04-19T07:46:45.000Z</time>
      </trkpt>
      <trkpt lat="38.48023" lon="-0.735255">
        <ele>740</ele>
        <time>2019-04-19T07:46:46.000Z</time>
      </trkpt>
      <trkpt lat="38.480224" lon="-0.73528">
        <ele>740</ele>
        <time>2019-04-19T07:46:47.000Z</time>
      </trkpt>
      <trkpt lat="38.480219" lon="-0.735303">
        <ele>740</ele>
        <time>2019-04-19T07:46:48.000Z</time>
      </trkpt>
      <trkpt lat="38.480214" lon="-0.735326">
        <ele>739.507694731349</ele>
        <time>2019-04-19T07:46:49.000Z</time>
      </trkpt>
      <trkpt lat="38.480207" lon="-0.735353">
        <ele>739</ele>
        <time>2019-04-19T07:46:50.000Z</time>
      </trkpt>
      <trkpt lat="38.480195" lon="-0.735384">
        <ele>738.36</ele>
        <time>2019-04-19T07:46:51.000Z</time>
      </trkpt>
      <trkpt lat="38.48018" lon="-0.735411">
        <ele>737.36</ele>
        <time>2019-04-19T07:46:52.000Z</time>
      </trkpt>
      <trkpt lat="38.480166" lon="-0.735435">
        <ele>737</ele>
        <time>2019-04-19T07:46:53.000Z</time>
      </trkpt>
      <trkpt lat="38.480153" lon="-0.735458">
        <ele>737</ele>
        <time>2019-04-19T07:46:54.000Z</time>
      </trkpt>
      <trkpt lat="38.480138" lon="-0.735477">
        <ele>736.395603004473</ele>
        <time>2019-04-19T07:46:55.000Z</time>
      </trkpt>
      <trkpt lat="38.48012" lon="-0.73549">
        <ele>736</ele>
        <time>2019-04-19T07:46:56.000Z</time>
      </trkpt>
      <trkpt lat="38.480089" lon="-0.735504">
        <ele>735.36</ele>
        <time>2019-04-19T07:46:58.000Z</time>
      </trkpt>
      <trkpt lat="38.480072" lon="-0.735513">
        <ele>734.418178433038</ele>
        <time>2019-04-19T07:46:59.000Z</time>
      </trkpt>
      <trkpt lat="38.480039" lon="-0.735529">
        <ele>733.507694731349</ele>
        <time>2019-04-19T07:47:01.000Z</time>
      </trkpt>
      <trkpt lat="38.480012" lon="-0.735524">
        <ele>733</ele>
        <time>2019-04-19T07:47:02.000Z</time>
      </trkpt>
      <trkpt lat="38.479986" lon="-0.735515">
        <ele>733</ele>
        <time>2019-04-19T07:47:03.000Z</time>
      </trkpt>
      <trkpt lat="38.479966" lon="-0.735499">
        <ele>732.391304347826</ele>
        <time>2019-04-19T07:47:04.000Z</time>
      </trkpt>
      <trkpt lat="38.479952" lon="-0.735481">
        <ele>732</ele>
        <time>2019-04-19T07:47:05.000Z</time>
      </trkpt>
      <trkpt lat="38.479936" lon="-0.735436">
        <ele>732</ele>
        <time>2019-04-19T07:47:07.000Z</time>
      </trkpt>
      <trkpt lat="38.479923" lon="-0.735394">
        <ele>733</ele>
        <time>2019-04-19T07:47:09.000Z</time>
      </trkpt>
      <trkpt lat="38.479917" lon="-0.735371">
        <ele>733</ele>
        <time>2019-04-19T07:47:10.000Z</time>
      </trkpt>
      <trkpt lat="38.479905" lon="-0.73524">
        <ele>733</ele>
        <time>2019-04-19T07:47:14.000Z</time>
      </trkpt>
      <trkpt lat="38.479894" lon="-0.735118">
        <ele>733.64</ele>
        <time>2019-04-19T07:47:18.000Z</time>
      </trkpt>
      <trkpt lat="38.479803" lon="-0.735125">
        <ele>734</ele>
        <time>2019-04-19T07:47:25.000Z</time>
      </trkpt>
      <trkpt lat="38.479721" lon="-0.735182">
        <ele>732</ele>
        <time>2019-04-19T07:47:29.000Z</time>
      </trkpt>
      <trkpt lat="38.479612" lon="-0.735177">
        <ele>731.366334626011</ele>
        <time>2019-04-19T07:47:35.000Z</time>
      </trkpt>
      <trkpt lat="38.479523" lon="-0.735236">
        <ele>731</ele>
        <time>2019-04-19T07:47:41.000Z</time>
      </trkpt>
      <trkpt lat="38.479475" lon="-0.735363">
        <ele>727.391304347826</ele>
        <time>2019-04-19T07:47:46.000Z</time>
      </trkpt>
      <trkpt lat="38.479467" lon="-0.735498">
        <ele>727</ele>
        <time>2019-04-19T07:47:52.000Z</time>
      </trkpt>
      <trkpt lat="38.479453" lon="-0.735618">
        <ele>725</ele>
        <time>2019-04-19T07:47:58.000Z</time>
      </trkpt>
      <trkpt lat="38.479405" lon="-0.735726">
        <ele>725</ele>
        <time>2019-04-19T07:48:05.000Z</time>
      </trkpt>
      <trkpt lat="38.479394" lon="-0.735849">
        <ele>728</ele>
        <time>2019-04-19T07:48:13.000Z</time>
      </trkpt>
      <trkpt lat="38.479383" lon="-0.735933">
        <ele>729</ele>
        <time>2019-04-19T07:48:18.000Z</time>
      </trkpt>
      <trkpt lat="38.479385" lon="-0.735958">
        <ele>729</ele>
        <time>2019-04-19T07:48:19.000Z</time>
      </trkpt>
      <trkpt lat="38.479379" lon="-0.735983">
        <ele>729</ele>
        <time>2019-04-19T07:48:20.000Z</time>
      </trkpt>
      <trkpt lat="38.479366" lon="-0.736012">
        <ele>729</ele>
        <time>2019-04-19T07:48:21.000Z</time>
      </trkpt>
      <trkpt lat="38.47935" lon="-0.73604">
        <ele>728.384615384615</ele>
        <time>2019-04-19T07:48:22.000Z</time>
      </trkpt>
      <trkpt lat="38.479334" lon="-0.736067">
        <ele>727.375</ele>
        <time>2019-04-19T07:48:23.000Z</time>
      </trkpt>
      <trkpt lat="38.479318" lon="-0.736091">
        <ele>727</ele>
        <time>2019-04-19T07:48:24.000Z</time>
      </trkpt>
      <trkpt lat="38.479302" lon="-0.736116">
        <ele>726.571425668949</ele>
        <time>2019-04-19T07:48:25.000Z</time>
      </trkpt>
      <trkpt lat="38.479287" lon="-0.736141">
        <ele>726</ele>
        <time>2019-04-19T07:48:26.000Z</time>
      </trkpt>
      <trkpt lat="38.479274" lon="-0.736168">
        <ele>726.64</ele>
        <time>2019-04-19T07:48:27.000Z</time>
      </trkpt>
      <trkpt lat="38.479264" lon="-0.736198">
        <ele>727</ele>
        <time>2019-04-19T07:48:28.000Z</time>
      </trkpt>
      <trkpt lat="38.479256" lon="-0.736225">
        <ele>726.418178433038</ele>
        <time>2019-04-19T07:48:29.000Z</time>
      </trkpt>
      <trkpt lat="38.479245" lon="-0.736251">
        <ele>726</ele>
        <time>2019-04-19T07:48:30.000Z</time>
      </trkpt>
      <trkpt lat="38.479235" lon="-0.736275">
        <ele>726</ele>
        <time>2019-04-19T07:48:31.000Z</time>
      </trkpt>
      <trkpt lat="38.47922" lon="-0.736294">
        <ele>726</ele>
        <time>2019-04-19T07:48:32.000Z</time>
      </trkpt>
      <trkpt lat="38.479205" lon="-0.736314">
        <ele>726</ele>
        <time>2019-04-19T07:48:33.000Z</time>
      </trkpt>
      <trkpt lat="38.479196" lon="-0.736335">
        <ele>726</ele>
        <time>2019-04-19T07:48:34.000Z</time>
      </trkpt>
      <trkpt lat="38.479189" lon="-0.736358">
        <ele>726</ele>
        <time>2019-04-19T07:48:35.000Z</time>
      </trkpt>
      <trkpt lat="38.479183" lon="-0.736386">
        <ele>726</ele>
        <time>2019-04-19T07:48:36.000Z</time>
      </trkpt>
      <trkpt lat="38.479175" lon="-0.736412">
        <ele>726</ele>
        <time>2019-04-19T07:48:37.000Z</time>
      </trkpt>
      <trkpt lat="38.479166" lon="-0.736437">
        <ele>726</ele>
        <time>2019-04-19T07:48:38.000Z</time>
      </trkpt>
      <trkpt lat="38.479154" lon="-0.736459">
        <ele>726</ele>
        <time>2019-04-19T07:48:39.000Z</time>
      </trkpt>
      <trkpt lat="38.479138" lon="-0.736479">
        <ele>726</ele>
        <time>2019-04-19T07:48:40.000Z</time>
      </trkpt>
      <trkpt lat="38.479121" lon="-0.736495">
        <ele>726</ele>
        <time>2019-04-19T07:48:41.000Z</time>
      </trkpt>
      <trkpt lat="38.479103" lon="-0.73651">
        <ele>726</ele>
        <time>2019-04-19T07:48:42.000Z</time>
      </trkpt>
      <trkpt lat="38.479083" lon="-0.736524">
        <ele>726</ele>
        <time>2019-04-19T07:48:43.000Z</time>
      </trkpt>
      <trkpt lat="38.479061" lon="-0.73654">
        <ele>726</ele>
        <time>2019-04-19T07:48:44.000Z</time>
      </trkpt>
      <trkpt lat="38.479041" lon="-0.736559">
        <ele>726</ele>
        <time>2019-04-19T07:48:45.000Z</time>
      </trkpt>
      <trkpt lat="38.479026" lon="-0.736577">
        <ele>726</ele>
        <time>2019-04-19T07:48:46.000Z</time>
      </trkpt>
      <trkpt lat="38.479012" lon="-0.736596">
        <ele>726</ele>
        <time>2019-04-19T07:48:47.000Z</time>
      </trkpt>
      <trkpt lat="38.479" lon="-0.73662">
        <ele>726</ele>
        <time>2019-04-19T07:48:48.000Z</time>
      </trkpt>
      <trkpt lat="38.478992" lon="-0.736643">
        <ele>725.400002844465</ele>
        <time>2019-04-19T07:48:49.000Z</time>
      </trkpt>
      <trkpt lat="38.478983" lon="-0.736671">
        <ele>726</ele>
        <time>2019-04-19T07:48:51.000Z</time>
      </trkpt>
      <trkpt lat="38.478999" lon="-0.736685">
        <ele>727</ele>
        <time>2019-04-19T07:48:57.000Z</time>
      </trkpt>
      <trkpt lat="38.478999" lon="-0.736713">
        <ele>725.438599642949</ele>
        <time>2019-04-19T07:48:59.000Z</time>
      </trkpt>
      <trkpt lat="38.478996" lon="-0.736756">
        <ele>725</ele>
        <time>2019-04-19T07:49:01.000Z</time>
      </trkpt>
      <trkpt lat="38.478999" lon="-0.736797">
        <ele>725</ele>
        <time>2019-04-19T07:49:03.000Z</time>
      </trkpt>
      <trkpt lat="38.479002" lon="-0.736822">
        <ele>725</ele>
        <time>2019-04-19T07:49:04.000Z</time>
      </trkpt>
      <trkpt lat="38.479006" lon="-0.736847">
        <ele>725</ele>
        <time>2019-04-19T07:49:05.000Z</time>
      </trkpt>
      <trkpt lat="38.479013" lon="-0.73689">
        <ele>725</ele>
        <time>2019-04-19T07:49:07.000Z</time>
      </trkpt>
      <trkpt lat="38.479015" lon="-0.736915">
        <ele>725</ele>
        <time>2019-04-19T07:49:08.000Z</time>
      </trkpt>
      <trkpt lat="38.479016" lon="-0.736941">
        <ele>724.36</ele>
        <time>2019-04-19T07:49:09.000Z</time>
      </trkpt>
      <trkpt lat="38.479016" lon="-0.736965">
        <ele>724</ele>
        <time>2019-04-19T07:49:10.000Z</time>
      </trkpt>
      <trkpt lat="38.479018" lon="-0.737013">
        <ele>723</ele>
        <time>2019-04-19T07:49:12.000Z</time>
      </trkpt>
      <trkpt lat="38.479017" lon="-0.73704">
        <ele>722.36</ele>
        <time>2019-04-19T07:49:13.000Z</time>
      </trkpt>
      <trkpt lat="38.479014" lon="-0.737082">
        <ele>721.507039968271</ele>
        <time>2019-04-19T07:49:15.000Z</time>
      </trkpt>
      <trkpt lat="38.479015" lon="-0.737126">
        <ele>720.36</ele>
        <time>2019-04-19T07:49:17.000Z</time>
      </trkpt>
      <trkpt lat="38.479015" lon="-0.737151">
        <ele>720</ele>
        <time>2019-04-19T07:49:18.000Z</time>
      </trkpt>
      <trkpt lat="38.479015" lon="-0.737179">
        <ele>720</ele>
        <time>2019-04-19T07:49:19.000Z</time>
      </trkpt>
      <trkpt lat="38.479014" lon="-0.737204">
        <ele>719.367344539791</ele>
        <time>2019-04-19T07:49:20.000Z</time>
      </trkpt>
      <trkpt lat="38.479013" lon="-0.737231">
        <ele>718.418178433038</ele>
        <time>2019-04-19T07:49:21.000Z</time>
      </trkpt>
      <trkpt lat="38.479014" lon="-0.737262">
        <ele>718</ele>
        <time>2019-04-19T07:49:22.000Z</time>
      </trkpt>
      <trkpt lat="38.479013" lon="-0.73729">
        <ele>718</ele>
        <time>2019-04-19T07:49:23.000Z</time>
      </trkpt>
      <trkpt lat="38.479008" lon="-0.737321">
        <ele>717.36</ele>
        <time>2019-04-19T07:49:24.000Z</time>
      </trkpt>
      <trkpt lat="38.479004" lon="-0.73735">
        <ele>717</ele>
        <time>2019-04-19T07:49:25.000Z</time>
      </trkpt>
      <trkpt lat="38.479004" lon="-0.737377">
        <ele>716.36</ele>
        <time>2019-04-19T07:49:26.000Z</time>
      </trkpt>
      <trkpt lat="38.479003" lon="-0.737403">
        <ele>716</ele>
        <time>2019-04-19T07:49:27.000Z</time>
      </trkpt>
      <trkpt lat="38.479003" lon="-0.737429">
        <ele>716</ele>
        <time>2019-04-19T07:49:28.000Z</time>
      </trkpt>
      <trkpt lat="38.479006" lon="-0.737453">
        <ele>716</ele>
        <time>2019-04-19T07:49:29.000Z</time>
      </trkpt>
      <trkpt lat="38.479011" lon="-0.737482">
        <ele>716</ele>
        <time>2019-04-19T07:49:30.000Z</time>
      </trkpt>
      <trkpt lat="38.479018" lon="-0.737504">
        <ele>715.507694731349</ele>
        <time>2019-04-19T07:49:31.000Z</time>
      </trkpt>
      <trkpt lat="38.479023" lon="-0.737526">
        <ele>715</ele>
        <time>2019-04-19T07:49:32.000Z</time>
      </trkpt>
      <trkpt lat="38.479026" lon="-0.73755">
        <ele>715</ele>
        <time>2019-04-19T07:49:33.000Z</time>
      </trkpt>
      <trkpt lat="38.479026" lon="-0.737574">
        <ele>714.507039968271</ele>
        <time>2019-04-19T07:49:34.000Z</time>
      </trkpt>
      <trkpt lat="38.479022" lon="-0.737598">
        <ele>714</ele>
        <time>2019-04-19T07:49:35.000Z</time>
      </trkpt>
      <trkpt lat="38.47902" lon="-0.737623">
        <ele>713.36</ele>
        <time>2019-04-19T07:49:36.000Z</time>
      </trkpt>
      <trkpt lat="38.479021" lon="-0.73765">
        <ele>712.36</ele>
        <time>2019-04-19T07:49:37.000Z</time>
      </trkpt>
      <trkpt lat="38.479024" lon="-0.737676">
        <ele>711.36</ele>
        <time>2019-04-19T07:49:38.000Z</time>
      </trkpt>
      <trkpt lat="38.479025" lon="-0.737702">
        <ele>711</ele>
        <time>2019-04-19T07:49:39.000Z</time>
      </trkpt>
      <trkpt lat="38.479026" lon="-0.737727">
        <ele>710.36</ele>
        <time>2019-04-19T07:49:40.000Z</time>
      </trkpt>
      <trkpt lat="38.479025" lon="-0.737751">
        <ele>710</ele>
        <time>2019-04-19T07:49:41.000Z</time>
      </trkpt>
      <trkpt lat="38.47902" lon="-0.737798">
        <ele>710</ele>
        <time>2019-04-19T07:49:43.000Z</time>
      </trkpt>
      <trkpt lat="38.479016" lon="-0.737822">
        <ele>709.36</ele>
        <time>2019-04-19T07:49:44.000Z</time>
      </trkpt>
      <trkpt lat="38.479011" lon="-0.737847">
        <ele>709</ele>
        <time>2019-04-19T07:49:45.000Z</time>
      </trkpt>
      <trkpt lat="38.479002" lon="-0.737888">
        <ele>708</ele>
        <time>2019-04-19T07:49:47.000Z</time>
      </trkpt>
      <trkpt lat="38.478994" lon="-0.737928">
        <ele>707</ele>
        <time>2019-04-19T07:49:49.000Z</time>
      </trkpt>
      <trkpt lat="38.478982" lon="-0.737972">
        <ele>707</ele>
        <time>2019-04-19T07:49:51.000Z</time>
      </trkpt>
      <trkpt lat="38.478967" lon="-0.738012">
        <ele>707</ele>
        <time>2019-04-19T07:49:53.000Z</time>
      </trkpt>
      <trkpt lat="38.478953" lon="-0.738047">
        <ele>706.36</ele>
        <time>2019-04-19T07:49:55.000Z</time>
      </trkpt>
      <trkpt lat="38.478944" lon="-0.738068">
        <ele>705.36</ele>
        <time>2019-04-19T07:49:56.000Z</time>
      </trkpt>
      <trkpt lat="38.478935" lon="-0.73809">
        <ele>704.36</ele>
        <time>2019-04-19T07:49:57.000Z</time>
      </trkpt>
      <trkpt lat="38.478923" lon="-0.738129">
        <ele>703.521741550106</ele>
        <time>2019-04-19T07:49:59.000Z</time>
      </trkpt>
      <trkpt lat="38.478914" lon="-0.738176">
        <ele>701.36</ele>
        <time>2019-04-19T07:50:01.000Z</time>
      </trkpt>
      <trkpt lat="38.478906" lon="-0.738218">
        <ele>701</ele>
        <time>2019-04-19T07:50:03.000Z</time>
      </trkpt>
      <trkpt lat="38.478899" lon="-0.738247">
        <ele>700.36</ele>
        <time>2019-04-19T07:50:04.000Z</time>
      </trkpt>
      <trkpt lat="38.478891" lon="-0.738354">
        <ele>698.36</ele>
        <time>2019-04-19T07:50:08.000Z</time>
      </trkpt>
      <trkpt lat="38.478894" lon="-0.738396">
        <ele>698</ele>
        <time>2019-04-19T07:50:10.000Z</time>
      </trkpt>
      <trkpt lat="38.478893" lon="-0.738422">
        <ele>698</ele>
        <time>2019-04-19T07:50:11.000Z</time>
      </trkpt>
      <trkpt lat="38.478897" lon="-0.738449">
        <ele>698</ele>
        <time>2019-04-19T07:50:12.000Z</time>
      </trkpt>
      <trkpt lat="38.478906" lon="-0.738475">
        <ele>698</ele>
        <time>2019-04-19T07:50:13.000Z</time>
      </trkpt>
      <trkpt lat="38.478915" lon="-0.738505">
        <ele>697.387098106144</ele>
        <time>2019-04-19T07:50:14.000Z</time>
      </trkpt>
      <trkpt lat="38.47892" lon="-0.738532">
        <ele>696.36</ele>
        <time>2019-04-19T07:50:15.000Z</time>
      </trkpt>
      <trkpt lat="38.478929" lon="-0.738554">
        <ele>695.36</ele>
        <time>2019-04-19T07:50:16.000Z</time>
      </trkpt>
      <trkpt lat="38.478941" lon="-0.738591">
        <ele>694</ele>
        <time>2019-04-19T07:50:18.000Z</time>
      </trkpt>
      <trkpt lat="38.478947" lon="-0.738625">
        <ele>694</ele>
        <time>2019-04-19T07:50:20.000Z</time>
      </trkpt>
      <trkpt lat="38.478938" lon="-0.738657">
        <ele>693</ele>
        <time>2019-04-19T07:50:22.000Z</time>
      </trkpt>
      <trkpt lat="38.478923" lon="-0.73869">
        <ele>692</ele>
        <time>2019-04-19T07:50:24.000Z</time>
      </trkpt>
      <trkpt lat="38.478915" lon="-0.738712">
        <ele>691.619633588026</ele>
        <time>2019-04-19T07:50:25.000Z</time>
      </trkpt>
      <trkpt lat="38.478907" lon="-0.738737">
        <ele>691.006133042256</ele>
        <time>2019-04-19T07:50:26.000Z</time>
      </trkpt>
      <trkpt lat="38.478898" lon="-0.738761">
        <ele>690</ele>
        <time>2019-04-19T07:50:27.000Z</time>
      </trkpt>
      <trkpt lat="38.47888" lon="-0.738794">
        <ele>688.36</ele>
        <time>2019-04-19T07:50:29.000Z</time>
      </trkpt>
      <trkpt lat="38.478861" lon="-0.738814">
        <ele>688</ele>
        <time>2019-04-19T07:50:31.000Z</time>
      </trkpt>
      <trkpt lat="38.478835" lon="-0.738819">
        <ele>688</ele>
        <time>2019-04-19T07:50:33.000Z</time>
      </trkpt>
      <trkpt lat="38.478817" lon="-0.738824">
        <ele>687.71296</ele>
        <time>2019-04-19T07:50:34.000Z</time>
      </trkpt>
      <trkpt lat="38.478797" lon="-0.738833">
        <ele>687</ele>
        <time>2019-04-19T07:50:35.000Z</time>
      </trkpt>
      <trkpt lat="38.478779" lon="-0.738844">
        <ele>685.72</ele>
        <time>2019-04-19T07:50:36.000Z</time>
      </trkpt>
      <trkpt lat="38.478761" lon="-0.738857">
        <ele>684.36</ele>
        <time>2019-04-19T07:50:37.000Z</time>
      </trkpt>
      <trkpt lat="38.478744" lon="-0.738865">
        <ele>684.592592592593</ele>
        <time>2019-04-19T07:50:38.000Z</time>
      </trkpt>
      <trkpt lat="38.478727" lon="-0.738874">
        <ele>685</ele>
        <time>2019-04-19T07:50:39.000Z</time>
      </trkpt>
      <trkpt lat="38.478708" lon="-0.738876">
        <ele>684.36</ele>
        <time>2019-04-19T07:50:40.000Z</time>
      </trkpt>
      <trkpt lat="38.478686" lon="-0.738881">
        <ele>684</ele>
        <time>2019-04-19T07:50:41.000Z</time>
      </trkpt>
      <trkpt lat="38.478666" lon="-0.738889">
        <ele>684</ele>
        <time>2019-04-19T07:50:42.000Z</time>
      </trkpt>
      <trkpt lat="38.478645" lon="-0.738894">
        <ele>684</ele>
        <time>2019-04-19T07:50:43.000Z</time>
      </trkpt>
      <trkpt lat="38.478624" lon="-0.738903">
        <ele>683.36</ele>
        <time>2019-04-19T07:50:44.000Z</time>
      </trkpt>
      <trkpt lat="38.478606" lon="-0.738919">
        <ele>683</ele>
        <time>2019-04-19T07:50:45.000Z</time>
      </trkpt>
      <trkpt lat="38.478591" lon="-0.738938">
        <ele>682.36</ele>
        <time>2019-04-19T07:50:46.000Z</time>
      </trkpt>
      <trkpt lat="38.478559" lon="-0.738959">
        <ele>681.407407407407</ele>
        <time>2019-04-19T07:50:48.000Z</time>
      </trkpt>
      <trkpt lat="38.478541" lon="-0.738971">
        <ele>681</ele>
        <time>2019-04-19T07:50:49.000Z</time>
      </trkpt>
      <trkpt lat="38.478525" lon="-0.738986">
        <ele>681</ele>
        <time>2019-04-19T07:50:50.000Z</time>
      </trkpt>
      <trkpt lat="38.478511" lon="-0.739009">
        <ele>681</ele>
        <time>2019-04-19T07:50:51.000Z</time>
      </trkpt>
      <trkpt lat="38.478494" lon="-0.739021">
        <ele>680.53600393217</ele>
        <time>2019-04-19T07:50:52.000Z</time>
      </trkpt>
      <trkpt lat="38.478476" lon="-0.739036">
        <ele>680</ele>
        <time>2019-04-19T07:50:53.000Z</time>
      </trkpt>
      <trkpt lat="38.478458" lon="-0.739052">
        <ele>680</ele>
        <time>2019-04-19T07:50:54.000Z</time>
      </trkpt>
      <trkpt lat="38.478433" lon="-0.739073">
        <ele>680</ele>
        <time>2019-04-19T07:50:56.000Z</time>
      </trkpt>
      <trkpt lat="38.478428" lon="-0.739097">
        <ele>680</ele>
        <time>2019-04-19T07:51:03.000Z</time>
      </trkpt>
      <trkpt lat="38.478416" lon="-0.739114">
        <ele>680</ele>
        <time>2019-04-19T07:51:05.000Z</time>
      </trkpt>
      <trkpt lat="38.478415" lon="-0.739091">
        <ele>680</ele>
        <time>2019-04-19T07:53:36.000Z</time>
      </trkpt>
      <trkpt lat="38.4784" lon="-0.739108">
        <ele>680</ele>
        <time>2019-04-19T07:53:46.000Z</time>
      </trkpt>
      <trkpt lat="38.478366" lon="-0.739114">
        <ele>680</ele>
        <time>2019-04-19T07:53:49.000Z</time>
      </trkpt>
      <trkpt lat="38.478336" lon="-0.739123">
        <ele>680</ele>
        <time>2019-04-19T07:53:51.000Z</time>
      </trkpt>
      <trkpt lat="38.478303" lon="-0.739137">
        <ele>679.366334626011</ele>
        <time>2019-04-19T07:53:53.000Z</time>
      </trkpt>
      <trkpt lat="38.478287" lon="-0.739148">
        <ele>678.36363518825</ele>
        <time>2019-04-19T07:53:54.000Z</time>
      </trkpt>
      <trkpt lat="38.478266" lon="-0.739182">
        <ele>677</ele>
        <time>2019-04-19T07:53:56.000Z</time>
      </trkpt>
      <trkpt lat="38.478262" lon="-0.739207">
        <ele>676.36</ele>
        <time>2019-04-19T07:53:57.000Z</time>
      </trkpt>
      <trkpt lat="38.478255" lon="-0.739245">
        <ele>675.503874738294</ele>
        <time>2019-04-19T07:53:59.000Z</time>
      </trkpt>
      <trkpt lat="38.478233" lon="-0.739277">
        <ele>675</ele>
        <time>2019-04-19T07:54:01.000Z</time>
      </trkpt>
      <trkpt lat="38.478219" lon="-0.739294">
        <ele>675</ele>
        <time>2019-04-19T07:54:02.000Z</time>
      </trkpt>
      <trkpt lat="38.478207" lon="-0.73933">
        <ele>673.36</ele>
        <time>2019-04-19T07:54:04.000Z</time>
      </trkpt>
      <trkpt lat="38.478199" lon="-0.739351">
        <ele>673</ele>
        <time>2019-04-19T07:54:05.000Z</time>
      </trkpt>
      <trkpt lat="38.478196" lon="-0.739375">
        <ele>673</ele>
        <time>2019-04-19T07:54:06.000Z</time>
      </trkpt>
      <trkpt lat="38.478197" lon="-0.7394">
        <ele>673</ele>
        <time>2019-04-19T07:54:07.000Z</time>
      </trkpt>
      <trkpt lat="38.478195" lon="-0.739431">
        <ele>673</ele>
        <time>2019-04-19T07:54:08.000Z</time>
      </trkpt>
      <trkpt lat="38.478191" lon="-0.739463">
        <ele>673</ele>
        <time>2019-04-19T07:54:09.000Z</time>
      </trkpt>
      <trkpt lat="38.478182" lon="-0.73949">
        <ele>673</ele>
        <time>2019-04-19T07:54:10.000Z</time>
      </trkpt>
      <trkpt lat="38.478172" lon="-0.739523">
        <ele>673</ele>
        <time>2019-04-19T07:54:11.000Z</time>
      </trkpt>
      <trkpt lat="38.47816" lon="-0.739553">
        <ele>673</ele>
        <time>2019-04-19T07:54:12.000Z</time>
      </trkpt>
      <trkpt lat="38.478153" lon="-0.739585">
        <ele>673</ele>
        <time>2019-04-19T07:54:13.000Z</time>
      </trkpt>
      <trkpt lat="38.478147" lon="-0.739613">
        <ele>673</ele>
        <time>2019-04-19T07:54:14.000Z</time>
      </trkpt>
      <trkpt lat="38.478146" lon="-0.739641">
        <ele>672.367349337792</ele>
        <time>2019-04-19T07:54:15.000Z</time>
      </trkpt>
      <trkpt lat="38.478141" lon="-0.739666">
        <ele>672</ele>
        <time>2019-04-19T07:54:16.000Z</time>
      </trkpt>
      <trkpt lat="38.478139" lon="-0.739698">
        <ele>672</ele>
        <time>2019-04-19T07:54:17.000Z</time>
      </trkpt>
      <trkpt lat="38.478135" lon="-0.739722">
        <ele>672</ele>
        <time>2019-04-19T07:54:18.000Z</time>
      </trkpt>
      <trkpt lat="38.478125" lon="-0.739742">
        <ele>672</ele>
        <time>2019-04-19T07:54:19.000Z</time>
      </trkpt>
      <trkpt lat="38.478114" lon="-0.739766">
        <ele>672</ele>
        <time>2019-04-19T07:54:20.000Z</time>
      </trkpt>
      <trkpt lat="38.478105" lon="-0.739788">
        <ele>671.391304347826</ele>
        <time>2019-04-19T07:54:21.000Z</time>
      </trkpt>
      <trkpt lat="38.478094" lon="-0.73981">
        <ele>671.633665373989</ele>
        <time>2019-04-19T07:54:22.000Z</time>
      </trkpt>
      <trkpt lat="38.47808" lon="-0.739835">
        <ele>672</ele>
        <time>2019-04-19T07:54:23.000Z</time>
      </trkpt>
      <trkpt lat="38.478068" lon="-0.739861">
        <ele>672</ele>
        <time>2019-04-19T07:54:24.000Z</time>
      </trkpt>
      <trkpt lat="38.478058" lon="-0.739881">
        <ele>672</ele>
        <time>2019-04-19T07:54:25.000Z</time>
      </trkpt>
      <trkpt lat="38.47805" lon="-0.739904">
        <ele>672</ele>
        <time>2019-04-19T07:54:26.000Z</time>
      </trkpt>
      <trkpt lat="38.478037" lon="-0.739923">
        <ele>672</ele>
        <time>2019-04-19T07:54:27.000Z</time>
      </trkpt>
      <trkpt lat="38.478017" lon="-0.739939">
        <ele>672</ele>
        <time>2019-04-19T07:54:28.000Z</time>
      </trkpt>
      <trkpt lat="38.478001" lon="-0.739954">
        <ele>672</ele>
        <time>2019-04-19T07:54:29.000Z</time>
      </trkpt>
      <trkpt lat="38.477972" lon="-0.739971">
        <ele>672</ele>
        <time>2019-04-19T07:54:31.000Z</time>
      </trkpt>
      <trkpt lat="38.477941" lon="-0.739986">
        <ele>672</ele>
        <time>2019-04-19T07:54:33.000Z</time>
      </trkpt>
      <trkpt lat="38.477914" lon="-0.739996">
        <ele>672.64</ele>
        <time>2019-04-19T07:54:35.000Z</time>
      </trkpt>
      <trkpt lat="38.477892" lon="-0.740001">
        <ele>672.503874738294</ele>
        <time>2019-04-19T07:54:37.000Z</time>
      </trkpt>
      <trkpt lat="38.477858" lon="-0.740004">
        <ele>672</ele>
        <time>2019-04-19T07:54:39.000Z</time>
      </trkpt>
      <trkpt lat="38.477825" lon="-0.740001">
        <ele>672</ele>
        <time>2019-04-19T07:54:41.000Z</time>
      </trkpt>
      <trkpt lat="38.477791" lon="-0.74">
        <ele>673</ele>
        <time>2019-04-19T07:54:43.000Z</time>
      </trkpt>
      <trkpt lat="38.477773" lon="-0.74">
        <ele>673</ele>
        <time>2019-04-19T07:54:44.000Z</time>
      </trkpt>
      <trkpt lat="38.477754" lon="-0.740001">
        <ele>673.617023884093</ele>
        <time>2019-04-19T07:54:45.000Z</time>
      </trkpt>
      <trkpt lat="38.477732" lon="-0.739997">
        <ele>675</ele>
        <time>2019-04-19T07:54:47.000Z</time>
      </trkpt>
      <trkpt lat="38.477708" lon="-0.739985">
        <ele>675</ele>
        <time>2019-04-19T07:54:49.000Z</time>
      </trkpt>
      <trkpt lat="38.477677" lon="-0.739971">
        <ele>676.581392233617</ele>
        <time>2019-04-19T07:54:52.000Z</time>
      </trkpt>
      <trkpt lat="38.47765" lon="-0.739973">
        <ele>677</ele>
        <time>2019-04-19T07:54:54.000Z</time>
      </trkpt>
      <trkpt lat="38.477629" lon="-0.739972">
        <ele>677</ele>
        <time>2019-04-19T07:54:56.000Z</time>
      </trkpt>
      <trkpt lat="38.477605" lon="-0.739968">
        <ele>677</ele>
        <time>2019-04-19T07:54:58.000Z</time>
      </trkpt>
      <trkpt lat="38.477582" lon="-0.739964">
        <ele>677</ele>
        <time>2019-04-19T07:55:00.000Z</time>
      </trkpt>
      <trkpt lat="38.477563" lon="-0.739952">
        <ele>678</ele>
        <time>2019-04-19T07:55:02.000Z</time>
      </trkpt>
      <trkpt lat="38.477544" lon="-0.739944">
        <ele>678.625</ele>
        <time>2019-04-19T07:55:04.000Z</time>
      </trkpt>
      <trkpt lat="38.477458" lon="-0.739937">
        <ele>680</ele>
        <time>2019-04-19T07:55:11.000Z</time>
      </trkpt>
      <trkpt lat="38.477417" lon="-0.739929">
        <ele>680</ele>
        <time>2019-04-19T07:55:15.000Z</time>
      </trkpt>
      <trkpt lat="38.477397" lon="-0.73993">
        <ele>680</ele>
        <time>2019-04-19T07:55:17.000Z</time>
      </trkpt>
      <trkpt lat="38.477301" lon="-0.739927">
        <ele>685</ele>
        <time>2019-04-19T07:55:29.000Z</time>
      </trkpt>
      <trkpt lat="38.477282" lon="-0.739947">
        <ele>685.64</ele>
        <time>2019-04-19T07:55:31.000Z</time>
      </trkpt>
      <trkpt lat="38.477254" lon="-0.739988">
        <ele>686</ele>
        <time>2019-04-19T07:55:35.000Z</time>
      </trkpt>
      <trkpt lat="38.477241" lon="-0.740007">
        <ele>686.621357292871</ele>
        <time>2019-04-19T07:55:37.000Z</time>
      </trkpt>
      <trkpt lat="38.477228" lon="-0.740025">
        <ele>687</ele>
        <time>2019-04-19T07:55:39.000Z</time>
      </trkpt>
      <trkpt lat="38.477204" lon="-0.740044">
        <ele>688</ele>
        <time>2019-04-19T07:55:42.000Z</time>
      </trkpt>
      <trkpt lat="38.47718" lon="-0.74006">
        <ele>688</ele>
        <time>2019-04-19T07:55:44.000Z</time>
      </trkpt>
      <trkpt lat="38.477157" lon="-0.740077">
        <ele>688</ele>
        <time>2019-04-19T07:55:46.000Z</time>
      </trkpt>
      <trkpt lat="38.477137" lon="-0.740083">
        <ele>688</ele>
        <time>2019-04-19T07:55:48.000Z</time>
      </trkpt>
      <trkpt lat="38.477117" lon="-0.740092">
        <ele>689</ele>
        <time>2019-04-19T07:55:50.000Z</time>
      </trkpt>
      <trkpt lat="38.477097" lon="-0.740096">
        <ele>689</ele>
        <time>2019-04-19T07:55:52.000Z</time>
      </trkpt>
      <trkpt lat="38.477079" lon="-0.740096">
        <ele>690</ele>
        <time>2019-04-19T07:55:54.000Z</time>
      </trkpt>
      <trkpt lat="38.477059" lon="-0.740098">
        <ele>690</ele>
        <time>2019-04-19T07:55:56.000Z</time>
      </trkpt>
      <trkpt lat="38.477038" lon="-0.740103">
        <ele>690.492960031729</ele>
        <time>2019-04-19T07:55:58.000Z</time>
      </trkpt>
      <trkpt lat="38.477019" lon="-0.7401">
        <ele>692</ele>
        <time>2019-04-19T07:56:00.000Z</time>
      </trkpt>
      <trkpt lat="38.476996" lon="-0.740107">
        <ele>692.64</ele>
        <time>2019-04-19T07:56:04.000Z</time>
      </trkpt>
      <trkpt lat="38.476972" lon="-0.740114">
        <ele>693.608695652174</ele>
        <time>2019-04-19T07:56:08.000Z</time>
      </trkpt>
      <trkpt lat="38.47695" lon="-0.740125">
        <ele>694</ele>
        <time>2019-04-19T07:56:11.000Z</time>
      </trkpt>
      <trkpt lat="38.476924" lon="-0.740134">
        <ele>694.43077135149</ele>
        <time>2019-04-19T07:56:13.000Z</time>
      </trkpt>
      <trkpt lat="38.476902" lon="-0.740148">
        <ele>695</ele>
        <time>2019-04-19T07:56:15.000Z</time>
      </trkpt>
      <trkpt lat="38.476882" lon="-0.740161">
        <ele>696</ele>
        <time>2019-04-19T07:56:17.000Z</time>
      </trkpt>
      <trkpt lat="38.47686" lon="-0.740184">
        <ele>696.64</ele>
        <time>2019-04-19T07:56:19.000Z</time>
      </trkpt>
      <trkpt lat="38.476844" lon="-0.740211">
        <ele>697</ele>
        <time>2019-04-19T07:56:22.000Z</time>
      </trkpt>
      <trkpt lat="38.47683" lon="-0.740233">
        <ele>698</ele>
        <time>2019-04-19T07:56:25.000Z</time>
      </trkpt>
      <trkpt lat="38.476812" lon="-0.740244">
        <ele>698</ele>
        <time>2019-04-19T07:56:27.000Z</time>
      </trkpt>
      <trkpt lat="38.4768" lon="-0.740262">
        <ele>698.64</ele>
        <time>2019-04-19T07:56:29.000Z</time>
      </trkpt>
      <trkpt lat="38.476794" lon="-0.740285">
        <ele>699</ele>
        <time>2019-04-19T07:56:32.000Z</time>
      </trkpt>
      <trkpt lat="38.476774" lon="-0.740307">
        <ele>699.561400357051</ele>
        <time>2019-04-19T07:56:35.000Z</time>
      </trkpt>
      <trkpt lat="38.476762" lon="-0.74033">
        <ele>700</ele>
        <time>2019-04-19T07:56:37.000Z</time>
      </trkpt>
      <trkpt lat="38.47675" lon="-0.740361">
        <ele>701</ele>
        <time>2019-04-19T07:56:40.000Z</time>
      </trkpt>
      <trkpt lat="38.476742" lon="-0.740384">
        <ele>701</ele>
        <time>2019-04-19T07:56:42.000Z</time>
      </trkpt>
      <trkpt lat="38.476732" lon="-0.74041">
        <ele>702.566373285305</ele>
        <time>2019-04-19T07:56:45.000Z</time>
      </trkpt>
      <trkpt lat="38.476736" lon="-0.740435">
        <ele>703</ele>
        <time>2019-04-19T07:56:47.000Z</time>
      </trkpt>
      <trkpt lat="38.476734" lon="-0.74046">
        <ele>703</ele>
        <time>2019-04-19T07:56:49.000Z</time>
      </trkpt>
      <trkpt lat="38.476722" lon="-0.740486">
        <ele>703.362067443503</ele>
        <time>2019-04-19T07:56:51.000Z</time>
      </trkpt>
      <trkpt lat="38.476722" lon="-0.740513">
        <ele>704</ele>
        <time>2019-04-19T07:56:53.000Z</time>
      </trkpt>
      <trkpt lat="38.476724" lon="-0.740542">
        <ele>705</ele>
        <time>2019-04-19T07:56:55.000Z</time>
      </trkpt>
      <trkpt lat="38.47672" lon="-0.740571">
        <ele>706</ele>
        <time>2019-04-19T07:56:58.000Z</time>
      </trkpt>
      <trkpt lat="38.476712" lon="-0.740599">
        <ele>707</ele>
        <time>2019-04-19T07:57:01.000Z</time>
      </trkpt>
      <trkpt lat="38.476699" lon="-0.740622">
        <ele>707</ele>
        <time>2019-04-19T07:57:04.000Z</time>
      </trkpt>
      <trkpt lat="38.476693" lon="-0.740646">
        <ele>707</ele>
        <time>2019-04-19T07:57:07.000Z</time>
      </trkpt>
      <trkpt lat="38.476675" lon="-0.740654">
        <ele>707</ele>
        <time>2019-04-19T07:57:14.000Z</time>
      </trkpt>
      <trkpt lat="38.47667" lon="-0.740629">
        <ele>707</ele>
        <time>2019-04-19T07:57:21.000Z</time>
      </trkpt>
      <trkpt lat="38.476657" lon="-0.740607">
        <ele>707</ele>
        <time>2019-04-19T07:57:24.000Z</time>
      </trkpt>
      <trkpt lat="38.476636" lon="-0.740605">
        <ele>708</ele>
        <time>2019-04-19T07:57:36.000Z</time>
      </trkpt>
      <trkpt lat="38.476614" lon="-0.74059">
        <ele>708</ele>
        <time>2019-04-19T07:57:39.000Z</time>
      </trkpt>
      <trkpt lat="38.476597" lon="-0.740578">
        <ele>708.625</ele>
        <time>2019-04-19T07:57:41.000Z</time>
      </trkpt>
      <trkpt lat="38.476583" lon="-0.74056">
        <ele>709</ele>
        <time>2019-04-19T07:57:43.000Z</time>
      </trkpt>
      <trkpt lat="38.47657" lon="-0.740543">
        <ele>709</ele>
        <time>2019-04-19T07:57:45.000Z</time>
      </trkpt>
      <trkpt lat="38.476553" lon="-0.740526">
        <ele>709</ele>
        <time>2019-04-19T07:57:47.000Z</time>
      </trkpt>
      <trkpt lat="38.476534" lon="-0.740527">
        <ele>710</ele>
        <time>2019-04-19T07:57:54.000Z</time>
      </trkpt>
      <trkpt lat="38.476514" lon="-0.740533">
        <ele>709</ele>
        <time>2019-04-19T07:58:10.000Z</time>
      </trkpt>
      <trkpt lat="38.476496" lon="-0.740537">
        <ele>709</ele>
        <time>2019-04-19T07:58:13.000Z</time>
      </trkpt>
      <trkpt lat="38.476478" lon="-0.740527">
        <ele>709</ele>
        <time>2019-04-19T07:59:19.000Z</time>
      </trkpt>
      <trkpt lat="38.47645" lon="-0.740536">
        <ele>709</ele>
        <time>2019-04-19T07:59:21.000Z</time>
      </trkpt>
      <trkpt lat="38.476419" lon="-0.740553">
        <ele>709</ele>
        <time>2019-04-19T07:59:23.000Z</time>
      </trkpt>
      <trkpt lat="38.4764" lon="-0.74056">
        <ele>709</ele>
        <time>2019-04-19T07:59:24.000Z</time>
      </trkpt>
      <trkpt lat="38.476379" lon="-0.740571">
        <ele>708.015389462698</ele>
        <time>2019-04-19T07:59:25.000Z</time>
      </trkpt>
      <trkpt lat="38.476357" lon="-0.740582">
        <ele>706.514290416369</ele>
        <time>2019-04-19T07:59:26.000Z</time>
      </trkpt>
      <trkpt lat="38.476338" lon="-0.740592">
        <ele>706</ele>
        <time>2019-04-19T07:59:27.000Z</time>
      </trkpt>
      <trkpt lat="38.476316" lon="-0.740604">
        <ele>706</ele>
        <time>2019-04-19T07:59:28.000Z</time>
      </trkpt>
      <trkpt lat="38.476295" lon="-0.740618">
        <ele>705.36</ele>
        <time>2019-04-19T07:59:29.000Z</time>
      </trkpt>
      <trkpt lat="38.476275" lon="-0.740632">
        <ele>705</ele>
        <time>2019-04-19T07:59:30.000Z</time>
      </trkpt>
      <trkpt lat="38.476256" lon="-0.740646">
        <ele>704.36363518825</ele>
        <time>2019-04-19T07:59:31.000Z</time>
      </trkpt>
      <trkpt lat="38.476241" lon="-0.74066">
        <ele>703.36</ele>
        <time>2019-04-19T07:59:32.000Z</time>
      </trkpt>
      <trkpt lat="38.476223" lon="-0.740675">
        <ele>703</ele>
        <time>2019-04-19T07:59:33.000Z</time>
      </trkpt>
      <trkpt lat="38.476208" lon="-0.740692">
        <ele>702.36</ele>
        <time>2019-04-19T07:59:34.000Z</time>
      </trkpt>
      <trkpt lat="38.476193" lon="-0.740708">
        <ele>702</ele>
        <time>2019-04-19T07:59:35.000Z</time>
      </trkpt>
      <trkpt lat="38.476179" lon="-0.740725">
        <ele>702</ele>
        <time>2019-04-19T07:59:36.000Z</time>
      </trkpt>
      <trkpt lat="38.476151" lon="-0.740757">
        <ele>701.384615384615</ele>
        <time>2019-04-19T07:59:38.000Z</time>
      </trkpt>
      <trkpt lat="38.476136" lon="-0.740775">
        <ele>701</ele>
        <time>2019-04-19T07:59:39.000Z</time>
      </trkpt>
      <trkpt lat="38.476119" lon="-0.740793">
        <ele>701</ele>
        <time>2019-04-19T07:59:40.000Z</time>
      </trkpt>
      <trkpt lat="38.476105" lon="-0.74081">
        <ele>700.50781</ele>
        <time>2019-04-19T07:59:41.000Z</time>
      </trkpt>
      <trkpt lat="38.476089" lon="-0.740827">
        <ele>700</ele>
        <time>2019-04-19T07:59:42.000Z</time>
      </trkpt>
      <trkpt lat="38.476071" lon="-0.740844">
        <ele>700</ele>
        <time>2019-04-19T07:59:43.000Z</time>
      </trkpt>
      <trkpt lat="38.476059" lon="-0.740862">
        <ele>699.367344539791</ele>
        <time>2019-04-19T07:59:44.000Z</time>
      </trkpt>
      <trkpt lat="38.476048" lon="-0.740882">
        <ele>699</ele>
        <time>2019-04-19T07:59:45.000Z</time>
      </trkpt>
      <trkpt lat="38.476036" lon="-0.7409">
        <ele>698.36</ele>
        <time>2019-04-19T07:59:46.000Z</time>
      </trkpt>
      <trkpt lat="38.476024" lon="-0.740919">
        <ele>697.36</ele>
        <time>2019-04-19T07:59:47.000Z</time>
      </trkpt>
      <trkpt lat="38.476014" lon="-0.740942">
        <ele>697</ele>
        <time>2019-04-19T07:59:48.000Z</time>
      </trkpt>
      <trkpt lat="38.476005" lon="-0.740967">
        <ele>697</ele>
        <time>2019-04-19T07:59:49.000Z</time>
      </trkpt>
      <trkpt lat="38.475997" lon="-0.740995">
        <ele>696.51145157508</ele>
        <time>2019-04-19T07:59:50.000Z</time>
      </trkpt>
      <trkpt lat="38.475986" lon="-0.741023">
        <ele>696</ele>
        <time>2019-04-19T07:59:51.000Z</time>
      </trkpt>
      <trkpt lat="38.475982" lon="-0.741054">
        <ele>696</ele>
        <time>2019-04-19T07:59:52.000Z</time>
      </trkpt>
      <trkpt lat="38.475982" lon="-0.741084">
        <ele>695.366334626011</ele>
        <time>2019-04-19T07:59:53.000Z</time>
      </trkpt>
      <trkpt lat="38.475977" lon="-0.741116">
        <ele>695</ele>
        <time>2019-04-19T07:59:54.000Z</time>
      </trkpt>
      <trkpt lat="38.475979" lon="-0.741148">
        <ele>695</ele>
        <time>2019-04-19T07:59:55.000Z</time>
      </trkpt>
      <trkpt lat="38.475982" lon="-0.741181">
        <ele>695</ele>
        <time>2019-04-19T07:59:56.000Z</time>
      </trkpt>
      <trkpt lat="38.475992" lon="-0.741212">
        <ele>695</ele>
        <time>2019-04-19T07:59:57.000Z</time>
      </trkpt>
      <trkpt lat="38.475994" lon="-0.741241">
        <ele>694.36</ele>
        <time>2019-04-19T07:59:58.000Z</time>
      </trkpt>
      <trkpt lat="38.475996" lon="-0.74127">
        <ele>694</ele>
        <time>2019-04-19T07:59:59.000Z</time>
      </trkpt>
      <trkpt lat="38.475997" lon="-0.7413">
        <ele>694</ele>
        <time>2019-04-19T08:00:00.000Z</time>
      </trkpt>
      <trkpt lat="38.475996" lon="-0.741335">
        <ele>694</ele>
        <time>2019-04-19T08:00:01.000Z</time>
      </trkpt>
      <trkpt lat="38.475993" lon="-0.741367">
        <ele>694</ele>
        <time>2019-04-19T08:00:02.000Z</time>
      </trkpt>
      <trkpt lat="38.475988" lon="-0.741396">
        <ele>692.7399936</ele>
        <time>2019-04-19T08:00:03.000Z</time>
      </trkpt>
      <trkpt lat="38.475981" lon="-0.741427">
        <ele>692</ele>
        <time>2019-04-19T08:00:04.000Z</time>
      </trkpt>
      <trkpt lat="38.475974" lon="-0.741462">
        <ele>692</ele>
        <time>2019-04-19T08:00:05.000Z</time>
      </trkpt>
      <trkpt lat="38.475962" lon="-0.741497">
        <ele>692</ele>
        <time>2019-04-19T08:00:06.000Z</time>
      </trkpt>
      <trkpt lat="38.475949" lon="-0.74153">
        <ele>692</ele>
        <time>2019-04-19T08:00:07.000Z</time>
      </trkpt>
      <trkpt lat="38.475937" lon="-0.74156">
        <ele>692</ele>
        <time>2019-04-19T08:00:08.000Z</time>
      </trkpt>
      <trkpt lat="38.475925" lon="-0.741594">
        <ele>691.50781</ele>
        <time>2019-04-19T08:00:09.000Z</time>
      </trkpt>
      <trkpt lat="38.475915" lon="-0.741627">
        <ele>691</ele>
        <time>2019-04-19T08:00:10.000Z</time>
      </trkpt>
      <trkpt lat="38.475905" lon="-0.74166">
        <ele>691</ele>
        <time>2019-04-19T08:00:11.000Z</time>
      </trkpt>
      <trkpt lat="38.47589" lon="-0.74169">
        <ele>690.36</ele>
        <time>2019-04-19T08:00:12.000Z</time>
      </trkpt>
      <trkpt lat="38.475873" lon="-0.741719">
        <ele>690</ele>
        <time>2019-04-19T08:00:13.000Z</time>
      </trkpt>
      <trkpt lat="38.475854" lon="-0.741743">
        <ele>690</ele>
        <time>2019-04-19T08:00:14.000Z</time>
      </trkpt>
      <trkpt lat="38.475834" lon="-0.741765">
        <ele>690</ele>
        <time>2019-04-19T08:00:15.000Z</time>
      </trkpt>
      <trkpt lat="38.475814" lon="-0.74179">
        <ele>690</ele>
        <time>2019-04-19T08:00:16.000Z</time>
      </trkpt>
      <trkpt lat="38.475795" lon="-0.741816">
        <ele>689.36</ele>
        <time>2019-04-19T08:00:17.000Z</time>
      </trkpt>
      <trkpt lat="38.475774" lon="-0.741834">
        <ele>689</ele>
        <time>2019-04-19T08:00:18.000Z</time>
      </trkpt>
      <trkpt lat="38.475752" lon="-0.741844">
        <ele>689</ele>
        <time>2019-04-19T08:00:19.000Z</time>
      </trkpt>
      <trkpt lat="38.475728" lon="-0.741855">
        <ele>689</ele>
        <time>2019-04-19T08:00:20.000Z</time>
      </trkpt>
      <trkpt lat="38.475707" lon="-0.741865">
        <ele>689</ele>
        <time>2019-04-19T08:00:21.000Z</time>
      </trkpt>
      <trkpt lat="38.475679" lon="-0.741867">
        <ele>688.409090909091</ele>
        <time>2019-04-19T08:00:22.000Z</time>
      </trkpt>
      <trkpt lat="38.475651" lon="-0.741865">
        <ele>688</ele>
        <time>2019-04-19T08:00:23.000Z</time>
      </trkpt>
      <trkpt lat="38.475625" lon="-0.741866">
        <ele>688</ele>
        <time>2019-04-19T08:00:24.000Z</time>
      </trkpt>
      <trkpt lat="38.475597" lon="-0.741867">
        <ele>688</ele>
        <time>2019-04-19T08:00:25.000Z</time>
      </trkpt>
      <trkpt lat="38.475572" lon="-0.741872">
        <ele>688</ele>
        <time>2019-04-19T08:00:26.000Z</time>
      </trkpt>
      <trkpt lat="38.47555" lon="-0.741883">
        <ele>687.409090909091</ele>
        <time>2019-04-19T08:00:27.000Z</time>
      </trkpt>
      <trkpt lat="38.475531" lon="-0.741895">
        <ele>686.515151515152</ele>
        <time>2019-04-19T08:00:28.000Z</time>
      </trkpt>
      <trkpt lat="38.475509" lon="-0.741914">
        <ele>686</ele>
        <time>2019-04-19T08:00:29.000Z</time>
      </trkpt>
      <trkpt lat="38.475491" lon="-0.741932">
        <ele>686</ele>
        <time>2019-04-19T08:00:30.000Z</time>
      </trkpt>
      <trkpt lat="38.475472" lon="-0.741954">
        <ele>686</ele>
        <time>2019-04-19T08:00:31.000Z</time>
      </trkpt>
      <trkpt lat="38.475457" lon="-0.741978">
        <ele>686</ele>
        <time>2019-04-19T08:00:32.000Z</time>
      </trkpt>
      <trkpt lat="38.475447" lon="-0.742002">
        <ele>686</ele>
        <time>2019-04-19T08:00:33.000Z</time>
      </trkpt>
      <trkpt lat="38.475433" lon="-0.742034">
        <ele>685.36</ele>
        <time>2019-04-19T08:00:35.000Z</time>
      </trkpt>
      <trkpt lat="38.475409" lon="-0.742067">
        <ele>685</ele>
        <time>2019-04-19T08:00:37.000Z</time>
      </trkpt>
      <trkpt lat="38.475393" lon="-0.742088">
        <ele>684.525927049654</ele>
        <time>2019-04-19T08:00:38.000Z</time>
      </trkpt>
      <trkpt lat="38.475379" lon="-0.742111">
        <ele>684</ele>
        <time>2019-04-19T08:00:39.000Z</time>
      </trkpt>
      <trkpt lat="38.475362" lon="-0.742134">
        <ele>684</ele>
        <time>2019-04-19T08:00:40.000Z</time>
      </trkpt>
      <trkpt lat="38.475346" lon="-0.742158">
        <ele>683.40449583639</ele>
        <time>2019-04-19T08:00:41.000Z</time>
      </trkpt>
      <trkpt lat="38.475332" lon="-0.742184">
        <ele>683</ele>
        <time>2019-04-19T08:00:42.000Z</time>
      </trkpt>
      <trkpt lat="38.475319" lon="-0.742214">
        <ele>683</ele>
        <time>2019-04-19T08:00:43.000Z</time>
      </trkpt>
      <trkpt lat="38.475305" lon="-0.742244">
        <ele>683</ele>
        <time>2019-04-19T08:00:44.000Z</time>
      </trkpt>
      <trkpt lat="38.475293" lon="-0.742276">
        <ele>683</ele>
        <time>2019-04-19T08:00:45.000Z</time>
      </trkpt>
      <trkpt lat="38.475281" lon="-0.742305">
        <ele>683</ele>
        <time>2019-04-19T08:00:46.000Z</time>
      </trkpt>
      <trkpt lat="38.475267" lon="-0.742333">
        <ele>682.36</ele>
        <time>2019-04-19T08:00:47.000Z</time>
      </trkpt>
      <trkpt lat="38.475252" lon="-0.742359">
        <ele>682</ele>
        <time>2019-04-19T08:00:48.000Z</time>
      </trkpt>
      <trkpt lat="38.475237" lon="-0.742385">
        <ele>681.367349337792</ele>
        <time>2019-04-19T08:00:49.000Z</time>
      </trkpt>
      <trkpt lat="38.475224" lon="-0.742408">
        <ele>681</ele>
        <time>2019-04-19T08:00:50.000Z</time>
      </trkpt>
      <trkpt lat="38.475211" lon="-0.742434">
        <ele>680.590167030384</ele>
        <time>2019-04-19T08:00:51.000Z</time>
      </trkpt>
      <trkpt lat="38.475199" lon="-0.742462">
        <ele>680</ele>
        <time>2019-04-19T08:00:52.000Z</time>
      </trkpt>
      <trkpt lat="38.475188" lon="-0.742488">
        <ele>680</ele>
        <time>2019-04-19T08:00:53.000Z</time>
      </trkpt>
      <trkpt lat="38.475179" lon="-0.742514">
        <ele>679.382981330937</ele>
        <time>2019-04-19T08:00:54.000Z</time>
      </trkpt>
      <trkpt lat="38.47517" lon="-0.742545">
        <ele>679</ele>
        <time>2019-04-19T08:00:55.000Z</time>
      </trkpt>
      <trkpt lat="38.47516" lon="-0.742576">
        <ele>678.418607766383</ele>
        <time>2019-04-19T08:00:56.000Z</time>
      </trkpt>
      <trkpt lat="38.475153" lon="-0.742608">
        <ele>678</ele>
        <time>2019-04-19T08:00:57.000Z</time>
      </trkpt>
      <trkpt lat="38.475153" lon="-0.742637">
        <ele>677.507039968271</ele>
        <time>2019-04-19T08:00:58.000Z</time>
      </trkpt>
      <trkpt lat="38.475156" lon="-0.742664">
        <ele>677</ele>
        <time>2019-04-19T08:00:59.000Z</time>
      </trkpt>
      <trkpt lat="38.475156" lon="-0.742693">
        <ele>677</ele>
        <time>2019-04-19T08:01:00.000Z</time>
      </trkpt>
      <trkpt lat="38.475156" lon="-0.742727">
        <ele>676.36</ele>
        <time>2019-04-19T08:01:01.000Z</time>
      </trkpt>
      <trkpt lat="38.475159" lon="-0.742761">
        <ele>676</ele>
        <time>2019-04-19T08:01:02.000Z</time>
      </trkpt>
      <trkpt lat="38.475164" lon="-0.742794">
        <ele>676</ele>
        <time>2019-04-19T08:01:03.000Z</time>
      </trkpt>
      <trkpt lat="38.475169" lon="-0.742826">
        <ele>676</ele>
        <time>2019-04-19T08:01:04.000Z</time>
      </trkpt>
      <trkpt lat="38.47517" lon="-0.742857">
        <ele>675.387098106144</ele>
        <time>2019-04-19T08:01:05.000Z</time>
      </trkpt>
      <trkpt lat="38.47517" lon="-0.742889">
        <ele>675</ele>
        <time>2019-04-19T08:01:06.000Z</time>
      </trkpt>
      <trkpt lat="38.475169" lon="-0.742919">
        <ele>675</ele>
        <time>2019-04-19T08:01:07.000Z</time>
      </trkpt>
      <trkpt lat="38.47517" lon="-0.742951">
        <ele>674.36</ele>
        <time>2019-04-19T08:01:08.000Z</time>
      </trkpt>
      <trkpt lat="38.475164" lon="-0.742981">
        <ele>674</ele>
        <time>2019-04-19T08:01:09.000Z</time>
      </trkpt>
      <trkpt lat="38.475157" lon="-0.743008">
        <ele>673.51145157508</ele>
        <time>2019-04-19T08:01:10.000Z</time>
      </trkpt>
      <trkpt lat="38.475152" lon="-0.743037">
        <ele>673</ele>
        <time>2019-04-19T08:01:11.000Z</time>
      </trkpt>
      <trkpt lat="38.475148" lon="-0.743065">
        <ele>672.36</ele>
        <time>2019-04-19T08:01:12.000Z</time>
      </trkpt>
      <trkpt lat="38.475149" lon="-0.743095">
        <ele>671.36</ele>
        <time>2019-04-19T08:01:13.000Z</time>
      </trkpt>
      <trkpt lat="38.475147" lon="-0.743124">
        <ele>670.36</ele>
        <time>2019-04-19T08:01:14.000Z</time>
      </trkpt>
      <trkpt lat="38.475149" lon="-0.743156">
        <ele>670</ele>
        <time>2019-04-19T08:01:15.000Z</time>
      </trkpt>
      <trkpt lat="38.475151" lon="-0.743186">
        <ele>670</ele>
        <time>2019-04-19T08:01:16.000Z</time>
      </trkpt>
      <trkpt lat="38.475152" lon="-0.743218">
        <ele>669.507039968271</ele>
        <time>2019-04-19T08:01:17.000Z</time>
      </trkpt>
      <trkpt lat="38.475151" lon="-0.743248">
        <ele>669</ele>
        <time>2019-04-19T08:01:18.000Z</time>
      </trkpt>
      <trkpt lat="38.475157" lon="-0.743278">
        <ele>669</ele>
        <time>2019-04-19T08:01:19.000Z</time>
      </trkpt>
      <trkpt lat="38.475158" lon="-0.743303">
        <ele>668.36</ele>
        <time>2019-04-19T08:01:20.000Z</time>
      </trkpt>
      <trkpt lat="38.475159" lon="-0.743331">
        <ele>667.366334626011</ele>
        <time>2019-04-19T08:01:21.000Z</time>
      </trkpt>
      <trkpt lat="38.475158" lon="-0.743357">
        <ele>667</ele>
        <time>2019-04-19T08:01:22.000Z</time>
      </trkpt>
      <trkpt lat="38.475161" lon="-0.743385">
        <ele>666.412842312932</ele>
        <time>2019-04-19T08:01:23.000Z</time>
      </trkpt>
      <trkpt lat="38.475159" lon="-0.743412">
        <ele>666</ele>
        <time>2019-04-19T08:01:24.000Z</time>
      </trkpt>
      <trkpt lat="38.475158" lon="-0.743439">
        <ele>666</ele>
        <time>2019-04-19T08:01:25.000Z</time>
      </trkpt>
      <trkpt lat="38.475156" lon="-0.743466">
        <ele>665.36</ele>
        <time>2019-04-19T08:01:26.000Z</time>
      </trkpt>
      <trkpt lat="38.475155" lon="-0.743498">
        <ele>665</ele>
        <time>2019-04-19T08:01:27.000Z</time>
      </trkpt>
      <trkpt lat="38.475152" lon="-0.74353">
        <ele>664.412842312932</ele>
        <time>2019-04-19T08:01:28.000Z</time>
      </trkpt>
      <trkpt lat="38.475151" lon="-0.743563">
        <ele>664</ele>
        <time>2019-04-19T08:01:29.000Z</time>
      </trkpt>
      <trkpt lat="38.475149" lon="-0.743594">
        <ele>663.36</ele>
        <time>2019-04-19T08:01:30.000Z</time>
      </trkpt>
      <trkpt lat="38.475144" lon="-0.743625">
        <ele>663</ele>
        <time>2019-04-19T08:01:31.000Z</time>
      </trkpt>
      <trkpt lat="38.475145" lon="-0.743655">
        <ele>663</ele>
        <time>2019-04-19T08:01:32.000Z</time>
      </trkpt>
      <trkpt lat="38.475145" lon="-0.743687">
        <ele>662.507039968271</ele>
        <time>2019-04-19T08:01:33.000Z</time>
      </trkpt>
      <trkpt lat="38.47515" lon="-0.743719">
        <ele>661.433626714695</ele>
        <time>2019-04-19T08:01:34.000Z</time>
      </trkpt>
      <trkpt lat="38.475149" lon="-0.743755">
        <ele>660.564103405647</ele>
        <time>2019-04-19T08:01:35.000Z</time>
      </trkpt>
      <trkpt lat="38.475151" lon="-0.743789">
        <ele>660</ele>
        <time>2019-04-19T08:01:36.000Z</time>
      </trkpt>
      <trkpt lat="38.475155" lon="-0.743824">
        <ele>660</ele>
        <time>2019-04-19T08:01:37.000Z</time>
      </trkpt>
      <trkpt lat="38.47516" lon="-0.743855">
        <ele>660</ele>
        <time>2019-04-19T08:01:38.000Z</time>
      </trkpt>
      <trkpt lat="38.475163" lon="-0.743887">
        <ele>659.36</ele>
        <time>2019-04-19T08:01:39.000Z</time>
      </trkpt>
      <trkpt lat="38.475167" lon="-0.743921">
        <ele>658.36</ele>
        <time>2019-04-19T08:01:40.000Z</time>
      </trkpt>
      <trkpt lat="38.475172" lon="-0.743954">
        <ele>658</ele>
        <time>2019-04-19T08:01:41.000Z</time>
      </trkpt>
      <trkpt lat="38.475173" lon="-0.743987">
        <ele>657.36</ele>
        <time>2019-04-19T08:01:42.000Z</time>
      </trkpt>
      <trkpt lat="38.475173" lon="-0.74402">
        <ele>657</ele>
        <time>2019-04-19T08:01:43.000Z</time>
      </trkpt>
      <trkpt lat="38.475178" lon="-0.744051">
        <ele>657</ele>
        <time>2019-04-19T08:01:44.000Z</time>
      </trkpt>
      <trkpt lat="38.475181" lon="-0.744082">
        <ele>656.36</ele>
        <time>2019-04-19T08:01:45.000Z</time>
      </trkpt>
      <trkpt lat="38.475189" lon="-0.744115">
        <ele>656</ele>
        <time>2019-04-19T08:01:46.000Z</time>
      </trkpt>
      <trkpt lat="38.475195" lon="-0.744147">
        <ele>655.378642707129</ele>
        <time>2019-04-19T08:01:47.000Z</time>
      </trkpt>
      <trkpt lat="38.475198" lon="-0.744182">
        <ele>654.371135244982</ele>
        <time>2019-04-19T08:01:48.000Z</time>
      </trkpt>
      <trkpt lat="38.4752" lon="-0.744217">
        <ele>654</ele>
        <time>2019-04-19T08:01:49.000Z</time>
      </trkpt>
      <trkpt lat="38.4752" lon="-0.744254">
        <ele>654</ele>
        <time>2019-04-19T08:01:50.000Z</time>
      </trkpt>
      <trkpt lat="38.475201" lon="-0.744288">
        <ele>654</ele>
        <time>2019-04-19T08:01:51.000Z</time>
      </trkpt>
      <trkpt lat="38.475203" lon="-0.744325">
        <ele>653.514290416369</ele>
        <time>2019-04-19T08:01:52.000Z</time>
      </trkpt>
      <trkpt lat="38.475204" lon="-0.74436">
        <ele>652.36</ele>
        <time>2019-04-19T08:01:53.000Z</time>
      </trkpt>
      <trkpt lat="38.475196" lon="-0.744393">
        <ele>651.507689884012</ele>
        <time>2019-04-19T08:01:54.000Z</time>
      </trkpt>
      <trkpt lat="38.475192" lon="-0.744422">
        <ele>650.514281012288</ele>
        <time>2019-04-19T08:01:55.000Z</time>
      </trkpt>
      <trkpt lat="38.475185" lon="-0.744456">
        <ele>650</ele>
        <time>2019-04-19T08:01:56.000Z</time>
      </trkpt>
      <trkpt lat="38.475183" lon="-0.744489">
        <ele>650</ele>
        <time>2019-04-19T08:01:57.000Z</time>
      </trkpt>
      <trkpt lat="38.475183" lon="-0.744523">
        <ele>649.36</ele>
        <time>2019-04-19T08:01:58.000Z</time>
      </trkpt>
      <trkpt lat="38.475185" lon="-0.744559">
        <ele>649</ele>
        <time>2019-04-19T08:01:59.000Z</time>
      </trkpt>
      <trkpt lat="38.475185" lon="-0.744594">
        <ele>649</ele>
        <time>2019-04-19T08:02:00.000Z</time>
      </trkpt>
      <trkpt lat="38.475183" lon="-0.744626">
        <ele>648.36</ele>
        <time>2019-04-19T08:02:01.000Z</time>
      </trkpt>
      <trkpt lat="38.475186" lon="-0.74466">
        <ele>648</ele>
        <time>2019-04-19T08:02:02.000Z</time>
      </trkpt>
      <trkpt lat="38.475186" lon="-0.744695">
        <ele>648</ele>
        <time>2019-04-19T08:02:03.000Z</time>
      </trkpt>
      <trkpt lat="38.475185" lon="-0.744731">
        <ele>647.36</ele>
        <time>2019-04-19T08:02:04.000Z</time>
      </trkpt>
      <trkpt lat="38.475186" lon="-0.744769">
        <ele>647</ele>
        <time>2019-04-19T08:02:05.000Z</time>
      </trkpt>
      <trkpt lat="38.475185" lon="-0.744803">
        <ele>647</ele>
        <time>2019-04-19T08:02:06.000Z</time>
      </trkpt>
      <trkpt lat="38.475186" lon="-0.744839">
        <ele>646.36</ele>
        <time>2019-04-19T08:02:07.000Z</time>
      </trkpt>
      <trkpt lat="38.47518" lon="-0.744872">
        <ele>645.36</ele>
        <time>2019-04-19T08:02:08.000Z</time>
      </trkpt>
      <trkpt lat="38.475175" lon="-0.744902">
        <ele>645</ele>
        <time>2019-04-19T08:02:09.000Z</time>
      </trkpt>
      <trkpt lat="38.47517" lon="-0.744929">
        <ele>644.519378460439</ele>
        <time>2019-04-19T08:02:10.000Z</time>
      </trkpt>
      <trkpt lat="38.475169" lon="-0.744957">
        <ele>644</ele>
        <time>2019-04-19T08:02:11.000Z</time>
      </trkpt>
      <trkpt lat="38.475168" lon="-0.744982">
        <ele>643.36</ele>
        <time>2019-04-19T08:02:12.000Z</time>
      </trkpt>
      <trkpt lat="38.475162" lon="-0.745011">
        <ele>643</ele>
        <time>2019-04-19T08:02:13.000Z</time>
      </trkpt>
      <trkpt lat="38.47516" lon="-0.74504">
        <ele>642.514290416369</ele>
        <time>2019-04-19T08:02:14.000Z</time>
      </trkpt>
      <trkpt lat="38.475161" lon="-0.745073">
        <ele>642</ele>
        <time>2019-04-19T08:02:15.000Z</time>
      </trkpt>
      <trkpt lat="38.475159" lon="-0.745108">
        <ele>642</ele>
        <time>2019-04-19T08:02:16.000Z</time>
      </trkpt>
      <trkpt lat="38.475158" lon="-0.745145">
        <ele>641.36</ele>
        <time>2019-04-19T08:02:17.000Z</time>
      </trkpt>
      <trkpt lat="38.475161" lon="-0.745179">
        <ele>640.36</ele>
        <time>2019-04-19T08:02:18.000Z</time>
      </trkpt>
      <trkpt lat="38.475168" lon="-0.745208">
        <ele>640</ele>
        <time>2019-04-19T08:02:19.000Z</time>
      </trkpt>
      <trkpt lat="38.475172" lon="-0.745241">
        <ele>639.401870947676</ele>
        <time>2019-04-19T08:02:20.000Z</time>
      </trkpt>
      <trkpt lat="38.475176" lon="-0.745278">
        <ele>639</ele>
        <time>2019-04-19T08:02:21.000Z</time>
      </trkpt>
      <trkpt lat="38.475179" lon="-0.745315">
        <ele>639</ele>
        <time>2019-04-19T08:02:22.000Z</time>
      </trkpt>
      <trkpt lat="38.475185" lon="-0.745354">
        <ele>638.36</ele>
        <time>2019-04-19T08:02:23.000Z</time>
      </trkpt>
      <trkpt lat="38.475189" lon="-0.745389">
        <ele>637.36</ele>
        <time>2019-04-19T08:02:24.000Z</time>
      </trkpt>
      <trkpt lat="38.475195" lon="-0.745423">
        <ele>637</ele>
        <time>2019-04-19T08:02:25.000Z</time>
      </trkpt>
      <trkpt lat="38.475197" lon="-0.745455">
        <ele>636.36</ele>
        <time>2019-04-19T08:02:26.000Z</time>
      </trkpt>
      <trkpt lat="38.475199" lon="-0.745487">
        <ele>636</ele>
        <time>2019-04-19T08:02:27.000Z</time>
      </trkpt>
      <trkpt lat="38.475204" lon="-0.745519">
        <ele>636</ele>
        <time>2019-04-19T08:02:28.000Z</time>
      </trkpt>
      <trkpt lat="38.475212" lon="-0.745552">
        <ele>635.507694731349</ele>
        <time>2019-04-19T08:02:29.000Z</time>
      </trkpt>
      <trkpt lat="38.475217" lon="-0.745584">
        <ele>634.514290416369</ele>
        <time>2019-04-19T08:02:30.000Z</time>
      </trkpt>
      <trkpt lat="38.475218" lon="-0.745616">
        <ele>634</ele>
        <time>2019-04-19T08:02:31.000Z</time>
      </trkpt>
      <trkpt lat="38.475225" lon="-0.745642">
        <ele>633.507689884012</ele>
        <time>2019-04-19T08:02:32.000Z</time>
      </trkpt>
      <trkpt lat="38.475229" lon="-0.745673">
        <ele>632.514281012288</ele>
        <time>2019-04-19T08:02:33.000Z</time>
      </trkpt>
      <trkpt lat="38.475234" lon="-0.745703">
        <ele>632</ele>
        <time>2019-04-19T08:02:34.000Z</time>
      </trkpt>
      <trkpt lat="38.475239" lon="-0.745734">
        <ele>632</ele>
        <time>2019-04-19T08:02:35.000Z</time>
      </trkpt>
      <trkpt lat="38.475241" lon="-0.745763">
        <ele>631.36</ele>
        <time>2019-04-19T08:02:36.000Z</time>
      </trkpt>
      <trkpt lat="38.475247" lon="-0.745793">
        <ele>631</ele>
        <time>2019-04-19T08:02:37.000Z</time>
      </trkpt>
      <trkpt lat="38.475253" lon="-0.745822">
        <ele>631</ele>
        <time>2019-04-19T08:02:38.000Z</time>
      </trkpt>
      <trkpt lat="38.475258" lon="-0.745851">
        <ele>630.36</ele>
        <time>2019-04-19T08:02:39.000Z</time>
      </trkpt>
      <trkpt lat="38.475264" lon="-0.745879">
        <ele>630</ele>
        <time>2019-04-19T08:02:40.000Z</time>
      </trkpt>
      <trkpt lat="38.475269" lon="-0.745907">
        <ele>630</ele>
        <time>2019-04-19T08:02:41.000Z</time>
      </trkpt>
      <trkpt lat="38.475272" lon="-0.74593">
        <ele>629.36</ele>
        <time>2019-04-19T08:02:42.000Z</time>
      </trkpt>
      <trkpt lat="38.47528" lon="-0.745952">
        <ele>629</ele>
        <time>2019-04-19T08:02:43.000Z</time>
      </trkpt>
      <trkpt lat="38.475301" lon="-0.74597">
        <ele>629</ele>
        <time>2019-04-19T08:02:45.000Z</time>
      </trkpt>
      <trkpt lat="38.475315" lon="-0.745993">
        <ele>628</ele>
        <time>2019-04-19T08:02:48.000Z</time>
      </trkpt>
      <trkpt lat="38.475331" lon="-0.746022">
        <ele>628</ele>
        <time>2019-04-19T08:02:51.000Z</time>
      </trkpt>
      <trkpt lat="38.475346" lon="-0.746057">
        <ele>627</ele>
        <time>2019-04-19T08:02:53.000Z</time>
      </trkpt>
      <trkpt lat="38.475359" lon="-0.746102">
        <ele>627</ele>
        <time>2019-04-19T08:02:55.000Z</time>
      </trkpt>
      <trkpt lat="38.475364" lon="-0.746128">
        <ele>627</ele>
        <time>2019-04-19T08:02:56.000Z</time>
      </trkpt>
      <trkpt lat="38.475368" lon="-0.746155">
        <ele>627</ele>
        <time>2019-04-19T08:02:57.000Z</time>
      </trkpt>
      <trkpt lat="38.47538" lon="-0.746198">
        <ele>626.36</ele>
        <time>2019-04-19T08:02:59.000Z</time>
      </trkpt>
      <trkpt lat="38.475378" lon="-0.746232">
        <ele>625.407407407407</ele>
        <time>2019-04-19T08:03:01.000Z</time>
      </trkpt>
      <trkpt lat="38.475379" lon="-0.746266">
        <ele>625</ele>
        <time>2019-04-19T08:03:03.000Z</time>
      </trkpt>
      <trkpt lat="38.475388" lon="-0.746294">
        <ele>624.36</ele>
        <time>2019-04-19T08:03:05.000Z</time>
      </trkpt>
      <trkpt lat="38.475399" lon="-0.746324">
        <ele>624</ele>
        <time>2019-04-19T08:03:07.000Z</time>
      </trkpt>
      <trkpt lat="38.475404" lon="-0.746347">
        <ele>624</ele>
        <time>2019-04-19T08:03:10.000Z</time>
      </trkpt>
      <trkpt lat="38.475423" lon="-0.746335">
        <ele>624</ele>
        <time>2019-04-19T08:03:13.000Z</time>
      </trkpt>
      <trkpt lat="38.475446" lon="-0.746332">
        <ele>623</ele>
        <time>2019-04-19T08:03:20.000Z</time>
      </trkpt>
      <trkpt lat="38.475465" lon="-0.746324">
        <ele>624</ele>
        <time>2019-04-19T08:03:24.000Z</time>
      </trkpt>
      <trkpt lat="38.475438" lon="-0.746331">
        <ele>623</ele>
        <time>2019-04-19T08:03:30.000Z</time>
      </trkpt>
      <trkpt lat="38.475415" lon="-0.746326">
        <ele>623</ele>
        <time>2019-04-19T08:03:37.000Z</time>
      </trkpt>
      <trkpt lat="38.475393" lon="-0.746314">
        <ele>623.64</ele>
        <time>2019-04-19T08:03:39.000Z</time>
      </trkpt>
      <trkpt lat="38.475369" lon="-0.746303">
        <ele>624</ele>
        <time>2019-04-19T08:03:41.000Z</time>
      </trkpt>
      <trkpt lat="38.475351" lon="-0.746286">
        <ele>624.64</ele>
        <time>2019-04-19T08:03:43.000Z</time>
      </trkpt>
      <trkpt lat="38.475333" lon="-0.746275">
        <ele>625</ele>
        <time>2019-04-19T08:03:45.000Z</time>
      </trkpt>
      <trkpt lat="38.475312" lon="-0.746281">
        <ele>626</ele>
        <time>2019-04-19T08:03:47.000Z</time>
      </trkpt>
      <trkpt lat="38.475294" lon="-0.746275">
        <ele>627</ele>
        <time>2019-04-19T08:03:50.000Z</time>
      </trkpt>
      <trkpt lat="38.475276" lon="-0.746251">
        <ele>628.64</ele>
        <time>2019-04-19T08:03:53.000Z</time>
      </trkpt>
      <trkpt lat="38.47526" lon="-0.746229">
        <ele>629.64</ele>
        <time>2019-04-19T08:03:57.000Z</time>
      </trkpt>
      <trkpt lat="38.475254" lon="-0.746205">
        <ele>630</ele>
        <time>2019-04-19T08:04:02.000Z</time>
      </trkpt>
      <trkpt lat="38.475254" lon="-0.746178">
        <ele>630</ele>
        <time>2019-04-19T08:04:05.000Z</time>
      </trkpt>
      <trkpt lat="38.475251" lon="-0.746143">
        <ele>630</ele>
        <time>2019-04-19T08:04:08.000Z</time>
      </trkpt>
      <trkpt lat="38.475242" lon="-0.746121">
        <ele>630</ele>
        <time>2019-04-19T08:04:12.000Z</time>
      </trkpt>
      <trkpt lat="38.475244" lon="-0.746096">
        <ele>630</ele>
        <time>2019-04-19T08:04:16.000Z</time>
      </trkpt>
      <trkpt lat="38.475236" lon="-0.746068">
        <ele>630</ele>
        <time>2019-04-19T08:04:22.000Z</time>
      </trkpt>
      <trkpt lat="38.47523" lon="-0.746045">
        <ele>630</ele>
        <time>2019-04-19T08:04:26.000Z</time>
      </trkpt>
      <trkpt lat="38.475228" lon="-0.746015">
        <ele>630</ele>
        <time>2019-04-19T08:04:29.000Z</time>
      </trkpt>
      <trkpt lat="38.47521" lon="-0.745997">
        <ele>631</ele>
        <time>2019-04-19T08:04:32.000Z</time>
      </trkpt>
      <trkpt lat="38.475192" lon="-0.745973">
        <ele>632</ele>
        <time>2019-04-19T08:04:36.000Z</time>
      </trkpt>
      <trkpt lat="38.475189" lon="-0.745943">
        <ele>632</ele>
        <time>2019-04-19T08:04:39.000Z</time>
      </trkpt>
      <trkpt lat="38.475173" lon="-0.74592">
        <ele>633</ele>
        <time>2019-04-19T08:04:41.000Z</time>
      </trkpt>
      <trkpt lat="38.475181" lon="-0.745892">
        <ele>632</ele>
        <time>2019-04-19T08:04:43.000Z</time>
      </trkpt>
      <trkpt lat="38.475187" lon="-0.745863">
        <ele>632</ele>
        <time>2019-04-19T08:04:45.000Z</time>
      </trkpt>
      <trkpt lat="38.475187" lon="-0.745831">
        <ele>633</ele>
        <time>2019-04-19T08:04:47.000Z</time>
      </trkpt>
      <trkpt lat="38.475191" lon="-0.7458">
        <ele>634</ele>
        <time>2019-04-19T08:04:49.000Z</time>
      </trkpt>
      <trkpt lat="38.475193" lon="-0.745769">
        <ele>634</ele>
        <time>2019-04-19T08:04:51.000Z</time>
      </trkpt>
      <trkpt lat="38.47519" lon="-0.745738">
        <ele>634</ele>
        <time>2019-04-19T08:04:53.000Z</time>
      </trkpt>
      <trkpt lat="38.475189" lon="-0.745707">
        <ele>634</ele>
        <time>2019-04-19T08:04:55.000Z</time>
      </trkpt>
      <trkpt lat="38.475177" lon="-0.745678">
        <ele>634</ele>
        <time>2019-04-19T08:05:09.000Z</time>
      </trkpt>
      <trkpt lat="38.475175" lon="-0.745645">
        <ele>634</ele>
        <time>2019-04-19T08:05:11.000Z</time>
      </trkpt>
      <trkpt lat="38.475176" lon="-0.745615">
        <ele>634</ele>
        <time>2019-04-19T08:05:13.000Z</time>
      </trkpt>
      <trkpt lat="38.475176" lon="-0.745583">
        <ele>634.64</ele>
        <time>2019-04-19T08:05:15.000Z</time>
      </trkpt>
      <trkpt lat="38.475173" lon="-0.745552">
        <ele>635</ele>
        <time>2019-04-19T08:05:17.000Z</time>
      </trkpt>
      <trkpt lat="38.475168" lon="-0.745528">
        <ele>635</ele>
        <time>2019-04-19T08:05:19.000Z</time>
      </trkpt>
      <trkpt lat="38.475156" lon="-0.745504">
        <ele>635.617018669063</ele>
        <time>2019-04-19T08:05:22.000Z</time>
      </trkpt>
      <trkpt lat="38.475145" lon="-0.745471">
        <ele>636</ele>
        <time>2019-04-19T08:05:25.000Z</time>
      </trkpt>
      <trkpt lat="38.475137" lon="-0.745446">
        <ele>637</ele>
        <time>2019-04-19T08:05:27.000Z</time>
      </trkpt>
      <trkpt lat="38.475128" lon="-0.74542">
        <ele>637.64</ele>
        <time>2019-04-19T08:05:29.000Z</time>
      </trkpt>
      <trkpt lat="38.475115" lon="-0.745394">
        <ele>639</ele>
        <time>2019-04-19T08:05:32.000Z</time>
      </trkpt>
      <trkpt lat="38.475101" lon="-0.745367">
        <ele>639</ele>
        <time>2019-04-19T08:05:35.000Z</time>
      </trkpt>
      <trkpt lat="38.475093" lon="-0.745345">
        <ele>639</ele>
        <time>2019-04-19T08:05:37.000Z</time>
      </trkpt>
      <trkpt lat="38.475088" lon="-0.745319">
        <ele>639.64</ele>
        <time>2019-04-19T08:05:39.000Z</time>
      </trkpt>
      <trkpt lat="38.475082" lon="-0.745291">
        <ele>641</ele>
        <time>2019-04-19T08:05:41.000Z</time>
      </trkpt>
      <trkpt lat="38.475077" lon="-0.745262">
        <ele>641</ele>
        <time>2019-04-19T08:05:43.000Z</time>
      </trkpt>
      <trkpt lat="38.475071" lon="-0.745232">
        <ele>641.608695652174</ele>
        <time>2019-04-19T08:05:45.000Z</time>
      </trkpt>
      <trkpt lat="38.475069" lon="-0.745207">
        <ele>642.627454917364</ele>
        <time>2019-04-19T08:05:47.000Z</time>
      </trkpt>
      <trkpt lat="38.475058" lon="-0.745159">
        <ele>644</ele>
        <time>2019-04-19T08:05:51.000Z</time>
      </trkpt>
      <trkpt lat="38.475056" lon="-0.745132">
        <ele>644</ele>
        <time>2019-04-19T08:05:53.000Z</time>
      </trkpt>
      <trkpt lat="38.47505" lon="-0.745106">
        <ele>645</ele>
        <time>2019-04-19T08:05:55.000Z</time>
      </trkpt>
      <trkpt lat="38.475052" lon="-0.745077">
        <ele>645.633665373989</ele>
        <time>2019-04-19T08:05:57.000Z</time>
      </trkpt>
      <trkpt lat="38.475045" lon="-0.74505">
        <ele>646</ele>
        <time>2019-04-19T08:05:59.000Z</time>
      </trkpt>
      <trkpt lat="38.475036" lon="-0.745024">
        <ele>646.492305268651</ele>
        <time>2019-04-19T08:06:01.000Z</time>
      </trkpt>
      <trkpt lat="38.475028" lon="-0.744998">
        <ele>647</ele>
        <time>2019-04-19T08:06:03.000Z</time>
      </trkpt>
      <trkpt lat="38.475028" lon="-0.744969">
        <ele>647</ele>
        <time>2019-04-19T08:06:05.000Z</time>
      </trkpt>
      <trkpt lat="38.475026" lon="-0.74494">
        <ele>648</ele>
        <time>2019-04-19T08:06:07.000Z</time>
      </trkpt>
      <trkpt lat="38.475026" lon="-0.744906">
        <ele>648</ele>
        <time>2019-04-19T08:06:10.000Z</time>
      </trkpt>
      <trkpt lat="38.475024" lon="-0.744876">
        <ele>648.581392233617</ele>
        <time>2019-04-19T08:06:12.000Z</time>
      </trkpt>
      <trkpt lat="38.475017" lon="-0.744844">
        <ele>649</ele>
        <time>2019-04-19T08:06:14.000Z</time>
      </trkpt>
      <trkpt lat="38.475011" lon="-0.744814">
        <ele>649.561406660529</ele>
        <time>2019-04-19T08:06:16.000Z</time>
      </trkpt>
      <trkpt lat="38.475011" lon="-0.74478">
        <ele>650</ele>
        <time>2019-04-19T08:06:18.000Z</time>
      </trkpt>
      <trkpt lat="38.475002" lon="-0.744744">
        <ele>650</ele>
        <time>2019-04-19T08:06:20.000Z</time>
      </trkpt>
      <trkpt lat="38.474996" lon="-0.744712">
        <ele>650</ele>
        <time>2019-04-19T08:06:22.000Z</time>
      </trkpt>
      <trkpt lat="38.474998" lon="-0.744688">
        <ele>651</ele>
        <time>2019-04-19T08:06:24.000Z</time>
      </trkpt>
      <trkpt lat="38.474995" lon="-0.744659">
        <ele>652</ele>
        <time>2019-04-19T08:06:27.000Z</time>
      </trkpt>
      <trkpt lat="38.474991" lon="-0.744632">
        <ele>652</ele>
        <time>2019-04-19T08:06:30.000Z</time>
      </trkpt>
      <trkpt lat="38.474982" lon="-0.744612">
        <ele>653</ele>
        <time>2019-04-19T08:06:34.000Z</time>
      </trkpt>
      <trkpt lat="38.474958" lon="-0.744592">
        <ele>654</ele>
        <time>2019-04-19T08:06:37.000Z</time>
      </trkpt>
      <trkpt lat="38.474948" lon="-0.74457">
        <ele>655</ele>
        <time>2019-04-19T08:06:39.000Z</time>
      </trkpt>
      <trkpt lat="38.474938" lon="-0.744515">
        <ele>656</ele>
        <time>2019-04-19T08:06:43.000Z</time>
      </trkpt>
      <trkpt lat="38.47494" lon="-0.744485">
        <ele>657</ele>
        <time>2019-04-19T08:06:45.000Z</time>
      </trkpt>
      <trkpt lat="38.474944" lon="-0.744458">
        <ele>657</ele>
        <time>2019-04-19T08:06:47.000Z</time>
      </trkpt>
      <trkpt lat="38.474937" lon="-0.744428">
        <ele>657</ele>
        <time>2019-04-19T08:06:49.000Z</time>
      </trkpt>
      <trkpt lat="38.474938" lon="-0.744398">
        <ele>657</ele>
        <time>2019-04-19T08:06:51.000Z</time>
      </trkpt>
      <trkpt lat="38.474943" lon="-0.744363">
        <ele>658</ele>
        <time>2019-04-19T08:06:54.000Z</time>
      </trkpt>
      <trkpt lat="38.474945" lon="-0.744338">
        <ele>658</ele>
        <time>2019-04-19T08:06:56.000Z</time>
      </trkpt>
      <trkpt lat="38.474953" lon="-0.744308">
        <ele>658</ele>
        <time>2019-04-19T08:06:58.000Z</time>
      </trkpt>
      <trkpt lat="38.474959" lon="-0.744284">
        <ele>659</ele>
        <time>2019-04-19T08:07:00.000Z</time>
      </trkpt>
      <trkpt lat="38.474959" lon="-0.744261">
        <ele>659.64</ele>
        <time>2019-04-19T08:07:02.000Z</time>
      </trkpt>
      <trkpt lat="38.474957" lon="-0.744228">
        <ele>660</ele>
        <time>2019-04-19T08:07:05.000Z</time>
      </trkpt>
      <trkpt lat="38.474964" lon="-0.744205">
        <ele>660.632650662208</ele>
        <time>2019-04-19T08:07:07.000Z</time>
      </trkpt>
      <trkpt lat="38.474967" lon="-0.744179">
        <ele>662</ele>
        <time>2019-04-19T08:07:09.000Z</time>
      </trkpt>
      <trkpt lat="38.474965" lon="-0.744154">
        <ele>662</ele>
        <time>2019-04-19T08:07:11.000Z</time>
      </trkpt>
      <trkpt lat="38.47497" lon="-0.744127">
        <ele>662</ele>
        <time>2019-04-19T08:07:13.000Z</time>
      </trkpt>
      <trkpt lat="38.474968" lon="-0.744102">
        <ele>662.64</ele>
        <time>2019-04-19T08:07:15.000Z</time>
      </trkpt>
      <trkpt lat="38.474961" lon="-0.744078">
        <ele>663</ele>
        <time>2019-04-19T08:07:17.000Z</time>
      </trkpt>
      <trkpt lat="38.474965" lon="-0.744044">
        <ele>663</ele>
        <time>2019-04-19T08:07:19.000Z</time>
      </trkpt>
      <trkpt lat="38.474965" lon="-0.744012">
        <ele>663</ele>
        <time>2019-04-19T08:07:21.000Z</time>
      </trkpt>
      <trkpt lat="38.474964" lon="-0.743982">
        <ele>664</ele>
        <time>2019-04-19T08:07:23.000Z</time>
      </trkpt>
      <trkpt lat="38.474956" lon="-0.743951">
        <ele>664.581398464011</ele>
        <time>2019-04-19T08:07:25.000Z</time>
      </trkpt>
      <trkpt lat="38.474953" lon="-0.743922">
        <ele>665.603769939502</ele>
        <time>2019-04-19T08:07:27.000Z</time>
      </trkpt>
      <trkpt lat="38.474954" lon="-0.743899">
        <ele>666</ele>
        <time>2019-04-19T08:07:29.000Z</time>
      </trkpt>
      <trkpt lat="38.474958" lon="-0.743783">
        <ele>666</ele>
        <time>2019-04-19T08:07:36.000Z</time>
      </trkpt>
      <trkpt lat="38.474955" lon="-0.743756">
        <ele>666</ele>
        <time>2019-04-19T08:07:38.000Z</time>
      </trkpt>
      <trkpt lat="38.474945" lon="-0.743726">
        <ele>666.485709583631</ele>
        <time>2019-04-19T08:07:40.000Z</time>
      </trkpt>
      <trkpt lat="38.474937" lon="-0.743609">
        <ele>670</ele>
        <time>2019-04-19T08:07:51.000Z</time>
      </trkpt>
      <trkpt lat="38.474938" lon="-0.743576">
        <ele>670</ele>
        <time>2019-04-19T08:07:54.000Z</time>
      </trkpt>
      <trkpt lat="38.474947" lon="-0.743549">
        <ele>670</ele>
        <time>2019-04-19T08:07:56.000Z</time>
      </trkpt>
      <trkpt lat="38.474953" lon="-0.74352">
        <ele>670</ele>
        <time>2019-04-19T08:07:58.000Z</time>
      </trkpt>
      <trkpt lat="38.474959" lon="-0.743492">
        <ele>671</ele>
        <time>2019-04-19T08:08:00.000Z</time>
      </trkpt>
      <trkpt lat="38.474963" lon="-0.743466">
        <ele>671</ele>
        <time>2019-04-19T08:08:02.000Z</time>
      </trkpt>
      <trkpt lat="38.474971" lon="-0.743432">
        <ele>672</ele>
        <time>2019-04-19T08:08:05.000Z</time>
      </trkpt>
      <trkpt lat="38.474974" lon="-0.743402">
        <ele>672</ele>
        <time>2019-04-19T08:08:07.000Z</time>
      </trkpt>
      <trkpt lat="38.474978" lon="-0.743377">
        <ele>673</ele>
        <time>2019-04-19T08:08:09.000Z</time>
      </trkpt>
      <trkpt lat="38.474975" lon="-0.743351">
        <ele>673</ele>
        <time>2019-04-19T08:08:11.000Z</time>
      </trkpt>
      <trkpt lat="38.474975" lon="-0.743323">
        <ele>674</ele>
        <time>2019-04-19T08:08:13.000Z</time>
      </trkpt>
      <trkpt lat="38.474972" lon="-0.74329">
        <ele>674</ele>
        <time>2019-04-19T08:08:15.000Z</time>
      </trkpt>
      <trkpt lat="38.474972" lon="-0.74326">
        <ele>674.617023884093</ele>
        <time>2019-04-19T08:08:17.000Z</time>
      </trkpt>
      <trkpt lat="38.474967" lon="-0.743236">
        <ele>675</ele>
        <time>2019-04-19T08:08:19.000Z</time>
      </trkpt>
      <trkpt lat="38.474964" lon="-0.743208">
        <ele>675</ele>
        <time>2019-04-19T08:08:21.000Z</time>
      </trkpt>
      <trkpt lat="38.474958" lon="-0.743179">
        <ele>675</ele>
        <time>2019-04-19T08:08:23.000Z</time>
      </trkpt>
      <trkpt lat="38.474959" lon="-0.743154">
        <ele>675</ele>
        <time>2019-04-19T08:08:25.000Z</time>
      </trkpt>
      <trkpt lat="38.474958" lon="-0.743122">
        <ele>676</ele>
        <time>2019-04-19T08:08:27.000Z</time>
      </trkpt>
      <trkpt lat="38.474953" lon="-0.743094">
        <ele>676</ele>
        <time>2019-04-19T08:08:29.000Z</time>
      </trkpt>
      <trkpt lat="38.474955" lon="-0.743066">
        <ele>677</ele>
        <time>2019-04-19T08:08:32.000Z</time>
      </trkpt>
      <trkpt lat="38.474971" lon="-0.743043">
        <ele>678</ele>
        <time>2019-04-19T08:08:34.000Z</time>
      </trkpt>
      <trkpt lat="38.474977" lon="-0.743015">
        <ele>678</ele>
        <time>2019-04-19T08:08:36.000Z</time>
      </trkpt>
      <trkpt lat="38.474996" lon="-0.742988">
        <ele>678.64</ele>
        <time>2019-04-19T08:08:38.000Z</time>
      </trkpt>
      <trkpt lat="38.475006" lon="-0.742962">
        <ele>679</ele>
        <time>2019-04-19T08:08:40.000Z</time>
      </trkpt>
      <trkpt lat="38.475014" lon="-0.742938">
        <ele>679.64</ele>
        <time>2019-04-19T08:08:42.000Z</time>
      </trkpt>
      <trkpt lat="38.475013" lon="-0.742902">
        <ele>681</ele>
        <time>2019-04-19T08:08:44.000Z</time>
      </trkpt>
      <trkpt lat="38.475008" lon="-0.742871">
        <ele>681</ele>
        <time>2019-04-19T08:08:46.000Z</time>
      </trkpt>
      <trkpt lat="38.475002" lon="-0.742845">
        <ele>681.64</ele>
        <time>2019-04-19T08:08:49.000Z</time>
      </trkpt>
      <trkpt lat="38.475005" lon="-0.742822">
        <ele>682.608695652174</ele>
        <time>2019-04-19T08:08:51.000Z</time>
      </trkpt>
      <trkpt lat="38.475007" lon="-0.742795">
        <ele>683</ele>
        <time>2019-04-19T08:08:53.000Z</time>
      </trkpt>
      <trkpt lat="38.475005" lon="-0.742769">
        <ele>683</ele>
        <time>2019-04-19T08:08:55.000Z</time>
      </trkpt>
      <trkpt lat="38.475009" lon="-0.742745">
        <ele>683</ele>
        <time>2019-04-19T08:08:57.000Z</time>
      </trkpt>
      <trkpt lat="38.47501" lon="-0.74272">
        <ele>684</ele>
        <time>2019-04-19T08:08:59.000Z</time>
      </trkpt>
      <trkpt lat="38.475007" lon="-0.742696">
        <ele>684</ele>
        <time>2019-04-19T08:09:01.000Z</time>
      </trkpt>
      <trkpt lat="38.475006" lon="-0.742671">
        <ele>684</ele>
        <time>2019-04-19T08:09:03.000Z</time>
      </trkpt>
      <trkpt lat="38.474997" lon="-0.742649">
        <ele>684</ele>
        <time>2019-04-19T08:09:05.000Z</time>
      </trkpt>
      <trkpt lat="38.474995" lon="-0.742624">
        <ele>685</ele>
        <time>2019-04-19T08:09:07.000Z</time>
      </trkpt>
      <trkpt lat="38.474992" lon="-0.74259">
        <ele>685.633665373989</ele>
        <time>2019-04-19T08:09:10.000Z</time>
      </trkpt>
      <trkpt lat="38.474985" lon="-0.742567">
        <ele>686</ele>
        <time>2019-04-19T08:09:12.000Z</time>
      </trkpt>
      <trkpt lat="38.47498" lon="-0.742542">
        <ele>686.617018669063</ele>
        <time>2019-04-19T08:09:14.000Z</time>
      </trkpt>
      <trkpt lat="38.474978" lon="-0.742519">
        <ele>687.64</ele>
        <time>2019-04-19T08:09:17.000Z</time>
      </trkpt>
      <trkpt lat="38.474966" lon="-0.742496">
        <ele>688</ele>
        <time>2019-04-19T08:09:19.000Z</time>
      </trkpt>
      <trkpt lat="38.474955" lon="-0.742468">
        <ele>688</ele>
        <time>2019-04-19T08:09:21.000Z</time>
      </trkpt>
      <trkpt lat="38.474945" lon="-0.742446">
        <ele>688</ele>
        <time>2019-04-19T08:09:23.000Z</time>
      </trkpt>
      <trkpt lat="38.474929" lon="-0.74242">
        <ele>689</ele>
        <time>2019-04-19T08:09:25.000Z</time>
      </trkpt>
      <trkpt lat="38.474907" lon="-0.742394">
        <ele>689</ele>
        <time>2019-04-19T08:09:27.000Z</time>
      </trkpt>
      <trkpt lat="38.474899" lon="-0.742357">
        <ele>689</ele>
        <time>2019-04-19T08:09:29.000Z</time>
      </trkpt>
      <trkpt lat="38.474887" lon="-0.742317">
        <ele>689</ele>
        <time>2019-04-19T08:09:31.000Z</time>
      </trkpt>
      <trkpt lat="38.474893" lon="-0.742273">
        <ele>689</ele>
        <time>2019-04-19T08:09:33.000Z</time>
      </trkpt>
      <trkpt lat="38.474923" lon="-0.742235">
        <ele>689.587157687068</ele>
        <time>2019-04-19T08:09:37.000Z</time>
      </trkpt>
      <trkpt lat="38.47495" lon="-0.742235">
        <ele>690</ele>
        <time>2019-04-19T08:09:39.000Z</time>
      </trkpt>
      <trkpt lat="38.474978" lon="-0.742214">
        <ele>690.63636481175</ele>
        <time>2019-04-19T08:09:41.000Z</time>
      </trkpt>
      <trkpt lat="38.474996" lon="-0.742202">
        <ele>691</ele>
        <time>2019-04-19T08:09:42.000Z</time>
      </trkpt>
      <trkpt lat="38.475015" lon="-0.742191">
        <ele>691</ele>
        <time>2019-04-19T08:09:43.000Z</time>
      </trkpt>
      <trkpt lat="38.475035" lon="-0.742182">
        <ele>691</ele>
        <time>2019-04-19T08:09:44.000Z</time>
      </trkpt>
      <trkpt lat="38.47507" lon="-0.742169">
        <ele>691</ele>
        <time>2019-04-19T08:09:46.000Z</time>
      </trkpt>
      <trkpt lat="38.47509" lon="-0.742155">
        <ele>691</ele>
        <time>2019-04-19T08:09:47.000Z</time>
      </trkpt>
      <trkpt lat="38.475117" lon="-0.742127">
        <ele>691</ele>
        <time>2019-04-19T08:09:49.000Z</time>
      </trkpt>
      <trkpt lat="38.47514" lon="-0.742105">
        <ele>691</ele>
        <time>2019-04-19T08:09:51.000Z</time>
      </trkpt>
      <trkpt lat="38.475161" lon="-0.742078">
        <ele>692</ele>
        <time>2019-04-19T08:09:53.000Z</time>
      </trkpt>
      <trkpt lat="38.475176" lon="-0.742062">
        <ele>692.63636481175</ele>
        <time>2019-04-19T08:09:54.000Z</time>
      </trkpt>
      <trkpt lat="38.47519" lon="-0.742046">
        <ele>693</ele>
        <time>2019-04-19T08:09:55.000Z</time>
      </trkpt>
      <trkpt lat="38.475211" lon="-0.742015">
        <ele>693</ele>
        <time>2019-04-19T08:09:57.000Z</time>
      </trkpt>
      <trkpt lat="38.475232" lon="-0.741986">
        <ele>693</ele>
        <time>2019-04-19T08:09:59.000Z</time>
      </trkpt>
      <trkpt lat="38.475255" lon="-0.741953">
        <ele>693</ele>
        <time>2019-04-19T08:10:01.000Z</time>
      </trkpt>
      <trkpt lat="38.475298" lon="-0.741873">
        <ele>694</ele>
        <time>2019-04-19T08:10:06.000Z</time>
      </trkpt>
      <trkpt lat="38.47532" lon="-0.741843">
        <ele>694</ele>
        <time>2019-04-19T08:10:08.000Z</time>
      </trkpt>
      <trkpt lat="38.475332" lon="-0.741818">
        <ele>694</ele>
        <time>2019-04-19T08:10:10.000Z</time>
      </trkpt>
      <trkpt lat="38.475347" lon="-0.74179">
        <ele>694.561406660529</ele>
        <time>2019-04-19T08:10:12.000Z</time>
      </trkpt>
      <trkpt lat="38.47536" lon="-0.741761">
        <ele>695</ele>
        <time>2019-04-19T08:10:14.000Z</time>
      </trkpt>
      <trkpt lat="38.475372" lon="-0.741731">
        <ele>695.621053908029</ele>
        <time>2019-04-19T08:10:16.000Z</time>
      </trkpt>
      <trkpt lat="38.475388" lon="-0.741701">
        <ele>696</ele>
        <time>2019-04-19T08:10:18.000Z</time>
      </trkpt>
      <trkpt lat="38.475397" lon="-0.741667">
        <ele>696</ele>
        <time>2019-04-19T08:10:20.000Z</time>
      </trkpt>
      <trkpt lat="38.475405" lon="-0.741634">
        <ele>697</ele>
        <time>2019-04-19T08:10:22.000Z</time>
      </trkpt>
      <trkpt lat="38.475421" lon="-0.741619">
        <ele>697</ele>
        <time>2019-04-19T08:10:23.000Z</time>
      </trkpt>
      <trkpt lat="38.475451" lon="-0.741592">
        <ele>698</ele>
        <time>2019-04-19T08:10:25.000Z</time>
      </trkpt>
      <trkpt lat="38.475476" lon="-0.741566">
        <ele>698</ele>
        <time>2019-04-19T08:10:27.000Z</time>
      </trkpt>
      <trkpt lat="38.4755" lon="-0.741552">
        <ele>698</ele>
        <time>2019-04-19T08:10:29.000Z</time>
      </trkpt>
      <trkpt lat="38.475531" lon="-0.741539">
        <ele>698</ele>
        <time>2019-04-19T08:10:31.000Z</time>
      </trkpt>
      <trkpt lat="38.475553" lon="-0.741536">
        <ele>699</ele>
        <time>2019-04-19T08:10:34.000Z</time>
      </trkpt>
      <trkpt lat="38.475572" lon="-0.74152">
        <ele>699</ele>
        <time>2019-04-19T08:10:37.000Z</time>
      </trkpt>
      <trkpt lat="38.47559" lon="-0.741503">
        <ele>699.64</ele>
        <time>2019-04-19T08:10:39.000Z</time>
      </trkpt>
      <trkpt lat="38.475613" lon="-0.741494">
        <ele>700</ele>
        <time>2019-04-19T08:10:41.000Z</time>
      </trkpt>
      <trkpt lat="38.475638" lon="-0.741488">
        <ele>700</ele>
        <time>2019-04-19T08:10:43.000Z</time>
      </trkpt>
      <trkpt lat="38.475661" lon="-0.741479">
        <ele>700.64</ele>
        <time>2019-04-19T08:10:45.000Z</time>
      </trkpt>
      <trkpt lat="38.47568" lon="-0.741462">
        <ele>702</ele>
        <time>2019-04-19T08:10:47.000Z</time>
      </trkpt>
      <trkpt lat="38.475687" lon="-0.741432">
        <ele>702</ele>
        <time>2019-04-19T08:10:49.000Z</time>
      </trkpt>
      <trkpt lat="38.475671" lon="-0.741413">
        <ele>702</ele>
        <time>2019-04-19T08:10:52.000Z</time>
      </trkpt>
      <trkpt lat="38.475648" lon="-0.741408">
        <ele>703</ele>
        <time>2019-04-19T08:10:54.000Z</time>
      </trkpt>
      <trkpt lat="38.47563" lon="-0.741396">
        <ele>703</ele>
        <time>2019-04-19T08:10:56.000Z</time>
      </trkpt>
      <trkpt lat="38.475609" lon="-0.74139">
        <ele>704</ele>
        <time>2019-04-19T08:10:59.000Z</time>
      </trkpt>
      <trkpt lat="38.475585" lon="-0.741387">
        <ele>704.587157687068</ele>
        <time>2019-04-19T08:11:01.000Z</time>
      </trkpt>
      <trkpt lat="38.47557" lon="-0.741364">
        <ele>705</ele>
        <time>2019-04-19T08:11:04.000Z</time>
      </trkpt>
      <trkpt lat="38.475582" lon="-0.741344">
        <ele>706.478870700224</ele>
        <time>2019-04-19T08:11:06.000Z</time>
      </trkpt>
      <trkpt lat="38.4756" lon="-0.741323">
        <ele>707</ele>
        <time>2019-04-19T08:11:09.000Z</time>
      </trkpt>
      <trkpt lat="38.475604" lon="-0.741299">
        <ele>707</ele>
        <time>2019-04-19T08:11:12.000Z</time>
      </trkpt>
      <trkpt lat="38.475615" lon="-0.741269">
        <ele>708</ele>
        <time>2019-04-19T08:11:15.000Z</time>
      </trkpt>
      <trkpt lat="38.475627" lon="-0.741236">
        <ele>708.64</ele>
        <time>2019-04-19T08:11:18.000Z</time>
      </trkpt>
      <trkpt lat="38.475635" lon="-0.741213">
        <ele>709</ele>
        <time>2019-04-19T08:11:20.000Z</time>
      </trkpt>
      <trkpt lat="38.475645" lon="-0.741188">
        <ele>709.627447043469</ele>
        <time>2019-04-19T08:11:22.000Z</time>
      </trkpt>
      <trkpt lat="38.475649" lon="-0.741157">
        <ele>710</ele>
        <time>2019-04-19T08:11:24.000Z</time>
      </trkpt>
      <trkpt lat="38.475648" lon="-0.741125">
        <ele>710</ele>
        <time>2019-04-19T08:11:26.000Z</time>
      </trkpt>
      <trkpt lat="38.475644" lon="-0.741095">
        <ele>711</ele>
        <time>2019-04-19T08:11:28.000Z</time>
      </trkpt>
      <trkpt lat="38.475639" lon="-0.741066">
        <ele>711</ele>
        <time>2019-04-19T08:11:30.000Z</time>
      </trkpt>
      <trkpt lat="38.475638" lon="-0.74104">
        <ele>711</ele>
        <time>2019-04-19T08:11:37.000Z</time>
      </trkpt>
      <trkpt lat="38.475621" lon="-0.741058">
        <ele>712</ele>
        <time>2019-04-19T08:11:41.000Z</time>
      </trkpt>
      <trkpt lat="38.475612" lon="-0.741082">
        <ele>712</ele>
        <time>2019-04-19T08:11:43.000Z</time>
      </trkpt>
      <trkpt lat="38.4756" lon="-0.741107">
        <ele>713</ele>
        <time>2019-04-19T08:11:45.000Z</time>
      </trkpt>
      <trkpt lat="38.475586" lon="-0.741125">
        <ele>713</ele>
        <time>2019-04-19T08:11:47.000Z</time>
      </trkpt>
      <trkpt lat="38.475565" lon="-0.741135">
        <ele>713.64</ele>
        <time>2019-04-19T08:11:49.000Z</time>
      </trkpt>
      <trkpt lat="38.475542" lon="-0.741146">
        <ele>715</ele>
        <time>2019-04-19T08:11:51.000Z</time>
      </trkpt>
      <trkpt lat="38.475516" lon="-0.741153">
        <ele>715</ele>
        <time>2019-04-19T08:11:53.000Z</time>
      </trkpt>
      <trkpt lat="38.475489" lon="-0.741161">
        <ele>715</ele>
        <time>2019-04-19T08:11:55.000Z</time>
      </trkpt>
      <trkpt lat="38.475464" lon="-0.74117">
        <ele>715</ele>
        <time>2019-04-19T08:11:57.000Z</time>
      </trkpt>
      <trkpt lat="38.475439" lon="-0.74118">
        <ele>715</ele>
        <time>2019-04-19T08:11:59.000Z</time>
      </trkpt>
      <trkpt lat="38.475419" lon="-0.741185">
        <ele>715</ele>
        <time>2019-04-19T08:12:01.000Z</time>
      </trkpt>
      <trkpt lat="38.475417" lon="-0.741155">
        <ele>716</ele>
        <time>2019-04-19T08:12:05.000Z</time>
      </trkpt>
      <trkpt lat="38.475431" lon="-0.741136">
        <ele>716</ele>
        <time>2019-04-19T08:12:07.000Z</time>
      </trkpt>
      <trkpt lat="38.475445" lon="-0.741116">
        <ele>716.581398464011</ele>
        <time>2019-04-19T08:12:09.000Z</time>
      </trkpt>
      <trkpt lat="38.475457" lon="-0.741092">
        <ele>717</ele>
        <time>2019-04-19T08:12:17.000Z</time>
      </trkpt>
      <trkpt lat="38.475469" lon="-0.741061">
        <ele>718</ele>
        <time>2019-04-19T08:12:20.000Z</time>
      </trkpt>
      <trkpt lat="38.475484" lon="-0.741034">
        <ele>718.446151119513</ele>
        <time>2019-04-19T08:12:22.000Z</time>
      </trkpt>
      <trkpt lat="38.475493" lon="-0.741005">
        <ele>719</ele>
        <time>2019-04-19T08:12:24.000Z</time>
      </trkpt>
      <trkpt lat="38.47549" lon="-0.740979">
        <ele>719</ele>
        <time>2019-04-19T08:12:26.000Z</time>
      </trkpt>
      <trkpt lat="38.475483" lon="-0.740955">
        <ele>720</ele>
        <time>2019-04-19T08:12:30.000Z</time>
      </trkpt>
      <trkpt lat="38.475472" lon="-0.740923">
        <ele>720</ele>
        <time>2019-04-19T08:12:33.000Z</time>
      </trkpt>
      <trkpt lat="38.475461" lon="-0.740903">
        <ele>720</ele>
        <time>2019-04-19T08:12:35.000Z</time>
      </trkpt>
      <trkpt lat="38.475448" lon="-0.740887">
        <ele>721</ele>
        <time>2019-04-19T08:12:38.000Z</time>
      </trkpt>
      <trkpt lat="38.475434" lon="-0.740858">
        <ele>721</ele>
        <time>2019-04-19T08:12:43.000Z</time>
      </trkpt>
      <trkpt lat="38.475423" lon="-0.740838">
        <ele>721</ele>
        <time>2019-04-19T08:12:45.000Z</time>
      </trkpt>
      <trkpt lat="38.475416" lon="-0.740814">
        <ele>721.621357292871</ele>
        <time>2019-04-19T08:12:47.000Z</time>
      </trkpt>
      <trkpt lat="38.475403" lon="-0.740796">
        <ele>722</ele>
        <time>2019-04-19T08:12:49.000Z</time>
      </trkpt>
      <trkpt lat="38.475386" lon="-0.740775">
        <ele>722</ele>
        <time>2019-04-19T08:12:51.000Z</time>
      </trkpt>
      <trkpt lat="38.475372" lon="-0.740751">
        <ele>723</ele>
        <time>2019-04-19T08:12:53.000Z</time>
      </trkpt>
      <trkpt lat="38.475358" lon="-0.740726">
        <ele>723</ele>
        <time>2019-04-19T08:12:55.000Z</time>
      </trkpt>
      <trkpt lat="38.475339" lon="-0.740704">
        <ele>723.615384615385</ele>
        <time>2019-04-19T08:12:57.000Z</time>
      </trkpt>
      <trkpt lat="38.475319" lon="-0.740683">
        <ele>724.453901739351</ele>
        <time>2019-04-19T08:12:59.000Z</time>
      </trkpt>
      <trkpt lat="38.4753" lon="-0.740662">
        <ele>725</ele>
        <time>2019-04-19T08:13:01.000Z</time>
      </trkpt>
      <trkpt lat="38.475264" lon="-0.740609">
        <ele>726</ele>
        <time>2019-04-19T08:13:05.000Z</time>
      </trkpt>
      <trkpt lat="38.475197" lon="-0.740519">
        <ele>727</ele>
        <time>2019-04-19T08:13:13.000Z</time>
      </trkpt>
      <trkpt lat="38.475216" lon="-0.740398">
        <ele>729</ele>
        <time>2019-04-19T08:13:22.000Z</time>
      </trkpt>
      <trkpt lat="38.475284" lon="-0.740312">
        <ele>729</ele>
        <time>2019-04-19T08:13:31.000Z</time>
      </trkpt>
      <trkpt lat="38.475299" lon="-0.740191">
        <ele>731.566373285305</ele>
        <time>2019-04-19T08:13:41.000Z</time>
      </trkpt>
      <trkpt lat="38.475205" lon="-0.740203">
        <ele>736.485709583631</ele>
        <time>2019-04-19T08:14:00.000Z</time>
      </trkpt>
      <trkpt lat="38.47526" lon="-0.740093">
        <ele>738</ele>
        <time>2019-04-19T08:14:24.000Z</time>
      </trkpt>
      <trkpt lat="38.475289" lon="-0.739984">
        <ele>740</ele>
        <time>2019-04-19T08:14:31.000Z</time>
      </trkpt>
      <trkpt lat="38.475289" lon="-0.739941">
        <ele>741</ele>
        <time>2019-04-19T08:14:34.000Z</time>
      </trkpt>
      <trkpt lat="38.475292" lon="-0.739911">
        <ele>742</ele>
        <time>2019-04-19T08:14:36.000Z</time>
      </trkpt>
      <trkpt lat="38.475294" lon="-0.73988">
        <ele>742</ele>
        <time>2019-04-19T08:14:38.000Z</time>
      </trkpt>
      <trkpt lat="38.4753" lon="-0.739849">
        <ele>742.64</ele>
        <time>2019-04-19T08:14:40.000Z</time>
      </trkpt>
      <trkpt lat="38.47531" lon="-0.739822">
        <ele>743</ele>
        <time>2019-04-19T08:14:42.000Z</time>
      </trkpt>
      <trkpt lat="38.475316" lon="-0.739795">
        <ele>743.64</ele>
        <time>2019-04-19T08:14:44.000Z</time>
      </trkpt>
      <trkpt lat="38.47532" lon="-0.739766">
        <ele>744.598129052324</ele>
        <time>2019-04-19T08:14:46.000Z</time>
      </trkpt>
      <trkpt lat="38.475326" lon="-0.739736">
        <ele>745</ele>
        <time>2019-04-19T08:14:48.000Z</time>
      </trkpt>
      <trkpt lat="38.47533" lon="-0.739706">
        <ele>746</ele>
        <time>2019-04-19T08:14:50.000Z</time>
      </trkpt>
      <trkpt lat="38.475334" lon="-0.73968">
        <ele>746</ele>
        <time>2019-04-19T08:14:52.000Z</time>
      </trkpt>
      <trkpt lat="38.475344" lon="-0.739654">
        <ele>746.485709583631</ele>
        <time>2019-04-19T08:14:54.000Z</time>
      </trkpt>
      <trkpt lat="38.475359" lon="-0.739628">
        <ele>747</ele>
        <time>2019-04-19T08:14:56.000Z</time>
      </trkpt>
      <trkpt lat="38.47538" lon="-0.73961">
        <ele>747</ele>
        <time>2019-04-19T08:14:58.000Z</time>
      </trkpt>
      <trkpt lat="38.475454" lon="-0.739541">
        <ele>748</ele>
        <time>2019-04-19T08:15:06.000Z</time>
      </trkpt>
      <trkpt lat="38.47548" lon="-0.739425">
        <ele>753</ele>
        <time>2019-04-19T08:15:23.000Z</time>
      </trkpt>
      <trkpt lat="38.47556" lon="-0.739369">
        <ele>755</ele>
        <time>2019-04-19T08:15:31.000Z</time>
      </trkpt>
      <trkpt lat="38.475591" lon="-0.739348">
        <ele>756</ele>
        <time>2019-04-19T08:15:35.000Z</time>
      </trkpt>
      <trkpt lat="38.475615" lon="-0.739353">
        <ele>756</ele>
        <time>2019-04-19T08:15:37.000Z</time>
      </trkpt>
      <trkpt lat="38.475647" lon="-0.73937">
        <ele>756.571428571429</ele>
        <time>2019-04-19T08:15:40.000Z</time>
      </trkpt>
      <trkpt lat="38.475666" lon="-0.739378">
        <ele>757</ele>
        <time>2019-04-19T08:15:42.000Z</time>
      </trkpt>
      <trkpt lat="38.475687" lon="-0.739387">
        <ele>757.628864755018</ele>
        <time>2019-04-19T08:15:44.000Z</time>
      </trkpt>
      <trkpt lat="38.47571" lon="-0.739385">
        <ele>758.590909090909</ele>
        <time>2019-04-19T08:15:46.000Z</time>
      </trkpt>
      <trkpt lat="38.47573" lon="-0.739383">
        <ele>759</ele>
        <time>2019-04-19T08:15:48.000Z</time>
      </trkpt>
      <trkpt lat="38.475752" lon="-0.739366">
        <ele>759.339997951974</ele>
        <time>2019-04-19T08:15:50.000Z</time>
      </trkpt>
      <trkpt lat="38.475767" lon="-0.739346">
        <ele>760</ele>
        <time>2019-04-19T08:15:52.000Z</time>
      </trkpt>
      <trkpt lat="38.475781" lon="-0.739324">
        <ele>760</ele>
        <time>2019-04-19T08:15:54.000Z</time>
      </trkpt>
      <trkpt lat="38.475792" lon="-0.739299">
        <ele>760.64</ele>
        <time>2019-04-19T08:15:56.000Z</time>
      </trkpt>
      <trkpt lat="38.475802" lon="-0.73927">
        <ele>761</ele>
        <time>2019-04-19T08:15:58.000Z</time>
      </trkpt>
      <trkpt lat="38.475812" lon="-0.739245">
        <ele>761</ele>
        <time>2019-04-19T08:16:00.000Z</time>
      </trkpt>
      <trkpt lat="38.475822" lon="-0.739214">
        <ele>762</ele>
        <time>2019-04-19T08:16:02.000Z</time>
      </trkpt>
      <trkpt lat="38.47582" lon="-0.739185">
        <ele>763</ele>
        <time>2019-04-19T08:16:04.000Z</time>
      </trkpt>
      <trkpt lat="38.475807" lon="-0.739162">
        <ele>763.587157687068</ele>
        <time>2019-04-19T08:16:07.000Z</time>
      </trkpt>
      <trkpt lat="38.47578" lon="-0.739152">
        <ele>764</ele>
        <time>2019-04-19T08:16:10.000Z</time>
      </trkpt>
      <trkpt lat="38.47576" lon="-0.739144">
        <ele>764.625</ele>
        <time>2019-04-19T08:16:12.000Z</time>
      </trkpt>
      <trkpt lat="38.475736" lon="-0.739134">
        <ele>765</ele>
        <time>2019-04-19T08:16:15.000Z</time>
      </trkpt>
      <trkpt lat="38.475712" lon="-0.739118">
        <ele>765</ele>
        <time>2019-04-19T08:16:18.000Z</time>
      </trkpt>
      <trkpt lat="38.475691" lon="-0.739109">
        <ele>765.633665373989</ele>
        <time>2019-04-19T08:16:20.000Z</time>
      </trkpt>
      <trkpt lat="38.475665" lon="-0.739098">
        <ele>766</ele>
        <time>2019-04-19T08:16:22.000Z</time>
      </trkpt>
      <trkpt lat="38.475646" lon="-0.73909">
        <ele>767</ele>
        <time>2019-04-19T08:16:24.000Z</time>
      </trkpt>
      <trkpt lat="38.475631" lon="-0.739068">
        <ele>768.625</ele>
        <time>2019-04-19T08:16:27.000Z</time>
      </trkpt>
      <trkpt lat="38.47564" lon="-0.739031">
        <ele>769</ele>
        <time>2019-04-19T08:16:30.000Z</time>
      </trkpt>
      <trkpt lat="38.475653" lon="-0.738996">
        <ele>769.64</ele>
        <time>2019-04-19T08:16:32.000Z</time>
      </trkpt>
      <trkpt lat="38.475663" lon="-0.738963">
        <ele>770</ele>
        <time>2019-04-19T08:16:34.000Z</time>
      </trkpt>
      <trkpt lat="38.475666" lon="-0.738929">
        <ele>770</ele>
        <time>2019-04-19T08:16:36.000Z</time>
      </trkpt>
      <trkpt lat="38.475663" lon="-0.738902">
        <ele>770.492960031729</ele>
        <time>2019-04-19T08:16:38.000Z</time>
      </trkpt>
      <trkpt lat="38.475661" lon="-0.738877">
        <ele>772</ele>
        <time>2019-04-19T08:16:40.000Z</time>
      </trkpt>
      <trkpt lat="38.475657" lon="-0.73885">
        <ele>772</ele>
        <time>2019-04-19T08:16:42.000Z</time>
      </trkpt>
      <trkpt lat="38.475646" lon="-0.738823">
        <ele>773</ele>
        <time>2019-04-19T08:16:44.000Z</time>
      </trkpt>
      <trkpt lat="38.475642" lon="-0.738799">
        <ele>773.64</ele>
        <time>2019-04-19T08:16:46.000Z</time>
      </trkpt>
      <trkpt lat="38.47564" lon="-0.738774">
        <ele>774</ele>
        <time>2019-04-19T08:16:48.000Z</time>
      </trkpt>
      <trkpt lat="38.475622" lon="-0.738753">
        <ele>774</ele>
        <time>2019-04-19T08:16:51.000Z</time>
      </trkpt>
      <trkpt lat="38.475614" lon="-0.738727">
        <ele>774</ele>
        <time>2019-04-19T08:16:53.000Z</time>
      </trkpt>
      <trkpt lat="38.47561" lon="-0.738703">
        <ele>775.604396995527</ele>
        <time>2019-04-19T08:16:55.000Z</time>
      </trkpt>
      <trkpt lat="38.475604" lon="-0.738676">
        <ele>776</ele>
        <time>2019-04-19T08:16:57.000Z</time>
      </trkpt>
      <trkpt lat="38.475595" lon="-0.738647">
        <ele>776</ele>
        <time>2019-04-19T08:16:59.000Z</time>
      </trkpt>
      <trkpt lat="38.475588" lon="-0.738618">
        <ele>777</ele>
        <time>2019-04-19T08:17:01.000Z</time>
      </trkpt>
      <trkpt lat="38.475579" lon="-0.738591">
        <ele>777</ele>
        <time>2019-04-19T08:17:03.000Z</time>
      </trkpt>
      <trkpt lat="38.47556" lon="-0.738559">
        <ele>777.599997155535</ele>
        <time>2019-04-19T08:17:05.000Z</time>
      </trkpt>
      <trkpt lat="38.475541" lon="-0.738524">
        <ele>778.492960031729</ele>
        <time>2019-04-19T08:17:07.000Z</time>
      </trkpt>
      <trkpt lat="38.475531" lon="-0.738503">
        <ele>779</ele>
        <time>2019-04-19T08:17:08.000Z</time>
      </trkpt>
      <trkpt lat="38.475527" lon="-0.738474">
        <ele>779</ele>
        <time>2019-04-19T08:17:10.000Z</time>
      </trkpt>
      <trkpt lat="38.47552" lon="-0.738442">
        <ele>779</ele>
        <time>2019-04-19T08:17:12.000Z</time>
      </trkpt>
      <trkpt lat="38.475508" lon="-0.73842">
        <ele>780</ele>
        <time>2019-04-19T08:17:14.000Z</time>
      </trkpt>
      <trkpt lat="38.475493" lon="-0.738396">
        <ele>780</ele>
        <time>2019-04-19T08:17:16.000Z</time>
      </trkpt>
      <trkpt lat="38.475475" lon="-0.738372">
        <ele>780.598129052324</ele>
        <time>2019-04-19T08:17:18.000Z</time>
      </trkpt>
      <trkpt lat="38.475461" lon="-0.738348">
        <ele>781</ele>
        <time>2019-04-19T08:17:20.000Z</time>
      </trkpt>
      <trkpt lat="38.475444" lon="-0.738325">
        <ele>781</ele>
        <time>2019-04-19T08:17:22.000Z</time>
      </trkpt>
      <trkpt lat="38.475427" lon="-0.738297">
        <ele>781</ele>
        <time>2019-04-19T08:17:24.000Z</time>
      </trkpt>
      <trkpt lat="38.475411" lon="-0.738269">
        <ele>781.492960031729</ele>
        <time>2019-04-19T08:17:26.000Z</time>
      </trkpt>
      <trkpt lat="38.475401" lon="-0.738239">
        <ele>782</ele>
        <time>2019-04-19T08:17:28.000Z</time>
      </trkpt>
      <trkpt lat="38.475393" lon="-0.73821">
        <ele>782</ele>
        <time>2019-04-19T08:17:30.000Z</time>
      </trkpt>
      <trkpt lat="38.475384" lon="-0.738186">
        <ele>783</ele>
        <time>2019-04-19T08:17:32.000Z</time>
      </trkpt>
      <trkpt lat="38.475376" lon="-0.738164">
        <ele>783</ele>
        <time>2019-04-19T08:17:34.000Z</time>
      </trkpt>
      <trkpt lat="38.475365" lon="-0.73814">
        <ele>783</ele>
        <time>2019-04-19T08:17:36.000Z</time>
      </trkpt>
      <trkpt lat="38.475363" lon="-0.738107">
        <ele>784</ele>
        <time>2019-04-19T08:17:39.000Z</time>
      </trkpt>
      <trkpt lat="38.475359" lon="-0.738082">
        <ele>785</ele>
        <time>2019-04-19T08:17:41.000Z</time>
      </trkpt>
      <trkpt lat="38.475353" lon="-0.738054">
        <ele>785</ele>
        <time>2019-04-19T08:17:43.000Z</time>
      </trkpt>
      <trkpt lat="38.475346" lon="-0.738024">
        <ele>786</ele>
        <time>2019-04-19T08:17:46.000Z</time>
      </trkpt>
      <trkpt lat="38.475305" lon="-0.737906">
        <ele>789</ele>
        <time>2019-04-19T08:17:54.000Z</time>
      </trkpt>
      <trkpt lat="38.475287" lon="-0.737796">
        <ele>789</ele>
        <time>2019-04-19T08:18:00.000Z</time>
      </trkpt>
      <trkpt lat="38.475273" lon="-0.737771">
        <ele>790</ele>
        <time>2019-04-19T08:18:05.000Z</time>
      </trkpt>
      <trkpt lat="38.475261" lon="-0.737746">
        <ele>791</ele>
        <time>2019-04-19T08:18:07.000Z</time>
      </trkpt>
      <trkpt lat="38.475206" lon="-0.737659">
        <ele>792</ele>
        <time>2019-04-19T08:18:13.000Z</time>
      </trkpt>
      <trkpt lat="38.475146" lon="-0.737568">
        <ele>792</ele>
        <time>2019-04-19T08:18:19.000Z</time>
      </trkpt>
      <trkpt lat="38.475082" lon="-0.737481">
        <ele>794.604396995527</ele>
        <time>2019-04-19T08:18:32.000Z</time>
      </trkpt>
      <trkpt lat="38.475067" lon="-0.737361">
        <ele>798</ele>
        <time>2019-04-19T08:18:42.000Z</time>
      </trkpt>
      <trkpt lat="38.475124" lon="-0.737272">
        <ele>800.64</ele>
        <time>2019-04-19T08:18:53.000Z</time>
      </trkpt>
      <trkpt lat="38.475153" lon="-0.737153">
        <ele>801.993712717056</ele>
        <time>2019-04-19T08:19:04.000Z</time>
      </trkpt>
      <trkpt lat="38.475183" lon="-0.737034">
        <ele>805</ele>
        <time>2019-04-19T08:19:15.000Z</time>
      </trkpt>
      <trkpt lat="38.475243" lon="-0.736943">
        <ele>807</ele>
        <time>2019-04-19T08:19:24.000Z</time>
      </trkpt>
      <trkpt lat="38.475147" lon="-0.736963">
        <ele>810</ele>
        <time>2019-04-19T08:19:40.000Z</time>
      </trkpt>
      <trkpt lat="38.475201" lon="-0.73686">
        <ele>813.64</ele>
        <time>2019-04-19T08:19:55.000Z</time>
      </trkpt>
      <trkpt lat="38.475266" lon="-0.736778">
        <ele>815</ele>
        <time>2019-04-19T08:20:02.000Z</time>
      </trkpt>
      <trkpt lat="38.475293" lon="-0.736668">
        <ele>817</ele>
        <time>2019-04-19T08:20:11.000Z</time>
      </trkpt>
      <trkpt lat="38.475285" lon="-0.736545">
        <ele>819</ele>
        <time>2019-04-19T08:20:19.000Z</time>
      </trkpt>
      <trkpt lat="38.475296" lon="-0.736426">
        <ele>820</ele>
        <time>2019-04-19T08:20:29.000Z</time>
      </trkpt>
      <trkpt lat="38.475357" lon="-0.736327">
        <ele>822</ele>
        <time>2019-04-19T08:20:38.000Z</time>
      </trkpt>
      <trkpt lat="38.475396" lon="-0.736246">
        <ele>824</ele>
        <time>2019-04-19T08:20:44.000Z</time>
      </trkpt>
      <trkpt lat="38.475407" lon="-0.736225">
        <ele>824</ele>
        <time>2019-04-19T08:20:46.000Z</time>
      </trkpt>
      <trkpt lat="38.475419" lon="-0.736206">
        <ele>825</ele>
        <time>2019-04-19T08:20:48.000Z</time>
      </trkpt>
      <trkpt lat="38.475435" lon="-0.736174">
        <ele>825</ele>
        <time>2019-04-19T08:20:51.000Z</time>
      </trkpt>
      <trkpt lat="38.475454" lon="-0.736147">
        <ele>825</ele>
        <time>2019-04-19T08:20:53.000Z</time>
      </trkpt>
      <trkpt lat="38.475468" lon="-0.736122">
        <ele>826</ele>
        <time>2019-04-19T08:20:55.000Z</time>
      </trkpt>
      <trkpt lat="38.47548" lon="-0.736096">
        <ele>826</ele>
        <time>2019-04-19T08:20:57.000Z</time>
      </trkpt>
      <trkpt lat="38.475498" lon="-0.736069">
        <ele>827</ele>
        <time>2019-04-19T08:20:59.000Z</time>
      </trkpt>
      <trkpt lat="38.475517" lon="-0.736042">
        <ele>827</ele>
        <time>2019-04-19T08:21:01.000Z</time>
      </trkpt>
      <trkpt lat="38.475526" lon="-0.736009">
        <ele>827</ele>
        <time>2019-04-19T08:21:03.000Z</time>
      </trkpt>
      <trkpt lat="38.47553" lon="-0.735977">
        <ele>827</ele>
        <time>2019-04-19T08:21:05.000Z</time>
      </trkpt>
      <trkpt lat="38.47554" lon="-0.735944">
        <ele>827</ele>
        <time>2019-04-19T08:21:07.000Z</time>
      </trkpt>
      <trkpt lat="38.475552" lon="-0.735917">
        <ele>827</ele>
        <time>2019-04-19T08:21:09.000Z</time>
      </trkpt>
      <trkpt lat="38.475567" lon="-0.735889">
        <ele>828</ele>
        <time>2019-04-19T08:21:11.000Z</time>
      </trkpt>
      <trkpt lat="38.475576" lon="-0.735866">
        <ele>828</ele>
        <time>2019-04-19T08:21:13.000Z</time>
      </trkpt>
      <trkpt lat="38.475585" lon="-0.735845">
        <ele>828</ele>
        <time>2019-04-19T08:21:15.000Z</time>
      </trkpt>
      <trkpt lat="38.47559" lon="-0.735821">
        <ele>828</ele>
        <time>2019-04-19T08:21:17.000Z</time>
      </trkpt>
      <trkpt lat="38.475594" lon="-0.735795">
        <ele>828</ele>
        <time>2019-04-19T08:21:19.000Z</time>
      </trkpt>
      <trkpt lat="38.475606" lon="-0.735771">
        <ele>828</ele>
        <time>2019-04-19T08:21:21.000Z</time>
      </trkpt>
      <trkpt lat="38.475628" lon="-0.735754">
        <ele>829</ele>
        <time>2019-04-19T08:21:24.000Z</time>
      </trkpt>
      <trkpt lat="38.475642" lon="-0.735735">
        <ele>829.621053908029</ele>
        <time>2019-04-19T08:21:26.000Z</time>
      </trkpt>
      <trkpt lat="38.475652" lon="-0.73571">
        <ele>830</ele>
        <time>2019-04-19T08:21:28.000Z</time>
      </trkpt>
      <trkpt lat="38.4756" lon="-0.735614">
        <ele>833.603769939502</ele>
        <time>2019-04-19T08:21:39.000Z</time>
      </trkpt>
      <trkpt lat="38.47551" lon="-0.735602">
        <ele>837</ele>
        <time>2019-04-19T08:21:52.000Z</time>
      </trkpt>
      <trkpt lat="38.475451" lon="-0.735701">
        <ele>837</ele>
        <time>2019-04-19T08:22:21.000Z</time>
      </trkpt>
      <trkpt lat="38.475442" lon="-0.73558">
        <ele>842</ele>
        <time>2019-04-19T08:22:35.000Z</time>
      </trkpt>
      <trkpt lat="38.475452" lon="-0.735535">
        <ele>842</ele>
        <time>2019-04-19T08:22:38.000Z</time>
      </trkpt>
      <trkpt lat="38.475461" lon="-0.735505">
        <ele>842.64</ele>
        <time>2019-04-19T08:22:40.000Z</time>
      </trkpt>
      <trkpt lat="38.47546" lon="-0.735477">
        <ele>843</ele>
        <time>2019-04-19T08:22:42.000Z</time>
      </trkpt>
      <trkpt lat="38.475453" lon="-0.735446">
        <ele>844</ele>
        <time>2019-04-19T08:22:45.000Z</time>
      </trkpt>
      <trkpt lat="38.475452" lon="-0.735419">
        <ele>844.4375</ele>
        <time>2019-04-19T08:22:47.000Z</time>
      </trkpt>
      <trkpt lat="38.475422" lon="-0.735383">
        <ele>847</ele>
        <time>2019-04-19T08:22:57.000Z</time>
      </trkpt>
      <trkpt lat="38.475357" lon="-0.735472">
        <ele>849</ele>
        <time>2019-04-19T08:23:12.000Z</time>
      </trkpt>
      <trkpt lat="38.475334" lon="-0.735486">
        <ele>850</ele>
        <time>2019-04-19T08:23:14.000Z</time>
      </trkpt>
      <trkpt lat="38.475314" lon="-0.735505">
        <ele>851.64</ele>
        <time>2019-04-19T08:23:19.000Z</time>
      </trkpt>
      <trkpt lat="38.475286" lon="-0.735523">
        <ele>852</ele>
        <time>2019-04-19T08:23:22.000Z</time>
      </trkpt>
      <trkpt lat="38.47521" lon="-0.735619">
        <ele>853</ele>
        <time>2019-04-19T08:23:29.000Z</time>
      </trkpt>
      <trkpt lat="38.475154" lon="-0.73571">
        <ele>855</ele>
        <time>2019-04-19T08:23:37.000Z</time>
      </trkpt>
      <trkpt lat="38.475092" lon="-0.735803">
        <ele>855.419348844891</ele>
        <time>2019-04-19T08:23:44.000Z</time>
      </trkpt>
      <trkpt lat="38.475027" lon="-0.735893">
        <ele>857.590909090909</ele>
        <time>2019-04-19T08:23:50.000Z</time>
      </trkpt>
      <trkpt lat="38.474958" lon="-0.73597">
        <ele>860</ele>
        <time>2019-04-19T08:23:57.000Z</time>
      </trkpt>
      <trkpt lat="38.474895" lon="-0.736053">
        <ele>861</ele>
        <time>2019-04-19T08:24:05.000Z</time>
      </trkpt>
      <trkpt lat="38.474852" lon="-0.73616">
        <ele>862</ele>
        <time>2019-04-19T08:24:12.000Z</time>
      </trkpt>
      <trkpt lat="38.474816" lon="-0.736268">
        <ele>862</ele>
        <time>2019-04-19T08:24:19.000Z</time>
      </trkpt>
      <trkpt lat="38.474774" lon="-0.736355">
        <ele>864</ele>
        <time>2019-04-19T08:24:25.000Z</time>
      </trkpt>
      <trkpt lat="38.474776" lon="-0.736412">
        <ele>864</ele>
        <time>2019-04-19T08:24:30.000Z</time>
      </trkpt>
      <trkpt lat="38.47474" lon="-0.736513">
        <ele>867</ele>
        <time>2019-04-19T08:24:40.000Z</time>
      </trkpt>
      <trkpt lat="38.474722" lon="-0.736535">
        <ele>867.485718987712</ele>
        <time>2019-04-19T08:24:43.000Z</time>
      </trkpt>
      <trkpt lat="38.4747" lon="-0.736555">
        <ele>868</ele>
        <time>2019-04-19T08:24:45.000Z</time>
      </trkpt>
      <trkpt lat="38.474679" lon="-0.736575">
        <ele>868</ele>
        <time>2019-04-19T08:24:47.000Z</time>
      </trkpt>
      <trkpt lat="38.47466" lon="-0.736595">
        <ele>868</ele>
        <time>2019-04-19T08:24:49.000Z</time>
      </trkpt>
      <trkpt lat="38.474637" lon="-0.736614">
        <ele>868.64</ele>
        <time>2019-04-19T08:24:51.000Z</time>
      </trkpt>
      <trkpt lat="38.474617" lon="-0.736628">
        <ele>869</ele>
        <time>2019-04-19T08:24:53.000Z</time>
      </trkpt>
      <trkpt lat="38.474602" lon="-0.736645">
        <ele>870</ele>
        <time>2019-04-19T08:24:55.000Z</time>
      </trkpt>
      <trkpt lat="38.474591" lon="-0.736663">
        <ele>870</ele>
        <time>2019-04-19T08:24:57.000Z</time>
      </trkpt>
      <trkpt lat="38.474572" lon="-0.736682">
        <ele>870</ele>
        <time>2019-04-19T08:24:59.000Z</time>
      </trkpt>
      <trkpt lat="38.474547" lon="-0.736703">
        <ele>871</ele>
        <time>2019-04-19T08:25:01.000Z</time>
      </trkpt>
      <trkpt lat="38.474526" lon="-0.736726">
        <ele>871</ele>
        <time>2019-04-19T08:25:03.000Z</time>
      </trkpt>
      <trkpt lat="38.47451" lon="-0.736739">
        <ele>871.4375</ele>
        <time>2019-04-19T08:25:04.000Z</time>
      </trkpt>
      <trkpt lat="38.474494" lon="-0.736752">
        <ele>872.64</ele>
        <time>2019-04-19T08:25:05.000Z</time>
      </trkpt>
      <trkpt lat="38.47447" lon="-0.736773">
        <ele>873</ele>
        <time>2019-04-19T08:25:07.000Z</time>
      </trkpt>
      <trkpt lat="38.474454" lon="-0.736802">
        <ele>873</ele>
        <time>2019-04-19T08:25:10.000Z</time>
      </trkpt>
      <trkpt lat="38.474438" lon="-0.736829">
        <ele>873</ele>
        <time>2019-04-19T08:25:12.000Z</time>
      </trkpt>
      <trkpt lat="38.474427" lon="-0.736856">
        <ele>873</ele>
        <time>2019-04-19T08:25:14.000Z</time>
      </trkpt>
      <trkpt lat="38.474403" lon="-0.736875">
        <ele>874</ele>
        <time>2019-04-19T08:25:16.000Z</time>
      </trkpt>
      <trkpt lat="38.474386" lon="-0.736895">
        <ele>875</ele>
        <time>2019-04-19T08:25:19.000Z</time>
      </trkpt>
      <trkpt lat="38.474362" lon="-0.736919">
        <ele>876</ele>
        <time>2019-04-19T08:25:22.000Z</time>
      </trkpt>
      <trkpt lat="38.474344" lon="-0.736934">
        <ele>876.628864755018</ele>
        <time>2019-04-19T08:25:23.000Z</time>
      </trkpt>
      <trkpt lat="38.474316" lon="-0.736968">
        <ele>877</ele>
        <time>2019-04-19T08:25:25.000Z</time>
      </trkpt>
      <trkpt lat="38.474295" lon="-0.737001">
        <ele>877</ele>
        <time>2019-04-19T08:25:27.000Z</time>
      </trkpt>
      <trkpt lat="38.474284" lon="-0.737034">
        <ele>878.576574914379</ele>
        <time>2019-04-19T08:25:29.000Z</time>
      </trkpt>
      <trkpt lat="38.474272" lon="-0.737056">
        <ele>879</ele>
        <time>2019-04-19T08:25:31.000Z</time>
      </trkpt>
      <trkpt lat="38.474254" lon="-0.737017">
        <ele>880</ele>
        <time>2019-04-19T08:25:36.000Z</time>
      </trkpt>
      <trkpt lat="38.474259" lon="-0.736945">
        <ele>881</ele>
        <time>2019-04-19T08:25:40.000Z</time>
      </trkpt>
      <trkpt lat="38.474266" lon="-0.736909">
        <ele>881</ele>
        <time>2019-04-19T08:25:42.000Z</time>
      </trkpt>
      <trkpt lat="38.474275" lon="-0.736882">
        <ele>880</ele>
        <time>2019-04-19T08:25:44.000Z</time>
      </trkpt>
      <trkpt lat="38.474289" lon="-0.736851">
        <ele>880</ele>
        <time>2019-04-19T08:25:46.000Z</time>
      </trkpt>
      <trkpt lat="38.474298" lon="-0.73682">
        <ele>880</ele>
        <time>2019-04-19T08:25:48.000Z</time>
      </trkpt>
      <trkpt lat="38.474311" lon="-0.736771">
        <ele>881</ele>
        <time>2019-04-19T08:25:51.000Z</time>
      </trkpt>
      <trkpt lat="38.474316" lon="-0.73674">
        <ele>882</ele>
        <time>2019-04-19T08:25:53.000Z</time>
      </trkpt>
      <trkpt lat="38.474296" lon="-0.736748">
        <ele>882</ele>
        <time>2019-04-19T08:25:56.000Z</time>
      </trkpt>
      <trkpt lat="38.474293" lon="-0.73678">
        <ele>882</ele>
        <time>2019-04-19T08:25:59.000Z</time>
      </trkpt>
      <trkpt lat="38.474277" lon="-0.736805">
        <ele>883.632655460209</ele>
        <time>2019-04-19T08:26:02.000Z</time>
      </trkpt>
      <trkpt lat="38.474268" lon="-0.736828">
        <ele>884</ele>
        <time>2019-04-19T08:26:04.000Z</time>
      </trkpt>
      <trkpt lat="38.474252" lon="-0.736847">
        <ele>884.621357292871</ele>
        <time>2019-04-19T08:26:06.000Z</time>
      </trkpt>
      <trkpt lat="38.474242" lon="-0.736872">
        <ele>885</ele>
        <time>2019-04-19T08:26:08.000Z</time>
      </trkpt>
      <trkpt lat="38.474233" lon="-0.736902">
        <ele>885</ele>
        <time>2019-04-19T08:26:10.000Z</time>
      </trkpt>
      <trkpt lat="38.474217" lon="-0.736932">
        <ele>886</ele>
        <time>2019-04-19T08:26:12.000Z</time>
      </trkpt>
      <trkpt lat="38.474203" lon="-0.73696">
        <ele>886</ele>
        <time>2019-04-19T08:26:14.000Z</time>
      </trkpt>
      <trkpt lat="38.474189" lon="-0.736988">
        <ele>886.621357292871</ele>
        <time>2019-04-19T08:26:16.000Z</time>
      </trkpt>
      <trkpt lat="38.47418" lon="-0.737011">
        <ele>887</ele>
        <time>2019-04-19T08:26:18.000Z</time>
      </trkpt>
      <trkpt lat="38.474167" lon="-0.736995">
        <ele>888</ele>
        <time>2019-04-19T08:26:22.000Z</time>
      </trkpt>
      <trkpt lat="38.474162" lon="-0.736971">
        <ele>889</ele>
        <time>2019-04-19T08:26:24.000Z</time>
      </trkpt>
      <trkpt lat="38.474144" lon="-0.736975">
        <ele>889.587157687068</ele>
        <time>2019-04-19T08:26:29.000Z</time>
      </trkpt>
      <trkpt lat="38.474128" lon="-0.736994">
        <ele>890.64</ele>
        <time>2019-04-19T08:26:32.000Z</time>
      </trkpt>
      <trkpt lat="38.474132" lon="-0.737026">
        <ele>891</ele>
        <time>2019-04-19T08:26:36.000Z</time>
      </trkpt>
      <trkpt lat="38.474128" lon="-0.737051">
        <ele>891</ele>
        <time>2019-04-19T08:26:38.000Z</time>
      </trkpt>
      <trkpt lat="38.474129" lon="-0.737075">
        <ele>892</ele>
        <time>2019-04-19T08:26:40.000Z</time>
      </trkpt>
      <trkpt lat="38.474139" lon="-0.737106">
        <ele>893</ele>
        <time>2019-04-19T08:26:43.000Z</time>
      </trkpt>
      <trkpt lat="38.474151" lon="-0.737127">
        <ele>894</ele>
        <time>2019-04-19T08:26:45.000Z</time>
      </trkpt>
      <trkpt lat="38.47417" lon="-0.737131">
        <ele>894</ele>
        <time>2019-04-19T08:26:46.000Z</time>
      </trkpt>
      <trkpt lat="38.474188" lon="-0.737147">
        <ele>895</ele>
        <time>2019-04-19T08:26:48.000Z</time>
      </trkpt>
      <trkpt lat="38.474175" lon="-0.737175">
        <ele>895</ele>
        <time>2019-04-19T08:26:51.000Z</time>
      </trkpt>
      <trkpt lat="38.474156" lon="-0.737189">
        <ele>895.612901893856</ele>
        <time>2019-04-19T08:26:53.000Z</time>
      </trkpt>
      <trkpt lat="38.474138" lon="-0.737205">
        <ele>896</ele>
        <time>2019-04-19T08:26:55.000Z</time>
      </trkpt>
      <trkpt lat="38.474115" lon="-0.737217">
        <ele>896</ele>
        <time>2019-04-19T08:26:57.000Z</time>
      </trkpt>
      <trkpt lat="38.474095" lon="-0.737233">
        <ele>897</ele>
        <time>2019-04-19T08:26:59.000Z</time>
      </trkpt>
      <trkpt lat="38.474074" lon="-0.737248">
        <ele>897</ele>
        <time>2019-04-19T08:27:01.000Z</time>
      </trkpt>
      <trkpt lat="38.474053" lon="-0.73726">
        <ele>897</ele>
        <time>2019-04-19T08:27:03.000Z</time>
      </trkpt>
      <trkpt lat="38.474028" lon="-0.737248">
        <ele>897.64</ele>
        <time>2019-04-19T08:27:06.000Z</time>
      </trkpt>
      <trkpt lat="38.474015" lon="-0.73722">
        <ele>898</ele>
        <time>2019-04-19T08:27:08.000Z</time>
      </trkpt>
      <trkpt lat="38.474007" lon="-0.737193">
        <ele>898</ele>
        <time>2019-04-19T08:27:10.000Z</time>
      </trkpt>
      <trkpt lat="38.474007" lon="-0.737157">
        <ele>897</ele>
        <time>2019-04-19T08:27:12.000Z</time>
      </trkpt>
      <trkpt lat="38.474009" lon="-0.737123">
        <ele>897</ele>
        <time>2019-04-19T08:27:14.000Z</time>
      </trkpt>
      <trkpt lat="38.47401" lon="-0.737085">
        <ele>897</ele>
        <time>2019-04-19T08:27:16.000Z</time>
      </trkpt>
      <trkpt lat="38.474014" lon="-0.737051">
        <ele>896</ele>
        <time>2019-04-19T08:27:18.000Z</time>
      </trkpt>
      <trkpt lat="38.474016" lon="-0.737013">
        <ele>896</ele>
        <time>2019-04-19T08:27:20.000Z</time>
      </trkpt>
      <trkpt lat="38.474018" lon="-0.736976">
        <ele>896</ele>
        <time>2019-04-19T08:27:22.000Z</time>
      </trkpt>
      <trkpt lat="38.47402" lon="-0.736941">
        <ele>896</ele>
        <time>2019-04-19T08:27:24.000Z</time>
      </trkpt>
      <trkpt lat="38.474023" lon="-0.736908">
        <ele>896</ele>
        <time>2019-04-19T08:27:26.000Z</time>
      </trkpt>
      <trkpt lat="38.474024" lon="-0.736876">
        <ele>896</ele>
        <time>2019-04-19T08:27:28.000Z</time>
      </trkpt>
      <trkpt lat="38.474024" lon="-0.73685">
        <ele>896</ele>
        <time>2019-04-19T08:27:30.000Z</time>
      </trkpt>
      <trkpt lat="38.474027" lon="-0.736826">
        <ele>897</ele>
        <time>2019-04-19T08:27:32.000Z</time>
      </trkpt>
      <trkpt lat="38.474029" lon="-0.736797">
        <ele>897</ele>
        <time>2019-04-19T08:27:34.000Z</time>
      </trkpt>
      <trkpt lat="38.474026" lon="-0.736769">
        <ele>897</ele>
        <time>2019-04-19T08:27:36.000Z</time>
      </trkpt>
      <trkpt lat="38.474039" lon="-0.736744">
        <ele>898</ele>
        <time>2019-04-19T08:27:46.000Z</time>
      </trkpt>
      <trkpt lat="38.474043" lon="-0.736721">
        <ele>898</ele>
        <time>2019-04-19T08:27:48.000Z</time>
      </trkpt>
      <trkpt lat="38.474046" lon="-0.736695">
        <ele>898.64</ele>
        <time>2019-04-19T08:27:50.000Z</time>
      </trkpt>
      <trkpt lat="38.474046" lon="-0.736666">
        <ele>899</ele>
        <time>2019-04-19T08:27:52.000Z</time>
      </trkpt>
      <trkpt lat="38.474052" lon="-0.736638">
        <ele>899</ele>
        <time>2019-04-19T08:27:54.000Z</time>
      </trkpt>
      <trkpt lat="38.474058" lon="-0.736608">
        <ele>900.581398464011</ele>
        <time>2019-04-19T08:27:57.000Z</time>
      </trkpt>
      <trkpt lat="38.47406" lon="-0.736584">
        <ele>901</ele>
        <time>2019-04-19T08:27:59.000Z</time>
      </trkpt>
      <trkpt lat="38.474061" lon="-0.73656">
        <ele>901.561400357051</ele>
        <time>2019-04-19T08:28:01.000Z</time>
      </trkpt>
      <trkpt lat="38.474072" lon="-0.73653">
        <ele>902</ele>
        <time>2019-04-19T08:28:04.000Z</time>
      </trkpt>
      <trkpt lat="38.474081" lon="-0.736499">
        <ele>903</ele>
        <time>2019-04-19T08:28:07.000Z</time>
      </trkpt>
      <trkpt lat="38.474095" lon="-0.736471">
        <ele>903</ele>
        <time>2019-04-19T08:28:10.000Z</time>
      </trkpt>
      <trkpt lat="38.474101" lon="-0.736438">
        <ele>904</ele>
        <time>2019-04-19T08:28:13.000Z</time>
      </trkpt>
      <trkpt lat="38.47411" lon="-0.736407">
        <ele>905</ele>
        <time>2019-04-19T08:28:16.000Z</time>
      </trkpt>
      <trkpt lat="38.474119" lon="-0.736384">
        <ele>906</ele>
        <time>2019-04-19T08:28:18.000Z</time>
      </trkpt>
      <trkpt lat="38.474125" lon="-0.736359">
        <ele>906.485709583631</ele>
        <time>2019-04-19T08:28:20.000Z</time>
      </trkpt>
      <trkpt lat="38.474132" lon="-0.736329">
        <ele>907.64</ele>
        <time>2019-04-19T08:28:23.000Z</time>
      </trkpt>
      <trkpt lat="38.474141" lon="-0.736305">
        <ele>908</ele>
        <time>2019-04-19T08:28:25.000Z</time>
      </trkpt>
      <trkpt lat="38.474149" lon="-0.736273">
        <ele>909</ele>
        <time>2019-04-19T08:28:28.000Z</time>
      </trkpt>
      <trkpt lat="38.474151" lon="-0.736249">
        <ele>909</ele>
        <time>2019-04-19T08:28:30.000Z</time>
      </trkpt>
      <trkpt lat="38.474154" lon="-0.736226">
        <ele>909</ele>
        <time>2019-04-19T08:28:32.000Z</time>
      </trkpt>
      <trkpt lat="38.474165" lon="-0.736207">
        <ele>910.586208418544</ele>
        <time>2019-04-19T08:28:35.000Z</time>
      </trkpt>
      <trkpt lat="38.474181" lon="-0.736232">
        <ele>912</ele>
        <time>2019-04-19T08:28:38.000Z</time>
      </trkpt>
      <trkpt lat="38.474189" lon="-0.736255">
        <ele>912</ele>
        <time>2019-04-19T08:28:40.000Z</time>
      </trkpt>
      <trkpt lat="38.4742" lon="-0.736276">
        <ele>912</ele>
        <time>2019-04-19T08:28:42.000Z</time>
      </trkpt>
      <trkpt lat="38.47421" lon="-0.7363">
        <ele>912.566373285305</ele>
        <time>2019-04-19T08:28:44.000Z</time>
      </trkpt>
      <trkpt lat="38.47422" lon="-0.736322">
        <ele>913</ele>
        <time>2019-04-19T08:28:46.000Z</time>
      </trkpt>
      <trkpt lat="38.474235" lon="-0.736338">
        <ele>913</ele>
        <time>2019-04-19T08:28:48.000Z</time>
      </trkpt>
      <trkpt lat="38.474253" lon="-0.73632">
        <ele>913</ele>
        <time>2019-04-19T08:28:50.000Z</time>
      </trkpt>
      <trkpt lat="38.474259" lon="-0.736287">
        <ele>914</ele>
        <time>2019-04-19T08:28:53.000Z</time>
      </trkpt>
      <trkpt lat="38.474262" lon="-0.736261">
        <ele>914</ele>
        <time>2019-04-19T08:28:56.000Z</time>
      </trkpt>
      <trkpt lat="38.474267" lon="-0.736235">
        <ele>914</ele>
        <time>2019-04-19T08:28:59.000Z</time>
      </trkpt>
      <trkpt lat="38.474277" lon="-0.736205">
        <ele>915</ele>
        <time>2019-04-19T08:29:02.000Z</time>
      </trkpt>
      <trkpt lat="38.474286" lon="-0.736175">
        <ele>916</ele>
        <time>2019-04-19T08:29:05.000Z</time>
      </trkpt>
      <trkpt lat="38.474293" lon="-0.736154">
        <ele>916.633665373989</ele>
        <time>2019-04-19T08:29:07.000Z</time>
      </trkpt>
      <trkpt lat="38.474299" lon="-0.73613">
        <ele>917</ele>
        <time>2019-04-19T08:29:10.000Z</time>
      </trkpt>
      <trkpt lat="38.474305" lon="-0.736104">
        <ele>918</ele>
        <time>2019-04-19T08:29:13.000Z</time>
      </trkpt>
      <trkpt lat="38.474311" lon="-0.736077">
        <ele>919</ele>
        <time>2019-04-19T08:29:16.000Z</time>
      </trkpt>
      <trkpt lat="38.47432" lon="-0.736053">
        <ele>920</ele>
        <time>2019-04-19T08:29:19.000Z</time>
      </trkpt>
      <trkpt lat="38.474331" lon="-0.736021">
        <ele>921</ele>
        <time>2019-04-19T08:29:22.000Z</time>
      </trkpt>
      <trkpt lat="38.474341" lon="-0.735995">
        <ele>922</ele>
        <time>2019-04-19T08:29:25.000Z</time>
      </trkpt>
      <trkpt lat="38.474352" lon="-0.735975">
        <ele>922.409832969616</ele>
        <time>2019-04-19T08:29:28.000Z</time>
      </trkpt>
      <trkpt lat="38.474363" lon="-0.735949">
        <ele>923</ele>
        <time>2019-04-19T08:29:31.000Z</time>
      </trkpt>
      <trkpt lat="38.474377" lon="-0.735923">
        <ele>923</ele>
        <time>2019-04-19T08:29:34.000Z</time>
      </trkpt>
      <trkpt lat="38.474386" lon="-0.735902">
        <ele>924</ele>
        <time>2019-04-19T08:29:36.000Z</time>
      </trkpt>
      <trkpt lat="38.474401" lon="-0.735871">
        <ele>924.64</ele>
        <time>2019-04-19T08:29:39.000Z</time>
      </trkpt>
      <trkpt lat="38.47441" lon="-0.735847">
        <ele>925</ele>
        <time>2019-04-19T08:29:41.000Z</time>
      </trkpt>
      <trkpt lat="38.47442" lon="-0.735826">
        <ele>926</ele>
        <time>2019-04-19T08:29:43.000Z</time>
      </trkpt>
      <trkpt lat="38.474436" lon="-0.735796">
        <ele>926</ele>
        <time>2019-04-19T08:29:46.000Z</time>
      </trkpt>
      <trkpt lat="38.47445" lon="-0.735777">
        <ele>926</ele>
        <time>2019-04-19T08:29:48.000Z</time>
      </trkpt>
      <trkpt lat="38.474465" lon="-0.735755">
        <ele>927</ele>
        <time>2019-04-19T08:29:50.000Z</time>
      </trkpt>
      <trkpt lat="38.47448" lon="-0.735726">
        <ele>928</ele>
        <time>2019-04-19T08:29:53.000Z</time>
      </trkpt>
      <trkpt lat="38.474491" lon="-0.735708">
        <ele>928</ele>
        <time>2019-04-19T08:29:55.000Z</time>
      </trkpt>
      <trkpt lat="38.474505" lon="-0.735691">
        <ele>929</ele>
        <time>2019-04-19T08:29:57.000Z</time>
      </trkpt>
      <trkpt lat="38.47452" lon="-0.735672">
        <ele>929</ele>
        <time>2019-04-19T08:29:59.000Z</time>
      </trkpt>
      <trkpt lat="38.474533" lon="-0.735651">
        <ele>929</ele>
        <time>2019-04-19T08:30:01.000Z</time>
      </trkpt>
      <trkpt lat="38.474543" lon="-0.735625">
        <ele>930</ele>
        <time>2019-04-19T08:30:03.000Z</time>
      </trkpt>
      <trkpt lat="38.474544" lon="-0.735593">
        <ele>930.484848484849</ele>
        <time>2019-04-19T08:30:05.000Z</time>
      </trkpt>
      <trkpt lat="38.47455" lon="-0.735563">
        <ele>931</ele>
        <time>2019-04-19T08:30:07.000Z</time>
      </trkpt>
      <trkpt lat="38.474554" lon="-0.735536">
        <ele>931</ele>
        <time>2019-04-19T08:30:09.000Z</time>
      </trkpt>
      <trkpt lat="38.474559" lon="-0.735512">
        <ele>931</ele>
        <time>2019-04-19T08:30:11.000Z</time>
      </trkpt>
      <trkpt lat="38.474563" lon="-0.735485">
        <ele>931</ele>
        <time>2019-04-19T08:30:13.000Z</time>
      </trkpt>
      <trkpt lat="38.474563" lon="-0.735454">
        <ele>932</ele>
        <time>2019-04-19T08:30:15.000Z</time>
      </trkpt>
      <trkpt lat="38.474568" lon="-0.735425">
        <ele>932</ele>
        <time>2019-04-19T08:30:17.000Z</time>
      </trkpt>
      <trkpt lat="38.474573" lon="-0.735396">
        <ele>932</ele>
        <time>2019-04-19T08:30:19.000Z</time>
      </trkpt>
      <trkpt lat="38.474578" lon="-0.735369">
        <ele>932</ele>
        <time>2019-04-19T08:30:21.000Z</time>
      </trkpt>
      <trkpt lat="38.474579" lon="-0.735343">
        <ele>933</ele>
        <time>2019-04-19T08:30:23.000Z</time>
      </trkpt>
      <trkpt lat="38.474579" lon="-0.735316">
        <ele>933</ele>
        <time>2019-04-19T08:30:25.000Z</time>
      </trkpt>
      <trkpt lat="38.47458" lon="-0.735289">
        <ele>933.612901893856</ele>
        <time>2019-04-19T08:30:27.000Z</time>
      </trkpt>
      <trkpt lat="38.474581" lon="-0.735266">
        <ele>934.64</ele>
        <time>2019-04-19T08:30:29.000Z</time>
      </trkpt>
      <trkpt lat="38.474582" lon="-0.735239">
        <ele>935</ele>
        <time>2019-04-19T08:30:31.000Z</time>
      </trkpt>
      <trkpt lat="38.474583" lon="-0.735214">
        <ele>935</ele>
        <time>2019-04-19T08:30:33.000Z</time>
      </trkpt>
      <trkpt lat="38.474584" lon="-0.735187">
        <ele>936</ele>
        <time>2019-04-19T08:30:35.000Z</time>
      </trkpt>
      <trkpt lat="38.474589" lon="-0.735162">
        <ele>937</ele>
        <time>2019-04-19T08:30:44.000Z</time>
      </trkpt>
      <trkpt lat="38.474589" lon="-0.735135">
        <ele>937</ele>
        <time>2019-04-19T08:30:47.000Z</time>
      </trkpt>
      <trkpt lat="38.474597" lon="-0.735109">
        <ele>937</ele>
        <time>2019-04-19T08:30:50.000Z</time>
      </trkpt>
      <trkpt lat="38.474592" lon="-0.735079">
        <ele>938</ele>
        <time>2019-04-19T08:30:53.000Z</time>
      </trkpt>
      <trkpt lat="38.474588" lon="-0.735056">
        <ele>939</ele>
        <time>2019-04-19T08:30:56.000Z</time>
      </trkpt>
      <trkpt lat="38.474595" lon="-0.735029">
        <ele>940</ele>
        <time>2019-04-19T08:30:59.000Z</time>
      </trkpt>
      <trkpt lat="38.474604" lon="-0.735004">
        <ele>940</ele>
        <time>2019-04-19T08:31:02.000Z</time>
      </trkpt>
      <trkpt lat="38.474604" lon="-0.734971">
        <ele>941</ele>
        <time>2019-04-19T08:31:05.000Z</time>
      </trkpt>
      <trkpt lat="38.474606" lon="-0.734945">
        <ele>941</ele>
        <time>2019-04-19T08:31:08.000Z</time>
      </trkpt>
      <trkpt lat="38.47461" lon="-0.734915">
        <ele>941.63636481175</ele>
        <time>2019-04-19T08:31:11.000Z</time>
      </trkpt>
      <trkpt lat="38.474614" lon="-0.734888">
        <ele>942</ele>
        <time>2019-04-19T08:31:13.000Z</time>
      </trkpt>
      <trkpt lat="38.474629" lon="-0.73486">
        <ele>942.612901893856</ele>
        <time>2019-04-19T08:31:16.000Z</time>
      </trkpt>
      <trkpt lat="38.474636" lon="-0.734835">
        <ele>943</ele>
        <time>2019-04-19T08:31:18.000Z</time>
      </trkpt>
      <trkpt lat="38.47465" lon="-0.734812">
        <ele>944</ele>
        <time>2019-04-19T08:31:20.000Z</time>
      </trkpt>
      <trkpt lat="38.47466" lon="-0.73479">
        <ele>944</ele>
        <time>2019-04-19T08:31:22.000Z</time>
      </trkpt>
      <trkpt lat="38.47467" lon="-0.73477">
        <ele>944</ele>
        <time>2019-04-19T08:31:24.000Z</time>
      </trkpt>
      <trkpt lat="38.474674" lon="-0.734747">
        <ele>944</ele>
        <time>2019-04-19T08:31:26.000Z</time>
      </trkpt>
      <trkpt lat="38.47468" lon="-0.734717">
        <ele>945.604396995527</ele>
        <time>2019-04-19T08:31:29.000Z</time>
      </trkpt>
      <trkpt lat="38.474686" lon="-0.734695">
        <ele>946</ele>
        <time>2019-04-19T08:31:31.000Z</time>
      </trkpt>
      <trkpt lat="38.474696" lon="-0.73467">
        <ele>946</ele>
        <time>2019-04-19T08:31:33.000Z</time>
      </trkpt>
      <trkpt lat="38.47471" lon="-0.734641">
        <ele>947</ele>
        <time>2019-04-19T08:31:36.000Z</time>
      </trkpt>
      <trkpt lat="38.474718" lon="-0.73462">
        <ele>947.571428571429</ele>
        <time>2019-04-19T08:31:38.000Z</time>
      </trkpt>
      <trkpt lat="38.474736" lon="-0.734595">
        <ele>948</ele>
        <time>2019-04-19T08:31:41.000Z</time>
      </trkpt>
      <trkpt lat="38.474744" lon="-0.734573">
        <ele>948.612901893856</ele>
        <time>2019-04-19T08:31:43.000Z</time>
      </trkpt>
      <trkpt lat="38.474756" lon="-0.73455">
        <ele>949</ele>
        <time>2019-04-19T08:31:45.000Z</time>
      </trkpt>
      <trkpt lat="38.474764" lon="-0.734522">
        <ele>949</ele>
        <time>2019-04-19T08:31:47.000Z</time>
      </trkpt>
      <trkpt lat="38.474774" lon="-0.734497">
        <ele>950</ele>
        <time>2019-04-19T08:31:49.000Z</time>
      </trkpt>
      <trkpt lat="38.474782" lon="-0.734474">
        <ele>950</ele>
        <time>2019-04-19T08:31:51.000Z</time>
      </trkpt>
      <trkpt lat="38.47479" lon="-0.734449">
        <ele>950</ele>
        <time>2019-04-19T08:31:53.000Z</time>
      </trkpt>
      <trkpt lat="38.474796" lon="-0.734421">
        <ele>950</ele>
        <time>2019-04-19T08:31:55.000Z</time>
      </trkpt>
      <trkpt lat="38.4748" lon="-0.734399">
        <ele>951</ele>
        <time>2019-04-19T08:31:57.000Z</time>
      </trkpt>
      <trkpt lat="38.474804" lon="-0.734367">
        <ele>951</ele>
        <time>2019-04-19T08:32:00.000Z</time>
      </trkpt>
      <trkpt lat="38.47481" lon="-0.734334">
        <ele>951.64</ele>
        <time>2019-04-19T08:32:03.000Z</time>
      </trkpt>
      <trkpt lat="38.474815" lon="-0.734307">
        <ele>953</ele>
        <time>2019-04-19T08:32:06.000Z</time>
      </trkpt>
      <trkpt lat="38.47482" lon="-0.734277">
        <ele>954</ele>
        <time>2019-04-19T08:32:09.000Z</time>
      </trkpt>
      <trkpt lat="38.474827" lon="-0.734251">
        <ele>954</ele>
        <time>2019-04-19T08:32:11.000Z</time>
      </trkpt>
      <trkpt lat="38.474836" lon="-0.734225">
        <ele>954.586208418544</ele>
        <time>2019-04-19T08:32:13.000Z</time>
      </trkpt>
      <trkpt lat="38.474848" lon="-0.734201">
        <ele>955</ele>
        <time>2019-04-19T08:32:15.000Z</time>
      </trkpt>
      <trkpt lat="38.474856" lon="-0.734176">
        <ele>955</ele>
        <time>2019-04-19T08:32:17.000Z</time>
      </trkpt>
      <trkpt lat="38.474863" lon="-0.734143">
        <ele>956</ele>
        <time>2019-04-19T08:32:20.000Z</time>
      </trkpt>
      <trkpt lat="38.474871" lon="-0.734117">
        <ele>956</ele>
        <time>2019-04-19T08:32:22.000Z</time>
      </trkpt>
      <trkpt lat="38.474876" lon="-0.734082">
        <ele>956.64</ele>
        <time>2019-04-19T08:32:24.000Z</time>
      </trkpt>
      <trkpt lat="38.47488" lon="-0.734052">
        <ele>957</ele>
        <time>2019-04-19T08:32:26.000Z</time>
      </trkpt>
      <trkpt lat="38.474891" lon="-0.734026">
        <ele>958</ele>
        <time>2019-04-19T08:32:28.000Z</time>
      </trkpt>
      <trkpt lat="38.474899" lon="-0.733999">
        <ele>958</ele>
        <time>2019-04-19T08:32:30.000Z</time>
      </trkpt>
      <trkpt lat="38.474907" lon="-0.73397">
        <ele>958</ele>
        <time>2019-04-19T08:32:32.000Z</time>
      </trkpt>
      <trkpt lat="38.47492" lon="-0.733941">
        <ele>958.64</ele>
        <time>2019-04-19T08:32:34.000Z</time>
      </trkpt>
      <trkpt lat="38.474925" lon="-0.73391">
        <ele>959</ele>
        <time>2019-04-19T08:32:36.000Z</time>
      </trkpt>
      <trkpt lat="38.474927" lon="-0.733882">
        <ele>959</ele>
        <time>2019-04-19T08:32:38.000Z</time>
      </trkpt>
      <trkpt lat="38.474931" lon="-0.73385">
        <ele>959</ele>
        <time>2019-04-19T08:32:40.000Z</time>
      </trkpt>
      <trkpt lat="38.474935" lon="-0.733819">
        <ele>959</ele>
        <time>2019-04-19T08:32:42.000Z</time>
      </trkpt>
      <trkpt lat="38.474945" lon="-0.733799">
        <ele>960</ele>
        <time>2019-04-19T08:32:50.000Z</time>
      </trkpt>
      <trkpt lat="38.474952" lon="-0.733777">
        <ele>960</ele>
        <time>2019-04-19T08:32:52.000Z</time>
      </trkpt>
      <trkpt lat="38.474956" lon="-0.733753">
        <ele>960</ele>
        <time>2019-04-19T08:32:54.000Z</time>
      </trkpt>
      <trkpt lat="38.474963" lon="-0.733722">
        <ele>960</ele>
        <time>2019-04-19T08:32:56.000Z</time>
      </trkpt>
      <trkpt lat="38.474968" lon="-0.733691">
        <ele>960</ele>
        <time>2019-04-19T08:32:58.000Z</time>
      </trkpt>
      <trkpt lat="38.474975" lon="-0.733659">
        <ele>960</ele>
        <time>2019-04-19T08:33:00.000Z</time>
      </trkpt>
      <trkpt lat="38.474979" lon="-0.733633">
        <ele>960</ele>
        <time>2019-04-19T08:33:02.000Z</time>
      </trkpt>
      <trkpt lat="38.47498" lon="-0.733609">
        <ele>960.604396995527</ele>
        <time>2019-04-19T08:33:04.000Z</time>
      </trkpt>
      <trkpt lat="38.474986" lon="-0.733574">
        <ele>962</ele>
        <time>2019-04-19T08:33:07.000Z</time>
      </trkpt>
      <trkpt lat="38.475" lon="-0.733546">
        <ele>962</ele>
        <time>2019-04-19T08:33:09.000Z</time>
      </trkpt>
      <trkpt lat="38.475014" lon="-0.733524">
        <ele>962</ele>
        <time>2019-04-19T08:33:11.000Z</time>
      </trkpt>
      <trkpt lat="38.475023" lon="-0.733496">
        <ele>963.587157687068</ele>
        <time>2019-04-19T08:33:13.000Z</time>
      </trkpt>
      <trkpt lat="38.475032" lon="-0.733464">
        <ele>964</ele>
        <time>2019-04-19T08:33:16.000Z</time>
      </trkpt>
      <trkpt lat="38.47504" lon="-0.733442">
        <ele>964</ele>
        <time>2019-04-19T08:33:18.000Z</time>
      </trkpt>
      <trkpt lat="38.475048" lon="-0.73342">
        <ele>964.64</ele>
        <time>2019-04-19T08:33:20.000Z</time>
      </trkpt>
      <trkpt lat="38.475064" lon="-0.733393">
        <ele>965.604396995527</ele>
        <time>2019-04-19T08:33:23.000Z</time>
      </trkpt>
      <trkpt lat="38.475078" lon="-0.733362">
        <ele>966</ele>
        <time>2019-04-19T08:33:26.000Z</time>
      </trkpt>
      <trkpt lat="38.475092" lon="-0.733332">
        <ele>967.64</ele>
        <time>2019-04-19T08:33:29.000Z</time>
      </trkpt>
      <trkpt lat="38.4751" lon="-0.733302">
        <ele>968</ele>
        <time>2019-04-19T08:33:32.000Z</time>
      </trkpt>
      <trkpt lat="38.475094" lon="-0.73328">
        <ele>968.492960031729</ele>
        <time>2019-04-19T08:33:35.000Z</time>
      </trkpt>
      <trkpt lat="38.475076" lon="-0.733285">
        <ele>969</ele>
        <time>2019-04-19T08:33:38.000Z</time>
      </trkpt>
      <trkpt lat="38.475058" lon="-0.733293">
        <ele>970</ele>
        <time>2019-04-19T08:33:40.000Z</time>
      </trkpt>
      <trkpt lat="38.475038" lon="-0.733318">
        <ele>970</ele>
        <time>2019-04-19T08:33:43.000Z</time>
      </trkpt>
      <trkpt lat="38.475018" lon="-0.733338">
        <ele>970</ele>
        <time>2019-04-19T08:33:45.000Z</time>
      </trkpt>
      <trkpt lat="38.475" lon="-0.733358">
        <ele>970</ele>
        <time>2019-04-19T08:33:47.000Z</time>
      </trkpt>
      <trkpt lat="38.474984" lon="-0.73338">
        <ele>970</ele>
        <time>2019-04-19T08:33:49.000Z</time>
      </trkpt>
      <trkpt lat="38.474968" lon="-0.733398">
        <ele>970</ele>
        <time>2019-04-19T08:33:51.000Z</time>
      </trkpt>
      <trkpt lat="38.47495" lon="-0.733416">
        <ele>970</ele>
        <time>2019-04-19T08:33:53.000Z</time>
      </trkpt>
      <trkpt lat="38.474934" lon="-0.733434">
        <ele>970</ele>
        <time>2019-04-19T08:33:55.000Z</time>
      </trkpt>
      <trkpt lat="38.474916" lon="-0.733454">
        <ele>970.64</ele>
        <time>2019-04-19T08:33:57.000Z</time>
      </trkpt>
      <trkpt lat="38.474902" lon="-0.73347">
        <ele>971</ele>
        <time>2019-04-19T08:33:59.000Z</time>
      </trkpt>
      <trkpt lat="38.474881" lon="-0.733486">
        <ele>971</ele>
        <time>2019-04-19T08:34:01.000Z</time>
      </trkpt>
      <trkpt lat="38.474859" lon="-0.733505">
        <ele>971</ele>
        <time>2019-04-19T08:34:03.000Z</time>
      </trkpt>
      <trkpt lat="38.474831" lon="-0.73352">
        <ele>971</ele>
        <time>2019-04-19T08:34:05.000Z</time>
      </trkpt>
      <trkpt lat="38.474813" lon="-0.733539">
        <ele>971</ele>
        <time>2019-04-19T08:34:07.000Z</time>
      </trkpt>
      <trkpt lat="38.474797" lon="-0.733564">
        <ele>971</ele>
        <time>2019-04-19T08:34:09.000Z</time>
      </trkpt>
      <trkpt lat="38.47478" lon="-0.733587">
        <ele>972</ele>
        <time>2019-04-19T08:34:11.000Z</time>
      </trkpt>
      <trkpt lat="38.474765" lon="-0.733611">
        <ele>972</ele>
        <time>2019-04-19T08:34:13.000Z</time>
      </trkpt>
      <trkpt lat="38.474752" lon="-0.733636">
        <ele>972</ele>
        <time>2019-04-19T08:34:15.000Z</time>
      </trkpt>
      <trkpt lat="38.474739" lon="-0.733655">
        <ele>973</ele>
        <time>2019-04-19T08:34:17.000Z</time>
      </trkpt>
      <trkpt lat="38.47472" lon="-0.733679">
        <ele>973.581821566962</ele>
        <time>2019-04-19T08:34:19.000Z</time>
      </trkpt>
      <trkpt lat="38.474706" lon="-0.733701">
        <ele>974</ele>
        <time>2019-04-19T08:34:21.000Z</time>
      </trkpt>
      <trkpt lat="38.474686" lon="-0.733722">
        <ele>974</ele>
        <time>2019-04-19T08:34:23.000Z</time>
      </trkpt>
      <trkpt lat="38.474666" lon="-0.733741">
        <ele>974</ele>
        <time>2019-04-19T08:34:25.000Z</time>
      </trkpt>
      <trkpt lat="38.474645" lon="-0.733766">
        <ele>975</ele>
        <time>2019-04-19T08:34:27.000Z</time>
      </trkpt>
      <trkpt lat="38.474628" lon="-0.733787">
        <ele>975.975757528742</ele>
        <time>2019-04-19T08:34:29.000Z</time>
      </trkpt>
      <trkpt lat="38.474612" lon="-0.73381">
        <ele>976</ele>
        <time>2019-04-19T08:34:31.000Z</time>
      </trkpt>
      <trkpt lat="38.474592" lon="-0.733831">
        <ele>976</ele>
        <time>2019-04-19T08:34:33.000Z</time>
      </trkpt>
      <trkpt lat="38.474579" lon="-0.733854">
        <ele>976.64</ele>
        <time>2019-04-19T08:34:35.000Z</time>
      </trkpt>
      <trkpt lat="38.474565" lon="-0.733874">
        <ele>977</ele>
        <time>2019-04-19T08:34:37.000Z</time>
      </trkpt>
      <trkpt lat="38.474553" lon="-0.733892">
        <ele>977</ele>
        <time>2019-04-19T08:34:39.000Z</time>
      </trkpt>
      <trkpt lat="38.474544" lon="-0.733872">
        <ele>978</ele>
        <time>2019-04-19T08:34:43.000Z</time>
      </trkpt>
      <trkpt lat="38.474535" lon="-0.733842">
        <ele>979</ele>
        <time>2019-04-19T08:34:46.000Z</time>
      </trkpt>
      <trkpt lat="38.474536" lon="-0.733808">
        <ele>980</ele>
        <time>2019-04-19T08:34:49.000Z</time>
      </trkpt>
      <trkpt lat="38.474539" lon="-0.733777">
        <ele>981</ele>
        <time>2019-04-19T08:34:52.000Z</time>
      </trkpt>
      <trkpt lat="38.474544" lon="-0.733755">
        <ele>981</ele>
        <time>2019-04-19T08:34:54.000Z</time>
      </trkpt>
      <trkpt lat="38.474542" lon="-0.733723">
        <ele>982</ele>
        <time>2019-04-19T08:34:57.000Z</time>
      </trkpt>
      <trkpt lat="38.474543" lon="-0.733699">
        <ele>982</ele>
        <time>2019-04-19T08:34:59.000Z</time>
      </trkpt>
      <trkpt lat="38.474544" lon="-0.733676">
        <ele>983</ele>
        <time>2019-04-19T08:35:01.000Z</time>
      </trkpt>
      <trkpt lat="38.474549" lon="-0.733652">
        <ele>983.617023884093</ele>
        <time>2019-04-19T08:35:03.000Z</time>
      </trkpt>
      <trkpt lat="38.474556" lon="-0.733628">
        <ele>984</ele>
        <time>2019-04-19T08:35:05.000Z</time>
      </trkpt>
      <trkpt lat="38.474562" lon="-0.733601">
        <ele>984</ele>
        <time>2019-04-19T08:35:07.000Z</time>
      </trkpt>
      <trkpt lat="38.474564" lon="-0.733579">
        <ele>984</ele>
        <time>2019-04-19T08:35:09.000Z</time>
      </trkpt>
      <trkpt lat="38.474564" lon="-0.733551">
        <ele>985</ele>
        <time>2019-04-19T08:35:11.000Z</time>
      </trkpt>
      <trkpt lat="38.474568" lon="-0.733521">
        <ele>985.64</ele>
        <time>2019-04-19T08:35:14.000Z</time>
      </trkpt>
      <trkpt lat="38.474577" lon="-0.733492">
        <ele>987</ele>
        <time>2019-04-19T08:35:17.000Z</time>
      </trkpt>
      <trkpt lat="38.474581" lon="-0.733459">
        <ele>987</ele>
        <time>2019-04-19T08:35:20.000Z</time>
      </trkpt>
      <trkpt lat="38.474585" lon="-0.733427">
        <ele>988</ele>
        <time>2019-04-19T08:35:23.000Z</time>
      </trkpt>
      <trkpt lat="38.474587" lon="-0.733396">
        <ele>988.485709583631</ele>
        <time>2019-04-19T08:35:26.000Z</time>
      </trkpt>
      <trkpt lat="38.474589" lon="-0.733366">
        <ele>990</ele>
        <time>2019-04-19T08:35:29.000Z</time>
      </trkpt>
      <trkpt lat="38.474592" lon="-0.733334">
        <ele>990.64</ele>
        <time>2019-04-19T08:35:32.000Z</time>
      </trkpt>
      <trkpt lat="38.474598" lon="-0.733306">
        <ele>992</ele>
        <time>2019-04-19T08:35:35.000Z</time>
      </trkpt>
      <trkpt lat="38.474611" lon="-0.733276">
        <ele>992</ele>
        <time>2019-04-19T08:35:38.000Z</time>
      </trkpt>
      <trkpt lat="38.474619" lon="-0.733254">
        <ele>992</ele>
        <time>2019-04-19T08:35:40.000Z</time>
      </trkpt>
      <trkpt lat="38.474631" lon="-0.733224">
        <ele>993</ele>
        <time>2019-04-19T08:35:43.000Z</time>
      </trkpt>
      <trkpt lat="38.474642" lon="-0.733196">
        <ele>994</ele>
        <time>2019-04-19T08:35:46.000Z</time>
      </trkpt>
      <trkpt lat="38.474645" lon="-0.733171">
        <ele>995</ele>
        <time>2019-04-19T08:35:49.000Z</time>
      </trkpt>
      <trkpt lat="38.474657" lon="-0.733144">
        <ele>996</ele>
        <time>2019-04-19T08:35:52.000Z</time>
      </trkpt>
      <trkpt lat="38.474662" lon="-0.733122">
        <ele>996.592592592593</ele>
        <time>2019-04-19T08:35:54.000Z</time>
      </trkpt>
      <trkpt lat="38.47466" lon="-0.733098">
        <ele>997</ele>
        <time>2019-04-19T08:35:57.000Z</time>
      </trkpt>
      <trkpt lat="38.474669" lon="-0.733072">
        <ele>998</ele>
        <time>2019-04-19T08:36:00.000Z</time>
      </trkpt>
      <trkpt lat="38.474677" lon="-0.733041">
        <ele>998</ele>
        <time>2019-04-19T08:36:03.000Z</time>
      </trkpt>
      <trkpt lat="38.474689" lon="-0.733013">
        <ele>998</ele>
        <time>2019-04-19T08:36:06.000Z</time>
      </trkpt>
      <trkpt lat="38.474699" lon="-0.732984">
        <ele>999.612901893856</ele>
        <time>2019-04-19T08:36:09.000Z</time>
      </trkpt>
      <trkpt lat="38.474706" lon="-0.732954">
        <ele>1000</ele>
        <time>2019-04-19T08:36:12.000Z</time>
      </trkpt>
      <trkpt lat="38.474688" lon="-0.732962">
        <ele>1001</ele>
        <time>2019-04-19T08:36:21.000Z</time>
      </trkpt>
      <trkpt lat="38.474668" lon="-0.732984">
        <ele>1002</ele>
        <time>2019-04-19T08:36:31.000Z</time>
      </trkpt>
      <trkpt lat="38.47465" lon="-0.733006">
        <ele>1002</ele>
        <time>2019-04-19T08:36:33.000Z</time>
      </trkpt>
      <trkpt lat="38.47463" lon="-0.733027">
        <ele>1002</ele>
        <time>2019-04-19T08:36:35.000Z</time>
      </trkpt>
      <trkpt lat="38.474615" lon="-0.733043">
        <ele>1003</ele>
        <time>2019-04-19T08:36:37.000Z</time>
      </trkpt>
      <trkpt lat="38.474602" lon="-0.73306">
        <ele>1003</ele>
        <time>2019-04-19T08:36:39.000Z</time>
      </trkpt>
      <trkpt lat="38.474582" lon="-0.733083">
        <ele>1003</ele>
        <time>2019-04-19T08:36:43.000Z</time>
      </trkpt>
      <trkpt lat="38.474571" lon="-0.733103">
        <ele>1003</ele>
        <time>2019-04-19T08:36:45.000Z</time>
      </trkpt>
      <trkpt lat="38.474553" lon="-0.733121">
        <ele>1003</ele>
        <time>2019-04-19T08:36:47.000Z</time>
      </trkpt>
      <trkpt lat="38.474539" lon="-0.733138">
        <ele>1003</ele>
        <time>2019-04-19T08:36:49.000Z</time>
      </trkpt>
      <trkpt lat="38.474511" lon="-0.733156">
        <ele>1004.60869565217</ele>
        <time>2019-04-19T08:36:52.000Z</time>
      </trkpt>
      <trkpt lat="38.47449" lon="-0.733173">
        <ele>1005</ele>
        <time>2019-04-19T08:36:54.000Z</time>
      </trkpt>
      <trkpt lat="38.474474" lon="-0.733198">
        <ele>1005</ele>
        <time>2019-04-19T08:36:56.000Z</time>
      </trkpt>
      <trkpt lat="38.474455" lon="-0.73322">
        <ele>1005</ele>
        <time>2019-04-19T08:36:58.000Z</time>
      </trkpt>
      <trkpt lat="38.47444" lon="-0.733237">
        <ele>1005</ele>
        <time>2019-04-19T08:37:00.000Z</time>
      </trkpt>
      <trkpt lat="38.474423" lon="-0.733255">
        <ele>1005.60439699553</ele>
        <time>2019-04-19T08:37:02.000Z</time>
      </trkpt>
      <trkpt lat="38.474407" lon="-0.733275">
        <ele>1006</ele>
        <time>2019-04-19T08:37:04.000Z</time>
      </trkpt>
      <trkpt lat="38.474386" lon="-0.733293">
        <ele>1006</ele>
        <time>2019-04-19T08:37:06.000Z</time>
      </trkpt>
      <trkpt lat="38.474364" lon="-0.733315">
        <ele>1006</ele>
        <time>2019-04-19T08:37:08.000Z</time>
      </trkpt>
      <trkpt lat="38.474342" lon="-0.733334">
        <ele>1007</ele>
        <time>2019-04-19T08:37:10.000Z</time>
      </trkpt>
      <trkpt lat="38.474326" lon="-0.733352">
        <ele>1008</ele>
        <time>2019-04-19T08:37:12.000Z</time>
      </trkpt>
      <trkpt lat="38.474313" lon="-0.733373">
        <ele>1008</ele>
        <time>2019-04-19T08:37:14.000Z</time>
      </trkpt>
      <trkpt lat="38.474296" lon="-0.733391">
        <ele>1009</ele>
        <time>2019-04-19T08:37:16.000Z</time>
      </trkpt>
      <trkpt lat="38.474275" lon="-0.733404">
        <ele>1009</ele>
        <time>2019-04-19T08:37:18.000Z</time>
      </trkpt>
      <trkpt lat="38.474256" lon="-0.733415">
        <ele>1010</ele>
        <time>2019-04-19T08:37:20.000Z</time>
      </trkpt>
      <trkpt lat="38.474238" lon="-0.733439">
        <ele>1010</ele>
        <time>2019-04-19T08:37:22.000Z</time>
      </trkpt>
      <trkpt lat="38.474227" lon="-0.73347">
        <ele>1010</ele>
        <time>2019-04-19T08:37:24.000Z</time>
      </trkpt>
      <trkpt lat="38.474211" lon="-0.733488">
        <ele>1010</ele>
        <time>2019-04-19T08:37:26.000Z</time>
      </trkpt>
      <trkpt lat="38.474193" lon="-0.7335">
        <ele>1010</ele>
        <time>2019-04-19T08:37:28.000Z</time>
      </trkpt>
      <trkpt lat="38.474178" lon="-0.733514">
        <ele>1011</ele>
        <time>2019-04-19T08:37:31.000Z</time>
      </trkpt>
      <trkpt lat="38.474169" lon="-0.733491">
        <ele>1012</ele>
        <time>2019-04-19T08:37:34.000Z</time>
      </trkpt>
      <trkpt lat="38.474168" lon="-0.733462">
        <ele>1012.64</ele>
        <time>2019-04-19T08:37:37.000Z</time>
      </trkpt>
      <trkpt lat="38.47418" lon="-0.733436">
        <ele>1013</ele>
        <time>2019-04-19T08:37:39.000Z</time>
      </trkpt>
      <trkpt lat="38.474192" lon="-0.73341">
        <ele>1013</ele>
        <time>2019-04-19T08:37:41.000Z</time>
      </trkpt>
      <trkpt lat="38.474202" lon="-0.733382">
        <ele>1013</ele>
        <time>2019-04-19T08:37:43.000Z</time>
      </trkpt>
      <trkpt lat="38.474211" lon="-0.733355">
        <ele>1013</ele>
        <time>2019-04-19T08:37:45.000Z</time>
      </trkpt>
      <trkpt lat="38.47422" lon="-0.733325">
        <ele>1013</ele>
        <time>2019-04-19T08:37:47.000Z</time>
      </trkpt>
      <trkpt lat="38.474227" lon="-0.733299">
        <ele>1014</ele>
        <time>2019-04-19T08:37:49.000Z</time>
      </trkpt>
      <trkpt lat="38.474231" lon="-0.733272">
        <ele>1014</ele>
        <time>2019-04-19T08:37:51.000Z</time>
      </trkpt>
      <trkpt lat="38.474239" lon="-0.73325">
        <ele>1014.60952566713</ele>
        <time>2019-04-19T08:37:53.000Z</time>
      </trkpt>
      <trkpt lat="38.474244" lon="-0.733228">
        <ele>1015</ele>
        <time>2019-04-19T08:37:55.000Z</time>
      </trkpt>
      <trkpt lat="38.474253" lon="-0.7332">
        <ele>1015</ele>
        <time>2019-04-19T08:37:57.000Z</time>
      </trkpt>
      <trkpt lat="38.474263" lon="-0.733171">
        <ele>1015</ele>
        <time>2019-04-19T08:37:59.000Z</time>
      </trkpt>
      <trkpt lat="38.474273" lon="-0.733141">
        <ele>1016</ele>
        <time>2019-04-19T08:38:01.000Z</time>
      </trkpt>
      <trkpt lat="38.474285" lon="-0.733117">
        <ele>1016</ele>
        <time>2019-04-19T08:38:03.000Z</time>
      </trkpt>
      <trkpt lat="38.474301" lon="-0.733088">
        <ele>1016.57142857143</ele>
        <time>2019-04-19T08:38:05.000Z</time>
      </trkpt>
      <trkpt lat="38.474313" lon="-0.733057">
        <ele>1017</ele>
        <time>2019-04-19T08:38:07.000Z</time>
      </trkpt>
      <trkpt lat="38.474326" lon="-0.733031">
        <ele>1018</ele>
        <time>2019-04-19T08:38:09.000Z</time>
      </trkpt>
      <trkpt lat="38.474341" lon="-0.733005">
        <ele>1018</ele>
        <time>2019-04-19T08:38:11.000Z</time>
      </trkpt>
      <trkpt lat="38.474351" lon="-0.732981">
        <ele>1018</ele>
        <time>2019-04-19T08:38:13.000Z</time>
      </trkpt>
      <trkpt lat="38.47436" lon="-0.732954">
        <ele>1019</ele>
        <time>2019-04-19T08:38:15.000Z</time>
      </trkpt>
      <trkpt lat="38.474375" lon="-0.732927">
        <ele>1019</ele>
        <time>2019-04-19T08:38:17.000Z</time>
      </trkpt>
      <trkpt lat="38.474394" lon="-0.732899">
        <ele>1019</ele>
        <time>2019-04-19T08:38:19.000Z</time>
      </trkpt>
      <trkpt lat="38.474409" lon="-0.732872">
        <ele>1020</ele>
        <time>2019-04-19T08:38:21.000Z</time>
      </trkpt>
      <trkpt lat="38.474423" lon="-0.732847">
        <ele>1020</ele>
        <time>2019-04-19T08:38:23.000Z</time>
      </trkpt>
      <trkpt lat="38.474434" lon="-0.732824">
        <ele>1020.64</ele>
        <time>2019-04-19T08:38:25.000Z</time>
      </trkpt>
      <trkpt lat="38.474447" lon="-0.732798">
        <ele>1021</ele>
        <time>2019-04-19T08:38:27.000Z</time>
      </trkpt>
      <trkpt lat="38.474454" lon="-0.732771">
        <ele>1021</ele>
        <time>2019-04-19T08:38:29.000Z</time>
      </trkpt>
      <trkpt lat="38.474462" lon="-0.732739">
        <ele>1022.62886475502</ele>
        <time>2019-04-19T08:38:32.000Z</time>
      </trkpt>
      <trkpt lat="38.474471" lon="-0.732716">
        <ele>1023</ele>
        <time>2019-04-19T08:38:34.000Z</time>
      </trkpt>
      <trkpt lat="38.474478" lon="-0.732689">
        <ele>1023</ele>
        <time>2019-04-19T08:38:37.000Z</time>
      </trkpt>
      <trkpt lat="38.474489" lon="-0.732661">
        <ele>1024</ele>
        <time>2019-04-19T08:38:40.000Z</time>
      </trkpt>
      <trkpt lat="38.474499" lon="-0.732637">
        <ele>1024</ele>
        <time>2019-04-19T08:38:42.000Z</time>
      </trkpt>
      <trkpt lat="38.474517" lon="-0.73261">
        <ele>1024.64</ele>
        <time>2019-04-19T08:38:45.000Z</time>
      </trkpt>
      <trkpt lat="38.474533" lon="-0.732588">
        <ele>1025</ele>
        <time>2019-04-19T08:38:47.000Z</time>
      </trkpt>
      <trkpt lat="38.474546" lon="-0.732563">
        <ele>1025</ele>
        <time>2019-04-19T08:38:49.000Z</time>
      </trkpt>
      <trkpt lat="38.47456" lon="-0.732536">
        <ele>1026</ele>
        <time>2019-04-19T08:38:51.000Z</time>
      </trkpt>
      <trkpt lat="38.47457" lon="-0.732512">
        <ele>1026</ele>
        <time>2019-04-19T08:38:53.000Z</time>
      </trkpt>
      <trkpt lat="38.474575" lon="-0.732489">
        <ele>1026.64</ele>
        <time>2019-04-19T08:38:55.000Z</time>
      </trkpt>
      <trkpt lat="38.474588" lon="-0.732465">
        <ele>1028</ele>
        <time>2019-04-19T08:38:58.000Z</time>
      </trkpt>
      <trkpt lat="38.474597" lon="-0.732442">
        <ele>1028</ele>
        <time>2019-04-19T08:39:00.000Z</time>
      </trkpt>
      <trkpt lat="38.474608" lon="-0.732422">
        <ele>1028</ele>
        <time>2019-04-19T08:39:02.000Z</time>
      </trkpt>
      <trkpt lat="38.474629" lon="-0.732405">
        <ele>1028</ele>
        <time>2019-04-19T08:39:04.000Z</time>
      </trkpt>
      <trkpt lat="38.474648" lon="-0.732385">
        <ele>1028</ele>
        <time>2019-04-19T08:39:06.000Z</time>
      </trkpt>
      <trkpt lat="38.47466" lon="-0.732361">
        <ele>1028</ele>
        <time>2019-04-19T08:39:08.000Z</time>
      </trkpt>
      <trkpt lat="38.474672" lon="-0.732342">
        <ele>1028</ele>
        <time>2019-04-19T08:39:10.000Z</time>
      </trkpt>
      <trkpt lat="38.474692" lon="-0.732321">
        <ele>1028.64</ele>
        <time>2019-04-19T08:39:12.000Z</time>
      </trkpt>
      <trkpt lat="38.474714" lon="-0.732295">
        <ele>1029</ele>
        <time>2019-04-19T08:39:14.000Z</time>
      </trkpt>
      <trkpt lat="38.474736" lon="-0.732273">
        <ele>1029</ele>
        <time>2019-04-19T08:39:16.000Z</time>
      </trkpt>
      <trkpt lat="38.474756" lon="-0.732246">
        <ele>1029</ele>
        <time>2019-04-19T08:39:18.000Z</time>
      </trkpt>
      <trkpt lat="38.47477" lon="-0.73222">
        <ele>1029</ele>
        <time>2019-04-19T08:39:20.000Z</time>
      </trkpt>
      <trkpt lat="38.474786" lon="-0.732197">
        <ele>1030</ele>
        <time>2019-04-19T08:39:22.000Z</time>
      </trkpt>
      <trkpt lat="38.474808" lon="-0.732185">
        <ele>1030</ele>
        <time>2019-04-19T08:39:24.000Z</time>
      </trkpt>
      <trkpt lat="38.474834" lon="-0.732165">
        <ele>1030</ele>
        <time>2019-04-19T08:39:26.000Z</time>
      </trkpt>
      <trkpt lat="38.474856" lon="-0.732141">
        <ele>1030</ele>
        <time>2019-04-19T08:39:28.000Z</time>
      </trkpt>
      <trkpt lat="38.474878" lon="-0.732121">
        <ele>1030</ele>
        <time>2019-04-19T08:39:30.000Z</time>
      </trkpt>
      <trkpt lat="38.4749" lon="-0.7321">
        <ele>1030.63265546021</ele>
        <time>2019-04-19T08:39:32.000Z</time>
      </trkpt>
      <trkpt lat="38.474918" lon="-0.732079">
        <ele>1031</ele>
        <time>2019-04-19T08:39:34.000Z</time>
      </trkpt>
      <trkpt lat="38.47494" lon="-0.732065">
        <ele>1031</ele>
        <time>2019-04-19T08:39:36.000Z</time>
      </trkpt>
      <trkpt lat="38.474966" lon="-0.732049">
        <ele>1031.42857433105</ele>
        <time>2019-04-19T08:39:38.000Z</time>
      </trkpt>
      <trkpt lat="38.474988" lon="-0.732025">
        <ele>1032</ele>
        <time>2019-04-19T08:39:40.000Z</time>
      </trkpt>
      <trkpt lat="38.474972" lon="-0.732009">
        <ele>1032</ele>
        <time>2019-04-19T08:39:43.000Z</time>
      </trkpt>
      <trkpt lat="38.474954" lon="-0.732023">
        <ele>1032.60952566713</ele>
        <time>2019-04-19T08:39:45.000Z</time>
      </trkpt>
      <trkpt lat="38.47493" lon="-0.732039">
        <ele>1033</ele>
        <time>2019-04-19T08:39:47.000Z</time>
      </trkpt>
      <trkpt lat="38.474904" lon="-0.73205">
        <ele>1033</ele>
        <time>2019-04-19T08:39:52.000Z</time>
      </trkpt>
      <trkpt lat="38.474878" lon="-0.73206">
        <ele>1033</ele>
        <time>2019-04-19T08:39:54.000Z</time>
      </trkpt>
      <trkpt lat="38.474854" lon="-0.73208">
        <ele>1033</ele>
        <time>2019-04-19T08:39:56.000Z</time>
      </trkpt>
      <trkpt lat="38.474828" lon="-0.732099">
        <ele>1034</ele>
        <time>2019-04-19T08:39:58.000Z</time>
      </trkpt>
      <trkpt lat="38.474802" lon="-0.732116">
        <ele>1034</ele>
        <time>2019-04-19T08:40:00.000Z</time>
      </trkpt>
      <trkpt lat="38.474777" lon="-0.732134">
        <ele>1035</ele>
        <time>2019-04-19T08:40:02.000Z</time>
      </trkpt>
      <trkpt lat="38.474753" lon="-0.732148">
        <ele>1035.60377723035</ele>
        <time>2019-04-19T08:40:04.000Z</time>
      </trkpt>
      <trkpt lat="38.474723" lon="-0.732165">
        <ele>1036</ele>
        <time>2019-04-19T08:40:06.000Z</time>
      </trkpt>
      <trkpt lat="38.474696" lon="-0.732178">
        <ele>1036</ele>
        <time>2019-04-19T08:40:08.000Z</time>
      </trkpt>
      <trkpt lat="38.474668" lon="-0.732195">
        <ele>1036</ele>
        <time>2019-04-19T08:40:10.000Z</time>
      </trkpt>
      <trkpt lat="38.474642" lon="-0.732213">
        <ele>1036</ele>
        <time>2019-04-19T08:40:12.000Z</time>
      </trkpt>
      <trkpt lat="38.47462" lon="-0.732236">
        <ele>1036</ele>
        <time>2019-04-19T08:40:14.000Z</time>
      </trkpt>
      <trkpt lat="38.474594" lon="-0.732257">
        <ele>1036</ele>
        <time>2019-04-19T08:40:16.000Z</time>
      </trkpt>
      <trkpt lat="38.474566" lon="-0.732277">
        <ele>1036.48570958363</ele>
        <time>2019-04-19T08:40:18.000Z</time>
      </trkpt>
      <trkpt lat="38.474539" lon="-0.732296">
        <ele>1037</ele>
        <time>2019-04-19T08:40:20.000Z</time>
      </trkpt>
      <trkpt lat="38.474518" lon="-0.732315">
        <ele>1037</ele>
        <time>2019-04-19T08:40:22.000Z</time>
      </trkpt>
      <trkpt lat="38.474501" lon="-0.732335">
        <ele>1037</ele>
        <time>2019-04-19T08:40:24.000Z</time>
      </trkpt>
      <trkpt lat="38.474483" lon="-0.732352">
        <ele>1037</ele>
        <time>2019-04-19T08:40:26.000Z</time>
      </trkpt>
      <trkpt lat="38.474458" lon="-0.732368">
        <ele>1037</ele>
        <time>2019-04-19T08:40:28.000Z</time>
      </trkpt>
      <trkpt lat="38.474432" lon="-0.732387">
        <ele>1037</ele>
        <time>2019-04-19T08:40:30.000Z</time>
      </trkpt>
      <trkpt lat="38.474407" lon="-0.732406">
        <ele>1037.47058823529</ele>
        <time>2019-04-19T08:40:32.000Z</time>
      </trkpt>
      <trkpt lat="38.474382" lon="-0.732422">
        <ele>1038</ele>
        <time>2019-04-19T08:40:34.000Z</time>
      </trkpt>
      <trkpt lat="38.474358" lon="-0.732437">
        <ele>1038</ele>
        <time>2019-04-19T08:40:36.000Z</time>
      </trkpt>
      <trkpt lat="38.474333" lon="-0.732455">
        <ele>1039</ele>
        <time>2019-04-19T08:40:38.000Z</time>
      </trkpt>
      <trkpt lat="38.474307" lon="-0.732478">
        <ele>1039</ele>
        <time>2019-04-19T08:40:40.000Z</time>
      </trkpt>
      <trkpt lat="38.474286" lon="-0.732502">
        <ele>1039</ele>
        <time>2019-04-19T08:40:42.000Z</time>
      </trkpt>
      <trkpt lat="38.474261" lon="-0.732524">
        <ele>1039.57142857143</ele>
        <time>2019-04-19T08:40:44.000Z</time>
      </trkpt>
      <trkpt lat="38.474238" lon="-0.732543">
        <ele>1040.375</ele>
        <time>2019-04-19T08:40:48.000Z</time>
      </trkpt>
      <trkpt lat="38.474213" lon="-0.732568">
        <ele>1040</ele>
        <time>2019-04-19T08:40:50.000Z</time>
      </trkpt>
      <trkpt lat="38.47419" lon="-0.732591">
        <ele>1040</ele>
        <time>2019-04-19T08:40:52.000Z</time>
      </trkpt>
      <trkpt lat="38.474165" lon="-0.732615">
        <ele>1040</ele>
        <time>2019-04-19T08:40:54.000Z</time>
      </trkpt>
      <trkpt lat="38.474143" lon="-0.732634">
        <ele>1040</ele>
        <time>2019-04-19T08:40:56.000Z</time>
      </trkpt>
      <trkpt lat="38.474138" lon="-0.732604">
        <ele>1041</ele>
        <time>2019-04-19T08:41:01.000Z</time>
      </trkpt>
      <trkpt lat="38.47415" lon="-0.732576">
        <ele>1042</ele>
        <time>2019-04-19T08:41:03.000Z</time>
      </trkpt>
      <trkpt lat="38.474164" lon="-0.732547">
        <ele>1042</ele>
        <time>2019-04-19T08:41:05.000Z</time>
      </trkpt>
      <trkpt lat="38.474174" lon="-0.732517">
        <ele>1042.61290189386</ele>
        <time>2019-04-19T08:41:07.000Z</time>
      </trkpt>
      <trkpt lat="38.474182" lon="-0.732487">
        <ele>1043</ele>
        <time>2019-04-19T08:41:09.000Z</time>
      </trkpt>
      <trkpt lat="38.474193" lon="-0.732459">
        <ele>1043</ele>
        <time>2019-04-19T08:41:11.000Z</time>
      </trkpt>
      <trkpt lat="38.474202" lon="-0.732432">
        <ele>1043</ele>
        <time>2019-04-19T08:41:13.000Z</time>
      </trkpt>
      <trkpt lat="38.474208" lon="-0.732405">
        <ele>1043.64</ele>
        <time>2019-04-19T08:41:15.000Z</time>
      </trkpt>
      <trkpt lat="38.474218" lon="-0.732383">
        <ele>1044</ele>
        <time>2019-04-19T08:41:17.000Z</time>
      </trkpt>
      <trkpt lat="38.474224" lon="-0.732358">
        <ele>1045</ele>
        <time>2019-04-19T08:41:19.000Z</time>
      </trkpt>
      <trkpt lat="38.474232" lon="-0.732331">
        <ele>1045.64</ele>
        <time>2019-04-19T08:41:21.000Z</time>
      </trkpt>
      <trkpt lat="38.474246" lon="-0.732303">
        <ele>1046</ele>
        <time>2019-04-19T08:41:23.000Z</time>
      </trkpt>
      <trkpt lat="38.474258" lon="-0.732274">
        <ele>1046</ele>
        <time>2019-04-19T08:41:25.000Z</time>
      </trkpt>
      <trkpt lat="38.47427" lon="-0.732246">
        <ele>1046</ele>
        <time>2019-04-19T08:41:27.000Z</time>
      </trkpt>
      <trkpt lat="38.474282" lon="-0.732217">
        <ele>1047.49230526865</ele>
        <time>2019-04-19T08:41:29.000Z</time>
      </trkpt>
      <trkpt lat="38.474296" lon="-0.73219">
        <ele>1048</ele>
        <time>2019-04-19T08:41:31.000Z</time>
      </trkpt>
      <trkpt lat="38.474306" lon="-0.732166">
        <ele>1049</ele>
        <time>2019-04-19T08:41:33.000Z</time>
      </trkpt>
      <trkpt lat="38.474318" lon="-0.732145">
        <ele>1049</ele>
        <time>2019-04-19T08:41:35.000Z</time>
      </trkpt>
      <trkpt lat="38.474326" lon="-0.73212">
        <ele>1049</ele>
        <time>2019-04-19T08:41:37.000Z</time>
      </trkpt>
      <trkpt lat="38.47433" lon="-0.732095">
        <ele>1050</ele>
        <time>2019-04-19T08:41:39.000Z</time>
      </trkpt>
      <trkpt lat="38.474334" lon="-0.732064">
        <ele>1050</ele>
        <time>2019-04-19T08:41:42.000Z</time>
      </trkpt>
      <trkpt lat="38.474344" lon="-0.732043">
        <ele>1050.56637328531</ele>
        <time>2019-04-19T08:41:45.000Z</time>
      </trkpt>
      <trkpt lat="38.474356" lon="-0.732024">
        <ele>1051</ele>
        <time>2019-04-19T08:41:47.000Z</time>
      </trkpt>
      <trkpt lat="38.474376" lon="-0.731998">
        <ele>1051</ele>
        <time>2019-04-19T08:41:49.000Z</time>
      </trkpt>
      <trkpt lat="38.474394" lon="-0.731975">
        <ele>1051</ele>
        <time>2019-04-19T08:41:51.000Z</time>
      </trkpt>
      <trkpt lat="38.47441" lon="-0.731947">
        <ele>1051</ele>
        <time>2019-04-19T08:41:53.000Z</time>
      </trkpt>
      <trkpt lat="38.474428" lon="-0.731921">
        <ele>1051.57142857143</ele>
        <time>2019-04-19T08:41:55.000Z</time>
      </trkpt>
      <trkpt lat="38.474446" lon="-0.731894">
        <ele>1052</ele>
        <time>2019-04-19T08:41:57.000Z</time>
      </trkpt>
      <trkpt lat="38.474464" lon="-0.731868">
        <ele>1052</ele>
        <time>2019-04-19T08:41:59.000Z</time>
      </trkpt>
      <trkpt lat="38.474479" lon="-0.73184">
        <ele>1052.58620841854</ele>
        <time>2019-04-19T08:42:01.000Z</time>
      </trkpt>
      <trkpt lat="38.474495" lon="-0.731816">
        <ele>1053</ele>
        <time>2019-04-19T08:42:03.000Z</time>
      </trkpt>
      <trkpt lat="38.474512" lon="-0.731795">
        <ele>1053.64</ele>
        <time>2019-04-19T08:42:05.000Z</time>
      </trkpt>
      <trkpt lat="38.474531" lon="-0.731774">
        <ele>1054</ele>
        <time>2019-04-19T08:42:07.000Z</time>
      </trkpt>
      <trkpt lat="38.474544" lon="-0.731752">
        <ele>1054</ele>
        <time>2019-04-19T08:42:09.000Z</time>
      </trkpt>
      <trkpt lat="38.474563" lon="-0.731725">
        <ele>1055</ele>
        <time>2019-04-19T08:42:11.000Z</time>
      </trkpt>
      <trkpt lat="38.474582" lon="-0.731702">
        <ele>1055</ele>
        <time>2019-04-19T08:42:13.000Z</time>
      </trkpt>
      <trkpt lat="38.474598" lon="-0.731679">
        <ele>1055</ele>
        <time>2019-04-19T08:42:15.000Z</time>
      </trkpt>
      <trkpt lat="38.474616" lon="-0.731658">
        <ele>1056</ele>
        <time>2019-04-19T08:42:17.000Z</time>
      </trkpt>
      <trkpt lat="38.474632" lon="-0.731636">
        <ele>1056</ele>
        <time>2019-04-19T08:42:19.000Z</time>
      </trkpt>
      <trkpt lat="38.474648" lon="-0.731616">
        <ele>1056</ele>
        <time>2019-04-19T08:42:21.000Z</time>
      </trkpt>
      <trkpt lat="38.474666" lon="-0.731596">
        <ele>1056</ele>
        <time>2019-04-19T08:42:23.000Z</time>
      </trkpt>
      <trkpt lat="38.474682" lon="-0.731574">
        <ele>1057</ele>
        <time>2019-04-19T08:42:25.000Z</time>
      </trkpt>
      <trkpt lat="38.474697" lon="-0.731554">
        <ele>1057.48571898771</ele>
        <time>2019-04-19T08:42:27.000Z</time>
      </trkpt>
      <trkpt lat="38.474713" lon="-0.731532">
        <ele>1058</ele>
        <time>2019-04-19T08:42:29.000Z</time>
      </trkpt>
      <trkpt lat="38.474729" lon="-0.731512">
        <ele>1058</ele>
        <time>2019-04-19T08:42:31.000Z</time>
      </trkpt>
      <trkpt lat="38.474746" lon="-0.73149">
        <ele>1059</ele>
        <time>2019-04-19T08:42:33.000Z</time>
      </trkpt>
      <trkpt lat="38.47476" lon="-0.731466">
        <ele>1059</ele>
        <time>2019-04-19T08:42:35.000Z</time>
      </trkpt>
      <trkpt lat="38.474777" lon="-0.731446">
        <ele>1059</ele>
        <time>2019-04-19T08:42:37.000Z</time>
      </trkpt>
      <trkpt lat="38.474794" lon="-0.731426">
        <ele>1059.59999715554</ele>
        <time>2019-04-19T08:42:39.000Z</time>
      </trkpt>
      <trkpt lat="38.474814" lon="-0.731405">
        <ele>1060</ele>
        <time>2019-04-19T08:42:41.000Z</time>
      </trkpt>
      <trkpt lat="38.474831" lon="-0.731386">
        <ele>1060</ele>
        <time>2019-04-19T08:42:43.000Z</time>
      </trkpt>
      <trkpt lat="38.474848" lon="-0.731364">
        <ele>1061</ele>
        <time>2019-04-19T08:42:45.000Z</time>
      </trkpt>
      <trkpt lat="38.474865" lon="-0.731342">
        <ele>1061</ele>
        <time>2019-04-19T08:42:47.000Z</time>
      </trkpt>
      <trkpt lat="38.474882" lon="-0.731324">
        <ele>1061.56637328531</ele>
        <time>2019-04-19T08:42:49.000Z</time>
      </trkpt>
      <trkpt lat="38.474901" lon="-0.731304">
        <ele>1062</ele>
        <time>2019-04-19T08:42:51.000Z</time>
      </trkpt>
      <trkpt lat="38.474918" lon="-0.731284">
        <ele>1062.62105390803</ele>
        <time>2019-04-19T08:42:53.000Z</time>
      </trkpt>
      <trkpt lat="38.47493" lon="-0.731266">
        <ele>1063</ele>
        <time>2019-04-19T08:42:55.000Z</time>
      </trkpt>
      <trkpt lat="38.474947" lon="-0.731247">
        <ele>1063.60952566713</ele>
        <time>2019-04-19T08:42:57.000Z</time>
      </trkpt>
      <trkpt lat="38.474962" lon="-0.73122">
        <ele>1064.58620841854</ele>
        <time>2019-04-19T08:43:00.000Z</time>
      </trkpt>
      <trkpt lat="38.474974" lon="-0.731202">
        <ele>1065</ele>
        <time>2019-04-19T08:43:02.000Z</time>
      </trkpt>
      <trkpt lat="38.474991" lon="-0.731189">
        <ele>1065</ele>
        <time>2019-04-19T08:43:04.000Z</time>
      </trkpt>
      <trkpt lat="38.475009" lon="-0.731173">
        <ele>1065</ele>
        <time>2019-04-19T08:43:06.000Z</time>
      </trkpt>
      <trkpt lat="38.475029" lon="-0.731149">
        <ele>1066</ele>
        <time>2019-04-19T08:43:08.000Z</time>
      </trkpt>
      <trkpt lat="38.475047" lon="-0.731127">
        <ele>1066.59812905232</ele>
        <time>2019-04-19T08:43:10.000Z</time>
      </trkpt>
      <trkpt lat="38.475066" lon="-0.731107">
        <ele>1067</ele>
        <time>2019-04-19T08:43:12.000Z</time>
      </trkpt>
      <trkpt lat="38.475082" lon="-0.731085">
        <ele>1067.64</ele>
        <time>2019-04-19T08:43:14.000Z</time>
      </trkpt>
      <trkpt lat="38.475094" lon="-0.731063">
        <ele>1068</ele>
        <time>2019-04-19T08:43:16.000Z</time>
      </trkpt>
      <trkpt lat="38.475105" lon="-0.731043">
        <ele>1068</ele>
        <time>2019-04-19T08:43:18.000Z</time>
      </trkpt>
      <trkpt lat="38.475115" lon="-0.731021">
        <ele>1069</ele>
        <time>2019-04-19T08:43:20.000Z</time>
      </trkpt>
      <trkpt lat="38.475121" lon="-0.730996">
        <ele>1069.64</ele>
        <time>2019-04-19T08:43:22.000Z</time>
      </trkpt>
      <trkpt lat="38.475127" lon="-0.730972">
        <ele>1070</ele>
        <time>2019-04-19T08:43:24.000Z</time>
      </trkpt>
      <trkpt lat="38.475138" lon="-0.730951">
        <ele>1070.60439699553</ele>
        <time>2019-04-19T08:43:26.000Z</time>
      </trkpt>
      <trkpt lat="38.475153" lon="-0.730934">
        <ele>1071</ele>
        <time>2019-04-19T08:43:28.000Z</time>
      </trkpt>
      <trkpt lat="38.475169" lon="-0.730914">
        <ele>1071</ele>
        <time>2019-04-19T08:43:30.000Z</time>
      </trkpt>
      <trkpt lat="38.475183" lon="-0.730892">
        <ele>1072.64</ele>
        <time>2019-04-19T08:43:32.000Z</time>
      </trkpt>
      <trkpt lat="38.475195" lon="-0.730869">
        <ele>1073.63636481175</ele>
        <time>2019-04-19T08:43:34.000Z</time>
      </trkpt>
      <trkpt lat="38.475205" lon="-0.730848">
        <ele>1074</ele>
        <time>2019-04-19T08:43:36.000Z</time>
      </trkpt>
      <trkpt lat="38.47522" lon="-0.730819">
        <ele>1074</ele>
        <time>2019-04-19T08:43:39.000Z</time>
      </trkpt>
      <trkpt lat="38.475229" lon="-0.730799">
        <ele>1075</ele>
        <time>2019-04-19T08:43:41.000Z</time>
      </trkpt>
      <trkpt lat="38.475245" lon="-0.730772">
        <ele>1075</ele>
        <time>2019-04-19T08:43:44.000Z</time>
      </trkpt>
      <trkpt lat="38.475265" lon="-0.730754">
        <ele>1075</ele>
        <time>2019-04-19T08:43:46.000Z</time>
      </trkpt>
      <trkpt lat="38.475287" lon="-0.730739">
        <ele>1075</ele>
        <time>2019-04-19T08:43:48.000Z</time>
      </trkpt>
      <trkpt lat="38.475309" lon="-0.730721">
        <ele>1075.61701866906</ele>
        <time>2019-04-19T08:43:50.000Z</time>
      </trkpt>
      <trkpt lat="38.475326" lon="-0.730702">
        <ele>1076</ele>
        <time>2019-04-19T08:43:52.000Z</time>
      </trkpt>
      <trkpt lat="38.475351" lon="-0.730684">
        <ele>1076</ele>
        <time>2019-04-19T08:43:54.000Z</time>
      </trkpt>
      <trkpt lat="38.475374" lon="-0.730668">
        <ele>1076.59812905232</ele>
        <time>2019-04-19T08:43:56.000Z</time>
      </trkpt>
      <trkpt lat="38.475401" lon="-0.730649">
        <ele>1077</ele>
        <time>2019-04-19T08:43:58.000Z</time>
      </trkpt>
      <trkpt lat="38.475422" lon="-0.730632">
        <ele>1077</ele>
        <time>2019-04-19T08:44:00.000Z</time>
      </trkpt>
      <trkpt lat="38.475443" lon="-0.730613">
        <ele>1077</ele>
        <time>2019-04-19T08:44:02.000Z</time>
      </trkpt>
      <trkpt lat="38.475464" lon="-0.730593">
        <ele>1078.16278446723</ele>
        <time>2019-04-19T08:44:04.000Z</time>
      </trkpt>
      <trkpt lat="38.475485" lon="-0.730575">
        <ele>1079</ele>
        <time>2019-04-19T08:44:06.000Z</time>
      </trkpt>
      <trkpt lat="38.475506" lon="-0.730557">
        <ele>1079.63366537399</ele>
        <time>2019-04-19T08:44:08.000Z</time>
      </trkpt>
      <trkpt lat="38.475526" lon="-0.730541">
        <ele>1080</ele>
        <time>2019-04-19T08:44:10.000Z</time>
      </trkpt>
      <trkpt lat="38.475546" lon="-0.730522">
        <ele>1080</ele>
        <time>2019-04-19T08:44:12.000Z</time>
      </trkpt>
      <trkpt lat="38.47556" lon="-0.730501">
        <ele>1080.62135729287</ele>
        <time>2019-04-19T08:44:14.000Z</time>
      </trkpt>
      <trkpt lat="38.475573" lon="-0.730477">
        <ele>1081</ele>
        <time>2019-04-19T08:44:16.000Z</time>
      </trkpt>
      <trkpt lat="38.475579" lon="-0.730455">
        <ele>1081.64</ele>
        <time>2019-04-19T08:44:18.000Z</time>
      </trkpt>
      <trkpt lat="38.475589" lon="-0.730426">
        <ele>1082.48571898771</ele>
        <time>2019-04-19T08:44:21.000Z</time>
      </trkpt>
      <trkpt lat="38.475602" lon="-0.730396">
        <ele>1083</ele>
        <time>2019-04-19T08:44:24.000Z</time>
      </trkpt>
      <trkpt lat="38.47561" lon="-0.730368">
        <ele>1084</ele>
        <time>2019-04-19T08:44:27.000Z</time>
      </trkpt>
      <trkpt lat="38.475619" lon="-0.730348">
        <ele>1085</ele>
        <time>2019-04-19T08:44:30.000Z</time>
      </trkpt>
      <trkpt lat="38.475629" lon="-0.73032">
        <ele>1085</ele>
        <time>2019-04-19T08:44:33.000Z</time>
      </trkpt>
      <trkpt lat="38.475635" lon="-0.730293">
        <ele>1086</ele>
        <time>2019-04-19T08:44:36.000Z</time>
      </trkpt>
      <trkpt lat="38.475644" lon="-0.730262">
        <ele>1086.49230526865</ele>
        <time>2019-04-19T08:44:39.000Z</time>
      </trkpt>
      <trkpt lat="38.47566" lon="-0.73024">
        <ele>1087.48570958363</ele>
        <time>2019-04-19T08:44:42.000Z</time>
      </trkpt>
      <trkpt lat="38.475671" lon="-0.730216">
        <ele>1088.64</ele>
        <time>2019-04-19T08:44:45.000Z</time>
      </trkpt>
      <trkpt lat="38.475677" lon="-0.73019">
        <ele>1089</ele>
        <time>2019-04-19T08:44:48.000Z</time>
      </trkpt>
      <trkpt lat="38.475688" lon="-0.730164">
        <ele>1090</ele>
        <time>2019-04-19T08:44:51.000Z</time>
      </trkpt>
      <trkpt lat="38.475695" lon="-0.730139">
        <ele>1090.64</ele>
        <time>2019-04-19T08:44:54.000Z</time>
      </trkpt>
      <trkpt lat="38.475707" lon="-0.73011">
        <ele>1091</ele>
        <time>2019-04-19T08:44:58.000Z</time>
      </trkpt>
      <trkpt lat="38.475721" lon="-0.730086">
        <ele>1092</ele>
        <time>2019-04-19T08:45:00.000Z</time>
      </trkpt>
      <trkpt lat="38.475738" lon="-0.730064">
        <ele>1093</ele>
        <time>2019-04-19T08:45:02.000Z</time>
      </trkpt>
      <trkpt lat="38.475748" lon="-0.730039">
        <ele>1093</ele>
        <time>2019-04-19T08:45:04.000Z</time>
      </trkpt>
      <trkpt lat="38.475763" lon="-0.73002">
        <ele>1094</ele>
        <time>2019-04-19T08:45:06.000Z</time>
      </trkpt>
      <trkpt lat="38.475779" lon="-0.729998">
        <ele>1094</ele>
        <time>2019-04-19T08:45:08.000Z</time>
      </trkpt>
      <trkpt lat="38.475796" lon="-0.729976">
        <ele>1094</ele>
        <time>2019-04-19T08:45:10.000Z</time>
      </trkpt>
      <trkpt lat="38.475815" lon="-0.729954">
        <ele>1095</ele>
        <time>2019-04-19T08:45:12.000Z</time>
      </trkpt>
      <trkpt lat="38.475834" lon="-0.729933">
        <ele>1096</ele>
        <time>2019-04-19T08:45:14.000Z</time>
      </trkpt>
      <trkpt lat="38.475846" lon="-0.729906">
        <ele>1096</ele>
        <time>2019-04-19T08:45:16.000Z</time>
      </trkpt>
      <trkpt lat="38.475865" lon="-0.729882">
        <ele>1096.48570958363</ele>
        <time>2019-04-19T08:45:18.000Z</time>
      </trkpt>
      <trkpt lat="38.47589" lon="-0.729853">
        <ele>1097</ele>
        <time>2019-04-19T08:45:20.000Z</time>
      </trkpt>
      <trkpt lat="38.475913" lon="-0.729827">
        <ele>1097</ele>
        <time>2019-04-19T08:45:22.000Z</time>
      </trkpt>
      <trkpt lat="38.475937" lon="-0.729808">
        <ele>1097</ele>
        <time>2019-04-19T08:45:24.000Z</time>
      </trkpt>
      <trkpt lat="38.475962" lon="-0.729787">
        <ele>1097</ele>
        <time>2019-04-19T08:45:26.000Z</time>
      </trkpt>
      <trkpt lat="38.475981" lon="-0.729764">
        <ele>1097</ele>
        <time>2019-04-19T08:45:28.000Z</time>
      </trkpt>
      <trkpt lat="38.476" lon="-0.72974">
        <ele>1097</ele>
        <time>2019-04-19T08:45:30.000Z</time>
      </trkpt>
      <trkpt lat="38.476014" lon="-0.729716">
        <ele>1097.60377723035</ele>
        <time>2019-04-19T08:45:32.000Z</time>
      </trkpt>
      <trkpt lat="38.476027" lon="-0.729691">
        <ele>1098.56637328531</ele>
        <time>2019-04-19T08:45:34.000Z</time>
      </trkpt>
      <trkpt lat="38.476036" lon="-0.729667">
        <ele>1099</ele>
        <time>2019-04-19T08:45:36.000Z</time>
      </trkpt>
      <trkpt lat="38.476046" lon="-0.729644">
        <ele>1099</ele>
        <time>2019-04-19T08:45:38.000Z</time>
      </trkpt>
      <trkpt lat="38.476058" lon="-0.729617">
        <ele>1099.64</ele>
        <time>2019-04-19T08:45:40.000Z</time>
      </trkpt>
      <trkpt lat="38.47607" lon="-0.729593">
        <ele>1100.64</ele>
        <time>2019-04-19T08:45:42.000Z</time>
      </trkpt>
      <trkpt lat="38.476074" lon="-0.729566">
        <ele>1101</ele>
        <time>2019-04-19T08:45:44.000Z</time>
      </trkpt>
      <trkpt lat="38.47608" lon="-0.729537">
        <ele>1101</ele>
        <time>2019-04-19T08:45:46.000Z</time>
      </trkpt>
      <trkpt lat="38.476082" lon="-0.729507">
        <ele>1101</ele>
        <time>2019-04-19T08:45:48.000Z</time>
      </trkpt>
      <trkpt lat="38.476089" lon="-0.729486">
        <ele>1102</ele>
        <time>2019-04-19T08:45:50.000Z</time>
      </trkpt>
      <trkpt lat="38.476096" lon="-0.72946">
        <ele>1102.64</ele>
        <time>2019-04-19T08:45:52.000Z</time>
      </trkpt>
      <trkpt lat="38.476105" lon="-0.729434">
        <ele>1103</ele>
        <time>2019-04-19T08:45:54.000Z</time>
      </trkpt>
      <trkpt lat="38.476119" lon="-0.729412">
        <ele>1103.48570958363</ele>
        <time>2019-04-19T08:45:56.000Z</time>
      </trkpt>
      <trkpt lat="38.476132" lon="-0.729386">
        <ele>1104</ele>
        <time>2019-04-19T08:45:58.000Z</time>
      </trkpt>
      <trkpt lat="38.476144" lon="-0.729364">
        <ele>1104</ele>
        <time>2019-04-19T08:46:00.000Z</time>
      </trkpt>
      <trkpt lat="38.476156" lon="-0.729335">
        <ele>1104</ele>
        <time>2019-04-19T08:46:02.000Z</time>
      </trkpt>
      <trkpt lat="38.476169" lon="-0.729305">
        <ele>1104</ele>
        <time>2019-04-19T08:46:04.000Z</time>
      </trkpt>
      <trkpt lat="38.476183" lon="-0.729275">
        <ele>1104</ele>
        <time>2019-04-19T08:46:06.000Z</time>
      </trkpt>
      <trkpt lat="38.476197" lon="-0.729246">
        <ele>1105</ele>
        <time>2019-04-19T08:46:08.000Z</time>
      </trkpt>
      <trkpt lat="38.47621" lon="-0.729219">
        <ele>1105</ele>
        <time>2019-04-19T08:46:10.000Z</time>
      </trkpt>
      <trkpt lat="38.476223" lon="-0.729191">
        <ele>1105</ele>
        <time>2019-04-19T08:46:12.000Z</time>
      </trkpt>
      <trkpt lat="38.476233" lon="-0.729166">
        <ele>1105</ele>
        <time>2019-04-19T08:46:14.000Z</time>
      </trkpt>
      <trkpt lat="38.476249" lon="-0.729141">
        <ele>1105</ele>
        <time>2019-04-19T08:46:16.000Z</time>
      </trkpt>
      <trkpt lat="38.476269" lon="-0.729116">
        <ele>1105.56140666053</ele>
        <time>2019-04-19T08:46:18.000Z</time>
      </trkpt>
      <trkpt lat="38.476287" lon="-0.729089">
        <ele>1106</ele>
        <time>2019-04-19T08:46:20.000Z</time>
      </trkpt>
      <trkpt lat="38.476305" lon="-0.729063">
        <ele>1106</ele>
        <time>2019-04-19T08:46:22.000Z</time>
      </trkpt>
      <trkpt lat="38.476326" lon="-0.72904">
        <ele>1106</ele>
        <time>2019-04-19T08:46:24.000Z</time>
      </trkpt>
      <trkpt lat="38.476347" lon="-0.729017">
        <ele>1106</ele>
        <time>2019-04-19T08:46:26.000Z</time>
      </trkpt>
      <trkpt lat="38.476364" lon="-0.728989">
        <ele>1106</ele>
        <time>2019-04-19T08:46:28.000Z</time>
      </trkpt>
      <trkpt lat="38.476373" lon="-0.728957">
        <ele>1106</ele>
        <time>2019-04-19T08:46:30.000Z</time>
      </trkpt>
      <trkpt lat="38.476391" lon="-0.72893">
        <ele>1106</ele>
        <time>2019-04-19T08:46:32.000Z</time>
      </trkpt>
      <trkpt lat="38.476415" lon="-0.728912">
        <ele>1106</ele>
        <time>2019-04-19T08:46:34.000Z</time>
      </trkpt>
      <trkpt lat="38.476443" lon="-0.728897">
        <ele>1106</ele>
        <time>2019-04-19T08:46:36.000Z</time>
      </trkpt>
      <trkpt lat="38.476469" lon="-0.728875">
        <ele>1105</ele>
        <time>2019-04-19T08:46:38.000Z</time>
      </trkpt>
      <trkpt lat="38.476489" lon="-0.728849">
        <ele>1105</ele>
        <time>2019-04-19T08:46:40.000Z</time>
      </trkpt>
      <trkpt lat="38.476513" lon="-0.728821">
        <ele>1105</ele>
        <time>2019-04-19T08:46:42.000Z</time>
      </trkpt>
      <trkpt lat="38.476536" lon="-0.728794">
        <ele>1105</ele>
        <time>2019-04-19T08:46:44.000Z</time>
      </trkpt>
      <trkpt lat="38.476557" lon="-0.728768">
        <ele>1105</ele>
        <time>2019-04-19T08:46:46.000Z</time>
      </trkpt>
      <trkpt lat="38.476579" lon="-0.728742">
        <ele>1105</ele>
        <time>2019-04-19T08:46:48.000Z</time>
      </trkpt>
      <trkpt lat="38.476602" lon="-0.728717">
        <ele>1106</ele>
        <time>2019-04-19T08:46:50.000Z</time>
      </trkpt>
      <trkpt lat="38.476626" lon="-0.728693">
        <ele>1106</ele>
        <time>2019-04-19T08:46:52.000Z</time>
      </trkpt>
      <trkpt lat="38.476643" lon="-0.728667">
        <ele>1106</ele>
        <time>2019-04-19T08:46:54.000Z</time>
      </trkpt>
      <trkpt lat="38.476651" lon="-0.728636">
        <ele>1105</ele>
        <time>2019-04-19T08:46:56.000Z</time>
      </trkpt>
      <trkpt lat="38.476664" lon="-0.728604">
        <ele>1105</ele>
        <time>2019-04-19T08:46:58.000Z</time>
      </trkpt>
      <trkpt lat="38.476678" lon="-0.728574">
        <ele>1105</ele>
        <time>2019-04-19T08:47:00.000Z</time>
      </trkpt>
      <trkpt lat="38.476693" lon="-0.728539">
        <ele>1105</ele>
        <time>2019-04-19T08:47:02.000Z</time>
      </trkpt>
      <trkpt lat="38.476709" lon="-0.728509">
        <ele>1105.58715768707</ele>
        <time>2019-04-19T08:47:04.000Z</time>
      </trkpt>
      <trkpt lat="38.476725" lon="-0.728483">
        <ele>1106</ele>
        <time>2019-04-19T08:47:06.000Z</time>
      </trkpt>
      <trkpt lat="38.476738" lon="-0.728457">
        <ele>1106</ele>
        <time>2019-04-19T08:47:08.000Z</time>
      </trkpt>
      <trkpt lat="38.476744" lon="-0.728433">
        <ele>1106</ele>
        <time>2019-04-19T08:47:10.000Z</time>
      </trkpt>
      <trkpt lat="38.476752" lon="-0.728407">
        <ele>1106</ele>
        <time>2019-04-19T08:47:12.000Z</time>
      </trkpt>
      <trkpt lat="38.476764" lon="-0.728384">
        <ele>1106.61701866906</ele>
        <time>2019-04-19T08:47:14.000Z</time>
      </trkpt>
      <trkpt lat="38.476784" lon="-0.728363">
        <ele>1107</ele>
        <time>2019-04-19T08:47:16.000Z</time>
      </trkpt>
      <trkpt lat="38.476796" lon="-0.728337">
        <ele>1108</ele>
        <time>2019-04-19T08:47:18.000Z</time>
      </trkpt>
      <trkpt lat="38.476805" lon="-0.728309">
        <ele>1108</ele>
        <time>2019-04-19T08:47:20.000Z</time>
      </trkpt>
      <trkpt lat="38.476812" lon="-0.728278">
        <ele>1108.64</ele>
        <time>2019-04-19T08:47:22.000Z</time>
      </trkpt>
      <trkpt lat="38.476819" lon="-0.728246">
        <ele>1109</ele>
        <time>2019-04-19T08:47:24.000Z</time>
      </trkpt>
      <trkpt lat="38.47682" lon="-0.728217">
        <ele>1109</ele>
        <time>2019-04-19T08:47:26.000Z</time>
      </trkpt>
      <trkpt lat="38.476825" lon="-0.728192">
        <ele>1109.56140666053</ele>
        <time>2019-04-19T08:47:28.000Z</time>
      </trkpt>
      <trkpt lat="38.476838" lon="-0.728161">
        <ele>1110</ele>
        <time>2019-04-19T08:47:31.000Z</time>
      </trkpt>
      <trkpt lat="38.476844" lon="-0.728133">
        <ele>1110.60439699553</ele>
        <time>2019-04-19T08:47:33.000Z</time>
      </trkpt>
      <trkpt lat="38.476851" lon="-0.728103">
        <ele>1112</ele>
        <time>2019-04-19T08:47:35.000Z</time>
      </trkpt>
      <trkpt lat="38.476858" lon="-0.728076">
        <ele>1112</ele>
        <time>2019-04-19T08:47:37.000Z</time>
      </trkpt>
      <trkpt lat="38.47686" lon="-0.728052">
        <ele>1112</ele>
        <time>2019-04-19T08:47:39.000Z</time>
      </trkpt>
      <trkpt lat="38.47687" lon="-0.728027">
        <ele>1112</ele>
        <time>2019-04-19T08:47:41.000Z</time>
      </trkpt>
      <trkpt lat="38.476874" lon="-0.728005">
        <ele>1113</ele>
        <time>2019-04-19T08:47:43.000Z</time>
      </trkpt>
      <trkpt lat="38.476881" lon="-0.727982">
        <ele>1113</ele>
        <time>2019-04-19T08:47:45.000Z</time>
      </trkpt>
      <trkpt lat="38.476888" lon="-0.727958">
        <ele>1114</ele>
        <time>2019-04-19T08:47:47.000Z</time>
      </trkpt>
      <trkpt lat="38.476892" lon="-0.727935">
        <ele>1114.49230526865</ele>
        <time>2019-04-19T08:47:49.000Z</time>
      </trkpt>
      <trkpt lat="38.476896" lon="-0.72791">
        <ele>1116</ele>
        <time>2019-04-19T08:47:51.000Z</time>
      </trkpt>
      <trkpt lat="38.476899" lon="-0.727886">
        <ele>1116</ele>
        <time>2019-04-19T08:47:53.000Z</time>
      </trkpt>
      <trkpt lat="38.476911" lon="-0.727865">
        <ele>1116</ele>
        <time>2019-04-19T08:47:55.000Z</time>
      </trkpt>
      <trkpt lat="38.476923" lon="-0.727841">
        <ele>1116</ele>
        <time>2019-04-19T08:47:57.000Z</time>
      </trkpt>
      <trkpt lat="38.476935" lon="-0.727817">
        <ele>1116</ele>
        <time>2019-04-19T08:47:59.000Z</time>
      </trkpt>
      <trkpt lat="38.476945" lon="-0.727794">
        <ele>1117</ele>
        <time>2019-04-19T08:48:01.000Z</time>
      </trkpt>
      <trkpt lat="38.476954" lon="-0.727769">
        <ele>1117.64</ele>
        <time>2019-04-19T08:48:03.000Z</time>
      </trkpt>
      <trkpt lat="38.476962" lon="-0.727743">
        <ele>1118</ele>
        <time>2019-04-19T08:48:05.000Z</time>
      </trkpt>
      <trkpt lat="38.476971" lon="-0.727717">
        <ele>1119</ele>
        <time>2019-04-19T08:48:07.000Z</time>
      </trkpt>
      <trkpt lat="38.476986" lon="-0.727697">
        <ele>1119</ele>
        <time>2019-04-19T08:48:09.000Z</time>
      </trkpt>
      <trkpt lat="38.476999" lon="-0.727678">
        <ele>1119.60439699553</ele>
        <time>2019-04-19T08:48:11.000Z</time>
      </trkpt>
      <trkpt lat="38.477011" lon="-0.727654">
        <ele>1120</ele>
        <time>2019-04-19T08:48:13.000Z</time>
      </trkpt>
      <trkpt lat="38.477016" lon="-0.727632">
        <ele>1120</ele>
        <time>2019-04-19T08:48:15.000Z</time>
      </trkpt>
      <trkpt lat="38.477021" lon="-0.727607">
        <ele>1121.64</ele>
        <time>2019-04-19T08:48:17.000Z</time>
      </trkpt>
      <trkpt lat="38.477029" lon="-0.727584">
        <ele>1122</ele>
        <time>2019-04-19T08:48:19.000Z</time>
      </trkpt>
      <trkpt lat="38.477039" lon="-0.727558">
        <ele>1122</ele>
        <time>2019-04-19T08:48:21.000Z</time>
      </trkpt>
      <trkpt lat="38.477046" lon="-0.727534">
        <ele>1122.64</ele>
        <time>2019-04-19T08:48:23.000Z</time>
      </trkpt>
      <trkpt lat="38.477051" lon="-0.727511">
        <ele>1123</ele>
        <time>2019-04-19T08:48:25.000Z</time>
      </trkpt>
      <trkpt lat="38.477057" lon="-0.727486">
        <ele>1123.440675576</ele>
        <time>2019-04-19T08:48:27.000Z</time>
      </trkpt>
      <trkpt lat="38.477065" lon="-0.727459">
        <ele>1124</ele>
        <time>2019-04-19T08:48:29.000Z</time>
      </trkpt>
      <trkpt lat="38.477073" lon="-0.727433">
        <ele>1125</ele>
        <time>2019-04-19T08:48:31.000Z</time>
      </trkpt>
      <trkpt lat="38.477084" lon="-0.727411">
        <ele>1125.64</ele>
        <time>2019-04-19T08:48:33.000Z</time>
      </trkpt>
      <trkpt lat="38.477092" lon="-0.727388">
        <ele>1126</ele>
        <time>2019-04-19T08:48:35.000Z</time>
      </trkpt>
      <trkpt lat="38.477098" lon="-0.727366">
        <ele>1126.63366537399</ele>
        <time>2019-04-19T08:48:37.000Z</time>
      </trkpt>
      <trkpt lat="38.477112" lon="-0.727343">
        <ele>1127</ele>
        <time>2019-04-19T08:48:39.000Z</time>
      </trkpt>
      <trkpt lat="38.477124" lon="-0.727319">
        <ele>1127</ele>
        <time>2019-04-19T08:48:41.000Z</time>
      </trkpt>
      <trkpt lat="38.477139" lon="-0.727301">
        <ele>1127.63636481175</ele>
        <time>2019-04-19T08:48:43.000Z</time>
      </trkpt>
      <trkpt lat="38.477152" lon="-0.727279">
        <ele>1128</ele>
        <time>2019-04-19T08:48:45.000Z</time>
      </trkpt>
      <trkpt lat="38.477168" lon="-0.727257">
        <ele>1128</ele>
        <time>2019-04-19T08:48:47.000Z</time>
      </trkpt>
      <trkpt lat="38.477184" lon="-0.727233">
        <ele>1128.60869565217</ele>
        <time>2019-04-19T08:48:49.000Z</time>
      </trkpt>
      <trkpt lat="38.477198" lon="-0.727208">
        <ele>1129</ele>
        <time>2019-04-19T08:48:51.000Z</time>
      </trkpt>
      <trkpt lat="38.477212" lon="-0.727186">
        <ele>1129.58715768707</ele>
        <time>2019-04-19T08:48:53.000Z</time>
      </trkpt>
      <trkpt lat="38.477233" lon="-0.72717">
        <ele>1130</ele>
        <time>2019-04-19T08:48:55.000Z</time>
      </trkpt>
      <trkpt lat="38.477255" lon="-0.727155">
        <ele>1130</ele>
        <time>2019-04-19T08:48:57.000Z</time>
      </trkpt>
      <trkpt lat="38.47728" lon="-0.727137">
        <ele>1130</ele>
        <time>2019-04-19T08:48:59.000Z</time>
      </trkpt>
      <trkpt lat="38.477302" lon="-0.727114">
        <ele>1130</ele>
        <time>2019-04-19T08:49:01.000Z</time>
      </trkpt>
      <trkpt lat="38.477327" lon="-0.727097">
        <ele>1130</ele>
        <time>2019-04-19T08:49:03.000Z</time>
      </trkpt>
      <trkpt lat="38.477347" lon="-0.727083">
        <ele>1130.49230526865</ele>
        <time>2019-04-19T08:49:05.000Z</time>
      </trkpt>
      <trkpt lat="38.477367" lon="-0.727075">
        <ele>1131</ele>
        <time>2019-04-19T08:49:07.000Z</time>
      </trkpt>
      <trkpt lat="38.477386" lon="-0.727059">
        <ele>1131</ele>
        <time>2019-04-19T08:49:09.000Z</time>
      </trkpt>
      <trkpt lat="38.477408" lon="-0.727042">
        <ele>1131</ele>
        <time>2019-04-19T08:49:11.000Z</time>
      </trkpt>
      <trkpt lat="38.477427" lon="-0.727024">
        <ele>1132</ele>
        <time>2019-04-19T08:49:13.000Z</time>
      </trkpt>
      <trkpt lat="38.477442" lon="-0.726999">
        <ele>1132</ele>
        <time>2019-04-19T08:49:15.000Z</time>
      </trkpt>
      <trkpt lat="38.477456" lon="-0.726973">
        <ele>1132</ele>
        <time>2019-04-19T08:49:17.000Z</time>
      </trkpt>
      <trkpt lat="38.477477" lon="-0.726955">
        <ele>1132</ele>
        <time>2019-04-19T08:49:19.000Z</time>
      </trkpt>
      <trkpt lat="38.477498" lon="-0.72694">
        <ele>1132</ele>
        <time>2019-04-19T08:49:21.000Z</time>
      </trkpt>
      <trkpt lat="38.477518" lon="-0.726925">
        <ele>1132</ele>
        <time>2019-04-19T08:49:23.000Z</time>
      </trkpt>
      <trkpt lat="38.477536" lon="-0.726902">
        <ele>1133</ele>
        <time>2019-04-19T08:49:25.000Z</time>
      </trkpt>
      <trkpt lat="38.477553" lon="-0.72688">
        <ele>1133</ele>
        <time>2019-04-19T08:49:27.000Z</time>
      </trkpt>
      <trkpt lat="38.477571" lon="-0.726859">
        <ele>1133</ele>
        <time>2019-04-19T08:49:29.000Z</time>
      </trkpt>
      <trkpt lat="38.477588" lon="-0.726839">
        <ele>1133</ele>
        <time>2019-04-19T08:49:31.000Z</time>
      </trkpt>
      <trkpt lat="38.477609" lon="-0.72682">
        <ele>1134</ele>
        <time>2019-04-19T08:49:33.000Z</time>
      </trkpt>
      <trkpt lat="38.47763" lon="-0.726798">
        <ele>1134</ele>
        <time>2019-04-19T08:49:35.000Z</time>
      </trkpt>
      <trkpt lat="38.477646" lon="-0.726772">
        <ele>1134</ele>
        <time>2019-04-19T08:49:37.000Z</time>
      </trkpt>
      <trkpt lat="38.477661" lon="-0.726746">
        <ele>1134</ele>
        <time>2019-04-19T08:49:39.000Z</time>
      </trkpt>
      <trkpt lat="38.477676" lon="-0.726723">
        <ele>1135</ele>
        <time>2019-04-19T08:49:41.000Z</time>
      </trkpt>
      <trkpt lat="38.47769" lon="-0.726704">
        <ele>1135</ele>
        <time>2019-04-19T08:49:43.000Z</time>
      </trkpt>
      <trkpt lat="38.477705" lon="-0.726678">
        <ele>1135</ele>
        <time>2019-04-19T08:49:45.000Z</time>
      </trkpt>
      <trkpt lat="38.477721" lon="-0.726655">
        <ele>1136</ele>
        <time>2019-04-19T08:49:47.000Z</time>
      </trkpt>
      <trkpt lat="38.47774" lon="-0.726631">
        <ele>1136</ele>
        <time>2019-04-19T08:49:49.000Z</time>
      </trkpt>
      <trkpt lat="38.477757" lon="-0.726607">
        <ele>1136</ele>
        <time>2019-04-19T08:49:51.000Z</time>
      </trkpt>
      <trkpt lat="38.477775" lon="-0.726582">
        <ele>1136</ele>
        <time>2019-04-19T08:49:53.000Z</time>
      </trkpt>
      <trkpt lat="38.477789" lon="-0.726563">
        <ele>1136.57709398553</ele>
        <time>2019-04-19T08:49:55.000Z</time>
      </trkpt>
      <trkpt lat="38.477807" lon="-0.726541">
        <ele>1137.64</ele>
        <time>2019-04-19T08:49:57.000Z</time>
      </trkpt>
      <trkpt lat="38.477824" lon="-0.726517">
        <ele>1138.62924636497</ele>
        <time>2019-04-19T08:49:59.000Z</time>
      </trkpt>
      <trkpt lat="38.477843" lon="-0.726494">
        <ele>1139</ele>
        <time>2019-04-19T08:50:01.000Z</time>
      </trkpt>
      <trkpt lat="38.477855" lon="-0.726469">
        <ele>1139</ele>
        <time>2019-04-19T08:50:03.000Z</time>
      </trkpt>
      <trkpt lat="38.477866" lon="-0.726446">
        <ele>1139.61290189386</ele>
        <time>2019-04-19T08:50:05.000Z</time>
      </trkpt>
      <trkpt lat="38.477882" lon="-0.726429">
        <ele>1140.64</ele>
        <time>2019-04-19T08:50:07.000Z</time>
      </trkpt>
      <trkpt lat="38.4779" lon="-0.726412">
        <ele>1141</ele>
        <time>2019-04-19T08:50:09.000Z</time>
      </trkpt>
      <trkpt lat="38.477916" lon="-0.726386">
        <ele>1141</ele>
        <time>2019-04-19T08:50:11.000Z</time>
      </trkpt>
      <trkpt lat="38.477932" lon="-0.726362">
        <ele>1141</ele>
        <time>2019-04-19T08:50:13.000Z</time>
      </trkpt>
      <trkpt lat="38.477952" lon="-0.726348">
        <ele>1141</ele>
        <time>2019-04-19T08:50:15.000Z</time>
      </trkpt>
      <trkpt lat="38.477975" lon="-0.726332">
        <ele>1142</ele>
        <time>2019-04-19T08:50:17.000Z</time>
      </trkpt>
      <trkpt lat="38.477998" lon="-0.726314">
        <ele>1142</ele>
        <time>2019-04-19T08:50:19.000Z</time>
      </trkpt>
      <trkpt lat="38.478017" lon="-0.726292">
        <ele>1142</ele>
        <time>2019-04-19T08:50:21.000Z</time>
      </trkpt>
      <trkpt lat="38.478035" lon="-0.72627">
        <ele>1142</ele>
        <time>2019-04-19T08:50:23.000Z</time>
      </trkpt>
      <trkpt lat="38.478055" lon="-0.726254">
        <ele>1142</ele>
        <time>2019-04-19T08:50:25.000Z</time>
      </trkpt>
      <trkpt lat="38.478078" lon="-0.726238">
        <ele>1142</ele>
        <time>2019-04-19T08:50:27.000Z</time>
      </trkpt>
      <trkpt lat="38.478101" lon="-0.726223">
        <ele>1143</ele>
        <time>2019-04-19T08:50:29.000Z</time>
      </trkpt>
      <trkpt lat="38.478119" lon="-0.726207">
        <ele>1143</ele>
        <time>2019-04-19T08:50:31.000Z</time>
      </trkpt>
      <trkpt lat="38.478137" lon="-0.72619">
        <ele>1143</ele>
        <time>2019-04-19T08:50:33.000Z</time>
      </trkpt>
      <trkpt lat="38.478158" lon="-0.726172">
        <ele>1144</ele>
        <time>2019-04-19T08:50:35.000Z</time>
      </trkpt>
      <trkpt lat="38.478176" lon="-0.726153">
        <ele>1144</ele>
        <time>2019-04-19T08:50:37.000Z</time>
      </trkpt>
      <trkpt lat="38.478189" lon="-0.726133">
        <ele>1144.45070219402</ele>
        <time>2019-04-19T08:50:40.000Z</time>
      </trkpt>
      <trkpt lat="38.478209" lon="-0.726131">
        <ele>1145</ele>
        <time>2019-04-19T08:50:46.000Z</time>
      </trkpt>
      <trkpt lat="38.478227" lon="-0.726135">
        <ele>1144</ele>
        <time>2019-04-19T08:51:55.000Z</time>
      </trkpt>
      <trkpt lat="38.478234" lon="-0.726137">
        <ele>1143.9972237035</ele>
        <time>2019-04-19T08:51:56.000Z</time>
      </trkpt>
      <trkpt lat="38.47823" lon="-0.725974">
        <ele>1143.00080356463</ele>
        <time>2019-04-19T08:56:04.000Z</time>
      </trkpt>
      <trkpt lat="38.478222" lon="-0.725959">
        <ele>1143</ele>
        <time>2019-04-19T08:56:06.000Z</time>
      </trkpt>
      <trkpt lat="38.478204" lon="-0.725948">
        <ele>1143</ele>
        <time>2019-04-19T08:56:09.000Z</time>
      </trkpt>
      <trkpt lat="38.478214" lon="-0.725919">
        <ele>1143</ele>
        <time>2019-04-19T08:56:40.000Z</time>
      </trkpt>
      <trkpt lat="38.478222" lon="-0.725896">
        <ele>1142.56409863685</ele>
        <time>2019-04-19T08:56:42.000Z</time>
      </trkpt>
      <trkpt lat="38.478232" lon="-0.725874">
        <ele>1143</ele>
        <time>2019-04-19T08:56:44.000Z</time>
      </trkpt>
      <trkpt lat="38.478244" lon="-0.725853">
        <ele>1142.36</ele>
        <time>2019-04-19T08:56:46.000Z</time>
      </trkpt>
      <trkpt lat="38.47826" lon="-0.725838">
        <ele>1142</ele>
        <time>2019-04-19T08:56:48.000Z</time>
      </trkpt>
      <trkpt lat="38.478278" lon="-0.725821">
        <ele>1141</ele>
        <time>2019-04-19T08:56:50.000Z</time>
      </trkpt>
      <trkpt lat="38.478294" lon="-0.725796">
        <ele>1141</ele>
        <time>2019-04-19T08:56:52.000Z</time>
      </trkpt>
      <trkpt lat="38.4783" lon="-0.725772">
        <ele>1141</ele>
        <time>2019-04-19T08:56:54.000Z</time>
      </trkpt>
      <trkpt lat="38.478302" lon="-0.725741">
        <ele>1140</ele>
        <time>2019-04-19T08:56:56.000Z</time>
      </trkpt>
      <trkpt lat="38.478316" lon="-0.72571">
        <ele>1139.41379158146</ele>
        <time>2019-04-19T08:56:58.000Z</time>
      </trkpt>
      <trkpt lat="38.478342" lon="-0.725686">
        <ele>1138</ele>
        <time>2019-04-19T08:57:00.000Z</time>
      </trkpt>
      <trkpt lat="38.478361" lon="-0.725668">
        <ele>1139</ele>
        <time>2019-04-19T08:57:02.000Z</time>
      </trkpt>
      <trkpt lat="38.478378" lon="-0.725648">
        <ele>1139</ele>
        <time>2019-04-19T08:57:06.000Z</time>
      </trkpt>
      <trkpt lat="38.478389" lon="-0.725627">
        <ele>1138</ele>
        <time>2019-04-19T08:57:10.000Z</time>
      </trkpt>
      <trkpt lat="38.478383" lon="-0.725604">
        <ele>1137</ele>
        <time>2019-04-19T08:57:16.000Z</time>
      </trkpt>
      <trkpt lat="38.478361" lon="-0.725587">
        <ele>1136.60439699553</ele>
        <time>2019-04-19T08:57:19.000Z</time>
      </trkpt>
      <trkpt lat="38.478351" lon="-0.72556">
        <ele>1137</ele>
        <time>2019-04-19T08:57:21.000Z</time>
      </trkpt>
      <trkpt lat="38.478333" lon="-0.725552">
        <ele>1135.59259259259</ele>
        <time>2019-04-19T08:57:27.000Z</time>
      </trkpt>
      <trkpt lat="38.478315" lon="-0.725562">
        <ele>1135</ele>
        <time>2019-04-19T08:57:34.000Z</time>
      </trkpt>
      <trkpt lat="38.478295" lon="-0.725564">
        <ele>1134</ele>
        <time>2019-04-19T08:57:36.000Z</time>
      </trkpt>
      <trkpt lat="38.478269" lon="-0.725558">
        <ele>1134</ele>
        <time>2019-04-19T08:57:38.000Z</time>
      </trkpt>
      <trkpt lat="38.478247" lon="-0.725561">
        <ele>1133</ele>
        <time>2019-04-19T08:57:40.000Z</time>
      </trkpt>
      <trkpt lat="38.478222" lon="-0.725561">
        <ele>1131.36</ele>
        <time>2019-04-19T08:57:43.000Z</time>
      </trkpt>
      <trkpt lat="38.478203" lon="-0.725556">
        <ele>1131</ele>
        <time>2019-04-19T08:57:45.000Z</time>
      </trkpt>
      <trkpt lat="38.478177" lon="-0.725546">
        <ele>1131</ele>
        <time>2019-04-19T08:57:47.000Z</time>
      </trkpt>
      <trkpt lat="38.478151" lon="-0.725537">
        <ele>1130</ele>
        <time>2019-04-19T08:57:49.000Z</time>
      </trkpt>
      <trkpt lat="38.47813" lon="-0.725527">
        <ele>1129</ele>
        <time>2019-04-19T08:57:51.000Z</time>
      </trkpt>
      <trkpt lat="38.478109" lon="-0.725513">
        <ele>1128</ele>
        <time>2019-04-19T08:57:55.000Z</time>
      </trkpt>
      <trkpt lat="38.478118" lon="-0.725489">
        <ele>1127.40449583639</ele>
        <time>2019-04-19T08:57:57.000Z</time>
      </trkpt>
      <trkpt lat="38.478139" lon="-0.725477">
        <ele>1127</ele>
        <time>2019-04-19T08:57:59.000Z</time>
      </trkpt>
      <trkpt lat="38.478155" lon="-0.725461">
        <ele>1126.41860153599</ele>
        <time>2019-04-19T08:58:01.000Z</time>
      </trkpt>
      <trkpt lat="38.478169" lon="-0.725436">
        <ele>1126</ele>
        <time>2019-04-19T08:58:04.000Z</time>
      </trkpt>
      <trkpt lat="38.478172" lon="-0.725412">
        <ele>1126</ele>
        <time>2019-04-19T08:58:07.000Z</time>
      </trkpt>
      <trkpt lat="38.478164" lon="-0.725384">
        <ele>1125</ele>
        <time>2019-04-19T08:58:10.000Z</time>
      </trkpt>
      <trkpt lat="38.478177" lon="-0.725364">
        <ele>1124</ele>
        <time>2019-04-19T08:58:12.000Z</time>
      </trkpt>
      <trkpt lat="38.478185" lon="-0.725343">
        <ele>1124</ele>
        <time>2019-04-19T08:58:14.000Z</time>
      </trkpt>
      <trkpt lat="38.478195" lon="-0.725313">
        <ele>1123</ele>
        <time>2019-04-19T08:58:17.000Z</time>
      </trkpt>
      <trkpt lat="38.478204" lon="-0.725284">
        <ele>1122.38298133094</ele>
        <time>2019-04-19T08:58:20.000Z</time>
      </trkpt>
      <trkpt lat="38.478181" lon="-0.725279">
        <ele>1121</ele>
        <time>2019-04-19T08:58:23.000Z</time>
      </trkpt>
      <trkpt lat="38.478186" lon="-0.725255">
        <ele>1119.41379158146</ele>
        <time>2019-04-19T08:58:46.000Z</time>
      </trkpt>
      <trkpt lat="38.478198" lon="-0.725237">
        <ele>1119</ele>
        <time>2019-04-19T08:58:48.000Z</time>
      </trkpt>
      <trkpt lat="38.478205" lon="-0.725213">
        <ele>1119</ele>
        <time>2019-04-19T08:58:52.000Z</time>
      </trkpt>
      <trkpt lat="38.478195" lon="-0.725193">
        <ele>1118.64407515078</ele>
        <time>2019-04-19T08:58:56.000Z</time>
      </trkpt>
      <trkpt lat="38.478202" lon="-0.725171">
        <ele>1118</ele>
        <time>2019-04-19T08:58:58.000Z</time>
      </trkpt>
      <trkpt lat="38.478182" lon="-0.725159">
        <ele>1116</ele>
        <time>2019-04-19T08:59:01.000Z</time>
      </trkpt>
      <trkpt lat="38.478163" lon="-0.725164">
        <ele>1115</ele>
        <time>2019-04-19T08:59:10.000Z</time>
      </trkpt>
      <trkpt lat="38.478174" lon="-0.725132">
        <ele>1115</ele>
        <time>2019-04-19T08:59:13.000Z</time>
      </trkpt>
      <trkpt lat="38.478183" lon="-0.725107">
        <ele>1115</ele>
        <time>2019-04-19T08:59:15.000Z</time>
      </trkpt>
      <trkpt lat="38.478197" lon="-0.725082">
        <ele>1113.79120600895</ele>
        <time>2019-04-19T08:59:17.000Z</time>
      </trkpt>
      <trkpt lat="38.47818" lon="-0.725065">
        <ele>1113</ele>
        <time>2019-04-19T08:59:20.000Z</time>
      </trkpt>
      <trkpt lat="38.478156" lon="-0.725082">
        <ele>1113</ele>
        <time>2019-04-19T08:59:22.000Z</time>
      </trkpt>
      <trkpt lat="38.478138" lon="-0.725094">
        <ele>1113</ele>
        <time>2019-04-19T08:59:24.000Z</time>
      </trkpt>
      <trkpt lat="38.478135" lon="-0.725058">
        <ele>1110.67347152019</ele>
        <time>2019-04-19T08:59:33.000Z</time>
      </trkpt>
      <trkpt lat="38.478149" lon="-0.725027">
        <ele>1110</ele>
        <time>2019-04-19T08:59:35.000Z</time>
      </trkpt>
      <trkpt lat="38.478157" lon="-0.725003">
        <ele>1109</ele>
        <time>2019-04-19T08:59:37.000Z</time>
      </trkpt>
      <trkpt lat="38.478155" lon="-0.724978">
        <ele>1108.36</ele>
        <time>2019-04-19T08:59:39.000Z</time>
      </trkpt>
      <trkpt lat="38.478131" lon="-0.724984">
        <ele>1107</ele>
        <time>2019-04-19T08:59:42.000Z</time>
      </trkpt>
      <trkpt lat="38.478108" lon="-0.724984">
        <ele>1107</ele>
        <time>2019-04-19T08:59:45.000Z</time>
      </trkpt>
      <trkpt lat="38.47809" lon="-0.724987">
        <ele>1106</ele>
        <time>2019-04-19T08:59:47.000Z</time>
      </trkpt>
      <trkpt lat="38.478069" lon="-0.724978">
        <ele>1104.39622276965</ele>
        <time>2019-04-19T08:59:50.000Z</time>
      </trkpt>
      <trkpt lat="38.478074" lon="-0.724954">
        <ele>1104.37254508264</ele>
        <time>2019-04-19T09:00:05.000Z</time>
      </trkpt>
      <trkpt lat="38.478082" lon="-0.724932">
        <ele>1103</ele>
        <time>2019-04-19T09:00:07.000Z</time>
      </trkpt>
      <trkpt lat="38.478091" lon="-0.724903">
        <ele>1103</ele>
        <time>2019-04-19T09:00:10.000Z</time>
      </trkpt>
      <trkpt lat="38.478104" lon="-0.724885">
        <ele>1102</ele>
        <time>2019-04-19T09:00:13.000Z</time>
      </trkpt>
      <trkpt lat="38.478114" lon="-0.724866">
        <ele>1102</ele>
        <time>2019-04-19T09:00:16.000Z</time>
      </trkpt>
      <trkpt lat="38.478125" lon="-0.724839">
        <ele>1101</ele>
        <time>2019-04-19T09:00:19.000Z</time>
      </trkpt>
      <trkpt lat="38.478121" lon="-0.724812">
        <ele>1100.41379158146</ele>
        <time>2019-04-19T09:00:21.000Z</time>
      </trkpt>
      <trkpt lat="38.478103" lon="-0.724823">
        <ele>1099</ele>
        <time>2019-04-19T09:00:29.000Z</time>
      </trkpt>
      <trkpt lat="38.478079" lon="-0.724835">
        <ele>1098.37864270713</ele>
        <time>2019-04-19T09:00:33.000Z</time>
      </trkpt>
      <trkpt lat="38.478058" lon="-0.724832">
        <ele>1097</ele>
        <time>2019-04-19T09:00:36.000Z</time>
      </trkpt>
      <trkpt lat="38.478038" lon="-0.724836">
        <ele>1097</ele>
        <time>2019-04-19T09:00:39.000Z</time>
      </trkpt>
      <trkpt lat="38.478019" lon="-0.72483">
        <ele>1096.40909090909</ele>
        <time>2019-04-19T09:00:41.000Z</time>
      </trkpt>
      <trkpt lat="38.477994" lon="-0.724841">
        <ele>1095.36</ele>
        <time>2019-04-19T09:00:43.000Z</time>
      </trkpt>
      <trkpt lat="38.477972" lon="-0.724859">
        <ele>1095</ele>
        <time>2019-04-19T09:00:45.000Z</time>
      </trkpt>
      <trkpt lat="38.477958" lon="-0.724836">
        <ele>1095</ele>
        <time>2019-04-19T09:00:54.000Z</time>
      </trkpt>
      <trkpt lat="38.477961" lon="-0.724809">
        <ele>1094</ele>
        <time>2019-04-19T09:00:56.000Z</time>
      </trkpt>
      <trkpt lat="38.477976" lon="-0.724779">
        <ele>1093.41379158146</ele>
        <time>2019-04-19T09:00:58.000Z</time>
      </trkpt>
      <trkpt lat="38.477991" lon="-0.724758">
        <ele>1092</ele>
        <time>2019-04-19T09:01:00.000Z</time>
      </trkpt>
      <trkpt lat="38.47798" lon="-0.724734">
        <ele>1092</ele>
        <time>2019-04-19T09:01:06.000Z</time>
      </trkpt>
      <trkpt lat="38.477983" lon="-0.724709">
        <ele>1090.41817843304</ele>
        <time>2019-04-19T09:01:19.000Z</time>
      </trkpt>
      <trkpt lat="38.477992" lon="-0.724689">
        <ele>1090</ele>
        <time>2019-04-19T09:01:21.000Z</time>
      </trkpt>
      <trkpt lat="38.477987" lon="-0.724666">
        <ele>1088</ele>
        <time>2019-04-19T09:01:24.000Z</time>
      </trkpt>
      <trkpt lat="38.477989" lon="-0.724641">
        <ele>1087</ele>
        <time>2019-04-19T09:01:34.000Z</time>
      </trkpt>
      <trkpt lat="38.477995" lon="-0.724617">
        <ele>1086.36</ele>
        <time>2019-04-19T09:01:36.000Z</time>
      </trkpt>
      <trkpt lat="38.477988" lon="-0.724588">
        <ele>1085</ele>
        <time>2019-04-19T09:01:40.000Z</time>
      </trkpt>
      <trkpt lat="38.478007" lon="-0.724581">
        <ele>1085</ele>
        <time>2019-04-19T09:01:45.000Z</time>
      </trkpt>
      <trkpt lat="38.478017" lon="-0.724554">
        <ele>1085</ele>
        <time>2019-04-19T09:01:48.000Z</time>
      </trkpt>
      <trkpt lat="38.478014" lon="-0.724531">
        <ele>1084</ele>
        <time>2019-04-19T09:01:52.000Z</time>
      </trkpt>
      <trkpt lat="38.47802" lon="-0.724507">
        <ele>1083</ele>
        <time>2019-04-19T09:01:55.000Z</time>
      </trkpt>
      <trkpt lat="38.477991" lon="-0.724515">
        <ele>1082</ele>
        <time>2019-04-19T09:02:06.000Z</time>
      </trkpt>
      <trkpt lat="38.477964" lon="-0.724525">
        <ele>1081.36</ele>
        <time>2019-04-19T09:02:08.000Z</time>
      </trkpt>
      <trkpt lat="38.477938" lon="-0.724538">
        <ele>1080</ele>
        <time>2019-04-19T09:02:10.000Z</time>
      </trkpt>
      <trkpt lat="38.477918" lon="-0.724535">
        <ele>1079.36</ele>
        <time>2019-04-19T09:02:13.000Z</time>
      </trkpt>
      <trkpt lat="38.477915" lon="-0.724509">
        <ele>1078</ele>
        <time>2019-04-19T09:02:19.000Z</time>
      </trkpt>
      <trkpt lat="38.477916" lon="-0.724486">
        <ele>1077.36</ele>
        <time>2019-04-19T09:02:21.000Z</time>
      </trkpt>
      <trkpt lat="38.477925" lon="-0.724459">
        <ele>1076</ele>
        <time>2019-04-19T09:02:23.000Z</time>
      </trkpt>
      <trkpt lat="38.477935" lon="-0.724437">
        <ele>1075.50703996827</ele>
        <time>2019-04-19T09:02:25.000Z</time>
      </trkpt>
      <trkpt lat="38.477945" lon="-0.724407">
        <ele>1075.50703996827</ele>
        <time>2019-04-19T09:02:28.000Z</time>
      </trkpt>
      <trkpt lat="38.477946" lon="-0.724379">
        <ele>1075</ele>
        <time>2019-04-19T09:02:30.000Z</time>
      </trkpt>
      <trkpt lat="38.477927" lon="-0.724374">
        <ele>1075</ele>
        <time>2019-04-19T09:02:32.000Z</time>
      </trkpt>
      <trkpt lat="38.477907" lon="-0.72437">
        <ele>1073.36</ele>
        <time>2019-04-19T09:02:36.000Z</time>
      </trkpt>
      <trkpt lat="38.477895" lon="-0.724351">
        <ele>1073</ele>
        <time>2019-04-19T09:02:47.000Z</time>
      </trkpt>
      <trkpt lat="38.477906" lon="-0.724325">
        <ele>1072.36</ele>
        <time>2019-04-19T09:02:49.000Z</time>
      </trkpt>
      <trkpt lat="38.4779" lon="-0.724302">
        <ele>1071</ele>
        <time>2019-04-19T09:02:52.000Z</time>
      </trkpt>
      <trkpt lat="38.477911" lon="-0.724271">
        <ele>1069.38461538462</ele>
        <time>2019-04-19T09:02:55.000Z</time>
      </trkpt>
      <trkpt lat="38.477915" lon="-0.72424">
        <ele>1069</ele>
        <time>2019-04-19T09:02:57.000Z</time>
      </trkpt>
      <trkpt lat="38.477921" lon="-0.724212">
        <ele>1069</ele>
        <time>2019-04-19T09:02:59.000Z</time>
      </trkpt>
      <trkpt lat="38.477925" lon="-0.724185">
        <ele>1067.37894609197</ele>
        <time>2019-04-19T09:03:01.000Z</time>
      </trkpt>
      <trkpt lat="38.477927" lon="-0.724157">
        <ele>1066.64516795012</ele>
        <time>2019-04-19T09:03:03.000Z</time>
      </trkpt>
      <trkpt lat="38.477931" lon="-0.724133">
        <ele>1065.3962300605</ele>
        <time>2019-04-19T09:03:05.000Z</time>
      </trkpt>
      <trkpt lat="38.477939" lon="-0.724109">
        <ele>1065</ele>
        <time>2019-04-19T09:03:07.000Z</time>
      </trkpt>
      <trkpt lat="38.477941" lon="-0.724075">
        <ele>1065</ele>
        <time>2019-04-19T09:03:09.000Z</time>
      </trkpt>
      <trkpt lat="38.477948" lon="-0.724053">
        <ele>1064</ele>
        <time>2019-04-19T09:03:22.000Z</time>
      </trkpt>
      <trkpt lat="38.477956" lon="-0.724022">
        <ele>1064</ele>
        <time>2019-04-19T09:03:24.000Z</time>
      </trkpt>
      <trkpt lat="38.477973" lon="-0.723984">
        <ele>1063</ele>
        <time>2019-04-19T09:03:26.000Z</time>
      </trkpt>
      <trkpt lat="38.477977" lon="-0.723949">
        <ele>1062</ele>
        <time>2019-04-19T09:03:28.000Z</time>
      </trkpt>
      <trkpt lat="38.477987" lon="-0.723913">
        <ele>1061</ele>
        <time>2019-04-19T09:03:30.000Z</time>
      </trkpt>
      <trkpt lat="38.477998" lon="-0.723891">
        <ele>1061</ele>
        <time>2019-04-19T09:03:31.000Z</time>
      </trkpt>
      <trkpt lat="38.478006" lon="-0.723856">
        <ele>1061</ele>
        <time>2019-04-19T09:03:33.000Z</time>
      </trkpt>
      <trkpt lat="38.478007" lon="-0.723829">
        <ele>1061</ele>
        <time>2019-04-19T09:03:35.000Z</time>
      </trkpt>
      <trkpt lat="38.478014" lon="-0.723807">
        <ele>1059.36633462601</ele>
        <time>2019-04-19T09:03:37.000Z</time>
      </trkpt>
      <trkpt lat="38.478017" lon="-0.723781">
        <ele>1059</ele>
        <time>2019-04-19T09:03:39.000Z</time>
      </trkpt>
      <trkpt lat="38.478026" lon="-0.723757">
        <ele>1057.51428101229</ele>
        <time>2019-04-19T09:03:41.000Z</time>
      </trkpt>
      <trkpt lat="38.478046" lon="-0.723736">
        <ele>1057</ele>
        <time>2019-04-19T09:03:43.000Z</time>
      </trkpt>
      <trkpt lat="38.478066" lon="-0.723703">
        <ele>1057</ele>
        <time>2019-04-19T09:03:45.000Z</time>
      </trkpt>
      <trkpt lat="38.478077" lon="-0.723668">
        <ele>1056.41817843304</ele>
        <time>2019-04-19T09:03:47.000Z</time>
      </trkpt>
      <trkpt lat="38.478077" lon="-0.723628">
        <ele>1056</ele>
        <time>2019-04-19T09:03:49.000Z</time>
      </trkpt>
      <trkpt lat="38.478077" lon="-0.723596">
        <ele>1056</ele>
        <time>2019-04-19T09:03:51.000Z</time>
      </trkpt>
      <trkpt lat="38.478084" lon="-0.723565">
        <ele>1056</ele>
        <time>2019-04-19T09:03:53.000Z</time>
      </trkpt>
      <trkpt lat="38.478085" lon="-0.723522">
        <ele>1055</ele>
        <time>2019-04-19T09:03:55.000Z</time>
      </trkpt>
      <trkpt lat="38.478088" lon="-0.723479">
        <ele>1054</ele>
        <time>2019-04-19T09:03:57.000Z</time>
      </trkpt>
      <trkpt lat="38.478093" lon="-0.723454">
        <ele>1054</ele>
        <time>2019-04-19T09:03:58.000Z</time>
      </trkpt>
      <trkpt lat="38.4781" lon="-0.723432">
        <ele>1054</ele>
        <time>2019-04-19T09:03:59.000Z</time>
      </trkpt>
      <trkpt lat="38.478121" lon="-0.723399">
        <ele>1054</ele>
        <time>2019-04-19T09:04:01.000Z</time>
      </trkpt>
      <trkpt lat="38.47814" lon="-0.723361">
        <ele>1053</ele>
        <time>2019-04-19T09:04:03.000Z</time>
      </trkpt>
      <trkpt lat="38.478152" lon="-0.723322">
        <ele>1053</ele>
        <time>2019-04-19T09:04:05.000Z</time>
      </trkpt>
      <trkpt lat="38.478157" lon="-0.723281">
        <ele>1053</ele>
        <time>2019-04-19T09:04:07.000Z</time>
      </trkpt>
      <trkpt lat="38.478163" lon="-0.723242">
        <ele>1052</ele>
        <time>2019-04-19T09:04:09.000Z</time>
      </trkpt>
      <trkpt lat="38.478165" lon="-0.723217">
        <ele>1052</ele>
        <time>2019-04-19T09:04:11.000Z</time>
      </trkpt>
      <trkpt lat="38.478165" lon="-0.723183">
        <ele>1051.41284231293</ele>
        <time>2019-04-19T09:04:13.000Z</time>
      </trkpt>
      <trkpt lat="38.478186" lon="-0.723164">
        <ele>1050.64</ele>
        <time>2019-04-19T09:04:15.000Z</time>
      </trkpt>
      <trkpt lat="38.478208" lon="-0.723142">
        <ele>1051</ele>
        <time>2019-04-19T09:04:17.000Z</time>
      </trkpt>
      <trkpt lat="38.478223" lon="-0.723127">
        <ele>1051</ele>
        <time>2019-04-19T09:04:18.000Z</time>
      </trkpt>
      <trkpt lat="38.478239" lon="-0.72311">
        <ele>1051</ele>
        <time>2019-04-19T09:04:19.000Z</time>
      </trkpt>
      <trkpt lat="38.478254" lon="-0.723094">
        <ele>1051</ele>
        <time>2019-04-19T09:04:20.000Z</time>
      </trkpt>
      <trkpt lat="38.47827" lon="-0.723073">
        <ele>1051</ele>
        <time>2019-04-19T09:04:21.000Z</time>
      </trkpt>
      <trkpt lat="38.478287" lon="-0.72305">
        <ele>1051</ele>
        <time>2019-04-19T09:04:22.000Z</time>
      </trkpt>
      <trkpt lat="38.478304" lon="-0.723024">
        <ele>1051</ele>
        <time>2019-04-19T09:04:23.000Z</time>
      </trkpt>
      <trkpt lat="38.478317" lon="-0.722998">
        <ele>1051</ele>
        <time>2019-04-19T09:04:24.000Z</time>
      </trkpt>
      <trkpt lat="38.478325" lon="-0.722967">
        <ele>1051</ele>
        <time>2019-04-19T09:04:25.000Z</time>
      </trkpt>
      <trkpt lat="38.478328" lon="-0.722934">
        <ele>1051</ele>
        <time>2019-04-19T09:04:26.000Z</time>
      </trkpt>
      <trkpt lat="38.478329" lon="-0.722903">
        <ele>1051</ele>
        <time>2019-04-19T09:04:27.000Z</time>
      </trkpt>
      <trkpt lat="38.47833" lon="-0.722872">
        <ele>1051</ele>
        <time>2019-04-19T09:04:28.000Z</time>
      </trkpt>
      <trkpt lat="38.478329" lon="-0.722843">
        <ele>1051</ele>
        <time>2019-04-19T09:04:29.000Z</time>
      </trkpt>
      <trkpt lat="38.478328" lon="-0.722815">
        <ele>1051</ele>
        <time>2019-04-19T09:04:30.000Z</time>
      </trkpt>
      <trkpt lat="38.478328" lon="-0.722786">
        <ele>1051</ele>
        <time>2019-04-19T09:04:31.000Z</time>
      </trkpt>
      <trkpt lat="38.478322" lon="-0.722757">
        <ele>1051</ele>
        <time>2019-04-19T09:04:32.000Z</time>
      </trkpt>
      <trkpt lat="38.478312" lon="-0.722728">
        <ele>1051</ele>
        <time>2019-04-19T09:04:33.000Z</time>
      </trkpt>
      <trkpt lat="38.478301" lon="-0.722698">
        <ele>1051</ele>
        <time>2019-04-19T09:04:34.000Z</time>
      </trkpt>
      <trkpt lat="38.47829" lon="-0.722667">
        <ele>1051</ele>
        <time>2019-04-19T09:04:35.000Z</time>
      </trkpt>
      <trkpt lat="38.478279" lon="-0.722636">
        <ele>1051</ele>
        <time>2019-04-19T09:04:36.000Z</time>
      </trkpt>
      <trkpt lat="38.478268" lon="-0.722608">
        <ele>1051</ele>
        <time>2019-04-19T09:04:37.000Z</time>
      </trkpt>
      <trkpt lat="38.478258" lon="-0.722581">
        <ele>1051</ele>
        <time>2019-04-19T09:04:38.000Z</time>
      </trkpt>
      <trkpt lat="38.478247" lon="-0.722558">
        <ele>1051</ele>
        <time>2019-04-19T09:04:39.000Z</time>
      </trkpt>
      <trkpt lat="38.478236" lon="-0.722532">
        <ele>1051</ele>
        <time>2019-04-19T09:04:40.000Z</time>
      </trkpt>
      <trkpt lat="38.478223" lon="-0.722505">
        <ele>1051</ele>
        <time>2019-04-19T09:04:41.000Z</time>
      </trkpt>
      <trkpt lat="38.478205" lon="-0.722477">
        <ele>1051</ele>
        <time>2019-04-19T09:04:42.000Z</time>
      </trkpt>
      <trkpt lat="38.478189" lon="-0.722448">
        <ele>1051</ele>
        <time>2019-04-19T09:04:43.000Z</time>
      </trkpt>
      <trkpt lat="38.478171" lon="-0.722422">
        <ele>1051</ele>
        <time>2019-04-19T09:04:44.000Z</time>
      </trkpt>
      <trkpt lat="38.478156" lon="-0.722392">
        <ele>1051</ele>
        <time>2019-04-19T09:04:45.000Z</time>
      </trkpt>
      <trkpt lat="38.478139" lon="-0.722362">
        <ele>1050.36</ele>
        <time>2019-04-19T09:04:46.000Z</time>
      </trkpt>
      <trkpt lat="38.478122" lon="-0.722336">
        <ele>1050</ele>
        <time>2019-04-19T09:04:47.000Z</time>
      </trkpt>
      <trkpt lat="38.478104" lon="-0.722313">
        <ele>1050</ele>
        <time>2019-04-19T09:04:48.000Z</time>
      </trkpt>
      <trkpt lat="38.478084" lon="-0.722292">
        <ele>1050</ele>
        <time>2019-04-19T09:04:49.000Z</time>
      </trkpt>
      <trkpt lat="38.47806" lon="-0.722278">
        <ele>1050</ele>
        <time>2019-04-19T09:04:50.000Z</time>
      </trkpt>
      <trkpt lat="38.478035" lon="-0.722264">
        <ele>1050</ele>
        <time>2019-04-19T09:04:51.000Z</time>
      </trkpt>
      <trkpt lat="38.478013" lon="-0.722254">
        <ele>1050</ele>
        <time>2019-04-19T09:04:52.000Z</time>
      </trkpt>
      <trkpt lat="38.477991" lon="-0.722249">
        <ele>1050</ele>
        <time>2019-04-19T09:04:53.000Z</time>
      </trkpt>
      <trkpt lat="38.477965" lon="-0.722248">
        <ele>1049.36</ele>
        <time>2019-04-19T09:04:54.000Z</time>
      </trkpt>
      <trkpt lat="38.477942" lon="-0.722248">
        <ele>1049</ele>
        <time>2019-04-19T09:04:55.000Z</time>
      </trkpt>
      <trkpt lat="38.47792" lon="-0.722245">
        <ele>1049</ele>
        <time>2019-04-19T09:04:56.000Z</time>
      </trkpt>
      <trkpt lat="38.4779" lon="-0.722239">
        <ele>1049</ele>
        <time>2019-04-19T09:04:57.000Z</time>
      </trkpt>
      <trkpt lat="38.477877" lon="-0.722235">
        <ele>1049</ele>
        <time>2019-04-19T09:04:58.000Z</time>
      </trkpt>
      <trkpt lat="38.477848" lon="-0.722234">
        <ele>1049</ele>
        <time>2019-04-19T09:04:59.000Z</time>
      </trkpt>
      <trkpt lat="38.477822" lon="-0.722237">
        <ele>1049</ele>
        <time>2019-04-19T09:05:00.000Z</time>
      </trkpt>
      <trkpt lat="38.477798" lon="-0.722236">
        <ele>1049</ele>
        <time>2019-04-19T09:05:01.000Z</time>
      </trkpt>
      <trkpt lat="38.477776" lon="-0.722234">
        <ele>1049</ele>
        <time>2019-04-19T09:05:02.000Z</time>
      </trkpt>
      <trkpt lat="38.477754" lon="-0.72223">
        <ele>1049</ele>
        <time>2019-04-19T09:05:03.000Z</time>
      </trkpt>
      <trkpt lat="38.477732" lon="-0.722222">
        <ele>1049</ele>
        <time>2019-04-19T09:05:04.000Z</time>
      </trkpt>
      <trkpt lat="38.47771" lon="-0.722216">
        <ele>1049</ele>
        <time>2019-04-19T09:05:05.000Z</time>
      </trkpt>
      <trkpt lat="38.477684" lon="-0.72221">
        <ele>1049</ele>
        <time>2019-04-19T09:05:06.000Z</time>
      </trkpt>
      <trkpt lat="38.477658" lon="-0.722208">
        <ele>1049</ele>
        <time>2019-04-19T09:05:07.000Z</time>
      </trkpt>
      <trkpt lat="38.47763" lon="-0.722206">
        <ele>1049</ele>
        <time>2019-04-19T09:05:08.000Z</time>
      </trkpt>
      <trkpt lat="38.477604" lon="-0.722204">
        <ele>1048.39560300447</ele>
        <time>2019-04-19T09:05:09.000Z</time>
      </trkpt>
      <trkpt lat="38.477576" lon="-0.722204">
        <ele>1048</ele>
        <time>2019-04-19T09:05:10.000Z</time>
      </trkpt>
      <trkpt lat="38.477554" lon="-0.722204">
        <ele>1048</ele>
        <time>2019-04-19T09:05:11.000Z</time>
      </trkpt>
      <trkpt lat="38.477532" lon="-0.7222">
        <ele>1048</ele>
        <time>2019-04-19T09:05:12.000Z</time>
      </trkpt>
      <trkpt lat="38.477514" lon="-0.722188">
        <ele>1048</ele>
        <time>2019-04-19T09:05:13.000Z</time>
      </trkpt>
      <trkpt lat="38.477494" lon="-0.722173">
        <ele>1048</ele>
        <time>2019-04-19T09:05:14.000Z</time>
      </trkpt>
      <trkpt lat="38.477478" lon="-0.722156">
        <ele>1048</ele>
        <time>2019-04-19T09:05:15.000Z</time>
      </trkpt>
      <trkpt lat="38.477458" lon="-0.722134">
        <ele>1048</ele>
        <time>2019-04-19T09:05:16.000Z</time>
      </trkpt>
      <trkpt lat="38.477444" lon="-0.722108">
        <ele>1048</ele>
        <time>2019-04-19T09:05:17.000Z</time>
      </trkpt>
      <trkpt lat="38.477426" lon="-0.722078">
        <ele>1047.39560300447</ele>
        <time>2019-04-19T09:05:18.000Z</time>
      </trkpt>
      <trkpt lat="38.477418" lon="-0.722048">
        <ele>1046.36</ele>
        <time>2019-04-19T09:05:19.000Z</time>
      </trkpt>
      <trkpt lat="38.477416" lon="-0.722018">
        <ele>1046</ele>
        <time>2019-04-19T09:05:20.000Z</time>
      </trkpt>
      <trkpt lat="38.477406" lon="-0.721988">
        <ele>1046</ele>
        <time>2019-04-19T09:05:21.000Z</time>
      </trkpt>
      <trkpt lat="38.4774" lon="-0.721958">
        <ele>1046</ele>
        <time>2019-04-19T09:05:22.000Z</time>
      </trkpt>
      <trkpt lat="38.477394" lon="-0.721928">
        <ele>1046</ele>
        <time>2019-04-19T09:05:23.000Z</time>
      </trkpt>
      <trkpt lat="38.477388" lon="-0.7219">
        <ele>1046</ele>
        <time>2019-04-19T09:05:24.000Z</time>
      </trkpt>
      <trkpt lat="38.47738" lon="-0.721874">
        <ele>1046</ele>
        <time>2019-04-19T09:05:25.000Z</time>
      </trkpt>
      <trkpt lat="38.477374" lon="-0.721846">
        <ele>1046</ele>
        <time>2019-04-19T09:05:26.000Z</time>
      </trkpt>
      <trkpt lat="38.477362" lon="-0.721816">
        <ele>1046</ele>
        <time>2019-04-19T09:05:27.000Z</time>
      </trkpt>
      <trkpt lat="38.477352" lon="-0.721786">
        <ele>1046</ele>
        <time>2019-04-19T09:05:28.000Z</time>
      </trkpt>
      <trkpt lat="38.477346" lon="-0.721756">
        <ele>1046</ele>
        <time>2019-04-19T09:05:29.000Z</time>
      </trkpt>
      <trkpt lat="38.477338" lon="-0.721727">
        <ele>1045.36633462601</ele>
        <time>2019-04-19T09:05:30.000Z</time>
      </trkpt>
      <trkpt lat="38.477328" lon="-0.721702">
        <ele>1045</ele>
        <time>2019-04-19T09:05:31.000Z</time>
      </trkpt>
      <trkpt lat="38.477316" lon="-0.721673">
        <ele>1045</ele>
        <time>2019-04-19T09:05:32.000Z</time>
      </trkpt>
      <trkpt lat="38.477304" lon="-0.721643">
        <ele>1045</ele>
        <time>2019-04-19T09:05:33.000Z</time>
      </trkpt>
      <trkpt lat="38.477287" lon="-0.721618">
        <ele>1045</ele>
        <time>2019-04-19T09:05:34.000Z</time>
      </trkpt>
      <trkpt lat="38.47727" lon="-0.721601">
        <ele>1045</ele>
        <time>2019-04-19T09:05:35.000Z</time>
      </trkpt>
      <trkpt lat="38.477252" lon="-0.721582">
        <ele>1045</ele>
        <time>2019-04-19T09:05:36.000Z</time>
      </trkpt>
      <trkpt lat="38.477232" lon="-0.721566">
        <ele>1045</ele>
        <time>2019-04-19T09:05:37.000Z</time>
      </trkpt>
      <trkpt lat="38.47721" lon="-0.721556">
        <ele>1045</ele>
        <time>2019-04-19T09:05:38.000Z</time>
      </trkpt>
      <trkpt lat="38.477188" lon="-0.72155">
        <ele>1045</ele>
        <time>2019-04-19T09:05:39.000Z</time>
      </trkpt>
      <trkpt lat="38.477168" lon="-0.721548">
        <ele>1045</ele>
        <time>2019-04-19T09:05:40.000Z</time>
      </trkpt>
      <trkpt lat="38.477144" lon="-0.721545">
        <ele>1045</ele>
        <time>2019-04-19T09:05:41.000Z</time>
      </trkpt>
      <trkpt lat="38.477122" lon="-0.721539">
        <ele>1045</ele>
        <time>2019-04-19T09:05:42.000Z</time>
      </trkpt>
      <trkpt lat="38.477099" lon="-0.721532">
        <ele>1045</ele>
        <time>2019-04-19T09:05:43.000Z</time>
      </trkpt>
      <trkpt lat="38.47708" lon="-0.721526">
        <ele>1045</ele>
        <time>2019-04-19T09:05:44.000Z</time>
      </trkpt>
      <trkpt lat="38.47706" lon="-0.721524">
        <ele>1045</ele>
        <time>2019-04-19T09:05:45.000Z</time>
      </trkpt>
      <trkpt lat="38.477042" lon="-0.721525">
        <ele>1044.36</ele>
        <time>2019-04-19T09:05:46.000Z</time>
      </trkpt>
      <trkpt lat="38.477004" lon="-0.721523">
        <ele>1043.36</ele>
        <time>2019-04-19T09:05:48.000Z</time>
      </trkpt>
      <trkpt lat="38.476982" lon="-0.72152">
        <ele>1043</ele>
        <time>2019-04-19T09:05:49.000Z</time>
      </trkpt>
      <trkpt lat="38.476946" lon="-0.721509">
        <ele>1042.41817843304</ele>
        <time>2019-04-19T09:05:51.000Z</time>
      </trkpt>
      <trkpt lat="38.476928" lon="-0.721502">
        <ele>1042</ele>
        <time>2019-04-19T09:05:52.000Z</time>
      </trkpt>
      <trkpt lat="38.476902" lon="-0.721472">
        <ele>1041</ele>
        <time>2019-04-19T09:05:54.000Z</time>
      </trkpt>
      <trkpt lat="38.476886" lon="-0.721458">
        <ele>1041</ele>
        <time>2019-04-19T09:05:55.000Z</time>
      </trkpt>
      <trkpt lat="38.476868" lon="-0.721441">
        <ele>1040.38709810614</ele>
        <time>2019-04-19T09:05:56.000Z</time>
      </trkpt>
      <trkpt lat="38.47685" lon="-0.721422">
        <ele>1039.50387473829</ele>
        <time>2019-04-19T09:05:57.000Z</time>
      </trkpt>
      <trkpt lat="38.476826" lon="-0.721404">
        <ele>1039</ele>
        <time>2019-04-19T09:05:58.000Z</time>
      </trkpt>
      <trkpt lat="38.476804" lon="-0.721387">
        <ele>1039</ele>
        <time>2019-04-19T09:05:59.000Z</time>
      </trkpt>
      <trkpt lat="38.47678" lon="-0.721372">
        <ele>1039</ele>
        <time>2019-04-19T09:06:00.000Z</time>
      </trkpt>
      <trkpt lat="38.47676" lon="-0.721354">
        <ele>1038.36</ele>
        <time>2019-04-19T09:06:01.000Z</time>
      </trkpt>
      <trkpt lat="38.47674" lon="-0.721335">
        <ele>1038</ele>
        <time>2019-04-19T09:06:02.000Z</time>
      </trkpt>
      <trkpt lat="38.47672" lon="-0.721316">
        <ele>1038</ele>
        <time>2019-04-19T09:06:03.000Z</time>
      </trkpt>
      <trkpt lat="38.4767" lon="-0.721302">
        <ele>1038</ele>
        <time>2019-04-19T09:06:04.000Z</time>
      </trkpt>
      <trkpt lat="38.476679" lon="-0.72129">
        <ele>1037.36633462601</ele>
        <time>2019-04-19T09:06:05.000Z</time>
      </trkpt>
      <trkpt lat="38.476663" lon="-0.721276">
        <ele>1037</ele>
        <time>2019-04-19T09:06:06.000Z</time>
      </trkpt>
      <trkpt lat="38.476647" lon="-0.721254">
        <ele>1037</ele>
        <time>2019-04-19T09:06:07.000Z</time>
      </trkpt>
      <trkpt lat="38.47663" lon="-0.721231">
        <ele>1036.36</ele>
        <time>2019-04-19T09:06:08.000Z</time>
      </trkpt>
      <trkpt lat="38.476608" lon="-0.721211">
        <ele>1036</ele>
        <time>2019-04-19T09:06:09.000Z</time>
      </trkpt>
      <trkpt lat="38.47659" lon="-0.72119">
        <ele>1035.36</ele>
        <time>2019-04-19T09:06:10.000Z</time>
      </trkpt>
      <trkpt lat="38.476571" lon="-0.721172">
        <ele>1035</ele>
        <time>2019-04-19T09:06:11.000Z</time>
      </trkpt>
      <trkpt lat="38.476551" lon="-0.721157">
        <ele>1035</ele>
        <time>2019-04-19T09:06:12.000Z</time>
      </trkpt>
      <trkpt lat="38.476532" lon="-0.721139">
        <ele>1035</ele>
        <time>2019-04-19T09:06:13.000Z</time>
      </trkpt>
      <trkpt lat="38.476513" lon="-0.721116">
        <ele>1035</ele>
        <time>2019-04-19T09:06:14.000Z</time>
      </trkpt>
      <trkpt lat="38.476498" lon="-0.721095">
        <ele>1035</ele>
        <time>2019-04-19T09:06:15.000Z</time>
      </trkpt>
      <trkpt lat="38.476488" lon="-0.721067">
        <ele>1034.36</ele>
        <time>2019-04-19T09:06:16.000Z</time>
      </trkpt>
      <trkpt lat="38.476478" lon="-0.721039">
        <ele>1034</ele>
        <time>2019-04-19T09:06:17.000Z</time>
      </trkpt>
      <trkpt lat="38.476466" lon="-0.72101">
        <ele>1034.4682541295</ele>
        <time>2019-04-19T09:06:18.000Z</time>
      </trkpt>
      <trkpt lat="38.476452" lon="-0.720983">
        <ele>1034.52174155011</ele>
        <time>2019-04-19T09:06:19.000Z</time>
      </trkpt>
      <trkpt lat="38.476435" lon="-0.720961">
        <ele>1034</ele>
        <time>2019-04-19T09:06:20.000Z</time>
      </trkpt>
      <trkpt lat="38.476417" lon="-0.720943">
        <ele>1034</ele>
        <time>2019-04-19T09:06:21.000Z</time>
      </trkpt>
      <trkpt lat="38.476403" lon="-0.720921">
        <ele>1034</ele>
        <time>2019-04-19T09:06:22.000Z</time>
      </trkpt>
      <trkpt lat="38.476388" lon="-0.720899">
        <ele>1034</ele>
        <time>2019-04-19T09:06:23.000Z</time>
      </trkpt>
      <trkpt lat="38.476372" lon="-0.720877">
        <ele>1034</ele>
        <time>2019-04-19T09:06:24.000Z</time>
      </trkpt>
      <trkpt lat="38.476357" lon="-0.720851">
        <ele>1033.36</ele>
        <time>2019-04-19T09:06:25.000Z</time>
      </trkpt>
      <trkpt lat="38.476346" lon="-0.720824">
        <ele>1033</ele>
        <time>2019-04-19T09:06:26.000Z</time>
      </trkpt>
      <trkpt lat="38.476339" lon="-0.720795">
        <ele>1032.36</ele>
        <time>2019-04-19T09:06:27.000Z</time>
      </trkpt>
      <trkpt lat="38.476337" lon="-0.720771">
        <ele>1032</ele>
        <time>2019-04-19T09:06:28.000Z</time>
      </trkpt>
      <trkpt lat="38.476338" lon="-0.720739">
        <ele>1032</ele>
        <time>2019-04-19T09:06:30.000Z</time>
      </trkpt>
      <trkpt lat="38.476331" lon="-0.720709">
        <ele>1032</ele>
        <time>2019-04-19T09:06:32.000Z</time>
      </trkpt>
      <trkpt lat="38.476317" lon="-0.72069">
        <ele>1032</ele>
        <time>2019-04-19T09:06:33.000Z</time>
      </trkpt>
      <trkpt lat="38.476304" lon="-0.720667">
        <ele>1032</ele>
        <time>2019-04-19T09:06:34.000Z</time>
      </trkpt>
      <trkpt lat="38.476298" lon="-0.720622">
        <ele>1032</ele>
        <time>2019-04-19T09:06:36.000Z</time>
      </trkpt>
      <trkpt lat="38.476299" lon="-0.720576">
        <ele>1032</ele>
        <time>2019-04-19T09:06:38.000Z</time>
      </trkpt>
      <trkpt lat="38.476301" lon="-0.720551">
        <ele>1032</ele>
        <time>2019-04-19T09:06:39.000Z</time>
      </trkpt>
      <trkpt lat="38.476302" lon="-0.720527">
        <ele>1032</ele>
        <time>2019-04-19T09:06:40.000Z</time>
      </trkpt>
      <trkpt lat="38.476304" lon="-0.720504">
        <ele>1032.63366537399</ele>
        <time>2019-04-19T09:06:41.000Z</time>
      </trkpt>
      <trkpt lat="38.476311" lon="-0.720479">
        <ele>1033</ele>
        <time>2019-04-19T09:06:42.000Z</time>
      </trkpt>
      <trkpt lat="38.476316" lon="-0.720453">
        <ele>1033</ele>
        <time>2019-04-19T09:06:43.000Z</time>
      </trkpt>
      <trkpt lat="38.476326" lon="-0.720429">
        <ele>1033</ele>
        <time>2019-04-19T09:06:44.000Z</time>
      </trkpt>
      <trkpt lat="38.476339" lon="-0.720409">
        <ele>1033</ele>
        <time>2019-04-19T09:06:45.000Z</time>
      </trkpt>
      <trkpt lat="38.476355" lon="-0.720391">
        <ele>1033</ele>
        <time>2019-04-19T09:06:46.000Z</time>
      </trkpt>
      <trkpt lat="38.476373" lon="-0.720375">
        <ele>1033</ele>
        <time>2019-04-19T09:06:47.000Z</time>
      </trkpt>
      <trkpt lat="38.476393" lon="-0.720359">
        <ele>1033</ele>
        <time>2019-04-19T09:06:48.000Z</time>
      </trkpt>
      <trkpt lat="38.476408" lon="-0.720342">
        <ele>1033</ele>
        <time>2019-04-19T09:06:49.000Z</time>
      </trkpt>
      <trkpt lat="38.476422" lon="-0.720321">
        <ele>1033.49612526171</ele>
        <time>2019-04-19T09:06:50.000Z</time>
      </trkpt>
      <trkpt lat="38.476437" lon="-0.7203">
        <ele>1034</ele>
        <time>2019-04-19T09:06:51.000Z</time>
      </trkpt>
      <trkpt lat="38.476452" lon="-0.720279">
        <ele>1034</ele>
        <time>2019-04-19T09:06:52.000Z</time>
      </trkpt>
      <trkpt lat="38.476467" lon="-0.720258">
        <ele>1034</ele>
        <time>2019-04-19T09:06:53.000Z</time>
      </trkpt>
      <trkpt lat="38.476486" lon="-0.720236">
        <ele>1034</ele>
        <time>2019-04-19T09:06:54.000Z</time>
      </trkpt>
      <trkpt lat="38.476505" lon="-0.720216">
        <ele>1034</ele>
        <time>2019-04-19T09:06:55.000Z</time>
      </trkpt>
      <trkpt lat="38.476524" lon="-0.720197">
        <ele>1034</ele>
        <time>2019-04-19T09:06:56.000Z</time>
      </trkpt>
      <trkpt lat="38.476542" lon="-0.720177">
        <ele>1034</ele>
        <time>2019-04-19T09:06:57.000Z</time>
      </trkpt>
      <trkpt lat="38.476561" lon="-0.720156">
        <ele>1034</ele>
        <time>2019-04-19T09:06:58.000Z</time>
      </trkpt>
      <trkpt lat="38.47658" lon="-0.720137">
        <ele>1034</ele>
        <time>2019-04-19T09:06:59.000Z</time>
      </trkpt>
      <trkpt lat="38.476599" lon="-0.720115">
        <ele>1034</ele>
        <time>2019-04-19T09:07:00.000Z</time>
      </trkpt>
      <trkpt lat="38.476617" lon="-0.720094">
        <ele>1034</ele>
        <time>2019-04-19T09:07:01.000Z</time>
      </trkpt>
      <trkpt lat="38.476636" lon="-0.720074">
        <ele>1034</ele>
        <time>2019-04-19T09:07:02.000Z</time>
      </trkpt>
      <trkpt lat="38.476654" lon="-0.720055">
        <ele>1033.36633462601</ele>
        <time>2019-04-19T09:07:03.000Z</time>
      </trkpt>
      <trkpt lat="38.476672" lon="-0.720037">
        <ele>1033</ele>
        <time>2019-04-19T09:07:04.000Z</time>
      </trkpt>
      <trkpt lat="38.47669" lon="-0.72002">
        <ele>1033</ele>
        <time>2019-04-19T09:07:05.000Z</time>
      </trkpt>
      <trkpt lat="38.476708" lon="-0.720001">
        <ele>1033</ele>
        <time>2019-04-19T09:07:06.000Z</time>
      </trkpt>
      <trkpt lat="38.476727" lon="-0.719984">
        <ele>1033</ele>
        <time>2019-04-19T09:07:07.000Z</time>
      </trkpt>
      <trkpt lat="38.476746" lon="-0.719964">
        <ele>1033</ele>
        <time>2019-04-19T09:07:08.000Z</time>
      </trkpt>
      <trkpt lat="38.476765" lon="-0.719941">
        <ele>1032.51181237276</ele>
        <time>2019-04-19T09:07:09.000Z</time>
      </trkpt>
      <trkpt lat="38.476782" lon="-0.719921">
        <ele>1031.50703996827</ele>
        <time>2019-04-19T09:07:10.000Z</time>
      </trkpt>
      <trkpt lat="38.476796" lon="-0.719899">
        <ele>1031</ele>
        <time>2019-04-19T09:07:11.000Z</time>
      </trkpt>
      <trkpt lat="38.476808" lon="-0.719878">
        <ele>1031</ele>
        <time>2019-04-19T09:07:12.000Z</time>
      </trkpt>
      <trkpt lat="38.47682" lon="-0.719857">
        <ele>1031</ele>
        <time>2019-04-19T09:07:13.000Z</time>
      </trkpt>
      <trkpt lat="38.476835" lon="-0.719838">
        <ele>1031</ele>
        <time>2019-04-19T09:07:14.000Z</time>
      </trkpt>
      <trkpt lat="38.476848" lon="-0.719815">
        <ele>1031</ele>
        <time>2019-04-19T09:07:15.000Z</time>
      </trkpt>
      <trkpt lat="38.476857" lon="-0.719791">
        <ele>1031</ele>
        <time>2019-04-19T09:07:16.000Z</time>
      </trkpt>
      <trkpt lat="38.476864" lon="-0.719764">
        <ele>1030.37864270713</ele>
        <time>2019-04-19T09:07:17.000Z</time>
      </trkpt>
      <trkpt lat="38.476866" lon="-0.719736">
        <ele>1030</ele>
        <time>2019-04-19T09:07:18.000Z</time>
      </trkpt>
      <trkpt lat="38.476864" lon="-0.71971">
        <ele>1030</ele>
        <time>2019-04-19T09:07:19.000Z</time>
      </trkpt>
      <trkpt lat="38.47686" lon="-0.719684">
        <ele>1030</ele>
        <time>2019-04-19T09:07:20.000Z</time>
      </trkpt>
      <trkpt lat="38.476858" lon="-0.719661">
        <ele>1029.36</ele>
        <time>2019-04-19T09:07:21.000Z</time>
      </trkpt>
      <trkpt lat="38.476857" lon="-0.719636">
        <ele>1029</ele>
        <time>2019-04-19T09:07:22.000Z</time>
      </trkpt>
      <trkpt lat="38.476854" lon="-0.71961">
        <ele>1029</ele>
        <time>2019-04-19T09:07:23.000Z</time>
      </trkpt>
      <trkpt lat="38.476853" lon="-0.719585">
        <ele>1028.36633462601</ele>
        <time>2019-04-19T09:07:24.000Z</time>
      </trkpt>
      <trkpt lat="38.476847" lon="-0.719546">
        <ele>1028</ele>
        <time>2019-04-19T09:07:26.000Z</time>
      </trkpt>
      <trkpt lat="38.476838" lon="-0.719518">
        <ele>1028</ele>
        <time>2019-04-19T09:07:28.000Z</time>
      </trkpt>
      <trkpt lat="38.476836" lon="-0.719476">
        <ele>1028</ele>
        <time>2019-04-19T09:07:30.000Z</time>
      </trkpt>
      <trkpt lat="38.476833" lon="-0.719453">
        <ele>1027.5625</ele>
        <time>2019-04-19T09:07:31.000Z</time>
      </trkpt>
      <trkpt lat="38.476834" lon="-0.719429">
        <ele>1027</ele>
        <time>2019-04-19T09:07:32.000Z</time>
      </trkpt>
      <trkpt lat="38.476833" lon="-0.719404">
        <ele>1027</ele>
        <time>2019-04-19T09:07:33.000Z</time>
      </trkpt>
      <trkpt lat="38.476832" lon="-0.71938">
        <ele>1026.37894609197</ele>
        <time>2019-04-19T09:07:34.000Z</time>
      </trkpt>
      <trkpt lat="38.476831" lon="-0.719342">
        <ele>1025</ele>
        <time>2019-04-19T09:07:36.000Z</time>
      </trkpt>
      <trkpt lat="38.476831" lon="-0.719316">
        <ele>1025</ele>
        <time>2019-04-19T09:07:37.000Z</time>
      </trkpt>
      <trkpt lat="38.476831" lon="-0.719292">
        <ele>1025</ele>
        <time>2019-04-19T09:07:38.000Z</time>
      </trkpt>
      <trkpt lat="38.476842" lon="-0.719248">
        <ele>1025</ele>
        <time>2019-04-19T09:07:40.000Z</time>
      </trkpt>
      <trkpt lat="38.476843" lon="-0.719223">
        <ele>1024.36</ele>
        <time>2019-04-19T09:07:41.000Z</time>
      </trkpt>
      <trkpt lat="38.476848" lon="-0.719195">
        <ele>1024</ele>
        <time>2019-04-19T09:07:42.000Z</time>
      </trkpt>
      <trkpt lat="38.476855" lon="-0.719166">
        <ele>1024</ele>
        <time>2019-04-19T09:07:43.000Z</time>
      </trkpt>
      <trkpt lat="38.476862" lon="-0.719138">
        <ele>1024</ele>
        <time>2019-04-19T09:07:44.000Z</time>
      </trkpt>
      <trkpt lat="38.476868" lon="-0.719109">
        <ele>1024</ele>
        <time>2019-04-19T09:07:45.000Z</time>
      </trkpt>
      <trkpt lat="38.476875" lon="-0.719082">
        <ele>1024</ele>
        <time>2019-04-19T09:07:46.000Z</time>
      </trkpt>
      <trkpt lat="38.476879" lon="-0.719056">
        <ele>1023.50769473135</ele>
        <time>2019-04-19T09:07:47.000Z</time>
      </trkpt>
      <trkpt lat="38.476882" lon="-0.71903">
        <ele>1023</ele>
        <time>2019-04-19T09:07:48.000Z</time>
      </trkpt>
      <trkpt lat="38.476881" lon="-0.719002">
        <ele>1023</ele>
        <time>2019-04-19T09:07:49.000Z</time>
      </trkpt>
      <trkpt lat="38.476879" lon="-0.718978">
        <ele>1023</ele>
        <time>2019-04-19T09:07:50.000Z</time>
      </trkpt>
      <trkpt lat="38.476875" lon="-0.718955">
        <ele>1022.36</ele>
        <time>2019-04-19T09:07:51.000Z</time>
      </trkpt>
      <trkpt lat="38.47687" lon="-0.718932">
        <ele>1022</ele>
        <time>2019-04-19T09:07:52.000Z</time>
      </trkpt>
      <trkpt lat="38.476861" lon="-0.718888">
        <ele>1022</ele>
        <time>2019-04-19T09:07:54.000Z</time>
      </trkpt>
      <trkpt lat="38.476865" lon="-0.718848">
        <ele>1022</ele>
        <time>2019-04-19T09:07:56.000Z</time>
      </trkpt>
      <trkpt lat="38.47687" lon="-0.718804">
        <ele>1021.50703996827</ele>
        <time>2019-04-19T09:07:58.000Z</time>
      </trkpt>
      <trkpt lat="38.47688" lon="-0.718757">
        <ele>1020.36</ele>
        <time>2019-04-19T09:08:00.000Z</time>
      </trkpt>
      <trkpt lat="38.47688" lon="-0.718731">
        <ele>1019.36</ele>
        <time>2019-04-19T09:08:01.000Z</time>
      </trkpt>
      <trkpt lat="38.476872" lon="-0.718687">
        <ele>1019</ele>
        <time>2019-04-19T09:08:03.000Z</time>
      </trkpt>
      <trkpt lat="38.476856" lon="-0.718646">
        <ele>1018</ele>
        <time>2019-04-19T09:08:05.000Z</time>
      </trkpt>
      <trkpt lat="38.476842" lon="-0.718605">
        <ele>1018</ele>
        <time>2019-04-19T09:08:07.000Z</time>
      </trkpt>
      <trkpt lat="38.476836" lon="-0.718582">
        <ele>1018</ele>
        <time>2019-04-19T09:08:08.000Z</time>
      </trkpt>
      <trkpt lat="38.47683" lon="-0.718558">
        <ele>1018</ele>
        <time>2019-04-19T09:08:09.000Z</time>
      </trkpt>
      <trkpt lat="38.476822" lon="-0.718537">
        <ele>1017.36</ele>
        <time>2019-04-19T09:08:10.000Z</time>
      </trkpt>
      <trkpt lat="38.476796" lon="-0.718506">
        <ele>1016.36</ele>
        <time>2019-04-19T09:08:12.000Z</time>
      </trkpt>
      <trkpt lat="38.476788" lon="-0.718481">
        <ele>1015.41284231293</ele>
        <time>2019-04-19T09:08:13.000Z</time>
      </trkpt>
      <trkpt lat="38.476786" lon="-0.718452">
        <ele>1015</ele>
        <time>2019-04-19T09:08:14.000Z</time>
      </trkpt>
      <trkpt lat="38.47678" lon="-0.71842">
        <ele>1015</ele>
        <time>2019-04-19T09:08:15.000Z</time>
      </trkpt>
      <trkpt lat="38.47677" lon="-0.71839">
        <ele>1015</ele>
        <time>2019-04-19T09:08:16.000Z</time>
      </trkpt>
      <trkpt lat="38.476758" lon="-0.718362">
        <ele>1015</ele>
        <time>2019-04-19T09:08:17.000Z</time>
      </trkpt>
      <trkpt lat="38.476746" lon="-0.718333">
        <ele>1015</ele>
        <time>2019-04-19T09:08:18.000Z</time>
      </trkpt>
      <trkpt lat="38.476734" lon="-0.718305">
        <ele>1015</ele>
        <time>2019-04-19T09:08:19.000Z</time>
      </trkpt>
      <trkpt lat="38.47672" lon="-0.718276">
        <ele>1014.51145157508</ele>
        <time>2019-04-19T09:08:20.000Z</time>
      </trkpt>
      <trkpt lat="38.476706" lon="-0.718247">
        <ele>1014</ele>
        <time>2019-04-19T09:08:21.000Z</time>
      </trkpt>
      <trkpt lat="38.476694" lon="-0.718219">
        <ele>1014</ele>
        <time>2019-04-19T09:08:22.000Z</time>
      </trkpt>
      <trkpt lat="38.476684" lon="-0.71819">
        <ele>1014</ele>
        <time>2019-04-19T09:08:23.000Z</time>
      </trkpt>
      <trkpt lat="38.476674" lon="-0.71816">
        <ele>1014</ele>
        <time>2019-04-19T09:08:24.000Z</time>
      </trkpt>
      <trkpt lat="38.476666" lon="-0.718131">
        <ele>1014</ele>
        <time>2019-04-19T09:08:25.000Z</time>
      </trkpt>
      <trkpt lat="38.476654" lon="-0.718101">
        <ele>1014</ele>
        <time>2019-04-19T09:08:26.000Z</time>
      </trkpt>
      <trkpt lat="38.476644" lon="-0.718076">
        <ele>1014</ele>
        <time>2019-04-19T09:08:27.000Z</time>
      </trkpt>
      <trkpt lat="38.476637" lon="-0.718051">
        <ele>1014</ele>
        <time>2019-04-19T09:08:28.000Z</time>
      </trkpt>
      <trkpt lat="38.476628" lon="-0.718026">
        <ele>1014</ele>
        <time>2019-04-19T09:08:29.000Z</time>
      </trkpt>
      <trkpt lat="38.476622" lon="-0.718">
        <ele>1014</ele>
        <time>2019-04-19T09:08:30.000Z</time>
      </trkpt>
      <trkpt lat="38.476612" lon="-0.717972">
        <ele>1014</ele>
        <time>2019-04-19T09:08:31.000Z</time>
      </trkpt>
      <trkpt lat="38.4766" lon="-0.717948">
        <ele>1014.64</ele>
        <time>2019-04-19T09:08:32.000Z</time>
      </trkpt>
      <trkpt lat="38.476582" lon="-0.717926">
        <ele>1015</ele>
        <time>2019-04-19T09:08:33.000Z</time>
      </trkpt>
      <trkpt lat="38.476558" lon="-0.717905">
        <ele>1015</ele>
        <time>2019-04-19T09:08:34.000Z</time>
      </trkpt>
      <trkpt lat="38.47654" lon="-0.71789">
        <ele>1015</ele>
        <time>2019-04-19T09:08:35.000Z</time>
      </trkpt>
      <trkpt lat="38.47652" lon="-0.717875">
        <ele>1015</ele>
        <time>2019-04-19T09:08:36.000Z</time>
      </trkpt>
      <trkpt lat="38.476498" lon="-0.717863">
        <ele>1015</ele>
        <time>2019-04-19T09:08:37.000Z</time>
      </trkpt>
      <trkpt lat="38.476478" lon="-0.717851">
        <ele>1015</ele>
        <time>2019-04-19T09:08:38.000Z</time>
      </trkpt>
      <trkpt lat="38.476458" lon="-0.717838">
        <ele>1015</ele>
        <time>2019-04-19T09:08:39.000Z</time>
      </trkpt>
      <trkpt lat="38.47644" lon="-0.717824">
        <ele>1015</ele>
        <time>2019-04-19T09:08:40.000Z</time>
      </trkpt>
      <trkpt lat="38.476426" lon="-0.717807">
        <ele>1015</ele>
        <time>2019-04-19T09:08:41.000Z</time>
      </trkpt>
      <trkpt lat="38.476408" lon="-0.717789">
        <ele>1015</ele>
        <time>2019-04-19T09:08:42.000Z</time>
      </trkpt>
      <trkpt lat="38.476394" lon="-0.717771">
        <ele>1015</ele>
        <time>2019-04-19T09:08:43.000Z</time>
      </trkpt>
      <trkpt lat="38.476382" lon="-0.717751">
        <ele>1015</ele>
        <time>2019-04-19T09:08:44.000Z</time>
      </trkpt>
      <trkpt lat="38.476371" lon="-0.717729">
        <ele>1015</ele>
        <time>2019-04-19T09:08:45.000Z</time>
      </trkpt>
      <trkpt lat="38.476358" lon="-0.717709">
        <ele>1015.58715768707</ele>
        <time>2019-04-19T09:08:46.000Z</time>
      </trkpt>
      <trkpt lat="38.476338" lon="-0.717684">
        <ele>1016</ele>
        <time>2019-04-19T09:08:48.000Z</time>
      </trkpt>
      <trkpt lat="38.476328" lon="-0.717661">
        <ele>1016</ele>
        <time>2019-04-19T09:08:50.000Z</time>
      </trkpt>
      <trkpt lat="38.476328" lon="-0.717625">
        <ele>1016</ele>
        <time>2019-04-19T09:08:52.000Z</time>
      </trkpt>
      <trkpt lat="38.476319" lon="-0.71758">
        <ele>1016</ele>
        <time>2019-04-19T09:08:54.000Z</time>
      </trkpt>
      <trkpt lat="38.476308" lon="-0.71756">
        <ele>1016</ele>
        <time>2019-04-19T09:08:55.000Z</time>
      </trkpt>
      <trkpt lat="38.476298" lon="-0.71754">
        <ele>1016</ele>
        <time>2019-04-19T09:08:56.000Z</time>
      </trkpt>
      <trkpt lat="38.476282" lon="-0.717506">
        <ele>1016</ele>
        <time>2019-04-19T09:08:58.000Z</time>
      </trkpt>
      <trkpt lat="38.476267" lon="-0.717477">
        <ele>1016</ele>
        <time>2019-04-19T09:09:00.000Z</time>
      </trkpt>
      <trkpt lat="38.476254" lon="-0.717446">
        <ele>1016.56140666053</ele>
        <time>2019-04-19T09:09:02.000Z</time>
      </trkpt>
      <trkpt lat="38.47624" lon="-0.717406">
        <ele>1017</ele>
        <time>2019-04-19T09:09:04.000Z</time>
      </trkpt>
      <trkpt lat="38.476228" lon="-0.717366">
        <ele>1017</ele>
        <time>2019-04-19T09:09:06.000Z</time>
      </trkpt>
      <trkpt lat="38.47621" lon="-0.717328">
        <ele>1017.64</ele>
        <time>2019-04-19T09:09:08.000Z</time>
      </trkpt>
      <trkpt lat="38.476203" lon="-0.717306">
        <ele>1018</ele>
        <time>2019-04-19T09:09:09.000Z</time>
      </trkpt>
      <trkpt lat="38.476196" lon="-0.717285">
        <ele>1018</ele>
        <time>2019-04-19T09:09:10.000Z</time>
      </trkpt>
      <trkpt lat="38.476187" lon="-0.717266">
        <ele>1018</ele>
        <time>2019-04-19T09:09:11.000Z</time>
      </trkpt>
      <trkpt lat="38.476177" lon="-0.717245">
        <ele>1018</ele>
        <time>2019-04-19T09:09:12.000Z</time>
      </trkpt>
      <trkpt lat="38.476162" lon="-0.717207">
        <ele>1018</ele>
        <time>2019-04-19T09:09:14.000Z</time>
      </trkpt>
      <trkpt lat="38.476149" lon="-0.717166">
        <ele>1018.64</ele>
        <time>2019-04-19T09:09:16.000Z</time>
      </trkpt>
      <trkpt lat="38.476142" lon="-0.717144">
        <ele>1019</ele>
        <time>2019-04-19T09:09:17.000Z</time>
      </trkpt>
      <trkpt lat="38.476127" lon="-0.717105">
        <ele>1020</ele>
        <time>2019-04-19T09:09:19.000Z</time>
      </trkpt>
      <trkpt lat="38.47612" lon="-0.717067">
        <ele>1021</ele>
        <time>2019-04-19T09:09:21.000Z</time>
      </trkpt>
      <trkpt lat="38.476114" lon="-0.717028">
        <ele>1022</ele>
        <time>2019-04-19T09:09:23.000Z</time>
      </trkpt>
      <trkpt lat="38.476104" lon="-0.716987">
        <ele>1022</ele>
        <time>2019-04-19T09:09:25.000Z</time>
      </trkpt>
      <trkpt lat="38.476095" lon="-0.716945">
        <ele>1022</ele>
        <time>2019-04-19T09:09:27.000Z</time>
      </trkpt>
      <trkpt lat="38.476093" lon="-0.716901">
        <ele>1022</ele>
        <time>2019-04-19T09:09:29.000Z</time>
      </trkpt>
      <trkpt lat="38.476093" lon="-0.716877">
        <ele>1022.61290189386</ele>
        <time>2019-04-19T09:09:30.000Z</time>
      </trkpt>
      <trkpt lat="38.476095" lon="-0.716853">
        <ele>1023</ele>
        <time>2019-04-19T09:09:31.000Z</time>
      </trkpt>
      <trkpt lat="38.476094" lon="-0.716811">
        <ele>1023</ele>
        <time>2019-04-19T09:09:33.000Z</time>
      </trkpt>
      <trkpt lat="38.476088" lon="-0.716769">
        <ele>1023</ele>
        <time>2019-04-19T09:09:35.000Z</time>
      </trkpt>
      <trkpt lat="38.476085" lon="-0.716746">
        <ele>1023</ele>
        <time>2019-04-19T09:09:36.000Z</time>
      </trkpt>
      <trkpt lat="38.476084" lon="-0.716722">
        <ele>1023.64</ele>
        <time>2019-04-19T09:09:37.000Z</time>
      </trkpt>
      <trkpt lat="38.476085" lon="-0.716697">
        <ele>1024</ele>
        <time>2019-04-19T09:09:38.000Z</time>
      </trkpt>
      <trkpt lat="38.476086" lon="-0.716673">
        <ele>1024</ele>
        <time>2019-04-19T09:09:39.000Z</time>
      </trkpt>
      <trkpt lat="38.476089" lon="-0.71665">
        <ele>1024.61290189386</ele>
        <time>2019-04-19T09:09:40.000Z</time>
      </trkpt>
      <trkpt lat="38.476092" lon="-0.716625">
        <ele>1025</ele>
        <time>2019-04-19T09:09:41.000Z</time>
      </trkpt>
      <trkpt lat="38.476102" lon="-0.7166">
        <ele>1025</ele>
        <time>2019-04-19T09:09:42.000Z</time>
      </trkpt>
      <trkpt lat="38.476116" lon="-0.716574">
        <ele>1024</ele>
        <time>2019-04-19T09:09:43.000Z</time>
      </trkpt>
      <trkpt lat="38.476127" lon="-0.716547">
        <ele>1024</ele>
        <time>2019-04-19T09:09:44.000Z</time>
      </trkpt>
      <trkpt lat="38.476136" lon="-0.71652">
        <ele>1024</ele>
        <time>2019-04-19T09:09:45.000Z</time>
      </trkpt>
      <trkpt lat="38.476144" lon="-0.716493">
        <ele>1023.36633462601</ele>
        <time>2019-04-19T09:09:46.000Z</time>
      </trkpt>
      <trkpt lat="38.476151" lon="-0.716468">
        <ele>1023</ele>
        <time>2019-04-19T09:09:47.000Z</time>
      </trkpt>
      <trkpt lat="38.476161" lon="-0.716438">
        <ele>1023</ele>
        <time>2019-04-19T09:09:48.000Z</time>
      </trkpt>
      <trkpt lat="38.476167" lon="-0.716408">
        <ele>1023</ele>
        <time>2019-04-19T09:09:49.000Z</time>
      </trkpt>
      <trkpt lat="38.476167" lon="-0.716379">
        <ele>1023</ele>
        <time>2019-04-19T09:09:50.000Z</time>
      </trkpt>
      <trkpt lat="38.47617" lon="-0.71635">
        <ele>1023</ele>
        <time>2019-04-19T09:09:51.000Z</time>
      </trkpt>
      <trkpt lat="38.476176" lon="-0.716321">
        <ele>1023</ele>
        <time>2019-04-19T09:09:52.000Z</time>
      </trkpt>
      <trkpt lat="38.476182" lon="-0.716293">
        <ele>1023</ele>
        <time>2019-04-19T09:09:53.000Z</time>
      </trkpt>
      <trkpt lat="38.476185" lon="-0.716264">
        <ele>1023</ele>
        <time>2019-04-19T09:09:54.000Z</time>
      </trkpt>
      <trkpt lat="38.476186" lon="-0.716235">
        <ele>1023</ele>
        <time>2019-04-19T09:09:55.000Z</time>
      </trkpt>
      <trkpt lat="38.476192" lon="-0.716208">
        <ele>1023</ele>
        <time>2019-04-19T09:09:56.000Z</time>
      </trkpt>
      <trkpt lat="38.476197" lon="-0.71618">
        <ele>1023</ele>
        <time>2019-04-19T09:09:57.000Z</time>
      </trkpt>
      <trkpt lat="38.476199" lon="-0.71615">
        <ele>1023</ele>
        <time>2019-04-19T09:09:58.000Z</time>
      </trkpt>
      <trkpt lat="38.476199" lon="-0.716121">
        <ele>1023</ele>
        <time>2019-04-19T09:09:59.000Z</time>
      </trkpt>
      <trkpt lat="38.476201" lon="-0.716091">
        <ele>1023</ele>
        <time>2019-04-19T09:10:00.000Z</time>
      </trkpt>
      <trkpt lat="38.476202" lon="-0.716062">
        <ele>1023</ele>
        <time>2019-04-19T09:10:01.000Z</time>
      </trkpt>
      <trkpt lat="38.476201" lon="-0.716032">
        <ele>1023</ele>
        <time>2019-04-19T09:10:02.000Z</time>
      </trkpt>
      <trkpt lat="38.476199" lon="-0.716002">
        <ele>1023</ele>
        <time>2019-04-19T09:10:03.000Z</time>
      </trkpt>
      <trkpt lat="38.476196" lon="-0.715969">
        <ele>1023</ele>
        <time>2019-04-19T09:10:04.000Z</time>
      </trkpt>
      <trkpt lat="38.476188" lon="-0.71594">
        <ele>1023</ele>
        <time>2019-04-19T09:10:05.000Z</time>
      </trkpt>
      <trkpt lat="38.476181" lon="-0.715912">
        <ele>1023</ele>
        <time>2019-04-19T09:10:06.000Z</time>
      </trkpt>
      <trkpt lat="38.476175" lon="-0.715886">
        <ele>1023</ele>
        <time>2019-04-19T09:10:07.000Z</time>
      </trkpt>
      <trkpt lat="38.476171" lon="-0.715854">
        <ele>1023</ele>
        <time>2019-04-19T09:10:08.000Z</time>
      </trkpt>
      <trkpt lat="38.476174" lon="-0.715822">
        <ele>1023</ele>
        <time>2019-04-19T09:10:09.000Z</time>
      </trkpt>
      <trkpt lat="38.476177" lon="-0.715791">
        <ele>1023</ele>
        <time>2019-04-19T09:10:10.000Z</time>
      </trkpt>
      <trkpt lat="38.476178" lon="-0.71576">
        <ele>1022.39130434783</ele>
        <time>2019-04-19T09:10:11.000Z</time>
      </trkpt>
      <trkpt lat="38.476177" lon="-0.715728">
        <ele>1022</ele>
        <time>2019-04-19T09:10:12.000Z</time>
      </trkpt>
      <trkpt lat="38.476176" lon="-0.715696">
        <ele>1022</ele>
        <time>2019-04-19T09:10:13.000Z</time>
      </trkpt>
      <trkpt lat="38.476173" lon="-0.715664">
        <ele>1022</ele>
        <time>2019-04-19T09:10:14.000Z</time>
      </trkpt>
      <trkpt lat="38.476168" lon="-0.715635">
        <ele>1022</ele>
        <time>2019-04-19T09:10:15.000Z</time>
      </trkpt>
      <trkpt lat="38.476162" lon="-0.715606">
        <ele>1022</ele>
        <time>2019-04-19T09:10:16.000Z</time>
      </trkpt>
      <trkpt lat="38.476159" lon="-0.715578">
        <ele>1022</ele>
        <time>2019-04-19T09:10:17.000Z</time>
      </trkpt>
      <trkpt lat="38.476159" lon="-0.71555">
        <ele>1021.36</ele>
        <time>2019-04-19T09:10:18.000Z</time>
      </trkpt>
      <trkpt lat="38.476157" lon="-0.715521">
        <ele>1021</ele>
        <time>2019-04-19T09:10:19.000Z</time>
      </trkpt>
      <trkpt lat="38.476152" lon="-0.715494">
        <ele>1021</ele>
        <time>2019-04-19T09:10:20.000Z</time>
      </trkpt>
      <trkpt lat="38.476149" lon="-0.715467">
        <ele>1021</ele>
        <time>2019-04-19T09:10:21.000Z</time>
      </trkpt>
      <trkpt lat="38.476148" lon="-0.715438">
        <ele>1021</ele>
        <time>2019-04-19T09:10:22.000Z</time>
      </trkpt>
      <trkpt lat="38.476149" lon="-0.71541">
        <ele>1020.36</ele>
        <time>2019-04-19T09:10:23.000Z</time>
      </trkpt>
      <trkpt lat="38.476144" lon="-0.715382">
        <ele>1020</ele>
        <time>2019-04-19T09:10:24.000Z</time>
      </trkpt>
      <trkpt lat="38.476133" lon="-0.715352">
        <ele>1020</ele>
        <time>2019-04-19T09:10:25.000Z</time>
      </trkpt>
      <trkpt lat="38.476119" lon="-0.715324">
        <ele>1019.36</ele>
        <time>2019-04-19T09:10:26.000Z</time>
      </trkpt>
      <trkpt lat="38.476108" lon="-0.715298">
        <ele>1019</ele>
        <time>2019-04-19T09:10:27.000Z</time>
      </trkpt>
      <trkpt lat="38.4761" lon="-0.715268">
        <ele>1019</ele>
        <time>2019-04-19T09:10:28.000Z</time>
      </trkpt>
      <trkpt lat="38.476093" lon="-0.715239">
        <ele>1018.36</ele>
        <time>2019-04-19T09:10:29.000Z</time>
      </trkpt>
      <trkpt lat="38.47609" lon="-0.715212">
        <ele>1018</ele>
        <time>2019-04-19T09:10:30.000Z</time>
      </trkpt>
      <trkpt lat="38.476084" lon="-0.715186">
        <ele>1018</ele>
        <time>2019-04-19T09:10:31.000Z</time>
      </trkpt>
      <trkpt lat="38.47608" lon="-0.71516">
        <ele>1018</ele>
        <time>2019-04-19T09:10:32.000Z</time>
      </trkpt>
      <trkpt lat="38.476078" lon="-0.715135">
        <ele>1018</ele>
        <time>2019-04-19T09:10:33.000Z</time>
      </trkpt>
      <trkpt lat="38.476075" lon="-0.715112">
        <ele>1018</ele>
        <time>2019-04-19T09:10:34.000Z</time>
      </trkpt>
      <trkpt lat="38.476072" lon="-0.715086">
        <ele>1018</ele>
        <time>2019-04-19T09:10:35.000Z</time>
      </trkpt>
      <trkpt lat="38.47607" lon="-0.715056">
        <ele>1017.36</ele>
        <time>2019-04-19T09:10:36.000Z</time>
      </trkpt>
      <trkpt lat="38.476069" lon="-0.715026">
        <ele>1016.36633462601</ele>
        <time>2019-04-19T09:10:37.000Z</time>
      </trkpt>
      <trkpt lat="38.476068" lon="-0.714996">
        <ele>1016</ele>
        <time>2019-04-19T09:10:38.000Z</time>
      </trkpt>
      <trkpt lat="38.476065" lon="-0.714969">
        <ele>1016</ele>
        <time>2019-04-19T09:10:39.000Z</time>
      </trkpt>
      <trkpt lat="38.476063" lon="-0.714942">
        <ele>1016</ele>
        <time>2019-04-19T09:10:40.000Z</time>
      </trkpt>
      <trkpt lat="38.476061" lon="-0.714915">
        <ele>1015.37894609197</ele>
        <time>2019-04-19T09:10:41.000Z</time>
      </trkpt>
      <trkpt lat="38.476065" lon="-0.71489">
        <ele>1014.36</ele>
        <time>2019-04-19T09:10:42.000Z</time>
      </trkpt>
      <trkpt lat="38.476068" lon="-0.714864">
        <ele>1014</ele>
        <time>2019-04-19T09:10:43.000Z</time>
      </trkpt>
      <trkpt lat="38.476066" lon="-0.714833">
        <ele>1014</ele>
        <time>2019-04-19T09:10:44.000Z</time>
      </trkpt>
      <trkpt lat="38.476062" lon="-0.714803">
        <ele>1013.40740740741</ele>
        <time>2019-04-19T09:10:45.000Z</time>
      </trkpt>
      <trkpt lat="38.47606" lon="-0.714772">
        <ele>1013</ele>
        <time>2019-04-19T09:10:46.000Z</time>
      </trkpt>
      <trkpt lat="38.476061" lon="-0.714743">
        <ele>1012.52174155011</ele>
        <time>2019-04-19T09:10:47.000Z</time>
      </trkpt>
      <trkpt lat="38.476059" lon="-0.71471">
        <ele>1012</ele>
        <time>2019-04-19T09:10:48.000Z</time>
      </trkpt>
      <trkpt lat="38.476055" lon="-0.71468">
        <ele>1012</ele>
        <time>2019-04-19T09:10:49.000Z</time>
      </trkpt>
      <trkpt lat="38.476049" lon="-0.714651">
        <ele>1011.36</ele>
        <time>2019-04-19T09:10:50.000Z</time>
      </trkpt>
      <trkpt lat="38.476046" lon="-0.714621">
        <ele>1011</ele>
        <time>2019-04-19T09:10:51.000Z</time>
      </trkpt>
      <trkpt lat="38.476046" lon="-0.714591">
        <ele>1011</ele>
        <time>2019-04-19T09:10:52.000Z</time>
      </trkpt>
      <trkpt lat="38.476043" lon="-0.71456">
        <ele>1011</ele>
        <time>2019-04-19T09:10:53.000Z</time>
      </trkpt>
      <trkpt lat="38.476039" lon="-0.714532">
        <ele>1011</ele>
        <time>2019-04-19T09:10:54.000Z</time>
      </trkpt>
      <trkpt lat="38.476035" lon="-0.714499">
        <ele>1011</ele>
        <time>2019-04-19T09:10:55.000Z</time>
      </trkpt>
      <trkpt lat="38.476033" lon="-0.714471">
        <ele>1011</ele>
        <time>2019-04-19T09:10:56.000Z</time>
      </trkpt>
      <trkpt lat="38.476029" lon="-0.71444">
        <ele>1011</ele>
        <time>2019-04-19T09:10:57.000Z</time>
      </trkpt>
      <trkpt lat="38.476026" lon="-0.714412">
        <ele>1010.50703996827</ele>
        <time>2019-04-19T09:10:58.000Z</time>
      </trkpt>
      <trkpt lat="38.476021" lon="-0.714385">
        <ele>1010</ele>
        <time>2019-04-19T09:10:59.000Z</time>
      </trkpt>
      <trkpt lat="38.476017" lon="-0.714358">
        <ele>1010</ele>
        <time>2019-04-19T09:11:00.000Z</time>
      </trkpt>
      <trkpt lat="38.476016" lon="-0.714328">
        <ele>1009.36</ele>
        <time>2019-04-19T09:11:01.000Z</time>
      </trkpt>
      <trkpt lat="38.476014" lon="-0.714296">
        <ele>1009</ele>
        <time>2019-04-19T09:11:02.000Z</time>
      </trkpt>
      <trkpt lat="38.476014" lon="-0.714266">
        <ele>1009</ele>
        <time>2019-04-19T09:11:03.000Z</time>
      </trkpt>
      <trkpt lat="38.476015" lon="-0.714236">
        <ele>1009</ele>
        <time>2019-04-19T09:11:04.000Z</time>
      </trkpt>
      <trkpt lat="38.476016" lon="-0.714209">
        <ele>1009</ele>
        <time>2019-04-19T09:11:05.000Z</time>
      </trkpt>
      <trkpt lat="38.476017" lon="-0.714181">
        <ele>1009</ele>
        <time>2019-04-19T09:11:06.000Z</time>
      </trkpt>
      <trkpt lat="38.476019" lon="-0.714154">
        <ele>1009</ele>
        <time>2019-04-19T09:11:07.000Z</time>
      </trkpt>
      <trkpt lat="38.476017" lon="-0.714127">
        <ele>1009</ele>
        <time>2019-04-19T09:11:08.000Z</time>
      </trkpt>
      <trkpt lat="38.476017" lon="-0.714102">
        <ele>1009</ele>
        <time>2019-04-19T09:11:09.000Z</time>
      </trkpt>
      <trkpt lat="38.476019" lon="-0.714075">
        <ele>1009.64</ele>
        <time>2019-04-19T09:11:10.000Z</time>
      </trkpt>
      <trkpt lat="38.476023" lon="-0.714052">
        <ele>1010</ele>
        <time>2019-04-19T09:11:11.000Z</time>
      </trkpt>
      <trkpt lat="38.476028" lon="-0.714027">
        <ele>1010.63636481175</ele>
        <time>2019-04-19T09:11:12.000Z</time>
      </trkpt>
      <trkpt lat="38.476033" lon="-0.714004">
        <ele>1011</ele>
        <time>2019-04-19T09:11:13.000Z</time>
      </trkpt>
      <trkpt lat="38.476038" lon="-0.71398">
        <ele>1011.60439699553</ele>
        <time>2019-04-19T09:11:14.000Z</time>
      </trkpt>
      <trkpt lat="38.476041" lon="-0.713958">
        <ele>1012</ele>
        <time>2019-04-19T09:11:15.000Z</time>
      </trkpt>
      <trkpt lat="38.476045" lon="-0.713915">
        <ele>1012</ele>
        <time>2019-04-19T09:11:17.000Z</time>
      </trkpt>
      <trkpt lat="38.476049" lon="-0.713892">
        <ele>1012</ele>
        <time>2019-04-19T09:11:18.000Z</time>
      </trkpt>
      <trkpt lat="38.476053" lon="-0.713848">
        <ele>1013</ele>
        <time>2019-04-19T09:11:20.000Z</time>
      </trkpt>
      <trkpt lat="38.476055" lon="-0.713824">
        <ele>1013</ele>
        <time>2019-04-19T09:11:21.000Z</time>
      </trkpt>
      <trkpt lat="38.476058" lon="-0.713798">
        <ele>1013</ele>
        <time>2019-04-19T09:11:22.000Z</time>
      </trkpt>
      <trkpt lat="38.476061" lon="-0.713772">
        <ele>1013.57657491438</ele>
        <time>2019-04-19T09:11:23.000Z</time>
      </trkpt>
      <trkpt lat="38.476063" lon="-0.713746">
        <ele>1014</ele>
        <time>2019-04-19T09:11:24.000Z</time>
      </trkpt>
      <trkpt lat="38.476068" lon="-0.713718">
        <ele>1014</ele>
        <time>2019-04-19T09:11:25.000Z</time>
      </trkpt>
      <trkpt lat="38.476072" lon="-0.713694">
        <ele>1014</ele>
        <time>2019-04-19T09:11:26.000Z</time>
      </trkpt>
      <trkpt lat="38.476072" lon="-0.713668">
        <ele>1014</ele>
        <time>2019-04-19T09:11:27.000Z</time>
      </trkpt>
      <trkpt lat="38.476073" lon="-0.71364">
        <ele>1014</ele>
        <time>2019-04-19T09:11:28.000Z</time>
      </trkpt>
      <trkpt lat="38.476073" lon="-0.713612">
        <ele>1014</ele>
        <time>2019-04-19T09:11:29.000Z</time>
      </trkpt>
      <trkpt lat="38.476075" lon="-0.713586">
        <ele>1014.64</ele>
        <time>2019-04-19T09:11:30.000Z</time>
      </trkpt>
      <trkpt lat="38.476079" lon="-0.713556">
        <ele>1015</ele>
        <time>2019-04-19T09:11:31.000Z</time>
      </trkpt>
      <trkpt lat="38.476084" lon="-0.713529">
        <ele>1015</ele>
        <time>2019-04-19T09:11:32.000Z</time>
      </trkpt>
      <trkpt lat="38.476091" lon="-0.713501">
        <ele>1015</ele>
        <time>2019-04-19T09:11:33.000Z</time>
      </trkpt>
      <trkpt lat="38.476096" lon="-0.713471">
        <ele>1015</ele>
        <time>2019-04-19T09:11:34.000Z</time>
      </trkpt>
      <trkpt lat="38.476099" lon="-0.713438">
        <ele>1015</ele>
        <time>2019-04-19T09:11:35.000Z</time>
      </trkpt>
      <trkpt lat="38.476105" lon="-0.713404">
        <ele>1015</ele>
        <time>2019-04-19T09:11:36.000Z</time>
      </trkpt>
      <trkpt lat="38.476108" lon="-0.713376">
        <ele>1015</ele>
        <time>2019-04-19T09:11:37.000Z</time>
      </trkpt>
      <trkpt lat="38.476109" lon="-0.713346">
        <ele>1015</ele>
        <time>2019-04-19T09:11:38.000Z</time>
      </trkpt>
      <trkpt lat="38.476111" lon="-0.713314">
        <ele>1014.36</ele>
        <time>2019-04-19T09:11:39.000Z</time>
      </trkpt>
      <trkpt lat="38.476111" lon="-0.713284">
        <ele>1014</ele>
        <time>2019-04-19T09:11:40.000Z</time>
      </trkpt>
      <trkpt lat="38.476115" lon="-0.713259">
        <ele>1014</ele>
        <time>2019-04-19T09:11:41.000Z</time>
      </trkpt>
      <trkpt lat="38.476118" lon="-0.71323">
        <ele>1014</ele>
        <time>2019-04-19T09:11:42.000Z</time>
      </trkpt>
      <trkpt lat="38.47612" lon="-0.7132">
        <ele>1014</ele>
        <time>2019-04-19T09:11:43.000Z</time>
      </trkpt>
      <trkpt lat="38.476121" lon="-0.71317">
        <ele>1014</ele>
        <time>2019-04-19T09:11:44.000Z</time>
      </trkpt>
      <trkpt lat="38.476123" lon="-0.713139">
        <ele>1013.36633462601</ele>
        <time>2019-04-19T09:11:45.000Z</time>
      </trkpt>
      <trkpt lat="38.476123" lon="-0.713108">
        <ele>1013</ele>
        <time>2019-04-19T09:11:46.000Z</time>
      </trkpt>
      <trkpt lat="38.476123" lon="-0.713077">
        <ele>1013</ele>
        <time>2019-04-19T09:11:47.000Z</time>
      </trkpt>
      <trkpt lat="38.476121" lon="-0.713046">
        <ele>1013</ele>
        <time>2019-04-19T09:11:48.000Z</time>
      </trkpt>
      <trkpt lat="38.476119" lon="-0.713016">
        <ele>1013</ele>
        <time>2019-04-19T09:11:49.000Z</time>
      </trkpt>
      <trkpt lat="38.476116" lon="-0.712986">
        <ele>1013</ele>
        <time>2019-04-19T09:11:50.000Z</time>
      </trkpt>
      <trkpt lat="38.476111" lon="-0.712956">
        <ele>1013</ele>
        <time>2019-04-19T09:11:51.000Z</time>
      </trkpt>
      <trkpt lat="38.476107" lon="-0.712928">
        <ele>1013</ele>
        <time>2019-04-19T09:11:52.000Z</time>
      </trkpt>
      <trkpt lat="38.476104" lon="-0.712898">
        <ele>1013</ele>
        <time>2019-04-19T09:11:53.000Z</time>
      </trkpt>
      <trkpt lat="38.476099" lon="-0.712868">
        <ele>1012.6167672014</ele>
        <time>2019-04-19T09:11:54.000Z</time>
      </trkpt>
      <trkpt lat="38.476093" lon="-0.712838">
        <ele>1012.0179659536</ele>
        <time>2019-04-19T09:11:55.000Z</time>
      </trkpt>
      <trkpt lat="38.476085" lon="-0.712806">
        <ele>1012</ele>
        <time>2019-04-19T09:11:56.000Z</time>
      </trkpt>
      <trkpt lat="38.476076" lon="-0.712776">
        <ele>1011.39560300447</ele>
        <time>2019-04-19T09:11:57.000Z</time>
      </trkpt>
      <trkpt lat="38.476067" lon="-0.712748">
        <ele>1010.36</ele>
        <time>2019-04-19T09:11:58.000Z</time>
      </trkpt>
      <trkpt lat="38.476059" lon="-0.71272">
        <ele>1010</ele>
        <time>2019-04-19T09:11:59.000Z</time>
      </trkpt>
      <trkpt lat="38.476048" lon="-0.712688">
        <ele>1010</ele>
        <time>2019-04-19T09:12:00.000Z</time>
      </trkpt>
      <trkpt lat="38.476039" lon="-0.712657">
        <ele>1009.41284231293</ele>
        <time>2019-04-19T09:12:01.000Z</time>
      </trkpt>
      <trkpt lat="38.47603" lon="-0.712626">
        <ele>1009</ele>
        <time>2019-04-19T09:12:02.000Z</time>
      </trkpt>
      <trkpt lat="38.476022" lon="-0.712597">
        <ele>1009</ele>
        <time>2019-04-19T09:12:03.000Z</time>
      </trkpt>
      <trkpt lat="38.476011" lon="-0.712571">
        <ele>1009</ele>
        <time>2019-04-19T09:12:04.000Z</time>
      </trkpt>
      <trkpt lat="38.476001" lon="-0.712546">
        <ele>1009</ele>
        <time>2019-04-19T09:12:05.000Z</time>
      </trkpt>
      <trkpt lat="38.47599" lon="-0.71252">
        <ele>1009</ele>
        <time>2019-04-19T09:12:06.000Z</time>
      </trkpt>
      <trkpt lat="38.475979" lon="-0.712493">
        <ele>1008.36</ele>
        <time>2019-04-19T09:12:07.000Z</time>
      </trkpt>
      <trkpt lat="38.475969" lon="-0.712465">
        <ele>1008</ele>
        <time>2019-04-19T09:12:08.000Z</time>
      </trkpt>
      <trkpt lat="38.475957" lon="-0.712437">
        <ele>1008</ele>
        <time>2019-04-19T09:12:09.000Z</time>
      </trkpt>
      <trkpt lat="38.475946" lon="-0.71241">
        <ele>1008</ele>
        <time>2019-04-19T09:12:10.000Z</time>
      </trkpt>
      <trkpt lat="38.475933" lon="-0.712385">
        <ele>1007.36</ele>
        <time>2019-04-19T09:12:11.000Z</time>
      </trkpt>
      <trkpt lat="38.475918" lon="-0.712363">
        <ele>1007</ele>
        <time>2019-04-19T09:12:12.000Z</time>
      </trkpt>
      <trkpt lat="38.475902" lon="-0.712341">
        <ele>1007</ele>
        <time>2019-04-19T09:12:13.000Z</time>
      </trkpt>
      <trkpt lat="38.475887" lon="-0.712318">
        <ele>1006.51429041637</ele>
        <time>2019-04-19T09:12:14.000Z</time>
      </trkpt>
      <trkpt lat="38.475873" lon="-0.712296">
        <ele>1006</ele>
        <time>2019-04-19T09:12:15.000Z</time>
      </trkpt>
      <trkpt lat="38.475858" lon="-0.712274">
        <ele>1006</ele>
        <time>2019-04-19T09:12:16.000Z</time>
      </trkpt>
      <trkpt lat="38.475845" lon="-0.712252">
        <ele>1005.36</ele>
        <time>2019-04-19T09:12:17.000Z</time>
      </trkpt>
      <trkpt lat="38.475834" lon="-0.712229">
        <ele>1004.36</ele>
        <time>2019-04-19T09:12:18.000Z</time>
      </trkpt>
      <trkpt lat="38.475824" lon="-0.712207">
        <ele>1004</ele>
        <time>2019-04-19T09:12:19.000Z</time>
      </trkpt>
      <trkpt lat="38.475812" lon="-0.712188">
        <ele>1004</ele>
        <time>2019-04-19T09:12:20.000Z</time>
      </trkpt>
      <trkpt lat="38.4758" lon="-0.712167">
        <ele>1004</ele>
        <time>2019-04-19T09:12:21.000Z</time>
      </trkpt>
      <trkpt lat="38.475789" lon="-0.712145">
        <ele>1003.36</ele>
        <time>2019-04-19T09:12:22.000Z</time>
      </trkpt>
      <trkpt lat="38.475777" lon="-0.712124">
        <ele>1003</ele>
        <time>2019-04-19T09:12:23.000Z</time>
      </trkpt>
      <trkpt lat="38.475764" lon="-0.712105">
        <ele>1002.36</ele>
        <time>2019-04-19T09:12:24.000Z</time>
      </trkpt>
      <trkpt lat="38.47575" lon="-0.712091">
        <ele>1002</ele>
        <time>2019-04-19T09:12:25.000Z</time>
      </trkpt>
      <trkpt lat="38.475721" lon="-0.712073">
        <ele>1003</ele>
        <time>2019-04-19T09:12:27.000Z</time>
      </trkpt>
      <trkpt lat="38.475696" lon="-0.712064">
        <ele>1002</ele>
        <time>2019-04-19T09:12:29.000Z</time>
      </trkpt>
      <trkpt lat="38.475673" lon="-0.712064">
        <ele>1000</ele>
        <time>2019-04-19T09:12:42.000Z</time>
      </trkpt>
      <trkpt lat="38.475651" lon="-0.712062">
        <ele>1000</ele>
        <time>2019-04-19T09:12:44.000Z</time>
      </trkpt>
      <trkpt lat="38.475622" lon="-0.71207">
        <ele>1000</ele>
        <time>2019-04-19T09:12:46.000Z</time>
      </trkpt>
      <trkpt lat="38.475605" lon="-0.712073">
        <ele>1000</ele>
        <time>2019-04-19T09:12:47.000Z</time>
      </trkpt>
      <trkpt lat="38.475586" lon="-0.712075">
        <ele>999.387098106144</ele>
        <time>2019-04-19T09:12:48.000Z</time>
      </trkpt>
      <trkpt lat="38.475568" lon="-0.712081">
        <ele>999</ele>
        <time>2019-04-19T09:12:49.000Z</time>
      </trkpt>
      <trkpt lat="38.475536" lon="-0.71209">
        <ele>998</ele>
        <time>2019-04-19T09:12:51.000Z</time>
      </trkpt>
      <trkpt lat="38.4755" lon="-0.712103">
        <ele>997</ele>
        <time>2019-04-19T09:12:53.000Z</time>
      </trkpt>
      <trkpt lat="38.475466" lon="-0.712117">
        <ele>996.549293743296</ele>
        <time>2019-04-19T09:12:55.000Z</time>
      </trkpt>
      <trkpt lat="38.475446" lon="-0.71212">
        <ele>995.620682806259</ele>
        <time>2019-04-19T09:12:56.000Z</time>
      </trkpt>
      <trkpt lat="38.475428" lon="-0.712124">
        <ele>995</ele>
        <time>2019-04-19T09:12:57.000Z</time>
      </trkpt>
      <trkpt lat="38.475409" lon="-0.712126">
        <ele>995</ele>
        <time>2019-04-19T09:12:58.000Z</time>
      </trkpt>
      <trkpt lat="38.47539" lon="-0.712131">
        <ele>994.36</ele>
        <time>2019-04-19T09:12:59.000Z</time>
      </trkpt>
      <trkpt lat="38.475372" lon="-0.712137">
        <ele>993.36</ele>
        <time>2019-04-19T09:13:00.000Z</time>
      </trkpt>
      <trkpt lat="38.475354" lon="-0.712141">
        <ele>992.36</ele>
        <time>2019-04-19T09:13:01.000Z</time>
      </trkpt>
      <trkpt lat="38.475335" lon="-0.712141">
        <ele>992</ele>
        <time>2019-04-19T09:13:02.000Z</time>
      </trkpt>
      <trkpt lat="38.475301" lon="-0.712146">
        <ele>993</ele>
        <time>2019-04-19T09:13:04.000Z</time>
      </trkpt>
      <trkpt lat="38.475282" lon="-0.712148">
        <ele>992.366334626011</ele>
        <time>2019-04-19T09:13:05.000Z</time>
      </trkpt>
      <trkpt lat="38.475261" lon="-0.712152">
        <ele>991.3699968</ele>
        <time>2019-04-19T09:13:06.000Z</time>
      </trkpt>
      <trkpt lat="38.47524" lon="-0.712156">
        <ele>991</ele>
        <time>2019-04-19T09:13:07.000Z</time>
      </trkpt>
      <trkpt lat="38.475222" lon="-0.712158">
        <ele>991</ele>
        <time>2019-04-19T09:13:08.000Z</time>
      </trkpt>
      <trkpt lat="38.475204" lon="-0.712158">
        <ele>991</ele>
        <time>2019-04-19T09:13:09.000Z</time>
      </trkpt>
      <trkpt lat="38.475185" lon="-0.712157">
        <ele>990.507689884012</ele>
        <time>2019-04-19T09:13:10.000Z</time>
      </trkpt>
      <trkpt lat="38.475165" lon="-0.712157">
        <ele>990</ele>
        <time>2019-04-19T09:13:11.000Z</time>
      </trkpt>
      <trkpt lat="38.475145" lon="-0.712157">
        <ele>990</ele>
        <time>2019-04-19T09:13:12.000Z</time>
      </trkpt>
      <trkpt lat="38.475124" lon="-0.712155">
        <ele>989.36</ele>
        <time>2019-04-19T09:13:13.000Z</time>
      </trkpt>
      <trkpt lat="38.475103" lon="-0.712153">
        <ele>988.36</ele>
        <time>2019-04-19T09:13:14.000Z</time>
      </trkpt>
      <trkpt lat="38.475085" lon="-0.712147">
        <ele>987.378642707129</ele>
        <time>2019-04-19T09:13:15.000Z</time>
      </trkpt>
      <trkpt lat="38.475065" lon="-0.712138">
        <ele>986.371135244982</ele>
        <time>2019-04-19T09:13:16.000Z</time>
      </trkpt>
      <trkpt lat="38.475031" lon="-0.712132">
        <ele>986</ele>
        <time>2019-04-19T09:13:18.000Z</time>
      </trkpt>
      <trkpt lat="38.474997" lon="-0.712124">
        <ele>986</ele>
        <time>2019-04-19T09:13:20.000Z</time>
      </trkpt>
      <trkpt lat="38.474961" lon="-0.712117">
        <ele>985.514290416369</ele>
        <time>2019-04-19T09:13:22.000Z</time>
      </trkpt>
      <trkpt lat="38.474941" lon="-0.712112">
        <ele>985</ele>
        <time>2019-04-19T09:13:23.000Z</time>
      </trkpt>
      <trkpt lat="38.474919" lon="-0.712106">
        <ele>984.36</ele>
        <time>2019-04-19T09:13:24.000Z</time>
      </trkpt>
      <trkpt lat="38.474899" lon="-0.7121">
        <ele>984</ele>
        <time>2019-04-19T09:13:25.000Z</time>
      </trkpt>
      <trkpt lat="38.474879" lon="-0.712096">
        <ele>983.401870947676</ele>
        <time>2019-04-19T09:13:26.000Z</time>
      </trkpt>
      <trkpt lat="38.474855" lon="-0.712088">
        <ele>982.387098106144</ele>
        <time>2019-04-19T09:13:27.000Z</time>
      </trkpt>
      <trkpt lat="38.474833" lon="-0.712079">
        <ele>982</ele>
        <time>2019-04-19T09:13:28.000Z</time>
      </trkpt>
      <trkpt lat="38.474813" lon="-0.712074">
        <ele>982.48854842492</ele>
        <time>2019-04-19T09:13:29.000Z</time>
      </trkpt>
      <trkpt lat="38.474793" lon="-0.712071">
        <ele>982.521741550106</ele>
        <time>2019-04-19T09:13:30.000Z</time>
      </trkpt>
      <trkpt lat="38.474758" lon="-0.712068">
        <ele>982</ele>
        <time>2019-04-19T09:13:32.000Z</time>
      </trkpt>
      <trkpt lat="38.474724" lon="-0.712057">
        <ele>981.36</ele>
        <time>2019-04-19T09:13:34.000Z</time>
      </trkpt>
      <trkpt lat="38.474703" lon="-0.712046">
        <ele>980.36</ele>
        <time>2019-04-19T09:13:35.000Z</time>
      </trkpt>
      <trkpt lat="38.474685" lon="-0.71204">
        <ele>980</ele>
        <time>2019-04-19T09:13:36.000Z</time>
      </trkpt>
      <trkpt lat="38.47465" lon="-0.71203">
        <ele>978.36</ele>
        <time>2019-04-19T09:13:38.000Z</time>
      </trkpt>
      <trkpt lat="38.474631" lon="-0.712023">
        <ele>978</ele>
        <time>2019-04-19T09:13:39.000Z</time>
      </trkpt>
      <trkpt lat="38.474599" lon="-0.712008">
        <ele>978</ele>
        <time>2019-04-19T09:13:41.000Z</time>
      </trkpt>
      <trkpt lat="38.474581" lon="-0.712001">
        <ele>978</ele>
        <time>2019-04-19T09:13:42.000Z</time>
      </trkpt>
      <trkpt lat="38.474545" lon="-0.711991">
        <ele>977.36</ele>
        <time>2019-04-19T09:13:44.000Z</time>
      </trkpt>
      <trkpt lat="38.474528" lon="-0.711981">
        <ele>977</ele>
        <time>2019-04-19T09:13:45.000Z</time>
      </trkpt>
      <trkpt lat="38.474509" lon="-0.711969">
        <ele>976.36</ele>
        <time>2019-04-19T09:13:46.000Z</time>
      </trkpt>
      <trkpt lat="38.474493" lon="-0.711958">
        <ele>975.51145157508</ele>
        <time>2019-04-19T09:13:47.000Z</time>
      </trkpt>
      <trkpt lat="38.474478" lon="-0.711947">
        <ele>975</ele>
        <time>2019-04-19T09:13:48.000Z</time>
      </trkpt>
      <trkpt lat="38.47446" lon="-0.711938">
        <ele>975</ele>
        <time>2019-04-19T09:13:49.000Z</time>
      </trkpt>
      <trkpt lat="38.474443" lon="-0.711932">
        <ele>975</ele>
        <time>2019-04-19T09:13:50.000Z</time>
      </trkpt>
      <trkpt lat="38.474425" lon="-0.711924">
        <ele>974.36</ele>
        <time>2019-04-19T09:13:51.000Z</time>
      </trkpt>
      <trkpt lat="38.474407" lon="-0.711915">
        <ele>974</ele>
        <time>2019-04-19T09:13:52.000Z</time>
      </trkpt>
      <trkpt lat="38.474375" lon="-0.711896">
        <ele>973</ele>
        <time>2019-04-19T09:13:54.000Z</time>
      </trkpt>
      <trkpt lat="38.474343" lon="-0.711875">
        <ele>972</ele>
        <time>2019-04-19T09:13:56.000Z</time>
      </trkpt>
      <trkpt lat="38.474327" lon="-0.711862">
        <ele>972</ele>
        <time>2019-04-19T09:13:57.000Z</time>
      </trkpt>
      <trkpt lat="38.474312" lon="-0.711846">
        <ele>971.36</ele>
        <time>2019-04-19T09:13:58.000Z</time>
      </trkpt>
      <trkpt lat="38.474297" lon="-0.71183">
        <ele>971</ele>
        <time>2019-04-19T09:13:59.000Z</time>
      </trkpt>
      <trkpt lat="38.474282" lon="-0.711813">
        <ele>970.418607766383</ele>
        <time>2019-04-19T09:14:00.000Z</time>
      </trkpt>
      <trkpt lat="38.474268" lon="-0.711793">
        <ele>970</ele>
        <time>2019-04-19T09:14:01.000Z</time>
      </trkpt>
      <trkpt lat="38.474257" lon="-0.711774">
        <ele>970</ele>
        <time>2019-04-19T09:14:02.000Z</time>
      </trkpt>
      <trkpt lat="38.474236" lon="-0.71174">
        <ele>969.438593339471</ele>
        <time>2019-04-19T09:14:04.000Z</time>
      </trkpt>
      <trkpt lat="38.47421" lon="-0.711709">
        <ele>968</ele>
        <time>2019-04-19T09:14:06.000Z</time>
      </trkpt>
      <trkpt lat="38.474197" lon="-0.711694">
        <ele>967.507694731349</ele>
        <time>2019-04-19T09:14:07.000Z</time>
      </trkpt>
      <trkpt lat="38.47418" lon="-0.711657">
        <ele>966.36</ele>
        <time>2019-04-19T09:14:09.000Z</time>
      </trkpt>
      <trkpt lat="38.474171" lon="-0.711613">
        <ele>965</ele>
        <time>2019-04-19T09:14:11.000Z</time>
      </trkpt>
      <trkpt lat="38.474166" lon="-0.711588">
        <ele>965</ele>
        <time>2019-04-19T09:14:12.000Z</time>
      </trkpt>
      <trkpt lat="38.474161" lon="-0.711562">
        <ele>965</ele>
        <time>2019-04-19T09:14:13.000Z</time>
      </trkpt>
      <trkpt lat="38.474162" lon="-0.711539">
        <ele>965</ele>
        <time>2019-04-19T09:14:14.000Z</time>
      </trkpt>
      <trkpt lat="38.474182" lon="-0.711525">
        <ele>964</ele>
        <time>2019-04-19T09:14:16.000Z</time>
      </trkpt>
      <trkpt lat="38.474202" lon="-0.711546">
        <ele>964</ele>
        <time>2019-04-19T09:14:18.000Z</time>
      </trkpt>
      <trkpt lat="38.474211" lon="-0.711572">
        <ele>964</ele>
        <time>2019-04-19T09:14:20.000Z</time>
      </trkpt>
      <trkpt lat="38.474221" lon="-0.711599">
        <ele>964</ele>
        <time>2019-04-19T09:14:22.000Z</time>
      </trkpt>
      <trkpt lat="38.47424" lon="-0.711619">
        <ele>964</ele>
        <time>2019-04-19T09:14:24.000Z</time>
      </trkpt>
      <trkpt lat="38.474258" lon="-0.711631">
        <ele>964</ele>
        <time>2019-04-19T09:14:27.000Z</time>
      </trkpt>
      <trkpt lat="38.474276" lon="-0.711639">
        <ele>963.428571428571</ele>
        <time>2019-04-19T09:14:29.000Z</time>
      </trkpt>
      <trkpt lat="38.47431" lon="-0.711642">
        <ele>962</ele>
        <time>2019-04-19T09:14:31.000Z</time>
      </trkpt>
      <trkpt lat="38.474341" lon="-0.711663">
        <ele>962</ele>
        <time>2019-04-19T09:14:33.000Z</time>
      </trkpt>
      <trkpt lat="38.47436" lon="-0.711675">
        <ele>962</ele>
        <time>2019-04-19T09:14:34.000Z</time>
      </trkpt>
      <trkpt lat="38.474382" lon="-0.711684">
        <ele>962</ele>
        <time>2019-04-19T09:14:35.000Z</time>
      </trkpt>
      <trkpt lat="38.474407" lon="-0.711699">
        <ele>962</ele>
        <time>2019-04-19T09:14:37.000Z</time>
      </trkpt>
      <trkpt lat="38.474434" lon="-0.71172">
        <ele>962</ele>
        <time>2019-04-19T09:14:39.000Z</time>
      </trkpt>
      <trkpt lat="38.474461" lon="-0.711742">
        <ele>963</ele>
        <time>2019-04-19T09:14:41.000Z</time>
      </trkpt>
      <trkpt lat="38.47449" lon="-0.711758">
        <ele>963</ele>
        <time>2019-04-19T09:14:43.000Z</time>
      </trkpt>
      <trkpt lat="38.474513" lon="-0.71176">
        <ele>963</ele>
        <time>2019-04-19T09:14:45.000Z</time>
      </trkpt>
      <trkpt lat="38.474537" lon="-0.711761">
        <ele>963</ele>
        <time>2019-04-19T09:14:47.000Z</time>
      </trkpt>
      <trkpt lat="38.474557" lon="-0.711753">
        <ele>963</ele>
        <time>2019-04-19T09:14:50.000Z</time>
      </trkpt>
      <trkpt lat="38.474575" lon="-0.711753">
        <ele>963</ele>
        <time>2019-04-19T09:14:53.000Z</time>
      </trkpt>
      <trkpt lat="38.474593" lon="-0.711759">
        <ele>963</ele>
        <time>2019-04-19T09:14:55.000Z</time>
      </trkpt>
      <trkpt lat="38.474616" lon="-0.711761">
        <ele>963</ele>
        <time>2019-04-19T09:14:57.000Z</time>
      </trkpt>
      <trkpt lat="38.474635" lon="-0.711759">
        <ele>963</ele>
        <time>2019-04-19T09:14:59.000Z</time>
      </trkpt>
      <trkpt lat="38.474654" lon="-0.711751">
        <ele>961</ele>
        <time>2019-04-19T09:15:01.000Z</time>
      </trkpt>
      <trkpt lat="38.474685" lon="-0.711749">
        <ele>959.387098106144</ele>
        <time>2019-04-19T09:15:03.000Z</time>
      </trkpt>
      <trkpt lat="38.474714" lon="-0.71175">
        <ele>959</ele>
        <time>2019-04-19T09:15:05.000Z</time>
      </trkpt>
      <trkpt lat="38.474743" lon="-0.711749">
        <ele>959</ele>
        <time>2019-04-19T09:15:07.000Z</time>
      </trkpt>
      <trkpt lat="38.474771" lon="-0.711737">
        <ele>957.372545082636</ele>
        <time>2019-04-19T09:15:09.000Z</time>
      </trkpt>
      <trkpt lat="38.474804" lon="-0.711728">
        <ele>957</ele>
        <time>2019-04-19T09:15:11.000Z</time>
      </trkpt>
      <trkpt lat="38.474825" lon="-0.711726">
        <ele>956.36</ele>
        <time>2019-04-19T09:15:12.000Z</time>
      </trkpt>
      <trkpt lat="38.474848" lon="-0.711723">
        <ele>956</ele>
        <time>2019-04-19T09:15:13.000Z</time>
      </trkpt>
      <trkpt lat="38.474871" lon="-0.711719">
        <ele>956</ele>
        <time>2019-04-19T09:15:14.000Z</time>
      </trkpt>
      <trkpt lat="38.474893" lon="-0.711712">
        <ele>956</ele>
        <time>2019-04-19T09:15:15.000Z</time>
      </trkpt>
      <trkpt lat="38.474917" lon="-0.711706">
        <ele>956</ele>
        <time>2019-04-19T09:15:16.000Z</time>
      </trkpt>
      <trkpt lat="38.474937" lon="-0.711703">
        <ele>956</ele>
        <time>2019-04-19T09:15:17.000Z</time>
      </trkpt>
      <trkpt lat="38.474973" lon="-0.711695">
        <ele>955</ele>
        <time>2019-04-19T09:15:19.000Z</time>
      </trkpt>
      <trkpt lat="38.474993" lon="-0.711687">
        <ele>955</ele>
        <time>2019-04-19T09:15:20.000Z</time>
      </trkpt>
      <trkpt lat="38.475015" lon="-0.71168">
        <ele>955</ele>
        <time>2019-04-19T09:15:21.000Z</time>
      </trkpt>
      <trkpt lat="38.47504" lon="-0.711672">
        <ele>954.40449583639</ele>
        <time>2019-04-19T09:15:22.000Z</time>
      </trkpt>
      <trkpt lat="38.475065" lon="-0.711667">
        <ele>953.507694731349</ele>
        <time>2019-04-19T09:15:23.000Z</time>
      </trkpt>
      <trkpt lat="38.475086" lon="-0.711658">
        <ele>953</ele>
        <time>2019-04-19T09:15:24.000Z</time>
      </trkpt>
      <trkpt lat="38.475105" lon="-0.711642">
        <ele>953</ele>
        <time>2019-04-19T09:15:25.000Z</time>
      </trkpt>
      <trkpt lat="38.475125" lon="-0.711628">
        <ele>952.36</ele>
        <time>2019-04-19T09:15:26.000Z</time>
      </trkpt>
      <trkpt lat="38.475147" lon="-0.711618">
        <ele>951.366334626011</ele>
        <time>2019-04-19T09:15:27.000Z</time>
      </trkpt>
      <trkpt lat="38.47517" lon="-0.711611">
        <ele>951</ele>
        <time>2019-04-19T09:15:28.000Z</time>
      </trkpt>
      <trkpt lat="38.475194" lon="-0.711603">
        <ele>951</ele>
        <time>2019-04-19T09:15:29.000Z</time>
      </trkpt>
      <trkpt lat="38.47522" lon="-0.711595">
        <ele>951</ele>
        <time>2019-04-19T09:15:30.000Z</time>
      </trkpt>
      <trkpt lat="38.475243" lon="-0.711586">
        <ele>951</ele>
        <time>2019-04-19T09:15:31.000Z</time>
      </trkpt>
      <trkpt lat="38.47527" lon="-0.711576">
        <ele>951</ele>
        <time>2019-04-19T09:15:32.000Z</time>
      </trkpt>
      <trkpt lat="38.4753" lon="-0.711569">
        <ele>951</ele>
        <time>2019-04-19T09:15:33.000Z</time>
      </trkpt>
      <trkpt lat="38.475324" lon="-0.711565">
        <ele>950.418185203286</ele>
        <time>2019-04-19T09:15:34.000Z</time>
      </trkpt>
      <trkpt lat="38.475349" lon="-0.711558">
        <ele>950</ele>
        <time>2019-04-19T09:15:35.000Z</time>
      </trkpt>
      <trkpt lat="38.475372" lon="-0.711552">
        <ele>950</ele>
        <time>2019-04-19T09:15:36.000Z</time>
      </trkpt>
      <trkpt lat="38.475395" lon="-0.711546">
        <ele>950</ele>
        <time>2019-04-19T09:15:37.000Z</time>
      </trkpt>
      <trkpt lat="38.475418" lon="-0.711542">
        <ele>950</ele>
        <time>2019-04-19T09:15:38.000Z</time>
      </trkpt>
      <trkpt lat="38.475438" lon="-0.71154">
        <ele>949.418178433038</ele>
        <time>2019-04-19T09:15:39.000Z</time>
      </trkpt>
      <trkpt lat="38.475456" lon="-0.711536">
        <ele>949</ele>
        <time>2019-04-19T09:15:40.000Z</time>
      </trkpt>
      <trkpt lat="38.475484" lon="-0.711518">
        <ele>949</ele>
        <time>2019-04-19T09:15:42.000Z</time>
      </trkpt>
      <trkpt lat="38.475513" lon="-0.711505">
        <ele>948</ele>
        <time>2019-04-19T09:15:44.000Z</time>
      </trkpt>
      <trkpt lat="38.475544" lon="-0.711496">
        <ele>947.36</ele>
        <time>2019-04-19T09:15:46.000Z</time>
      </trkpt>
      <trkpt lat="38.475575" lon="-0.711492">
        <ele>947</ele>
        <time>2019-04-19T09:15:48.000Z</time>
      </trkpt>
      <trkpt lat="38.475608" lon="-0.711491">
        <ele>947</ele>
        <time>2019-04-19T09:16:00.000Z</time>
      </trkpt>
      <trkpt lat="38.47563" lon="-0.711493">
        <ele>947</ele>
        <time>2019-04-19T09:16:01.000Z</time>
      </trkpt>
      <trkpt lat="38.475654" lon="-0.711496">
        <ele>946.507039968271</ele>
        <time>2019-04-19T09:16:02.000Z</time>
      </trkpt>
      <trkpt lat="38.47568" lon="-0.711501">
        <ele>946</ele>
        <time>2019-04-19T09:16:03.000Z</time>
      </trkpt>
      <trkpt lat="38.475706" lon="-0.711506">
        <ele>944.72</ele>
        <time>2019-04-19T09:16:04.000Z</time>
      </trkpt>
      <trkpt lat="38.475731" lon="-0.711512">
        <ele>943.366334626011</ele>
        <time>2019-04-19T09:16:05.000Z</time>
      </trkpt>
      <trkpt lat="38.475754" lon="-0.711514">
        <ele>943</ele>
        <time>2019-04-19T09:16:06.000Z</time>
      </trkpt>
      <trkpt lat="38.475778" lon="-0.711518">
        <ele>943</ele>
        <time>2019-04-19T09:16:07.000Z</time>
      </trkpt>
      <trkpt lat="38.475802" lon="-0.711522">
        <ele>943</ele>
        <time>2019-04-19T09:16:08.000Z</time>
      </trkpt>
      <trkpt lat="38.475821" lon="-0.711525">
        <ele>943</ele>
        <time>2019-04-19T09:16:09.000Z</time>
      </trkpt>
      <trkpt lat="38.475841" lon="-0.711527">
        <ele>942.36</ele>
        <time>2019-04-19T09:16:10.000Z</time>
      </trkpt>
      <trkpt lat="38.47586" lon="-0.711527">
        <ele>941.36</ele>
        <time>2019-04-19T09:16:11.000Z</time>
      </trkpt>
      <trkpt lat="38.47588" lon="-0.711531">
        <ele>941</ele>
        <time>2019-04-19T09:16:12.000Z</time>
      </trkpt>
      <trkpt lat="38.475898" lon="-0.711538">
        <ele>940.36</ele>
        <time>2019-04-19T09:16:13.000Z</time>
      </trkpt>
      <trkpt lat="38.475918" lon="-0.711546">
        <ele>940</ele>
        <time>2019-04-19T09:16:14.000Z</time>
      </trkpt>
      <trkpt lat="38.475935" lon="-0.711556">
        <ele>940</ele>
        <time>2019-04-19T09:16:15.000Z</time>
      </trkpt>
      <trkpt lat="38.475963" lon="-0.711584">
        <ele>939.36363518825</ele>
        <time>2019-04-19T09:16:17.000Z</time>
      </trkpt>
      <trkpt lat="38.47598" lon="-0.711598">
        <ele>938.412842312932</ele>
        <time>2019-04-19T09:16:18.000Z</time>
      </trkpt>
      <trkpt lat="38.475998" lon="-0.711614">
        <ele>938</ele>
        <time>2019-04-19T09:16:19.000Z</time>
      </trkpt>
      <trkpt lat="38.476016" lon="-0.711653">
        <ele>937</ele>
        <time>2019-04-19T09:16:21.000Z</time>
      </trkpt>
      <trkpt lat="38.476018" lon="-0.711679">
        <ele>937</ele>
        <time>2019-04-19T09:16:22.000Z</time>
      </trkpt>
      <trkpt lat="38.476026" lon="-0.711716">
        <ele>934.413791581456</ele>
        <time>2019-04-19T09:16:24.000Z</time>
      </trkpt>
      <trkpt lat="38.476041" lon="-0.711741">
        <ele>934</ele>
        <time>2019-04-19T09:16:26.000Z</time>
      </trkpt>
      <trkpt lat="38.476048" lon="-0.711766">
        <ele>933.438593339471</ele>
        <time>2019-04-19T09:16:28.000Z</time>
      </trkpt>
      <trkpt lat="38.476063" lon="-0.711789">
        <ele>933</ele>
        <time>2019-04-19T09:16:30.000Z</time>
      </trkpt>
      <trkpt lat="38.476075" lon="-0.711818">
        <ele>931.378946091971</ele>
        <time>2019-04-19T09:16:32.000Z</time>
      </trkpt>
      <trkpt lat="38.47608" lon="-0.711843">
        <ele>930</ele>
        <time>2019-04-19T09:16:34.000Z</time>
      </trkpt>
      <trkpt lat="38.476093" lon="-0.711866">
        <ele>929.412842312932</ele>
        <time>2019-04-19T09:16:36.000Z</time>
      </trkpt>
      <trkpt lat="38.476106" lon="-0.711895">
        <ele>928.36</ele>
        <time>2019-04-19T09:16:38.000Z</time>
      </trkpt>
      <trkpt lat="38.476129" lon="-0.71193">
        <ele>928</ele>
        <time>2019-04-19T09:16:40.000Z</time>
      </trkpt>
      <trkpt lat="38.476144" lon="-0.711962">
        <ele>927.36</ele>
        <time>2019-04-19T09:16:42.000Z</time>
      </trkpt>
      <trkpt lat="38.476172" lon="-0.71198">
        <ele>925.396222769647</ele>
        <time>2019-04-19T09:16:46.000Z</time>
      </trkpt>
      <trkpt lat="38.476189" lon="-0.711971">
        <ele>925</ele>
        <time>2019-04-19T09:16:49.000Z</time>
      </trkpt>
      <trkpt lat="38.476201" lon="-0.711947">
        <ele>924</ele>
        <time>2019-04-19T09:16:53.000Z</time>
      </trkpt>
      <trkpt lat="38.476203" lon="-0.711921">
        <ele>923.36</ele>
        <time>2019-04-19T09:16:55.000Z</time>
      </trkpt>
      <trkpt lat="38.476218" lon="-0.711893">
        <ele>923</ele>
        <time>2019-04-19T09:16:57.000Z</time>
      </trkpt>
      <trkpt lat="38.476233" lon="-0.711865">
        <ele>922</ele>
        <time>2019-04-19T09:16:59.000Z</time>
      </trkpt>
      <trkpt lat="38.476242" lon="-0.711834">
        <ele>920</ele>
        <time>2019-04-19T09:17:02.000Z</time>
      </trkpt>
      <trkpt lat="38.476255" lon="-0.711808">
        <ele>920</ele>
        <time>2019-04-19T09:17:04.000Z</time>
      </trkpt>
      <trkpt lat="38.476265" lon="-0.71183">
        <ele>920</ele>
        <time>2019-04-19T09:17:08.000Z</time>
      </trkpt>
      <trkpt lat="38.476274" lon="-0.71186">
        <ele>920</ele>
        <time>2019-04-19T09:17:10.000Z</time>
      </trkpt>
      <trkpt lat="38.476287" lon="-0.711889">
        <ele>919</ele>
        <time>2019-04-19T09:17:12.000Z</time>
      </trkpt>
      <trkpt lat="38.476297" lon="-0.711917">
        <ele>917.418607766383</ele>
        <time>2019-04-19T09:17:14.000Z</time>
      </trkpt>
      <trkpt lat="38.476307" lon="-0.711938">
        <ele>917</ele>
        <time>2019-04-19T09:17:16.000Z</time>
      </trkpt>
      <trkpt lat="38.476326" lon="-0.711951">
        <ele>915.507039968271</ele>
        <time>2019-04-19T09:17:18.000Z</time>
      </trkpt>
      <trkpt lat="38.476348" lon="-0.711973">
        <ele>915</ele>
        <time>2019-04-19T09:17:20.000Z</time>
      </trkpt>
      <trkpt lat="38.476371" lon="-0.711979">
        <ele>913</ele>
        <time>2019-04-19T09:17:23.000Z</time>
      </trkpt>
      <trkpt lat="38.476397" lon="-0.711998">
        <ele>913</ele>
        <time>2019-04-19T09:17:25.000Z</time>
      </trkpt>
      <trkpt lat="38.476415" lon="-0.711993">
        <ele>913</ele>
        <time>2019-04-19T09:17:27.000Z</time>
      </trkpt>
      <trkpt lat="38.476407" lon="-0.711969">
        <ele>912</ele>
        <time>2019-04-19T09:17:31.000Z</time>
      </trkpt>
      <trkpt lat="38.476425" lon="-0.711956">
        <ele>911</ele>
        <time>2019-04-19T09:17:35.000Z</time>
      </trkpt>
      <trkpt lat="38.476441" lon="-0.71197">
        <ele>910</ele>
        <time>2019-04-19T09:17:37.000Z</time>
      </trkpt>
      <trkpt lat="38.476458" lon="-0.711983">
        <ele>910</ele>
        <time>2019-04-19T09:17:39.000Z</time>
      </trkpt>
      <trkpt lat="38.476475" lon="-0.712">
        <ele>909.36</ele>
        <time>2019-04-19T09:17:41.000Z</time>
      </trkpt>
      <trkpt lat="38.476498" lon="-0.712023">
        <ele>908.412842312932</ele>
        <time>2019-04-19T09:17:43.000Z</time>
      </trkpt>
      <trkpt lat="38.476524" lon="-0.712035">
        <ele>906.36</ele>
        <time>2019-04-19T09:17:45.000Z</time>
      </trkpt>
      <trkpt lat="38.476546" lon="-0.712047">
        <ele>906</ele>
        <time>2019-04-19T09:17:47.000Z</time>
      </trkpt>
      <trkpt lat="38.476564" lon="-0.712064">
        <ele>906</ele>
        <time>2019-04-19T09:17:49.000Z</time>
      </trkpt>
      <trkpt lat="38.476582" lon="-0.712084">
        <ele>904.36</ele>
        <time>2019-04-19T09:17:51.000Z</time>
      </trkpt>
      <trkpt lat="38.476606" lon="-0.712096">
        <ele>904</ele>
        <time>2019-04-19T09:17:53.000Z</time>
      </trkpt>
      <trkpt lat="38.476652" lon="-0.712097">
        <ele>902.507039968271</ele>
        <time>2019-04-19T09:17:56.000Z</time>
      </trkpt>
      <trkpt lat="38.476718" lon="-0.712085">
        <ele>900</ele>
        <time>2019-04-19T09:18:01.000Z</time>
      </trkpt>
      <trkpt lat="38.476745" lon="-0.712053">
        <ele>898.36</ele>
        <time>2019-04-19T09:18:04.000Z</time>
      </trkpt>
      <trkpt lat="38.476772" lon="-0.712037">
        <ele>898</ele>
        <time>2019-04-19T09:18:06.000Z</time>
      </trkpt>
      <trkpt lat="38.476797" lon="-0.712035">
        <ele>897</ele>
        <time>2019-04-19T09:18:08.000Z</time>
      </trkpt>
      <trkpt lat="38.47682" lon="-0.712021">
        <ele>897</ele>
        <time>2019-04-19T09:18:10.000Z</time>
      </trkpt>
      <trkpt lat="38.476805" lon="-0.711995">
        <ele>897</ele>
        <time>2019-04-19T09:18:13.000Z</time>
      </trkpt>
      <trkpt lat="38.476781" lon="-0.711981">
        <ele>895</ele>
        <time>2019-04-19T09:18:16.000Z</time>
      </trkpt>
      <trkpt lat="38.476754" lon="-0.711969">
        <ele>894.384615384615</ele>
        <time>2019-04-19T09:18:18.000Z</time>
      </trkpt>
      <trkpt lat="38.476727" lon="-0.711963">
        <ele>892.36</ele>
        <time>2019-04-19T09:18:20.000Z</time>
      </trkpt>
      <trkpt lat="38.476706" lon="-0.711953">
        <ele>892</ele>
        <time>2019-04-19T09:18:22.000Z</time>
      </trkpt>
      <trkpt lat="38.476681" lon="-0.711942">
        <ele>890.514281012288</ele>
        <time>2019-04-19T09:18:25.000Z</time>
      </trkpt>
      <trkpt lat="38.476662" lon="-0.711927">
        <ele>890</ele>
        <time>2019-04-19T09:18:28.000Z</time>
      </trkpt>
      <trkpt lat="38.476658" lon="-0.711904">
        <ele>889</ele>
        <time>2019-04-19T09:18:31.000Z</time>
      </trkpt>
      <trkpt lat="38.476647" lon="-0.711872">
        <ele>889</ele>
        <time>2019-04-19T09:18:34.000Z</time>
      </trkpt>
      <trkpt lat="38.476629" lon="-0.71183">
        <ele>887.72</ele>
        <time>2019-04-19T09:18:36.000Z</time>
      </trkpt>
      <trkpt lat="38.476616" lon="-0.711811">
        <ele>886.438599642949</ele>
        <time>2019-04-19T09:18:37.000Z</time>
      </trkpt>
      <trkpt lat="38.476604" lon="-0.711771">
        <ele>886</ele>
        <time>2019-04-19T09:18:39.000Z</time>
      </trkpt>
      <trkpt lat="38.476602" lon="-0.711729">
        <ele>885</ele>
        <time>2019-04-19T09:18:41.000Z</time>
      </trkpt>
      <trkpt lat="38.476605" lon="-0.71169">
        <ele>884.36</ele>
        <time>2019-04-19T09:18:43.000Z</time>
      </trkpt>
      <trkpt lat="38.476604" lon="-0.711664">
        <ele>884</ele>
        <time>2019-04-19T09:18:45.000Z</time>
      </trkpt>
      <trkpt lat="38.476588" lon="-0.711641">
        <ele>883</ele>
        <time>2019-04-19T09:18:47.000Z</time>
      </trkpt>
      <trkpt lat="38.476565" lon="-0.711614">
        <ele>882.36</ele>
        <time>2019-04-19T09:18:49.000Z</time>
      </trkpt>
      <trkpt lat="38.476549" lon="-0.711586">
        <ele>881</ele>
        <time>2019-04-19T09:18:51.000Z</time>
      </trkpt>
      <trkpt lat="38.476534" lon="-0.711556">
        <ele>880</ele>
        <time>2019-04-19T09:18:53.000Z</time>
      </trkpt>
      <trkpt lat="38.476523" lon="-0.711536">
        <ele>879.36</ele>
        <time>2019-04-19T09:18:55.000Z</time>
      </trkpt>
      <trkpt lat="38.476536" lon="-0.711555">
        <ele>879</ele>
        <time>2019-04-19T09:18:57.000Z</time>
      </trkpt>
      <trkpt lat="38.476548" lon="-0.711573">
        <ele>879</ele>
        <time>2019-04-19T09:18:58.000Z</time>
      </trkpt>
      <trkpt lat="38.476564" lon="-0.711588">
        <ele>879</ele>
        <time>2019-04-19T09:18:59.000Z</time>
      </trkpt>
      <trkpt lat="38.476582" lon="-0.711601">
        <ele>879</ele>
        <time>2019-04-19T09:19:00.000Z</time>
      </trkpt>
      <trkpt lat="38.476603" lon="-0.711614">
        <ele>878.36</ele>
        <time>2019-04-19T09:19:01.000Z</time>
      </trkpt>
      <trkpt lat="38.47662" lon="-0.711629">
        <ele>878</ele>
        <time>2019-04-19T09:19:02.000Z</time>
      </trkpt>
      <trkpt lat="38.476641" lon="-0.711658">
        <ele>877</ele>
        <time>2019-04-19T09:19:04.000Z</time>
      </trkpt>
      <trkpt lat="38.476658" lon="-0.71167">
        <ele>877</ele>
        <time>2019-04-19T09:19:05.000Z</time>
      </trkpt>
      <trkpt lat="38.476677" lon="-0.711648">
        <ele>876</ele>
        <time>2019-04-19T09:19:07.000Z</time>
      </trkpt>
      <trkpt lat="38.476683" lon="-0.711609">
        <ele>876</ele>
        <time>2019-04-19T09:19:09.000Z</time>
      </trkpt>
      <trkpt lat="38.476672" lon="-0.711587">
        <ele>876</ele>
        <time>2019-04-19T09:19:10.000Z</time>
      </trkpt>
      <trkpt lat="38.476657" lon="-0.711571">
        <ele>876</ele>
        <time>2019-04-19T09:19:11.000Z</time>
      </trkpt>
      <trkpt lat="38.476631" lon="-0.711556">
        <ele>875.507039968271</ele>
        <time>2019-04-19T09:19:13.000Z</time>
      </trkpt>
      <trkpt lat="38.47661" lon="-0.711538">
        <ele>874.418601535989</ele>
        <time>2019-04-19T09:19:15.000Z</time>
      </trkpt>
      <trkpt lat="38.476593" lon="-0.711524">
        <ele>874</ele>
        <time>2019-04-19T09:19:17.000Z</time>
      </trkpt>
      <trkpt lat="38.476587" lon="-0.7115">
        <ele>873.36</ele>
        <time>2019-04-19T09:19:19.000Z</time>
      </trkpt>
      <trkpt lat="38.476604" lon="-0.711492">
        <ele>872</ele>
        <time>2019-04-19T09:19:21.000Z</time>
      </trkpt>
      <trkpt lat="38.476635" lon="-0.7115">
        <ele>871</ele>
        <time>2019-04-19T09:19:23.000Z</time>
      </trkpt>
      <trkpt lat="38.476668" lon="-0.711516">
        <ele>870</ele>
        <time>2019-04-19T09:19:25.000Z</time>
      </trkpt>
      <trkpt lat="38.476685" lon="-0.71153">
        <ele>870</ele>
        <time>2019-04-19T09:19:26.000Z</time>
      </trkpt>
      <trkpt lat="38.476704" lon="-0.71155">
        <ele>870</ele>
        <time>2019-04-19T09:19:27.000Z</time>
      </trkpt>
      <trkpt lat="38.47672" lon="-0.711568">
        <ele>870</ele>
        <time>2019-04-19T09:19:28.000Z</time>
      </trkpt>
      <trkpt lat="38.476736" lon="-0.711598">
        <ele>870</ele>
        <time>2019-04-19T09:19:30.000Z</time>
      </trkpt>
      <trkpt lat="38.476741" lon="-0.711628">
        <ele>870</ele>
        <time>2019-04-19T09:19:32.000Z</time>
      </trkpt>
      <trkpt lat="38.476737" lon="-0.711655">
        <ele>870</ele>
        <time>2019-04-19T09:19:33.000Z</time>
      </trkpt>
      <trkpt lat="38.47673" lon="-0.711685">
        <ele>869.36</ele>
        <time>2019-04-19T09:19:34.000Z</time>
      </trkpt>
      <trkpt lat="38.476729" lon="-0.71171">
        <ele>869</ele>
        <time>2019-04-19T09:19:35.000Z</time>
      </trkpt>
      <trkpt lat="38.476732" lon="-0.711736">
        <ele>868.371135244982</ele>
        <time>2019-04-19T09:19:36.000Z</time>
      </trkpt>
      <trkpt lat="38.476738" lon="-0.711764">
        <ele>868</ele>
        <time>2019-04-19T09:19:37.000Z</time>
      </trkpt>
      <trkpt lat="38.47675" lon="-0.711789">
        <ele>868</ele>
        <time>2019-04-19T09:19:38.000Z</time>
      </trkpt>
      <trkpt lat="38.476764" lon="-0.711808">
        <ele>868</ele>
        <time>2019-04-19T09:19:39.000Z</time>
      </trkpt>
      <trkpt lat="38.47678" lon="-0.711824">
        <ele>868</ele>
        <time>2019-04-19T09:19:40.000Z</time>
      </trkpt>
      <trkpt lat="38.476793" lon="-0.711843">
        <ele>868</ele>
        <time>2019-04-19T09:19:41.000Z</time>
      </trkpt>
      <trkpt lat="38.476805" lon="-0.711864">
        <ele>868.566373285305</ele>
        <time>2019-04-19T09:19:42.000Z</time>
      </trkpt>
      <trkpt lat="38.476824" lon="-0.711896">
        <ele>869</ele>
        <time>2019-04-19T09:19:44.000Z</time>
      </trkpt>
      <trkpt lat="38.476844" lon="-0.711922">
        <ele>869</ele>
        <time>2019-04-19T09:19:46.000Z</time>
      </trkpt>
      <trkpt lat="38.476857" lon="-0.711941">
        <ele>869</ele>
        <time>2019-04-19T09:19:47.000Z</time>
      </trkpt>
      <trkpt lat="38.476879" lon="-0.711962">
        <ele>869</ele>
        <time>2019-04-19T09:19:48.000Z</time>
      </trkpt>
      <trkpt lat="38.476891" lon="-0.711982">
        <ele>869</ele>
        <time>2019-04-19T09:19:49.000Z</time>
      </trkpt>
      <trkpt lat="38.476907" lon="-0.712028">
        <ele>869</ele>
        <time>2019-04-19T09:19:53.000Z</time>
      </trkpt>
      <trkpt lat="38.47694" lon="-0.712077">
        <ele>869</ele>
        <time>2019-04-19T09:19:57.000Z</time>
      </trkpt>
      <trkpt lat="38.476989" lon="-0.712102">
        <ele>869</ele>
        <time>2019-04-19T09:20:00.000Z</time>
      </trkpt>
      <trkpt lat="38.477008" lon="-0.712124">
        <ele>869</ele>
        <time>2019-04-19T09:20:02.000Z</time>
      </trkpt>
      <trkpt lat="38.477028" lon="-0.712158">
        <ele>869</ele>
        <time>2019-04-19T09:20:04.000Z</time>
      </trkpt>
      <trkpt lat="38.477042" lon="-0.712179">
        <ele>869</ele>
        <time>2019-04-19T09:20:05.000Z</time>
      </trkpt>
      <trkpt lat="38.477061" lon="-0.712202">
        <ele>869</ele>
        <time>2019-04-19T09:20:06.000Z</time>
      </trkpt>
      <trkpt lat="38.477083" lon="-0.712218">
        <ele>869</ele>
        <time>2019-04-19T09:20:07.000Z</time>
      </trkpt>
      <trkpt lat="38.477107" lon="-0.712228">
        <ele>868.537188858681</ele>
        <time>2019-04-19T09:20:08.000Z</time>
      </trkpt>
      <trkpt lat="38.47713" lon="-0.71224">
        <ele>868</ele>
        <time>2019-04-19T09:20:09.000Z</time>
      </trkpt>
      <trkpt lat="38.477149" lon="-0.712257">
        <ele>868</ele>
        <time>2019-04-19T09:20:10.000Z</time>
      </trkpt>
      <trkpt lat="38.477163" lon="-0.712278">
        <ele>868</ele>
        <time>2019-04-19T09:20:11.000Z</time>
      </trkpt>
      <trkpt lat="38.477178" lon="-0.712298">
        <ele>868</ele>
        <time>2019-04-19T09:20:12.000Z</time>
      </trkpt>
      <trkpt lat="38.477194" lon="-0.71232">
        <ele>868</ele>
        <time>2019-04-19T09:20:13.000Z</time>
      </trkpt>
      <trkpt lat="38.477214" lon="-0.712337">
        <ele>868</ele>
        <time>2019-04-19T09:20:14.000Z</time>
      </trkpt>
      <trkpt lat="38.477235" lon="-0.712351">
        <ele>867.36</ele>
        <time>2019-04-19T09:20:15.000Z</time>
      </trkpt>
      <trkpt lat="38.477255" lon="-0.712369">
        <ele>867</ele>
        <time>2019-04-19T09:20:16.000Z</time>
      </trkpt>
      <trkpt lat="38.477274" lon="-0.712386">
        <ele>867</ele>
        <time>2019-04-19T09:20:17.000Z</time>
      </trkpt>
      <trkpt lat="38.47729" lon="-0.7124">
        <ele>867</ele>
        <time>2019-04-19T09:20:18.000Z</time>
      </trkpt>
      <trkpt lat="38.477309" lon="-0.712409">
        <ele>867</ele>
        <time>2019-04-19T09:20:19.000Z</time>
      </trkpt>
      <trkpt lat="38.477379" lon="-0.712403">
        <ele>866.387098106144</ele>
        <time>2019-04-19T09:20:22.000Z</time>
      </trkpt>
      <trkpt lat="38.477399" lon="-0.712401">
        <ele>866</ele>
        <time>2019-04-19T09:20:23.000Z</time>
      </trkpt>
      <trkpt lat="38.477425" lon="-0.7124">
        <ele>865.36</ele>
        <time>2019-04-19T09:20:24.000Z</time>
      </trkpt>
      <trkpt lat="38.47745" lon="-0.712398">
        <ele>865</ele>
        <time>2019-04-19T09:20:25.000Z</time>
      </trkpt>
      <trkpt lat="38.477476" lon="-0.712396">
        <ele>864.401870947676</ele>
        <time>2019-04-19T09:20:26.000Z</time>
      </trkpt>
      <trkpt lat="38.477497" lon="-0.712397">
        <ele>864</ele>
        <time>2019-04-19T09:20:27.000Z</time>
      </trkpt>
      <trkpt lat="38.47752" lon="-0.712398">
        <ele>864</ele>
        <time>2019-04-19T09:20:28.000Z</time>
      </trkpt>
      <trkpt lat="38.47754" lon="-0.712401">
        <ele>864</ele>
        <time>2019-04-19T09:20:29.000Z</time>
      </trkpt>
      <trkpt lat="38.477559" lon="-0.712404">
        <ele>864.612901893856</ele>
        <time>2019-04-19T09:20:30.000Z</time>
      </trkpt>
      <trkpt lat="38.477577" lon="-0.712412">
        <ele>865</ele>
        <time>2019-04-19T09:20:31.000Z</time>
      </trkpt>
      <trkpt lat="38.477595" lon="-0.712424">
        <ele>865</ele>
        <time>2019-04-19T09:20:32.000Z</time>
      </trkpt>
      <trkpt lat="38.477621" lon="-0.712441">
        <ele>865.598129052324</ele>
        <time>2019-04-19T09:20:34.000Z</time>
      </trkpt>
      <trkpt lat="38.477642" lon="-0.712459">
        <ele>866</ele>
        <time>2019-04-19T09:20:36.000Z</time>
      </trkpt>
      <trkpt lat="38.477642" lon="-0.712485">
        <ele>866</ele>
        <time>2019-04-19T09:21:37.000Z</time>
      </trkpt>
      <trkpt lat="38.477661" lon="-0.712511">
        <ele>866</ele>
        <time>2019-04-19T09:21:42.000Z</time>
      </trkpt>
      <trkpt lat="38.477675" lon="-0.712538">
        <ele>865.514290416369</ele>
        <time>2019-04-19T09:21:44.000Z</time>
      </trkpt>
      <trkpt lat="38.477691" lon="-0.712564">
        <ele>865</ele>
        <time>2019-04-19T09:21:46.000Z</time>
      </trkpt>
      <trkpt lat="38.477708" lon="-0.712589">
        <ele>865</ele>
        <time>2019-04-19T09:21:48.000Z</time>
      </trkpt>
      <trkpt lat="38.477728" lon="-0.712611">
        <ele>865</ele>
        <time>2019-04-19T09:21:50.000Z</time>
      </trkpt>
      <trkpt lat="38.477742" lon="-0.712629">
        <ele>865</ele>
        <time>2019-04-19T09:21:51.000Z</time>
      </trkpt>
      <trkpt lat="38.477755" lon="-0.71265">
        <ele>865</ele>
        <time>2019-04-19T09:21:52.000Z</time>
      </trkpt>
      <trkpt lat="38.477773" lon="-0.712672">
        <ele>865</ele>
        <time>2019-04-19T09:21:53.000Z</time>
      </trkpt>
      <trkpt lat="38.477792" lon="-0.712693">
        <ele>865</ele>
        <time>2019-04-19T09:21:54.000Z</time>
      </trkpt>
      <trkpt lat="38.477815" lon="-0.712715">
        <ele>865</ele>
        <time>2019-04-19T09:21:55.000Z</time>
      </trkpt>
      <trkpt lat="38.477837" lon="-0.712737">
        <ele>865</ele>
        <time>2019-04-19T09:21:56.000Z</time>
      </trkpt>
      <trkpt lat="38.477857" lon="-0.712761">
        <ele>865</ele>
        <time>2019-04-19T09:21:57.000Z</time>
      </trkpt>
      <trkpt lat="38.477875" lon="-0.712784">
        <ele>865</ele>
        <time>2019-04-19T09:21:58.000Z</time>
      </trkpt>
      <trkpt lat="38.477895" lon="-0.712805">
        <ele>865</ele>
        <time>2019-04-19T09:21:59.000Z</time>
      </trkpt>
      <trkpt lat="38.477913" lon="-0.712826">
        <ele>865.603777230353</ele>
        <time>2019-04-19T09:22:00.000Z</time>
      </trkpt>
      <trkpt lat="38.477927" lon="-0.71285">
        <ele>866</ele>
        <time>2019-04-19T09:22:01.000Z</time>
      </trkpt>
      <trkpt lat="38.477934" lon="-0.712876">
        <ele>866</ele>
        <time>2019-04-19T09:22:02.000Z</time>
      </trkpt>
      <trkpt lat="38.477933" lon="-0.712905">
        <ele>866</ele>
        <time>2019-04-19T09:22:03.000Z</time>
      </trkpt>
      <trkpt lat="38.477931" lon="-0.712938">
        <ele>866</ele>
        <time>2019-04-19T09:22:04.000Z</time>
      </trkpt>
      <trkpt lat="38.477931" lon="-0.712969">
        <ele>866</ele>
        <time>2019-04-19T09:22:05.000Z</time>
      </trkpt>
      <trkpt lat="38.477927" lon="-0.712999">
        <ele>866</ele>
        <time>2019-04-19T09:22:06.000Z</time>
      </trkpt>
      <trkpt lat="38.477921" lon="-0.713032">
        <ele>865.433626714695</ele>
        <time>2019-04-19T09:22:07.000Z</time>
      </trkpt>
      <trkpt lat="38.477915" lon="-0.713063">
        <ele>865</ele>
        <time>2019-04-19T09:22:08.000Z</time>
      </trkpt>
      <trkpt lat="38.477907" lon="-0.713094">
        <ele>865</ele>
        <time>2019-04-19T09:22:09.000Z</time>
      </trkpt>
      <trkpt lat="38.477899" lon="-0.713122">
        <ele>865</ele>
        <time>2019-04-19T09:22:10.000Z</time>
      </trkpt>
      <trkpt lat="38.477891" lon="-0.713151">
        <ele>865</ele>
        <time>2019-04-19T09:22:11.000Z</time>
      </trkpt>
      <trkpt lat="38.477881" lon="-0.713178">
        <ele>865</ele>
        <time>2019-04-19T09:22:12.000Z</time>
      </trkpt>
      <trkpt lat="38.477871" lon="-0.713208">
        <ele>865</ele>
        <time>2019-04-19T09:22:13.000Z</time>
      </trkpt>
      <trkpt lat="38.47786" lon="-0.71324">
        <ele>864.36</ele>
        <time>2019-04-19T09:22:14.000Z</time>
      </trkpt>
      <trkpt lat="38.477852" lon="-0.71327">
        <ele>864</ele>
        <time>2019-04-19T09:22:15.000Z</time>
      </trkpt>
      <trkpt lat="38.477847" lon="-0.7133">
        <ele>864</ele>
        <time>2019-04-19T09:22:16.000Z</time>
      </trkpt>
      <trkpt lat="38.477839" lon="-0.713332">
        <ele>864</ele>
        <time>2019-04-19T09:22:17.000Z</time>
      </trkpt>
      <trkpt lat="38.477832" lon="-0.713359">
        <ele>863.367344539791</ele>
        <time>2019-04-19T09:22:18.000Z</time>
      </trkpt>
      <trkpt lat="38.477821" lon="-0.713383">
        <ele>863</ele>
        <time>2019-04-19T09:22:19.000Z</time>
      </trkpt>
      <trkpt lat="38.477812" lon="-0.713413">
        <ele>863</ele>
        <time>2019-04-19T09:22:20.000Z</time>
      </trkpt>
      <trkpt lat="38.477803" lon="-0.713445">
        <ele>863</ele>
        <time>2019-04-19T09:22:21.000Z</time>
      </trkpt>
      <trkpt lat="38.477793" lon="-0.71348">
        <ele>862.514290416369</ele>
        <time>2019-04-19T09:22:22.000Z</time>
      </trkpt>
      <trkpt lat="38.477781" lon="-0.713515">
        <ele>862</ele>
        <time>2019-04-19T09:22:23.000Z</time>
      </trkpt>
      <trkpt lat="38.477771" lon="-0.713544">
        <ele>862</ele>
        <time>2019-04-19T09:22:24.000Z</time>
      </trkpt>
      <trkpt lat="38.477764" lon="-0.713572">
        <ele>861.36</ele>
        <time>2019-04-19T09:22:25.000Z</time>
      </trkpt>
      <trkpt lat="38.477752" lon="-0.713604">
        <ele>861</ele>
        <time>2019-04-19T09:22:26.000Z</time>
      </trkpt>
      <trkpt lat="38.477739" lon="-0.713638">
        <ele>861</ele>
        <time>2019-04-19T09:22:27.000Z</time>
      </trkpt>
      <trkpt lat="38.477731" lon="-0.713667">
        <ele>861</ele>
        <time>2019-04-19T09:22:28.000Z</time>
      </trkpt>
      <trkpt lat="38.477725" lon="-0.713696">
        <ele>861</ele>
        <time>2019-04-19T09:22:29.000Z</time>
      </trkpt>
      <trkpt lat="38.47772" lon="-0.713726">
        <ele>860.36</ele>
        <time>2019-04-19T09:22:30.000Z</time>
      </trkpt>
      <trkpt lat="38.477722" lon="-0.713756">
        <ele>860</ele>
        <time>2019-04-19T09:22:31.000Z</time>
      </trkpt>
      <trkpt lat="38.477727" lon="-0.71378">
        <ele>860</ele>
        <time>2019-04-19T09:22:32.000Z</time>
      </trkpt>
      <trkpt lat="38.477735" lon="-0.713802">
        <ele>860</ele>
        <time>2019-04-19T09:22:33.000Z</time>
      </trkpt>
      <trkpt lat="38.477747" lon="-0.713823">
        <ele>860</ele>
        <time>2019-04-19T09:22:34.000Z</time>
      </trkpt>
      <trkpt lat="38.477763" lon="-0.713845">
        <ele>860.64</ele>
        <time>2019-04-19T09:22:35.000Z</time>
      </trkpt>
      <trkpt lat="38.47778" lon="-0.713866">
        <ele>861</ele>
        <time>2019-04-19T09:22:36.000Z</time>
      </trkpt>
      <trkpt lat="38.477796" lon="-0.713885">
        <ele>861</ele>
        <time>2019-04-19T09:22:37.000Z</time>
      </trkpt>
      <trkpt lat="38.477816" lon="-0.713902">
        <ele>860.36</ele>
        <time>2019-04-19T09:22:38.000Z</time>
      </trkpt>
      <trkpt lat="38.477836" lon="-0.71392">
        <ele>860</ele>
        <time>2019-04-19T09:22:39.000Z</time>
      </trkpt>
      <trkpt lat="38.477856" lon="-0.713943">
        <ele>859.507689884012</ele>
        <time>2019-04-19T09:22:40.000Z</time>
      </trkpt>
      <trkpt lat="38.477875" lon="-0.713965">
        <ele>859</ele>
        <time>2019-04-19T09:22:41.000Z</time>
      </trkpt>
      <trkpt lat="38.477893" lon="-0.713986">
        <ele>859</ele>
        <time>2019-04-19T09:22:42.000Z</time>
      </trkpt>
      <trkpt lat="38.477912" lon="-0.714006">
        <ele>859</ele>
        <time>2019-04-19T09:22:43.000Z</time>
      </trkpt>
      <trkpt lat="38.477925" lon="-0.714024">
        <ele>859</ele>
        <time>2019-04-19T09:22:44.000Z</time>
      </trkpt>
      <trkpt lat="38.477939" lon="-0.714046">
        <ele>859</ele>
        <time>2019-04-19T09:22:45.000Z</time>
      </trkpt>
      <trkpt lat="38.477948" lon="-0.714085">
        <ele>858</ele>
        <time>2019-04-19T09:22:47.000Z</time>
      </trkpt>
      <trkpt lat="38.477949" lon="-0.714114">
        <ele>858</ele>
        <time>2019-04-19T09:22:49.000Z</time>
      </trkpt>
      <trkpt lat="38.477959" lon="-0.714141">
        <ele>858</ele>
        <time>2019-04-19T09:22:52.000Z</time>
      </trkpt>
      <trkpt lat="38.47798" lon="-0.714169">
        <ele>858</ele>
        <time>2019-04-19T09:22:54.000Z</time>
      </trkpt>
      <trkpt lat="38.477995" lon="-0.714186">
        <ele>858</ele>
        <time>2019-04-19T09:22:55.000Z</time>
      </trkpt>
      <trkpt lat="38.478006" lon="-0.71421">
        <ele>858</ele>
        <time>2019-04-19T09:22:56.000Z</time>
      </trkpt>
      <trkpt lat="38.478023" lon="-0.714238">
        <ele>857.395603004473</ele>
        <time>2019-04-19T09:22:57.000Z</time>
      </trkpt>
      <trkpt lat="38.478041" lon="-0.714263">
        <ele>857</ele>
        <time>2019-04-19T09:22:58.000Z</time>
      </trkpt>
      <trkpt lat="38.478056" lon="-0.714286">
        <ele>857</ele>
        <time>2019-04-19T09:22:59.000Z</time>
      </trkpt>
      <trkpt lat="38.478069" lon="-0.71431">
        <ele>856.514290416369</ele>
        <time>2019-04-19T09:23:00.000Z</time>
      </trkpt>
      <trkpt lat="38.478083" lon="-0.714337">
        <ele>856</ele>
        <time>2019-04-19T09:23:01.000Z</time>
      </trkpt>
      <trkpt lat="38.478096" lon="-0.714363">
        <ele>855.36</ele>
        <time>2019-04-19T09:23:02.000Z</time>
      </trkpt>
      <trkpt lat="38.478108" lon="-0.714392">
        <ele>855</ele>
        <time>2019-04-19T09:23:03.000Z</time>
      </trkpt>
      <trkpt lat="38.478122" lon="-0.714423">
        <ele>854.366334626011</ele>
        <time>2019-04-19T09:23:04.000Z</time>
      </trkpt>
      <trkpt lat="38.478135" lon="-0.714452">
        <ele>853.36363518825</ele>
        <time>2019-04-19T09:23:05.000Z</time>
      </trkpt>
      <trkpt lat="38.478143" lon="-0.714479">
        <ele>853</ele>
        <time>2019-04-19T09:23:06.000Z</time>
      </trkpt>
      <trkpt lat="38.478151" lon="-0.71451">
        <ele>853</ele>
        <time>2019-04-19T09:23:07.000Z</time>
      </trkpt>
      <trkpt lat="38.478165" lon="-0.714538">
        <ele>853</ele>
        <time>2019-04-19T09:23:08.000Z</time>
      </trkpt>
      <trkpt lat="38.47818" lon="-0.714566">
        <ele>852.51145157508</ele>
        <time>2019-04-19T09:23:09.000Z</time>
      </trkpt>
      <trkpt lat="38.478193" lon="-0.714591">
        <ele>852</ele>
        <time>2019-04-19T09:23:10.000Z</time>
      </trkpt>
      <trkpt lat="38.478208" lon="-0.714616">
        <ele>852</ele>
        <time>2019-04-19T09:23:11.000Z</time>
      </trkpt>
      <trkpt lat="38.478225" lon="-0.714643">
        <ele>851.36</ele>
        <time>2019-04-19T09:23:12.000Z</time>
      </trkpt>
      <trkpt lat="38.478241" lon="-0.714668">
        <ele>851</ele>
        <time>2019-04-19T09:23:13.000Z</time>
      </trkpt>
      <trkpt lat="38.478254" lon="-0.714693">
        <ele>850.407407407407</ele>
        <time>2019-04-19T09:23:14.000Z</time>
      </trkpt>
      <trkpt lat="38.478262" lon="-0.714724">
        <ele>850</ele>
        <time>2019-04-19T09:23:15.000Z</time>
      </trkpt>
      <trkpt lat="38.478273" lon="-0.714752">
        <ele>850</ele>
        <time>2019-04-19T09:23:16.000Z</time>
      </trkpt>
      <trkpt lat="38.478284" lon="-0.714784">
        <ele>850</ele>
        <time>2019-04-19T09:23:17.000Z</time>
      </trkpt>
      <trkpt lat="38.478296" lon="-0.714814">
        <ele>850</ele>
        <time>2019-04-19T09:23:18.000Z</time>
      </trkpt>
      <trkpt lat="38.478312" lon="-0.714844">
        <ele>850</ele>
        <time>2019-04-19T09:23:19.000Z</time>
      </trkpt>
      <trkpt lat="38.478328" lon="-0.714872">
        <ele>850</ele>
        <time>2019-04-19T09:23:20.000Z</time>
      </trkpt>
      <trkpt lat="38.478343" lon="-0.714898">
        <ele>850</ele>
        <time>2019-04-19T09:23:21.000Z</time>
      </trkpt>
      <trkpt lat="38.478356" lon="-0.71493">
        <ele>850</ele>
        <time>2019-04-19T09:23:22.000Z</time>
      </trkpt>
      <trkpt lat="38.478372" lon="-0.71496">
        <ele>850</ele>
        <time>2019-04-19T09:23:23.000Z</time>
      </trkpt>
      <trkpt lat="38.478391" lon="-0.714987">
        <ele>850.64</ele>
        <time>2019-04-19T09:23:24.000Z</time>
      </trkpt>
      <trkpt lat="38.478404" lon="-0.715013">
        <ele>851</ele>
        <time>2019-04-19T09:23:25.000Z</time>
      </trkpt>
      <trkpt lat="38.478418" lon="-0.715041">
        <ele>851</ele>
        <time>2019-04-19T09:23:26.000Z</time>
      </trkpt>
      <trkpt lat="38.478436" lon="-0.715069">
        <ele>851</ele>
        <time>2019-04-19T09:23:27.000Z</time>
      </trkpt>
      <trkpt lat="38.478451" lon="-0.7151">
        <ele>851</ele>
        <time>2019-04-19T09:23:28.000Z</time>
      </trkpt>
      <trkpt lat="38.478465" lon="-0.715121">
        <ele>851</ele>
        <time>2019-04-19T09:23:29.000Z</time>
      </trkpt>
      <trkpt lat="38.478471" lon="-0.715143">
        <ele>851.492960031729</ele>
        <time>2019-04-19T09:23:30.000Z</time>
      </trkpt>
      <trkpt lat="38.478479" lon="-0.715169">
        <ele>852</ele>
        <time>2019-04-19T09:23:31.000Z</time>
      </trkpt>
      <trkpt lat="38.478487" lon="-0.715202">
        <ele>851.393616296962</ele>
        <time>2019-04-19T09:23:32.000Z</time>
      </trkpt>
      <trkpt lat="38.478496" lon="-0.715231">
        <ele>851.63636481175</ele>
        <time>2019-04-19T09:23:33.000Z</time>
      </trkpt>
      <trkpt lat="38.478506" lon="-0.715254">
        <ele>852</ele>
        <time>2019-04-19T09:23:34.000Z</time>
      </trkpt>
      <trkpt lat="38.478521" lon="-0.715281">
        <ele>852</ele>
        <time>2019-04-19T09:23:35.000Z</time>
      </trkpt>
      <trkpt lat="38.478529" lon="-0.715313">
        <ele>851.438593339471</ele>
        <time>2019-04-19T09:23:36.000Z</time>
      </trkpt>
      <trkpt lat="38.478533" lon="-0.715349">
        <ele>851</ele>
        <time>2019-04-19T09:23:37.000Z</time>
      </trkpt>
      <trkpt lat="38.478531" lon="-0.71538">
        <ele>851</ele>
        <time>2019-04-19T09:23:38.000Z</time>
      </trkpt>
      <trkpt lat="38.478528" lon="-0.715407">
        <ele>851</ele>
        <time>2019-04-19T09:23:39.000Z</time>
      </trkpt>
      <trkpt lat="38.478526" lon="-0.715434">
        <ele>851</ele>
        <time>2019-04-19T09:23:40.000Z</time>
      </trkpt>
      <trkpt lat="38.478525" lon="-0.715467">
        <ele>851</ele>
        <time>2019-04-19T09:23:41.000Z</time>
      </trkpt>
      <trkpt lat="38.478527" lon="-0.715499">
        <ele>851</ele>
        <time>2019-04-19T09:23:42.000Z</time>
      </trkpt>
      <trkpt lat="38.478525" lon="-0.715532">
        <ele>851</ele>
        <time>2019-04-19T09:23:43.000Z</time>
      </trkpt>
      <trkpt lat="38.478524" lon="-0.715566">
        <ele>850.36</ele>
        <time>2019-04-19T09:23:44.000Z</time>
      </trkpt>
      <trkpt lat="38.478525" lon="-0.715601">
        <ele>850</ele>
        <time>2019-04-19T09:23:45.000Z</time>
      </trkpt>
      <trkpt lat="38.478526" lon="-0.715634">
        <ele>850.64</ele>
        <time>2019-04-19T09:23:46.000Z</time>
      </trkpt>
      <trkpt lat="38.478525" lon="-0.715664">
        <ele>851</ele>
        <time>2019-04-19T09:23:47.000Z</time>
      </trkpt>
      <trkpt lat="38.478524" lon="-0.715692">
        <ele>851</ele>
        <time>2019-04-19T09:23:48.000Z</time>
      </trkpt>
      <trkpt lat="38.478523" lon="-0.715723">
        <ele>851</ele>
        <time>2019-04-19T09:23:49.000Z</time>
      </trkpt>
      <trkpt lat="38.478523" lon="-0.715758">
        <ele>851</ele>
        <time>2019-04-19T09:23:50.000Z</time>
      </trkpt>
      <trkpt lat="38.478523" lon="-0.715792">
        <ele>850.372545082636</ele>
        <time>2019-04-19T09:23:51.000Z</time>
      </trkpt>
      <trkpt lat="38.478519" lon="-0.715825">
        <ele>850</ele>
        <time>2019-04-19T09:23:52.000Z</time>
      </trkpt>
      <trkpt lat="38.478523" lon="-0.715856">
        <ele>850</ele>
        <time>2019-04-19T09:23:53.000Z</time>
      </trkpt>
      <trkpt lat="38.478522" lon="-0.715885">
        <ele>850</ele>
        <time>2019-04-19T09:23:54.000Z</time>
      </trkpt>
      <trkpt lat="38.478516" lon="-0.715914">
        <ele>850</ele>
        <time>2019-04-19T09:23:55.000Z</time>
      </trkpt>
      <trkpt lat="38.478515" lon="-0.715945">
        <ele>850</ele>
        <time>2019-04-19T09:23:56.000Z</time>
      </trkpt>
      <trkpt lat="38.478516" lon="-0.715977">
        <ele>850</ele>
        <time>2019-04-19T09:23:57.000Z</time>
      </trkpt>
      <trkpt lat="38.478519" lon="-0.716005">
        <ele>850</ele>
        <time>2019-04-19T09:23:58.000Z</time>
      </trkpt>
      <trkpt lat="38.478522" lon="-0.716033">
        <ele>850</ele>
        <time>2019-04-19T09:23:59.000Z</time>
      </trkpt>
      <trkpt lat="38.478526" lon="-0.716065">
        <ele>850</ele>
        <time>2019-04-19T09:24:00.000Z</time>
      </trkpt>
      <trkpt lat="38.478524" lon="-0.716098">
        <ele>850</ele>
        <time>2019-04-19T09:24:01.000Z</time>
      </trkpt>
      <trkpt lat="38.478524" lon="-0.716128">
        <ele>850</ele>
        <time>2019-04-19T09:24:02.000Z</time>
      </trkpt>
      <trkpt lat="38.478522" lon="-0.716158">
        <ele>850</ele>
        <time>2019-04-19T09:24:03.000Z</time>
      </trkpt>
      <trkpt lat="38.478518" lon="-0.716182">
        <ele>850</ele>
        <time>2019-04-19T09:24:04.000Z</time>
      </trkpt>
      <trkpt lat="38.478521" lon="-0.716205">
        <ele>850</ele>
        <time>2019-04-19T09:24:05.000Z</time>
      </trkpt>
      <trkpt lat="38.478537" lon="-0.71623">
        <ele>850</ele>
        <time>2019-04-19T09:24:07.000Z</time>
      </trkpt>
      <trkpt lat="38.478537" lon="-0.716254">
        <ele>850</ele>
        <time>2019-04-19T09:24:11.000Z</time>
      </trkpt>
      <trkpt lat="38.478551" lon="-0.716278">
        <ele>849.36</ele>
        <time>2019-04-19T09:24:13.000Z</time>
      </trkpt>
      <trkpt lat="38.478581" lon="-0.716298">
        <ele>849</ele>
        <time>2019-04-19T09:24:15.000Z</time>
      </trkpt>
      <trkpt lat="38.478606" lon="-0.716306">
        <ele>848.666670849699</ele>
        <time>2019-04-19T09:24:16.000Z</time>
      </trkpt>
      <trkpt lat="38.478632" lon="-0.716309">
        <ele>847.529411764706</ele>
        <time>2019-04-19T09:24:17.000Z</time>
      </trkpt>
      <trkpt lat="38.478658" lon="-0.716302">
        <ele>846.36</ele>
        <time>2019-04-19T09:24:18.000Z</time>
      </trkpt>
      <trkpt lat="38.478684" lon="-0.716289">
        <ele>845.36</ele>
        <time>2019-04-19T09:24:19.000Z</time>
      </trkpt>
      <trkpt lat="38.478714" lon="-0.71628">
        <ele>844.36</ele>
        <time>2019-04-19T09:24:20.000Z</time>
      </trkpt>
      <trkpt lat="38.478743" lon="-0.716282">
        <ele>843.418178433038</ele>
        <time>2019-04-19T09:24:21.000Z</time>
      </trkpt>
      <trkpt lat="38.478771" lon="-0.716286">
        <ele>843</ele>
        <time>2019-04-19T09:24:22.000Z</time>
      </trkpt>
      <trkpt lat="38.478798" lon="-0.716292">
        <ele>842.36</ele>
        <time>2019-04-19T09:24:23.000Z</time>
      </trkpt>
      <trkpt lat="38.478816" lon="-0.716298">
        <ele>841.372552956531</ele>
        <time>2019-04-19T09:24:24.000Z</time>
      </trkpt>
      <trkpt lat="38.478837" lon="-0.716312">
        <ele>841</ele>
        <time>2019-04-19T09:24:26.000Z</time>
      </trkpt>
      <trkpt lat="38.478858" lon="-0.716322">
        <ele>841</ele>
        <time>2019-04-19T09:24:29.000Z</time>
      </trkpt>
      <trkpt lat="38.478881" lon="-0.716313">
        <ele>841</ele>
        <time>2019-04-19T09:24:36.000Z</time>
      </trkpt>
      <trkpt lat="38.478897" lon="-0.716282">
        <ele>840.36</ele>
        <time>2019-04-19T09:24:38.000Z</time>
      </trkpt>
      <trkpt lat="38.47891" lon="-0.716262">
        <ele>840</ele>
        <time>2019-04-19T09:24:39.000Z</time>
      </trkpt>
      <trkpt lat="38.47893" lon="-0.716228">
        <ele>839.418178433038</ele>
        <time>2019-04-19T09:24:41.000Z</time>
      </trkpt>
      <trkpt lat="38.47895" lon="-0.716206">
        <ele>838</ele>
        <time>2019-04-19T09:24:43.000Z</time>
      </trkpt>
      <trkpt lat="38.478965" lon="-0.716194">
        <ele>837.372552956531</ele>
        <time>2019-04-19T09:24:44.000Z</time>
      </trkpt>
      <trkpt lat="38.478976" lon="-0.716174">
        <ele>837</ele>
        <time>2019-04-19T09:24:45.000Z</time>
      </trkpt>
      <trkpt lat="38.478987" lon="-0.716134">
        <ele>836</ele>
        <time>2019-04-19T09:24:47.000Z</time>
      </trkpt>
      <trkpt lat="38.479004" lon="-0.716112">
        <ele>836</ele>
        <time>2019-04-19T09:24:49.000Z</time>
      </trkpt>
      <trkpt lat="38.479028" lon="-0.716102">
        <ele>836</ele>
        <time>2019-04-19T09:24:51.000Z</time>
      </trkpt>
      <trkpt lat="38.479054" lon="-0.716092">
        <ele>835</ele>
        <time>2019-04-19T09:24:53.000Z</time>
      </trkpt>
      <trkpt lat="38.479075" lon="-0.716072">
        <ele>833</ele>
        <time>2019-04-19T09:24:55.000Z</time>
      </trkpt>
      <trkpt lat="38.479093" lon="-0.716039">
        <ele>832</ele>
        <time>2019-04-19T09:24:57.000Z</time>
      </trkpt>
      <trkpt lat="38.479104" lon="-0.716019">
        <ele>832</ele>
        <time>2019-04-19T09:24:58.000Z</time>
      </trkpt>
      <trkpt lat="38.479115" lon="-0.715999">
        <ele>832</ele>
        <time>2019-04-19T09:24:59.000Z</time>
      </trkpt>
      <trkpt lat="38.479128" lon="-0.715978">
        <ele>832</ele>
        <time>2019-04-19T09:25:00.000Z</time>
      </trkpt>
      <trkpt lat="38.47915" lon="-0.715943">
        <ele>830</ele>
        <time>2019-04-19T09:25:02.000Z</time>
      </trkpt>
      <trkpt lat="38.479164" lon="-0.715912">
        <ele>829.438593339471</ele>
        <time>2019-04-19T09:25:04.000Z</time>
      </trkpt>
      <trkpt lat="38.479184" lon="-0.715883">
        <ele>828</ele>
        <time>2019-04-19T09:25:06.000Z</time>
      </trkpt>
      <trkpt lat="38.479205" lon="-0.715842">
        <ele>827</ele>
        <time>2019-04-19T09:25:08.000Z</time>
      </trkpt>
      <trkpt lat="38.47922" lon="-0.715803">
        <ele>826.36</ele>
        <time>2019-04-19T09:25:10.000Z</time>
      </trkpt>
      <trkpt lat="38.479234" lon="-0.715788">
        <ele>825.36</ele>
        <time>2019-04-19T09:25:11.000Z</time>
      </trkpt>
      <trkpt lat="38.479248" lon="-0.715767">
        <ele>824.5625</ele>
        <time>2019-04-19T09:25:13.000Z</time>
      </trkpt>
      <trkpt lat="38.479259" lon="-0.715789">
        <ele>823</ele>
        <time>2019-04-19T09:25:17.000Z</time>
      </trkpt>
      <trkpt lat="38.479276" lon="-0.715797">
        <ele>823</ele>
        <time>2019-04-19T09:25:18.000Z</time>
      </trkpt>
      <trkpt lat="38.479304" lon="-0.715787">
        <ele>823</ele>
        <time>2019-04-19T09:25:20.000Z</time>
      </trkpt>
      <trkpt lat="38.479315" lon="-0.715764">
        <ele>823</ele>
        <time>2019-04-19T09:25:21.000Z</time>
      </trkpt>
      <trkpt lat="38.479322" lon="-0.715736">
        <ele>822.401870947676</ele>
        <time>2019-04-19T09:25:22.000Z</time>
      </trkpt>
      <trkpt lat="38.47933" lon="-0.715711">
        <ele>821</ele>
        <time>2019-04-19T09:25:24.000Z</time>
      </trkpt>
      <trkpt lat="38.479342" lon="-0.715671">
        <ele>821</ele>
        <time>2019-04-19T09:25:33.000Z</time>
      </trkpt>
      <trkpt lat="38.479351" lon="-0.715645">
        <ele>820.36</ele>
        <time>2019-04-19T09:25:34.000Z</time>
      </trkpt>
      <trkpt lat="38.47936" lon="-0.715623">
        <ele>819.423425085621</ele>
        <time>2019-04-19T09:25:35.000Z</time>
      </trkpt>
      <trkpt lat="38.47937" lon="-0.715598">
        <ele>819</ele>
        <time>2019-04-19T09:25:36.000Z</time>
      </trkpt>
      <trkpt lat="38.47938" lon="-0.715572">
        <ele>818.36</ele>
        <time>2019-04-19T09:25:37.000Z</time>
      </trkpt>
      <trkpt lat="38.479392" lon="-0.715548">
        <ele>818</ele>
        <time>2019-04-19T09:25:38.000Z</time>
      </trkpt>
      <trkpt lat="38.479402" lon="-0.715525">
        <ele>817.36</ele>
        <time>2019-04-19T09:25:39.000Z</time>
      </trkpt>
      <trkpt lat="38.479411" lon="-0.715501">
        <ele>817</ele>
        <time>2019-04-19T09:25:40.000Z</time>
      </trkpt>
      <trkpt lat="38.47942" lon="-0.715475">
        <ele>816.391304347826</ele>
        <time>2019-04-19T09:25:41.000Z</time>
      </trkpt>
      <trkpt lat="38.479427" lon="-0.715449">
        <ele>815.36</ele>
        <time>2019-04-19T09:25:42.000Z</time>
      </trkpt>
      <trkpt lat="38.479437" lon="-0.715422">
        <ele>815</ele>
        <time>2019-04-19T09:25:43.000Z</time>
      </trkpt>
      <trkpt lat="38.479448" lon="-0.715394">
        <ele>815</ele>
        <time>2019-04-19T09:25:44.000Z</time>
      </trkpt>
      <trkpt lat="38.479457" lon="-0.715365">
        <ele>814.412842312932</ele>
        <time>2019-04-19T09:25:45.000Z</time>
      </trkpt>
      <trkpt lat="38.479463" lon="-0.715339">
        <ele>813.395603004473</ele>
        <time>2019-04-19T09:25:46.000Z</time>
      </trkpt>
      <trkpt lat="38.479471" lon="-0.715313">
        <ele>812.36</ele>
        <time>2019-04-19T09:25:47.000Z</time>
      </trkpt>
      <trkpt lat="38.47948" lon="-0.715288">
        <ele>812</ele>
        <time>2019-04-19T09:25:48.000Z</time>
      </trkpt>
      <trkpt lat="38.479485" lon="-0.715262">
        <ele>811.36</ele>
        <time>2019-04-19T09:25:49.000Z</time>
      </trkpt>
      <trkpt lat="38.47949" lon="-0.715237">
        <ele>810.507689884012</ele>
        <time>2019-04-19T09:25:50.000Z</time>
      </trkpt>
      <trkpt lat="38.479498" lon="-0.715212">
        <ele>809.514281012288</ele>
        <time>2019-04-19T09:25:51.000Z</time>
      </trkpt>
      <trkpt lat="38.479506" lon="-0.715185">
        <ele>809</ele>
        <time>2019-04-19T09:25:52.000Z</time>
      </trkpt>
      <trkpt lat="38.479514" lon="-0.715157">
        <ele>809</ele>
        <time>2019-04-19T09:25:53.000Z</time>
      </trkpt>
      <trkpt lat="38.479524" lon="-0.715129">
        <ele>809</ele>
        <time>2019-04-19T09:25:54.000Z</time>
      </trkpt>
      <trkpt lat="38.479534" lon="-0.715101">
        <ele>809</ele>
        <time>2019-04-19T09:25:55.000Z</time>
      </trkpt>
      <trkpt lat="38.479544" lon="-0.715072">
        <ele>808</ele>
        <time>2019-04-19T09:25:56.000Z</time>
      </trkpt>
      <trkpt lat="38.479553" lon="-0.715043">
        <ele>807.36363518825</ele>
        <time>2019-04-19T09:25:57.000Z</time>
      </trkpt>
      <trkpt lat="38.479562" lon="-0.715015">
        <ele>807</ele>
        <time>2019-04-19T09:25:58.000Z</time>
      </trkpt>
      <trkpt lat="38.47957" lon="-0.714989">
        <ele>806.36</ele>
        <time>2019-04-19T09:25:59.000Z</time>
      </trkpt>
      <trkpt lat="38.479578" lon="-0.714961">
        <ele>805.36</ele>
        <time>2019-04-19T09:26:00.000Z</time>
      </trkpt>
      <trkpt lat="38.47959" lon="-0.714932">
        <ele>804.372545082636</ele>
        <time>2019-04-19T09:26:01.000Z</time>
      </trkpt>
      <trkpt lat="38.479603" lon="-0.714903">
        <ele>804</ele>
        <time>2019-04-19T09:26:02.000Z</time>
      </trkpt>
      <trkpt lat="38.479617" lon="-0.714873">
        <ele>803.36</ele>
        <time>2019-04-19T09:26:03.000Z</time>
      </trkpt>
      <trkpt lat="38.479633" lon="-0.714846">
        <ele>802.36</ele>
        <time>2019-04-19T09:26:04.000Z</time>
      </trkpt>
      <trkpt lat="38.479651" lon="-0.714821">
        <ele>801.36</ele>
        <time>2019-04-19T09:26:05.000Z</time>
      </trkpt>
      <trkpt lat="38.479674" lon="-0.714801">
        <ele>801</ele>
        <time>2019-04-19T09:26:06.000Z</time>
      </trkpt>
      <trkpt lat="38.479694" lon="-0.714783">
        <ele>800.418601535989</ele>
        <time>2019-04-19T09:26:07.000Z</time>
      </trkpt>
      <trkpt lat="38.479716" lon="-0.714768">
        <ele>800</ele>
        <time>2019-04-19T09:26:08.000Z</time>
      </trkpt>
      <trkpt lat="38.479738" lon="-0.714755">
        <ele>800</ele>
        <time>2019-04-19T09:26:09.000Z</time>
      </trkpt>
      <trkpt lat="38.47976" lon="-0.714745">
        <ele>800</ele>
        <time>2019-04-19T09:26:10.000Z</time>
      </trkpt>
      <trkpt lat="38.479782" lon="-0.714732">
        <ele>800</ele>
        <time>2019-04-19T09:26:11.000Z</time>
      </trkpt>
      <trkpt lat="38.479806" lon="-0.714721">
        <ele>798.757892183942</ele>
        <time>2019-04-19T09:26:12.000Z</time>
      </trkpt>
      <trkpt lat="38.479829" lon="-0.714709">
        <ele>797.36</ele>
        <time>2019-04-19T09:26:13.000Z</time>
      </trkpt>
      <trkpt lat="38.479852" lon="-0.714699">
        <ele>797</ele>
        <time>2019-04-19T09:26:14.000Z</time>
      </trkpt>
      <trkpt lat="38.479877" lon="-0.71469">
        <ele>797</ele>
        <time>2019-04-19T09:26:15.000Z</time>
      </trkpt>
      <trkpt lat="38.479902" lon="-0.714682">
        <ele>796.36</ele>
        <time>2019-04-19T09:26:16.000Z</time>
      </trkpt>
      <trkpt lat="38.479929" lon="-0.714675">
        <ele>795.36</ele>
        <time>2019-04-19T09:26:17.000Z</time>
      </trkpt>
      <trkpt lat="38.479955" lon="-0.714668">
        <ele>795</ele>
        <time>2019-04-19T09:26:18.000Z</time>
      </trkpt>
      <trkpt lat="38.47998" lon="-0.71466">
        <ele>795</ele>
        <time>2019-04-19T09:26:19.000Z</time>
      </trkpt>
      <trkpt lat="38.480007" lon="-0.714649">
        <ele>794.36363518825</ele>
        <time>2019-04-19T09:26:20.000Z</time>
      </trkpt>
      <trkpt lat="38.480033" lon="-0.714638">
        <ele>793.36</ele>
        <time>2019-04-19T09:26:21.000Z</time>
      </trkpt>
      <trkpt lat="38.480058" lon="-0.714626">
        <ele>792.390474332874</ele>
        <time>2019-04-19T09:26:22.000Z</time>
      </trkpt>
      <trkpt lat="38.480081" lon="-0.71461">
        <ele>791.378946091971</ele>
        <time>2019-04-19T09:26:23.000Z</time>
      </trkpt>
      <trkpt lat="38.480104" lon="-0.714591">
        <ele>791</ele>
        <time>2019-04-19T09:26:24.000Z</time>
      </trkpt>
      <trkpt lat="38.480126" lon="-0.714569">
        <ele>791</ele>
        <time>2019-04-19T09:26:25.000Z</time>
      </trkpt>
      <trkpt lat="38.480148" lon="-0.714544">
        <ele>791</ele>
        <time>2019-04-19T09:26:26.000Z</time>
      </trkpt>
      <trkpt lat="38.480168" lon="-0.714517">
        <ele>790.366334626011</ele>
        <time>2019-04-19T09:26:27.000Z</time>
      </trkpt>
      <trkpt lat="38.480187" lon="-0.714488">
        <ele>789.50781</ele>
        <time>2019-04-19T09:26:28.000Z</time>
      </trkpt>
      <trkpt lat="38.480201" lon="-0.71446">
        <ele>788.507039968271</ele>
        <time>2019-04-19T09:26:29.000Z</time>
      </trkpt>
      <trkpt lat="38.480211" lon="-0.714429">
        <ele>788</ele>
        <time>2019-04-19T09:26:30.000Z</time>
      </trkpt>
      <trkpt lat="38.480219" lon="-0.714397">
        <ele>787.395603004473</ele>
        <time>2019-04-19T09:26:31.000Z</time>
      </trkpt>
      <trkpt lat="38.480228" lon="-0.714366">
        <ele>786.366334626011</ele>
        <time>2019-04-19T09:26:32.000Z</time>
      </trkpt>
      <trkpt lat="38.480235" lon="-0.714335">
        <ele>786</ele>
        <time>2019-04-19T09:26:33.000Z</time>
      </trkpt>
      <trkpt lat="38.480244" lon="-0.714304">
        <ele>786</ele>
        <time>2019-04-19T09:26:34.000Z</time>
      </trkpt>
      <trkpt lat="38.480254" lon="-0.714274">
        <ele>785.36</ele>
        <time>2019-04-19T09:26:35.000Z</time>
      </trkpt>
      <trkpt lat="38.480266" lon="-0.714242">
        <ele>784.36</ele>
        <time>2019-04-19T09:26:36.000Z</time>
      </trkpt>
      <trkpt lat="38.480277" lon="-0.714212">
        <ele>784</ele>
        <time>2019-04-19T09:26:37.000Z</time>
      </trkpt>
      <trkpt lat="38.480289" lon="-0.714185">
        <ele>783.407407407407</ele>
        <time>2019-04-19T09:26:38.000Z</time>
      </trkpt>
      <trkpt lat="38.480302" lon="-0.714161">
        <ele>783</ele>
        <time>2019-04-19T09:26:39.000Z</time>
      </trkpt>
      <trkpt lat="38.480317" lon="-0.714136">
        <ele>783</ele>
        <time>2019-04-19T09:26:40.000Z</time>
      </trkpt>
      <trkpt lat="38.480331" lon="-0.714108">
        <ele>782.366334626011</ele>
        <time>2019-04-19T09:26:41.000Z</time>
      </trkpt>
      <trkpt lat="38.480342" lon="-0.714078">
        <ele>782</ele>
        <time>2019-04-19T09:26:42.000Z</time>
      </trkpt>
      <trkpt lat="38.480353" lon="-0.714048">
        <ele>782</ele>
        <time>2019-04-19T09:26:43.000Z</time>
      </trkpt>
      <trkpt lat="38.480365" lon="-0.714019">
        <ele>781.36</ele>
        <time>2019-04-19T09:26:44.000Z</time>
      </trkpt>
      <trkpt lat="38.480374" lon="-0.713988">
        <ele>781</ele>
        <time>2019-04-19T09:26:45.000Z</time>
      </trkpt>
      <trkpt lat="38.480383" lon="-0.713954">
        <ele>781</ele>
        <time>2019-04-19T09:26:46.000Z</time>
      </trkpt>
      <trkpt lat="38.480391" lon="-0.713923">
        <ele>780.511629060745</ele>
        <time>2019-04-19T09:26:47.000Z</time>
      </trkpt>
      <trkpt lat="38.480399" lon="-0.713891">
        <ele>780</ele>
        <time>2019-04-19T09:26:48.000Z</time>
      </trkpt>
      <trkpt lat="38.480406" lon="-0.713861">
        <ele>780</ele>
        <time>2019-04-19T09:26:49.000Z</time>
      </trkpt>
      <trkpt lat="38.480411" lon="-0.713833">
        <ele>780</ele>
        <time>2019-04-19T09:26:50.000Z</time>
      </trkpt>
      <trkpt lat="38.480418" lon="-0.713804">
        <ele>779.36</ele>
        <time>2019-04-19T09:26:51.000Z</time>
      </trkpt>
      <trkpt lat="38.480427" lon="-0.713778">
        <ele>779</ele>
        <time>2019-04-19T09:26:52.000Z</time>
      </trkpt>
      <trkpt lat="38.480441" lon="-0.713754">
        <ele>778.521741550106</ele>
        <time>2019-04-19T09:26:53.000Z</time>
      </trkpt>
      <trkpt lat="38.480459" lon="-0.713732">
        <ele>778</ele>
        <time>2019-04-19T09:26:54.000Z</time>
      </trkpt>
      <trkpt lat="38.480478" lon="-0.713716">
        <ele>777.36</ele>
        <time>2019-04-19T09:26:55.000Z</time>
      </trkpt>
      <trkpt lat="38.480501" lon="-0.713703">
        <ele>776.36</ele>
        <time>2019-04-19T09:26:56.000Z</time>
      </trkpt>
      <trkpt lat="38.480527" lon="-0.713691">
        <ele>775.36</ele>
        <time>2019-04-19T09:26:57.000Z</time>
      </trkpt>
      <trkpt lat="38.480552" lon="-0.71368">
        <ele>775</ele>
        <time>2019-04-19T09:26:58.000Z</time>
      </trkpt>
      <trkpt lat="38.480579" lon="-0.713667">
        <ele>775</ele>
        <time>2019-04-19T09:26:59.000Z</time>
      </trkpt>
      <trkpt lat="38.480604" lon="-0.713653">
        <ele>775</ele>
        <time>2019-04-19T09:27:00.000Z</time>
      </trkpt>
      <trkpt lat="38.480625" lon="-0.71364">
        <ele>773.72</ele>
        <time>2019-04-19T09:27:01.000Z</time>
      </trkpt>
      <trkpt lat="38.480646" lon="-0.713625">
        <ele>773</ele>
        <time>2019-04-19T09:27:02.000Z</time>
      </trkpt>
      <trkpt lat="38.480668" lon="-0.713609">
        <ele>772.36</ele>
        <time>2019-04-19T09:27:03.000Z</time>
      </trkpt>
      <trkpt lat="38.480688" lon="-0.71359">
        <ele>772</ele>
        <time>2019-04-19T09:27:04.000Z</time>
      </trkpt>
      <trkpt lat="38.480708" lon="-0.713571">
        <ele>771.366334626011</ele>
        <time>2019-04-19T09:27:05.000Z</time>
      </trkpt>
      <trkpt lat="38.480725" lon="-0.713552">
        <ele>770.511624214882</ele>
        <time>2019-04-19T09:27:06.000Z</time>
      </trkpt>
      <trkpt lat="38.480743" lon="-0.713531">
        <ele>769.514281012288</ele>
        <time>2019-04-19T09:27:07.000Z</time>
      </trkpt>
      <trkpt lat="38.480761" lon="-0.713509">
        <ele>769</ele>
        <time>2019-04-19T09:27:08.000Z</time>
      </trkpt>
      <trkpt lat="38.48078" lon="-0.713485">
        <ele>768.36</ele>
        <time>2019-04-19T09:27:09.000Z</time>
      </trkpt>
      <trkpt lat="38.480798" lon="-0.713463">
        <ele>768</ele>
        <time>2019-04-19T09:27:10.000Z</time>
      </trkpt>
      <trkpt lat="38.480819" lon="-0.713443">
        <ele>767.36</ele>
        <time>2019-04-19T09:27:11.000Z</time>
      </trkpt>
      <trkpt lat="38.480839" lon="-0.713425">
        <ele>767</ele>
        <time>2019-04-19T09:27:12.000Z</time>
      </trkpt>
      <trkpt lat="38.480859" lon="-0.713407">
        <ele>767</ele>
        <time>2019-04-19T09:27:13.000Z</time>
      </trkpt>
      <trkpt lat="38.480876" lon="-0.71339">
        <ele>766.36</ele>
        <time>2019-04-19T09:27:14.000Z</time>
      </trkpt>
      <trkpt lat="38.480892" lon="-0.713374">
        <ele>765.36</ele>
        <time>2019-04-19T09:27:15.000Z</time>
      </trkpt>
      <trkpt lat="38.48091" lon="-0.713358">
        <ele>765</ele>
        <time>2019-04-19T09:27:16.000Z</time>
      </trkpt>
      <trkpt lat="38.48093" lon="-0.713341">
        <ele>764.371135244982</ele>
        <time>2019-04-19T09:27:17.000Z</time>
      </trkpt>
      <trkpt lat="38.480953" lon="-0.713322">
        <ele>764</ele>
        <time>2019-04-19T09:27:18.000Z</time>
      </trkpt>
      <trkpt lat="38.480976" lon="-0.713308">
        <ele>763.36</ele>
        <time>2019-04-19T09:27:19.000Z</time>
      </trkpt>
      <trkpt lat="38.481" lon="-0.713295">
        <ele>763</ele>
        <time>2019-04-19T09:27:20.000Z</time>
      </trkpt>
      <trkpt lat="38.481024" lon="-0.713281">
        <ele>762.378642707129</ele>
        <time>2019-04-19T09:27:21.000Z</time>
      </trkpt>
      <trkpt lat="38.481048" lon="-0.713272">
        <ele>761.371135244982</ele>
        <time>2019-04-19T09:27:22.000Z</time>
      </trkpt>
      <trkpt lat="38.481072" lon="-0.713264">
        <ele>760.36</ele>
        <time>2019-04-19T09:27:23.000Z</time>
      </trkpt>
      <trkpt lat="38.481099" lon="-0.71326">
        <ele>760</ele>
        <time>2019-04-19T09:27:24.000Z</time>
      </trkpt>
      <trkpt lat="38.481123" lon="-0.71326">
        <ele>759.503874738294</ele>
        <time>2019-04-19T09:27:25.000Z</time>
      </trkpt>
      <trkpt lat="38.48115" lon="-0.71326">
        <ele>759</ele>
        <time>2019-04-19T09:27:26.000Z</time>
      </trkpt>
      <trkpt lat="38.481175" lon="-0.713259">
        <ele>759</ele>
        <time>2019-04-19T09:27:27.000Z</time>
      </trkpt>
      <trkpt lat="38.481197" lon="-0.713257">
        <ele>758.36</ele>
        <time>2019-04-19T09:27:28.000Z</time>
      </trkpt>
      <trkpt lat="38.481218" lon="-0.713252">
        <ele>758</ele>
        <time>2019-04-19T09:27:29.000Z</time>
      </trkpt>
      <trkpt lat="38.48124" lon="-0.713241">
        <ele>758</ele>
        <time>2019-04-19T09:27:30.000Z</time>
      </trkpt>
      <trkpt lat="38.481263" lon="-0.713227">
        <ele>758</ele>
        <time>2019-04-19T09:27:31.000Z</time>
      </trkpt>
      <trkpt lat="38.481284" lon="-0.71321">
        <ele>758</ele>
        <time>2019-04-19T09:27:32.000Z</time>
      </trkpt>
      <trkpt lat="38.481306" lon="-0.713192">
        <ele>758</ele>
        <time>2019-04-19T09:27:33.000Z</time>
      </trkpt>
      <trkpt lat="38.481327" lon="-0.713174">
        <ele>758</ele>
        <time>2019-04-19T09:27:34.000Z</time>
      </trkpt>
      <trkpt lat="38.481349" lon="-0.71316">
        <ele>757.378642707129</ele>
        <time>2019-04-19T09:27:35.000Z</time>
      </trkpt>
      <trkpt lat="38.481372" lon="-0.713147">
        <ele>756.371135244982</ele>
        <time>2019-04-19T09:27:36.000Z</time>
      </trkpt>
      <trkpt lat="38.481396" lon="-0.713138">
        <ele>755.36</ele>
        <time>2019-04-19T09:27:37.000Z</time>
      </trkpt>
      <trkpt lat="38.481419" lon="-0.713128">
        <ele>755</ele>
        <time>2019-04-19T09:27:38.000Z</time>
      </trkpt>
      <trkpt lat="38.481442" lon="-0.713119">
        <ele>754.36</ele>
        <time>2019-04-19T09:27:39.000Z</time>
      </trkpt>
      <trkpt lat="38.481467" lon="-0.713112">
        <ele>754</ele>
        <time>2019-04-19T09:27:40.000Z</time>
      </trkpt>
      <trkpt lat="38.481492" lon="-0.713105">
        <ele>754</ele>
        <time>2019-04-19T09:27:41.000Z</time>
      </trkpt>
      <trkpt lat="38.48152" lon="-0.7131">
        <ele>753.36</ele>
        <time>2019-04-19T09:27:42.000Z</time>
      </trkpt>
      <trkpt lat="38.48155" lon="-0.713097">
        <ele>753</ele>
        <time>2019-04-19T09:27:43.000Z</time>
      </trkpt>
      <trkpt lat="38.481577" lon="-0.713098">
        <ele>752.532787057244</ele>
        <time>2019-04-19T09:27:44.000Z</time>
      </trkpt>
      <trkpt lat="38.481604" lon="-0.7131">
        <ele>751.507039968271</ele>
        <time>2019-04-19T09:27:45.000Z</time>
      </trkpt>
      <trkpt lat="38.48163" lon="-0.713101">
        <ele>751</ele>
        <time>2019-04-19T09:27:46.000Z</time>
      </trkpt>
      <trkpt lat="38.481656" lon="-0.713102">
        <ele>750.382976115907</ele>
        <time>2019-04-19T09:27:47.000Z</time>
      </trkpt>
      <trkpt lat="38.481682" lon="-0.713102">
        <ele>750</ele>
        <time>2019-04-19T09:27:48.000Z</time>
      </trkpt>
      <trkpt lat="38.481708" lon="-0.713099">
        <ele>750</ele>
        <time>2019-04-19T09:27:49.000Z</time>
      </trkpt>
      <trkpt lat="38.481733" lon="-0.713095">
        <ele>750</ele>
        <time>2019-04-19T09:27:50.000Z</time>
      </trkpt>
      <trkpt lat="38.48176" lon="-0.713092">
        <ele>749.390474332874</ele>
        <time>2019-04-19T09:27:51.000Z</time>
      </trkpt>
      <trkpt lat="38.481787" lon="-0.713087">
        <ele>749</ele>
        <time>2019-04-19T09:27:52.000Z</time>
      </trkpt>
      <trkpt lat="38.481812" lon="-0.713079">
        <ele>749</ele>
        <time>2019-04-19T09:27:53.000Z</time>
      </trkpt>
      <trkpt lat="38.481837" lon="-0.713069">
        <ele>749</ele>
        <time>2019-04-19T09:27:54.000Z</time>
      </trkpt>
      <trkpt lat="38.481864" lon="-0.71306">
        <ele>748.36</ele>
        <time>2019-04-19T09:27:55.000Z</time>
      </trkpt>
      <trkpt lat="38.48189" lon="-0.71305">
        <ele>747.36</ele>
        <time>2019-04-19T09:27:56.000Z</time>
      </trkpt>
      <trkpt lat="38.481918" lon="-0.713039">
        <ele>747</ele>
        <time>2019-04-19T09:27:57.000Z</time>
      </trkpt>
      <trkpt lat="38.481945" lon="-0.713027">
        <ele>747</ele>
        <time>2019-04-19T09:27:58.000Z</time>
      </trkpt>
      <trkpt lat="38.48197" lon="-0.713015">
        <ele>746.36</ele>
        <time>2019-04-19T09:27:59.000Z</time>
      </trkpt>
      <trkpt lat="38.481992" lon="-0.713006">
        <ele>746</ele>
        <time>2019-04-19T09:28:00.000Z</time>
      </trkpt>
      <trkpt lat="38.482016" lon="-0.712997">
        <ele>746</ele>
        <time>2019-04-19T09:28:01.000Z</time>
      </trkpt>
      <trkpt lat="38.482043" lon="-0.712987">
        <ele>746</ele>
        <time>2019-04-19T09:28:02.000Z</time>
      </trkpt>
      <trkpt lat="38.482069" lon="-0.71298">
        <ele>745.519998771197</ele>
        <time>2019-04-19T09:28:03.000Z</time>
      </trkpt>
      <trkpt lat="38.482094" lon="-0.712973">
        <ele>745</ele>
        <time>2019-04-19T09:28:04.000Z</time>
      </trkpt>
      <trkpt lat="38.482121" lon="-0.712965">
        <ele>745</ele>
        <time>2019-04-19T09:28:05.000Z</time>
      </trkpt>
      <trkpt lat="38.482147" lon="-0.712956">
        <ele>744.36363518825</ele>
        <time>2019-04-19T09:28:06.000Z</time>
      </trkpt>
      <trkpt lat="38.482175" lon="-0.712946">
        <ele>743.36</ele>
        <time>2019-04-19T09:28:07.000Z</time>
      </trkpt>
      <trkpt lat="38.4822" lon="-0.712938">
        <ele>742.36</ele>
        <time>2019-04-19T09:28:08.000Z</time>
      </trkpt>
      <trkpt lat="38.482225" lon="-0.712927">
        <ele>742</ele>
        <time>2019-04-19T09:28:09.000Z</time>
      </trkpt>
      <trkpt lat="38.482247" lon="-0.712916">
        <ele>741.401870947676</ele>
        <time>2019-04-19T09:28:10.000Z</time>
      </trkpt>
      <trkpt lat="38.48227" lon="-0.712906">
        <ele>741</ele>
        <time>2019-04-19T09:28:11.000Z</time>
      </trkpt>
      <trkpt lat="38.482294" lon="-0.712898">
        <ele>741</ele>
        <time>2019-04-19T09:28:12.000Z</time>
      </trkpt>
      <trkpt lat="38.48232" lon="-0.712886">
        <ele>741</ele>
        <time>2019-04-19T09:28:13.000Z</time>
      </trkpt>
      <trkpt lat="38.482345" lon="-0.712872">
        <ele>740.36</ele>
        <time>2019-04-19T09:28:14.000Z</time>
      </trkpt>
      <trkpt lat="38.482372" lon="-0.712855">
        <ele>740</ele>
        <time>2019-04-19T09:28:15.000Z</time>
      </trkpt>
      <trkpt lat="38.482397" lon="-0.712837">
        <ele>740</ele>
        <time>2019-04-19T09:28:16.000Z</time>
      </trkpt>
      <trkpt lat="38.482423" lon="-0.712816">
        <ele>739.36</ele>
        <time>2019-04-19T09:28:17.000Z</time>
      </trkpt>
      <trkpt lat="38.482445" lon="-0.712799">
        <ele>738.36</ele>
        <time>2019-04-19T09:28:18.000Z</time>
      </trkpt>
      <trkpt lat="38.482469" lon="-0.712782">
        <ele>737.36</ele>
        <time>2019-04-19T09:28:19.000Z</time>
      </trkpt>
      <trkpt lat="38.482491" lon="-0.712765">
        <ele>736.36</ele>
        <time>2019-04-19T09:28:20.000Z</time>
      </trkpt>
      <trkpt lat="38.482514" lon="-0.712748">
        <ele>735.36</ele>
        <time>2019-04-19T09:28:21.000Z</time>
      </trkpt>
      <trkpt lat="38.482538" lon="-0.71273">
        <ele>734.503874738294</ele>
        <time>2019-04-19T09:28:22.000Z</time>
      </trkpt>
      <trkpt lat="38.482562" lon="-0.712709">
        <ele>733.507039968271</ele>
        <time>2019-04-19T09:28:23.000Z</time>
      </trkpt>
      <trkpt lat="38.482586" lon="-0.712689">
        <ele>733</ele>
        <time>2019-04-19T09:28:24.000Z</time>
      </trkpt>
      <trkpt lat="38.482611" lon="-0.712669">
        <ele>732.36</ele>
        <time>2019-04-19T09:28:25.000Z</time>
      </trkpt>
      <trkpt lat="38.482636" lon="-0.71265">
        <ele>731.36</ele>
        <time>2019-04-19T09:28:26.000Z</time>
      </trkpt>
      <trkpt lat="38.482663" lon="-0.712631">
        <ele>731</ele>
        <time>2019-04-19T09:28:27.000Z</time>
      </trkpt>
      <trkpt lat="38.482689" lon="-0.712614">
        <ele>731</ele>
        <time>2019-04-19T09:28:28.000Z</time>
      </trkpt>
      <trkpt lat="38.482715" lon="-0.712595">
        <ele>731</ele>
        <time>2019-04-19T09:28:29.000Z</time>
      </trkpt>
      <trkpt lat="38.482738" lon="-0.712578">
        <ele>730.36</ele>
        <time>2019-04-19T09:28:30.000Z</time>
      </trkpt>
      <trkpt lat="38.482762" lon="-0.712559">
        <ele>729.36</ele>
        <time>2019-04-19T09:28:31.000Z</time>
      </trkpt>
      <trkpt lat="38.48278" lon="-0.71254">
        <ele>728.366334626011</ele>
        <time>2019-04-19T09:28:32.000Z</time>
      </trkpt>
      <trkpt lat="38.482802" lon="-0.71252">
        <ele>728</ele>
        <time>2019-04-19T09:28:33.000Z</time>
      </trkpt>
      <trkpt lat="38.482824" lon="-0.712501">
        <ele>728</ele>
        <time>2019-04-19T09:28:34.000Z</time>
      </trkpt>
      <trkpt lat="38.482849" lon="-0.712481">
        <ele>727.36</ele>
        <time>2019-04-19T09:28:35.000Z</time>
      </trkpt>
      <trkpt lat="38.482873" lon="-0.712461">
        <ele>726.36</ele>
        <time>2019-04-19T09:28:36.000Z</time>
      </trkpt>
      <trkpt lat="38.482897" lon="-0.712439">
        <ele>725.36</ele>
        <time>2019-04-19T09:28:37.000Z</time>
      </trkpt>
      <trkpt lat="38.482921" lon="-0.712416">
        <ele>724.412842312932</ele>
        <time>2019-04-19T09:28:38.000Z</time>
      </trkpt>
      <trkpt lat="38.482947" lon="-0.71239">
        <ele>724</ele>
        <time>2019-04-19T09:28:39.000Z</time>
      </trkpt>
      <trkpt lat="38.482971" lon="-0.712365">
        <ele>724</ele>
        <time>2019-04-19T09:28:40.000Z</time>
      </trkpt>
      <trkpt lat="38.482997" lon="-0.712341">
        <ele>723.503874738294</ele>
        <time>2019-04-19T09:28:41.000Z</time>
      </trkpt>
      <trkpt lat="38.483025" lon="-0.71232">
        <ele>722.507039968271</ele>
        <time>2019-04-19T09:28:42.000Z</time>
      </trkpt>
      <trkpt lat="38.483052" lon="-0.712297">
        <ele>722</ele>
        <time>2019-04-19T09:28:43.000Z</time>
      </trkpt>
      <trkpt lat="38.483078" lon="-0.712273">
        <ele>722</ele>
        <time>2019-04-19T09:28:44.000Z</time>
      </trkpt>
      <trkpt lat="38.483101" lon="-0.712251">
        <ele>721.36</ele>
        <time>2019-04-19T09:28:45.000Z</time>
      </trkpt>
      <trkpt lat="38.48312" lon="-0.71223">
        <ele>721</ele>
        <time>2019-04-19T09:28:46.000Z</time>
      </trkpt>
      <trkpt lat="38.483141" lon="-0.712206">
        <ele>720.521741550106</ele>
        <time>2019-04-19T09:28:47.000Z</time>
      </trkpt>
      <trkpt lat="38.483158" lon="-0.712179">
        <ele>718.72</ele>
        <time>2019-04-19T09:28:48.000Z</time>
      </trkpt>
      <trkpt lat="38.483178" lon="-0.71215">
        <ele>717.36</ele>
        <time>2019-04-19T09:28:49.000Z</time>
      </trkpt>
      <trkpt lat="38.483197" lon="-0.712122">
        <ele>717</ele>
        <time>2019-04-19T09:28:50.000Z</time>
      </trkpt>
      <trkpt lat="38.483218" lon="-0.712097">
        <ele>716.36</ele>
        <time>2019-04-19T09:28:51.000Z</time>
      </trkpt>
      <trkpt lat="38.48324" lon="-0.712072">
        <ele>716.64</ele>
        <time>2019-04-19T09:28:52.000Z</time>
      </trkpt>
      <trkpt lat="38.483263" lon="-0.712049">
        <ele>717</ele>
        <time>2019-04-19T09:28:53.000Z</time>
      </trkpt>
      <trkpt lat="38.483279" lon="-0.712028">
        <ele>715.757892183942</ele>
        <time>2019-04-19T09:28:54.000Z</time>
      </trkpt>
      <trkpt lat="38.483298" lon="-0.712011">
        <ele>714.390474332874</ele>
        <time>2019-04-19T09:28:55.000Z</time>
      </trkpt>
      <trkpt lat="38.48332" lon="-0.71199">
        <ele>714</ele>
        <time>2019-04-19T09:28:56.000Z</time>
      </trkpt>
      <trkpt lat="38.483344" lon="-0.711966">
        <ele>714</ele>
        <time>2019-04-19T09:28:57.000Z</time>
      </trkpt>
      <trkpt lat="38.483365" lon="-0.71194">
        <ele>714</ele>
        <time>2019-04-19T09:28:58.000Z</time>
      </trkpt>
      <trkpt lat="38.483387" lon="-0.711916">
        <ele>713.36</ele>
        <time>2019-04-19T09:28:59.000Z</time>
      </trkpt>
      <trkpt lat="38.483409" lon="-0.711888">
        <ele>713</ele>
        <time>2019-04-19T09:29:00.000Z</time>
      </trkpt>
      <trkpt lat="38.483432" lon="-0.711863">
        <ele>712.545459834762</ele>
        <time>2019-04-19T09:29:01.000Z</time>
      </trkpt>
      <trkpt lat="38.483456" lon="-0.711844">
        <ele>712</ele>
        <time>2019-04-19T09:29:02.000Z</time>
      </trkpt>
      <trkpt lat="38.48348" lon="-0.711828">
        <ele>712</ele>
        <time>2019-04-19T09:29:03.000Z</time>
      </trkpt>
      <trkpt lat="38.483508" lon="-0.711814">
        <ele>711.507039968271</ele>
        <time>2019-04-19T09:29:04.000Z</time>
      </trkpt>
      <trkpt lat="38.483534" lon="-0.711801">
        <ele>710.372545082636</ele>
        <time>2019-04-19T09:29:05.000Z</time>
      </trkpt>
      <trkpt lat="38.483562" lon="-0.711786">
        <ele>710</ele>
        <time>2019-04-19T09:29:06.000Z</time>
      </trkpt>
      <trkpt lat="38.483586" lon="-0.711776">
        <ele>710</ele>
        <time>2019-04-19T09:29:07.000Z</time>
      </trkpt>
      <trkpt lat="38.483614" lon="-0.711767">
        <ele>710</ele>
        <time>2019-04-19T09:29:08.000Z</time>
      </trkpt>
      <trkpt lat="38.48364" lon="-0.711758">
        <ele>710</ele>
        <time>2019-04-19T09:29:09.000Z</time>
      </trkpt>
      <trkpt lat="38.483668" lon="-0.711751">
        <ele>710</ele>
        <time>2019-04-19T09:29:10.000Z</time>
      </trkpt>
      <trkpt lat="38.483694" lon="-0.711744">
        <ele>709.371135244982</ele>
        <time>2019-04-19T09:29:11.000Z</time>
      </trkpt>
      <trkpt lat="38.483722" lon="-0.711737">
        <ele>708.36</ele>
        <time>2019-04-19T09:29:12.000Z</time>
      </trkpt>
      <trkpt lat="38.48375" lon="-0.711729">
        <ele>708</ele>
        <time>2019-04-19T09:29:13.000Z</time>
      </trkpt>
      <trkpt lat="38.483776" lon="-0.711721">
        <ele>707.382981330937</ele>
        <time>2019-04-19T09:29:14.000Z</time>
      </trkpt>
      <trkpt lat="38.483804" lon="-0.711712">
        <ele>706.36</ele>
        <time>2019-04-19T09:29:15.000Z</time>
      </trkpt>
      <trkpt lat="38.48383" lon="-0.711702">
        <ele>706</ele>
        <time>2019-04-19T09:29:16.000Z</time>
      </trkpt>
      <trkpt lat="38.483852" lon="-0.711693">
        <ele>706</ele>
        <time>2019-04-19T09:29:17.000Z</time>
      </trkpt>
      <trkpt lat="38.483874" lon="-0.71168">
        <ele>707.207554460706</ele>
        <time>2019-04-19T09:29:18.000Z</time>
      </trkpt>
      <trkpt lat="38.483892" lon="-0.711671">
        <ele>708</ele>
        <time>2019-04-19T09:29:19.000Z</time>
      </trkpt>
      <trkpt lat="38.483916" lon="-0.711665">
        <ele>707.014079936541</ele>
        <time>2019-04-19T09:29:20.000Z</time>
      </trkpt>
      <trkpt lat="38.48394" lon="-0.711661">
        <ele>706</ele>
        <time>2019-04-19T09:29:21.000Z</time>
      </trkpt>
      <trkpt lat="38.483966" lon="-0.711659">
        <ele>705.53600393217</ele>
        <time>2019-04-19T09:29:22.000Z</time>
      </trkpt>
      <trkpt lat="38.483988" lon="-0.711652">
        <ele>704.521741550106</ele>
        <time>2019-04-19T09:29:23.000Z</time>
      </trkpt>
      <trkpt lat="38.484008" lon="-0.711637">
        <ele>704</ele>
        <time>2019-04-19T09:29:24.000Z</time>
      </trkpt>
      <trkpt lat="38.484026" lon="-0.711622">
        <ele>704</ele>
        <time>2019-04-19T09:29:25.000Z</time>
      </trkpt>
      <trkpt lat="38.484046" lon="-0.711608">
        <ele>704</ele>
        <time>2019-04-19T09:29:26.000Z</time>
      </trkpt>
      <trkpt lat="38.484066" lon="-0.711589">
        <ele>704</ele>
        <time>2019-04-19T09:29:27.000Z</time>
      </trkpt>
      <trkpt lat="38.484086" lon="-0.711569">
        <ele>703.36</ele>
        <time>2019-04-19T09:29:28.000Z</time>
      </trkpt>
      <trkpt lat="38.484106" lon="-0.711547">
        <ele>703</ele>
        <time>2019-04-19T09:29:29.000Z</time>
      </trkpt>
      <trkpt lat="38.484126" lon="-0.711522">
        <ele>703.627447043469</ele>
        <time>2019-04-19T09:29:30.000Z</time>
      </trkpt>
      <trkpt lat="38.484146" lon="-0.711499">
        <ele>704</ele>
        <time>2019-04-19T09:29:31.000Z</time>
      </trkpt>
      <trkpt lat="38.484166" lon="-0.711478">
        <ele>704</ele>
        <time>2019-04-19T09:29:32.000Z</time>
      </trkpt>
      <trkpt lat="38.484186" lon="-0.711457">
        <ele>704</ele>
        <time>2019-04-19T09:29:33.000Z</time>
      </trkpt>
      <trkpt lat="38.484204" lon="-0.711432">
        <ele>703.36</ele>
        <time>2019-04-19T09:29:34.000Z</time>
      </trkpt>
      <trkpt lat="38.484221" lon="-0.711405">
        <ele>703</ele>
        <time>2019-04-19T09:29:35.000Z</time>
      </trkpt>
      <trkpt lat="38.484238" lon="-0.71138">
        <ele>703</ele>
        <time>2019-04-19T09:29:36.000Z</time>
      </trkpt>
      <trkpt lat="38.484254" lon="-0.711355">
        <ele>703</ele>
        <time>2019-04-19T09:29:37.000Z</time>
      </trkpt>
      <trkpt lat="38.484272" lon="-0.71133">
        <ele>702.546214329508</ele>
        <time>2019-04-19T09:29:38.000Z</time>
      </trkpt>
      <trkpt lat="38.484292" lon="-0.711305">
        <ele>702</ele>
        <time>2019-04-19T09:29:39.000Z</time>
      </trkpt>
      <trkpt lat="38.48431" lon="-0.711279">
        <ele>702</ele>
        <time>2019-04-19T09:29:40.000Z</time>
      </trkpt>
      <trkpt lat="38.48433" lon="-0.711254">
        <ele>702</ele>
        <time>2019-04-19T09:29:41.000Z</time>
      </trkpt>
      <trkpt lat="38.484348" lon="-0.711229">
        <ele>702</ele>
        <time>2019-04-19T09:29:42.000Z</time>
      </trkpt>
      <trkpt lat="38.484366" lon="-0.711201">
        <ele>701.36</ele>
        <time>2019-04-19T09:29:43.000Z</time>
      </trkpt>
      <trkpt lat="38.484384" lon="-0.711172">
        <ele>701</ele>
        <time>2019-04-19T09:29:44.000Z</time>
      </trkpt>
      <trkpt lat="38.484404" lon="-0.711145">
        <ele>700.36</ele>
        <time>2019-04-19T09:29:45.000Z</time>
      </trkpt>
      <trkpt lat="38.48442" lon="-0.711118">
        <ele>700</ele>
        <time>2019-04-19T09:29:46.000Z</time>
      </trkpt>
      <trkpt lat="38.484438" lon="-0.711092">
        <ele>699.36</ele>
        <time>2019-04-19T09:29:47.000Z</time>
      </trkpt>
      <trkpt lat="38.484456" lon="-0.711067">
        <ele>699</ele>
        <time>2019-04-19T09:29:48.000Z</time>
      </trkpt>
      <trkpt lat="38.484474" lon="-0.71104">
        <ele>699</ele>
        <time>2019-04-19T09:29:49.000Z</time>
      </trkpt>
      <trkpt lat="38.484492" lon="-0.711015">
        <ele>698.36</ele>
        <time>2019-04-19T09:29:50.000Z</time>
      </trkpt>
      <trkpt lat="38.48451" lon="-0.71099">
        <ele>698</ele>
        <time>2019-04-19T09:29:51.000Z</time>
      </trkpt>
      <trkpt lat="38.484532" lon="-0.710966">
        <ele>697.36</ele>
        <time>2019-04-19T09:29:52.000Z</time>
      </trkpt>
      <trkpt lat="38.48455" lon="-0.71094">
        <ele>696.36</ele>
        <time>2019-04-19T09:29:53.000Z</time>
      </trkpt>
      <trkpt lat="38.484566" lon="-0.71091">
        <ele>696</ele>
        <time>2019-04-19T09:29:54.000Z</time>
      </trkpt>
      <trkpt lat="38.484582" lon="-0.710881">
        <ele>695.36</ele>
        <time>2019-04-19T09:29:55.000Z</time>
      </trkpt>
      <trkpt lat="38.484598" lon="-0.71085">
        <ele>695</ele>
        <time>2019-04-19T09:29:56.000Z</time>
      </trkpt>
      <trkpt lat="38.48461" lon="-0.710818">
        <ele>695</ele>
        <time>2019-04-19T09:29:57.000Z</time>
      </trkpt>
      <trkpt lat="38.48462" lon="-0.710785">
        <ele>695</ele>
        <time>2019-04-19T09:29:58.000Z</time>
      </trkpt>
      <trkpt lat="38.484628" lon="-0.71075">
        <ele>695</ele>
        <time>2019-04-19T09:29:59.000Z</time>
      </trkpt>
      <trkpt lat="38.484638" lon="-0.710715">
        <ele>695</ele>
        <time>2019-04-19T09:30:00.000Z</time>
      </trkpt>
      <trkpt lat="38.484645" lon="-0.710682">
        <ele>695</ele>
        <time>2019-04-19T09:30:01.000Z</time>
      </trkpt>
      <trkpt lat="38.48465" lon="-0.710649">
        <ele>694.36</ele>
        <time>2019-04-19T09:30:02.000Z</time>
      </trkpt>
      <trkpt lat="38.484654" lon="-0.710618">
        <ele>693.36</ele>
        <time>2019-04-19T09:30:03.000Z</time>
      </trkpt>
      <trkpt lat="38.484654" lon="-0.710583">
        <ele>692.36</ele>
        <time>2019-04-19T09:30:04.000Z</time>
      </trkpt>
      <trkpt lat="38.484656" lon="-0.71055">
        <ele>691.36</ele>
        <time>2019-04-19T09:30:05.000Z</time>
      </trkpt>
      <trkpt lat="38.484657" lon="-0.710518">
        <ele>691</ele>
        <time>2019-04-19T09:30:06.000Z</time>
      </trkpt>
      <trkpt lat="38.484659" lon="-0.710485">
        <ele>691</ele>
        <time>2019-04-19T09:30:07.000Z</time>
      </trkpt>
      <trkpt lat="38.484662" lon="-0.710449">
        <ele>691</ele>
        <time>2019-04-19T09:30:08.000Z</time>
      </trkpt>
      <trkpt lat="38.484665" lon="-0.710413">
        <ele>690.36</ele>
        <time>2019-04-19T09:30:09.000Z</time>
      </trkpt>
      <trkpt lat="38.484668" lon="-0.710376">
        <ele>690</ele>
        <time>2019-04-19T09:30:10.000Z</time>
      </trkpt>
      <trkpt lat="38.484669" lon="-0.710339">
        <ele>690</ele>
        <time>2019-04-19T09:30:11.000Z</time>
      </trkpt>
      <trkpt lat="38.484668" lon="-0.710305">
        <ele>689.391304347826</ele>
        <time>2019-04-19T09:30:12.000Z</time>
      </trkpt>
      <trkpt lat="38.48467" lon="-0.710269">
        <ele>689</ele>
        <time>2019-04-19T09:30:13.000Z</time>
      </trkpt>
      <trkpt lat="38.484675" lon="-0.710232">
        <ele>688.36</ele>
        <time>2019-04-19T09:30:14.000Z</time>
      </trkpt>
      <trkpt lat="38.484679" lon="-0.710199">
        <ele>688</ele>
        <time>2019-04-19T09:30:15.000Z</time>
      </trkpt>
      <trkpt lat="38.484685" lon="-0.710164">
        <ele>688</ele>
        <time>2019-04-19T09:30:16.000Z</time>
      </trkpt>
      <trkpt lat="38.484694" lon="-0.710128">
        <ele>687.691490665468</ele>
        <time>2019-04-19T09:30:17.000Z</time>
      </trkpt>
      <trkpt lat="38.484709" lon="-0.710093">
        <ele>687</ele>
        <time>2019-04-19T09:30:18.000Z</time>
      </trkpt>
      <trkpt lat="38.484725" lon="-0.710056">
        <ele>686.438599642949</ele>
        <time>2019-04-19T09:30:19.000Z</time>
      </trkpt>
      <trkpt lat="38.484743" lon="-0.710023">
        <ele>686</ele>
        <time>2019-04-19T09:30:20.000Z</time>
      </trkpt>
      <trkpt lat="38.484759" lon="-0.70999">
        <ele>686</ele>
        <time>2019-04-19T09:30:21.000Z</time>
      </trkpt>
      <trkpt lat="38.484775" lon="-0.70996">
        <ele>686</ele>
        <time>2019-04-19T09:30:22.000Z</time>
      </trkpt>
      <trkpt lat="38.484796" lon="-0.709932">
        <ele>686</ele>
        <time>2019-04-19T09:30:23.000Z</time>
      </trkpt>
      <trkpt lat="38.484817" lon="-0.709903">
        <ele>686</ele>
        <time>2019-04-19T09:30:24.000Z</time>
      </trkpt>
      <trkpt lat="38.484838" lon="-0.709878">
        <ele>686</ele>
        <time>2019-04-19T09:30:25.000Z</time>
      </trkpt>
      <trkpt lat="38.48486" lon="-0.709856">
        <ele>686</ele>
        <time>2019-04-19T09:30:26.000Z</time>
      </trkpt>
      <trkpt lat="38.484882" lon="-0.709834">
        <ele>686</ele>
        <time>2019-04-19T09:30:27.000Z</time>
      </trkpt>
      <trkpt lat="38.484905" lon="-0.709813">
        <ele>685.382981330937</ele>
        <time>2019-04-19T09:30:28.000Z</time>
      </trkpt>
      <trkpt lat="38.484928" lon="-0.709788">
        <ele>685</ele>
        <time>2019-04-19T09:30:29.000Z</time>
      </trkpt>
      <trkpt lat="38.484949" lon="-0.709768">
        <ele>685</ele>
        <time>2019-04-19T09:30:30.000Z</time>
      </trkpt>
      <trkpt lat="38.484971" lon="-0.709746">
        <ele>684.396230060498</ele>
        <time>2019-04-19T09:30:31.000Z</time>
      </trkpt>
      <trkpt lat="38.484994" lon="-0.709724">
        <ele>684</ele>
        <time>2019-04-19T09:30:32.000Z</time>
      </trkpt>
      <trkpt lat="38.485016" lon="-0.7097">
        <ele>684</ele>
        <time>2019-04-19T09:30:33.000Z</time>
      </trkpt>
      <trkpt lat="38.485038" lon="-0.709676">
        <ele>683.36</ele>
        <time>2019-04-19T09:30:34.000Z</time>
      </trkpt>
      <trkpt lat="38.485061" lon="-0.709653">
        <ele>682.609756097561</ele>
        <time>2019-04-19T09:30:35.000Z</time>
      </trkpt>
      <trkpt lat="38.485086" lon="-0.70963">
        <ele>682</ele>
        <time>2019-04-19T09:30:36.000Z</time>
      </trkpt>
      <trkpt lat="38.48511" lon="-0.709607">
        <ele>682</ele>
        <time>2019-04-19T09:30:37.000Z</time>
      </trkpt>
      <trkpt lat="38.485134" lon="-0.709585">
        <ele>680.161294318432</ele>
        <time>2019-04-19T09:30:38.000Z</time>
      </trkpt>
      <trkpt lat="38.485158" lon="-0.709561">
        <ele>679.64</ele>
        <time>2019-04-19T09:30:39.000Z</time>
      </trkpt>
      <trkpt lat="38.485183" lon="-0.709538">
        <ele>680</ele>
        <time>2019-04-19T09:30:40.000Z</time>
      </trkpt>
      <trkpt lat="38.485208" lon="-0.709512">
        <ele>680</ele>
        <time>2019-04-19T09:30:41.000Z</time>
      </trkpt>
      <trkpt lat="38.485234" lon="-0.709488">
        <ele>680</ele>
        <time>2019-04-19T09:30:42.000Z</time>
      </trkpt>
      <trkpt lat="38.48526" lon="-0.709466">
        <ele>679.387098106144</ele>
        <time>2019-04-19T09:30:43.000Z</time>
      </trkpt>
      <trkpt lat="38.485288" lon="-0.709443">
        <ele>679</ele>
        <time>2019-04-19T09:30:44.000Z</time>
      </trkpt>
      <trkpt lat="38.485313" lon="-0.709421">
        <ele>679</ele>
        <time>2019-04-19T09:30:45.000Z</time>
      </trkpt>
      <trkpt lat="38.485339" lon="-0.709398">
        <ele>678.36</ele>
        <time>2019-04-19T09:30:46.000Z</time>
      </trkpt>
      <trkpt lat="38.485364" lon="-0.709376">
        <ele>677.412842312932</ele>
        <time>2019-04-19T09:30:47.000Z</time>
      </trkpt>
      <trkpt lat="38.48539" lon="-0.709352">
        <ele>677</ele>
        <time>2019-04-19T09:30:48.000Z</time>
      </trkpt>
      <trkpt lat="38.485416" lon="-0.709326">
        <ele>677</ele>
        <time>2019-04-19T09:30:49.000Z</time>
      </trkpt>
      <trkpt lat="38.485441" lon="-0.709302">
        <ele>677</ele>
        <time>2019-04-19T09:30:50.000Z</time>
      </trkpt>
      <trkpt lat="38.485463" lon="-0.709279">
        <ele>677</ele>
        <time>2019-04-19T09:30:51.000Z</time>
      </trkpt>
      <trkpt lat="38.485487" lon="-0.709256">
        <ele>677</ele>
        <time>2019-04-19T09:30:52.000Z</time>
      </trkpt>
      <trkpt lat="38.48551" lon="-0.70923">
        <ele>677</ele>
        <time>2019-04-19T09:30:53.000Z</time>
      </trkpt>
      <trkpt lat="38.485532" lon="-0.709203">
        <ele>677</ele>
        <time>2019-04-19T09:30:54.000Z</time>
      </trkpt>
      <trkpt lat="38.485555" lon="-0.709178">
        <ele>676.507039968271</ele>
        <time>2019-04-19T09:30:55.000Z</time>
      </trkpt>
      <trkpt lat="38.48558" lon="-0.709151">
        <ele>676</ele>
        <time>2019-04-19T09:30:56.000Z</time>
      </trkpt>
      <trkpt lat="38.485602" lon="-0.709126">
        <ele>676</ele>
        <time>2019-04-19T09:30:57.000Z</time>
      </trkpt>
      <trkpt lat="38.485627" lon="-0.7091">
        <ele>675.438593339471</ele>
        <time>2019-04-19T09:30:58.000Z</time>
      </trkpt>
      <trkpt lat="38.485646" lon="-0.70907">
        <ele>674.579827684497</ele>
        <time>2019-04-19T09:30:59.000Z</time>
      </trkpt>
      <trkpt lat="38.485668" lon="-0.709039">
        <ele>673.732755862069</ele>
        <time>2019-04-19T09:31:00.000Z</time>
      </trkpt>
      <trkpt lat="38.48569" lon="-0.709008">
        <ele>673</ele>
        <time>2019-04-19T09:31:01.000Z</time>
      </trkpt>
      <trkpt lat="38.48571" lon="-0.708975">
        <ele>672.384615384615</ele>
        <time>2019-04-19T09:31:02.000Z</time>
      </trkpt>
      <trkpt lat="38.48573" lon="-0.708944">
        <ele>671.375</ele>
        <time>2019-04-19T09:31:03.000Z</time>
      </trkpt>
      <trkpt lat="38.48575" lon="-0.70891">
        <ele>671</ele>
        <time>2019-04-19T09:31:04.000Z</time>
      </trkpt>
      <trkpt lat="38.485768" lon="-0.708877">
        <ele>671</ele>
        <time>2019-04-19T09:31:05.000Z</time>
      </trkpt>
      <trkpt lat="38.485785" lon="-0.708844">
        <ele>671</ele>
        <time>2019-04-19T09:31:06.000Z</time>
      </trkpt>
      <trkpt lat="38.485803" lon="-0.70881">
        <ele>671</ele>
        <time>2019-04-19T09:31:07.000Z</time>
      </trkpt>
      <trkpt lat="38.485822" lon="-0.708779">
        <ele>670.553848880487</ele>
        <time>2019-04-19T09:31:08.000Z</time>
      </trkpt>
      <trkpt lat="38.485839" lon="-0.708748">
        <ele>669.36</ele>
        <time>2019-04-19T09:31:09.000Z</time>
      </trkpt>
      <trkpt lat="38.485858" lon="-0.708718">
        <ele>669</ele>
        <time>2019-04-19T09:31:10.000Z</time>
      </trkpt>
      <trkpt lat="38.485877" lon="-0.708684">
        <ele>669</ele>
        <time>2019-04-19T09:31:11.000Z</time>
      </trkpt>
      <trkpt lat="38.485894" lon="-0.708649">
        <ele>669</ele>
        <time>2019-04-19T09:31:12.000Z</time>
      </trkpt>
      <trkpt lat="38.48591" lon="-0.708615">
        <ele>669</ele>
        <time>2019-04-19T09:31:13.000Z</time>
      </trkpt>
      <trkpt lat="38.485927" lon="-0.70858">
        <ele>668.514290416369</ele>
        <time>2019-04-19T09:31:14.000Z</time>
      </trkpt>
      <trkpt lat="38.485946" lon="-0.708546">
        <ele>668</ele>
        <time>2019-04-19T09:31:15.000Z</time>
      </trkpt>
      <trkpt lat="38.485963" lon="-0.708512">
        <ele>668</ele>
        <time>2019-04-19T09:31:16.000Z</time>
      </trkpt>
      <trkpt lat="38.485977" lon="-0.708478">
        <ele>668</ele>
        <time>2019-04-19T09:31:17.000Z</time>
      </trkpt>
      <trkpt lat="38.485992" lon="-0.708443">
        <ele>668</ele>
        <time>2019-04-19T09:31:18.000Z</time>
      </trkpt>
      <trkpt lat="38.486006" lon="-0.708409">
        <ele>667.36</ele>
        <time>2019-04-19T09:31:19.000Z</time>
      </trkpt>
      <trkpt lat="38.486021" lon="-0.708373">
        <ele>667</ele>
        <time>2019-04-19T09:31:20.000Z</time>
      </trkpt>
      <trkpt lat="38.486034" lon="-0.708336">
        <ele>666.378946091971</ele>
        <time>2019-04-19T09:31:21.000Z</time>
      </trkpt>
      <trkpt lat="38.48605" lon="-0.708301">
        <ele>666</ele>
        <time>2019-04-19T09:31:22.000Z</time>
      </trkpt>
      <trkpt lat="38.486071" lon="-0.708267">
        <ele>666</ele>
        <time>2019-04-19T09:31:23.000Z</time>
      </trkpt>
      <trkpt lat="38.486088" lon="-0.708232">
        <ele>666</ele>
        <time>2019-04-19T09:31:24.000Z</time>
      </trkpt>
      <trkpt lat="38.486104" lon="-0.708198">
        <ele>666.64</ele>
        <time>2019-04-19T09:31:25.000Z</time>
      </trkpt>
      <trkpt lat="38.486119" lon="-0.708165">
        <ele>666.36</ele>
        <time>2019-04-19T09:31:26.000Z</time>
      </trkpt>
      <trkpt lat="38.486137" lon="-0.708133">
        <ele>665.36</ele>
        <time>2019-04-19T09:31:27.000Z</time>
      </trkpt>
      <trkpt lat="38.486155" lon="-0.708101">
        <ele>664.396222769647</ele>
        <time>2019-04-19T09:31:28.000Z</time>
      </trkpt>
      <trkpt lat="38.486172" lon="-0.708069">
        <ele>664</ele>
        <time>2019-04-19T09:31:29.000Z</time>
      </trkpt>
      <trkpt lat="38.486189" lon="-0.708038">
        <ele>663.36</ele>
        <time>2019-04-19T09:31:30.000Z</time>
      </trkpt>
      <trkpt lat="38.486208" lon="-0.708006">
        <ele>661.72</ele>
        <time>2019-04-19T09:31:31.000Z</time>
      </trkpt>
      <trkpt lat="38.486224" lon="-0.707978">
        <ele>660.507689884012</ele>
        <time>2019-04-19T09:31:32.000Z</time>
      </trkpt>
      <trkpt lat="38.486238" lon="-0.70795">
        <ele>660</ele>
        <time>2019-04-19T09:31:33.000Z</time>
      </trkpt>
      <trkpt lat="38.486249" lon="-0.707924">
        <ele>660</ele>
        <time>2019-04-19T09:31:34.000Z</time>
      </trkpt>
      <trkpt lat="38.486262" lon="-0.7079">
        <ele>660.608695652174</ele>
        <time>2019-04-19T09:31:35.000Z</time>
      </trkpt>
      <trkpt lat="38.486271" lon="-0.707871">
        <ele>661</ele>
        <time>2019-04-19T09:31:36.000Z</time>
      </trkpt>
      <trkpt lat="38.486283" lon="-0.707839">
        <ele>661</ele>
        <time>2019-04-19T09:31:37.000Z</time>
      </trkpt>
      <trkpt lat="38.486298" lon="-0.707806">
        <ele>660.36</ele>
        <time>2019-04-19T09:31:38.000Z</time>
      </trkpt>
      <trkpt lat="38.486312" lon="-0.707775">
        <ele>660</ele>
        <time>2019-04-19T09:31:39.000Z</time>
      </trkpt>
      <trkpt lat="38.486325" lon="-0.707744">
        <ele>660</ele>
        <time>2019-04-19T09:31:40.000Z</time>
      </trkpt>
      <trkpt lat="38.486336" lon="-0.707718">
        <ele>660</ele>
        <time>2019-04-19T09:31:41.000Z</time>
      </trkpt>
      <trkpt lat="38.486349" lon="-0.707691">
        <ele>660</ele>
        <time>2019-04-19T09:31:42.000Z</time>
      </trkpt>
      <trkpt lat="38.486361" lon="-0.707661">
        <ele>659.36</ele>
        <time>2019-04-19T09:31:43.000Z</time>
      </trkpt>
      <trkpt lat="38.486371" lon="-0.707632">
        <ele>659</ele>
        <time>2019-04-19T09:31:44.000Z</time>
      </trkpt>
      <trkpt lat="38.486384" lon="-0.707601">
        <ele>659</ele>
        <time>2019-04-19T09:31:45.000Z</time>
      </trkpt>
      <trkpt lat="38.486402" lon="-0.707571">
        <ele>658.391304347826</ele>
        <time>2019-04-19T09:31:46.000Z</time>
      </trkpt>
      <trkpt lat="38.486417" lon="-0.707541">
        <ele>658</ele>
        <time>2019-04-19T09:31:47.000Z</time>
      </trkpt>
      <trkpt lat="38.486432" lon="-0.70751">
        <ele>658</ele>
        <time>2019-04-19T09:31:48.000Z</time>
      </trkpt>
      <trkpt lat="38.486443" lon="-0.707481">
        <ele>658</ele>
        <time>2019-04-19T09:31:49.000Z</time>
      </trkpt>
      <trkpt lat="38.486454" lon="-0.707453">
        <ele>657.412842312932</ele>
        <time>2019-04-19T09:31:50.000Z</time>
      </trkpt>
      <trkpt lat="38.486466" lon="-0.707425">
        <ele>657</ele>
        <time>2019-04-19T09:31:51.000Z</time>
      </trkpt>
      <trkpt lat="38.48648" lon="-0.707396">
        <ele>657</ele>
        <time>2019-04-19T09:31:52.000Z</time>
      </trkpt>
      <trkpt lat="38.486494" lon="-0.707366">
        <ele>657</ele>
        <time>2019-04-19T09:31:53.000Z</time>
      </trkpt>
      <trkpt lat="38.48651" lon="-0.707336">
        <ele>656.36</ele>
        <time>2019-04-19T09:31:54.000Z</time>
      </trkpt>
      <trkpt lat="38.486526" lon="-0.707303">
        <ele>655.36</ele>
        <time>2019-04-19T09:31:55.000Z</time>
      </trkpt>
      <trkpt lat="38.486541" lon="-0.707272">
        <ele>655</ele>
        <time>2019-04-19T09:31:56.000Z</time>
      </trkpt>
      <trkpt lat="38.486556" lon="-0.707245">
        <ele>655</ele>
        <time>2019-04-19T09:31:57.000Z</time>
      </trkpt>
      <trkpt lat="38.486566" lon="-0.707224">
        <ele>655</ele>
        <time>2019-04-19T09:31:58.000Z</time>
      </trkpt>
      <trkpt lat="38.486559" lon="-0.707199">
        <ele>656</ele>
        <time>2019-04-19T09:32:01.000Z</time>
      </trkpt>
      <trkpt lat="38.486567" lon="-0.707168">
        <ele>657.529411764706</ele>
        <time>2019-04-19T09:32:05.000Z</time>
      </trkpt>
      <trkpt lat="38.486592" lon="-0.707127">
        <ele>655.372545082636</ele>
        <time>2019-04-19T09:32:07.000Z</time>
      </trkpt>
      <trkpt lat="38.486604" lon="-0.707096">
        <ele>654.367344539791</ele>
        <time>2019-04-19T09:32:08.000Z</time>
      </trkpt>
      <trkpt lat="38.486609" lon="-0.707064">
        <ele>653.433626714695</ele>
        <time>2019-04-19T09:32:09.000Z</time>
      </trkpt>
      <trkpt lat="38.486608" lon="-0.707032">
        <ele>652.560342068966</ele>
        <time>2019-04-19T09:32:10.000Z</time>
      </trkpt>
      <trkpt lat="38.486606" lon="-0.707004">
        <ele>652</ele>
        <time>2019-04-19T09:32:11.000Z</time>
      </trkpt>
      <trkpt lat="38.486601" lon="-0.706979">
        <ele>652</ele>
        <time>2019-04-19T09:32:12.000Z</time>
      </trkpt>
      <trkpt lat="38.486597" lon="-0.70695">
        <ele>653</ele>
        <time>2019-04-19T09:32:14.000Z</time>
      </trkpt>
      <trkpt lat="38.486602" lon="-0.706926">
        <ele>655</ele>
        <time>2019-04-19T09:32:20.000Z</time>
      </trkpt>
      <trkpt lat="38.486596" lon="-0.706901">
        <ele>654</ele>
        <time>2019-04-19T09:32:22.000Z</time>
      </trkpt>
      <trkpt lat="38.486588" lon="-0.706867">
        <ele>654</ele>
        <time>2019-04-19T09:32:24.000Z</time>
      </trkpt>
      <trkpt lat="38.486581" lon="-0.706833">
        <ele>654</ele>
        <time>2019-04-19T09:32:26.000Z</time>
      </trkpt>
      <trkpt lat="38.486569" lon="-0.706799">
        <ele>654</ele>
        <time>2019-04-19T09:32:28.000Z</time>
      </trkpt>
      <trkpt lat="38.486562" lon="-0.706774">
        <ele>654</ele>
        <time>2019-04-19T09:32:30.000Z</time>
      </trkpt>
      <trkpt lat="38.486556" lon="-0.706745">
        <ele>654</ele>
        <time>2019-04-19T09:32:32.000Z</time>
      </trkpt>
      <trkpt lat="38.486538" lon="-0.706735">
        <ele>653</ele>
        <time>2019-04-19T09:32:42.000Z</time>
      </trkpt>
      <trkpt lat="38.486525" lon="-0.706713">
        <ele>653</ele>
        <time>2019-04-19T09:32:44.000Z</time>
      </trkpt>
      <trkpt lat="38.486515" lon="-0.706687">
        <ele>653</ele>
        <time>2019-04-19T09:32:46.000Z</time>
      </trkpt>
      <trkpt lat="38.486504" lon="-0.706645">
        <ele>653</ele>
        <time>2019-04-19T09:32:49.000Z</time>
      </trkpt>
      <trkpt lat="38.486494" lon="-0.706622">
        <ele>653</ele>
        <time>2019-04-19T09:32:50.000Z</time>
      </trkpt>
      <trkpt lat="38.486483" lon="-0.706599">
        <ele>652.043483100211</ele>
        <time>2019-04-19T09:32:51.000Z</time>
      </trkpt>
      <trkpt lat="38.48647" lon="-0.706578">
        <ele>651</ele>
        <time>2019-04-19T09:32:52.000Z</time>
      </trkpt>
      <trkpt lat="38.486454" lon="-0.706559">
        <ele>651</ele>
        <time>2019-04-19T09:32:53.000Z</time>
      </trkpt>
      <trkpt lat="38.486437" lon="-0.706539">
        <ele>651</ele>
        <time>2019-04-19T09:32:54.000Z</time>
      </trkpt>
      <trkpt lat="38.486424" lon="-0.706516">
        <ele>651</ele>
        <time>2019-04-19T09:32:55.000Z</time>
      </trkpt>
      <trkpt lat="38.486406" lon="-0.706494">
        <ele>651</ele>
        <time>2019-04-19T09:32:56.000Z</time>
      </trkpt>
      <trkpt lat="38.486388" lon="-0.706472">
        <ele>651</ele>
        <time>2019-04-19T09:32:57.000Z</time>
      </trkpt>
      <trkpt lat="38.486371" lon="-0.706453">
        <ele>651</ele>
        <time>2019-04-19T09:32:58.000Z</time>
      </trkpt>
      <trkpt lat="38.486352" lon="-0.706436">
        <ele>651</ele>
        <time>2019-04-19T09:32:59.000Z</time>
      </trkpt>
      <trkpt lat="38.486334" lon="-0.706416">
        <ele>651</ele>
        <time>2019-04-19T09:33:00.000Z</time>
      </trkpt>
      <trkpt lat="38.486315" lon="-0.706396">
        <ele>650.400002844465</ele>
        <time>2019-04-19T09:33:01.000Z</time>
      </trkpt>
      <trkpt lat="38.486297" lon="-0.706377">
        <ele>650</ele>
        <time>2019-04-19T09:33:02.000Z</time>
      </trkpt>
      <trkpt lat="38.486277" lon="-0.706359">
        <ele>650</ele>
        <time>2019-04-19T09:33:03.000Z</time>
      </trkpt>
      <trkpt lat="38.486258" lon="-0.706342">
        <ele>650</ele>
        <time>2019-04-19T09:33:04.000Z</time>
      </trkpt>
      <trkpt lat="38.486239" lon="-0.706324">
        <ele>650</ele>
        <time>2019-04-19T09:33:05.000Z</time>
      </trkpt>
      <trkpt lat="38.486224" lon="-0.706308">
        <ele>650</ele>
        <time>2019-04-19T09:33:06.000Z</time>
      </trkpt>
      <trkpt lat="38.486207" lon="-0.706289">
        <ele>650</ele>
        <time>2019-04-19T09:33:07.000Z</time>
      </trkpt>
      <trkpt lat="38.48619" lon="-0.706271">
        <ele>650</ele>
        <time>2019-04-19T09:33:08.000Z</time>
      </trkpt>
      <trkpt lat="38.486169" lon="-0.70625">
        <ele>650</ele>
        <time>2019-04-19T09:33:09.000Z</time>
      </trkpt>
      <trkpt lat="38.486147" lon="-0.706227">
        <ele>650</ele>
        <time>2019-04-19T09:33:10.000Z</time>
      </trkpt>
      <trkpt lat="38.486123" lon="-0.706204">
        <ele>650</ele>
        <time>2019-04-19T09:33:11.000Z</time>
      </trkpt>
      <trkpt lat="38.486099" lon="-0.706182">
        <ele>650</ele>
        <time>2019-04-19T09:33:12.000Z</time>
      </trkpt>
      <trkpt lat="38.486079" lon="-0.706164">
        <ele>650</ele>
        <time>2019-04-19T09:33:13.000Z</time>
      </trkpt>
      <trkpt lat="38.486055" lon="-0.706145">
        <ele>650</ele>
        <time>2019-04-19T09:33:14.000Z</time>
      </trkpt>
      <trkpt lat="38.486032" lon="-0.706126">
        <ele>650</ele>
        <time>2019-04-19T09:33:15.000Z</time>
      </trkpt>
      <trkpt lat="38.48601" lon="-0.706106">
        <ele>650</ele>
        <time>2019-04-19T09:33:16.000Z</time>
      </trkpt>
      <trkpt lat="38.485991" lon="-0.706085">
        <ele>650</ele>
        <time>2019-04-19T09:33:17.000Z</time>
      </trkpt>
      <trkpt lat="38.48597" lon="-0.706062">
        <ele>650</ele>
        <time>2019-04-19T09:33:18.000Z</time>
      </trkpt>
      <trkpt lat="38.485953" lon="-0.706036">
        <ele>650</ele>
        <time>2019-04-19T09:33:19.000Z</time>
      </trkpt>
      <trkpt lat="38.485936" lon="-0.70601">
        <ele>649.40449583639</ele>
        <time>2019-04-19T09:33:20.000Z</time>
      </trkpt>
      <trkpt lat="38.485922" lon="-0.705984">
        <ele>649</ele>
        <time>2019-04-19T09:33:21.000Z</time>
      </trkpt>
      <trkpt lat="38.485914" lon="-0.705952">
        <ele>649</ele>
        <time>2019-04-19T09:33:22.000Z</time>
      </trkpt>
      <trkpt lat="38.48591" lon="-0.705916">
        <ele>648.371135244982</ele>
        <time>2019-04-19T09:33:23.000Z</time>
      </trkpt>
      <trkpt lat="38.485912" lon="-0.705884">
        <ele>648</ele>
        <time>2019-04-19T09:33:24.000Z</time>
      </trkpt>
      <trkpt lat="38.485915" lon="-0.705854">
        <ele>648.38983381785</ele>
        <time>2019-04-19T09:33:25.000Z</time>
      </trkpt>
      <trkpt lat="38.485924" lon="-0.705823">
        <ele>649</ele>
        <time>2019-04-19T09:33:26.000Z</time>
      </trkpt>
      <trkpt lat="38.485937" lon="-0.705789">
        <ele>649</ele>
        <time>2019-04-19T09:33:27.000Z</time>
      </trkpt>
      <trkpt lat="38.485951" lon="-0.705763">
        <ele>649</ele>
        <time>2019-04-19T09:33:28.000Z</time>
      </trkpt>
      <trkpt lat="38.485966" lon="-0.705731">
        <ele>647.782608695652</ele>
        <time>2019-04-19T09:33:29.000Z</time>
      </trkpt>
      <trkpt lat="38.485984" lon="-0.705701">
        <ele>646.515151515152</ele>
        <time>2019-04-19T09:33:30.000Z</time>
      </trkpt>
      <trkpt lat="38.486002" lon="-0.705672">
        <ele>646</ele>
        <time>2019-04-19T09:33:31.000Z</time>
      </trkpt>
      <trkpt lat="38.486023" lon="-0.705644">
        <ele>646</ele>
        <time>2019-04-19T09:33:32.000Z</time>
      </trkpt>
      <trkpt lat="38.486048" lon="-0.70562">
        <ele>646</ele>
        <time>2019-04-19T09:33:33.000Z</time>
      </trkpt>
      <trkpt lat="38.486071" lon="-0.705598">
        <ele>646</ele>
        <time>2019-04-19T09:33:34.000Z</time>
      </trkpt>
      <trkpt lat="38.486093" lon="-0.705577">
        <ele>646</ele>
        <time>2019-04-19T09:33:35.000Z</time>
      </trkpt>
      <trkpt lat="38.486109" lon="-0.705557">
        <ele>646</ele>
        <time>2019-04-19T09:33:36.000Z</time>
      </trkpt>
      <trkpt lat="38.486133" lon="-0.705526">
        <ele>646</ele>
        <time>2019-04-19T09:33:38.000Z</time>
      </trkpt>
      <trkpt lat="38.486149" lon="-0.705509">
        <ele>645.36363518825</ele>
        <time>2019-04-19T09:33:39.000Z</time>
      </trkpt>
      <trkpt lat="38.486167" lon="-0.705487">
        <ele>645</ele>
        <time>2019-04-19T09:33:40.000Z</time>
      </trkpt>
      <trkpt lat="38.486185" lon="-0.705461">
        <ele>645</ele>
        <time>2019-04-19T09:33:41.000Z</time>
      </trkpt>
      <trkpt lat="38.4862" lon="-0.705431">
        <ele>645</ele>
        <time>2019-04-19T09:33:42.000Z</time>
      </trkpt>
      <trkpt lat="38.486214" lon="-0.705399">
        <ele>645</ele>
        <time>2019-04-19T09:33:43.000Z</time>
      </trkpt>
      <trkpt lat="38.486224" lon="-0.705364">
        <ele>645</ele>
        <time>2019-04-19T09:33:44.000Z</time>
      </trkpt>
      <trkpt lat="38.486229" lon="-0.705324">
        <ele>644.079138810616</ele>
        <time>2019-04-19T09:33:45.000Z</time>
      </trkpt>
      <trkpt lat="38.486232" lon="-0.705284">
        <ele>643</ele>
        <time>2019-04-19T09:33:46.000Z</time>
      </trkpt>
      <trkpt lat="38.486231" lon="-0.705246">
        <ele>643</ele>
        <time>2019-04-19T09:33:47.000Z</time>
      </trkpt>
      <trkpt lat="38.486228" lon="-0.705207">
        <ele>643</ele>
        <time>2019-04-19T09:33:48.000Z</time>
      </trkpt>
      <trkpt lat="38.486229" lon="-0.705169">
        <ele>642.503874738294</ele>
        <time>2019-04-19T09:33:49.000Z</time>
      </trkpt>
      <trkpt lat="38.486233" lon="-0.705132">
        <ele>641.507039968271</ele>
        <time>2019-04-19T09:33:50.000Z</time>
      </trkpt>
      <trkpt lat="38.486235" lon="-0.705096">
        <ele>641</ele>
        <time>2019-04-19T09:33:51.000Z</time>
      </trkpt>
      <trkpt lat="38.486235" lon="-0.70506">
        <ele>641</ele>
        <time>2019-04-19T09:33:52.000Z</time>
      </trkpt>
      <trkpt lat="38.486236" lon="-0.705025">
        <ele>641</ele>
        <time>2019-04-19T09:33:53.000Z</time>
      </trkpt>
      <trkpt lat="38.486237" lon="-0.704989">
        <ele>641</ele>
        <time>2019-04-19T09:33:54.000Z</time>
      </trkpt>
      <trkpt lat="38.48624" lon="-0.704952">
        <ele>640.387098106144</ele>
        <time>2019-04-19T09:33:55.000Z</time>
      </trkpt>
      <trkpt lat="38.486242" lon="-0.704915">
        <ele>640</ele>
        <time>2019-04-19T09:33:56.000Z</time>
      </trkpt>
      <trkpt lat="38.48625" lon="-0.704879">
        <ele>639.36</ele>
        <time>2019-04-19T09:33:57.000Z</time>
      </trkpt>
      <trkpt lat="38.486256" lon="-0.704842">
        <ele>639</ele>
        <time>2019-04-19T09:33:58.000Z</time>
      </trkpt>
      <trkpt lat="38.486264" lon="-0.704806">
        <ele>638.412842312932</ele>
        <time>2019-04-19T09:33:59.000Z</time>
      </trkpt>
      <trkpt lat="38.486267" lon="-0.704766">
        <ele>638</ele>
        <time>2019-04-19T09:34:00.000Z</time>
      </trkpt>
      <trkpt lat="38.486266" lon="-0.704727">
        <ele>638</ele>
        <time>2019-04-19T09:34:01.000Z</time>
      </trkpt>
      <trkpt lat="38.486264" lon="-0.704686">
        <ele>638</ele>
        <time>2019-04-19T09:34:02.000Z</time>
      </trkpt>
      <trkpt lat="38.486258" lon="-0.704649">
        <ele>637.387098106144</ele>
        <time>2019-04-19T09:34:03.000Z</time>
      </trkpt>
      <trkpt lat="38.48625" lon="-0.704612">
        <ele>636.503874738294</ele>
        <time>2019-04-19T09:34:04.000Z</time>
      </trkpt>
      <trkpt lat="38.486238" lon="-0.704576">
        <ele>636</ele>
        <time>2019-04-19T09:34:05.000Z</time>
      </trkpt>
      <trkpt lat="38.486224" lon="-0.704541">
        <ele>636</ele>
        <time>2019-04-19T09:34:06.000Z</time>
      </trkpt>
      <trkpt lat="38.486209" lon="-0.704506">
        <ele>635.36</ele>
        <time>2019-04-19T09:34:07.000Z</time>
      </trkpt>
      <trkpt lat="38.486194" lon="-0.704471">
        <ele>635</ele>
        <time>2019-04-19T09:34:08.000Z</time>
      </trkpt>
      <trkpt lat="38.486184" lon="-0.704434">
        <ele>635</ele>
        <time>2019-04-19T09:34:09.000Z</time>
      </trkpt>
      <trkpt lat="38.486169" lon="-0.704397">
        <ele>634.36</ele>
        <time>2019-04-19T09:34:10.000Z</time>
      </trkpt>
      <trkpt lat="38.486158" lon="-0.704361">
        <ele>634</ele>
        <time>2019-04-19T09:34:11.000Z</time>
      </trkpt>
      <trkpt lat="38.486145" lon="-0.704322">
        <ele>634</ele>
        <time>2019-04-19T09:34:12.000Z</time>
      </trkpt>
      <trkpt lat="38.486133" lon="-0.704289">
        <ele>633.36</ele>
        <time>2019-04-19T09:34:13.000Z</time>
      </trkpt>
      <trkpt lat="38.486121" lon="-0.704256">
        <ele>633</ele>
        <time>2019-04-19T09:34:14.000Z</time>
      </trkpt>
      <trkpt lat="38.486113" lon="-0.70422">
        <ele>633</ele>
        <time>2019-04-19T09:34:15.000Z</time>
      </trkpt>
      <trkpt lat="38.486111" lon="-0.70418">
        <ele>633</ele>
        <time>2019-04-19T09:34:16.000Z</time>
      </trkpt>
      <trkpt lat="38.486107" lon="-0.70414">
        <ele>633</ele>
        <time>2019-04-19T09:34:17.000Z</time>
      </trkpt>
      <trkpt lat="38.486102" lon="-0.704102">
        <ele>633</ele>
        <time>2019-04-19T09:34:18.000Z</time>
      </trkpt>
      <trkpt lat="38.486095" lon="-0.704064">
        <ele>633</ele>
        <time>2019-04-19T09:34:19.000Z</time>
      </trkpt>
      <trkpt lat="38.486089" lon="-0.704026">
        <ele>633</ele>
        <time>2019-04-19T09:34:20.000Z</time>
      </trkpt>
      <trkpt lat="38.486079" lon="-0.703987">
        <ele>632.395603004473</ele>
        <time>2019-04-19T09:34:21.000Z</time>
      </trkpt>
      <trkpt lat="38.486067" lon="-0.703951">
        <ele>632</ele>
        <time>2019-04-19T09:34:22.000Z</time>
      </trkpt>
      <trkpt lat="38.486053" lon="-0.703918">
        <ele>632</ele>
        <time>2019-04-19T09:34:23.000Z</time>
      </trkpt>
      <trkpt lat="38.486037" lon="-0.703885">
        <ele>631.514290416369</ele>
        <time>2019-04-19T09:34:24.000Z</time>
      </trkpt>
      <trkpt lat="38.486021" lon="-0.703853">
        <ele>631</ele>
        <time>2019-04-19T09:34:25.000Z</time>
      </trkpt>
      <trkpt lat="38.486002" lon="-0.70382">
        <ele>630.378946091971</ele>
        <time>2019-04-19T09:34:26.000Z</time>
      </trkpt>
      <trkpt lat="38.485984" lon="-0.70379">
        <ele>630</ele>
        <time>2019-04-19T09:34:27.000Z</time>
      </trkpt>
      <trkpt lat="38.485964" lon="-0.703762">
        <ele>630</ele>
        <time>2019-04-19T09:34:28.000Z</time>
      </trkpt>
      <trkpt lat="38.485944" lon="-0.703733">
        <ele>630</ele>
        <time>2019-04-19T09:34:29.000Z</time>
      </trkpt>
      <trkpt lat="38.485923" lon="-0.703706">
        <ele>630</ele>
        <time>2019-04-19T09:34:30.000Z</time>
      </trkpt>
      <trkpt lat="38.485901" lon="-0.703681">
        <ele>630</ele>
        <time>2019-04-19T09:34:31.000Z</time>
      </trkpt>
      <trkpt lat="38.48588" lon="-0.703657">
        <ele>630</ele>
        <time>2019-04-19T09:34:32.000Z</time>
      </trkpt>
      <trkpt lat="38.485861" lon="-0.703633">
        <ele>629.413791581456</ele>
        <time>2019-04-19T09:34:33.000Z</time>
      </trkpt>
      <trkpt lat="38.485845" lon="-0.703608">
        <ele>629</ele>
        <time>2019-04-19T09:34:34.000Z</time>
      </trkpt>
      <trkpt lat="38.485829" lon="-0.703574">
        <ele>628.396230060498</ele>
        <time>2019-04-19T09:34:35.000Z</time>
      </trkpt>
      <trkpt lat="38.485811" lon="-0.703538">
        <ele>628</ele>
        <time>2019-04-19T09:34:36.000Z</time>
      </trkpt>
      <trkpt lat="38.485795" lon="-0.703505">
        <ele>628</ele>
        <time>2019-04-19T09:34:37.000Z</time>
      </trkpt>
      <trkpt lat="38.485779" lon="-0.703476">
        <ele>628.581392233617</ele>
        <time>2019-04-19T09:34:38.000Z</time>
      </trkpt>
      <trkpt lat="38.485763" lon="-0.703448">
        <ele>629</ele>
        <time>2019-04-19T09:34:39.000Z</time>
      </trkpt>
      <trkpt lat="38.485745" lon="-0.70342">
        <ele>628.514290416369</ele>
        <time>2019-04-19T09:34:40.000Z</time>
      </trkpt>
      <trkpt lat="38.485728" lon="-0.703387">
        <ele>627.36</ele>
        <time>2019-04-19T09:34:41.000Z</time>
      </trkpt>
      <trkpt lat="38.485711" lon="-0.703356">
        <ele>627</ele>
        <time>2019-04-19T09:34:42.000Z</time>
      </trkpt>
      <trkpt lat="38.485696" lon="-0.703325">
        <ele>627</ele>
        <time>2019-04-19T09:34:43.000Z</time>
      </trkpt>
      <trkpt lat="38.485679" lon="-0.703296">
        <ele>627</ele>
        <time>2019-04-19T09:34:44.000Z</time>
      </trkpt>
      <trkpt lat="38.485663" lon="-0.703268">
        <ele>627</ele>
        <time>2019-04-19T09:34:45.000Z</time>
      </trkpt>
      <trkpt lat="38.485647" lon="-0.703239">
        <ele>626.423425085621</ele>
        <time>2019-04-19T09:34:46.000Z</time>
      </trkpt>
      <trkpt lat="38.485631" lon="-0.703208">
        <ele>626</ele>
        <time>2019-04-19T09:34:47.000Z</time>
      </trkpt>
      <trkpt lat="38.485613" lon="-0.703177">
        <ele>625.36</ele>
        <time>2019-04-19T09:34:48.000Z</time>
      </trkpt>
      <trkpt lat="38.485595" lon="-0.703145">
        <ele>625</ele>
        <time>2019-04-19T09:34:49.000Z</time>
      </trkpt>
      <trkpt lat="38.485581" lon="-0.703113">
        <ele>624.371135244982</ele>
        <time>2019-04-19T09:34:50.000Z</time>
      </trkpt>
      <trkpt lat="38.485567" lon="-0.703082">
        <ele>624</ele>
        <time>2019-04-19T09:34:51.000Z</time>
      </trkpt>
      <trkpt lat="38.485558" lon="-0.70305">
        <ele>623.36</ele>
        <time>2019-04-19T09:34:52.000Z</time>
      </trkpt>
      <trkpt lat="38.485555" lon="-0.703015">
        <ele>623</ele>
        <time>2019-04-19T09:34:53.000Z</time>
      </trkpt>
      <trkpt lat="38.485553" lon="-0.702978">
        <ele>623</ele>
        <time>2019-04-19T09:34:54.000Z</time>
      </trkpt>
      <trkpt lat="38.485548" lon="-0.70294">
        <ele>623</ele>
        <time>2019-04-19T09:34:55.000Z</time>
      </trkpt>
      <trkpt lat="38.48554" lon="-0.702904">
        <ele>623</ele>
        <time>2019-04-19T09:34:56.000Z</time>
      </trkpt>
      <trkpt lat="38.48553" lon="-0.702867">
        <ele>622.633336177838</ele>
        <time>2019-04-19T09:34:57.000Z</time>
      </trkpt>
      <trkpt lat="38.485521" lon="-0.702828">
        <ele>622</ele>
        <time>2019-04-19T09:34:58.000Z</time>
      </trkpt>
      <trkpt lat="38.485513" lon="-0.70279">
        <ele>622</ele>
        <time>2019-04-19T09:34:59.000Z</time>
      </trkpt>
      <trkpt lat="38.485507" lon="-0.702753">
        <ele>621.40449583639</ele>
        <time>2019-04-19T09:35:00.000Z</time>
      </trkpt>
      <trkpt lat="38.485502" lon="-0.702721">
        <ele>621</ele>
        <time>2019-04-19T09:35:01.000Z</time>
      </trkpt>
      <trkpt lat="38.485495" lon="-0.702687">
        <ele>621</ele>
        <time>2019-04-19T09:35:02.000Z</time>
      </trkpt>
      <trkpt lat="38.485485" lon="-0.702655">
        <ele>621</ele>
        <time>2019-04-19T09:35:03.000Z</time>
      </trkpt>
      <trkpt lat="38.485475" lon="-0.702623">
        <ele>621</ele>
        <time>2019-04-19T09:35:04.000Z</time>
      </trkpt>
      <trkpt lat="38.485465" lon="-0.702587">
        <ele>620.366334626011</ele>
        <time>2019-04-19T09:35:05.000Z</time>
      </trkpt>
      <trkpt lat="38.485457" lon="-0.702553">
        <ele>619.36363518825</ele>
        <time>2019-04-19T09:35:06.000Z</time>
      </trkpt>
      <trkpt lat="38.485456" lon="-0.70252">
        <ele>619</ele>
        <time>2019-04-19T09:35:07.000Z</time>
      </trkpt>
      <trkpt lat="38.485456" lon="-0.702486">
        <ele>618.384615384615</ele>
        <time>2019-04-19T09:35:08.000Z</time>
      </trkpt>
      <trkpt lat="38.485454" lon="-0.702453">
        <ele>618</ele>
        <time>2019-04-19T09:35:09.000Z</time>
      </trkpt>
      <trkpt lat="38.485455" lon="-0.702426">
        <ele>618</ele>
        <time>2019-04-19T09:35:10.000Z</time>
      </trkpt>
      <trkpt lat="38.485479" lon="-0.70242">
        <ele>617.36</ele>
        <time>2019-04-19T09:35:12.000Z</time>
      </trkpt>
      <trkpt lat="38.485494" lon="-0.70244">
        <ele>617</ele>
        <time>2019-04-19T09:35:13.000Z</time>
      </trkpt>
      <trkpt lat="38.485509" lon="-0.702467">
        <ele>616.36</ele>
        <time>2019-04-19T09:35:14.000Z</time>
      </trkpt>
      <trkpt lat="38.485525" lon="-0.702493">
        <ele>615.428571428571</ele>
        <time>2019-04-19T09:35:15.000Z</time>
      </trkpt>
      <trkpt lat="38.485546" lon="-0.702519">
        <ele>615</ele>
        <time>2019-04-19T09:35:16.000Z</time>
      </trkpt>
      <trkpt lat="38.485568" lon="-0.702539">
        <ele>614.521741550106</ele>
        <time>2019-04-19T09:35:17.000Z</time>
      </trkpt>
      <trkpt lat="38.485589" lon="-0.702559">
        <ele>614</ele>
        <time>2019-04-19T09:35:18.000Z</time>
      </trkpt>
      <trkpt lat="38.485608" lon="-0.702581">
        <ele>614.64</ele>
        <time>2019-04-19T09:35:19.000Z</time>
      </trkpt>
      <trkpt lat="38.485627" lon="-0.702602">
        <ele>614.503874738294</ele>
        <time>2019-04-19T09:35:20.000Z</time>
      </trkpt>
      <trkpt lat="38.485647" lon="-0.702626">
        <ele>614</ele>
        <time>2019-04-19T09:35:21.000Z</time>
      </trkpt>
      <trkpt lat="38.485668" lon="-0.702644">
        <ele>614</ele>
        <time>2019-04-19T09:35:22.000Z</time>
      </trkpt>
      <trkpt lat="38.485691" lon="-0.702656">
        <ele>614</ele>
        <time>2019-04-19T09:35:23.000Z</time>
      </trkpt>
      <trkpt lat="38.485715" lon="-0.702669">
        <ele>613.36</ele>
        <time>2019-04-19T09:35:24.000Z</time>
      </trkpt>
      <trkpt lat="38.485744" lon="-0.702679">
        <ele>613</ele>
        <time>2019-04-19T09:35:25.000Z</time>
      </trkpt>
      <trkpt lat="38.485772" lon="-0.702685">
        <ele>613</ele>
        <time>2019-04-19T09:35:26.000Z</time>
      </trkpt>
      <trkpt lat="38.485798" lon="-0.702685">
        <ele>612.412842312932</ele>
        <time>2019-04-19T09:35:27.000Z</time>
      </trkpt>
      <trkpt lat="38.485824" lon="-0.702684">
        <ele>611.395603004473</ele>
        <time>2019-04-19T09:35:28.000Z</time>
      </trkpt>
      <trkpt lat="38.485852" lon="-0.70268">
        <ele>610.36</ele>
        <time>2019-04-19T09:35:29.000Z</time>
      </trkpt>
      <trkpt lat="38.485881" lon="-0.702676">
        <ele>610</ele>
        <time>2019-04-19T09:35:30.000Z</time>
      </trkpt>
      <trkpt lat="38.485907" lon="-0.702681">
        <ele>610</ele>
        <time>2019-04-19T09:35:31.000Z</time>
      </trkpt>
      <trkpt lat="38.485931" lon="-0.702692">
        <ele>610</ele>
        <time>2019-04-19T09:35:32.000Z</time>
      </trkpt>
      <trkpt lat="38.485951" lon="-0.702712">
        <ele>610</ele>
        <time>2019-04-19T09:35:33.000Z</time>
      </trkpt>
      <trkpt lat="38.485967" lon="-0.702734">
        <ele>610</ele>
        <time>2019-04-19T09:35:34.000Z</time>
      </trkpt>
      <trkpt lat="38.48598" lon="-0.702752">
        <ele>610</ele>
        <time>2019-04-19T09:35:35.000Z</time>
      </trkpt>
      <trkpt lat="38.485991" lon="-0.702774">
        <ele>610</ele>
        <time>2019-04-19T09:35:36.000Z</time>
      </trkpt>
      <trkpt lat="38.486005" lon="-0.702806">
        <ele>609.36</ele>
        <time>2019-04-19T09:35:38.000Z</time>
      </trkpt>
      <trkpt lat="38.486027" lon="-0.702826">
        <ele>610</ele>
        <time>2019-04-19T09:35:40.000Z</time>
      </trkpt>
      <trkpt lat="38.486044" lon="-0.702838">
        <ele>610</ele>
        <time>2019-04-19T09:35:41.000Z</time>
      </trkpt>
      <trkpt lat="38.48606" lon="-0.702852">
        <ele>610</ele>
        <time>2019-04-19T09:35:42.000Z</time>
      </trkpt>
      <trkpt lat="38.486096" lon="-0.70286">
        <ele>611</ele>
        <time>2019-04-19T09:35:44.000Z</time>
      </trkpt>
      <trkpt lat="38.486121" lon="-0.702857">
        <ele>611</ele>
        <time>2019-04-19T09:35:45.000Z</time>
      </trkpt>
      <trkpt lat="38.486147" lon="-0.702854">
        <ele>611</ele>
        <time>2019-04-19T09:35:46.000Z</time>
      </trkpt>
      <trkpt lat="38.486169" lon="-0.702847">
        <ele>610.378946091971</ele>
        <time>2019-04-19T09:35:47.000Z</time>
      </trkpt>
      <trkpt lat="38.486189" lon="-0.702845">
        <ele>610</ele>
        <time>2019-04-19T09:35:48.000Z</time>
      </trkpt>
      <trkpt lat="38.486208" lon="-0.702844">
        <ele>610</ele>
        <time>2019-04-19T09:35:49.000Z</time>
      </trkpt>
      <trkpt lat="38.486226" lon="-0.702851">
        <ele>610</ele>
        <time>2019-04-19T09:35:50.000Z</time>
      </trkpt>
      <trkpt lat="38.486248" lon="-0.702863">
        <ele>610</ele>
        <time>2019-04-19T09:35:51.000Z</time>
      </trkpt>
      <trkpt lat="38.486267" lon="-0.702881">
        <ele>610</ele>
        <time>2019-04-19T09:35:52.000Z</time>
      </trkpt>
      <trkpt lat="38.486281" lon="-0.702901">
        <ele>610</ele>
        <time>2019-04-19T09:35:53.000Z</time>
      </trkpt>
      <trkpt lat="38.486292" lon="-0.702921">
        <ele>609.418607766383</ele>
        <time>2019-04-19T09:35:54.000Z</time>
      </trkpt>
      <trkpt lat="38.486304" lon="-0.702958">
        <ele>609</ele>
        <time>2019-04-19T09:35:56.000Z</time>
      </trkpt>
      <trkpt lat="38.486316" lon="-0.70298">
        <ele>608.382976115907</ele>
        <time>2019-04-19T09:35:57.000Z</time>
      </trkpt>
      <trkpt lat="38.486326" lon="-0.703016">
        <ele>607.650005333333</ele>
        <time>2019-04-19T09:35:59.000Z</time>
      </trkpt>
      <trkpt lat="38.486331" lon="-0.703045">
        <ele>608.846153846154</ele>
        <time>2019-04-19T09:36:01.000Z</time>
      </trkpt>
      <trkpt lat="38.486347" lon="-0.703075">
        <ele>610</ele>
        <time>2019-04-19T09:36:03.000Z</time>
      </trkpt>
      <trkpt lat="38.486367" lon="-0.703072">
        <ele>610</ele>
        <time>2019-04-19T09:36:06.000Z</time>
      </trkpt>
      <trkpt lat="38.48638" lon="-0.703043">
        <ele>611.64</ele>
        <time>2019-04-19T09:36:08.000Z</time>
      </trkpt>
      <trkpt lat="38.486391" lon="-0.703019">
        <ele>613.598129052324</ele>
        <time>2019-04-19T09:36:10.000Z</time>
      </trkpt>
      <trkpt lat="38.486402" lon="-0.702996">
        <ele>614</ele>
        <time>2019-04-19T09:36:12.000Z</time>
      </trkpt>
      <trkpt lat="38.486417" lon="-0.702981">
        <ele>615.64</ele>
        <time>2019-04-19T09:36:14.000Z</time>
      </trkpt>
      <trkpt lat="38.486435" lon="-0.702971">
        <ele>616.612901893856</ele>
        <time>2019-04-19T09:36:16.000Z</time>
      </trkpt>
      <trkpt lat="38.486449" lon="-0.702953">
        <ele>618</ele>
        <time>2019-04-19T09:36:18.000Z</time>
      </trkpt>
      <trkpt lat="38.486463" lon="-0.702923">
        <ele>618</ele>
        <time>2019-04-19T09:36:29.000Z</time>
      </trkpt>
      <trkpt lat="38.486478" lon="-0.702909">
        <ele>618</ele>
        <time>2019-04-19T09:36:31.000Z</time>
      </trkpt>
      <trkpt lat="38.486501" lon="-0.702904">
        <ele>618</ele>
        <time>2019-04-19T09:36:34.000Z</time>
      </trkpt>
      <trkpt lat="38.486522" lon="-0.702893">
        <ele>618.492960031729</ele>
        <time>2019-04-19T09:36:37.000Z</time>
      </trkpt>
      <trkpt lat="38.486546" lon="-0.702882">
        <ele>620</ele>
        <time>2019-04-19T09:36:40.000Z</time>
      </trkpt>
      <trkpt lat="38.486564" lon="-0.70288">
        <ele>620</ele>
        <time>2019-04-19T09:36:45.000Z</time>
      </trkpt>
      <trkpt lat="38.486565" lon="-0.70291">
        <ele>620</ele>
        <time>2019-04-19T09:36:49.000Z</time>
      </trkpt>
      <trkpt lat="38.486572" lon="-0.702937">
        <ele>621</ele>
        <time>2019-04-19T09:36:51.000Z</time>
      </trkpt>
      <trkpt lat="38.486589" lon="-0.702963">
        <ele>622</ele>
        <time>2019-04-19T09:36:53.000Z</time>
      </trkpt>
      <trkpt lat="38.486609" lon="-0.702977">
        <ele>622</ele>
        <time>2019-04-19T09:36:55.000Z</time>
      </trkpt>
      <trkpt lat="38.486627" lon="-0.702998">
        <ele>622</ele>
        <time>2019-04-19T09:36:57.000Z</time>
      </trkpt>
      <trkpt lat="38.486641" lon="-0.703024">
        <ele>622</ele>
        <time>2019-04-19T09:36:59.000Z</time>
      </trkpt>
      <trkpt lat="38.486652" lon="-0.70305">
        <ele>622</ele>
        <time>2019-04-19T09:37:01.000Z</time>
      </trkpt>
      <trkpt lat="38.486664" lon="-0.70308">
        <ele>622</ele>
        <time>2019-04-19T09:37:03.000Z</time>
      </trkpt>
      <trkpt lat="38.486677" lon="-0.703108">
        <ele>622</ele>
        <time>2019-04-19T09:37:05.000Z</time>
      </trkpt>
      <trkpt lat="38.486694" lon="-0.703138">
        <ele>621.423425085621</ele>
        <time>2019-04-19T09:37:07.000Z</time>
      </trkpt>
      <trkpt lat="38.486724" lon="-0.703146">
        <ele>621.36</ele>
        <time>2019-04-19T09:37:09.000Z</time>
      </trkpt>
      <trkpt lat="38.486757" lon="-0.703162">
        <ele>621</ele>
        <time>2019-04-19T09:37:11.000Z</time>
      </trkpt>
      <trkpt lat="38.486788" lon="-0.703184">
        <ele>621</ele>
        <time>2019-04-19T09:37:13.000Z</time>
      </trkpt>
      <trkpt lat="38.486812" lon="-0.703201">
        <ele>621.492960031729</ele>
        <time>2019-04-19T09:37:15.000Z</time>
      </trkpt>
      <trkpt lat="38.486829" lon="-0.703212">
        <ele>623.234047768185</ele>
        <time>2019-04-19T09:37:17.000Z</time>
      </trkpt>
      <trkpt lat="38.486843" lon="-0.703228">
        <ele>624</ele>
        <time>2019-04-19T09:37:19.000Z</time>
      </trkpt>
      <trkpt lat="38.486868" lon="-0.703252">
        <ele>624.592592592593</ele>
        <time>2019-04-19T09:37:21.000Z</time>
      </trkpt>
      <trkpt lat="38.486893" lon="-0.703266">
        <ele>625</ele>
        <time>2019-04-19T09:37:23.000Z</time>
      </trkpt>
      <trkpt lat="38.486918" lon="-0.703271">
        <ele>625</ele>
        <time>2019-04-19T09:37:25.000Z</time>
      </trkpt>
      <trkpt lat="38.486939" lon="-0.703286">
        <ele>625</ele>
        <time>2019-04-19T09:37:27.000Z</time>
      </trkpt>
      <trkpt lat="38.486973" lon="-0.703302">
        <ele>624</ele>
        <time>2019-04-19T09:37:29.000Z</time>
      </trkpt>
      <trkpt lat="38.487007" lon="-0.703306">
        <ele>624</ele>
        <time>2019-04-19T09:37:31.000Z</time>
      </trkpt>
      <trkpt lat="38.487026" lon="-0.703308">
        <ele>624</ele>
        <time>2019-04-19T09:37:32.000Z</time>
      </trkpt>
      <trkpt lat="38.487044" lon="-0.703308">
        <ele>624</ele>
        <time>2019-04-19T09:37:33.000Z</time>
      </trkpt>
      <trkpt lat="38.487063" lon="-0.70331">
        <ele>624</ele>
        <time>2019-04-19T09:37:34.000Z</time>
      </trkpt>
      <trkpt lat="38.487082" lon="-0.703308">
        <ele>624</ele>
        <time>2019-04-19T09:37:35.000Z</time>
      </trkpt>
      <trkpt lat="38.4871" lon="-0.703305">
        <ele>624</ele>
        <time>2019-04-19T09:37:36.000Z</time>
      </trkpt>
      <trkpt lat="38.487128" lon="-0.703313">
        <ele>623.633665373989</ele>
        <time>2019-04-19T09:37:38.000Z</time>
      </trkpt>
      <trkpt lat="38.487151" lon="-0.70334">
        <ele>624</ele>
        <time>2019-04-19T09:37:40.000Z</time>
      </trkpt>
      <trkpt lat="38.487168" lon="-0.703356">
        <ele>624</ele>
        <time>2019-04-19T09:37:41.000Z</time>
      </trkpt>
      <trkpt lat="38.487186" lon="-0.70337">
        <ele>624</ele>
        <time>2019-04-19T09:37:42.000Z</time>
      </trkpt>
      <trkpt lat="38.487214" lon="-0.70339">
        <ele>625</ele>
        <time>2019-04-19T09:37:44.000Z</time>
      </trkpt>
      <trkpt lat="38.487249" lon="-0.703392">
        <ele>625</ele>
        <time>2019-04-19T09:37:46.000Z</time>
      </trkpt>
      <trkpt lat="38.487285" lon="-0.703383">
        <ele>625</ele>
        <time>2019-04-19T09:37:48.000Z</time>
      </trkpt>
      <trkpt lat="38.487303" lon="-0.703382">
        <ele>625</ele>
        <time>2019-04-19T09:37:49.000Z</time>
      </trkpt>
      <trkpt lat="38.487323" lon="-0.703382">
        <ele>625</ele>
        <time>2019-04-19T09:37:50.000Z</time>
      </trkpt>
      <trkpt lat="38.487362" lon="-0.703378">
        <ele>625</ele>
        <time>2019-04-19T09:37:52.000Z</time>
      </trkpt>
      <trkpt lat="38.487383" lon="-0.703378">
        <ele>625</ele>
        <time>2019-04-19T09:37:53.000Z</time>
      </trkpt>
      <trkpt lat="38.487402" lon="-0.703382">
        <ele>625</ele>
        <time>2019-04-19T09:37:54.000Z</time>
      </trkpt>
      <trkpt lat="38.487421" lon="-0.703386">
        <ele>624.384615384615</ele>
        <time>2019-04-19T09:37:55.000Z</time>
      </trkpt>
      <trkpt lat="38.487454" lon="-0.703388">
        <ele>625.571428571429</ele>
        <time>2019-04-19T09:37:57.000Z</time>
      </trkpt>
      <trkpt lat="38.487474" lon="-0.70339">
        <ele>626</ele>
        <time>2019-04-19T09:37:58.000Z</time>
      </trkpt>
      <trkpt lat="38.487504" lon="-0.703394">
        <ele>626</ele>
        <time>2019-04-19T09:38:00.000Z</time>
      </trkpt>
      <trkpt lat="38.487533" lon="-0.703395">
        <ele>627</ele>
        <time>2019-04-19T09:38:02.000Z</time>
      </trkpt>
      <trkpt lat="38.487567" lon="-0.703397">
        <ele>627.64</ele>
        <time>2019-04-19T09:38:04.000Z</time>
      </trkpt>
      <trkpt lat="38.487599" lon="-0.703397">
        <ele>628</ele>
        <time>2019-04-19T09:38:06.000Z</time>
      </trkpt>
      <trkpt lat="38.487628" lon="-0.703393">
        <ele>628</ele>
        <time>2019-04-19T09:38:08.000Z</time>
      </trkpt>
      <trkpt lat="38.487661" lon="-0.703402">
        <ele>629</ele>
        <time>2019-04-19T09:38:10.000Z</time>
      </trkpt>
      <trkpt lat="38.487678" lon="-0.703407">
        <ele>629</ele>
        <time>2019-04-19T09:38:11.000Z</time>
      </trkpt>
      <trkpt lat="38.487698" lon="-0.703409">
        <ele>629</ele>
        <time>2019-04-19T09:38:12.000Z</time>
      </trkpt>
      <trkpt lat="38.487734" lon="-0.703405">
        <ele>629.625</ele>
        <time>2019-04-19T09:38:14.000Z</time>
      </trkpt>
      <trkpt lat="38.487753" lon="-0.703404">
        <ele>630</ele>
        <time>2019-04-19T09:38:15.000Z</time>
      </trkpt>
      <trkpt lat="38.487788" lon="-0.703402">
        <ele>630</ele>
        <time>2019-04-19T09:38:17.000Z</time>
      </trkpt>
      <trkpt lat="38.48781" lon="-0.703398">
        <ele>630</ele>
        <time>2019-04-19T09:38:18.000Z</time>
      </trkpt>
      <trkpt lat="38.487833" lon="-0.703388">
        <ele>630</ele>
        <time>2019-04-19T09:38:19.000Z</time>
      </trkpt>
      <trkpt lat="38.487856" lon="-0.70338">
        <ele>630</ele>
        <time>2019-04-19T09:38:20.000Z</time>
      </trkpt>
      <trkpt lat="38.487878" lon="-0.703372">
        <ele>630</ele>
        <time>2019-04-19T09:38:21.000Z</time>
      </trkpt>
      <trkpt lat="38.487898" lon="-0.703371">
        <ele>630</ele>
        <time>2019-04-19T09:38:22.000Z</time>
      </trkpt>
      <trkpt lat="38.48792" lon="-0.703375">
        <ele>630</ele>
        <time>2019-04-19T09:38:23.000Z</time>
      </trkpt>
      <trkpt lat="38.487943" lon="-0.703378">
        <ele>630</ele>
        <time>2019-04-19T09:38:24.000Z</time>
      </trkpt>
      <trkpt lat="38.487964" lon="-0.70338">
        <ele>630</ele>
        <time>2019-04-19T09:38:25.000Z</time>
      </trkpt>
      <trkpt lat="38.487982" lon="-0.703382">
        <ele>630</ele>
        <time>2019-04-19T09:38:26.000Z</time>
      </trkpt>
      <trkpt lat="38.488016" lon="-0.703378">
        <ele>630</ele>
        <time>2019-04-19T09:38:28.000Z</time>
      </trkpt>
      <trkpt lat="38.488052" lon="-0.703379">
        <ele>631</ele>
        <time>2019-04-19T09:38:30.000Z</time>
      </trkpt>
      <trkpt lat="38.488073" lon="-0.703379">
        <ele>630.514281012288</ele>
        <time>2019-04-19T09:38:31.000Z</time>
      </trkpt>
      <trkpt lat="38.488092" lon="-0.703377">
        <ele>630</ele>
        <time>2019-04-19T09:38:32.000Z</time>
      </trkpt>
      <trkpt lat="38.488126" lon="-0.703374">
        <ele>631.971419167261</ele>
        <time>2019-04-19T09:38:34.000Z</time>
      </trkpt>
      <trkpt lat="38.488144" lon="-0.703373">
        <ele>633</ele>
        <time>2019-04-19T09:38:35.000Z</time>
      </trkpt>
      <trkpt lat="38.488163" lon="-0.703374">
        <ele>633</ele>
        <time>2019-04-19T09:38:36.000Z</time>
      </trkpt>
      <trkpt lat="38.488199" lon="-0.703379">
        <ele>633</ele>
        <time>2019-04-19T09:38:38.000Z</time>
      </trkpt>
      <trkpt lat="38.488217" lon="-0.703381">
        <ele>632.387098106144</ele>
        <time>2019-04-19T09:38:39.000Z</time>
      </trkpt>
      <trkpt lat="38.488236" lon="-0.703383">
        <ele>632</ele>
        <time>2019-04-19T09:38:40.000Z</time>
      </trkpt>
      <trkpt lat="38.488256" lon="-0.703386">
        <ele>632</ele>
        <time>2019-04-19T09:38:41.000Z</time>
      </trkpt>
      <trkpt lat="38.488276" lon="-0.703387">
        <ele>632</ele>
        <time>2019-04-19T09:38:42.000Z</time>
      </trkpt>
      <trkpt lat="38.488297" lon="-0.703388">
        <ele>631.36</ele>
        <time>2019-04-19T09:38:43.000Z</time>
      </trkpt>
      <trkpt lat="38.488316" lon="-0.703391">
        <ele>631</ele>
        <time>2019-04-19T09:38:44.000Z</time>
      </trkpt>
      <trkpt lat="38.488337" lon="-0.703396">
        <ele>631</ele>
        <time>2019-04-19T09:38:45.000Z</time>
      </trkpt>
      <trkpt lat="38.488357" lon="-0.703403">
        <ele>631.64</ele>
        <time>2019-04-19T09:38:46.000Z</time>
      </trkpt>
      <trkpt lat="38.488376" lon="-0.70341">
        <ele>632.64</ele>
        <time>2019-04-19T09:38:47.000Z</time>
      </trkpt>
      <trkpt lat="38.488397" lon="-0.703416">
        <ele>633.592592592593</ele>
        <time>2019-04-19T09:38:48.000Z</time>
      </trkpt>
      <trkpt lat="38.488419" lon="-0.703423">
        <ele>634</ele>
        <time>2019-04-19T09:38:49.000Z</time>
      </trkpt>
      <trkpt lat="38.488438" lon="-0.70343">
        <ele>634</ele>
        <time>2019-04-19T09:38:50.000Z</time>
      </trkpt>
      <trkpt lat="38.48847" lon="-0.70345">
        <ele>634</ele>
        <time>2019-04-19T09:38:52.000Z</time>
      </trkpt>
      <trkpt lat="38.488498" lon="-0.703478">
        <ele>634</ele>
        <time>2019-04-19T09:38:54.000Z</time>
      </trkpt>
      <trkpt lat="38.488519" lon="-0.70351">
        <ele>635</ele>
        <time>2019-04-19T09:38:56.000Z</time>
      </trkpt>
      <trkpt lat="38.488534" lon="-0.703547">
        <ele>635</ele>
        <time>2019-04-19T09:38:58.000Z</time>
      </trkpt>
      <trkpt lat="38.488559" lon="-0.703578">
        <ele>636</ele>
        <time>2019-04-19T09:39:00.000Z</time>
      </trkpt>
      <trkpt lat="38.488574" lon="-0.703593">
        <ele>636</ele>
        <time>2019-04-19T09:39:01.000Z</time>
      </trkpt>
      <trkpt lat="38.488599" lon="-0.703618">
        <ele>636</ele>
        <time>2019-04-19T09:39:03.000Z</time>
      </trkpt>
      <trkpt lat="38.488623" lon="-0.703644">
        <ele>636</ele>
        <time>2019-04-19T09:39:05.000Z</time>
      </trkpt>
      <trkpt lat="38.488638" lon="-0.703656">
        <ele>636</ele>
        <time>2019-04-19T09:39:06.000Z</time>
      </trkpt>
      <trkpt lat="38.488668" lon="-0.703681">
        <ele>636</ele>
        <time>2019-04-19T09:39:08.000Z</time>
      </trkpt>
      <trkpt lat="38.488682" lon="-0.703695">
        <ele>636.492960031729</ele>
        <time>2019-04-19T09:39:09.000Z</time>
      </trkpt>
      <trkpt lat="38.488707" lon="-0.703717">
        <ele>637</ele>
        <time>2019-04-19T09:39:11.000Z</time>
      </trkpt>
      <trkpt lat="38.488735" lon="-0.703735">
        <ele>637.64</ele>
        <time>2019-04-19T09:39:13.000Z</time>
      </trkpt>
      <trkpt lat="38.488761" lon="-0.703743">
        <ele>638</ele>
        <time>2019-04-19T09:39:15.000Z</time>
      </trkpt>
      <trkpt lat="38.488785" lon="-0.703754">
        <ele>638</ele>
        <time>2019-04-19T09:39:17.000Z</time>
      </trkpt>
      <trkpt lat="38.48881" lon="-0.703757">
        <ele>638</ele>
        <time>2019-04-19T09:39:19.000Z</time>
      </trkpt>
      <trkpt lat="38.488836" lon="-0.703769">
        <ele>639</ele>
        <time>2019-04-19T09:39:21.000Z</time>
      </trkpt>
      <trkpt lat="38.488869" lon="-0.703776">
        <ele>640</ele>
        <time>2019-04-19T09:39:23.000Z</time>
      </trkpt>
      <trkpt lat="38.488898" lon="-0.703773">
        <ele>641</ele>
        <time>2019-04-19T09:39:25.000Z</time>
      </trkpt>
      <trkpt lat="38.488914" lon="-0.703761">
        <ele>642</ele>
        <time>2019-04-19T09:39:27.000Z</time>
      </trkpt>
      <trkpt lat="38.488938" lon="-0.703753">
        <ele>642.633665373989</ele>
        <time>2019-04-19T09:39:30.000Z</time>
      </trkpt>
      <trkpt lat="38.48895" lon="-0.703773">
        <ele>643</ele>
        <time>2019-04-19T09:39:50.000Z</time>
      </trkpt>
      <trkpt lat="38.488968" lon="-0.703786">
        <ele>644</ele>
        <time>2019-04-19T09:39:52.000Z</time>
      </trkpt>
      <trkpt lat="38.488988" lon="-0.703801">
        <ele>644</ele>
        <time>2019-04-19T09:39:54.000Z</time>
      </trkpt>
      <trkpt lat="38.489009" lon="-0.703815">
        <ele>645</ele>
        <time>2019-04-19T09:39:56.000Z</time>
      </trkpt>
      <trkpt lat="38.489033" lon="-0.703828">
        <ele>645</ele>
        <time>2019-04-19T09:39:58.000Z</time>
      </trkpt>
      <trkpt lat="38.489061" lon="-0.703827">
        <ele>645</ele>
        <time>2019-04-19T09:40:00.000Z</time>
      </trkpt>
      <trkpt lat="38.489082" lon="-0.703831">
        <ele>644.36363518825</ele>
        <time>2019-04-19T09:40:02.000Z</time>
      </trkpt>
      <trkpt lat="38.489103" lon="-0.703834">
        <ele>644</ele>
        <time>2019-04-19T09:40:04.000Z</time>
      </trkpt>
      <trkpt lat="38.489124" lon="-0.703832">
        <ele>645</ele>
        <time>2019-04-19T09:40:06.000Z</time>
      </trkpt>
      <trkpt lat="38.489146" lon="-0.703828">
        <ele>646</ele>
        <time>2019-04-19T09:40:14.000Z</time>
      </trkpt>
      <trkpt lat="38.489168" lon="-0.703824">
        <ele>646</ele>
        <time>2019-04-19T09:40:16.000Z</time>
      </trkpt>
      <trkpt lat="38.489187" lon="-0.703813">
        <ele>646</ele>
        <time>2019-04-19T09:40:18.000Z</time>
      </trkpt>
      <trkpt lat="38.489201" lon="-0.703796">
        <ele>646</ele>
        <time>2019-04-19T09:40:20.000Z</time>
      </trkpt>
      <trkpt lat="38.489219" lon="-0.703781">
        <ele>647</ele>
        <time>2019-04-19T09:40:22.000Z</time>
      </trkpt>
      <trkpt lat="38.489233" lon="-0.703763">
        <ele>647.450702194018</ele>
        <time>2019-04-19T09:40:24.000Z</time>
      </trkpt>
      <trkpt lat="38.489256" lon="-0.70375">
        <ele>648</ele>
        <time>2019-04-19T09:40:27.000Z</time>
      </trkpt>
      <trkpt lat="38.489276" lon="-0.703752">
        <ele>649</ele>
        <time>2019-04-19T09:40:30.000Z</time>
      </trkpt>
      <trkpt lat="38.489283" lon="-0.703779">
        <ele>650</ele>
        <time>2019-04-19T09:40:33.000Z</time>
      </trkpt>
      <trkpt lat="38.489296" lon="-0.703801">
        <ele>650</ele>
        <time>2019-04-19T09:40:35.000Z</time>
      </trkpt>
      <trkpt lat="38.489318" lon="-0.703809">
        <ele>650</ele>
        <time>2019-04-19T09:40:37.000Z</time>
      </trkpt>
      <trkpt lat="38.489343" lon="-0.703802">
        <ele>650.608695652174</ele>
        <time>2019-04-19T09:40:40.000Z</time>
      </trkpt>
      <trkpt lat="38.489363" lon="-0.703801">
        <ele>651</ele>
        <time>2019-04-19T09:40:42.000Z</time>
      </trkpt>
      <trkpt lat="38.489384" lon="-0.70379">
        <ele>652</ele>
        <time>2019-04-19T09:40:44.000Z</time>
      </trkpt>
      <trkpt lat="38.489407" lon="-0.703776">
        <ele>652</ele>
        <time>2019-04-19T09:40:46.000Z</time>
      </trkpt>
      <trkpt lat="38.489422" lon="-0.703758">
        <ele>653</ele>
        <time>2019-04-19T09:40:48.000Z</time>
      </trkpt>
      <trkpt lat="38.489445" lon="-0.703745">
        <ele>653</ele>
        <time>2019-04-19T09:40:51.000Z</time>
      </trkpt>
      <trkpt lat="38.489465" lon="-0.703737">
        <ele>653</ele>
        <time>2019-04-19T09:40:53.000Z</time>
      </trkpt>
      <trkpt lat="38.489489" lon="-0.703725">
        <ele>653</ele>
        <time>2019-04-19T09:40:55.000Z</time>
      </trkpt>
      <trkpt lat="38.489518" lon="-0.703724">
        <ele>653</ele>
        <time>2019-04-19T09:40:57.000Z</time>
      </trkpt>
      <trkpt lat="38.489547" lon="-0.703729">
        <ele>652</ele>
        <time>2019-04-19T09:40:59.000Z</time>
      </trkpt>
      <trkpt lat="38.489569" lon="-0.703737">
        <ele>652</ele>
        <time>2019-04-19T09:41:02.000Z</time>
      </trkpt>
      <trkpt lat="38.489597" lon="-0.703733">
        <ele>652</ele>
        <time>2019-04-19T09:41:04.000Z</time>
      </trkpt>
      <trkpt lat="38.489626" lon="-0.703714">
        <ele>651</ele>
        <time>2019-04-19T09:41:06.000Z</time>
      </trkpt>
      <trkpt lat="38.489658" lon="-0.703698">
        <ele>650.378946091971</ele>
        <time>2019-04-19T09:41:08.000Z</time>
      </trkpt>
      <trkpt lat="38.489675" lon="-0.703708">
        <ele>650</ele>
        <time>2019-04-19T09:41:09.000Z</time>
      </trkpt>
      <trkpt lat="38.489695" lon="-0.703728">
        <ele>649.413791581456</ele>
        <time>2019-04-19T09:41:10.000Z</time>
      </trkpt>
      <trkpt lat="38.489715" lon="-0.703742">
        <ele>649</ele>
        <time>2019-04-19T09:41:11.000Z</time>
      </trkpt>
      <trkpt lat="38.489738" lon="-0.703751">
        <ele>649</ele>
        <time>2019-04-19T09:41:12.000Z</time>
      </trkpt>
      <trkpt lat="38.489761" lon="-0.703759">
        <ele>649</ele>
        <time>2019-04-19T09:41:13.000Z</time>
      </trkpt>
      <trkpt lat="38.489784" lon="-0.703764">
        <ele>649</ele>
        <time>2019-04-19T09:41:14.000Z</time>
      </trkpt>
      <trkpt lat="38.489806" lon="-0.703767">
        <ele>649</ele>
        <time>2019-04-19T09:41:15.000Z</time>
      </trkpt>
      <trkpt lat="38.48983" lon="-0.703775">
        <ele>649</ele>
        <time>2019-04-19T09:41:16.000Z</time>
      </trkpt>
      <trkpt lat="38.489852" lon="-0.703787">
        <ele>649.609525667126</ele>
        <time>2019-04-19T09:41:17.000Z</time>
      </trkpt>
      <trkpt lat="38.489875" lon="-0.703802">
        <ele>650</ele>
        <time>2019-04-19T09:41:18.000Z</time>
      </trkpt>
      <trkpt lat="38.489897" lon="-0.703814">
        <ele>649.521741550106</ele>
        <time>2019-04-19T09:41:19.000Z</time>
      </trkpt>
      <trkpt lat="38.48992" lon="-0.703827">
        <ele>649</ele>
        <time>2019-04-19T09:41:20.000Z</time>
      </trkpt>
      <trkpt lat="38.489946" lon="-0.703836">
        <ele>649</ele>
        <time>2019-04-19T09:41:21.000Z</time>
      </trkpt>
      <trkpt lat="38.48997" lon="-0.70384">
        <ele>648.507039968271</ele>
        <time>2019-04-19T09:41:22.000Z</time>
      </trkpt>
      <trkpt lat="38.489994" lon="-0.703831">
        <ele>648</ele>
        <time>2019-04-19T09:41:23.000Z</time>
      </trkpt>
      <trkpt lat="38.490012" lon="-0.703812">
        <ele>648.625</ele>
        <time>2019-04-19T09:41:24.000Z</time>
      </trkpt>
      <trkpt lat="38.490032" lon="-0.703792">
        <ele>649</ele>
        <time>2019-04-19T09:41:25.000Z</time>
      </trkpt>
      <trkpt lat="38.490052" lon="-0.703772">
        <ele>648.409090909091</ele>
        <time>2019-04-19T09:41:26.000Z</time>
      </trkpt>
      <trkpt lat="38.490071" lon="-0.703747">
        <ele>648</ele>
        <time>2019-04-19T09:41:27.000Z</time>
      </trkpt>
      <trkpt lat="38.490087" lon="-0.703721">
        <ele>648</ele>
        <time>2019-04-19T09:41:28.000Z</time>
      </trkpt>
      <trkpt lat="38.490102" lon="-0.703694">
        <ele>648</ele>
        <time>2019-04-19T09:41:29.000Z</time>
      </trkpt>
      <trkpt lat="38.490119" lon="-0.703668">
        <ele>648</ele>
        <time>2019-04-19T09:41:30.000Z</time>
      </trkpt>
      <trkpt lat="38.490135" lon="-0.703646">
        <ele>648</ele>
        <time>2019-04-19T09:41:31.000Z</time>
      </trkpt>
      <trkpt lat="38.490154" lon="-0.703625">
        <ele>648</ele>
        <time>2019-04-19T09:41:32.000Z</time>
      </trkpt>
      <trkpt lat="38.490173" lon="-0.703609">
        <ele>648</ele>
        <time>2019-04-19T09:41:33.000Z</time>
      </trkpt>
      <trkpt lat="38.490191" lon="-0.703589">
        <ele>647.375</ele>
        <time>2019-04-19T09:41:34.000Z</time>
      </trkpt>
      <trkpt lat="38.490205" lon="-0.703563">
        <ele>647</ele>
        <time>2019-04-19T09:41:35.000Z</time>
      </trkpt>
      <trkpt lat="38.490217" lon="-0.703538">
        <ele>647</ele>
        <time>2019-04-19T09:41:36.000Z</time>
      </trkpt>
      <trkpt lat="38.490229" lon="-0.703521">
        <ele>647</ele>
        <time>2019-04-19T09:41:37.000Z</time>
      </trkpt>
      <trkpt lat="38.490246" lon="-0.703508">
        <ele>647</ele>
        <time>2019-04-19T09:41:38.000Z</time>
      </trkpt>
      <trkpt lat="38.490278" lon="-0.70349">
        <ele>647</ele>
        <time>2019-04-19T09:41:40.000Z</time>
      </trkpt>
      <trkpt lat="38.490297" lon="-0.703477">
        <ele>647</ele>
        <time>2019-04-19T09:41:41.000Z</time>
      </trkpt>
      <trkpt lat="38.490315" lon="-0.703472">
        <ele>647</ele>
        <time>2019-04-19T09:41:42.000Z</time>
      </trkpt>
      <trkpt lat="38.490334" lon="-0.703476">
        <ele>647</ele>
        <time>2019-04-19T09:41:43.000Z</time>
      </trkpt>
      <trkpt lat="38.490353" lon="-0.703477">
        <ele>646.36</ele>
        <time>2019-04-19T09:41:44.000Z</time>
      </trkpt>
      <trkpt lat="38.490376" lon="-0.703474">
        <ele>646</ele>
        <time>2019-04-19T09:41:45.000Z</time>
      </trkpt>
      <trkpt lat="38.490401" lon="-0.703471">
        <ele>646.63636481175</ele>
        <time>2019-04-19T09:41:46.000Z</time>
      </trkpt>
      <trkpt lat="38.490424" lon="-0.703464">
        <ele>647</ele>
        <time>2019-04-19T09:41:47.000Z</time>
      </trkpt>
      <trkpt lat="38.490446" lon="-0.703456">
        <ele>647.604396995527</ele>
        <time>2019-04-19T09:41:48.000Z</time>
      </trkpt>
      <trkpt lat="38.490472" lon="-0.703449">
        <ele>648</ele>
        <time>2019-04-19T09:41:49.000Z</time>
      </trkpt>
      <trkpt lat="38.490499" lon="-0.703447">
        <ele>648</ele>
        <time>2019-04-19T09:41:50.000Z</time>
      </trkpt>
      <trkpt lat="38.490523" lon="-0.703443">
        <ele>648</ele>
        <time>2019-04-19T09:41:51.000Z</time>
      </trkpt>
      <trkpt lat="38.49055" lon="-0.703442">
        <ele>648</ele>
        <time>2019-04-19T09:41:52.000Z</time>
      </trkpt>
      <trkpt lat="38.490572" lon="-0.703446">
        <ele>648</ele>
        <time>2019-04-19T09:41:53.000Z</time>
      </trkpt>
      <trkpt lat="38.490592" lon="-0.703456">
        <ele>648</ele>
        <time>2019-04-19T09:41:54.000Z</time>
      </trkpt>
      <trkpt lat="38.490609" lon="-0.703469">
        <ele>648</ele>
        <time>2019-04-19T09:41:55.000Z</time>
      </trkpt>
      <trkpt lat="38.490625" lon="-0.703485">
        <ele>648</ele>
        <time>2019-04-19T09:41:56.000Z</time>
      </trkpt>
      <trkpt lat="38.490642" lon="-0.703502">
        <ele>648</ele>
        <time>2019-04-19T09:41:57.000Z</time>
      </trkpt>
      <trkpt lat="38.490659" lon="-0.703523">
        <ele>647.36</ele>
        <time>2019-04-19T09:41:58.000Z</time>
      </trkpt>
      <trkpt lat="38.490675" lon="-0.703543">
        <ele>647</ele>
        <time>2019-04-19T09:41:59.000Z</time>
      </trkpt>
      <trkpt lat="38.490694" lon="-0.703563">
        <ele>647</ele>
        <time>2019-04-19T09:42:00.000Z</time>
      </trkpt>
      <trkpt lat="38.490715" lon="-0.703577">
        <ele>647</ele>
        <time>2019-04-19T09:42:01.000Z</time>
      </trkpt>
      <trkpt lat="38.490736" lon="-0.703586">
        <ele>647</ele>
        <time>2019-04-19T09:42:02.000Z</time>
      </trkpt>
      <trkpt lat="38.490756" lon="-0.703588">
        <ele>647</ele>
        <time>2019-04-19T09:42:03.000Z</time>
      </trkpt>
      <trkpt lat="38.490775" lon="-0.703576">
        <ele>647</ele>
        <time>2019-04-19T09:42:04.000Z</time>
      </trkpt>
      <trkpt lat="38.490795" lon="-0.703559">
        <ele>646.378946091971</ele>
        <time>2019-04-19T09:42:05.000Z</time>
      </trkpt>
      <trkpt lat="38.490815" lon="-0.703545">
        <ele>646</ele>
        <time>2019-04-19T09:42:06.000Z</time>
      </trkpt>
      <trkpt lat="38.490841" lon="-0.703521">
        <ele>646</ele>
        <time>2019-04-19T09:42:08.000Z</time>
      </trkpt>
      <trkpt lat="38.49087" lon="-0.703492">
        <ele>646</ele>
        <time>2019-04-19T09:42:10.000Z</time>
      </trkpt>
      <trkpt lat="38.490886" lon="-0.703476">
        <ele>646</ele>
        <time>2019-04-19T09:42:11.000Z</time>
      </trkpt>
      <trkpt lat="38.490905" lon="-0.703464">
        <ele>646</ele>
        <time>2019-04-19T09:42:12.000Z</time>
      </trkpt>
      <trkpt lat="38.490925" lon="-0.703463">
        <ele>646</ele>
        <time>2019-04-19T09:42:13.000Z</time>
      </trkpt>
      <trkpt lat="38.490944" lon="-0.703466">
        <ele>645.372552956531</ele>
        <time>2019-04-19T09:42:14.000Z</time>
      </trkpt>
      <trkpt lat="38.490964" lon="-0.703475">
        <ele>645</ele>
        <time>2019-04-19T09:42:15.000Z</time>
      </trkpt>
      <trkpt lat="38.490983" lon="-0.703488">
        <ele>645</ele>
        <time>2019-04-19T09:42:16.000Z</time>
      </trkpt>
      <trkpt lat="38.491001" lon="-0.703496">
        <ele>645</ele>
        <time>2019-04-19T09:42:17.000Z</time>
      </trkpt>
      <trkpt lat="38.491023" lon="-0.703501">
        <ele>644.507689884012</ele>
        <time>2019-04-19T09:42:18.000Z</time>
      </trkpt>
      <trkpt lat="38.491042" lon="-0.703507">
        <ele>644</ele>
        <time>2019-04-19T09:42:19.000Z</time>
      </trkpt>
      <trkpt lat="38.491063" lon="-0.703511">
        <ele>644</ele>
        <time>2019-04-19T09:42:20.000Z</time>
      </trkpt>
      <trkpt lat="38.491084" lon="-0.703511">
        <ele>644</ele>
        <time>2019-04-19T09:42:21.000Z</time>
      </trkpt>
      <trkpt lat="38.491111" lon="-0.703517">
        <ele>643.36</ele>
        <time>2019-04-19T09:42:22.000Z</time>
      </trkpt>
      <trkpt lat="38.49114" lon="-0.703525">
        <ele>643</ele>
        <time>2019-04-19T09:42:23.000Z</time>
      </trkpt>
      <trkpt lat="38.491169" lon="-0.703529">
        <ele>643</ele>
        <time>2019-04-19T09:42:24.000Z</time>
      </trkpt>
      <trkpt lat="38.491195" lon="-0.703532">
        <ele>643</ele>
        <time>2019-04-19T09:42:25.000Z</time>
      </trkpt>
      <trkpt lat="38.491218" lon="-0.703531">
        <ele>643</ele>
        <time>2019-04-19T09:42:26.000Z</time>
      </trkpt>
      <trkpt lat="38.491243" lon="-0.703536">
        <ele>643</ele>
        <time>2019-04-19T09:42:27.000Z</time>
      </trkpt>
      <trkpt lat="38.491264" lon="-0.703544">
        <ele>642.390474332874</ele>
        <time>2019-04-19T09:42:28.000Z</time>
      </trkpt>
      <trkpt lat="38.491288" lon="-0.703557">
        <ele>642.621053908029</ele>
        <time>2019-04-19T09:42:29.000Z</time>
      </trkpt>
      <trkpt lat="38.491309" lon="-0.703567">
        <ele>643</ele>
        <time>2019-04-19T09:42:30.000Z</time>
      </trkpt>
      <trkpt lat="38.491327" lon="-0.703579">
        <ele>643</ele>
        <time>2019-04-19T09:42:31.000Z</time>
      </trkpt>
      <trkpt lat="38.491344" lon="-0.703587">
        <ele>643</ele>
        <time>2019-04-19T09:42:32.000Z</time>
      </trkpt>
      <trkpt lat="38.491396" lon="-0.703622">
        <ele>643</ele>
        <time>2019-04-19T09:42:35.000Z</time>
      </trkpt>
      <trkpt lat="38.491413" lon="-0.703639">
        <ele>643</ele>
        <time>2019-04-19T09:42:36.000Z</time>
      </trkpt>
      <trkpt lat="38.491441" lon="-0.703647">
        <ele>644</ele>
        <time>2019-04-19T09:42:38.000Z</time>
      </trkpt>
      <trkpt lat="38.491485" lon="-0.703654">
        <ele>646</ele>
        <time>2019-04-19T09:42:41.000Z</time>
      </trkpt>
      <trkpt lat="38.491538" lon="-0.703675">
        <ele>646</ele>
        <time>2019-04-19T09:42:44.000Z</time>
      </trkpt>
      <trkpt lat="38.491651" lon="-0.703683">
        <ele>645.525927049654</ele>
        <time>2019-04-19T09:42:49.000Z</time>
      </trkpt>
      <trkpt lat="38.491675" lon="-0.703684">
        <ele>645</ele>
        <time>2019-04-19T09:42:50.000Z</time>
      </trkpt>
      <trkpt lat="38.491693" lon="-0.703681">
        <ele>645</ele>
        <time>2019-04-19T09:42:51.000Z</time>
      </trkpt>
      <trkpt lat="38.491725" lon="-0.703672">
        <ele>645</ele>
        <time>2019-04-19T09:42:53.000Z</time>
      </trkpt>
      <trkpt lat="38.491783" lon="-0.703683">
        <ele>645</ele>
        <time>2019-04-19T09:42:56.000Z</time>
      </trkpt>
      <trkpt lat="38.491805" lon="-0.703683">
        <ele>645</ele>
        <time>2019-04-19T09:42:57.000Z</time>
      </trkpt>
      <trkpt lat="38.491849" lon="-0.703679">
        <ele>643.782608695652</ele>
        <time>2019-04-19T09:42:59.000Z</time>
      </trkpt>
      <trkpt lat="38.491949" lon="-0.703689">
        <ele>642</ele>
        <time>2019-04-19T09:43:04.000Z</time>
      </trkpt>
      <trkpt lat="38.492045" lon="-0.703673">
        <ele>642</ele>
        <time>2019-04-19T09:43:10.000Z</time>
      </trkpt>
      <trkpt lat="38.492136" lon="-0.703664">
        <ele>642</ele>
        <time>2019-04-19T09:43:20.000Z</time>
      </trkpt>
      <trkpt lat="38.492156" lon="-0.703659">
        <ele>642</ele>
        <time>2019-04-19T09:43:22.000Z</time>
      </trkpt>
      <trkpt lat="38.492176" lon="-0.703654">
        <ele>642</ele>
        <time>2019-04-19T09:43:24.000Z</time>
      </trkpt>
      <trkpt lat="38.492194" lon="-0.703649">
        <ele>643</ele>
        <time>2019-04-19T09:43:26.000Z</time>
      </trkpt>
      <trkpt lat="38.492216" lon="-0.703653">
        <ele>643</ele>
        <time>2019-04-19T09:43:28.000Z</time>
      </trkpt>
      <trkpt lat="38.492239" lon="-0.703661">
        <ele>644</ele>
        <time>2019-04-19T09:43:30.000Z</time>
      </trkpt>
      <trkpt lat="38.492261" lon="-0.703685">
        <ele>643</ele>
        <time>2019-04-19T09:43:32.000Z</time>
      </trkpt>
      <trkpt lat="38.492289" lon="-0.703711">
        <ele>642.462811141319</ele>
        <time>2019-04-19T09:43:34.000Z</time>
      </trkpt>
      <trkpt lat="38.492357" lon="-0.703796">
        <ele>645.64</ele>
        <time>2019-04-19T09:43:40.000Z</time>
      </trkpt>
      <trkpt lat="38.492384" lon="-0.703811">
        <ele>647</ele>
        <time>2019-04-19T09:43:43.000Z</time>
      </trkpt>
      <trkpt lat="38.492407" lon="-0.703812">
        <ele>646.36</ele>
        <time>2019-04-19T09:43:45.000Z</time>
      </trkpt>
      <trkpt lat="38.492434" lon="-0.703836">
        <ele>645</ele>
        <time>2019-04-19T09:43:48.000Z</time>
      </trkpt>
      <trkpt lat="38.492464" lon="-0.703859">
        <ele>645</ele>
        <time>2019-04-19T09:43:50.000Z</time>
      </trkpt>
      <trkpt lat="38.492497" lon="-0.703891">
        <ele>644</ele>
        <time>2019-04-19T09:43:52.000Z</time>
      </trkpt>
      <trkpt lat="38.492512" lon="-0.703906">
        <ele>644</ele>
        <time>2019-04-19T09:43:53.000Z</time>
      </trkpt>
      <trkpt lat="38.492533" lon="-0.703925">
        <ele>645</ele>
        <time>2019-04-19T09:43:55.000Z</time>
      </trkpt>
      <trkpt lat="38.492559" lon="-0.703947">
        <ele>646</ele>
        <time>2019-04-19T09:43:57.000Z</time>
      </trkpt>
      <trkpt lat="38.492575" lon="-0.70396">
        <ele>646</ele>
        <time>2019-04-19T09:43:58.000Z</time>
      </trkpt>
      <trkpt lat="38.492591" lon="-0.703973">
        <ele>646</ele>
        <time>2019-04-19T09:43:59.000Z</time>
      </trkpt>
      <trkpt lat="38.492618" lon="-0.703992">
        <ele>646</ele>
        <time>2019-04-19T09:44:01.000Z</time>
      </trkpt>
      <trkpt lat="38.492644" lon="-0.704008">
        <ele>647.633665373989</ele>
        <time>2019-04-19T09:44:03.000Z</time>
      </trkpt>
      <trkpt lat="38.492667" lon="-0.704028">
        <ele>648</ele>
        <time>2019-04-19T09:44:05.000Z</time>
      </trkpt>
      <trkpt lat="38.49269" lon="-0.704048">
        <ele>648</ele>
        <time>2019-04-19T09:44:07.000Z</time>
      </trkpt>
      <trkpt lat="38.492712" lon="-0.704071">
        <ele>648.63636481175</ele>
        <time>2019-04-19T09:44:09.000Z</time>
      </trkpt>
      <trkpt lat="38.49272" lon="-0.704097">
        <ele>651</ele>
        <time>2019-04-19T09:44:13.000Z</time>
      </trkpt>
      <trkpt lat="38.492738" lon="-0.70412">
        <ele>651</ele>
        <time>2019-04-19T09:44:15.000Z</time>
      </trkpt>
      <trkpt lat="38.492751" lon="-0.704138">
        <ele>651</ele>
        <time>2019-04-19T09:44:17.000Z</time>
      </trkpt>
      <trkpt lat="38.492758" lon="-0.704163">
        <ele>651</ele>
        <time>2019-04-19T09:44:20.000Z</time>
      </trkpt>
      <trkpt lat="38.492767" lon="-0.704185">
        <ele>651.632650662208</ele>
        <time>2019-04-19T09:44:23.000Z</time>
      </trkpt>
      <trkpt lat="38.492775" lon="-0.704211">
        <ele>654</ele>
        <time>2019-04-19T09:44:27.000Z</time>
      </trkpt>
      <trkpt lat="38.492783" lon="-0.704234">
        <ele>654</ele>
        <time>2019-04-19T09:44:30.000Z</time>
      </trkpt>
      <trkpt lat="38.492795" lon="-0.704266">
        <ele>656</ele>
        <time>2019-04-19T09:44:33.000Z</time>
      </trkpt>
      <trkpt lat="38.492801" lon="-0.704292">
        <ele>656</ele>
        <time>2019-04-19T09:44:35.000Z</time>
      </trkpt>
      <trkpt lat="38.492802" lon="-0.704324">
        <ele>656.64</ele>
        <time>2019-04-19T09:44:37.000Z</time>
      </trkpt>
      <trkpt lat="38.4928" lon="-0.704347">
        <ele>657</ele>
        <time>2019-04-19T09:44:39.000Z</time>
      </trkpt>
      <trkpt lat="38.49279" lon="-0.704377">
        <ele>657</ele>
        <time>2019-04-19T09:44:42.000Z</time>
      </trkpt>
      <trkpt lat="38.492785" lon="-0.704401">
        <ele>657</ele>
        <time>2019-04-19T09:44:44.000Z</time>
      </trkpt>
      <trkpt lat="38.492771" lon="-0.704424">
        <ele>659</ele>
        <time>2019-04-19T09:44:47.000Z</time>
      </trkpt>
      <trkpt lat="38.49275" lon="-0.704441">
        <ele>659</ele>
        <time>2019-04-19T09:44:50.000Z</time>
      </trkpt>
      <trkpt lat="38.492748" lon="-0.704468">
        <ele>660</ele>
        <time>2019-04-19T09:44:53.000Z</time>
      </trkpt>
      <trkpt lat="38.492747" lon="-0.704499">
        <ele>660</ele>
        <time>2019-04-19T09:44:57.000Z</time>
      </trkpt>
      <trkpt lat="38.492735" lon="-0.704529">
        <ele>661</ele>
        <time>2019-04-19T09:45:00.000Z</time>
      </trkpt>
      <trkpt lat="38.492723" lon="-0.70455">
        <ele>661</ele>
        <time>2019-04-19T09:45:02.000Z</time>
      </trkpt>
      <trkpt lat="38.49271" lon="-0.704582">
        <ele>662</ele>
        <time>2019-04-19T09:45:05.000Z</time>
      </trkpt>
      <trkpt lat="38.492702" lon="-0.704604">
        <ele>663</ele>
        <time>2019-04-19T09:45:07.000Z</time>
      </trkpt>
      <trkpt lat="38.492702" lon="-0.704631">
        <ele>663</ele>
        <time>2019-04-19T09:45:09.000Z</time>
      </trkpt>
      <trkpt lat="38.492701" lon="-0.704661">
        <ele>663</ele>
        <time>2019-04-19T09:45:11.000Z</time>
      </trkpt>
      <trkpt lat="38.492705" lon="-0.704686">
        <ele>664</ele>
        <time>2019-04-19T09:45:13.000Z</time>
      </trkpt>
      <trkpt lat="38.49271" lon="-0.70471">
        <ele>664</ele>
        <time>2019-04-19T09:45:15.000Z</time>
      </trkpt>
      <trkpt lat="38.492713" lon="-0.704742">
        <ele>663.590909090909</ele>
        <time>2019-04-19T09:45:19.000Z</time>
      </trkpt>
      <trkpt lat="38.492711" lon="-0.70477">
        <ele>664</ele>
        <time>2019-04-19T09:45:21.000Z</time>
      </trkpt>
      <trkpt lat="38.49271" lon="-0.704804">
        <ele>664.586208418544</ele>
        <time>2019-04-19T09:45:24.000Z</time>
      </trkpt>
      <trkpt lat="38.492709" lon="-0.70483">
        <ele>666</ele>
        <time>2019-04-19T09:45:26.000Z</time>
      </trkpt>
      <trkpt lat="38.492703" lon="-0.704856">
        <ele>666</ele>
        <time>2019-04-19T09:45:28.000Z</time>
      </trkpt>
      <trkpt lat="38.492695" lon="-0.704885">
        <ele>667</ele>
        <time>2019-04-19T09:45:30.000Z</time>
      </trkpt>
      <trkpt lat="38.492688" lon="-0.704914">
        <ele>667</ele>
        <time>2019-04-19T09:45:32.000Z</time>
      </trkpt>
      <trkpt lat="38.492681" lon="-0.704939">
        <ele>667</ele>
        <time>2019-04-19T09:45:34.000Z</time>
      </trkpt>
      <trkpt lat="38.492678" lon="-0.704962">
        <ele>667</ele>
        <time>2019-04-19T09:45:36.000Z</time>
      </trkpt>
      <trkpt lat="38.492674" lon="-0.704987">
        <ele>668</ele>
        <time>2019-04-19T09:45:38.000Z</time>
      </trkpt>
      <trkpt lat="38.492673" lon="-0.705017">
        <ele>668</ele>
        <time>2019-04-19T09:45:40.000Z</time>
      </trkpt>
      <trkpt lat="38.492672" lon="-0.705047">
        <ele>669</ele>
        <time>2019-04-19T09:45:44.000Z</time>
      </trkpt>
      <trkpt lat="38.49267" lon="-0.705076">
        <ele>669</ele>
        <time>2019-04-19T09:45:46.000Z</time>
      </trkpt>
      <trkpt lat="38.492664" lon="-0.705107">
        <ele>669</ele>
        <time>2019-04-19T09:45:48.000Z</time>
      </trkpt>
      <trkpt lat="38.492666" lon="-0.705143">
        <ele>669</ele>
        <time>2019-04-19T09:45:50.000Z</time>
      </trkpt>
      <trkpt lat="38.492666" lon="-0.705168">
        <ele>669</ele>
        <time>2019-04-19T09:45:51.000Z</time>
      </trkpt>
      <trkpt lat="38.492666" lon="-0.705195">
        <ele>668.428571428571</ele>
        <time>2019-04-19T09:45:52.000Z</time>
      </trkpt>
      <trkpt lat="38.492663" lon="-0.705219">
        <ele>667.409090909091</ele>
        <time>2019-04-19T09:45:53.000Z</time>
      </trkpt>
      <trkpt lat="38.492658" lon="-0.705247">
        <ele>667</ele>
        <time>2019-04-19T09:45:54.000Z</time>
      </trkpt>
      <trkpt lat="38.492654" lon="-0.705279">
        <ele>667</ele>
        <time>2019-04-19T09:45:55.000Z</time>
      </trkpt>
      <trkpt lat="38.492651" lon="-0.70531">
        <ele>667.625</ele>
        <time>2019-04-19T09:45:56.000Z</time>
      </trkpt>
      <trkpt lat="38.49265" lon="-0.705336">
        <ele>668</ele>
        <time>2019-04-19T09:45:57.000Z</time>
      </trkpt>
      <trkpt lat="38.492634" lon="-0.705382">
        <ele>667</ele>
        <time>2019-04-19T09:45:59.000Z</time>
      </trkpt>
      <trkpt lat="38.492619" lon="-0.705401">
        <ele>667.615384615385</ele>
        <time>2019-04-19T09:46:00.000Z</time>
      </trkpt>
      <trkpt lat="38.4926" lon="-0.705437">
        <ele>668.571428571429</ele>
        <time>2019-04-19T09:46:02.000Z</time>
      </trkpt>
      <trkpt lat="38.492608" lon="-0.705478">
        <ele>669</ele>
        <time>2019-04-19T09:46:04.000Z</time>
      </trkpt>
      <trkpt lat="38.492629" lon="-0.705506">
        <ele>669</ele>
        <time>2019-04-19T09:46:06.000Z</time>
      </trkpt>
      <trkpt lat="38.492643" lon="-0.705524">
        <ele>669</ele>
        <time>2019-04-19T09:46:07.000Z</time>
      </trkpt>
      <trkpt lat="38.492653" lon="-0.705543">
        <ele>669</ele>
        <time>2019-04-19T09:46:08.000Z</time>
      </trkpt>
      <trkpt lat="38.492666" lon="-0.705579">
        <ele>670</ele>
        <time>2019-04-19T09:46:10.000Z</time>
      </trkpt>
      <trkpt lat="38.492673" lon="-0.705601">
        <ele>670</ele>
        <time>2019-04-19T09:46:11.000Z</time>
      </trkpt>
      <trkpt lat="38.492684" lon="-0.705624">
        <ele>670</ele>
        <time>2019-04-19T09:46:12.000Z</time>
      </trkpt>
      <trkpt lat="38.492701" lon="-0.705649">
        <ele>670</ele>
        <time>2019-04-19T09:46:13.000Z</time>
      </trkpt>
      <trkpt lat="38.492713" lon="-0.705673">
        <ele>670</ele>
        <time>2019-04-19T09:46:14.000Z</time>
      </trkpt>
      <trkpt lat="38.492723" lon="-0.705697">
        <ele>670</ele>
        <time>2019-04-19T09:46:15.000Z</time>
      </trkpt>
      <trkpt lat="38.492728" lon="-0.705721">
        <ele>669.396222769647</ele>
        <time>2019-04-19T09:46:16.000Z</time>
      </trkpt>
      <trkpt lat="38.492743" lon="-0.705766">
        <ele>670</ele>
        <time>2019-04-19T09:46:18.000Z</time>
      </trkpt>
      <trkpt lat="38.492755" lon="-0.705791">
        <ele>670</ele>
        <time>2019-04-19T09:46:19.000Z</time>
      </trkpt>
      <trkpt lat="38.492767" lon="-0.705819">
        <ele>670</ele>
        <time>2019-04-19T09:46:20.000Z</time>
      </trkpt>
      <trkpt lat="38.492778" lon="-0.705846">
        <ele>670</ele>
        <time>2019-04-19T09:46:21.000Z</time>
      </trkpt>
      <trkpt lat="38.492788" lon="-0.705871">
        <ele>670</ele>
        <time>2019-04-19T09:46:22.000Z</time>
      </trkpt>
      <trkpt lat="38.492796" lon="-0.705895">
        <ele>670</ele>
        <time>2019-04-19T09:46:23.000Z</time>
      </trkpt>
      <trkpt lat="38.492803" lon="-0.705919">
        <ele>670</ele>
        <time>2019-04-19T09:46:24.000Z</time>
      </trkpt>
      <trkpt lat="38.49281" lon="-0.705943">
        <ele>670</ele>
        <time>2019-04-19T09:46:25.000Z</time>
      </trkpt>
      <trkpt lat="38.492816" lon="-0.705965">
        <ele>669.507039968271</ele>
        <time>2019-04-19T09:46:26.000Z</time>
      </trkpt>
      <trkpt lat="38.492825" lon="-0.705987">
        <ele>669</ele>
        <time>2019-04-19T09:46:27.000Z</time>
      </trkpt>
      <trkpt lat="38.492838" lon="-0.706012">
        <ele>669</ele>
        <time>2019-04-19T09:46:28.000Z</time>
      </trkpt>
      <trkpt lat="38.49285" lon="-0.706034">
        <ele>669</ele>
        <time>2019-04-19T09:46:29.000Z</time>
      </trkpt>
      <trkpt lat="38.492862" lon="-0.706083">
        <ele>669</ele>
        <time>2019-04-19T09:46:31.000Z</time>
      </trkpt>
      <trkpt lat="38.492868" lon="-0.706118">
        <ele>669</ele>
        <time>2019-04-19T09:46:32.000Z</time>
      </trkpt>
      <trkpt lat="38.492873" lon="-0.706152">
        <ele>669</ele>
        <time>2019-04-19T09:46:33.000Z</time>
      </trkpt>
      <trkpt lat="38.492872" lon="-0.70618">
        <ele>669</ele>
        <time>2019-04-19T09:46:34.000Z</time>
      </trkpt>
      <trkpt lat="38.492873" lon="-0.706209">
        <ele>669</ele>
        <time>2019-04-19T09:46:35.000Z</time>
      </trkpt>
      <trkpt lat="38.492874" lon="-0.706234">
        <ele>669</ele>
        <time>2019-04-19T09:46:36.000Z</time>
      </trkpt>
      <trkpt lat="38.492874" lon="-0.706262">
        <ele>669</ele>
        <time>2019-04-19T09:46:37.000Z</time>
      </trkpt>
      <trkpt lat="38.492876" lon="-0.706287">
        <ele>668.401870947676</ele>
        <time>2019-04-19T09:46:38.000Z</time>
      </trkpt>
      <trkpt lat="38.49287" lon="-0.706331">
        <ele>668</ele>
        <time>2019-04-19T09:46:40.000Z</time>
      </trkpt>
      <trkpt lat="38.492858" lon="-0.706354">
        <ele>667.390474332874</ele>
        <time>2019-04-19T09:46:41.000Z</time>
      </trkpt>
      <trkpt lat="38.492838" lon="-0.70637">
        <ele>667</ele>
        <time>2019-04-19T09:46:42.000Z</time>
      </trkpt>
      <trkpt lat="38.492821" lon="-0.706386">
        <ele>667.561400357051</ele>
        <time>2019-04-19T09:46:43.000Z</time>
      </trkpt>
      <trkpt lat="38.492807" lon="-0.706406">
        <ele>668</ele>
        <time>2019-04-19T09:46:44.000Z</time>
      </trkpt>
      <trkpt lat="38.492792" lon="-0.706428">
        <ele>667.507039968271</ele>
        <time>2019-04-19T09:46:45.000Z</time>
      </trkpt>
      <trkpt lat="38.492778" lon="-0.706449">
        <ele>667</ele>
        <time>2019-04-19T09:46:46.000Z</time>
      </trkpt>
      <trkpt lat="38.492765" lon="-0.706473">
        <ele>667</ele>
        <time>2019-04-19T09:46:47.000Z</time>
      </trkpt>
      <trkpt lat="38.49276" lon="-0.706497">
        <ele>667</ele>
        <time>2019-04-19T09:46:48.000Z</time>
      </trkpt>
      <trkpt lat="38.49276" lon="-0.706523">
        <ele>667.633665373989</ele>
        <time>2019-04-19T09:46:49.000Z</time>
      </trkpt>
      <trkpt lat="38.492764" lon="-0.706552">
        <ele>668</ele>
        <time>2019-04-19T09:46:50.000Z</time>
      </trkpt>
      <trkpt lat="38.492765" lon="-0.706578">
        <ele>668</ele>
        <time>2019-04-19T09:46:51.000Z</time>
      </trkpt>
      <trkpt lat="38.492777" lon="-0.706639">
        <ele>668</ele>
        <time>2019-04-19T09:46:55.000Z</time>
      </trkpt>
      <trkpt lat="38.492798" lon="-0.706632">
        <ele>668</ele>
        <time>2019-04-19T09:46:57.000Z</time>
      </trkpt>
      <trkpt lat="38.492818" lon="-0.706611">
        <ele>668.64</ele>
        <time>2019-04-19T09:46:59.000Z</time>
      </trkpt>
      <trkpt lat="38.49284" lon="-0.706613">
        <ele>670</ele>
        <time>2019-04-19T09:47:02.000Z</time>
      </trkpt>
      <trkpt lat="38.492847" lon="-0.706634">
        <ele>670.485709583631</ele>
        <time>2019-04-19T09:47:04.000Z</time>
      </trkpt>
      <trkpt lat="38.492852" lon="-0.70666">
        <ele>671</ele>
        <time>2019-04-19T09:47:06.000Z</time>
      </trkpt>
      <trkpt lat="38.492851" lon="-0.706691">
        <ele>671</ele>
        <time>2019-04-19T09:47:08.000Z</time>
      </trkpt>
      <trkpt lat="38.492849" lon="-0.706723">
        <ele>673</ele>
        <time>2019-04-19T09:47:11.000Z</time>
      </trkpt>
      <trkpt lat="38.492868" lon="-0.706735">
        <ele>673.64</ele>
        <time>2019-04-19T09:47:13.000Z</time>
      </trkpt>
      <trkpt lat="38.492886" lon="-0.706738">
        <ele>674</ele>
        <time>2019-04-19T09:47:15.000Z</time>
      </trkpt>
      <trkpt lat="38.492894" lon="-0.706767">
        <ele>677</ele>
        <time>2019-04-19T09:47:20.000Z</time>
      </trkpt>
      <trkpt lat="38.492902" lon="-0.706797">
        <ele>678</ele>
        <time>2019-04-19T09:47:23.000Z</time>
      </trkpt>
      <trkpt lat="38.492904" lon="-0.706823">
        <ele>678.64</ele>
        <time>2019-04-19T09:47:26.000Z</time>
      </trkpt>
      <trkpt lat="38.492881" lon="-0.706843">
        <ele>680</ele>
        <time>2019-04-19T09:47:29.000Z</time>
      </trkpt>
      <trkpt lat="38.492874" lon="-0.70687">
        <ele>680.554222441552</ele>
        <time>2019-04-19T09:47:32.000Z</time>
      </trkpt>
      <trkpt lat="38.492866" lon="-0.706901">
        <ele>681</ele>
        <time>2019-04-19T09:47:35.000Z</time>
      </trkpt>
      <trkpt lat="38.492861" lon="-0.706924">
        <ele>682.64</ele>
        <time>2019-04-19T09:47:37.000Z</time>
      </trkpt>
      <trkpt lat="38.49285" lon="-0.706949">
        <ele>683</ele>
        <time>2019-04-19T09:47:39.000Z</time>
      </trkpt>
      <trkpt lat="38.492843" lon="-0.706974">
        <ele>683</ele>
        <time>2019-04-19T09:47:41.000Z</time>
      </trkpt>
      <trkpt lat="38.492835" lon="-0.707002">
        <ele>684</ele>
        <time>2019-04-19T09:47:43.000Z</time>
      </trkpt>
      <trkpt lat="38.492834" lon="-0.707028">
        <ele>684</ele>
        <time>2019-04-19T09:47:45.000Z</time>
      </trkpt>
      <trkpt lat="38.492835" lon="-0.707057">
        <ele>684.64</ele>
        <time>2019-04-19T09:47:47.000Z</time>
      </trkpt>
      <trkpt lat="38.492844" lon="-0.707087">
        <ele>686</ele>
        <time>2019-04-19T09:47:49.000Z</time>
      </trkpt>
      <trkpt lat="38.49285" lon="-0.707114">
        <ele>686.59550416361</ele>
        <time>2019-04-19T09:47:51.000Z</time>
      </trkpt>
      <trkpt lat="38.49285" lon="-0.707144">
        <ele>687</ele>
        <time>2019-04-19T09:47:53.000Z</time>
      </trkpt>
      <trkpt lat="38.492843" lon="-0.707173">
        <ele>687</ele>
        <time>2019-04-19T09:47:55.000Z</time>
      </trkpt>
      <trkpt lat="38.492826" lon="-0.707191">
        <ele>688</ele>
        <time>2019-04-19T09:47:57.000Z</time>
      </trkpt>
      <trkpt lat="38.492806" lon="-0.707202">
        <ele>688.632650662208</ele>
        <time>2019-04-19T09:47:59.000Z</time>
      </trkpt>
      <trkpt lat="38.492787" lon="-0.707223">
        <ele>689</ele>
        <time>2019-04-19T09:48:01.000Z</time>
      </trkpt>
      <trkpt lat="38.492777" lon="-0.707249">
        <ele>689</ele>
        <time>2019-04-19T09:48:03.000Z</time>
      </trkpt>
      <trkpt lat="38.492767" lon="-0.707276">
        <ele>689.64</ele>
        <time>2019-04-19T09:48:05.000Z</time>
      </trkpt>
      <trkpt lat="38.492754" lon="-0.7073">
        <ele>690</ele>
        <time>2019-04-19T09:48:07.000Z</time>
      </trkpt>
      <trkpt lat="38.492744" lon="-0.707322">
        <ele>690</ele>
        <time>2019-04-19T09:48:09.000Z</time>
      </trkpt>
      <trkpt lat="38.492732" lon="-0.707343">
        <ele>690</ele>
        <time>2019-04-19T09:48:11.000Z</time>
      </trkpt>
      <trkpt lat="38.492722" lon="-0.707362">
        <ele>691</ele>
        <time>2019-04-19T09:48:13.000Z</time>
      </trkpt>
      <trkpt lat="38.492708" lon="-0.707386">
        <ele>691.64</ele>
        <time>2019-04-19T09:48:15.000Z</time>
      </trkpt>
      <trkpt lat="38.492697" lon="-0.70741">
        <ele>692</ele>
        <time>2019-04-19T09:48:17.000Z</time>
      </trkpt>
      <trkpt lat="38.492684" lon="-0.707434">
        <ele>693</ele>
        <time>2019-04-19T09:48:19.000Z</time>
      </trkpt>
      <trkpt lat="38.492668" lon="-0.707464">
        <ele>693</ele>
        <time>2019-04-19T09:48:21.000Z</time>
      </trkpt>
      <trkpt lat="38.492657" lon="-0.707485">
        <ele>693</ele>
        <time>2019-04-19T09:48:22.000Z</time>
      </trkpt>
      <trkpt lat="38.492649" lon="-0.707507">
        <ele>692.428571428571</ele>
        <time>2019-04-19T09:48:23.000Z</time>
      </trkpt>
      <trkpt lat="38.492633" lon="-0.707545">
        <ele>692</ele>
        <time>2019-04-19T09:48:25.000Z</time>
      </trkpt>
      <trkpt lat="38.492624" lon="-0.707566">
        <ele>692</ele>
        <time>2019-04-19T09:48:26.000Z</time>
      </trkpt>
      <trkpt lat="38.492613" lon="-0.707585">
        <ele>692</ele>
        <time>2019-04-19T09:48:27.000Z</time>
      </trkpt>
      <trkpt lat="38.492603" lon="-0.707608">
        <ele>692</ele>
        <time>2019-04-19T09:48:28.000Z</time>
      </trkpt>
      <trkpt lat="38.492596" lon="-0.70763">
        <ele>691.366334626011</ele>
        <time>2019-04-19T09:48:29.000Z</time>
      </trkpt>
      <trkpt lat="38.492588" lon="-0.707677">
        <ele>690</ele>
        <time>2019-04-19T09:48:31.000Z</time>
      </trkpt>
      <trkpt lat="38.492593" lon="-0.707705">
        <ele>689.402170434783</ele>
        <time>2019-04-19T09:48:32.000Z</time>
      </trkpt>
      <trkpt lat="38.492599" lon="-0.70773">
        <ele>689</ele>
        <time>2019-04-19T09:48:33.000Z</time>
      </trkpt>
      <trkpt lat="38.492607" lon="-0.707751">
        <ele>689</ele>
        <time>2019-04-19T09:48:34.000Z</time>
      </trkpt>
      <trkpt lat="38.492618" lon="-0.707773">
        <ele>689</ele>
        <time>2019-04-19T09:48:35.000Z</time>
      </trkpt>
      <trkpt lat="38.492629" lon="-0.707794">
        <ele>689</ele>
        <time>2019-04-19T09:48:36.000Z</time>
      </trkpt>
      <trkpt lat="38.492639" lon="-0.707816">
        <ele>689</ele>
        <time>2019-04-19T09:48:37.000Z</time>
      </trkpt>
      <trkpt lat="38.492651" lon="-0.707843">
        <ele>689</ele>
        <time>2019-04-19T09:48:38.000Z</time>
      </trkpt>
      <trkpt lat="38.492664" lon="-0.707868">
        <ele>689</ele>
        <time>2019-04-19T09:48:39.000Z</time>
      </trkpt>
      <trkpt lat="38.492673" lon="-0.707896">
        <ele>689</ele>
        <time>2019-04-19T09:48:40.000Z</time>
      </trkpt>
      <trkpt lat="38.492674" lon="-0.707923">
        <ele>689</ele>
        <time>2019-04-19T09:48:41.000Z</time>
      </trkpt>
      <trkpt lat="38.492672" lon="-0.70795">
        <ele>688.413791581456</ele>
        <time>2019-04-19T09:48:42.000Z</time>
      </trkpt>
      <trkpt lat="38.492685" lon="-0.707982">
        <ele>687</ele>
        <time>2019-04-19T09:48:44.000Z</time>
      </trkpt>
      <trkpt lat="38.492694" lon="-0.708008">
        <ele>686</ele>
        <time>2019-04-19T09:48:46.000Z</time>
      </trkpt>
      <trkpt lat="38.492669" lon="-0.70804">
        <ele>684.412842312932</ele>
        <time>2019-04-19T09:48:48.000Z</time>
      </trkpt>
      <trkpt lat="38.492655" lon="-0.70806">
        <ele>684.604396995527</ele>
        <time>2019-04-19T09:48:49.000Z</time>
      </trkpt>
      <trkpt lat="38.492649" lon="-0.708082">
        <ele>685</ele>
        <time>2019-04-19T09:48:50.000Z</time>
      </trkpt>
      <trkpt lat="38.492642" lon="-0.708127">
        <ele>686</ele>
        <time>2019-04-19T09:48:52.000Z</time>
      </trkpt>
      <trkpt lat="38.492637" lon="-0.708153">
        <ele>685.412842312932</ele>
        <time>2019-04-19T09:48:53.000Z</time>
      </trkpt>
      <trkpt lat="38.49263" lon="-0.70818">
        <ele>685</ele>
        <time>2019-04-19T09:48:54.000Z</time>
      </trkpt>
      <trkpt lat="38.492627" lon="-0.708206">
        <ele>685</ele>
        <time>2019-04-19T09:48:55.000Z</time>
      </trkpt>
      <trkpt lat="38.492622" lon="-0.70823">
        <ele>684.36</ele>
        <time>2019-04-19T09:48:56.000Z</time>
      </trkpt>
      <trkpt lat="38.492629" lon="-0.708273">
        <ele>684</ele>
        <time>2019-04-19T09:48:58.000Z</time>
      </trkpt>
      <trkpt lat="38.492632" lon="-0.708298">
        <ele>684</ele>
        <time>2019-04-19T09:48:59.000Z</time>
      </trkpt>
      <trkpt lat="38.492632" lon="-0.708328">
        <ele>684</ele>
        <time>2019-04-19T09:49:00.000Z</time>
      </trkpt>
      <trkpt lat="38.492625" lon="-0.708354">
        <ele>684</ele>
        <time>2019-04-19T09:49:01.000Z</time>
      </trkpt>
      <trkpt lat="38.492618" lon="-0.708378">
        <ele>684</ele>
        <time>2019-04-19T09:49:02.000Z</time>
      </trkpt>
      <trkpt lat="38.492613" lon="-0.708401">
        <ele>684</ele>
        <time>2019-04-19T09:49:03.000Z</time>
      </trkpt>
      <trkpt lat="38.492612" lon="-0.708439">
        <ele>684</ele>
        <time>2019-04-19T09:49:05.000Z</time>
      </trkpt>
      <trkpt lat="38.492605" lon="-0.708472">
        <ele>685</ele>
        <time>2019-04-19T09:49:08.000Z</time>
      </trkpt>
      <trkpt lat="38.492585" lon="-0.708498">
        <ele>685</ele>
        <time>2019-04-19T09:49:10.000Z</time>
      </trkpt>
      <trkpt lat="38.492566" lon="-0.708541">
        <ele>685.64</ele>
        <time>2019-04-19T09:49:12.000Z</time>
      </trkpt>
      <trkpt lat="38.492557" lon="-0.708562">
        <ele>686</ele>
        <time>2019-04-19T09:49:13.000Z</time>
      </trkpt>
      <trkpt lat="38.49255" lon="-0.708584">
        <ele>685.36</ele>
        <time>2019-04-19T09:49:14.000Z</time>
      </trkpt>
      <trkpt lat="38.49254" lon="-0.708619">
        <ele>685.45901880141</ele>
        <time>2019-04-19T09:49:16.000Z</time>
      </trkpt>
      <trkpt lat="38.492539" lon="-0.708655">
        <ele>687</ele>
        <time>2019-04-19T09:49:18.000Z</time>
      </trkpt>
      <trkpt lat="38.492533" lon="-0.708691">
        <ele>687</ele>
        <time>2019-04-19T09:49:23.000Z</time>
      </trkpt>
      <trkpt lat="38.492525" lon="-0.708722">
        <ele>687.64</ele>
        <time>2019-04-19T09:49:25.000Z</time>
      </trkpt>
      <trkpt lat="38.49252" lon="-0.708752">
        <ele>688.586208418544</ele>
        <time>2019-04-19T09:49:27.000Z</time>
      </trkpt>
      <trkpt lat="38.492504" lon="-0.708775">
        <ele>690</ele>
        <time>2019-04-19T09:49:29.000Z</time>
      </trkpt>
      <trkpt lat="38.492494" lon="-0.708795">
        <ele>690</ele>
        <time>2019-04-19T09:49:31.000Z</time>
      </trkpt>
      <trkpt lat="38.492483" lon="-0.708817">
        <ele>690</ele>
        <time>2019-04-19T09:49:33.000Z</time>
      </trkpt>
      <trkpt lat="38.49247" lon="-0.70884">
        <ele>690.471998935048</ele>
        <time>2019-04-19T09:49:35.000Z</time>
      </trkpt>
      <trkpt lat="38.492456" lon="-0.708863">
        <ele>691</ele>
        <time>2019-04-19T09:49:37.000Z</time>
      </trkpt>
      <trkpt lat="38.492449" lon="-0.7089">
        <ele>691.571428571429</ele>
        <time>2019-04-19T09:49:39.000Z</time>
      </trkpt>
      <trkpt lat="38.492457" lon="-0.70894">
        <ele>693</ele>
        <time>2019-04-19T09:49:41.000Z</time>
      </trkpt>
      <trkpt lat="38.492467" lon="-0.708967">
        <ele>693</ele>
        <time>2019-04-19T09:49:43.000Z</time>
      </trkpt>
      <trkpt lat="38.49247" lon="-0.708992">
        <ele>693</ele>
        <time>2019-04-19T09:49:45.000Z</time>
      </trkpt>
      <trkpt lat="38.492461" lon="-0.709015">
        <ele>693</ele>
        <time>2019-04-19T09:49:47.000Z</time>
      </trkpt>
      <trkpt lat="38.492441" lon="-0.709028">
        <ele>692</ele>
        <time>2019-04-19T09:49:49.000Z</time>
      </trkpt>
      <trkpt lat="38.492419" lon="-0.709043">
        <ele>694.571428571429</ele>
        <time>2019-04-19T09:49:52.000Z</time>
      </trkpt>
      <trkpt lat="38.492404" lon="-0.709066">
        <ele>695</ele>
        <time>2019-04-19T09:49:54.000Z</time>
      </trkpt>
      <trkpt lat="38.492394" lon="-0.709094">
        <ele>695</ele>
        <time>2019-04-19T09:49:56.000Z</time>
      </trkpt>
      <trkpt lat="38.492385" lon="-0.70912">
        <ele>696</ele>
        <time>2019-04-19T09:49:58.000Z</time>
      </trkpt>
      <trkpt lat="38.492384" lon="-0.709147">
        <ele>696</ele>
        <time>2019-04-19T09:50:00.000Z</time>
      </trkpt>
      <trkpt lat="38.492369" lon="-0.709162">
        <ele>696.59550416361</ele>
        <time>2019-04-19T09:50:04.000Z</time>
      </trkpt>
      <trkpt lat="38.492345" lon="-0.709173">
        <ele>698.632650662208</ele>
        <time>2019-04-19T09:50:07.000Z</time>
      </trkpt>
      <trkpt lat="38.492327" lon="-0.709187">
        <ele>699.64</ele>
        <time>2019-04-19T09:50:10.000Z</time>
      </trkpt>
      <trkpt lat="38.492315" lon="-0.709214">
        <ele>701.460430594692</ele>
        <time>2019-04-19T09:50:13.000Z</time>
      </trkpt>
      <trkpt lat="38.49231" lon="-0.709242">
        <ele>702</ele>
        <time>2019-04-19T09:50:15.000Z</time>
      </trkpt>
      <trkpt lat="38.492312" lon="-0.709272">
        <ele>701.36</ele>
        <time>2019-04-19T09:50:17.000Z</time>
      </trkpt>
      <trkpt lat="38.49231" lon="-0.709298">
        <ele>701</ele>
        <time>2019-04-19T09:50:19.000Z</time>
      </trkpt>
      <trkpt lat="38.492332" lon="-0.709327">
        <ele>701</ele>
        <time>2019-04-19T09:50:21.000Z</time>
      </trkpt>
      <trkpt lat="38.492348" lon="-0.709344">
        <ele>700.36</ele>
        <time>2019-04-19T09:50:22.000Z</time>
      </trkpt>
      <trkpt lat="38.492367" lon="-0.709374">
        <ele>700</ele>
        <time>2019-04-19T09:50:24.000Z</time>
      </trkpt>
      <trkpt lat="38.49239" lon="-0.709384">
        <ele>701</ele>
        <time>2019-04-19T09:50:26.000Z</time>
      </trkpt>
      <trkpt lat="38.49241" lon="-0.7094">
        <ele>701</ele>
        <time>2019-04-19T09:50:29.000Z</time>
      </trkpt>
      <trkpt lat="38.492418" lon="-0.70943">
        <ele>703.496125261706</ele>
        <time>2019-04-19T09:50:32.000Z</time>
      </trkpt>
      <trkpt lat="38.492415" lon="-0.70946">
        <ele>704</ele>
        <time>2019-04-19T09:50:34.000Z</time>
      </trkpt>
      <trkpt lat="38.4924" lon="-0.709492">
        <ele>703.418607766383</ele>
        <time>2019-04-19T09:50:36.000Z</time>
      </trkpt>
      <trkpt lat="38.492381" lon="-0.709519">
        <ele>703</ele>
        <time>2019-04-19T09:50:38.000Z</time>
      </trkpt>
      <trkpt lat="38.49236" lon="-0.709549">
        <ele>702</ele>
        <time>2019-04-19T09:50:40.000Z</time>
      </trkpt>
      <trkpt lat="38.492346" lon="-0.709585">
        <ele>703</ele>
        <time>2019-04-19T09:50:42.000Z</time>
      </trkpt>
      <trkpt lat="38.492336" lon="-0.709611">
        <ele>704</ele>
        <time>2019-04-19T09:50:44.000Z</time>
      </trkpt>
      <trkpt lat="38.492328" lon="-0.709635">
        <ele>704</ele>
        <time>2019-04-19T09:50:46.000Z</time>
      </trkpt>
      <trkpt lat="38.492321" lon="-0.709663">
        <ele>705</ele>
        <time>2019-04-19T09:50:49.000Z</time>
      </trkpt>
      <trkpt lat="38.492313" lon="-0.709687">
        <ele>706</ele>
        <time>2019-04-19T09:50:52.000Z</time>
      </trkpt>
      <trkpt lat="38.49231" lon="-0.709717">
        <ele>706.64</ele>
        <time>2019-04-19T09:50:55.000Z</time>
      </trkpt>
      <trkpt lat="38.492316" lon="-0.709748">
        <ele>708.609525667126</ele>
        <time>2019-04-19T09:50:58.000Z</time>
      </trkpt>
      <trkpt lat="38.492325" lon="-0.709772">
        <ele>709.64</ele>
        <time>2019-04-19T09:51:01.000Z</time>
      </trkpt>
      <trkpt lat="38.492336" lon="-0.709798">
        <ele>711</ele>
        <time>2019-04-19T09:51:04.000Z</time>
      </trkpt>
      <trkpt lat="38.492345" lon="-0.709827">
        <ele>710</ele>
        <time>2019-04-19T09:51:08.000Z</time>
      </trkpt>
      <trkpt lat="38.492331" lon="-0.70985">
        <ele>710</ele>
        <time>2019-04-19T09:51:11.000Z</time>
      </trkpt>
      <trkpt lat="38.492329" lon="-0.70988">
        <ele>711</ele>
        <time>2019-04-19T09:51:14.000Z</time>
      </trkpt>
      <trkpt lat="38.492326" lon="-0.709909">
        <ele>710</ele>
        <time>2019-04-19T09:51:17.000Z</time>
      </trkpt>
      <trkpt lat="38.492321" lon="-0.709938">
        <ele>710</ele>
        <time>2019-04-19T09:51:20.000Z</time>
      </trkpt>
      <trkpt lat="38.492313" lon="-0.709966">
        <ele>713.207539879004</ele>
        <time>2019-04-19T09:51:23.000Z</time>
      </trkpt>
      <trkpt lat="38.49231" lon="-0.709997">
        <ele>715.561400357051</ele>
        <time>2019-04-19T09:51:25.000Z</time>
      </trkpt>
      <trkpt lat="38.492304" lon="-0.710025">
        <ele>717</ele>
        <time>2019-04-19T09:51:27.000Z</time>
      </trkpt>
      <trkpt lat="38.492295" lon="-0.710055">
        <ele>717</ele>
        <time>2019-04-19T09:51:29.000Z</time>
      </trkpt>
      <trkpt lat="38.492286" lon="-0.710084">
        <ele>717</ele>
        <time>2019-04-19T09:51:31.000Z</time>
      </trkpt>
      <trkpt lat="38.492282" lon="-0.710116">
        <ele>718</ele>
        <time>2019-04-19T09:51:33.000Z</time>
      </trkpt>
      <trkpt lat="38.492277" lon="-0.710142">
        <ele>718</ele>
        <time>2019-04-19T09:51:35.000Z</time>
      </trkpt>
      <trkpt lat="38.492267" lon="-0.710171">
        <ele>718</ele>
        <time>2019-04-19T09:51:37.000Z</time>
      </trkpt>
      <trkpt lat="38.492263" lon="-0.710201">
        <ele>718</ele>
        <time>2019-04-19T09:51:39.000Z</time>
      </trkpt>
      <trkpt lat="38.492274" lon="-0.710229">
        <ele>718.566373285305</ele>
        <time>2019-04-19T09:51:41.000Z</time>
      </trkpt>
      <trkpt lat="38.492289" lon="-0.71025">
        <ele>719.64</ele>
        <time>2019-04-19T09:51:43.000Z</time>
      </trkpt>
      <trkpt lat="38.492293" lon="-0.710277">
        <ele>720</ele>
        <time>2019-04-19T09:51:45.000Z</time>
      </trkpt>
      <trkpt lat="38.492283" lon="-0.710302">
        <ele>720</ele>
        <time>2019-04-19T09:51:47.000Z</time>
      </trkpt>
      <trkpt lat="38.492251" lon="-0.710289">
        <ele>721</ele>
        <time>2019-04-19T09:51:51.000Z</time>
      </trkpt>
      <trkpt lat="38.492228" lon="-0.710279">
        <ele>721.586208418544</ele>
        <time>2019-04-19T09:51:53.000Z</time>
      </trkpt>
      <trkpt lat="38.492213" lon="-0.710257">
        <ele>722</ele>
        <time>2019-04-19T09:51:56.000Z</time>
      </trkpt>
      <trkpt lat="38.49221" lon="-0.710225">
        <ele>722.586208418544</ele>
        <time>2019-04-19T09:51:58.000Z</time>
      </trkpt>
      <trkpt lat="38.4922" lon="-0.710195">
        <ele>723</ele>
        <time>2019-04-19T09:52:00.000Z</time>
      </trkpt>
      <trkpt lat="38.492194" lon="-0.710159">
        <ele>722</ele>
        <time>2019-04-19T09:52:02.000Z</time>
      </trkpt>
      <trkpt lat="38.492186" lon="-0.710132">
        <ele>723</ele>
        <time>2019-04-19T09:52:05.000Z</time>
      </trkpt>
      <trkpt lat="38.492178" lon="-0.710106">
        <ele>723.450706256704</ele>
        <time>2019-04-19T09:52:07.000Z</time>
      </trkpt>
      <trkpt lat="38.492172" lon="-0.71008">
        <ele>724</ele>
        <time>2019-04-19T09:52:09.000Z</time>
      </trkpt>
      <trkpt lat="38.492163" lon="-0.710055">
        <ele>725</ele>
        <time>2019-04-19T09:52:11.000Z</time>
      </trkpt>
      <trkpt lat="38.492143" lon="-0.710045">
        <ele>724.507039968271</ele>
        <time>2019-04-19T09:52:14.000Z</time>
      </trkpt>
      <trkpt lat="38.492144" lon="-0.710078">
        <ele>726</ele>
        <time>2019-04-19T09:52:17.000Z</time>
      </trkpt>
      <trkpt lat="38.492139" lon="-0.710104">
        <ele>726</ele>
        <time>2019-04-19T09:52:19.000Z</time>
      </trkpt>
      <trkpt lat="38.492133" lon="-0.71013">
        <ele>727</ele>
        <time>2019-04-19T09:52:21.000Z</time>
      </trkpt>
      <trkpt lat="38.492126" lon="-0.710165">
        <ele>727</ele>
        <time>2019-04-19T09:52:23.000Z</time>
      </trkpt>
      <trkpt lat="38.492118" lon="-0.710196">
        <ele>727.64</ele>
        <time>2019-04-19T09:52:25.000Z</time>
      </trkpt>
      <trkpt lat="38.492113" lon="-0.71022">
        <ele>728</ele>
        <time>2019-04-19T09:52:27.000Z</time>
      </trkpt>
      <trkpt lat="38.492108" lon="-0.710242">
        <ele>728</ele>
        <time>2019-04-19T09:52:29.000Z</time>
      </trkpt>
      <trkpt lat="38.492102" lon="-0.710275">
        <ele>729</ele>
        <time>2019-04-19T09:52:32.000Z</time>
      </trkpt>
      <trkpt lat="38.492099" lon="-0.710301">
        <ele>729.625</ele>
        <time>2019-04-19T09:52:34.000Z</time>
      </trkpt>
      <trkpt lat="38.492107" lon="-0.710327">
        <ele>730</ele>
        <time>2019-04-19T09:52:36.000Z</time>
      </trkpt>
      <trkpt lat="38.492109" lon="-0.710357">
        <ele>731</ele>
        <time>2019-04-19T09:52:38.000Z</time>
      </trkpt>
      <trkpt lat="38.492104" lon="-0.710382">
        <ele>731</ele>
        <time>2019-04-19T09:52:40.000Z</time>
      </trkpt>
      <trkpt lat="38.492098" lon="-0.710404">
        <ele>732.64</ele>
        <time>2019-04-19T09:52:42.000Z</time>
      </trkpt>
      <trkpt lat="38.492098" lon="-0.710432">
        <ele>733</ele>
        <time>2019-04-19T09:52:44.000Z</time>
      </trkpt>
      <trkpt lat="38.492099" lon="-0.710457">
        <ele>733</ele>
        <time>2019-04-19T09:52:46.000Z</time>
      </trkpt>
      <trkpt lat="38.4921" lon="-0.710484">
        <ele>733.64</ele>
        <time>2019-04-19T09:52:48.000Z</time>
      </trkpt>
      <trkpt lat="38.492098" lon="-0.710516">
        <ele>734</ele>
        <time>2019-04-19T09:52:50.000Z</time>
      </trkpt>
      <trkpt lat="38.492099" lon="-0.710543">
        <ele>734</ele>
        <time>2019-04-19T09:52:52.000Z</time>
      </trkpt>
      <trkpt lat="38.4921" lon="-0.710571">
        <ele>735</ele>
        <time>2019-04-19T09:52:54.000Z</time>
      </trkpt>
      <trkpt lat="38.492102" lon="-0.710604">
        <ele>735</ele>
        <time>2019-04-19T09:52:57.000Z</time>
      </trkpt>
      <trkpt lat="38.4921" lon="-0.710631">
        <ele>736</ele>
        <time>2019-04-19T09:52:59.000Z</time>
      </trkpt>
      <trkpt lat="38.492101" lon="-0.71066">
        <ele>736.612901893856</ele>
        <time>2019-04-19T09:53:01.000Z</time>
      </trkpt>
      <trkpt lat="38.492097" lon="-0.710685">
        <ele>737</ele>
        <time>2019-04-19T09:53:03.000Z</time>
      </trkpt>
      <trkpt lat="38.492089" lon="-0.710712">
        <ele>738</ele>
        <time>2019-04-19T09:53:05.000Z</time>
      </trkpt>
      <trkpt lat="38.492083" lon="-0.710738">
        <ele>738</ele>
        <time>2019-04-19T09:53:07.000Z</time>
      </trkpt>
      <trkpt lat="38.492079" lon="-0.710764">
        <ele>739</ele>
        <time>2019-04-19T09:53:09.000Z</time>
      </trkpt>
      <trkpt lat="38.492074" lon="-0.7108">
        <ele>739.366334626011</ele>
        <time>2019-04-19T09:53:12.000Z</time>
      </trkpt>
      <trkpt lat="38.492073" lon="-0.710828">
        <ele>740</ele>
        <time>2019-04-19T09:53:14.000Z</time>
      </trkpt>
      <trkpt lat="38.492075" lon="-0.710859">
        <ele>741</ele>
        <time>2019-04-19T09:53:16.000Z</time>
      </trkpt>
      <trkpt lat="38.492075" lon="-0.710889">
        <ele>741</ele>
        <time>2019-04-19T09:53:18.000Z</time>
      </trkpt>
      <trkpt lat="38.492076" lon="-0.710921">
        <ele>741</ele>
        <time>2019-04-19T09:53:20.000Z</time>
      </trkpt>
      <trkpt lat="38.492079" lon="-0.710953">
        <ele>742</ele>
        <time>2019-04-19T09:53:22.000Z</time>
      </trkpt>
      <trkpt lat="38.492084" lon="-0.710981">
        <ele>742</ele>
        <time>2019-04-19T09:53:24.000Z</time>
      </trkpt>
      <trkpt lat="38.492093" lon="-0.711012">
        <ele>742</ele>
        <time>2019-04-19T09:53:26.000Z</time>
      </trkpt>
      <trkpt lat="38.492096" lon="-0.711042">
        <ele>743</ele>
        <time>2019-04-19T09:53:28.000Z</time>
      </trkpt>
      <trkpt lat="38.492101" lon="-0.711067">
        <ele>743</ele>
        <time>2019-04-19T09:53:30.000Z</time>
      </trkpt>
      <trkpt lat="38.492105" lon="-0.711092">
        <ele>743.566373285305</ele>
        <time>2019-04-19T09:53:32.000Z</time>
      </trkpt>
      <trkpt lat="38.492105" lon="-0.711121">
        <ele>744</ele>
        <time>2019-04-19T09:53:34.000Z</time>
      </trkpt>
      <trkpt lat="38.492105" lon="-0.711149">
        <ele>744</ele>
        <time>2019-04-19T09:53:36.000Z</time>
      </trkpt>
      <trkpt lat="38.492116" lon="-0.711178">
        <ele>744</ele>
        <time>2019-04-19T09:53:39.000Z</time>
      </trkpt>
      <trkpt lat="38.492114" lon="-0.711203">
        <ele>744</ele>
        <time>2019-04-19T09:53:41.000Z</time>
      </trkpt>
      <trkpt lat="38.492111" lon="-0.711227">
        <ele>745</ele>
        <time>2019-04-19T09:53:43.000Z</time>
      </trkpt>
      <trkpt lat="38.492111" lon="-0.71125">
        <ele>745.627454917364</ele>
        <time>2019-04-19T09:53:45.000Z</time>
      </trkpt>
      <trkpt lat="38.492112" lon="-0.711275">
        <ele>747</ele>
        <time>2019-04-19T09:53:47.000Z</time>
      </trkpt>
      <trkpt lat="38.492117" lon="-0.711311">
        <ele>748</ele>
        <time>2019-04-19T09:53:50.000Z</time>
      </trkpt>
      <trkpt lat="38.492117" lon="-0.711335">
        <ele>748</ele>
        <time>2019-04-19T09:53:52.000Z</time>
      </trkpt>
      <trkpt lat="38.492116" lon="-0.711364">
        <ele>748.603777230353</ele>
        <time>2019-04-19T09:53:54.000Z</time>
      </trkpt>
      <trkpt lat="38.492117" lon="-0.71139">
        <ele>749</ele>
        <time>2019-04-19T09:53:56.000Z</time>
      </trkpt>
      <trkpt lat="38.492116" lon="-0.711421">
        <ele>750</ele>
        <time>2019-04-19T09:53:59.000Z</time>
      </trkpt>
      <trkpt lat="38.492118" lon="-0.711445">
        <ele>750</ele>
        <time>2019-04-19T09:54:01.000Z</time>
      </trkpt>
      <trkpt lat="38.492118" lon="-0.711475">
        <ele>750</ele>
        <time>2019-04-19T09:54:04.000Z</time>
      </trkpt>
      <trkpt lat="38.492118" lon="-0.711499">
        <ele>752</ele>
        <time>2019-04-19T09:54:07.000Z</time>
      </trkpt>
      <trkpt lat="38.492105" lon="-0.711526">
        <ele>753</ele>
        <time>2019-04-19T09:54:10.000Z</time>
      </trkpt>
      <trkpt lat="38.492084" lon="-0.711543">
        <ele>753.621357292871</ele>
        <time>2019-04-19T09:54:13.000Z</time>
      </trkpt>
      <trkpt lat="38.492067" lon="-0.711553">
        <ele>754.59550416361</ele>
        <time>2019-04-19T09:54:16.000Z</time>
      </trkpt>
      <trkpt lat="38.492047" lon="-0.711541">
        <ele>755</ele>
        <time>2019-04-19T09:54:19.000Z</time>
      </trkpt>
      <trkpt lat="38.492029" lon="-0.711557">
        <ele>756.64</ele>
        <time>2019-04-19T09:54:23.000Z</time>
      </trkpt>
      <trkpt lat="38.492023" lon="-0.711585">
        <ele>757</ele>
        <time>2019-04-19T09:54:27.000Z</time>
      </trkpt>
      <trkpt lat="38.492014" lon="-0.71161">
        <ele>758</ele>
        <time>2019-04-19T09:54:30.000Z</time>
      </trkpt>
      <trkpt lat="38.492019" lon="-0.711642">
        <ele>759</ele>
        <time>2019-04-19T09:54:33.000Z</time>
      </trkpt>
      <trkpt lat="38.492037" lon="-0.711655">
        <ele>759</ele>
        <time>2019-04-19T09:54:35.000Z</time>
      </trkpt>
      <trkpt lat="38.492055" lon="-0.711674">
        <ele>760</ele>
        <time>2019-04-19T09:54:37.000Z</time>
      </trkpt>
      <trkpt lat="38.492068" lon="-0.711684">
        <ele>759.003358925373</ele>
        <time>2019-04-19T09:54:42.000Z</time>
      </trkpt>
      <trkpt lat="38.492043" lon="-0.711697">
        <ele>762</ele>
        <time>2019-04-19T09:56:03.000Z</time>
      </trkpt>
      <trkpt lat="38.492065" lon="-0.711697">
        <ele>762</ele>
        <time>2019-04-19T09:56:05.000Z</time>
      </trkpt>
      <trkpt lat="38.492088" lon="-0.71171">
        <ele>762</ele>
        <time>2019-04-19T09:56:07.000Z</time>
      </trkpt>
      <trkpt lat="38.492107" lon="-0.711722">
        <ele>762</ele>
        <time>2019-04-19T09:56:09.000Z</time>
      </trkpt>
      <trkpt lat="38.492125" lon="-0.711742">
        <ele>762</ele>
        <time>2019-04-19T09:56:11.000Z</time>
      </trkpt>
      <trkpt lat="38.492137" lon="-0.711767">
        <ele>762</ele>
        <time>2019-04-19T09:56:13.000Z</time>
      </trkpt>
      <trkpt lat="38.492147" lon="-0.711798">
        <ele>762</ele>
        <time>2019-04-19T09:56:15.000Z</time>
      </trkpt>
      <trkpt lat="38.492161" lon="-0.711827">
        <ele>762</ele>
        <time>2019-04-19T09:56:17.000Z</time>
      </trkpt>
      <trkpt lat="38.492178" lon="-0.711867">
        <ele>763</ele>
        <time>2019-04-19T09:56:19.000Z</time>
      </trkpt>
      <trkpt lat="38.492183" lon="-0.711894">
        <ele>763</ele>
        <time>2019-04-19T09:56:20.000Z</time>
      </trkpt>
      <trkpt lat="38.492188" lon="-0.711919">
        <ele>763</ele>
        <time>2019-04-19T09:56:21.000Z</time>
      </trkpt>
      <trkpt lat="38.492194" lon="-0.711944">
        <ele>763</ele>
        <time>2019-04-19T09:56:22.000Z</time>
      </trkpt>
      <trkpt lat="38.492202" lon="-0.711967">
        <ele>763</ele>
        <time>2019-04-19T09:56:23.000Z</time>
      </trkpt>
      <trkpt lat="38.492227" lon="-0.711995">
        <ele>764.699119855915</ele>
        <time>2019-04-19T09:56:25.000Z</time>
      </trkpt>
      <trkpt lat="38.492248" lon="-0.712029">
        <ele>769.64</ele>
        <time>2019-04-19T09:56:27.000Z</time>
      </trkpt>
      <trkpt lat="38.49226" lon="-0.712052">
        <ele>770.615384615385</ele>
        <time>2019-04-19T09:56:28.000Z</time>
      </trkpt>
      <trkpt lat="38.492277" lon="-0.712072">
        <ele>771</ele>
        <time>2019-04-19T09:56:29.000Z</time>
      </trkpt>
      <trkpt lat="38.492286" lon="-0.712093">
        <ele>771</ele>
        <time>2019-04-19T09:56:30.000Z</time>
      </trkpt>
      <trkpt lat="38.492304" lon="-0.712121">
        <ele>771.64</ele>
        <time>2019-04-19T09:56:32.000Z</time>
      </trkpt>
      <trkpt lat="38.49233" lon="-0.712131">
        <ele>772.625</ele>
        <time>2019-04-19T09:56:34.000Z</time>
      </trkpt>
      <trkpt lat="38.492348" lon="-0.712132">
        <ele>773</ele>
        <time>2019-04-19T09:56:36.000Z</time>
      </trkpt>
      <trkpt lat="38.492373" lon="-0.712125">
        <ele>774</ele>
        <time>2019-04-19T09:56:39.000Z</time>
      </trkpt>
      <trkpt lat="38.492398" lon="-0.71213">
        <ele>775</ele>
        <time>2019-04-19T09:56:42.000Z</time>
      </trkpt>
      <trkpt lat="38.492421" lon="-0.712137">
        <ele>776</ele>
        <time>2019-04-19T09:56:44.000Z</time>
      </trkpt>
      <trkpt lat="38.49244" lon="-0.712146">
        <ele>777</ele>
        <time>2019-04-19T09:56:47.000Z</time>
      </trkpt>
      <trkpt lat="38.492461" lon="-0.712161">
        <ele>777</ele>
        <time>2019-04-19T09:56:50.000Z</time>
      </trkpt>
      <trkpt lat="38.492479" lon="-0.712184">
        <ele>777</ele>
        <time>2019-04-19T09:56:55.000Z</time>
      </trkpt>
      <trkpt lat="38.492486" lon="-0.712206">
        <ele>779</ele>
        <time>2019-04-19T09:56:58.000Z</time>
      </trkpt>
      <trkpt lat="38.492499" lon="-0.712232">
        <ele>779</ele>
        <time>2019-04-19T09:57:01.000Z</time>
      </trkpt>
      <trkpt lat="38.492515" lon="-0.712246">
        <ele>780</ele>
        <time>2019-04-19T09:57:04.000Z</time>
      </trkpt>
      <trkpt lat="38.492529" lon="-0.712267">
        <ele>781</ele>
        <time>2019-04-19T09:57:07.000Z</time>
      </trkpt>
      <trkpt lat="38.492547" lon="-0.712279">
        <ele>782</ele>
        <time>2019-04-19T09:57:10.000Z</time>
      </trkpt>
      <trkpt lat="38.492568" lon="-0.712278">
        <ele>783</ele>
        <time>2019-04-19T09:57:14.000Z</time>
      </trkpt>
      <trkpt lat="38.492589" lon="-0.712277">
        <ele>785</ele>
        <time>2019-04-19T09:57:18.000Z</time>
      </trkpt>
      <trkpt lat="38.492614" lon="-0.712285">
        <ele>786</ele>
        <time>2019-04-19T09:57:21.000Z</time>
      </trkpt>
      <trkpt lat="38.492631" lon="-0.712277">
        <ele>786</ele>
        <time>2019-04-19T09:57:23.000Z</time>
      </trkpt>
      <trkpt lat="38.492651" lon="-0.712287">
        <ele>787</ele>
        <time>2019-04-19T09:57:27.000Z</time>
      </trkpt>
      <trkpt lat="38.492648" lon="-0.712318">
        <ele>788.64</ele>
        <time>2019-04-19T09:57:31.000Z</time>
      </trkpt>
      <trkpt lat="38.492654" lon="-0.712341">
        <ele>789</ele>
        <time>2019-04-19T09:57:33.000Z</time>
      </trkpt>
      <trkpt lat="38.492655" lon="-0.712373">
        <ele>790</ele>
        <time>2019-04-19T09:57:36.000Z</time>
      </trkpt>
      <trkpt lat="38.492672" lon="-0.712396">
        <ele>790.561400357051</ele>
        <time>2019-04-19T09:57:39.000Z</time>
      </trkpt>
      <trkpt lat="38.492693" lon="-0.712412">
        <ele>791</ele>
        <time>2019-04-19T09:57:42.000Z</time>
      </trkpt>
      <trkpt lat="38.492716" lon="-0.712416">
        <ele>792.64</ele>
        <time>2019-04-19T09:57:46.000Z</time>
      </trkpt>
      <trkpt lat="38.492738" lon="-0.712424">
        <ele>793.561400357051</ele>
        <time>2019-04-19T09:57:49.000Z</time>
      </trkpt>
      <trkpt lat="38.49276" lon="-0.712432">
        <ele>794</ele>
        <time>2019-04-19T09:57:52.000Z</time>
      </trkpt>
      <trkpt lat="38.492778" lon="-0.712434">
        <ele>794.566373285305</ele>
        <time>2019-04-19T09:57:54.000Z</time>
      </trkpt>
      <trkpt lat="38.492798" lon="-0.712449">
        <ele>796</ele>
        <time>2019-04-19T09:57:57.000Z</time>
      </trkpt>
      <trkpt lat="38.492814" lon="-0.712473">
        <ele>796</ele>
        <time>2019-04-19T09:58:00.000Z</time>
      </trkpt>
      <trkpt lat="38.492833" lon="-0.712471">
        <ele>797</ele>
        <time>2019-04-19T09:58:03.000Z</time>
      </trkpt>
      <trkpt lat="38.492851" lon="-0.712486">
        <ele>798</ele>
        <time>2019-04-19T09:58:07.000Z</time>
      </trkpt>
      <trkpt lat="38.492867" lon="-0.712512">
        <ele>798</ele>
        <time>2019-04-19T09:58:10.000Z</time>
      </trkpt>
      <trkpt lat="38.492885" lon="-0.712526">
        <ele>799</ele>
        <time>2019-04-19T09:58:13.000Z</time>
      </trkpt>
      <trkpt lat="38.492897" lon="-0.712548">
        <ele>800.492960031729</ele>
        <time>2019-04-19T09:58:16.000Z</time>
      </trkpt>
      <trkpt lat="38.492908" lon="-0.712566">
        <ele>801</ele>
        <time>2019-04-19T09:58:18.000Z</time>
      </trkpt>
      <trkpt lat="38.492923" lon="-0.712582">
        <ele>801</ele>
        <time>2019-04-19T09:58:20.000Z</time>
      </trkpt>
      <trkpt lat="38.49294" lon="-0.712602">
        <ele>802</ele>
        <time>2019-04-19T09:58:23.000Z</time>
      </trkpt>
      <trkpt lat="38.492957" lon="-0.712613">
        <ele>803</ele>
        <time>2019-04-19T09:58:25.000Z</time>
      </trkpt>
      <trkpt lat="38.492971" lon="-0.712633">
        <ele>804</ele>
        <time>2019-04-19T09:58:27.000Z</time>
      </trkpt>
      <trkpt lat="38.492989" lon="-0.712648">
        <ele>804</ele>
        <time>2019-04-19T09:58:29.000Z</time>
      </trkpt>
      <trkpt lat="38.493006" lon="-0.71266">
        <ele>804</ele>
        <time>2019-04-19T09:58:31.000Z</time>
      </trkpt>
      <trkpt lat="38.493018" lon="-0.712682">
        <ele>805.621053908029</ele>
        <time>2019-04-19T09:58:33.000Z</time>
      </trkpt>
      <trkpt lat="38.493035" lon="-0.712697">
        <ele>806</ele>
        <time>2019-04-19T09:58:35.000Z</time>
      </trkpt>
      <trkpt lat="38.493056" lon="-0.712701">
        <ele>806</ele>
        <time>2019-04-19T09:58:38.000Z</time>
      </trkpt>
      <trkpt lat="38.493077" lon="-0.712721">
        <ele>806</ele>
        <time>2019-04-19T09:58:41.000Z</time>
      </trkpt>
      <trkpt lat="38.493095" lon="-0.712732">
        <ele>806.581814796714</ele>
        <time>2019-04-19T09:58:44.000Z</time>
      </trkpt>
      <trkpt lat="38.493113" lon="-0.712751">
        <ele>808</ele>
        <time>2019-04-19T09:58:47.000Z</time>
      </trkpt>
      <trkpt lat="38.493134" lon="-0.71276">
        <ele>809</ele>
        <time>2019-04-19T09:58:50.000Z</time>
      </trkpt>
      <trkpt lat="38.493157" lon="-0.712757">
        <ele>810.49219</ele>
        <time>2019-04-19T09:58:53.000Z</time>
      </trkpt>
      <trkpt lat="38.493171" lon="-0.712774">
        <ele>812</ele>
        <time>2019-04-19T09:58:57.000Z</time>
      </trkpt>
      <trkpt lat="38.49317" lon="-0.712806">
        <ele>812.627447043469</ele>
        <time>2019-04-19T09:59:00.000Z</time>
      </trkpt>
      <trkpt lat="38.493181" lon="-0.712829">
        <ele>813</ele>
        <time>2019-04-19T09:59:03.000Z</time>
      </trkpt>
      <trkpt lat="38.493198" lon="-0.712815">
        <ele>814</ele>
        <time>2019-04-19T09:59:05.000Z</time>
      </trkpt>
      <trkpt lat="38.493214" lon="-0.7128">
        <ele>814.492960031729</ele>
        <time>2019-04-19T09:59:08.000Z</time>
      </trkpt>
      <trkpt lat="38.49323" lon="-0.712817">
        <ele>817</ele>
        <time>2019-04-19T09:59:33.000Z</time>
      </trkpt>
      <trkpt lat="38.493251" lon="-0.712815">
        <ele>817</ele>
        <time>2019-04-19T09:59:36.000Z</time>
      </trkpt>
      <trkpt lat="38.493276" lon="-0.712809">
        <ele>818.628864755018</ele>
        <time>2019-04-19T09:59:39.000Z</time>
      </trkpt>
      <trkpt lat="38.493294" lon="-0.71281">
        <ele>819</ele>
        <time>2019-04-19T09:59:41.000Z</time>
      </trkpt>
      <trkpt lat="38.493313" lon="-0.71281">
        <ele>820</ele>
        <time>2019-04-19T09:59:43.000Z</time>
      </trkpt>
      <trkpt lat="38.493332" lon="-0.712809">
        <ele>820</ele>
        <time>2019-04-19T09:59:45.000Z</time>
      </trkpt>
      <trkpt lat="38.493355" lon="-0.712807">
        <ele>820</ele>
        <time>2019-04-19T09:59:47.000Z</time>
      </trkpt>
      <trkpt lat="38.493378" lon="-0.712807">
        <ele>821.628864755018</ele>
        <time>2019-04-19T09:59:49.000Z</time>
      </trkpt>
      <trkpt lat="38.493398" lon="-0.712806">
        <ele>822</ele>
        <time>2019-04-19T09:59:51.000Z</time>
      </trkpt>
      <trkpt lat="38.493417" lon="-0.712807">
        <ele>822</ele>
        <time>2019-04-19T09:59:53.000Z</time>
      </trkpt>
      <trkpt lat="38.493435" lon="-0.712796">
        <ele>822</ele>
        <time>2019-04-19T09:59:55.000Z</time>
      </trkpt>
      <trkpt lat="38.493455" lon="-0.712789">
        <ele>822</ele>
        <time>2019-04-19T09:59:57.000Z</time>
      </trkpt>
      <trkpt lat="38.493475" lon="-0.712791">
        <ele>823</ele>
        <time>2019-04-19T10:00:12.000Z</time>
      </trkpt>
      <trkpt lat="38.493494" lon="-0.712792">
        <ele>823</ele>
        <time>2019-04-19T10:00:20.000Z</time>
      </trkpt>
      <trkpt lat="38.493512" lon="-0.712789">
        <ele>824</ele>
        <time>2019-04-19T10:00:22.000Z</time>
      </trkpt>
      <trkpt lat="38.493533" lon="-0.712794">
        <ele>824</ele>
        <time>2019-04-19T10:00:24.000Z</time>
      </trkpt>
      <trkpt lat="38.493551" lon="-0.712794">
        <ele>824.64</ele>
        <time>2019-04-19T10:00:26.000Z</time>
      </trkpt>
      <trkpt lat="38.493573" lon="-0.712786">
        <ele>825</ele>
        <time>2019-04-19T10:00:28.000Z</time>
      </trkpt>
      <trkpt lat="38.493594" lon="-0.712768">
        <ele>825</ele>
        <time>2019-04-19T10:00:30.000Z</time>
      </trkpt>
      <trkpt lat="38.493615" lon="-0.712768">
        <ele>826</ele>
        <time>2019-04-19T10:00:33.000Z</time>
      </trkpt>
      <trkpt lat="38.493639" lon="-0.712768">
        <ele>827</ele>
        <time>2019-04-19T10:00:36.000Z</time>
      </trkpt>
      <trkpt lat="38.493663" lon="-0.712776">
        <ele>829</ele>
        <time>2019-04-19T10:00:39.000Z</time>
      </trkpt>
      <trkpt lat="38.493682" lon="-0.71278">
        <ele>829</ele>
        <time>2019-04-19T10:00:41.000Z</time>
      </trkpt>
      <trkpt lat="38.493702" lon="-0.71277">
        <ele>830</ele>
        <time>2019-04-19T10:00:43.000Z</time>
      </trkpt>
      <trkpt lat="38.493722" lon="-0.712762">
        <ele>830.571428571429</ele>
        <time>2019-04-19T10:00:45.000Z</time>
      </trkpt>
      <trkpt lat="38.493745" lon="-0.71275">
        <ele>832</ele>
        <time>2019-04-19T10:00:48.000Z</time>
      </trkpt>
      <trkpt lat="38.493763" lon="-0.712767">
        <ele>833</ele>
        <time>2019-04-19T10:00:53.000Z</time>
      </trkpt>
      <trkpt lat="38.493777" lon="-0.712782">
        <ele>833.615384615385</ele>
        <time>2019-04-19T10:00:59.000Z</time>
      </trkpt>
      <trkpt lat="38.493778" lon="-0.712809">
        <ele>834</ele>
        <time>2019-04-19T10:01:03.000Z</time>
      </trkpt>
      <trkpt lat="38.493771" lon="-0.71284">
        <ele>835</ele>
        <time>2019-04-19T10:01:06.000Z</time>
      </trkpt>
      <trkpt lat="38.493769" lon="-0.712863">
        <ele>836</ele>
        <time>2019-04-19T10:01:09.000Z</time>
      </trkpt>
      <trkpt lat="38.49376" lon="-0.712889">
        <ele>837</ele>
        <time>2019-04-19T10:01:12.000Z</time>
      </trkpt>
      <trkpt lat="38.49375" lon="-0.712909">
        <ele>838.626262234462</ele>
        <time>2019-04-19T10:01:15.000Z</time>
      </trkpt>
      <trkpt lat="38.493738" lon="-0.712929">
        <ele>839</ele>
        <time>2019-04-19T10:01:18.000Z</time>
      </trkpt>
      <trkpt lat="38.49373" lon="-0.712961">
        <ele>840</ele>
        <time>2019-04-19T10:01:21.000Z</time>
      </trkpt>
      <trkpt lat="38.493734" lon="-0.712986">
        <ele>840.64</ele>
        <time>2019-04-19T10:01:23.000Z</time>
      </trkpt>
      <trkpt lat="38.493736" lon="-0.71301">
        <ele>841</ele>
        <time>2019-04-19T10:01:25.000Z</time>
      </trkpt>
      <trkpt lat="38.493741" lon="-0.713034">
        <ele>842</ele>
        <time>2019-04-19T10:01:27.000Z</time>
      </trkpt>
      <trkpt lat="38.493746" lon="-0.713058">
        <ele>842</ele>
        <time>2019-04-19T10:01:29.000Z</time>
      </trkpt>
      <trkpt lat="38.49375" lon="-0.713083">
        <ele>842</ele>
        <time>2019-04-19T10:01:31.000Z</time>
      </trkpt>
      <trkpt lat="38.493754" lon="-0.713109">
        <ele>842</ele>
        <time>2019-04-19T10:01:33.000Z</time>
      </trkpt>
      <trkpt lat="38.493758" lon="-0.713134">
        <ele>843</ele>
        <time>2019-04-19T10:01:35.000Z</time>
      </trkpt>
      <trkpt lat="38.49376" lon="-0.713157">
        <ele>844</ele>
        <time>2019-04-19T10:01:37.000Z</time>
      </trkpt>
      <trkpt lat="38.493764" lon="-0.713181">
        <ele>844</ele>
        <time>2019-04-19T10:01:39.000Z</time>
      </trkpt>
      <trkpt lat="38.493766" lon="-0.713206">
        <ele>844</ele>
        <time>2019-04-19T10:01:41.000Z</time>
      </trkpt>
      <trkpt lat="38.49377" lon="-0.71324">
        <ele>845</ele>
        <time>2019-04-19T10:01:44.000Z</time>
      </trkpt>
      <trkpt lat="38.493774" lon="-0.713267">
        <ele>846</ele>
        <time>2019-04-19T10:01:46.000Z</time>
      </trkpt>
      <trkpt lat="38.493776" lon="-0.713293">
        <ele>846.64</ele>
        <time>2019-04-19T10:01:48.000Z</time>
      </trkpt>
      <trkpt lat="38.493776" lon="-0.713318">
        <ele>847</ele>
        <time>2019-04-19T10:01:50.000Z</time>
      </trkpt>
      <trkpt lat="38.493778" lon="-0.71335">
        <ele>848</ele>
        <time>2019-04-19T10:01:57.000Z</time>
      </trkpt>
      <trkpt lat="38.493798" lon="-0.713385">
        <ele>848</ele>
        <time>2019-04-19T10:01:59.000Z</time>
      </trkpt>
      <trkpt lat="38.49382" lon="-0.713417">
        <ele>847.36</ele>
        <time>2019-04-19T10:02:01.000Z</time>
      </trkpt>
      <trkpt lat="38.493828" lon="-0.713448">
        <ele>847</ele>
        <time>2019-04-19T10:02:03.000Z</time>
      </trkpt>
      <trkpt lat="38.493838" lon="-0.713475">
        <ele>848</ele>
        <time>2019-04-19T10:02:05.000Z</time>
      </trkpt>
      <trkpt lat="38.493846" lon="-0.713502">
        <ele>849</ele>
        <time>2019-04-19T10:02:07.000Z</time>
      </trkpt>
      <trkpt lat="38.493852" lon="-0.713531">
        <ele>849</ele>
        <time>2019-04-19T10:02:09.000Z</time>
      </trkpt>
      <trkpt lat="38.493866" lon="-0.713557">
        <ele>850</ele>
        <time>2019-04-19T10:02:11.000Z</time>
      </trkpt>
      <trkpt lat="38.493878" lon="-0.713585">
        <ele>850</ele>
        <time>2019-04-19T10:02:13.000Z</time>
      </trkpt>
      <trkpt lat="38.493888" lon="-0.71361">
        <ele>850</ele>
        <time>2019-04-19T10:02:15.000Z</time>
      </trkpt>
      <trkpt lat="38.493894" lon="-0.713636">
        <ele>850</ele>
        <time>2019-04-19T10:02:17.000Z</time>
      </trkpt>
      <trkpt lat="38.493906" lon="-0.71366">
        <ele>850.64</ele>
        <time>2019-04-19T10:02:19.000Z</time>
      </trkpt>
      <trkpt lat="38.49392" lon="-0.713686">
        <ele>851</ele>
        <time>2019-04-19T10:02:21.000Z</time>
      </trkpt>
      <trkpt lat="38.493934" lon="-0.713714">
        <ele>851.366663822162</ele>
        <time>2019-04-19T10:02:23.000Z</time>
      </trkpt>
      <trkpt lat="38.493944" lon="-0.71374">
        <ele>852</ele>
        <time>2019-04-19T10:02:25.000Z</time>
      </trkpt>
      <trkpt lat="38.493956" lon="-0.713766">
        <ele>852.571428571429</ele>
        <time>2019-04-19T10:02:27.000Z</time>
      </trkpt>
      <trkpt lat="38.49397" lon="-0.713788">
        <ele>853</ele>
        <time>2019-04-19T10:02:29.000Z</time>
      </trkpt>
      <trkpt lat="38.493982" lon="-0.713813">
        <ele>853</ele>
        <time>2019-04-19T10:02:31.000Z</time>
      </trkpt>
      <trkpt lat="38.493988" lon="-0.713834">
        <ele>853.383338666667</ele>
        <time>2019-04-19T10:02:33.000Z</time>
      </trkpt>
      <trkpt lat="38.493996" lon="-0.713857">
        <ele>854</ele>
        <time>2019-04-19T10:02:35.000Z</time>
      </trkpt>
      <trkpt lat="38.494008" lon="-0.713881">
        <ele>854.64</ele>
        <time>2019-04-19T10:02:37.000Z</time>
      </trkpt>
      <trkpt lat="38.494014" lon="-0.713909">
        <ele>855</ele>
        <time>2019-04-19T10:02:39.000Z</time>
      </trkpt>
      <trkpt lat="38.494022" lon="-0.713933">
        <ele>856</ele>
        <time>2019-04-19T10:02:41.000Z</time>
      </trkpt>
      <trkpt lat="38.494026" lon="-0.713955">
        <ele>857</ele>
        <time>2019-04-19T10:02:43.000Z</time>
      </trkpt>
      <trkpt lat="38.494042" lon="-0.713981">
        <ele>858</ele>
        <time>2019-04-19T10:02:46.000Z</time>
      </trkpt>
      <trkpt lat="38.494057" lon="-0.713991">
        <ele>858</ele>
        <time>2019-04-19T10:02:48.000Z</time>
      </trkpt>
      <trkpt lat="38.494068" lon="-0.714014">
        <ele>858</ele>
        <time>2019-04-19T10:02:50.000Z</time>
      </trkpt>
      <trkpt lat="38.494082" lon="-0.714035">
        <ele>858</ele>
        <time>2019-04-19T10:02:53.000Z</time>
      </trkpt>
      <trkpt lat="38.494106" lon="-0.71406">
        <ele>858</ele>
        <time>2019-04-19T10:02:59.000Z</time>
      </trkpt>
      <trkpt lat="38.494124" lon="-0.714074">
        <ele>858</ele>
        <time>2019-04-19T10:03:00.000Z</time>
      </trkpt>
      <trkpt lat="38.494148" lon="-0.714109">
        <ele>858</ele>
        <time>2019-04-19T10:03:02.000Z</time>
      </trkpt>
      <trkpt lat="38.494171" lon="-0.714138">
        <ele>859</ele>
        <time>2019-04-19T10:03:04.000Z</time>
      </trkpt>
      <trkpt lat="38.4942" lon="-0.714166">
        <ele>858</ele>
        <time>2019-04-19T10:03:06.000Z</time>
      </trkpt>
      <trkpt lat="38.494217" lon="-0.714181">
        <ele>858</ele>
        <time>2019-04-19T10:03:07.000Z</time>
      </trkpt>
      <trkpt lat="38.494243" lon="-0.714207">
        <ele>858</ele>
        <time>2019-04-19T10:03:09.000Z</time>
      </trkpt>
      <trkpt lat="38.494256" lon="-0.714223">
        <ele>858.603777230353</ele>
        <time>2019-04-19T10:03:10.000Z</time>
      </trkpt>
      <trkpt lat="38.494275" lon="-0.714235">
        <ele>859</ele>
        <time>2019-04-19T10:03:11.000Z</time>
      </trkpt>
      <trkpt lat="38.494297" lon="-0.714247">
        <ele>858.36</ele>
        <time>2019-04-19T10:03:12.000Z</time>
      </trkpt>
      <trkpt lat="38.494317" lon="-0.714263">
        <ele>858</ele>
        <time>2019-04-19T10:03:13.000Z</time>
      </trkpt>
      <trkpt lat="38.494337" lon="-0.714279">
        <ele>858</ele>
        <time>2019-04-19T10:03:14.000Z</time>
      </trkpt>
      <trkpt lat="38.494356" lon="-0.714295">
        <ele>858</ele>
        <time>2019-04-19T10:03:15.000Z</time>
      </trkpt>
      <trkpt lat="38.494376" lon="-0.714312">
        <ele>858</ele>
        <time>2019-04-19T10:03:16.000Z</time>
      </trkpt>
      <trkpt lat="38.494392" lon="-0.714327">
        <ele>858</ele>
        <time>2019-04-19T10:03:17.000Z</time>
      </trkpt>
      <trkpt lat="38.494418" lon="-0.714348">
        <ele>858</ele>
        <time>2019-04-19T10:03:19.000Z</time>
      </trkpt>
      <trkpt lat="38.494433" lon="-0.714366">
        <ele>858</ele>
        <time>2019-04-19T10:03:21.000Z</time>
      </trkpt>
      <trkpt lat="38.494441" lon="-0.714387">
        <ele>858</ele>
        <time>2019-04-19T10:03:26.000Z</time>
      </trkpt>
      <trkpt lat="38.494453" lon="-0.714415">
        <ele>858</ele>
        <time>2019-04-19T10:03:28.000Z</time>
      </trkpt>
      <trkpt lat="38.494471" lon="-0.714438">
        <ele>858</ele>
        <time>2019-04-19T10:03:30.000Z</time>
      </trkpt>
      <trkpt lat="38.494487" lon="-0.714455">
        <ele>858</ele>
        <time>2019-04-19T10:03:31.000Z</time>
      </trkpt>
      <trkpt lat="38.494503" lon="-0.714471">
        <ele>858.64</ele>
        <time>2019-04-19T10:03:32.000Z</time>
      </trkpt>
      <trkpt lat="38.494518" lon="-0.714489">
        <ele>859</ele>
        <time>2019-04-19T10:03:33.000Z</time>
      </trkpt>
      <trkpt lat="38.49453" lon="-0.714511">
        <ele>858.36</ele>
        <time>2019-04-19T10:03:34.000Z</time>
      </trkpt>
      <trkpt lat="38.494542" lon="-0.71453">
        <ele>858</ele>
        <time>2019-04-19T10:03:35.000Z</time>
      </trkpt>
      <trkpt lat="38.494554" lon="-0.714548">
        <ele>857.36</ele>
        <time>2019-04-19T10:03:36.000Z</time>
      </trkpt>
      <trkpt lat="38.494566" lon="-0.714567">
        <ele>856.36</ele>
        <time>2019-04-19T10:03:37.000Z</time>
      </trkpt>
      <trkpt lat="38.494576" lon="-0.714588">
        <ele>856</ele>
        <time>2019-04-19T10:03:38.000Z</time>
      </trkpt>
      <trkpt lat="38.494587" lon="-0.714611">
        <ele>856</ele>
        <time>2019-04-19T10:03:39.000Z</time>
      </trkpt>
      <trkpt lat="38.494601" lon="-0.714633">
        <ele>856</ele>
        <time>2019-04-19T10:03:40.000Z</time>
      </trkpt>
      <trkpt lat="38.494617" lon="-0.714654">
        <ele>855.395603004473</ele>
        <time>2019-04-19T10:03:41.000Z</time>
      </trkpt>
      <trkpt lat="38.494632" lon="-0.714674">
        <ele>854.36</ele>
        <time>2019-04-19T10:03:42.000Z</time>
      </trkpt>
      <trkpt lat="38.494648" lon="-0.714692">
        <ele>853.366334626011</ele>
        <time>2019-04-19T10:03:43.000Z</time>
      </trkpt>
      <trkpt lat="38.494661" lon="-0.714713">
        <ele>852.519082701477</ele>
        <time>2019-04-19T10:03:44.000Z</time>
      </trkpt>
      <trkpt lat="38.494679" lon="-0.714733">
        <ele>852</ele>
        <time>2019-04-19T10:03:45.000Z</time>
      </trkpt>
      <trkpt lat="38.494698" lon="-0.714752">
        <ele>852</ele>
        <time>2019-04-19T10:03:46.000Z</time>
      </trkpt>
      <trkpt lat="38.494717" lon="-0.714766">
        <ele>852</ele>
        <time>2019-04-19T10:03:47.000Z</time>
      </trkpt>
      <trkpt lat="38.494734" lon="-0.714781">
        <ele>852</ele>
        <time>2019-04-19T10:03:48.000Z</time>
      </trkpt>
      <trkpt lat="38.494751" lon="-0.714798">
        <ele>852</ele>
        <time>2019-04-19T10:03:49.000Z</time>
      </trkpt>
      <trkpt lat="38.494767" lon="-0.714814">
        <ele>852</ele>
        <time>2019-04-19T10:03:50.000Z</time>
      </trkpt>
      <trkpt lat="38.494786" lon="-0.714827">
        <ele>852</ele>
        <time>2019-04-19T10:03:51.000Z</time>
      </trkpt>
      <trkpt lat="38.494814" lon="-0.714842">
        <ele>851.36</ele>
        <time>2019-04-19T10:03:53.000Z</time>
      </trkpt>
      <trkpt lat="38.494834" lon="-0.714855">
        <ele>850.391304347826</ele>
        <time>2019-04-19T10:03:55.000Z</time>
      </trkpt>
      <trkpt lat="38.494854" lon="-0.714862">
        <ele>850</ele>
        <time>2019-04-19T10:03:57.000Z</time>
      </trkpt>
      <trkpt lat="38.494875" lon="-0.714845">
        <ele>850</ele>
        <time>2019-04-19T10:04:00.000Z</time>
      </trkpt>
      <trkpt lat="38.494888" lon="-0.714829">
        <ele>850</ele>
        <time>2019-04-19T10:04:02.000Z</time>
      </trkpt>
      <trkpt lat="38.494905" lon="-0.714809">
        <ele>853</ele>
        <time>2019-04-19T10:04:08.000Z</time>
      </trkpt>
      <trkpt lat="38.494911" lon="-0.714784">
        <ele>853.587157687068</ele>
        <time>2019-04-19T10:04:11.000Z</time>
      </trkpt>
      <trkpt lat="38.494916" lon="-0.714759">
        <ele>855</ele>
        <time>2019-04-19T10:04:15.000Z</time>
      </trkpt>
      <trkpt lat="38.494926" lon="-0.714737">
        <ele>857</ele>
        <time>2019-04-19T10:04:21.000Z</time>
      </trkpt>
      <trkpt lat="38.494946" lon="-0.714728">
        <ele>857</ele>
        <time>2019-04-19T10:04:24.000Z</time>
      </trkpt>
      <trkpt lat="38.494961" lon="-0.714713">
        <ele>857.608695652174</ele>
        <time>2019-04-19T10:04:27.000Z</time>
      </trkpt>
      <trkpt lat="38.49498" lon="-0.714697">
        <ele>858</ele>
        <time>2019-04-19T10:04:31.000Z</time>
      </trkpt>
      <trkpt lat="38.49499" lon="-0.714673">
        <ele>860</ele>
        <time>2019-04-19T10:04:35.000Z</time>
      </trkpt>
      <trkpt lat="38.495003" lon="-0.714656">
        <ele>861</ele>
        <time>2019-04-19T10:04:38.000Z</time>
      </trkpt>
      <trkpt lat="38.495018" lon="-0.714641">
        <ele>862.627447043469</ele>
        <time>2019-04-19T10:04:42.000Z</time>
      </trkpt>
      <trkpt lat="38.495026" lon="-0.714615">
        <ele>864</ele>
        <time>2019-04-19T10:04:48.000Z</time>
      </trkpt>
      <trkpt lat="38.495022" lon="-0.714591">
        <ele>864.470588235294</ele>
        <time>2019-04-19T10:04:53.000Z</time>
      </trkpt>
      <trkpt lat="38.495031" lon="-0.714563">
        <ele>865</ele>
        <time>2019-04-19T10:04:57.000Z</time>
      </trkpt>
      <trkpt lat="38.495047" lon="-0.714549">
        <ele>866</ele>
        <time>2019-04-19T10:05:01.000Z</time>
      </trkpt>
      <trkpt lat="38.495066" lon="-0.714552">
        <ele>866</ele>
        <time>2019-04-19T10:05:04.000Z</time>
      </trkpt>
      <trkpt lat="38.495066" lon="-0.714524">
        <ele>869</ele>
        <time>2019-04-19T10:05:11.000Z</time>
      </trkpt>
      <trkpt lat="38.495067" lon="-0.714501">
        <ele>870</ele>
        <time>2019-04-19T10:05:18.000Z</time>
      </trkpt>
      <trkpt lat="38.495089" lon="-0.714491">
        <ele>870.64</ele>
        <time>2019-04-19T10:05:22.000Z</time>
      </trkpt>
      <trkpt lat="38.495107" lon="-0.714491">
        <ele>872</ele>
        <time>2019-04-19T10:05:26.000Z</time>
      </trkpt>
      <trkpt lat="38.495128" lon="-0.714494">
        <ele>872</ele>
        <time>2019-04-19T10:05:29.000Z</time>
      </trkpt>
      <trkpt lat="38.495131" lon="-0.714471">
        <ele>874</ele>
        <time>2019-04-19T10:05:33.000Z</time>
      </trkpt>
      <trkpt lat="38.495151" lon="-0.714468">
        <ele>874</ele>
        <time>2019-04-19T10:05:37.000Z</time>
      </trkpt>
      <trkpt lat="38.49517" lon="-0.71447">
        <ele>874.571428571429</ele>
        <time>2019-04-19T10:05:39.000Z</time>
      </trkpt>
      <trkpt lat="38.495164" lon="-0.714444">
        <ele>876</ele>
        <time>2019-04-19T10:05:44.000Z</time>
      </trkpt>
      <trkpt lat="38.495151" lon="-0.714425">
        <ele>877</ele>
        <time>2019-04-19T10:05:48.000Z</time>
      </trkpt>
      <trkpt lat="38.495139" lon="-0.7144">
        <ele>877.566373285305</ele>
        <time>2019-04-19T10:05:55.000Z</time>
      </trkpt>
      <trkpt lat="38.495129" lon="-0.714376">
        <ele>878</ele>
        <time>2019-04-19T10:05:58.000Z</time>
      </trkpt>
      <trkpt lat="38.495109" lon="-0.714362">
        <ele>878</ele>
        <time>2019-04-19T10:06:01.000Z</time>
      </trkpt>
      <trkpt lat="38.495102" lon="-0.714339">
        <ele>879.625</ele>
        <time>2019-04-19T10:06:04.000Z</time>
      </trkpt>
      <trkpt lat="38.495101" lon="-0.714315">
        <ele>881.625</ele>
        <time>2019-04-19T10:06:09.000Z</time>
      </trkpt>
      <trkpt lat="38.495086" lon="-0.714299">
        <ele>882</ele>
        <time>2019-04-19T10:06:13.000Z</time>
      </trkpt>
      <trkpt lat="38.49508" lon="-0.714273">
        <ele>883</ele>
        <time>2019-04-19T10:06:18.000Z</time>
      </trkpt>
      <trkpt lat="38.49506" lon="-0.714256">
        <ele>884</ele>
        <time>2019-04-19T10:06:22.000Z</time>
      </trkpt>
      <trkpt lat="38.49504" lon="-0.71424">
        <ele>885.592592592593</ele>
        <time>2019-04-19T10:06:25.000Z</time>
      </trkpt>
      <trkpt lat="38.495014" lon="-0.71423">
        <ele>886</ele>
        <time>2019-04-19T10:06:28.000Z</time>
      </trkpt>
      <trkpt lat="38.495017" lon="-0.714205">
        <ele>888</ele>
        <time>2019-04-19T10:06:34.000Z</time>
      </trkpt>
      <trkpt lat="38.495031" lon="-0.714187">
        <ele>887.378642707129</ele>
        <time>2019-04-19T10:06:39.000Z</time>
      </trkpt>
      <trkpt lat="38.495048" lon="-0.714165">
        <ele>887</ele>
        <time>2019-04-19T10:06:43.000Z</time>
      </trkpt>
      <trkpt lat="38.495062" lon="-0.71415">
        <ele>888</ele>
        <time>2019-04-19T10:06:45.000Z</time>
      </trkpt>
      <trkpt lat="38.49508" lon="-0.714131">
        <ele>888.492310115988</ele>
        <time>2019-04-19T10:06:48.000Z</time>
      </trkpt>
      <trkpt lat="38.4951" lon="-0.714122">
        <ele>889</ele>
        <time>2019-04-19T10:06:51.000Z</time>
      </trkpt>
      <trkpt lat="38.49512" lon="-0.714116">
        <ele>890</ele>
        <time>2019-04-19T10:06:53.000Z</time>
      </trkpt>
      <trkpt lat="38.495141" lon="-0.714114">
        <ele>890.609525667126</ele>
        <time>2019-04-19T10:06:55.000Z</time>
      </trkpt>
      <trkpt lat="38.495164" lon="-0.714114">
        <ele>891</ele>
        <time>2019-04-19T10:06:57.000Z</time>
      </trkpt>
      <trkpt lat="38.495184" lon="-0.714109">
        <ele>891</ele>
        <time>2019-04-19T10:06:59.000Z</time>
      </trkpt>
      <trkpt lat="38.495207" lon="-0.714108">
        <ele>891</ele>
        <time>2019-04-19T10:07:01.000Z</time>
      </trkpt>
      <trkpt lat="38.495233" lon="-0.714104">
        <ele>891</ele>
        <time>2019-04-19T10:07:03.000Z</time>
      </trkpt>
      <trkpt lat="38.495254" lon="-0.714094">
        <ele>892</ele>
        <time>2019-04-19T10:07:05.000Z</time>
      </trkpt>
      <trkpt lat="38.495273" lon="-0.714081">
        <ele>892</ele>
        <time>2019-04-19T10:07:07.000Z</time>
      </trkpt>
      <trkpt lat="38.49529" lon="-0.714072">
        <ele>892</ele>
        <time>2019-04-19T10:07:09.000Z</time>
      </trkpt>
      <trkpt lat="38.49532" lon="-0.714077">
        <ele>892</ele>
        <time>2019-04-19T10:07:12.000Z</time>
      </trkpt>
      <trkpt lat="38.495346" lon="-0.714077">
        <ele>892</ele>
        <time>2019-04-19T10:07:14.000Z</time>
      </trkpt>
      <trkpt lat="38.495369" lon="-0.714078">
        <ele>892</ele>
        <time>2019-04-19T10:07:16.000Z</time>
      </trkpt>
      <trkpt lat="38.495391" lon="-0.714081">
        <ele>893.604396995527</ele>
        <time>2019-04-19T10:07:18.000Z</time>
      </trkpt>
      <trkpt lat="38.495415" lon="-0.714084">
        <ele>894.64</ele>
        <time>2019-04-19T10:07:20.000Z</time>
      </trkpt>
      <trkpt lat="38.49544" lon="-0.714088">
        <ele>895</ele>
        <time>2019-04-19T10:07:22.000Z</time>
      </trkpt>
      <trkpt lat="38.495464" lon="-0.714083">
        <ele>895</ele>
        <time>2019-04-19T10:07:24.000Z</time>
      </trkpt>
      <trkpt lat="38.495489" lon="-0.714085">
        <ele>895</ele>
        <time>2019-04-19T10:07:26.000Z</time>
      </trkpt>
      <trkpt lat="38.495512" lon="-0.714086">
        <ele>895</ele>
        <time>2019-04-19T10:07:28.000Z</time>
      </trkpt>
      <trkpt lat="38.495535" lon="-0.714093">
        <ele>895</ele>
        <time>2019-04-19T10:07:30.000Z</time>
      </trkpt>
      <trkpt lat="38.495559" lon="-0.714094">
        <ele>895.64</ele>
        <time>2019-04-19T10:07:32.000Z</time>
      </trkpt>
      <trkpt lat="38.495578" lon="-0.714105">
        <ele>896</ele>
        <time>2019-04-19T10:07:34.000Z</time>
      </trkpt>
      <trkpt lat="38.495598" lon="-0.714122">
        <ele>896</ele>
        <time>2019-04-19T10:07:36.000Z</time>
      </trkpt>
      <trkpt lat="38.495616" lon="-0.71414">
        <ele>896</ele>
        <time>2019-04-19T10:07:38.000Z</time>
      </trkpt>
      <trkpt lat="38.495631" lon="-0.714162">
        <ele>896.433626714695</ele>
        <time>2019-04-19T10:07:40.000Z</time>
      </trkpt>
      <trkpt lat="38.495651" lon="-0.714183">
        <ele>896</ele>
        <time>2019-04-19T10:07:42.000Z</time>
      </trkpt>
      <trkpt lat="38.495668" lon="-0.714194">
        <ele>896.625</ele>
        <time>2019-04-19T10:07:44.000Z</time>
      </trkpt>
      <trkpt lat="38.495683" lon="-0.714208">
        <ele>897</ele>
        <time>2019-04-19T10:07:46.000Z</time>
      </trkpt>
      <trkpt lat="38.495703" lon="-0.714218">
        <ele>897</ele>
        <time>2019-04-19T10:07:48.000Z</time>
      </trkpt>
      <trkpt lat="38.495722" lon="-0.714218">
        <ele>898</ele>
        <time>2019-04-19T10:07:50.000Z</time>
      </trkpt>
      <trkpt lat="38.495735" lon="-0.71424">
        <ele>899</ele>
        <time>2019-04-19T10:07:52.000Z</time>
      </trkpt>
      <trkpt lat="38.495744" lon="-0.71427">
        <ele>899</ele>
        <time>2019-04-19T10:07:54.000Z</time>
      </trkpt>
      <trkpt lat="38.495762" lon="-0.714293">
        <ele>899</ele>
        <time>2019-04-19T10:07:56.000Z</time>
      </trkpt>
      <trkpt lat="38.495781" lon="-0.714302">
        <ele>900</ele>
        <time>2019-04-19T10:07:58.000Z</time>
      </trkpt>
      <trkpt lat="38.495797" lon="-0.714313">
        <ele>900.590909090909</ele>
        <time>2019-04-19T10:08:00.000Z</time>
      </trkpt>
      <trkpt lat="38.495819" lon="-0.714312">
        <ele>901</ele>
        <time>2019-04-19T10:08:03.000Z</time>
      </trkpt>
      <trkpt lat="38.495831" lon="-0.714291">
        <ele>900</ele>
        <time>2019-04-19T10:08:06.000Z</time>
      </trkpt>
      <trkpt lat="38.495826" lon="-0.714316">
        <ele>898</ele>
        <time>2019-04-19T10:09:27.000Z</time>
      </trkpt>
      <trkpt lat="38.495842" lon="-0.714341">
        <ele>898.633665373989</ele>
        <time>2019-04-19T10:09:51.000Z</time>
      </trkpt>
      <trkpt lat="38.495835" lon="-0.714317">
        <ele>898</ele>
        <time>2019-04-19T10:10:27.000Z</time>
      </trkpt>
      <trkpt lat="38.495831" lon="-0.714292">
        <ele>897.418601535989</ele>
        <time>2019-04-19T10:11:17.000Z</time>
      </trkpt>
      <trkpt lat="38.495824" lon="-0.714265">
        <ele>898</ele>
        <time>2019-04-19T10:11:20.000Z</time>
      </trkpt>
      <trkpt lat="38.495826" lon="-0.714236">
        <ele>897</ele>
        <time>2019-04-19T10:11:26.000Z</time>
      </trkpt>
      <trkpt lat="38.495834" lon="-0.714202">
        <ele>896.396230060498</ele>
        <time>2019-04-19T10:11:29.000Z</time>
      </trkpt>
      <trkpt lat="38.495845" lon="-0.714174">
        <ele>896</ele>
        <time>2019-04-19T10:11:31.000Z</time>
      </trkpt>
      <trkpt lat="38.495839" lon="-0.714145">
        <ele>896</ele>
        <time>2019-04-19T10:11:33.000Z</time>
      </trkpt>
      <trkpt lat="38.495837" lon="-0.714111">
        <ele>896</ele>
        <time>2019-04-19T10:11:35.000Z</time>
      </trkpt>
      <trkpt lat="38.495836" lon="-0.714087">
        <ele>895</ele>
        <time>2019-04-19T10:11:39.000Z</time>
      </trkpt>
      <trkpt lat="38.495851" lon="-0.714064">
        <ele>895</ele>
        <time>2019-04-19T10:11:42.000Z</time>
      </trkpt>
      <trkpt lat="38.495871" lon="-0.714057">
        <ele>894</ele>
        <time>2019-04-19T10:11:44.000Z</time>
      </trkpt>
      <trkpt lat="38.49588" lon="-0.714034">
        <ele>892.428571428571</ele>
        <time>2019-04-19T10:11:47.000Z</time>
      </trkpt>
      <trkpt lat="38.495874" lon="-0.714003">
        <ele>892</ele>
        <time>2019-04-19T10:11:50.000Z</time>
      </trkpt>
      <trkpt lat="38.495874" lon="-0.713976">
        <ele>891.552448553961</ele>
        <time>2019-04-19T10:11:52.000Z</time>
      </trkpt>
      <trkpt lat="38.495881" lon="-0.713949">
        <ele>891</ele>
        <time>2019-04-19T10:11:54.000Z</time>
      </trkpt>
      <trkpt lat="38.495889" lon="-0.713926">
        <ele>889.367344539791</ele>
        <time>2019-04-19T10:11:56.000Z</time>
      </trkpt>
      <trkpt lat="38.495906" lon="-0.713912">
        <ele>889</ele>
        <time>2019-04-19T10:11:58.000Z</time>
      </trkpt>
      <trkpt lat="38.495908" lon="-0.713873">
        <ele>888</ele>
        <time>2019-04-19T10:12:04.000Z</time>
      </trkpt>
      <trkpt lat="38.495905" lon="-0.713833">
        <ele>888</ele>
        <time>2019-04-19T10:12:06.000Z</time>
      </trkpt>
      <trkpt lat="38.495905" lon="-0.713808">
        <ele>888</ele>
        <time>2019-04-19T10:12:07.000Z</time>
      </trkpt>
      <trkpt lat="38.495905" lon="-0.713784">
        <ele>888</ele>
        <time>2019-04-19T10:12:08.000Z</time>
      </trkpt>
      <trkpt lat="38.495917" lon="-0.713751">
        <ele>886.378642707129</ele>
        <time>2019-04-19T10:12:10.000Z</time>
      </trkpt>
      <trkpt lat="38.495926" lon="-0.713716">
        <ele>885</ele>
        <time>2019-04-19T10:12:12.000Z</time>
      </trkpt>
      <trkpt lat="38.495941" lon="-0.7137">
        <ele>884.382981330937</ele>
        <time>2019-04-19T10:12:14.000Z</time>
      </trkpt>
      <trkpt lat="38.495967" lon="-0.713702">
        <ele>884</ele>
        <time>2019-04-19T10:12:16.000Z</time>
      </trkpt>
      <trkpt lat="38.495986" lon="-0.713707">
        <ele>884</ele>
        <time>2019-04-19T10:12:17.000Z</time>
      </trkpt>
      <trkpt lat="38.496007" lon="-0.713694">
        <ele>883</ele>
        <time>2019-04-19T10:12:19.000Z</time>
      </trkpt>
      <trkpt lat="38.496025" lon="-0.713679">
        <ele>881.72</ele>
        <time>2019-04-19T10:12:21.000Z</time>
      </trkpt>
      <trkpt lat="38.496041" lon="-0.713652">
        <ele>880.592592592593</ele>
        <time>2019-04-19T10:12:23.000Z</time>
      </trkpt>
      <trkpt lat="38.496043" lon="-0.71362">
        <ele>881</ele>
        <time>2019-04-19T10:12:25.000Z</time>
      </trkpt>
      <trkpt lat="38.496048" lon="-0.713591">
        <ele>880</ele>
        <time>2019-04-19T10:12:27.000Z</time>
      </trkpt>
      <trkpt lat="38.496068" lon="-0.713567">
        <ele>878.391304347826</ele>
        <time>2019-04-19T10:12:29.000Z</time>
      </trkpt>
      <trkpt lat="38.496079" lon="-0.713544">
        <ele>878</ele>
        <time>2019-04-19T10:12:31.000Z</time>
      </trkpt>
      <trkpt lat="38.496093" lon="-0.713521">
        <ele>876.148928347722</ele>
        <time>2019-04-19T10:12:33.000Z</time>
      </trkpt>
      <trkpt lat="38.496112" lon="-0.713515">
        <ele>875</ele>
        <time>2019-04-19T10:12:35.000Z</time>
      </trkpt>
      <trkpt lat="38.496129" lon="-0.713539">
        <ele>873.390474332874</ele>
        <time>2019-04-19T10:12:37.000Z</time>
      </trkpt>
      <trkpt lat="38.496153" lon="-0.713548">
        <ele>874</ele>
        <time>2019-04-19T10:12:39.000Z</time>
      </trkpt>
      <trkpt lat="38.49617" lon="-0.71357">
        <ele>874</ele>
        <time>2019-04-19T10:12:41.000Z</time>
      </trkpt>
      <trkpt lat="38.496192" lon="-0.713599">
        <ele>874</ele>
        <time>2019-04-19T10:12:43.000Z</time>
      </trkpt>
      <trkpt lat="38.496222" lon="-0.713605">
        <ele>874</ele>
        <time>2019-04-19T10:12:45.000Z</time>
      </trkpt>
      <trkpt lat="38.496249" lon="-0.713582">
        <ele>873.36</ele>
        <time>2019-04-19T10:12:47.000Z</time>
      </trkpt>
      <trkpt lat="38.496274" lon="-0.713563">
        <ele>873</ele>
        <time>2019-04-19T10:12:49.000Z</time>
      </trkpt>
      <trkpt lat="38.496294" lon="-0.713566">
        <ele>873</ele>
        <time>2019-04-19T10:12:50.000Z</time>
      </trkpt>
      <trkpt lat="38.496321" lon="-0.713559">
        <ele>871.782608695652</ele>
        <time>2019-04-19T10:12:52.000Z</time>
      </trkpt>
      <trkpt lat="38.496347" lon="-0.71355">
        <ele>870</ele>
        <time>2019-04-19T10:12:54.000Z</time>
      </trkpt>
      <trkpt lat="38.496377" lon="-0.713547">
        <ele>870</ele>
        <time>2019-04-19T10:12:56.000Z</time>
      </trkpt>
      <trkpt lat="38.496404" lon="-0.71354">
        <ele>869</ele>
        <time>2019-04-19T10:12:58.000Z</time>
      </trkpt>
      <trkpt lat="38.49644" lon="-0.713524">
        <ele>868.36</ele>
        <time>2019-04-19T10:13:00.000Z</time>
      </trkpt>
      <trkpt lat="38.496458" lon="-0.713513">
        <ele>868</ele>
        <time>2019-04-19T10:13:01.000Z</time>
      </trkpt>
      <trkpt lat="38.496475" lon="-0.713501">
        <ele>868</ele>
        <time>2019-04-19T10:13:02.000Z</time>
      </trkpt>
      <trkpt lat="38.496495" lon="-0.713494">
        <ele>867.36</ele>
        <time>2019-04-19T10:13:03.000Z</time>
      </trkpt>
      <trkpt lat="38.496517" lon="-0.713486">
        <ele>867</ele>
        <time>2019-04-19T10:13:04.000Z</time>
      </trkpt>
      <trkpt lat="38.496534" lon="-0.71347">
        <ele>867</ele>
        <time>2019-04-19T10:13:05.000Z</time>
      </trkpt>
      <trkpt lat="38.496548" lon="-0.71345">
        <ele>867</ele>
        <time>2019-04-19T10:13:06.000Z</time>
      </trkpt>
      <trkpt lat="38.496566" lon="-0.713414">
        <ele>865.503874738294</ele>
        <time>2019-04-19T10:13:08.000Z</time>
      </trkpt>
      <trkpt lat="38.496588" lon="-0.713382">
        <ele>865</ele>
        <time>2019-04-19T10:13:10.000Z</time>
      </trkpt>
      <trkpt lat="38.496604" lon="-0.713372">
        <ele>865</ele>
        <time>2019-04-19T10:13:11.000Z</time>
      </trkpt>
      <trkpt lat="38.49662" lon="-0.713338">
        <ele>864.40449583639</ele>
        <time>2019-04-19T10:13:13.000Z</time>
      </trkpt>
      <trkpt lat="38.496642" lon="-0.713305">
        <ele>863</ele>
        <time>2019-04-19T10:13:15.000Z</time>
      </trkpt>
      <trkpt lat="38.496646" lon="-0.713281">
        <ele>863</ele>
        <time>2019-04-19T10:13:16.000Z</time>
      </trkpt>
      <trkpt lat="38.496646" lon="-0.713236">
        <ele>863</ele>
        <time>2019-04-19T10:13:18.000Z</time>
      </trkpt>
      <trkpt lat="38.49664" lon="-0.713193">
        <ele>862</ele>
        <time>2019-04-19T10:13:20.000Z</time>
      </trkpt>
      <trkpt lat="38.496646" lon="-0.713167">
        <ele>861</ele>
        <time>2019-04-19T10:13:23.000Z</time>
      </trkpt>
      <trkpt lat="38.496643" lon="-0.713141">
        <ele>861</ele>
        <time>2019-04-19T10:13:29.000Z</time>
      </trkpt>
      <trkpt lat="38.49664" lon="-0.71311">
        <ele>861</ele>
        <time>2019-04-19T10:13:31.000Z</time>
      </trkpt>
      <trkpt lat="38.496664" lon="-0.713104">
        <ele>860</ele>
        <time>2019-04-19T10:13:34.000Z</time>
      </trkpt>
      <trkpt lat="38.496682" lon="-0.713131">
        <ele>859</ele>
        <time>2019-04-19T10:13:36.000Z</time>
      </trkpt>
      <trkpt lat="38.49669" lon="-0.713162">
        <ele>859</ele>
        <time>2019-04-19T10:13:39.000Z</time>
      </trkpt>
      <trkpt lat="38.496698" lon="-0.71319">
        <ele>858.418178433038</ele>
        <time>2019-04-19T10:13:41.000Z</time>
      </trkpt>
      <trkpt lat="38.496706" lon="-0.713218">
        <ele>858</ele>
        <time>2019-04-19T10:13:44.000Z</time>
      </trkpt>
      <trkpt lat="38.496716" lon="-0.713239">
        <ele>858</ele>
        <time>2019-04-19T10:14:18.000Z</time>
      </trkpt>
      <trkpt lat="38.49673" lon="-0.713267">
        <ele>857.401870947676</ele>
        <time>2019-04-19T10:14:20.000Z</time>
      </trkpt>
      <trkpt lat="38.496756" lon="-0.713299">
        <ele>855.36</ele>
        <time>2019-04-19T10:14:22.000Z</time>
      </trkpt>
      <trkpt lat="38.49678" lon="-0.713329">
        <ele>855</ele>
        <time>2019-04-19T10:14:24.000Z</time>
      </trkpt>
      <trkpt lat="38.496803" lon="-0.713342">
        <ele>855</ele>
        <time>2019-04-19T10:14:26.000Z</time>
      </trkpt>
      <trkpt lat="38.49682" lon="-0.713357">
        <ele>853.438593339471</ele>
        <time>2019-04-19T10:14:28.000Z</time>
      </trkpt>
      <trkpt lat="38.496848" lon="-0.71338">
        <ele>852.36</ele>
        <time>2019-04-19T10:14:30.000Z</time>
      </trkpt>
      <trkpt lat="38.496867" lon="-0.713389">
        <ele>851</ele>
        <time>2019-04-19T10:14:32.000Z</time>
      </trkpt>
      <trkpt lat="38.496884" lon="-0.713397">
        <ele>851</ele>
        <time>2019-04-19T10:14:33.000Z</time>
      </trkpt>
      <trkpt lat="38.496902" lon="-0.713409">
        <ele>850.409090909091</ele>
        <time>2019-04-19T10:14:34.000Z</time>
      </trkpt>
      <trkpt lat="38.496918" lon="-0.71342">
        <ele>850</ele>
        <time>2019-04-19T10:14:35.000Z</time>
      </trkpt>
      <trkpt lat="38.496937" lon="-0.713436">
        <ele>849.507039968271</ele>
        <time>2019-04-19T10:14:36.000Z</time>
      </trkpt>
      <trkpt lat="38.496955" lon="-0.713449">
        <ele>848.36</ele>
        <time>2019-04-19T10:14:37.000Z</time>
      </trkpt>
      <trkpt lat="38.496973" lon="-0.713457">
        <ele>847.36</ele>
        <time>2019-04-19T10:14:38.000Z</time>
      </trkpt>
      <trkpt lat="38.496989" lon="-0.713471">
        <ele>847</ele>
        <time>2019-04-19T10:14:39.000Z</time>
      </trkpt>
      <trkpt lat="38.497008" lon="-0.713483">
        <ele>847</ele>
        <time>2019-04-19T10:14:40.000Z</time>
      </trkpt>
      <trkpt lat="38.497025" lon="-0.713489">
        <ele>846.375</ele>
        <time>2019-04-19T10:14:41.000Z</time>
      </trkpt>
      <trkpt lat="38.49705" lon="-0.713499">
        <ele>845.36</ele>
        <time>2019-04-19T10:14:42.000Z</time>
      </trkpt>
      <trkpt lat="38.497073" lon="-0.713503">
        <ele>844.507694731349</ele>
        <time>2019-04-19T10:14:43.000Z</time>
      </trkpt>
      <trkpt lat="38.497093" lon="-0.713509">
        <ele>844</ele>
        <time>2019-04-19T10:14:44.000Z</time>
      </trkpt>
      <trkpt lat="38.497114" lon="-0.713511">
        <ele>844</ele>
        <time>2019-04-19T10:14:45.000Z</time>
      </trkpt>
      <trkpt lat="38.497135" lon="-0.713513">
        <ele>844</ele>
        <time>2019-04-19T10:14:46.000Z</time>
      </trkpt>
      <trkpt lat="38.497156" lon="-0.713524">
        <ele>843.36</ele>
        <time>2019-04-19T10:14:47.000Z</time>
      </trkpt>
      <trkpt lat="38.497174" lon="-0.71354">
        <ele>842.36</ele>
        <time>2019-04-19T10:14:48.000Z</time>
      </trkpt>
      <trkpt lat="38.497189" lon="-0.713561">
        <ele>842</ele>
        <time>2019-04-19T10:14:49.000Z</time>
      </trkpt>
      <trkpt lat="38.497205" lon="-0.713582">
        <ele>841.36</ele>
        <time>2019-04-19T10:14:50.000Z</time>
      </trkpt>
      <trkpt lat="38.497224" lon="-0.713598">
        <ele>841</ele>
        <time>2019-04-19T10:14:51.000Z</time>
      </trkpt>
      <trkpt lat="38.497239" lon="-0.713612">
        <ele>840.36</ele>
        <time>2019-04-19T10:14:52.000Z</time>
      </trkpt>
      <trkpt lat="38.497265" lon="-0.713629">
        <ele>840</ele>
        <time>2019-04-19T10:14:54.000Z</time>
      </trkpt>
      <trkpt lat="38.497294" lon="-0.713645">
        <ele>839</ele>
        <time>2019-04-19T10:14:56.000Z</time>
      </trkpt>
      <trkpt lat="38.497332" lon="-0.713642">
        <ele>837.36</ele>
        <time>2019-04-19T10:14:58.000Z</time>
      </trkpt>
      <trkpt lat="38.497354" lon="-0.713652">
        <ele>836.36</ele>
        <time>2019-04-19T10:14:59.000Z</time>
      </trkpt>
      <trkpt lat="38.497373" lon="-0.71366">
        <ele>836</ele>
        <time>2019-04-19T10:15:00.000Z</time>
      </trkpt>
      <trkpt lat="38.497392" lon="-0.713658">
        <ele>835.552241942571</ele>
        <time>2019-04-19T10:15:01.000Z</time>
      </trkpt>
      <trkpt lat="38.497409" lon="-0.71365">
        <ele>835</ele>
        <time>2019-04-19T10:15:02.000Z</time>
      </trkpt>
      <trkpt lat="38.497441" lon="-0.713649">
        <ele>834.36</ele>
        <time>2019-04-19T10:15:04.000Z</time>
      </trkpt>
      <trkpt lat="38.49746" lon="-0.713648">
        <ele>833.36</ele>
        <time>2019-04-19T10:15:05.000Z</time>
      </trkpt>
      <trkpt lat="38.497482" lon="-0.713645">
        <ele>833</ele>
        <time>2019-04-19T10:15:06.000Z</time>
      </trkpt>
      <trkpt lat="38.497503" lon="-0.713637">
        <ele>833</ele>
        <time>2019-04-19T10:15:07.000Z</time>
      </trkpt>
      <trkpt lat="38.497532" lon="-0.713619">
        <ele>832</ele>
        <time>2019-04-19T10:15:09.000Z</time>
      </trkpt>
      <trkpt lat="38.497552" lon="-0.713621">
        <ele>832</ele>
        <time>2019-04-19T10:15:10.000Z</time>
      </trkpt>
      <trkpt lat="38.49757" lon="-0.713611">
        <ele>832</ele>
        <time>2019-04-19T10:15:11.000Z</time>
      </trkpt>
      <trkpt lat="38.497588" lon="-0.713596">
        <ele>832</ele>
        <time>2019-04-19T10:15:12.000Z</time>
      </trkpt>
      <trkpt lat="38.497607" lon="-0.71359">
        <ele>831.36</ele>
        <time>2019-04-19T10:15:13.000Z</time>
      </trkpt>
      <trkpt lat="38.497627" lon="-0.71359">
        <ele>830.384615384615</ele>
        <time>2019-04-19T10:15:14.000Z</time>
      </trkpt>
      <trkpt lat="38.497665" lon="-0.713593">
        <ele>829</ele>
        <time>2019-04-19T10:15:16.000Z</time>
      </trkpt>
      <trkpt lat="38.497685" lon="-0.713587">
        <ele>828.413791581456</ele>
        <time>2019-04-19T10:15:17.000Z</time>
      </trkpt>
      <trkpt lat="38.497702" lon="-0.71358">
        <ele>827.36</ele>
        <time>2019-04-19T10:15:18.000Z</time>
      </trkpt>
      <trkpt lat="38.497727" lon="-0.713564">
        <ele>827</ele>
        <time>2019-04-19T10:15:20.000Z</time>
      </trkpt>
      <trkpt lat="38.497758" lon="-0.713566">
        <ele>827</ele>
        <time>2019-04-19T10:15:23.000Z</time>
      </trkpt>
      <trkpt lat="38.497777" lon="-0.713565">
        <ele>826</ele>
        <time>2019-04-19T10:15:26.000Z</time>
      </trkpt>
      <trkpt lat="38.497796" lon="-0.713572">
        <ele>825</ele>
        <time>2019-04-19T10:15:29.000Z</time>
      </trkpt>
      <trkpt lat="38.497817" lon="-0.713566">
        <ele>824.407407407407</ele>
        <time>2019-04-19T10:15:31.000Z</time>
      </trkpt>
      <trkpt lat="38.49784" lon="-0.713557">
        <ele>822.36</ele>
        <time>2019-04-19T10:15:33.000Z</time>
      </trkpt>
      <trkpt lat="38.497877" lon="-0.713558">
        <ele>821.521741550106</ele>
        <time>2019-04-19T10:15:35.000Z</time>
      </trkpt>
      <trkpt lat="38.497895" lon="-0.71355">
        <ele>820.36</ele>
        <time>2019-04-19T10:15:36.000Z</time>
      </trkpt>
      <trkpt lat="38.497914" lon="-0.713543">
        <ele>819.36</ele>
        <time>2019-04-19T10:15:37.000Z</time>
      </trkpt>
      <trkpt lat="38.497935" lon="-0.713542">
        <ele>819</ele>
        <time>2019-04-19T10:15:38.000Z</time>
      </trkpt>
      <trkpt lat="38.497958" lon="-0.713541">
        <ele>818.407407407407</ele>
        <time>2019-04-19T10:15:39.000Z</time>
      </trkpt>
      <trkpt lat="38.497979" lon="-0.713536">
        <ele>818</ele>
        <time>2019-04-19T10:15:40.000Z</time>
      </trkpt>
      <trkpt lat="38.498001" lon="-0.713528">
        <ele>817.514281012288</ele>
        <time>2019-04-19T10:15:41.000Z</time>
      </trkpt>
      <trkpt lat="38.498022" lon="-0.71352">
        <ele>817</ele>
        <time>2019-04-19T10:15:42.000Z</time>
      </trkpt>
      <trkpt lat="38.498044" lon="-0.713522">
        <ele>817</ele>
        <time>2019-04-19T10:15:43.000Z</time>
      </trkpt>
      <trkpt lat="38.498068" lon="-0.713521">
        <ele>817</ele>
        <time>2019-04-19T10:15:44.000Z</time>
      </trkpt>
      <trkpt lat="38.498089" lon="-0.713509">
        <ele>816.36</ele>
        <time>2019-04-19T10:15:45.000Z</time>
      </trkpt>
      <trkpt lat="38.498105" lon="-0.713493">
        <ele>816</ele>
        <time>2019-04-19T10:15:46.000Z</time>
      </trkpt>
      <trkpt lat="38.498123" lon="-0.713477">
        <ele>816</ele>
        <time>2019-04-19T10:15:47.000Z</time>
      </trkpt>
      <trkpt lat="38.498141" lon="-0.713464">
        <ele>815.36</ele>
        <time>2019-04-19T10:15:48.000Z</time>
      </trkpt>
      <trkpt lat="38.49816" lon="-0.713454">
        <ele>815</ele>
        <time>2019-04-19T10:15:49.000Z</time>
      </trkpt>
      <trkpt lat="38.498178" lon="-0.713444">
        <ele>814.36</ele>
        <time>2019-04-19T10:15:50.000Z</time>
      </trkpt>
      <trkpt lat="38.498197" lon="-0.713437">
        <ele>814</ele>
        <time>2019-04-19T10:15:51.000Z</time>
      </trkpt>
      <trkpt lat="38.498218" lon="-0.713437">
        <ele>813.396222769647</ele>
        <time>2019-04-19T10:15:52.000Z</time>
      </trkpt>
      <trkpt lat="38.498241" lon="-0.713438">
        <ele>813</ele>
        <time>2019-04-19T10:15:53.000Z</time>
      </trkpt>
      <trkpt lat="38.498263" lon="-0.713446">
        <ele>813</ele>
        <time>2019-04-19T10:15:54.000Z</time>
      </trkpt>
      <trkpt lat="38.498289" lon="-0.713454">
        <ele>813</ele>
        <time>2019-04-19T10:15:55.000Z</time>
      </trkpt>
      <trkpt lat="38.498318" lon="-0.71345">
        <ele>812.51145157508</ele>
        <time>2019-04-19T10:15:56.000Z</time>
      </trkpt>
      <trkpt lat="38.498345" lon="-0.713436">
        <ele>811.521741550106</ele>
        <time>2019-04-19T10:15:57.000Z</time>
      </trkpt>
      <trkpt lat="38.498368" lon="-0.713423">
        <ele>811</ele>
        <time>2019-04-19T10:15:58.000Z</time>
      </trkpt>
      <trkpt lat="38.498383" lon="-0.713404">
        <ele>810.503874738294</ele>
        <time>2019-04-19T10:15:59.000Z</time>
      </trkpt>
      <trkpt lat="38.498388" lon="-0.713378">
        <ele>810</ele>
        <time>2019-04-19T10:16:00.000Z</time>
      </trkpt>
      <trkpt lat="38.498385" lon="-0.713347">
        <ele>810</ele>
        <time>2019-04-19T10:16:01.000Z</time>
      </trkpt>
      <trkpt lat="38.49839" lon="-0.713319">
        <ele>810</ele>
        <time>2019-04-19T10:16:02.000Z</time>
      </trkpt>
      <trkpt lat="38.498397" lon="-0.713295">
        <ele>809.36</ele>
        <time>2019-04-19T10:16:03.000Z</time>
      </trkpt>
      <trkpt lat="38.498398" lon="-0.713264">
        <ele>809</ele>
        <time>2019-04-19T10:16:04.000Z</time>
      </trkpt>
      <trkpt lat="38.498395" lon="-0.713228">
        <ele>809</ele>
        <time>2019-04-19T10:16:05.000Z</time>
      </trkpt>
      <trkpt lat="38.498389" lon="-0.713193">
        <ele>808.401870947676</ele>
        <time>2019-04-19T10:16:06.000Z</time>
      </trkpt>
      <trkpt lat="38.498379" lon="-0.713161">
        <ele>808</ele>
        <time>2019-04-19T10:16:07.000Z</time>
      </trkpt>
      <trkpt lat="38.498373" lon="-0.713131">
        <ele>808</ele>
        <time>2019-04-19T10:16:08.000Z</time>
      </trkpt>
      <trkpt lat="38.498371" lon="-0.713106">
        <ele>807.36</ele>
        <time>2019-04-19T10:16:09.000Z</time>
      </trkpt>
      <trkpt lat="38.498363" lon="-0.713081">
        <ele>807</ele>
        <time>2019-04-19T10:16:10.000Z</time>
      </trkpt>
      <trkpt lat="38.498345" lon="-0.713054">
        <ele>807</ele>
        <time>2019-04-19T10:16:11.000Z</time>
      </trkpt>
      <trkpt lat="38.498332" lon="-0.713031">
        <ele>806.395603004473</ele>
        <time>2019-04-19T10:16:12.000Z</time>
      </trkpt>
      <trkpt lat="38.498319" lon="-0.713002">
        <ele>806</ele>
        <time>2019-04-19T10:16:13.000Z</time>
      </trkpt>
      <trkpt lat="38.498306" lon="-0.712979">
        <ele>805.36</ele>
        <time>2019-04-19T10:16:14.000Z</time>
      </trkpt>
      <trkpt lat="38.498291" lon="-0.712961">
        <ele>805</ele>
        <time>2019-04-19T10:16:15.000Z</time>
      </trkpt>
      <trkpt lat="38.498277" lon="-0.712927">
        <ele>804.36</ele>
        <time>2019-04-19T10:16:17.000Z</time>
      </trkpt>
      <trkpt lat="38.498277" lon="-0.712898">
        <ele>804</ele>
        <time>2019-04-19T10:16:19.000Z</time>
      </trkpt>
      <trkpt lat="38.498274" lon="-0.712872">
        <ele>804.492960031729</ele>
        <time>2019-04-19T10:16:22.000Z</time>
      </trkpt>
      <trkpt lat="38.498259" lon="-0.712845">
        <ele>804.413791581456</ele>
        <time>2019-04-19T10:16:24.000Z</time>
      </trkpt>
      <trkpt lat="38.498245" lon="-0.712809">
        <ele>804</ele>
        <time>2019-04-19T10:16:26.000Z</time>
      </trkpt>
      <trkpt lat="38.498242" lon="-0.712766">
        <ele>803.390474332874</ele>
        <time>2019-04-19T10:16:28.000Z</time>
      </trkpt>
      <trkpt lat="38.498235" lon="-0.712736">
        <ele>803</ele>
        <time>2019-04-19T10:16:29.000Z</time>
      </trkpt>
      <trkpt lat="38.498223" lon="-0.712712">
        <ele>802.36</ele>
        <time>2019-04-19T10:16:30.000Z</time>
      </trkpt>
      <trkpt lat="38.498211" lon="-0.712694">
        <ele>802</ele>
        <time>2019-04-19T10:16:31.000Z</time>
      </trkpt>
      <trkpt lat="38.498193" lon="-0.712657">
        <ele>802</ele>
        <time>2019-04-19T10:16:33.000Z</time>
      </trkpt>
      <trkpt lat="38.498189" lon="-0.712633">
        <ele>802</ele>
        <time>2019-04-19T10:16:34.000Z</time>
      </trkpt>
      <trkpt lat="38.498183" lon="-0.712603">
        <ele>802</ele>
        <time>2019-04-19T10:16:35.000Z</time>
      </trkpt>
      <trkpt lat="38.498174" lon="-0.712567">
        <ele>801.36</ele>
        <time>2019-04-19T10:16:36.000Z</time>
      </trkpt>
      <trkpt lat="38.498165" lon="-0.712533">
        <ele>801</ele>
        <time>2019-04-19T10:16:37.000Z</time>
      </trkpt>
      <trkpt lat="38.498161" lon="-0.712502">
        <ele>801</ele>
        <time>2019-04-19T10:16:38.000Z</time>
      </trkpt>
      <trkpt lat="38.498159" lon="-0.712471">
        <ele>801</ele>
        <time>2019-04-19T10:16:39.000Z</time>
      </trkpt>
      <trkpt lat="38.498156" lon="-0.712442">
        <ele>800.378946091971</ele>
        <time>2019-04-19T10:16:40.000Z</time>
      </trkpt>
      <trkpt lat="38.498152" lon="-0.712413">
        <ele>800</ele>
        <time>2019-04-19T10:16:41.000Z</time>
      </trkpt>
      <trkpt lat="38.498146" lon="-0.712385">
        <ele>800</ele>
        <time>2019-04-19T10:16:42.000Z</time>
      </trkpt>
      <trkpt lat="38.498138" lon="-0.712363">
        <ele>800</ele>
        <time>2019-04-19T10:16:43.000Z</time>
      </trkpt>
      <trkpt lat="38.498127" lon="-0.712341">
        <ele>800</ele>
        <time>2019-04-19T10:16:44.000Z</time>
      </trkpt>
      <trkpt lat="38.498119" lon="-0.712318">
        <ele>800</ele>
        <time>2019-04-19T10:16:45.000Z</time>
      </trkpt>
      <trkpt lat="38.498114" lon="-0.712269">
        <ele>799.537310866575</ele>
        <time>2019-04-19T10:16:47.000Z</time>
      </trkpt>
      <trkpt lat="38.498111" lon="-0.712244">
        <ele>798.36</ele>
        <time>2019-04-19T10:16:48.000Z</time>
      </trkpt>
      <trkpt lat="38.498093" lon="-0.712224">
        <ele>798</ele>
        <time>2019-04-19T10:16:49.000Z</time>
      </trkpt>
      <trkpt lat="38.498065" lon="-0.712209">
        <ele>798</ele>
        <time>2019-04-19T10:16:50.000Z</time>
      </trkpt>
      <trkpt lat="38.498039" lon="-0.712196">
        <ele>797.438599642949</ele>
        <time>2019-04-19T10:16:51.000Z</time>
      </trkpt>
      <trkpt lat="38.498015" lon="-0.712179">
        <ele>797</ele>
        <time>2019-04-19T10:16:52.000Z</time>
      </trkpt>
      <trkpt lat="38.498004" lon="-0.71214">
        <ele>797</ele>
        <time>2019-04-19T10:16:54.000Z</time>
      </trkpt>
      <trkpt lat="38.498004" lon="-0.712106">
        <ele>796.382976115907</ele>
        <time>2019-04-19T10:16:55.000Z</time>
      </trkpt>
      <trkpt lat="38.498014" lon="-0.712074">
        <ele>796.447551446039</ele>
        <time>2019-04-19T10:16:56.000Z</time>
      </trkpt>
      <trkpt lat="38.49803" lon="-0.712055">
        <ele>797</ele>
        <time>2019-04-19T10:16:57.000Z</time>
      </trkpt>
      <trkpt lat="38.498042" lon="-0.712038">
        <ele>797</ele>
        <time>2019-04-19T10:16:58.000Z</time>
      </trkpt>
      <trkpt lat="38.498053" lon="-0.712016">
        <ele>797</ele>
        <time>2019-04-19T10:16:59.000Z</time>
      </trkpt>
      <trkpt lat="38.498055" lon="-0.711986">
        <ele>797</ele>
        <time>2019-04-19T10:17:00.000Z</time>
      </trkpt>
      <trkpt lat="38.498063" lon="-0.71196">
        <ele>797.566373285305</ele>
        <time>2019-04-19T10:17:01.000Z</time>
      </trkpt>
      <trkpt lat="38.498068" lon="-0.71193">
        <ele>798</ele>
        <time>2019-04-19T10:17:02.000Z</time>
      </trkpt>
      <trkpt lat="38.498068" lon="-0.711902">
        <ele>797.36</ele>
        <time>2019-04-19T10:17:03.000Z</time>
      </trkpt>
      <trkpt lat="38.498073" lon="-0.711875">
        <ele>797</ele>
        <time>2019-04-19T10:17:04.000Z</time>
      </trkpt>
      <trkpt lat="38.498073" lon="-0.711846">
        <ele>797</ele>
        <time>2019-04-19T10:17:05.000Z</time>
      </trkpt>
      <trkpt lat="38.498069" lon="-0.711824">
        <ele>797</ele>
        <time>2019-04-19T10:17:06.000Z</time>
      </trkpt>
      <trkpt lat="38.498064" lon="-0.711778">
        <ele>797</ele>
        <time>2019-04-19T10:17:08.000Z</time>
      </trkpt>
      <trkpt lat="38.498058" lon="-0.71175">
        <ele>797</ele>
        <time>2019-04-19T10:17:09.000Z</time>
      </trkpt>
      <trkpt lat="38.498049" lon="-0.711726">
        <ele>796.36</ele>
        <time>2019-04-19T10:17:10.000Z</time>
      </trkpt>
      <trkpt lat="38.498035" lon="-0.711688">
        <ele>796</ele>
        <time>2019-04-19T10:17:12.000Z</time>
      </trkpt>
      <trkpt lat="38.49803" lon="-0.711666">
        <ele>795.36</ele>
        <time>2019-04-19T10:17:13.000Z</time>
      </trkpt>
      <trkpt lat="38.498025" lon="-0.711637">
        <ele>795</ele>
        <time>2019-04-19T10:17:14.000Z</time>
      </trkpt>
      <trkpt lat="38.498012" lon="-0.711612">
        <ele>795</ele>
        <time>2019-04-19T10:17:15.000Z</time>
      </trkpt>
      <trkpt lat="38.497998" lon="-0.711575">
        <ele>795</ele>
        <time>2019-04-19T10:17:17.000Z</time>
      </trkpt>
      <trkpt lat="38.497983" lon="-0.711544">
        <ele>795</ele>
        <time>2019-04-19T10:17:19.000Z</time>
      </trkpt>
      <trkpt lat="38.497968" lon="-0.711526">
        <ele>794.409090909091</ele>
        <time>2019-04-19T10:17:20.000Z</time>
      </trkpt>
      <trkpt lat="38.497949" lon="-0.711508">
        <ele>794</ele>
        <time>2019-04-19T10:17:21.000Z</time>
      </trkpt>
      <trkpt lat="38.497938" lon="-0.711484">
        <ele>793.36</ele>
        <time>2019-04-19T10:17:22.000Z</time>
      </trkpt>
      <trkpt lat="38.497932" lon="-0.71146">
        <ele>792.36</ele>
        <time>2019-04-19T10:17:23.000Z</time>
      </trkpt>
      <trkpt lat="38.497934" lon="-0.711434">
        <ele>792</ele>
        <time>2019-04-19T10:17:24.000Z</time>
      </trkpt>
      <trkpt lat="38.497939" lon="-0.711408">
        <ele>792</ele>
        <time>2019-04-19T10:17:25.000Z</time>
      </trkpt>
      <trkpt lat="38.49795" lon="-0.711388">
        <ele>792</ele>
        <time>2019-04-19T10:17:26.000Z</time>
      </trkpt>
      <trkpt lat="38.49797" lon="-0.711375">
        <ele>792</ele>
        <time>2019-04-19T10:17:27.000Z</time>
      </trkpt>
      <trkpt lat="38.497988" lon="-0.711354">
        <ele>791.371135244982</ele>
        <time>2019-04-19T10:17:28.000Z</time>
      </trkpt>
      <trkpt lat="38.498003" lon="-0.711328">
        <ele>791</ele>
        <time>2019-04-19T10:17:29.000Z</time>
      </trkpt>
      <trkpt lat="38.498019" lon="-0.7113">
        <ele>791.590909090909</ele>
        <time>2019-04-19T10:17:30.000Z</time>
      </trkpt>
      <trkpt lat="38.498037" lon="-0.711274">
        <ele>792</ele>
        <time>2019-04-19T10:17:31.000Z</time>
      </trkpt>
      <trkpt lat="38.498049" lon="-0.71125">
        <ele>791.378642707129</ele>
        <time>2019-04-19T10:17:32.000Z</time>
      </trkpt>
      <trkpt lat="38.498052" lon="-0.711226">
        <ele>791</ele>
        <time>2019-04-19T10:17:33.000Z</time>
      </trkpt>
      <trkpt lat="38.49806" lon="-0.711202">
        <ele>791</ele>
        <time>2019-04-19T10:17:34.000Z</time>
      </trkpt>
      <trkpt lat="38.498075" lon="-0.711158">
        <ele>791</ele>
        <time>2019-04-19T10:17:37.000Z</time>
      </trkpt>
      <trkpt lat="38.498094" lon="-0.711128">
        <ele>791</ele>
        <time>2019-04-19T10:17:39.000Z</time>
      </trkpt>
      <trkpt lat="38.49809" lon="-0.711097">
        <ele>791</ele>
        <time>2019-04-19T10:17:41.000Z</time>
      </trkpt>
      <trkpt lat="38.498103" lon="-0.711074">
        <ele>791</ele>
        <time>2019-04-19T10:17:44.000Z</time>
      </trkpt>
      <trkpt lat="38.498109" lon="-0.711052">
        <ele>791</ele>
        <time>2019-04-19T10:17:47.000Z</time>
      </trkpt>
      <trkpt lat="38.498086" lon="-0.711034">
        <ele>791</ele>
        <time>2019-04-19T10:17:50.000Z</time>
      </trkpt>
      <trkpt lat="38.498057" lon="-0.711025">
        <ele>791</ele>
        <time>2019-04-19T10:17:53.000Z</time>
      </trkpt>
      <trkpt lat="38.498038" lon="-0.711012">
        <ele>791</ele>
        <time>2019-04-19T10:17:55.000Z</time>
      </trkpt>
      <trkpt lat="38.498037" lon="-0.710981">
        <ele>791</ele>
        <time>2019-04-19T10:17:58.000Z</time>
      </trkpt>
      <trkpt lat="38.498035" lon="-0.710954">
        <ele>791</ele>
        <time>2019-04-19T10:18:00.000Z</time>
      </trkpt>
      <trkpt lat="38.498036" lon="-0.710921">
        <ele>791</ele>
        <time>2019-04-19T10:18:02.000Z</time>
      </trkpt>
      <trkpt lat="38.498039" lon="-0.710897">
        <ele>790.396230060498</ele>
        <time>2019-04-19T10:18:03.000Z</time>
      </trkpt>
      <trkpt lat="38.498047" lon="-0.710859">
        <ele>790</ele>
        <time>2019-04-19T10:18:05.000Z</time>
      </trkpt>
      <trkpt lat="38.498048" lon="-0.710835">
        <ele>790</ele>
        <time>2019-04-19T10:18:06.000Z</time>
      </trkpt>
      <trkpt lat="38.498059" lon="-0.710796">
        <ele>789.36</ele>
        <time>2019-04-19T10:18:08.000Z</time>
      </trkpt>
      <trkpt lat="38.49806" lon="-0.710757">
        <ele>788.36</ele>
        <time>2019-04-19T10:18:10.000Z</time>
      </trkpt>
      <trkpt lat="38.498054" lon="-0.710717">
        <ele>787</ele>
        <time>2019-04-19T10:18:12.000Z</time>
      </trkpt>
      <trkpt lat="38.498055" lon="-0.710691">
        <ele>787</ele>
        <time>2019-04-19T10:18:13.000Z</time>
      </trkpt>
      <trkpt lat="38.498056" lon="-0.710648">
        <ele>787</ele>
        <time>2019-04-19T10:18:15.000Z</time>
      </trkpt>
      <trkpt lat="38.49806" lon="-0.710625">
        <ele>787</ele>
        <time>2019-04-19T10:18:16.000Z</time>
      </trkpt>
      <trkpt lat="38.498061" lon="-0.710582">
        <ele>786</ele>
        <time>2019-04-19T10:18:18.000Z</time>
      </trkpt>
      <trkpt lat="38.498059" lon="-0.710542">
        <ele>785.371135244982</ele>
        <time>2019-04-19T10:18:20.000Z</time>
      </trkpt>
      <trkpt lat="38.498056" lon="-0.710515">
        <ele>785</ele>
        <time>2019-04-19T10:18:21.000Z</time>
      </trkpt>
      <trkpt lat="38.498052" lon="-0.710488">
        <ele>785</ele>
        <time>2019-04-19T10:18:22.000Z</time>
      </trkpt>
      <trkpt lat="38.498047" lon="-0.710455">
        <ele>785</ele>
        <time>2019-04-19T10:18:23.000Z</time>
      </trkpt>
      <trkpt lat="38.498045" lon="-0.710425">
        <ele>785</ele>
        <time>2019-04-19T10:18:24.000Z</time>
      </trkpt>
      <trkpt lat="38.498041" lon="-0.710395">
        <ele>784.507039968271</ele>
        <time>2019-04-19T10:18:25.000Z</time>
      </trkpt>
      <trkpt lat="38.498039" lon="-0.710366">
        <ele>784</ele>
        <time>2019-04-19T10:18:26.000Z</time>
      </trkpt>
      <trkpt lat="38.498037" lon="-0.710339">
        <ele>783.36</ele>
        <time>2019-04-19T10:18:27.000Z</time>
      </trkpt>
      <trkpt lat="38.498026" lon="-0.710307">
        <ele>782.372552956531</ele>
        <time>2019-04-19T10:18:28.000Z</time>
      </trkpt>
      <trkpt lat="38.498007" lon="-0.71027">
        <ele>782</ele>
        <time>2019-04-19T10:18:29.000Z</time>
      </trkpt>
      <trkpt lat="38.497991" lon="-0.710238">
        <ele>782</ele>
        <time>2019-04-19T10:18:30.000Z</time>
      </trkpt>
      <trkpt lat="38.497976" lon="-0.710203">
        <ele>782</ele>
        <time>2019-04-19T10:18:31.000Z</time>
      </trkpt>
      <trkpt lat="38.497963" lon="-0.710176">
        <ele>782</ele>
        <time>2019-04-19T10:18:32.000Z</time>
      </trkpt>
      <trkpt lat="38.497957" lon="-0.710149">
        <ele>782</ele>
        <time>2019-04-19T10:18:33.000Z</time>
      </trkpt>
      <trkpt lat="38.497947" lon="-0.710115">
        <ele>782</ele>
        <time>2019-04-19T10:18:34.000Z</time>
      </trkpt>
      <trkpt lat="38.497939" lon="-0.710088">
        <ele>782</ele>
        <time>2019-04-19T10:18:35.000Z</time>
      </trkpt>
      <trkpt lat="38.497926" lon="-0.710056">
        <ele>782</ele>
        <time>2019-04-19T10:18:36.000Z</time>
      </trkpt>
      <trkpt lat="38.49791" lon="-0.710024">
        <ele>781.36</ele>
        <time>2019-04-19T10:18:37.000Z</time>
      </trkpt>
      <trkpt lat="38.497889" lon="-0.709996">
        <ele>781</ele>
        <time>2019-04-19T10:18:38.000Z</time>
      </trkpt>
      <trkpt lat="38.497868" lon="-0.709974">
        <ele>781</ele>
        <time>2019-04-19T10:18:39.000Z</time>
      </trkpt>
      <trkpt lat="38.49785" lon="-0.709951">
        <ele>781</ele>
        <time>2019-04-19T10:18:40.000Z</time>
      </trkpt>
      <trkpt lat="38.497834" lon="-0.709927">
        <ele>780.418601535989</ele>
        <time>2019-04-19T10:18:41.000Z</time>
      </trkpt>
      <trkpt lat="38.497817" lon="-0.709903">
        <ele>780</ele>
        <time>2019-04-19T10:18:42.000Z</time>
      </trkpt>
      <trkpt lat="38.4978" lon="-0.709874">
        <ele>780.603769939502</ele>
        <time>2019-04-19T10:18:43.000Z</time>
      </trkpt>
      <trkpt lat="38.49778" lon="-0.709841">
        <ele>780.382981330937</ele>
        <time>2019-04-19T10:18:44.000Z</time>
      </trkpt>
      <trkpt lat="38.497759" lon="-0.709813">
        <ele>780</ele>
        <time>2019-04-19T10:18:45.000Z</time>
      </trkpt>
      <trkpt lat="38.497743" lon="-0.709791">
        <ele>780</ele>
        <time>2019-04-19T10:18:46.000Z</time>
      </trkpt>
      <trkpt lat="38.497728" lon="-0.709774">
        <ele>780</ele>
        <time>2019-04-19T10:18:47.000Z</time>
      </trkpt>
      <trkpt lat="38.497714" lon="-0.709758">
        <ele>780</ele>
        <time>2019-04-19T10:18:48.000Z</time>
      </trkpt>
      <trkpt lat="38.497685" lon="-0.709725">
        <ele>780.496125261706</ele>
        <time>2019-04-19T10:18:50.000Z</time>
      </trkpt>
      <trkpt lat="38.49767" lon="-0.709708">
        <ele>781</ele>
        <time>2019-04-19T10:18:51.000Z</time>
      </trkpt>
      <trkpt lat="38.497652" lon="-0.709684">
        <ele>781</ele>
        <time>2019-04-19T10:18:53.000Z</time>
      </trkpt>
      <trkpt lat="38.497641" lon="-0.709661">
        <ele>781</ele>
        <time>2019-04-19T10:18:55.000Z</time>
      </trkpt>
      <trkpt lat="38.497626" lon="-0.709624">
        <ele>781</ele>
        <time>2019-04-19T10:18:57.000Z</time>
      </trkpt>
      <trkpt lat="38.497616" lon="-0.709604">
        <ele>780.36</ele>
        <time>2019-04-19T10:18:58.000Z</time>
      </trkpt>
      <trkpt lat="38.497593" lon="-0.709569">
        <ele>780</ele>
        <time>2019-04-19T10:19:00.000Z</time>
      </trkpt>
      <trkpt lat="38.49758" lon="-0.709545">
        <ele>780</ele>
        <time>2019-04-19T10:19:01.000Z</time>
      </trkpt>
      <trkpt lat="38.497569" lon="-0.709516">
        <ele>780</ele>
        <time>2019-04-19T10:19:02.000Z</time>
      </trkpt>
      <trkpt lat="38.497556" lon="-0.709486">
        <ele>779.36</ele>
        <time>2019-04-19T10:19:03.000Z</time>
      </trkpt>
      <trkpt lat="38.497544" lon="-0.709459">
        <ele>779</ele>
        <time>2019-04-19T10:19:04.000Z</time>
      </trkpt>
      <trkpt lat="38.497529" lon="-0.709426">
        <ele>779</ele>
        <time>2019-04-19T10:19:05.000Z</time>
      </trkpt>
      <trkpt lat="38.497519" lon="-0.709395">
        <ele>779.604396995527</ele>
        <time>2019-04-19T10:19:06.000Z</time>
      </trkpt>
      <trkpt lat="38.497509" lon="-0.709364">
        <ele>780</ele>
        <time>2019-04-19T10:19:07.000Z</time>
      </trkpt>
      <trkpt lat="38.497498" lon="-0.709331">
        <ele>780</ele>
        <time>2019-04-19T10:19:08.000Z</time>
      </trkpt>
      <trkpt lat="38.497485" lon="-0.7093">
        <ele>780.492305268651</ele>
        <time>2019-04-19T10:19:09.000Z</time>
      </trkpt>
      <trkpt lat="38.497475" lon="-0.709271">
        <ele>781</ele>
        <time>2019-04-19T10:19:10.000Z</time>
      </trkpt>
      <trkpt lat="38.497468" lon="-0.709241">
        <ele>781</ele>
        <time>2019-04-19T10:19:11.000Z</time>
      </trkpt>
      <trkpt lat="38.497463" lon="-0.709211">
        <ele>781</ele>
        <time>2019-04-19T10:19:12.000Z</time>
      </trkpt>
      <trkpt lat="38.497452" lon="-0.709175">
        <ele>781</ele>
        <time>2019-04-19T10:19:13.000Z</time>
      </trkpt>
      <trkpt lat="38.497443" lon="-0.709145">
        <ele>781</ele>
        <time>2019-04-19T10:19:14.000Z</time>
      </trkpt>
      <trkpt lat="38.497437" lon="-0.709114">
        <ele>781</ele>
        <time>2019-04-19T10:19:15.000Z</time>
      </trkpt>
      <trkpt lat="38.497431" lon="-0.709083">
        <ele>781</ele>
        <time>2019-04-19T10:19:16.000Z</time>
      </trkpt>
      <trkpt lat="38.497427" lon="-0.709051">
        <ele>781.617023884093</ele>
        <time>2019-04-19T10:19:17.000Z</time>
      </trkpt>
      <trkpt lat="38.497422" lon="-0.709019">
        <ele>782</ele>
        <time>2019-04-19T10:19:18.000Z</time>
      </trkpt>
      <trkpt lat="38.49742" lon="-0.708985">
        <ele>781.521741550106</ele>
        <time>2019-04-19T10:19:19.000Z</time>
      </trkpt>
      <trkpt lat="38.497419" lon="-0.708951">
        <ele>781</ele>
        <time>2019-04-19T10:19:20.000Z</time>
      </trkpt>
      <trkpt lat="38.497417" lon="-0.708917">
        <ele>781</ele>
        <time>2019-04-19T10:19:21.000Z</time>
      </trkpt>
      <trkpt lat="38.497414" lon="-0.708882">
        <ele>781</ele>
        <time>2019-04-19T10:19:22.000Z</time>
      </trkpt>
      <trkpt lat="38.497411" lon="-0.708848">
        <ele>781</ele>
        <time>2019-04-19T10:19:23.000Z</time>
      </trkpt>
      <trkpt lat="38.497407" lon="-0.708811">
        <ele>781</ele>
        <time>2019-04-19T10:19:24.000Z</time>
      </trkpt>
      <trkpt lat="38.497403" lon="-0.708778">
        <ele>781</ele>
        <time>2019-04-19T10:19:25.000Z</time>
      </trkpt>
      <trkpt lat="38.497398" lon="-0.708748">
        <ele>781.633665373989</ele>
        <time>2019-04-19T10:19:26.000Z</time>
      </trkpt>
      <trkpt lat="38.497397" lon="-0.70872">
        <ele>782</ele>
        <time>2019-04-19T10:19:27.000Z</time>
      </trkpt>
      <trkpt lat="38.497398" lon="-0.708696">
        <ele>782</ele>
        <time>2019-04-19T10:19:28.000Z</time>
      </trkpt>
      <trkpt lat="38.4974" lon="-0.70867">
        <ele>782</ele>
        <time>2019-04-19T10:19:29.000Z</time>
      </trkpt>
      <trkpt lat="38.497402" lon="-0.70864">
        <ele>782</ele>
        <time>2019-04-19T10:19:30.000Z</time>
      </trkpt>
      <trkpt lat="38.497398" lon="-0.708611">
        <ele>781.36</ele>
        <time>2019-04-19T10:19:31.000Z</time>
      </trkpt>
      <trkpt lat="38.497396" lon="-0.708578">
        <ele>779.72</ele>
        <time>2019-04-19T10:19:32.000Z</time>
      </trkpt>
      <trkpt lat="38.497394" lon="-0.708543">
        <ele>778.384615384615</ele>
        <time>2019-04-19T10:19:33.000Z</time>
      </trkpt>
      <trkpt lat="38.497391" lon="-0.708507">
        <ele>778</ele>
        <time>2019-04-19T10:19:34.000Z</time>
      </trkpt>
      <trkpt lat="38.49739" lon="-0.708476">
        <ele>777.36</ele>
        <time>2019-04-19T10:19:35.000Z</time>
      </trkpt>
      <trkpt lat="38.497386" lon="-0.708445">
        <ele>777</ele>
        <time>2019-04-19T10:19:36.000Z</time>
      </trkpt>
      <trkpt lat="38.49738" lon="-0.708413">
        <ele>776.36363518825</ele>
        <time>2019-04-19T10:19:37.000Z</time>
      </trkpt>
      <trkpt lat="38.497372" lon="-0.708386">
        <ele>776</ele>
        <time>2019-04-19T10:19:38.000Z</time>
      </trkpt>
      <trkpt lat="38.497363" lon="-0.708362">
        <ele>776</ele>
        <time>2019-04-19T10:19:39.000Z</time>
      </trkpt>
      <trkpt lat="38.497353" lon="-0.708338">
        <ele>776</ele>
        <time>2019-04-19T10:19:40.000Z</time>
      </trkpt>
      <trkpt lat="38.497346" lon="-0.708312">
        <ele>776</ele>
        <time>2019-04-19T10:19:41.000Z</time>
      </trkpt>
      <trkpt lat="38.49734" lon="-0.708287">
        <ele>775.36</ele>
        <time>2019-04-19T10:19:42.000Z</time>
      </trkpt>
      <trkpt lat="38.497331" lon="-0.708266">
        <ele>774.36</ele>
        <time>2019-04-19T10:19:43.000Z</time>
      </trkpt>
      <trkpt lat="38.497321" lon="-0.708223">
        <ele>775</ele>
        <time>2019-04-19T10:19:45.000Z</time>
      </trkpt>
      <trkpt lat="38.497316" lon="-0.708196">
        <ele>774.518795834697</ele>
        <time>2019-04-19T10:19:46.000Z</time>
      </trkpt>
      <trkpt lat="38.497313" lon="-0.708167">
        <ele>773.707545916704</ele>
        <time>2019-04-19T10:19:47.000Z</time>
      </trkpt>
      <trkpt lat="38.497317" lon="-0.708138">
        <ele>773</ele>
        <time>2019-04-19T10:19:48.000Z</time>
      </trkpt>
      <trkpt lat="38.497325" lon="-0.708111">
        <ele>773</ele>
        <time>2019-04-19T10:19:49.000Z</time>
      </trkpt>
      <trkpt lat="38.497336" lon="-0.708087">
        <ele>772.36</ele>
        <time>2019-04-19T10:19:50.000Z</time>
      </trkpt>
      <trkpt lat="38.497362" lon="-0.708062">
        <ele>773</ele>
        <time>2019-04-19T10:19:52.000Z</time>
      </trkpt>
      <trkpt lat="38.497388" lon="-0.708038">
        <ele>772</ele>
        <time>2019-04-19T10:19:54.000Z</time>
      </trkpt>
      <trkpt lat="38.497408" lon="-0.708026">
        <ele>771.36</ele>
        <time>2019-04-19T10:19:56.000Z</time>
      </trkpt>
      <trkpt lat="38.49743" lon="-0.708032">
        <ele>771</ele>
        <time>2019-04-19T10:19:59.000Z</time>
      </trkpt>
      <trkpt lat="38.497453" lon="-0.708037">
        <ele>769.732669252021</ele>
        <time>2019-04-19T10:20:01.000Z</time>
      </trkpt>
      <trkpt lat="38.49748" lon="-0.708029">
        <ele>768.391304347826</ele>
        <time>2019-04-19T10:20:03.000Z</time>
      </trkpt>
      <trkpt lat="38.497507" lon="-0.708017">
        <ele>768</ele>
        <time>2019-04-19T10:20:05.000Z</time>
      </trkpt>
      <trkpt lat="38.497527" lon="-0.707993">
        <ele>767.514281012288</ele>
        <time>2019-04-19T10:20:07.000Z</time>
      </trkpt>
      <trkpt lat="38.49755" lon="-0.707968">
        <ele>766.387098106144</ele>
        <time>2019-04-19T10:20:09.000Z</time>
      </trkpt>
      <trkpt lat="38.497577" lon="-0.707955">
        <ele>765</ele>
        <time>2019-04-19T10:20:11.000Z</time>
      </trkpt>
      <trkpt lat="38.497613" lon="-0.707968">
        <ele>764.372545082636</ele>
        <time>2019-04-19T10:20:13.000Z</time>
      </trkpt>
      <trkpt lat="38.497632" lon="-0.707981">
        <ele>763.367344539791</ele>
        <time>2019-04-19T10:20:14.000Z</time>
      </trkpt>
      <trkpt lat="38.497653" lon="-0.707994">
        <ele>762.418178433038</ele>
        <time>2019-04-19T10:20:15.000Z</time>
      </trkpt>
      <trkpt lat="38.497674" lon="-0.708001">
        <ele>762</ele>
        <time>2019-04-19T10:20:16.000Z</time>
      </trkpt>
      <trkpt lat="38.497697" lon="-0.708007">
        <ele>761.36</ele>
        <time>2019-04-19T10:20:17.000Z</time>
      </trkpt>
      <trkpt lat="38.497721" lon="-0.70801">
        <ele>761</ele>
        <time>2019-04-19T10:20:18.000Z</time>
      </trkpt>
      <trkpt lat="38.497742" lon="-0.70801">
        <ele>761</ele>
        <time>2019-04-19T10:20:19.000Z</time>
      </trkpt>
      <trkpt lat="38.497763" lon="-0.708007">
        <ele>761</ele>
        <time>2019-04-19T10:20:20.000Z</time>
      </trkpt>
      <trkpt lat="38.497784" lon="-0.708005">
        <ele>760.36</ele>
        <time>2019-04-19T10:20:21.000Z</time>
      </trkpt>
      <trkpt lat="38.497803" lon="-0.708005">
        <ele>760</ele>
        <time>2019-04-19T10:20:22.000Z</time>
      </trkpt>
      <trkpt lat="38.497823" lon="-0.708004">
        <ele>759.36</ele>
        <time>2019-04-19T10:20:23.000Z</time>
      </trkpt>
      <trkpt lat="38.497843" lon="-0.708">
        <ele>758.36</ele>
        <time>2019-04-19T10:20:24.000Z</time>
      </trkpt>
      <trkpt lat="38.497862" lon="-0.707993">
        <ele>757.507694731349</ele>
        <time>2019-04-19T10:20:25.000Z</time>
      </trkpt>
      <trkpt lat="38.497883" lon="-0.707986">
        <ele>757</ele>
        <time>2019-04-19T10:20:26.000Z</time>
      </trkpt>
      <trkpt lat="38.497908" lon="-0.707985">
        <ele>756.36</ele>
        <time>2019-04-19T10:20:27.000Z</time>
      </trkpt>
      <trkpt lat="38.497933" lon="-0.707984">
        <ele>756</ele>
        <time>2019-04-19T10:20:28.000Z</time>
      </trkpt>
      <trkpt lat="38.497957" lon="-0.707982">
        <ele>756</ele>
        <time>2019-04-19T10:20:29.000Z</time>
      </trkpt>
      <trkpt lat="38.497977" lon="-0.707979">
        <ele>756</ele>
        <time>2019-04-19T10:20:30.000Z</time>
      </trkpt>
      <trkpt lat="38.497999" lon="-0.707974">
        <ele>755.36</ele>
        <time>2019-04-19T10:20:31.000Z</time>
      </trkpt>
      <trkpt lat="38.498019" lon="-0.707966">
        <ele>755</ele>
        <time>2019-04-19T10:20:32.000Z</time>
      </trkpt>
      <trkpt lat="38.49804" lon="-0.707963">
        <ele>755</ele>
        <time>2019-04-19T10:20:33.000Z</time>
      </trkpt>
      <trkpt lat="38.498062" lon="-0.707958">
        <ele>754.514290416369</ele>
        <time>2019-04-19T10:20:34.000Z</time>
      </trkpt>
      <trkpt lat="38.498086" lon="-0.707949">
        <ele>754</ele>
        <time>2019-04-19T10:20:35.000Z</time>
      </trkpt>
      <trkpt lat="38.49811" lon="-0.707943">
        <ele>754</ele>
        <time>2019-04-19T10:20:36.000Z</time>
      </trkpt>
      <trkpt lat="38.498134" lon="-0.70794">
        <ele>753.36</ele>
        <time>2019-04-19T10:20:37.000Z</time>
      </trkpt>
      <trkpt lat="38.498157" lon="-0.707935">
        <ele>752.36</ele>
        <time>2019-04-19T10:20:38.000Z</time>
      </trkpt>
      <trkpt lat="38.498179" lon="-0.707924">
        <ele>751.36</ele>
        <time>2019-04-19T10:20:39.000Z</time>
      </trkpt>
      <trkpt lat="38.498205" lon="-0.707913">
        <ele>751</ele>
        <time>2019-04-19T10:20:40.000Z</time>
      </trkpt>
      <trkpt lat="38.498228" lon="-0.707905">
        <ele>750.36</ele>
        <time>2019-04-19T10:20:41.000Z</time>
      </trkpt>
      <trkpt lat="38.498253" lon="-0.707901">
        <ele>750</ele>
        <time>2019-04-19T10:20:42.000Z</time>
      </trkpt>
      <trkpt lat="38.498279" lon="-0.707897">
        <ele>749.378642707129</ele>
        <time>2019-04-19T10:20:43.000Z</time>
      </trkpt>
      <trkpt lat="38.498308" lon="-0.707891">
        <ele>749</ele>
        <time>2019-04-19T10:20:44.000Z</time>
      </trkpt>
      <trkpt lat="38.498336" lon="-0.707889">
        <ele>749</ele>
        <time>2019-04-19T10:20:45.000Z</time>
      </trkpt>
      <trkpt lat="38.498364" lon="-0.70789">
        <ele>749</ele>
        <time>2019-04-19T10:20:46.000Z</time>
      </trkpt>
      <trkpt lat="38.498393" lon="-0.70789">
        <ele>748.36</ele>
        <time>2019-04-19T10:20:47.000Z</time>
      </trkpt>
      <trkpt lat="38.498423" lon="-0.707889">
        <ele>747.36</ele>
        <time>2019-04-19T10:20:48.000Z</time>
      </trkpt>
      <trkpt lat="38.498455" lon="-0.707891">
        <ele>747</ele>
        <time>2019-04-19T10:20:49.000Z</time>
      </trkpt>
      <trkpt lat="38.498486" lon="-0.707894">
        <ele>747</ele>
        <time>2019-04-19T10:20:50.000Z</time>
      </trkpt>
      <trkpt lat="38.498515" lon="-0.707899">
        <ele>746.396230060498</ele>
        <time>2019-04-19T10:20:51.000Z</time>
      </trkpt>
      <trkpt lat="38.498544" lon="-0.707905">
        <ele>746</ele>
        <time>2019-04-19T10:20:52.000Z</time>
      </trkpt>
      <trkpt lat="38.498571" lon="-0.707912">
        <ele>746</ele>
        <time>2019-04-19T10:20:53.000Z</time>
      </trkpt>
      <trkpt lat="38.498598" lon="-0.707923">
        <ele>746</ele>
        <time>2019-04-19T10:20:54.000Z</time>
      </trkpt>
      <trkpt lat="38.498623" lon="-0.707936">
        <ele>746</ele>
        <time>2019-04-19T10:20:55.000Z</time>
      </trkpt>
      <trkpt lat="38.498648" lon="-0.707946">
        <ele>746</ele>
        <time>2019-04-19T10:20:56.000Z</time>
      </trkpt>
      <trkpt lat="38.498672" lon="-0.707959">
        <ele>745.412842312932</ele>
        <time>2019-04-19T10:20:57.000Z</time>
      </trkpt>
      <trkpt lat="38.498691" lon="-0.707976">
        <ele>744.395603004473</ele>
        <time>2019-04-19T10:20:58.000Z</time>
      </trkpt>
      <trkpt lat="38.498708" lon="-0.707998">
        <ele>744</ele>
        <time>2019-04-19T10:20:59.000Z</time>
      </trkpt>
      <trkpt lat="38.498724" lon="-0.708023">
        <ele>744</ele>
        <time>2019-04-19T10:21:00.000Z</time>
      </trkpt>
      <trkpt lat="38.498741" lon="-0.708051">
        <ele>744</ele>
        <time>2019-04-19T10:21:01.000Z</time>
      </trkpt>
      <trkpt lat="38.498757" lon="-0.70808">
        <ele>744</ele>
        <time>2019-04-19T10:21:02.000Z</time>
      </trkpt>
      <trkpt lat="38.498778" lon="-0.708111">
        <ele>743.507694731349</ele>
        <time>2019-04-19T10:21:03.000Z</time>
      </trkpt>
      <trkpt lat="38.4988" lon="-0.708141">
        <ele>742.514290416369</ele>
        <time>2019-04-19T10:21:04.000Z</time>
      </trkpt>
      <trkpt lat="38.498822" lon="-0.708166">
        <ele>742</ele>
        <time>2019-04-19T10:21:05.000Z</time>
      </trkpt>
      <trkpt lat="38.498845" lon="-0.708186">
        <ele>742</ele>
        <time>2019-04-19T10:21:06.000Z</time>
      </trkpt>
      <trkpt lat="38.498867" lon="-0.708198">
        <ele>742</ele>
        <time>2019-04-19T10:21:07.000Z</time>
      </trkpt>
      <trkpt lat="38.498884" lon="-0.708206">
        <ele>742</ele>
        <time>2019-04-19T10:21:08.000Z</time>
      </trkpt>
      <trkpt lat="38.498903" lon="-0.708211">
        <ele>742</ele>
        <time>2019-04-19T10:21:09.000Z</time>
      </trkpt>
      <trkpt lat="38.498931" lon="-0.70822">
        <ele>742</ele>
        <time>2019-04-19T10:21:11.000Z</time>
      </trkpt>
      <trkpt lat="38.49895" lon="-0.708206">
        <ele>744</ele>
        <time>2019-04-19T10:21:13.000Z</time>
      </trkpt>
      <trkpt lat="38.498973" lon="-0.708205">
        <ele>744</ele>
        <time>2019-04-19T10:21:15.000Z</time>
      </trkpt>
      <trkpt lat="38.498998" lon="-0.708207">
        <ele>744</ele>
        <time>2019-04-19T10:21:17.000Z</time>
      </trkpt>
      <trkpt lat="38.499025" lon="-0.70821">
        <ele>744</ele>
        <time>2019-04-19T10:21:19.000Z</time>
      </trkpt>
      <trkpt lat="38.499049" lon="-0.708213">
        <ele>744</ele>
        <time>2019-04-19T10:21:21.000Z</time>
      </trkpt>
      <trkpt lat="38.49907" lon="-0.708213">
        <ele>744</ele>
        <time>2019-04-19T10:21:23.000Z</time>
      </trkpt>
      <trkpt lat="38.499092" lon="-0.708213">
        <ele>744</ele>
        <time>2019-04-19T10:21:25.000Z</time>
      </trkpt>
      <trkpt lat="38.499117" lon="-0.708216">
        <ele>744</ele>
        <time>2019-04-19T10:21:27.000Z</time>
      </trkpt>
      <trkpt lat="38.499142" lon="-0.708227">
        <ele>744</ele>
        <time>2019-04-19T10:21:29.000Z</time>
      </trkpt>
      <trkpt lat="38.499168" lon="-0.70824">
        <ele>744</ele>
        <time>2019-04-19T10:21:31.000Z</time>
      </trkpt>
      <trkpt lat="38.499193" lon="-0.708251">
        <ele>744</ele>
        <time>2019-04-19T10:21:33.000Z</time>
      </trkpt>
      <trkpt lat="38.499218" lon="-0.708259">
        <ele>744</ele>
        <time>2019-04-19T10:21:35.000Z</time>
      </trkpt>
      <trkpt lat="38.499241" lon="-0.708252">
        <ele>744</ele>
        <time>2019-04-19T10:21:37.000Z</time>
      </trkpt>
      <trkpt lat="38.49926" lon="-0.708229">
        <ele>744</ele>
        <time>2019-04-19T10:21:39.000Z</time>
      </trkpt>
      <trkpt lat="38.499276" lon="-0.708197">
        <ele>744</ele>
        <time>2019-04-19T10:21:41.000Z</time>
      </trkpt>
      <trkpt lat="38.499291" lon="-0.708164">
        <ele>745</ele>
        <time>2019-04-19T10:21:43.000Z</time>
      </trkpt>
      <trkpt lat="38.499303" lon="-0.708126">
        <ele>745</ele>
        <time>2019-04-19T10:21:45.000Z</time>
      </trkpt>
      <trkpt lat="38.499317" lon="-0.708091">
        <ele>745</ele>
        <time>2019-04-19T10:21:47.000Z</time>
      </trkpt>
      <trkpt lat="38.499334" lon="-0.708064">
        <ele>745</ele>
        <time>2019-04-19T10:21:49.000Z</time>
      </trkpt>
      <trkpt lat="38.499355" lon="-0.708035">
        <ele>745</ele>
        <time>2019-04-19T10:21:51.000Z</time>
      </trkpt>
      <trkpt lat="38.499374" lon="-0.708004">
        <ele>745</ele>
        <time>2019-04-19T10:21:53.000Z</time>
      </trkpt>
      <trkpt lat="38.499389" lon="-0.707975">
        <ele>745</ele>
        <time>2019-04-19T10:21:55.000Z</time>
      </trkpt>
      <trkpt lat="38.499413" lon="-0.707949">
        <ele>746</ele>
        <time>2019-04-19T10:21:57.000Z</time>
      </trkpt>
      <trkpt lat="38.499437" lon="-0.707921">
        <ele>746</ele>
        <time>2019-04-19T10:21:59.000Z</time>
      </trkpt>
      <trkpt lat="38.499456" lon="-0.70789">
        <ele>746</ele>
        <time>2019-04-19T10:22:01.000Z</time>
      </trkpt>
      <trkpt lat="38.499478" lon="-0.707866">
        <ele>746</ele>
        <time>2019-04-19T10:22:03.000Z</time>
      </trkpt>
      <trkpt lat="38.499493" lon="-0.707837">
        <ele>745</ele>
        <time>2019-04-19T10:22:05.000Z</time>
      </trkpt>
      <trkpt lat="38.49951" lon="-0.707806">
        <ele>745</ele>
        <time>2019-04-19T10:22:07.000Z</time>
      </trkpt>
      <trkpt lat="38.499523" lon="-0.707776">
        <ele>745</ele>
        <time>2019-04-19T10:22:09.000Z</time>
      </trkpt>
      <trkpt lat="38.499534" lon="-0.707747">
        <ele>745</ele>
        <time>2019-04-19T10:22:11.000Z</time>
      </trkpt>
      <trkpt lat="38.499546" lon="-0.70772">
        <ele>745</ele>
        <time>2019-04-19T10:22:13.000Z</time>
      </trkpt>
      <trkpt lat="38.49956" lon="-0.707694">
        <ele>745</ele>
        <time>2019-04-19T10:22:15.000Z</time>
      </trkpt>
      <trkpt lat="38.499577" lon="-0.707671">
        <ele>745</ele>
        <time>2019-04-19T10:22:17.000Z</time>
      </trkpt>
      <trkpt lat="38.499597" lon="-0.707649">
        <ele>745</ele>
        <time>2019-04-19T10:22:19.000Z</time>
      </trkpt>
      <trkpt lat="38.499617" lon="-0.707624">
        <ele>745</ele>
        <time>2019-04-19T10:22:21.000Z</time>
      </trkpt>
      <trkpt lat="38.499638" lon="-0.70761">
        <ele>745</ele>
        <time>2019-04-19T10:22:23.000Z</time>
      </trkpt>
      <trkpt lat="38.499658" lon="-0.707606">
        <ele>745</ele>
        <time>2019-04-19T10:22:25.000Z</time>
      </trkpt>
      <trkpt lat="38.499678" lon="-0.707598">
        <ele>745</ele>
        <time>2019-04-19T10:22:27.000Z</time>
      </trkpt>
      <trkpt lat="38.499702" lon="-0.707598">
        <ele>744.6</ele>
        <time>2019-04-19T10:22:29.000Z</time>
      </trkpt>
      <trkpt lat="38.499731" lon="-0.707598">
        <ele>744</ele>
        <time>2019-04-19T10:22:31.000Z</time>
      </trkpt>
      <trkpt lat="38.499757" lon="-0.707597">
        <ele>744</ele>
        <time>2019-04-19T10:22:33.000Z</time>
      </trkpt>
      <trkpt lat="38.499781" lon="-0.707594">
        <ele>744</ele>
        <time>2019-04-19T10:22:35.000Z</time>
      </trkpt>
      <trkpt lat="38.499806" lon="-0.707588">
        <ele>744</ele>
        <time>2019-04-19T10:22:37.000Z</time>
      </trkpt>
      <trkpt lat="38.499832" lon="-0.707577">
        <ele>744</ele>
        <time>2019-04-19T10:22:39.000Z</time>
      </trkpt>
      <trkpt lat="38.499857" lon="-0.707558">
        <ele>744</ele>
        <time>2019-04-19T10:22:41.000Z</time>
      </trkpt>
      <trkpt lat="38.499877" lon="-0.70753">
        <ele>744</ele>
        <time>2019-04-19T10:22:43.000Z</time>
      </trkpt>
      <trkpt lat="38.499887" lon="-0.707494">
        <ele>744</ele>
        <time>2019-04-19T10:22:45.000Z</time>
      </trkpt>
      <trkpt lat="38.499896" lon="-0.707459">
        <ele>744</ele>
        <time>2019-04-19T10:22:47.000Z</time>
      </trkpt>
      <trkpt lat="38.499909" lon="-0.707418">
        <ele>743.36</ele>
        <time>2019-04-19T10:22:49.000Z</time>
      </trkpt>
      <trkpt lat="38.499912" lon="-0.707391">
        <ele>743</ele>
        <time>2019-04-19T10:22:50.000Z</time>
      </trkpt>
      <trkpt lat="38.499915" lon="-0.707358">
        <ele>743</ele>
        <time>2019-04-19T10:22:51.000Z</time>
      </trkpt>
      <trkpt lat="38.499917" lon="-0.707327">
        <ele>743</ele>
        <time>2019-04-19T10:22:52.000Z</time>
      </trkpt>
      <trkpt lat="38.499917" lon="-0.707296">
        <ele>743</ele>
        <time>2019-04-19T10:22:53.000Z</time>
      </trkpt>
      <trkpt lat="38.499913" lon="-0.707263">
        <ele>743</ele>
        <time>2019-04-19T10:22:54.000Z</time>
      </trkpt>
      <trkpt lat="38.499913" lon="-0.707237">
        <ele>743.615384615385</ele>
        <time>2019-04-19T10:22:55.000Z</time>
      </trkpt>
      <trkpt lat="38.499914" lon="-0.70721">
        <ele>744</ele>
        <time>2019-04-19T10:22:56.000Z</time>
      </trkpt>
      <trkpt lat="38.499914" lon="-0.707184">
        <ele>743.51145157508</ele>
        <time>2019-04-19T10:22:57.000Z</time>
      </trkpt>
      <trkpt lat="38.499911" lon="-0.707155">
        <ele>743</ele>
        <time>2019-04-19T10:22:58.000Z</time>
      </trkpt>
      <trkpt lat="38.49991" lon="-0.707123">
        <ele>743</ele>
        <time>2019-04-19T10:22:59.000Z</time>
      </trkpt>
      <trkpt lat="38.499907" lon="-0.707091">
        <ele>743</ele>
        <time>2019-04-19T10:23:00.000Z</time>
      </trkpt>
      <trkpt lat="38.499909" lon="-0.707061">
        <ele>743</ele>
        <time>2019-04-19T10:23:01.000Z</time>
      </trkpt>
      <trkpt lat="38.499907" lon="-0.707025">
        <ele>743</ele>
        <time>2019-04-19T10:23:02.000Z</time>
      </trkpt>
      <trkpt lat="38.499908" lon="-0.706992">
        <ele>743</ele>
        <time>2019-04-19T10:23:03.000Z</time>
      </trkpt>
      <trkpt lat="38.499906" lon="-0.706956">
        <ele>743</ele>
        <time>2019-04-19T10:23:04.000Z</time>
      </trkpt>
      <trkpt lat="38.499905" lon="-0.706921">
        <ele>743</ele>
        <time>2019-04-19T10:23:05.000Z</time>
      </trkpt>
      <trkpt lat="38.499906" lon="-0.706886">
        <ele>743</ele>
        <time>2019-04-19T10:23:06.000Z</time>
      </trkpt>
      <trkpt lat="38.499903" lon="-0.706849">
        <ele>743</ele>
        <time>2019-04-19T10:23:07.000Z</time>
      </trkpt>
      <trkpt lat="38.499903" lon="-0.706812">
        <ele>743</ele>
        <time>2019-04-19T10:23:08.000Z</time>
      </trkpt>
      <trkpt lat="38.499907" lon="-0.706776">
        <ele>742.391304347826</ele>
        <time>2019-04-19T10:23:09.000Z</time>
      </trkpt>
      <trkpt lat="38.499905" lon="-0.706735">
        <ele>742</ele>
        <time>2019-04-19T10:23:10.000Z</time>
      </trkpt>
      <trkpt lat="38.499904" lon="-0.706695">
        <ele>741.36</ele>
        <time>2019-04-19T10:23:11.000Z</time>
      </trkpt>
      <trkpt lat="38.499905" lon="-0.706654">
        <ele>741</ele>
        <time>2019-04-19T10:23:12.000Z</time>
      </trkpt>
      <trkpt lat="38.499905" lon="-0.706613">
        <ele>741</ele>
        <time>2019-04-19T10:23:13.000Z</time>
      </trkpt>
      <trkpt lat="38.499908" lon="-0.706571">
        <ele>740.391304347826</ele>
        <time>2019-04-19T10:23:14.000Z</time>
      </trkpt>
      <trkpt lat="38.499913" lon="-0.706533">
        <ele>740</ele>
        <time>2019-04-19T10:23:15.000Z</time>
      </trkpt>
      <trkpt lat="38.499917" lon="-0.706494">
        <ele>740</ele>
        <time>2019-04-19T10:23:16.000Z</time>
      </trkpt>
      <trkpt lat="38.499921" lon="-0.706458">
        <ele>740</ele>
        <time>2019-04-19T10:23:17.000Z</time>
      </trkpt>
      <trkpt lat="38.49992" lon="-0.706419">
        <ele>740</ele>
        <time>2019-04-19T10:23:18.000Z</time>
      </trkpt>
      <trkpt lat="38.499925" lon="-0.706385">
        <ele>739.387098106144</ele>
        <time>2019-04-19T10:23:19.000Z</time>
      </trkpt>
      <trkpt lat="38.499931" lon="-0.706353">
        <ele>739</ele>
        <time>2019-04-19T10:23:20.000Z</time>
      </trkpt>
      <trkpt lat="38.499931" lon="-0.706321">
        <ele>739</ele>
        <time>2019-04-19T10:23:21.000Z</time>
      </trkpt>
      <trkpt lat="38.499933" lon="-0.70629">
        <ele>739</ele>
        <time>2019-04-19T10:23:22.000Z</time>
      </trkpt>
      <trkpt lat="38.499939" lon="-0.70626">
        <ele>739</ele>
        <time>2019-04-19T10:23:23.000Z</time>
      </trkpt>
      <trkpt lat="38.499948" lon="-0.706232">
        <ele>739</ele>
        <time>2019-04-19T10:23:24.000Z</time>
      </trkpt>
      <trkpt lat="38.499953" lon="-0.706204">
        <ele>739</ele>
        <time>2019-04-19T10:23:25.000Z</time>
      </trkpt>
      <trkpt lat="38.499956" lon="-0.706174">
        <ele>739</ele>
        <time>2019-04-19T10:23:26.000Z</time>
      </trkpt>
      <trkpt lat="38.499957" lon="-0.706143">
        <ele>739</ele>
        <time>2019-04-19T10:23:27.000Z</time>
      </trkpt>
      <trkpt lat="38.49996" lon="-0.706112">
        <ele>739</ele>
        <time>2019-04-19T10:23:28.000Z</time>
      </trkpt>
      <trkpt lat="38.499963" lon="-0.706079">
        <ele>739</ele>
        <time>2019-04-19T10:23:29.000Z</time>
      </trkpt>
      <trkpt lat="38.499971" lon="-0.706046">
        <ele>739</ele>
        <time>2019-04-19T10:23:30.000Z</time>
      </trkpt>
      <trkpt lat="38.499978" lon="-0.706014">
        <ele>739</ele>
        <time>2019-04-19T10:23:31.000Z</time>
      </trkpt>
      <trkpt lat="38.499993" lon="-0.705986">
        <ele>739</ele>
        <time>2019-04-19T10:23:32.000Z</time>
      </trkpt>
      <trkpt lat="38.500008" lon="-0.705963">
        <ele>739</ele>
        <time>2019-04-19T10:23:33.000Z</time>
      </trkpt>
      <trkpt lat="38.500021" lon="-0.70594">
        <ele>739.604396995527</ele>
        <time>2019-04-19T10:23:34.000Z</time>
      </trkpt>
      <trkpt lat="38.500033" lon="-0.705918">
        <ele>740</ele>
        <time>2019-04-19T10:23:35.000Z</time>
      </trkpt>
      <trkpt lat="38.500049" lon="-0.7059">
        <ele>740</ele>
        <time>2019-04-19T10:23:36.000Z</time>
      </trkpt>
      <trkpt lat="38.500065" lon="-0.705886">
        <ele>740</ele>
        <time>2019-04-19T10:23:37.000Z</time>
      </trkpt>
      <trkpt lat="38.500079" lon="-0.705866">
        <ele>739</ele>
        <time>2019-04-19T10:23:40.000Z</time>
      </trkpt>
      <trkpt lat="38.500109" lon="-0.705844">
        <ele>740</ele>
        <time>2019-04-19T10:23:43.000Z</time>
      </trkpt>
      <trkpt lat="38.500123" lon="-0.705822">
        <ele>740</ele>
        <time>2019-04-19T10:23:44.000Z</time>
      </trkpt>
      <trkpt lat="38.500138" lon="-0.705799">
        <ele>740</ele>
        <time>2019-04-19T10:23:45.000Z</time>
      </trkpt>
      <trkpt lat="38.500146" lon="-0.70577">
        <ele>740</ele>
        <time>2019-04-19T10:23:46.000Z</time>
      </trkpt>
      <trkpt lat="38.500149" lon="-0.705739">
        <ele>740</ele>
        <time>2019-04-19T10:23:47.000Z</time>
      </trkpt>
      <trkpt lat="38.500147" lon="-0.705707">
        <ele>740</ele>
        <time>2019-04-19T10:23:48.000Z</time>
      </trkpt>
      <trkpt lat="38.500145" lon="-0.705677">
        <ele>740</ele>
        <time>2019-04-19T10:23:49.000Z</time>
      </trkpt>
      <trkpt lat="38.500134" lon="-0.705646">
        <ele>740</ele>
        <time>2019-04-19T10:23:50.000Z</time>
      </trkpt>
      <trkpt lat="38.500119" lon="-0.705619">
        <ele>740</ele>
        <time>2019-04-19T10:23:51.000Z</time>
      </trkpt>
      <trkpt lat="38.500103" lon="-0.705594">
        <ele>740</ele>
        <time>2019-04-19T10:23:52.000Z</time>
      </trkpt>
      <trkpt lat="38.50009" lon="-0.705572">
        <ele>740</ele>
        <time>2019-04-19T10:23:53.000Z</time>
      </trkpt>
      <trkpt lat="38.500074" lon="-0.70555">
        <ele>739.503874738294</ele>
        <time>2019-04-19T10:23:54.000Z</time>
      </trkpt>
      <trkpt lat="38.500054" lon="-0.705536">
        <ele>739</ele>
        <time>2019-04-19T10:23:55.000Z</time>
      </trkpt>
      <trkpt lat="38.500034" lon="-0.705525">
        <ele>739</ele>
        <time>2019-04-19T10:23:56.000Z</time>
      </trkpt>
      <trkpt lat="38.500013" lon="-0.705515">
        <ele>739</ele>
        <time>2019-04-19T10:23:57.000Z</time>
      </trkpt>
      <trkpt lat="38.49999" lon="-0.705504">
        <ele>738.438593339471</ele>
        <time>2019-04-19T10:23:58.000Z</time>
      </trkpt>
      <trkpt lat="38.49997" lon="-0.705493">
        <ele>738</ele>
        <time>2019-04-19T10:23:59.000Z</time>
      </trkpt>
      <trkpt lat="38.499948" lon="-0.705487">
        <ele>738</ele>
        <time>2019-04-19T10:24:00.000Z</time>
      </trkpt>
      <trkpt lat="38.499927" lon="-0.705481">
        <ele>738.471428310202</ele>
        <time>2019-04-19T10:24:01.000Z</time>
      </trkpt>
      <trkpt lat="38.499903" lon="-0.705476">
        <ele>739</ele>
        <time>2019-04-19T10:24:02.000Z</time>
      </trkpt>
      <trkpt lat="38.499879" lon="-0.705469">
        <ele>739</ele>
        <time>2019-04-19T10:24:03.000Z</time>
      </trkpt>
      <trkpt lat="38.499854" lon="-0.705466">
        <ele>739</ele>
        <time>2019-04-19T10:24:04.000Z</time>
      </trkpt>
      <trkpt lat="38.49983" lon="-0.70546">
        <ele>739</ele>
        <time>2019-04-19T10:24:05.000Z</time>
      </trkpt>
      <trkpt lat="38.499806" lon="-0.705456">
        <ele>739</ele>
        <time>2019-04-19T10:24:06.000Z</time>
      </trkpt>
      <trkpt lat="38.499782" lon="-0.705451">
        <ele>739</ele>
        <time>2019-04-19T10:24:07.000Z</time>
      </trkpt>
      <trkpt lat="38.499761" lon="-0.705444">
        <ele>739.633665373989</ele>
        <time>2019-04-19T10:24:08.000Z</time>
      </trkpt>
      <trkpt lat="38.499739" lon="-0.705436">
        <ele>740</ele>
        <time>2019-04-19T10:24:09.000Z</time>
      </trkpt>
      <trkpt lat="38.499715" lon="-0.705424">
        <ele>740</ele>
        <time>2019-04-19T10:24:10.000Z</time>
      </trkpt>
      <trkpt lat="38.499695" lon="-0.705413">
        <ele>739.400002844465</ele>
        <time>2019-04-19T10:24:11.000Z</time>
      </trkpt>
      <trkpt lat="38.499673" lon="-0.705402">
        <ele>739</ele>
        <time>2019-04-19T10:24:12.000Z</time>
      </trkpt>
      <trkpt lat="38.499651" lon="-0.705389">
        <ele>739.496125261706</ele>
        <time>2019-04-19T10:24:13.000Z</time>
      </trkpt>
      <trkpt lat="38.499627" lon="-0.705375">
        <ele>740</ele>
        <time>2019-04-19T10:24:14.000Z</time>
      </trkpt>
      <trkpt lat="38.499603" lon="-0.705365">
        <ele>740</ele>
        <time>2019-04-19T10:24:15.000Z</time>
      </trkpt>
      <trkpt lat="38.499578" lon="-0.705353">
        <ele>739.375</ele>
        <time>2019-04-19T10:24:16.000Z</time>
      </trkpt>
      <trkpt lat="38.499553" lon="-0.705343">
        <ele>739.571428571429</ele>
        <time>2019-04-19T10:24:17.000Z</time>
      </trkpt>
      <trkpt lat="38.499525" lon="-0.70533">
        <ele>740</ele>
        <time>2019-04-19T10:24:18.000Z</time>
      </trkpt>
      <trkpt lat="38.499497" lon="-0.705318">
        <ele>739.36</ele>
        <time>2019-04-19T10:24:19.000Z</time>
      </trkpt>
      <trkpt lat="38.499469" lon="-0.705306">
        <ele>739</ele>
        <time>2019-04-19T10:24:20.000Z</time>
      </trkpt>
      <trkpt lat="38.499439" lon="-0.705293">
        <ele>739</ele>
        <time>2019-04-19T10:24:21.000Z</time>
      </trkpt>
      <trkpt lat="38.499413" lon="-0.705275">
        <ele>739</ele>
        <time>2019-04-19T10:24:22.000Z</time>
      </trkpt>
      <trkpt lat="38.49939" lon="-0.705255">
        <ele>739</ele>
        <time>2019-04-19T10:24:23.000Z</time>
      </trkpt>
      <trkpt lat="38.499368" lon="-0.705233">
        <ele>738.367344539791</ele>
        <time>2019-04-19T10:24:24.000Z</time>
      </trkpt>
      <trkpt lat="38.499349" lon="-0.705207">
        <ele>738</ele>
        <time>2019-04-19T10:24:25.000Z</time>
      </trkpt>
      <trkpt lat="38.499336" lon="-0.705181">
        <ele>738</ele>
        <time>2019-04-19T10:24:26.000Z</time>
      </trkpt>
      <trkpt lat="38.499324" lon="-0.705149">
        <ele>738</ele>
        <time>2019-04-19T10:24:27.000Z</time>
      </trkpt>
      <trkpt lat="38.499313" lon="-0.705116">
        <ele>737.384615384615</ele>
        <time>2019-04-19T10:24:28.000Z</time>
      </trkpt>
      <trkpt lat="38.499304" lon="-0.705083">
        <ele>737</ele>
        <time>2019-04-19T10:24:29.000Z</time>
      </trkpt>
      <trkpt lat="38.499297" lon="-0.705052">
        <ele>737</ele>
        <time>2019-04-19T10:24:30.000Z</time>
      </trkpt>
      <trkpt lat="38.499288" lon="-0.705016">
        <ele>737</ele>
        <time>2019-04-19T10:24:31.000Z</time>
      </trkpt>
      <trkpt lat="38.49928" lon="-0.704983">
        <ele>737</ele>
        <time>2019-04-19T10:24:32.000Z</time>
      </trkpt>
      <trkpt lat="38.499274" lon="-0.704947">
        <ele>737</ele>
        <time>2019-04-19T10:24:33.000Z</time>
      </trkpt>
      <trkpt lat="38.499272" lon="-0.704912">
        <ele>737</ele>
        <time>2019-04-19T10:24:34.000Z</time>
      </trkpt>
      <trkpt lat="38.499273" lon="-0.704878">
        <ele>737</ele>
        <time>2019-04-19T10:24:35.000Z</time>
      </trkpt>
      <trkpt lat="38.499269" lon="-0.704842">
        <ele>737</ele>
        <time>2019-04-19T10:24:36.000Z</time>
      </trkpt>
      <trkpt lat="38.499265" lon="-0.704806">
        <ele>737</ele>
        <time>2019-04-19T10:24:37.000Z</time>
      </trkpt>
      <trkpt lat="38.499257" lon="-0.704771">
        <ele>737</ele>
        <time>2019-04-19T10:24:38.000Z</time>
      </trkpt>
      <trkpt lat="38.499242" lon="-0.704741">
        <ele>737</ele>
        <time>2019-04-19T10:24:39.000Z</time>
      </trkpt>
      <trkpt lat="38.499224" lon="-0.70471">
        <ele>737</ele>
        <time>2019-04-19T10:24:40.000Z</time>
      </trkpt>
      <trkpt lat="38.49921" lon="-0.704678">
        <ele>737.64</ele>
        <time>2019-04-19T10:24:41.000Z</time>
      </trkpt>
      <trkpt lat="38.499198" lon="-0.704647">
        <ele>738</ele>
        <time>2019-04-19T10:24:42.000Z</time>
      </trkpt>
      <trkpt lat="38.499187" lon="-0.704616">
        <ele>737.407407407407</ele>
        <time>2019-04-19T10:24:43.000Z</time>
      </trkpt>
      <trkpt lat="38.499175" lon="-0.70458">
        <ele>737</ele>
        <time>2019-04-19T10:24:44.000Z</time>
      </trkpt>
      <trkpt lat="38.499164" lon="-0.704543">
        <ele>737</ele>
        <time>2019-04-19T10:24:45.000Z</time>
      </trkpt>
      <trkpt lat="38.49915" lon="-0.704508">
        <ele>737</ele>
        <time>2019-04-19T10:24:46.000Z</time>
      </trkpt>
      <trkpt lat="38.499137" lon="-0.704475">
        <ele>737</ele>
        <time>2019-04-19T10:24:47.000Z</time>
      </trkpt>
      <trkpt lat="38.499123" lon="-0.70444">
        <ele>737</ele>
        <time>2019-04-19T10:24:48.000Z</time>
      </trkpt>
      <trkpt lat="38.49911" lon="-0.704406">
        <ele>737</ele>
        <time>2019-04-19T10:24:49.000Z</time>
      </trkpt>
      <trkpt lat="38.499099" lon="-0.704371">
        <ele>737</ele>
        <time>2019-04-19T10:24:50.000Z</time>
      </trkpt>
      <trkpt lat="38.49909" lon="-0.704337">
        <ele>737</ele>
        <time>2019-04-19T10:24:51.000Z</time>
      </trkpt>
      <trkpt lat="38.499075" lon="-0.704303">
        <ele>737</ele>
        <time>2019-04-19T10:24:52.000Z</time>
      </trkpt>
      <trkpt lat="38.499062" lon="-0.70427">
        <ele>737</ele>
        <time>2019-04-19T10:24:53.000Z</time>
      </trkpt>
      <trkpt lat="38.499048" lon="-0.704237">
        <ele>736.375</ele>
        <time>2019-04-19T10:24:54.000Z</time>
      </trkpt>
      <trkpt lat="38.499034" lon="-0.704205">
        <ele>736</ele>
        <time>2019-04-19T10:24:55.000Z</time>
      </trkpt>
      <trkpt lat="38.499019" lon="-0.704167">
        <ele>736</ele>
        <time>2019-04-19T10:24:56.000Z</time>
      </trkpt>
      <trkpt lat="38.499011" lon="-0.704133">
        <ele>736</ele>
        <time>2019-04-19T10:24:57.000Z</time>
      </trkpt>
      <trkpt lat="38.499" lon="-0.704093">
        <ele>736</ele>
        <time>2019-04-19T10:24:58.000Z</time>
      </trkpt>
      <trkpt lat="38.49899" lon="-0.704056">
        <ele>736</ele>
        <time>2019-04-19T10:24:59.000Z</time>
      </trkpt>
      <trkpt lat="38.498978" lon="-0.704017">
        <ele>736</ele>
        <time>2019-04-19T10:25:00.000Z</time>
      </trkpt>
      <trkpt lat="38.498967" lon="-0.703979">
        <ele>735.372545082636</ele>
        <time>2019-04-19T10:25:01.000Z</time>
      </trkpt>
      <trkpt lat="38.498955" lon="-0.70394">
        <ele>735</ele>
        <time>2019-04-19T10:25:02.000Z</time>
      </trkpt>
      <trkpt lat="38.498945" lon="-0.703899">
        <ele>735.64</ele>
        <time>2019-04-19T10:25:03.000Z</time>
      </trkpt>
      <trkpt lat="38.498931" lon="-0.70386">
        <ele>736</ele>
        <time>2019-04-19T10:25:04.000Z</time>
      </trkpt>
      <trkpt lat="38.498919" lon="-0.703825">
        <ele>736</ele>
        <time>2019-04-19T10:25:05.000Z</time>
      </trkpt>
      <trkpt lat="38.498906" lon="-0.703788">
        <ele>736</ele>
        <time>2019-04-19T10:25:06.000Z</time>
      </trkpt>
      <trkpt lat="38.498894" lon="-0.703755">
        <ele>735.367349337792</ele>
        <time>2019-04-19T10:25:07.000Z</time>
      </trkpt>
      <trkpt lat="38.498884" lon="-0.703722">
        <ele>735</ele>
        <time>2019-04-19T10:25:08.000Z</time>
      </trkpt>
      <trkpt lat="38.498876" lon="-0.703689">
        <ele>735</ele>
        <time>2019-04-19T10:25:09.000Z</time>
      </trkpt>
      <trkpt lat="38.498865" lon="-0.703654">
        <ele>735.496125261706</ele>
        <time>2019-04-19T10:25:10.000Z</time>
      </trkpt>
      <trkpt lat="38.498853" lon="-0.70362">
        <ele>736</ele>
        <time>2019-04-19T10:25:11.000Z</time>
      </trkpt>
      <trkpt lat="38.498845" lon="-0.703588">
        <ele>736</ele>
        <time>2019-04-19T10:25:12.000Z</time>
      </trkpt>
      <trkpt lat="38.498839" lon="-0.703559">
        <ele>735.36</ele>
        <time>2019-04-19T10:25:13.000Z</time>
      </trkpt>
      <trkpt lat="38.498833" lon="-0.703527">
        <ele>735</ele>
        <time>2019-04-19T10:25:14.000Z</time>
      </trkpt>
      <trkpt lat="38.498829" lon="-0.703494">
        <ele>735</ele>
        <time>2019-04-19T10:25:15.000Z</time>
      </trkpt>
      <trkpt lat="38.498824" lon="-0.703463">
        <ele>735</ele>
        <time>2019-04-19T10:25:16.000Z</time>
      </trkpt>
      <trkpt lat="38.498822" lon="-0.703433">
        <ele>735</ele>
        <time>2019-04-19T10:25:17.000Z</time>
      </trkpt>
      <trkpt lat="38.49882" lon="-0.7034">
        <ele>735</ele>
        <time>2019-04-19T10:25:18.000Z</time>
      </trkpt>
      <trkpt lat="38.498821" lon="-0.703368">
        <ele>735</ele>
        <time>2019-04-19T10:25:19.000Z</time>
      </trkpt>
      <trkpt lat="38.49882" lon="-0.703334">
        <ele>735</ele>
        <time>2019-04-19T10:25:20.000Z</time>
      </trkpt>
      <trkpt lat="38.498813" lon="-0.703298">
        <ele>734.407407407407</ele>
        <time>2019-04-19T10:25:21.000Z</time>
      </trkpt>
      <trkpt lat="38.498803" lon="-0.70326">
        <ele>734</ele>
        <time>2019-04-19T10:25:22.000Z</time>
      </trkpt>
      <trkpt lat="38.498797" lon="-0.703225">
        <ele>734</ele>
        <time>2019-04-19T10:25:23.000Z</time>
      </trkpt>
      <trkpt lat="38.49879" lon="-0.703187">
        <ele>734.64</ele>
        <time>2019-04-19T10:25:24.000Z</time>
      </trkpt>
      <trkpt lat="38.498785" lon="-0.703151">
        <ele>735</ele>
        <time>2019-04-19T10:25:25.000Z</time>
      </trkpt>
      <trkpt lat="38.49878" lon="-0.703119">
        <ele>735</ele>
        <time>2019-04-19T10:25:26.000Z</time>
      </trkpt>
      <trkpt lat="38.498777" lon="-0.703094">
        <ele>735</ele>
        <time>2019-04-19T10:25:27.000Z</time>
      </trkpt>
      <trkpt lat="38.498772" lon="-0.703069">
        <ele>735.621357292871</ele>
        <time>2019-04-19T10:25:28.000Z</time>
      </trkpt>
      <trkpt lat="38.498769" lon="-0.703044">
        <ele>736</ele>
        <time>2019-04-19T10:25:29.000Z</time>
      </trkpt>
      <trkpt lat="38.498764" lon="-0.703019">
        <ele>736</ele>
        <time>2019-04-19T10:25:30.000Z</time>
      </trkpt>
      <trkpt lat="38.498756" lon="-0.702994">
        <ele>736</ele>
        <time>2019-04-19T10:25:31.000Z</time>
      </trkpt>
      <trkpt lat="38.49875" lon="-0.702968">
        <ele>736</ele>
        <time>2019-04-19T10:25:32.000Z</time>
      </trkpt>
      <trkpt lat="38.498744" lon="-0.702937">
        <ele>735.36</ele>
        <time>2019-04-19T10:25:33.000Z</time>
      </trkpt>
      <trkpt lat="38.498739" lon="-0.702909">
        <ele>735</ele>
        <time>2019-04-19T10:25:34.000Z</time>
      </trkpt>
      <trkpt lat="38.498736" lon="-0.702878">
        <ele>735.632650662208</ele>
        <time>2019-04-19T10:25:35.000Z</time>
      </trkpt>
      <trkpt lat="38.498734" lon="-0.702851">
        <ele>736</ele>
        <time>2019-04-19T10:25:36.000Z</time>
      </trkpt>
      <trkpt lat="38.498729" lon="-0.702823">
        <ele>735.40449583639</ele>
        <time>2019-04-19T10:25:37.000Z</time>
      </trkpt>
      <trkpt lat="38.49872" lon="-0.702791">
        <ele>735</ele>
        <time>2019-04-19T10:25:38.000Z</time>
      </trkpt>
      <trkpt lat="38.498714" lon="-0.702763">
        <ele>735</ele>
        <time>2019-04-19T10:25:39.000Z</time>
      </trkpt>
      <trkpt lat="38.49871" lon="-0.702738">
        <ele>735</ele>
        <time>2019-04-19T10:25:40.000Z</time>
      </trkpt>
      <trkpt lat="38.498704" lon="-0.702708">
        <ele>735</ele>
        <time>2019-04-19T10:25:41.000Z</time>
      </trkpt>
      <trkpt lat="38.498703" lon="-0.702681">
        <ele>735</ele>
        <time>2019-04-19T10:25:42.000Z</time>
      </trkpt>
      <trkpt lat="38.498702" lon="-0.702656">
        <ele>735</ele>
        <time>2019-04-19T10:25:43.000Z</time>
      </trkpt>
      <trkpt lat="38.4987" lon="-0.702633">
        <ele>735</ele>
        <time>2019-04-19T10:25:44.000Z</time>
      </trkpt>
      <trkpt lat="38.498697" lon="-0.702606">
        <ele>735</ele>
        <time>2019-04-19T10:25:45.000Z</time>
      </trkpt>
      <trkpt lat="38.498691" lon="-0.702578">
        <ele>735</ele>
        <time>2019-04-19T10:25:46.000Z</time>
      </trkpt>
      <trkpt lat="38.498687" lon="-0.702549">
        <ele>735</ele>
        <time>2019-04-19T10:25:47.000Z</time>
      </trkpt>
      <trkpt lat="38.498681" lon="-0.702521">
        <ele>735</ele>
        <time>2019-04-19T10:25:48.000Z</time>
      </trkpt>
      <trkpt lat="38.498674" lon="-0.702494">
        <ele>735</ele>
        <time>2019-04-19T10:25:49.000Z</time>
      </trkpt>
      <trkpt lat="38.498667" lon="-0.702467">
        <ele>735</ele>
        <time>2019-04-19T10:25:50.000Z</time>
      </trkpt>
      <trkpt lat="38.498658" lon="-0.702441">
        <ele>735</ele>
        <time>2019-04-19T10:25:51.000Z</time>
      </trkpt>
      <trkpt lat="38.498649" lon="-0.702413">
        <ele>735.64</ele>
        <time>2019-04-19T10:25:52.000Z</time>
      </trkpt>
      <trkpt lat="38.49864" lon="-0.702383">
        <ele>736</ele>
        <time>2019-04-19T10:25:53.000Z</time>
      </trkpt>
      <trkpt lat="38.498632" lon="-0.702353">
        <ele>736</ele>
        <time>2019-04-19T10:25:54.000Z</time>
      </trkpt>
      <trkpt lat="38.498623" lon="-0.702326">
        <ele>736</ele>
        <time>2019-04-19T10:25:55.000Z</time>
      </trkpt>
      <trkpt lat="38.498615" lon="-0.702302">
        <ele>736</ele>
        <time>2019-04-19T10:25:56.000Z</time>
      </trkpt>
      <trkpt lat="38.498605" lon="-0.702276">
        <ele>736</ele>
        <time>2019-04-19T10:25:57.000Z</time>
      </trkpt>
      <trkpt lat="38.498595" lon="-0.702249">
        <ele>736</ele>
        <time>2019-04-19T10:25:58.000Z</time>
      </trkpt>
      <trkpt lat="38.498585" lon="-0.702221">
        <ele>736.581398464011</ele>
        <time>2019-04-19T10:25:59.000Z</time>
      </trkpt>
      <trkpt lat="38.498577" lon="-0.702193">
        <ele>737</ele>
        <time>2019-04-19T10:26:00.000Z</time>
      </trkpt>
      <trkpt lat="38.498575" lon="-0.702148">
        <ele>737</ele>
        <time>2019-04-19T10:26:02.000Z</time>
      </trkpt>
      <trkpt lat="38.498574" lon="-0.702125">
        <ele>737</ele>
        <time>2019-04-19T10:26:03.000Z</time>
      </trkpt>
      <trkpt lat="38.498578" lon="-0.702081">
        <ele>737</ele>
        <time>2019-04-19T10:26:05.000Z</time>
      </trkpt>
      <trkpt lat="38.498575" lon="-0.70205">
        <ele>737.471548691906</ele>
        <time>2019-04-19T10:26:07.000Z</time>
      </trkpt>
      <trkpt lat="38.498568" lon="-0.702018">
        <ele>738</ele>
        <time>2019-04-19T10:26:09.000Z</time>
      </trkpt>
      <trkpt lat="38.498562" lon="-0.701988">
        <ele>738.034265651132</ele>
        <time>2019-04-19T10:26:11.000Z</time>
      </trkpt>
      <trkpt lat="38.49848" lon="-0.701711">
        <ele>724.299987792969</ele>
        <time>2019-04-21T06:32:27.000Z</time>
      </trkpt>
      <trkpt lat="38.49848" lon="-0.701701">
        <ele>720</ele>
        <time>2019-04-21T06:32:28.000Z</time>
      </trkpt>
      <trkpt lat="38.498486" lon="-0.70167">
        <ele>720</ele>
        <time>2019-04-21T06:32:30.000Z</time>
      </trkpt>
      <trkpt lat="38.498494" lon="-0.701628">
        <ele>720.157308864983</ele>
        <time>2019-04-21T06:32:32.000Z</time>
      </trkpt>
      <trkpt lat="38.498514" lon="-0.701497">
        <ele>722</ele>
        <time>2019-04-21T06:32:38.000Z</time>
      </trkpt>
      <trkpt lat="38.498526" lon="-0.701379">
        <ele>720</ele>
        <time>2019-04-21T06:32:42.000Z</time>
      </trkpt>
      <trkpt lat="38.498528" lon="-0.701243">
        <ele>720.2499968</ele>
        <time>2019-04-21T06:32:47.000Z</time>
      </trkpt>
      <trkpt lat="38.49853" lon="-0.701218">
        <ele>721</ele>
        <time>2019-04-21T06:32:48.000Z</time>
      </trkpt>
      <trkpt lat="38.498526" lon="-0.701081">
        <ele>721</ele>
        <time>2019-04-21T06:32:53.000Z</time>
      </trkpt>
      <trkpt lat="38.498506" lon="-0.700966">
        <ele>721</ele>
        <time>2019-04-21T06:32:58.000Z</time>
      </trkpt>
      <trkpt lat="38.498536" lon="-0.700836">
        <ele>719</ele>
        <time>2019-04-21T06:33:03.000Z</time>
      </trkpt>
      <trkpt lat="38.498571" lon="-0.700722">
        <ele>719</ele>
        <time>2019-04-21T06:33:07.000Z</time>
      </trkpt>
      <trkpt lat="38.498619" lon="-0.700588">
        <ele>719.245096439821</ele>
        <time>2019-04-21T06:33:12.000Z</time>
      </trkpt>
      <trkpt lat="38.498672" lon="-0.700484">
        <ele>719.045796976833</ele>
        <time>2019-04-21T06:33:17.000Z</time>
      </trkpt>
      <trkpt lat="38.498733" lon="-0.700373">
        <ele>721</ele>
        <time>2019-04-21T06:33:23.000Z</time>
      </trkpt>
      <trkpt lat="38.498806" lon="-0.700277">
        <ele>723</ele>
        <time>2019-04-21T06:33:28.000Z</time>
      </trkpt>
      <trkpt lat="38.498871" lon="-0.700177">
        <ele>722</ele>
        <time>2019-04-21T06:33:33.000Z</time>
      </trkpt>
      <trkpt lat="38.498935" lon="-0.700077">
        <ele>720.7500032</ele>
        <time>2019-04-21T06:33:38.000Z</time>
      </trkpt>
      <trkpt lat="38.498946" lon="-0.700058">
        <ele>720</ele>
        <time>2019-04-21T06:33:39.000Z</time>
      </trkpt>
      <trkpt lat="38.498965" lon="-0.700016">
        <ele>719</ele>
        <time>2019-04-21T06:33:41.000Z</time>
      </trkpt>
      <trkpt lat="38.498977" lon="-0.699994">
        <ele>719</ele>
        <time>2019-04-21T06:33:42.000Z</time>
      </trkpt>
      <trkpt lat="38.498984" lon="-0.699969">
        <ele>719</ele>
        <time>2019-04-21T06:33:43.000Z</time>
      </trkpt>
      <trkpt lat="38.498996" lon="-0.699949">
        <ele>718.76415253828</ele>
        <time>2019-04-21T06:33:44.000Z</time>
      </trkpt>
      <trkpt lat="38.499052" lon="-0.699822">
        <ele>718</ele>
        <time>2019-04-21T06:33:49.000Z</time>
      </trkpt>
      <trkpt lat="38.499125" lon="-0.699727">
        <ele>717</ele>
        <time>2019-04-21T06:33:54.000Z</time>
      </trkpt>
      <trkpt lat="38.499218" lon="-0.699648">
        <ele>716</ele>
        <time>2019-04-21T06:33:59.000Z</time>
      </trkpt>
      <trkpt lat="38.499233" lon="-0.699629">
        <ele>716</ele>
        <time>2019-04-21T06:34:00.000Z</time>
      </trkpt>
      <trkpt lat="38.49925" lon="-0.69961">
        <ele>716</ele>
        <time>2019-04-21T06:34:01.000Z</time>
      </trkpt>
      <trkpt lat="38.499261" lon="-0.699586">
        <ele>716</ele>
        <time>2019-04-21T06:34:02.000Z</time>
      </trkpt>
      <trkpt lat="38.499277" lon="-0.699564">
        <ele>716</ele>
        <time>2019-04-21T06:34:03.000Z</time>
      </trkpt>
      <trkpt lat="38.499292" lon="-0.699544">
        <ele>716</ele>
        <time>2019-04-21T06:34:04.000Z</time>
      </trkpt>
      <trkpt lat="38.499307" lon="-0.699522">
        <ele>716</ele>
        <time>2019-04-21T06:34:05.000Z</time>
      </trkpt>
      <trkpt lat="38.499325" lon="-0.6995">
        <ele>716</ele>
        <time>2019-04-21T06:34:06.000Z</time>
      </trkpt>
      <trkpt lat="38.499344" lon="-0.699475">
        <ele>716</ele>
        <time>2019-04-21T06:34:07.000Z</time>
      </trkpt>
      <trkpt lat="38.499352" lon="-0.699448">
        <ele>716</ele>
        <time>2019-04-21T06:34:08.000Z</time>
      </trkpt>
      <trkpt lat="38.499356" lon="-0.69942">
        <ele>715.7500032</ele>
        <time>2019-04-21T06:34:09.000Z</time>
      </trkpt>
      <trkpt lat="38.499355" lon="-0.699394">
        <ele>715</ele>
        <time>2019-04-21T06:34:10.000Z</time>
      </trkpt>
      <trkpt lat="38.49935" lon="-0.699365">
        <ele>714.7500032</ele>
        <time>2019-04-21T06:34:11.000Z</time>
      </trkpt>
      <trkpt lat="38.499342" lon="-0.699336">
        <ele>714.247522368388</ele>
        <time>2019-04-21T06:34:12.000Z</time>
      </trkpt>
      <trkpt lat="38.49933" lon="-0.699306">
        <ele>715</ele>
        <time>2019-04-21T06:34:13.000Z</time>
      </trkpt>
      <trkpt lat="38.499319" lon="-0.699282">
        <ele>715</ele>
        <time>2019-04-21T06:34:14.000Z</time>
      </trkpt>
      <trkpt lat="38.499299" lon="-0.699263">
        <ele>715</ele>
        <time>2019-04-21T06:34:15.000Z</time>
      </trkpt>
      <trkpt lat="38.499283" lon="-0.699245">
        <ele>715</ele>
        <time>2019-04-21T06:34:16.000Z</time>
      </trkpt>
      <trkpt lat="38.499249" lon="-0.69924">
        <ele>715</ele>
        <time>2019-04-21T06:34:18.000Z</time>
      </trkpt>
      <trkpt lat="38.499226" lon="-0.699243">
        <ele>715</ele>
        <time>2019-04-21T06:34:19.000Z</time>
      </trkpt>
      <trkpt lat="38.4992" lon="-0.699247">
        <ele>715</ele>
        <time>2019-04-21T06:34:20.000Z</time>
      </trkpt>
      <trkpt lat="38.499181" lon="-0.699246">
        <ele>715</ele>
        <time>2019-04-21T06:34:21.000Z</time>
      </trkpt>
      <trkpt lat="38.499149" lon="-0.699246">
        <ele>714</ele>
        <time>2019-04-21T06:34:23.000Z</time>
      </trkpt>
      <trkpt lat="38.499128" lon="-0.699244">
        <ele>714</ele>
        <time>2019-04-21T06:34:24.000Z</time>
      </trkpt>
      <trkpt lat="38.499108" lon="-0.699237">
        <ele>714</ele>
        <time>2019-04-21T06:34:25.000Z</time>
      </trkpt>
      <trkpt lat="38.499086" lon="-0.69922">
        <ele>714</ele>
        <time>2019-04-21T06:34:26.000Z</time>
      </trkpt>
      <trkpt lat="38.499067" lon="-0.699207">
        <ele>714</ele>
        <time>2019-04-21T06:34:27.000Z</time>
      </trkpt>
      <trkpt lat="38.499046" lon="-0.699199">
        <ele>713</ele>
        <time>2019-04-21T06:34:28.000Z</time>
      </trkpt>
      <trkpt lat="38.499023" lon="-0.699195">
        <ele>713</ele>
        <time>2019-04-21T06:34:29.000Z</time>
      </trkpt>
      <trkpt lat="38.499" lon="-0.699186">
        <ele>713.2499968</ele>
        <time>2019-04-21T06:34:30.000Z</time>
      </trkpt>
      <trkpt lat="38.498983" lon="-0.699176">
        <ele>714</ele>
        <time>2019-04-21T06:34:31.000Z</time>
      </trkpt>
      <trkpt lat="38.498946" lon="-0.699162">
        <ele>714</ele>
        <time>2019-04-21T06:34:33.000Z</time>
      </trkpt>
      <trkpt lat="38.498925" lon="-0.69916">
        <ele>714</ele>
        <time>2019-04-21T06:34:34.000Z</time>
      </trkpt>
      <trkpt lat="38.498894" lon="-0.699159">
        <ele>714</ele>
        <time>2019-04-21T06:34:36.000Z</time>
      </trkpt>
      <trkpt lat="38.498869" lon="-0.699146">
        <ele>714</ele>
        <time>2019-04-21T06:34:38.000Z</time>
      </trkpt>
      <trkpt lat="38.498851" lon="-0.699132">
        <ele>713.822696902575</ele>
        <time>2019-04-21T06:34:39.000Z</time>
      </trkpt>
      <trkpt lat="38.498833" lon="-0.69912">
        <ele>713.113475434838</ele>
        <time>2019-04-21T06:34:40.000Z</time>
      </trkpt>
      <trkpt lat="38.498801" lon="-0.699107">
        <ele>713</ele>
        <time>2019-04-21T06:34:42.000Z</time>
      </trkpt>
      <trkpt lat="38.498782" lon="-0.699093">
        <ele>713</ele>
        <time>2019-04-21T06:34:43.000Z</time>
      </trkpt>
      <trkpt lat="38.498766" lon="-0.699079">
        <ele>712.7500032</ele>
        <time>2019-04-21T06:34:44.000Z</time>
      </trkpt>
      <trkpt lat="38.49875" lon="-0.699064">
        <ele>712</ele>
        <time>2019-04-21T06:34:45.000Z</time>
      </trkpt>
      <trkpt lat="38.498714" lon="-0.699052">
        <ele>712</ele>
        <time>2019-04-21T06:34:47.000Z</time>
      </trkpt>
      <trkpt lat="38.498696" lon="-0.699045">
        <ele>712</ele>
        <time>2019-04-21T06:34:48.000Z</time>
      </trkpt>
      <trkpt lat="38.498679" lon="-0.699037">
        <ele>712</ele>
        <time>2019-04-21T06:34:49.000Z</time>
      </trkpt>
      <trkpt lat="38.498659" lon="-0.699029">
        <ele>712</ele>
        <time>2019-04-21T06:34:50.000Z</time>
      </trkpt>
      <trkpt lat="38.498627" lon="-0.699024">
        <ele>710.752477631612</ele>
        <time>2019-04-21T06:34:52.000Z</time>
      </trkpt>
      <trkpt lat="38.498609" lon="-0.699024">
        <ele>710</ele>
        <time>2019-04-21T06:34:53.000Z</time>
      </trkpt>
      <trkpt lat="38.498583" lon="-0.699029">
        <ele>710</ele>
        <time>2019-04-21T06:34:55.000Z</time>
      </trkpt>
      <trkpt lat="38.498549" lon="-0.699041">
        <ele>708.7500032</ele>
        <time>2019-04-21T06:34:57.000Z</time>
      </trkpt>
      <trkpt lat="38.498531" lon="-0.699053">
        <ele>708</ele>
        <time>2019-04-21T06:34:58.000Z</time>
      </trkpt>
      <trkpt lat="38.49852" lon="-0.699073">
        <ele>708</ele>
        <time>2019-04-21T06:34:59.000Z</time>
      </trkpt>
      <trkpt lat="38.498514" lon="-0.6991">
        <ele>707.278855384615</ele>
        <time>2019-04-21T06:35:00.000Z</time>
      </trkpt>
      <trkpt lat="38.498519" lon="-0.69913">
        <ele>705</ele>
        <time>2019-04-21T06:35:01.000Z</time>
      </trkpt>
      <trkpt lat="38.498509" lon="-0.699167">
        <ele>705</ele>
        <time>2019-04-21T06:35:03.000Z</time>
      </trkpt>
      <trkpt lat="38.498486" lon="-0.699187">
        <ele>704.757282397972</ele>
        <time>2019-04-21T06:35:05.000Z</time>
      </trkpt>
      <trkpt lat="38.49846" lon="-0.699204">
        <ele>704</ele>
        <time>2019-04-21T06:35:07.000Z</time>
      </trkpt>
      <trkpt lat="38.498436" lon="-0.699217">
        <ele>703.7500032</ele>
        <time>2019-04-21T06:35:09.000Z</time>
      </trkpt>
      <trkpt lat="38.498404" lon="-0.699214">
        <ele>702.7500032</ele>
        <time>2019-04-21T06:35:11.000Z</time>
      </trkpt>
      <trkpt lat="38.498385" lon="-0.699209">
        <ele>702</ele>
        <time>2019-04-21T06:35:12.000Z</time>
      </trkpt>
      <trkpt lat="38.498349" lon="-0.699212">
        <ele>702</ele>
        <time>2019-04-21T06:35:14.000Z</time>
      </trkpt>
      <trkpt lat="38.498323" lon="-0.699215">
        <ele>701.7500032</ele>
        <time>2019-04-21T06:35:16.000Z</time>
      </trkpt>
      <trkpt lat="38.498294" lon="-0.69921">
        <ele>701</ele>
        <time>2019-04-21T06:35:18.000Z</time>
      </trkpt>
      <trkpt lat="38.498274" lon="-0.699204">
        <ele>701</ele>
        <time>2019-04-21T06:35:19.000Z</time>
      </trkpt>
      <trkpt lat="38.498256" lon="-0.699203">
        <ele>701</ele>
        <time>2019-04-21T06:35:20.000Z</time>
      </trkpt>
      <trkpt lat="38.498218" lon="-0.699202">
        <ele>701</ele>
        <time>2019-04-21T06:35:22.000Z</time>
      </trkpt>
      <trkpt lat="38.498198" lon="-0.699201">
        <ele>701</ele>
        <time>2019-04-21T06:35:23.000Z</time>
      </trkpt>
      <trkpt lat="38.498164" lon="-0.699193">
        <ele>700.045796976833</ele>
        <time>2019-04-21T06:35:25.000Z</time>
      </trkpt>
      <trkpt lat="38.498132" lon="-0.69919">
        <ele>699</ele>
        <time>2019-04-21T06:35:27.000Z</time>
      </trkpt>
      <trkpt lat="38.498101" lon="-0.69918">
        <ele>699</ele>
        <time>2019-04-21T06:35:29.000Z</time>
      </trkpt>
      <trkpt lat="38.498076" lon="-0.699178">
        <ele>699</ele>
        <time>2019-04-21T06:35:31.000Z</time>
      </trkpt>
      <trkpt lat="38.498051" lon="-0.69917">
        <ele>699</ele>
        <time>2019-04-21T06:35:33.000Z</time>
      </trkpt>
      <trkpt lat="38.498033" lon="-0.699155">
        <ele>699</ele>
        <time>2019-04-21T06:35:34.000Z</time>
      </trkpt>
      <trkpt lat="38.498016" lon="-0.699137">
        <ele>698.807693822493</ele>
        <time>2019-04-21T06:35:36.000Z</time>
      </trkpt>
      <trkpt lat="38.497988" lon="-0.699115">
        <ele>697.759618461538</ele>
        <time>2019-04-21T06:35:38.000Z</time>
      </trkpt>
      <trkpt lat="38.497977" lon="-0.699094">
        <ele>697</ele>
        <time>2019-04-21T06:35:39.000Z</time>
      </trkpt>
      <trkpt lat="38.497969" lon="-0.699073">
        <ele>697</ele>
        <time>2019-04-21T06:35:40.000Z</time>
      </trkpt>
      <trkpt lat="38.497966" lon="-0.699036">
        <ele>696</ele>
        <time>2019-04-21T06:35:42.000Z</time>
      </trkpt>
      <trkpt lat="38.497974" lon="-0.698996">
        <ele>696</ele>
        <time>2019-04-21T06:35:44.000Z</time>
      </trkpt>
      <trkpt lat="38.497978" lon="-0.698973">
        <ele>696</ele>
        <time>2019-04-21T06:35:45.000Z</time>
      </trkpt>
      <trkpt lat="38.497986" lon="-0.698948">
        <ele>696</ele>
        <time>2019-04-21T06:35:46.000Z</time>
      </trkpt>
      <trkpt lat="38.497994" lon="-0.698924">
        <ele>696</ele>
        <time>2019-04-21T06:35:47.000Z</time>
      </trkpt>
      <trkpt lat="38.497999" lon="-0.698901">
        <ele>696</ele>
        <time>2019-04-21T06:35:48.000Z</time>
      </trkpt>
      <trkpt lat="38.498007" lon="-0.698858">
        <ele>696</ele>
        <time>2019-04-21T06:35:50.000Z</time>
      </trkpt>
      <trkpt lat="38.498003" lon="-0.698835">
        <ele>696</ele>
        <time>2019-04-21T06:35:51.000Z</time>
      </trkpt>
      <trkpt lat="38.49798" lon="-0.698804">
        <ele>696</ele>
        <time>2019-04-21T06:35:53.000Z</time>
      </trkpt>
      <trkpt lat="38.497961" lon="-0.698775">
        <ele>695.046506782032</ele>
        <time>2019-04-21T06:35:55.000Z</time>
      </trkpt>
      <trkpt lat="38.497949" lon="-0.698746">
        <ele>694.76415253828</ele>
        <time>2019-04-21T06:35:57.000Z</time>
      </trkpt>
      <trkpt lat="38.497946" lon="-0.698704">
        <ele>692.778763267294</ele>
        <time>2019-04-21T06:35:59.000Z</time>
      </trkpt>
      <trkpt lat="38.497942" lon="-0.698681">
        <ele>691.862069472848</ele>
        <time>2019-04-21T06:36:00.000Z</time>
      </trkpt>
      <trkpt lat="38.497934" lon="-0.69866">
        <ele>691</ele>
        <time>2019-04-21T06:36:01.000Z</time>
      </trkpt>
      <trkpt lat="38.497914" lon="-0.698622">
        <ele>691</ele>
        <time>2019-04-21T06:36:03.000Z</time>
      </trkpt>
      <trkpt lat="38.49791" lon="-0.698599">
        <ele>690.776788571429</ele>
        <time>2019-04-21T06:36:04.000Z</time>
      </trkpt>
      <trkpt lat="38.497911" lon="-0.698566">
        <ele>690</ele>
        <time>2019-04-21T06:36:06.000Z</time>
      </trkpt>
      <trkpt lat="38.497904" lon="-0.698538">
        <ele>691</ele>
        <time>2019-04-21T06:36:09.000Z</time>
      </trkpt>
      <trkpt lat="38.497897" lon="-0.698515">
        <ele>690</ele>
        <time>2019-04-21T06:36:11.000Z</time>
      </trkpt>
      <trkpt lat="38.497888" lon="-0.698485">
        <ele>690</ele>
        <time>2019-04-21T06:36:13.000Z</time>
      </trkpt>
      <trkpt lat="38.497874" lon="-0.698499">
        <ele>689</ele>
        <time>2019-04-21T06:36:18.000Z</time>
      </trkpt>
      <trkpt lat="38.497883" lon="-0.698473">
        <ele>688</ele>
        <time>2019-04-21T06:36:23.000Z</time>
      </trkpt>
      <trkpt lat="38.497887" lon="-0.698436">
        <ele>688</ele>
        <time>2019-04-21T06:36:25.000Z</time>
      </trkpt>
      <trkpt lat="38.497867" lon="-0.698409">
        <ele>687.7500032</ele>
        <time>2019-04-21T06:36:27.000Z</time>
      </trkpt>
      <trkpt lat="38.497843" lon="-0.698377">
        <ele>685.780703330264</ele>
        <time>2019-04-21T06:36:29.000Z</time>
      </trkpt>
      <trkpt lat="38.497831" lon="-0.698358">
        <ele>685</ele>
        <time>2019-04-21T06:36:30.000Z</time>
      </trkpt>
      <trkpt lat="38.497807" lon="-0.698328">
        <ele>685</ele>
        <time>2019-04-21T06:36:32.000Z</time>
      </trkpt>
      <trkpt lat="38.497793" lon="-0.698313">
        <ele>684.897435616918</ele>
        <time>2019-04-21T06:36:33.000Z</time>
      </trkpt>
      <trkpt lat="38.497765" lon="-0.698299">
        <ele>684</ele>
        <time>2019-04-21T06:36:35.000Z</time>
      </trkpt>
      <trkpt lat="38.497738" lon="-0.698299">
        <ele>683.048775665241</ele>
        <time>2019-04-21T06:36:37.000Z</time>
      </trkpt>
      <trkpt lat="38.497706" lon="-0.698292">
        <ele>681</ele>
        <time>2019-04-21T06:36:39.000Z</time>
      </trkpt>
      <trkpt lat="38.497685" lon="-0.698292">
        <ele>681</ele>
        <time>2019-04-21T06:36:40.000Z</time>
      </trkpt>
      <trkpt lat="38.497664" lon="-0.698292">
        <ele>681</ele>
        <time>2019-04-21T06:36:41.000Z</time>
      </trkpt>
      <trkpt lat="38.497638" lon="-0.698292">
        <ele>681</ele>
        <time>2019-04-21T06:36:43.000Z</time>
      </trkpt>
      <trkpt lat="38.497622" lon="-0.69828">
        <ele>680</ele>
        <time>2019-04-21T06:36:45.000Z</time>
      </trkpt>
      <trkpt lat="38.497624" lon="-0.698241">
        <ele>679</ele>
        <time>2019-04-21T06:36:48.000Z</time>
      </trkpt>
      <trkpt lat="38.497627" lon="-0.698195">
        <ele>678.7500032</ele>
        <time>2019-04-21T06:36:50.000Z</time>
      </trkpt>
      <trkpt lat="38.497631" lon="-0.698172">
        <ele>677.761907083907</ele>
        <time>2019-04-21T06:36:51.000Z</time>
      </trkpt>
      <trkpt lat="38.497644" lon="-0.698128">
        <ele>677</ele>
        <time>2019-04-21T06:36:53.000Z</time>
      </trkpt>
      <trkpt lat="38.497647" lon="-0.698103">
        <ele>677</ele>
        <time>2019-04-21T06:36:54.000Z</time>
      </trkpt>
      <trkpt lat="38.497651" lon="-0.698078">
        <ele>677</ele>
        <time>2019-04-21T06:36:55.000Z</time>
      </trkpt>
      <trkpt lat="38.497667" lon="-0.698037">
        <ele>676.872090254212</ele>
        <time>2019-04-21T06:36:57.000Z</time>
      </trkpt>
      <trkpt lat="38.497676" lon="-0.698015">
        <ele>676</ele>
        <time>2019-04-21T06:36:58.000Z</time>
      </trkpt>
      <trkpt lat="38.49773" lon="-0.697906">
        <ele>677</ele>
        <time>2019-04-21T06:37:04.000Z</time>
      </trkpt>
      <trkpt lat="38.497734" lon="-0.697864">
        <ele>677</ele>
        <time>2019-04-21T06:37:06.000Z</time>
      </trkpt>
      <trkpt lat="38.497733" lon="-0.697841">
        <ele>677</ele>
        <time>2019-04-21T06:37:07.000Z</time>
      </trkpt>
      <trkpt lat="38.497734" lon="-0.697817">
        <ele>677</ele>
        <time>2019-04-21T06:37:08.000Z</time>
      </trkpt>
      <trkpt lat="38.497729" lon="-0.697791">
        <ele>677</ele>
        <time>2019-04-21T06:37:09.000Z</time>
      </trkpt>
      <trkpt lat="38.497724" lon="-0.697766">
        <ele>677</ele>
        <time>2019-04-21T06:37:10.000Z</time>
      </trkpt>
      <trkpt lat="38.497717" lon="-0.697744">
        <ele>676.821704272588</ele>
        <time>2019-04-21T06:37:11.000Z</time>
      </trkpt>
      <trkpt lat="38.497699" lon="-0.697721">
        <ele>676</ele>
        <time>2019-04-21T06:37:13.000Z</time>
      </trkpt>
      <trkpt lat="38.497643" lon="-0.697695">
        <ele>676</ele>
        <time>2019-04-21T06:37:16.000Z</time>
      </trkpt>
      <trkpt lat="38.497605" lon="-0.697682">
        <ele>676</ele>
        <time>2019-04-21T06:37:18.000Z</time>
      </trkpt>
      <trkpt lat="38.497584" lon="-0.697678">
        <ele>676</ele>
        <time>2019-04-21T06:37:19.000Z</time>
      </trkpt>
      <trkpt lat="38.497564" lon="-0.69767">
        <ele>676</ele>
        <time>2019-04-21T06:37:20.000Z</time>
      </trkpt>
      <trkpt lat="38.497526" lon="-0.69764">
        <ele>676</ele>
        <time>2019-04-21T06:37:22.000Z</time>
      </trkpt>
      <trkpt lat="38.497507" lon="-0.697629">
        <ele>676.240381538462</ele>
        <time>2019-04-21T06:37:23.000Z</time>
      </trkpt>
      <trkpt lat="38.497482" lon="-0.697615">
        <ele>677</ele>
        <time>2019-04-21T06:37:25.000Z</time>
      </trkpt>
      <trkpt lat="38.497454" lon="-0.697595">
        <ele>677</ele>
        <time>2019-04-21T06:37:27.000Z</time>
      </trkpt>
      <trkpt lat="38.497408" lon="-0.697617">
        <ele>677</ele>
        <time>2019-04-21T06:37:30.000Z</time>
      </trkpt>
      <trkpt lat="38.497381" lon="-0.697636">
        <ele>677.234695610151</ele>
        <time>2019-04-21T06:37:32.000Z</time>
      </trkpt>
      <trkpt lat="38.497357" lon="-0.697636">
        <ele>679</ele>
        <time>2019-04-21T06:37:34.000Z</time>
      </trkpt>
      <trkpt lat="38.497327" lon="-0.697627">
        <ele>680.193542171328</ele>
        <time>2019-04-21T06:37:36.000Z</time>
      </trkpt>
      <trkpt lat="38.497305" lon="-0.697612">
        <ele>681</ele>
        <time>2019-04-21T06:37:38.000Z</time>
      </trkpt>
      <trkpt lat="38.497292" lon="-0.697593">
        <ele>681</ele>
        <time>2019-04-21T06:37:40.000Z</time>
      </trkpt>
      <trkpt lat="38.497273" lon="-0.69758">
        <ele>681.231478518519</ele>
        <time>2019-04-21T06:37:42.000Z</time>
      </trkpt>
      <trkpt lat="38.497254" lon="-0.697576">
        <ele>682</ele>
        <time>2019-04-21T06:37:44.000Z</time>
      </trkpt>
      <trkpt lat="38.497225" lon="-0.697578">
        <ele>683.233641170419</ele>
        <time>2019-04-21T06:37:47.000Z</time>
      </trkpt>
      <trkpt lat="38.4972" lon="-0.697579">
        <ele>685</ele>
        <time>2019-04-21T06:37:49.000Z</time>
      </trkpt>
      <trkpt lat="38.49717" lon="-0.697572">
        <ele>684.76415253828</ele>
        <time>2019-04-21T06:37:51.000Z</time>
      </trkpt>
      <trkpt lat="38.497117" lon="-0.697575">
        <ele>686</ele>
        <time>2019-04-21T06:37:55.000Z</time>
      </trkpt>
      <trkpt lat="38.497095" lon="-0.697593">
        <ele>687</ele>
        <time>2019-04-21T06:37:57.000Z</time>
      </trkpt>
      <trkpt lat="38.49708" lon="-0.697618">
        <ele>687</ele>
        <time>2019-04-21T06:37:59.000Z</time>
      </trkpt>
      <trkpt lat="38.497064" lon="-0.697648">
        <ele>686</ele>
        <time>2019-04-21T06:38:01.000Z</time>
      </trkpt>
      <trkpt lat="38.49705" lon="-0.697663">
        <ele>687.223211428571</ele>
        <time>2019-04-21T06:38:03.000Z</time>
      </trkpt>
      <trkpt lat="38.497036" lon="-0.697692">
        <ele>689.240381538462</ele>
        <time>2019-04-21T06:38:06.000Z</time>
      </trkpt>
      <trkpt lat="38.497014" lon="-0.697679">
        <ele>690</ele>
        <time>2019-04-21T06:38:17.000Z</time>
      </trkpt>
      <trkpt lat="38.496992" lon="-0.697668">
        <ele>690</ele>
        <time>2019-04-21T06:38:19.000Z</time>
      </trkpt>
      <trkpt lat="38.496969" lon="-0.697658">
        <ele>691</ele>
        <time>2019-04-21T06:38:21.000Z</time>
      </trkpt>
      <trkpt lat="38.496946" lon="-0.697659">
        <ele>691</ele>
        <time>2019-04-21T06:38:23.000Z</time>
      </trkpt>
      <trkpt lat="38.496926" lon="-0.697662">
        <ele>691</ele>
        <time>2019-04-21T06:38:25.000Z</time>
      </trkpt>
      <trkpt lat="38.496908" lon="-0.697655">
        <ele>691</ele>
        <time>2019-04-21T06:38:27.000Z</time>
      </trkpt>
      <trkpt lat="38.496887" lon="-0.697639">
        <ele>691.949497692099</ele>
        <time>2019-04-21T06:38:29.000Z</time>
      </trkpt>
      <trkpt lat="38.496869" lon="-0.697644">
        <ele>694.4999936</ele>
        <time>2019-04-21T06:38:31.000Z</time>
      </trkpt>
      <trkpt lat="38.49685" lon="-0.697659">
        <ele>697</ele>
        <time>2019-04-21T06:38:34.000Z</time>
      </trkpt>
      <trkpt lat="38.49686" lon="-0.69768">
        <ele>696.770644464277</ele>
        <time>2019-04-21T06:38:38.000Z</time>
      </trkpt>
      <trkpt lat="38.496837" lon="-0.697712">
        <ele>697</ele>
        <time>2019-04-21T06:38:42.000Z</time>
      </trkpt>
      <trkpt lat="38.49682" lon="-0.697722">
        <ele>697</ele>
        <time>2019-04-21T06:38:44.000Z</time>
      </trkpt>
      <trkpt lat="38.496799" lon="-0.697728">
        <ele>697</ele>
        <time>2019-04-21T06:38:46.000Z</time>
      </trkpt>
      <trkpt lat="38.496779" lon="-0.697729">
        <ele>697.23584746172</ele>
        <time>2019-04-21T06:38:48.000Z</time>
      </trkpt>
      <trkpt lat="38.496755" lon="-0.697709">
        <ele>699</ele>
        <time>2019-04-21T06:38:52.000Z</time>
      </trkpt>
      <trkpt lat="38.496691" lon="-0.697722">
        <ele>700.202129687628</ele>
        <time>2019-04-21T06:38:59.000Z</time>
      </trkpt>
      <trkpt lat="38.496678" lon="-0.69774">
        <ele>701.136363636364</ele>
        <time>2019-04-21T06:39:01.000Z</time>
      </trkpt>
      <trkpt lat="38.496659" lon="-0.697748">
        <ele>701.761907083907</ele>
        <time>2019-04-21T06:39:03.000Z</time>
      </trkpt>
      <trkpt lat="38.49664" lon="-0.697741">
        <ele>701</ele>
        <time>2019-04-21T06:39:05.000Z</time>
      </trkpt>
      <trkpt lat="38.496623" lon="-0.697732">
        <ele>701</ele>
        <time>2019-04-21T06:39:10.000Z</time>
      </trkpt>
      <trkpt lat="38.496606" lon="-0.697719">
        <ele>701</ele>
        <time>2019-04-21T06:39:12.000Z</time>
      </trkpt>
      <trkpt lat="38.496589" lon="-0.697708">
        <ele>701.314617729966</ele>
        <time>2019-04-21T06:39:14.000Z</time>
      </trkpt>
      <trkpt lat="38.496564" lon="-0.697684">
        <ele>703</ele>
        <time>2019-04-21T06:39:17.000Z</time>
      </trkpt>
      <trkpt lat="38.496538" lon="-0.697658">
        <ele>703</ele>
        <time>2019-04-21T06:39:19.000Z</time>
      </trkpt>
      <trkpt lat="38.496521" lon="-0.697643">
        <ele>703</ele>
        <time>2019-04-21T06:39:20.000Z</time>
      </trkpt>
      <trkpt lat="38.496505" lon="-0.697629">
        <ele>703</ele>
        <time>2019-04-21T06:39:21.000Z</time>
      </trkpt>
      <trkpt lat="38.496489" lon="-0.697613">
        <ele>702.765304389849</ele>
        <time>2019-04-21T06:39:22.000Z</time>
      </trkpt>
      <trkpt lat="38.496461" lon="-0.697595">
        <ele>702</ele>
        <time>2019-04-21T06:39:24.000Z</time>
      </trkpt>
      <trkpt lat="38.496444" lon="-0.697587">
        <ele>702</ele>
        <time>2019-04-21T06:39:25.000Z</time>
      </trkpt>
      <trkpt lat="38.496417" lon="-0.697565">
        <ele>702</ele>
        <time>2019-04-21T06:39:27.000Z</time>
      </trkpt>
      <trkpt lat="38.496387" lon="-0.697547">
        <ele>703</ele>
        <time>2019-04-21T06:39:29.000Z</time>
      </trkpt>
      <trkpt lat="38.496356" lon="-0.697537">
        <ele>703</ele>
        <time>2019-04-21T06:39:31.000Z</time>
      </trkpt>
      <trkpt lat="38.496324" lon="-0.697529">
        <ele>704.219296669736</ele>
        <time>2019-04-21T06:39:33.000Z</time>
      </trkpt>
      <trkpt lat="38.496305" lon="-0.697522">
        <ele>705</ele>
        <time>2019-04-21T06:39:34.000Z</time>
      </trkpt>
      <trkpt lat="38.496287" lon="-0.697517">
        <ele>705</ele>
        <time>2019-04-21T06:39:35.000Z</time>
      </trkpt>
      <trkpt lat="38.496262" lon="-0.697506">
        <ele>705.202129687628</ele>
        <time>2019-04-21T06:39:37.000Z</time>
      </trkpt>
      <trkpt lat="38.49624" lon="-0.697491">
        <ele>706</ele>
        <time>2019-04-21T06:39:39.000Z</time>
      </trkpt>
      <trkpt lat="38.49622" lon="-0.697481">
        <ele>706.240381538462</ele>
        <time>2019-04-21T06:39:41.000Z</time>
      </trkpt>
      <trkpt lat="38.496197" lon="-0.697464">
        <ele>707.174824110707</ele>
        <time>2019-04-21T06:39:43.000Z</time>
      </trkpt>
      <trkpt lat="38.49618" lon="-0.69744">
        <ele>708</ele>
        <time>2019-04-21T06:39:45.000Z</time>
      </trkpt>
      <trkpt lat="38.496166" lon="-0.697415">
        <ele>708</ele>
        <time>2019-04-21T06:39:47.000Z</time>
      </trkpt>
      <trkpt lat="38.496154" lon="-0.697389">
        <ele>708.16666903702</ele>
        <time>2019-04-21T06:39:49.000Z</time>
      </trkpt>
      <trkpt lat="38.496149" lon="-0.697357">
        <ele>709</ele>
        <time>2019-04-21T06:39:51.000Z</time>
      </trkpt>
      <trkpt lat="38.496145" lon="-0.697321">
        <ele>710</ele>
        <time>2019-04-21T06:39:53.000Z</time>
      </trkpt>
      <trkpt lat="38.496144" lon="-0.697284">
        <ele>710</ele>
        <time>2019-04-21T06:39:55.000Z</time>
      </trkpt>
      <trkpt lat="38.496147" lon="-0.697244">
        <ele>710</ele>
        <time>2019-04-21T06:39:57.000Z</time>
      </trkpt>
      <trkpt lat="38.496159" lon="-0.697209">
        <ele>710</ele>
        <time>2019-04-21T06:39:59.000Z</time>
      </trkpt>
      <trkpt lat="38.496168" lon="-0.697173">
        <ele>710.229355535723</ele>
        <time>2019-04-21T06:40:01.000Z</time>
      </trkpt>
      <trkpt lat="38.496167" lon="-0.697136">
        <ele>711</ele>
        <time>2019-04-21T06:40:03.000Z</time>
      </trkpt>
      <trkpt lat="38.496159" lon="-0.697103">
        <ele>712.247522368388</ele>
        <time>2019-04-21T06:40:05.000Z</time>
      </trkpt>
      <trkpt lat="38.496144" lon="-0.697073">
        <ele>714</ele>
        <time>2019-04-21T06:40:07.000Z</time>
      </trkpt>
      <trkpt lat="38.49613" lon="-0.697042">
        <ele>714</ele>
        <time>2019-04-21T06:40:09.000Z</time>
      </trkpt>
      <trkpt lat="38.496115" lon="-0.697005">
        <ele>713.7500032</ele>
        <time>2019-04-21T06:40:11.000Z</time>
      </trkpt>
      <trkpt lat="38.496103" lon="-0.696965">
        <ele>713</ele>
        <time>2019-04-21T06:40:13.000Z</time>
      </trkpt>
      <trkpt lat="38.496101" lon="-0.696924">
        <ele>714</ele>
        <time>2019-04-21T06:40:15.000Z</time>
      </trkpt>
      <trkpt lat="38.496103" lon="-0.696891">
        <ele>714.23584746172</ele>
        <time>2019-04-21T06:40:17.000Z</time>
      </trkpt>
      <trkpt lat="38.496106" lon="-0.696856">
        <ele>715.7500032</ele>
        <time>2019-04-21T06:40:19.000Z</time>
      </trkpt>
      <trkpt lat="38.49612" lon="-0.696821">
        <ele>713.809163214258</ele>
        <time>2019-04-21T06:40:21.000Z</time>
      </trkpt>
      <trkpt lat="38.496127" lon="-0.696786">
        <ele>713.2499968</ele>
        <time>2019-04-21T06:40:23.000Z</time>
      </trkpt>
      <trkpt lat="38.496126" lon="-0.696746">
        <ele>715.484846917667</ele>
        <time>2019-04-21T06:40:25.000Z</time>
      </trkpt>
      <trkpt lat="38.496134" lon="-0.696699">
        <ele>716.815220869565</ele>
        <time>2019-04-21T06:40:27.000Z</time>
      </trkpt>
      <trkpt lat="38.496141" lon="-0.696677">
        <ele>716</ele>
        <time>2019-04-21T06:40:28.000Z</time>
      </trkpt>
      <trkpt lat="38.496152" lon="-0.696637">
        <ele>716</ele>
        <time>2019-04-21T06:40:30.000Z</time>
      </trkpt>
      <trkpt lat="38.496158" lon="-0.696597">
        <ele>715</ele>
        <time>2019-04-21T06:40:32.000Z</time>
      </trkpt>
      <trkpt lat="38.49615" lon="-0.69656">
        <ele>715</ele>
        <time>2019-04-21T06:40:34.000Z</time>
      </trkpt>
      <trkpt lat="38.496125" lon="-0.696526">
        <ele>714.7500032</ele>
        <time>2019-04-21T06:40:36.000Z</time>
      </trkpt>
      <trkpt lat="38.496108" lon="-0.696518">
        <ele>714</ele>
        <time>2019-04-21T06:40:37.000Z</time>
      </trkpt>
      <trkpt lat="38.496078" lon="-0.696501">
        <ele>716</ele>
        <time>2019-04-21T06:40:39.000Z</time>
      </trkpt>
      <trkpt lat="38.49606" lon="-0.69648">
        <ele>716.957985995332</ele>
        <time>2019-04-21T06:40:41.000Z</time>
      </trkpt>
      <trkpt lat="38.496037" lon="-0.696445">
        <ele>717</ele>
        <time>2019-04-21T06:40:43.000Z</time>
      </trkpt>
      <trkpt lat="38.496013" lon="-0.696417">
        <ele>717.127909745788</ele>
        <time>2019-04-21T06:40:45.000Z</time>
      </trkpt>
      <trkpt lat="38.495998" lon="-0.696392">
        <ele>718</ele>
        <time>2019-04-21T06:40:47.000Z</time>
      </trkpt>
      <trkpt lat="38.49598" lon="-0.696362">
        <ele>717.780703330264</ele>
        <time>2019-04-21T06:40:49.000Z</time>
      </trkpt>
      <trkpt lat="38.495956" lon="-0.696335">
        <ele>717</ele>
        <time>2019-04-21T06:40:51.000Z</time>
      </trkpt>
      <trkpt lat="38.495935" lon="-0.696306">
        <ele>718.202129687628</ele>
        <time>2019-04-21T06:40:53.000Z</time>
      </trkpt>
      <trkpt lat="38.495915" lon="-0.696276">
        <ele>719</ele>
        <time>2019-04-21T06:40:55.000Z</time>
      </trkpt>
      <trkpt lat="38.495897" lon="-0.696248">
        <ele>719.240381538462</ele>
        <time>2019-04-21T06:40:57.000Z</time>
      </trkpt>
      <trkpt lat="38.495871" lon="-0.696221">
        <ele>719.825053744178</ele>
        <time>2019-04-21T06:40:59.000Z</time>
      </trkpt>
      <trkpt lat="38.495861" lon="-0.696187">
        <ele>719.217297881596</ele>
        <time>2019-04-21T06:41:01.000Z</time>
      </trkpt>
      <trkpt lat="38.495851" lon="-0.696155">
        <ele>720</ele>
        <time>2019-04-21T06:41:03.000Z</time>
      </trkpt>
      <trkpt lat="38.495838" lon="-0.696127">
        <ele>720</ele>
        <time>2019-04-21T06:41:05.000Z</time>
      </trkpt>
      <trkpt lat="38.495822" lon="-0.696102">
        <ele>721</ele>
        <time>2019-04-21T06:41:07.000Z</time>
      </trkpt>
      <trkpt lat="38.495798" lon="-0.696081">
        <ele>722</ele>
        <time>2019-04-21T06:41:09.000Z</time>
      </trkpt>
      <trkpt lat="38.49577" lon="-0.696064">
        <ele>722</ele>
        <time>2019-04-21T06:41:11.000Z</time>
      </trkpt>
      <trkpt lat="38.495742" lon="-0.69606">
        <ele>723</ele>
        <time>2019-04-21T06:41:13.000Z</time>
      </trkpt>
      <trkpt lat="38.495723" lon="-0.696045">
        <ele>723</ele>
        <time>2019-04-21T06:41:15.000Z</time>
      </trkpt>
      <trkpt lat="38.495706" lon="-0.696026">
        <ele>723</ele>
        <time>2019-04-21T06:41:17.000Z</time>
      </trkpt>
      <trkpt lat="38.49568" lon="-0.696">
        <ele>723.23584746172</ele>
        <time>2019-04-21T06:41:20.000Z</time>
      </trkpt>
      <trkpt lat="38.495665" lon="-0.695979">
        <ele>724</ele>
        <time>2019-04-21T06:41:22.000Z</time>
      </trkpt>
      <trkpt lat="38.495646" lon="-0.695951">
        <ele>725</ele>
        <time>2019-04-21T06:41:24.000Z</time>
      </trkpt>
      <trkpt lat="38.495623" lon="-0.69593">
        <ele>725</ele>
        <time>2019-04-21T06:41:26.000Z</time>
      </trkpt>
      <trkpt lat="38.495609" lon="-0.695915">
        <ele>725</ele>
        <time>2019-04-21T06:41:27.000Z</time>
      </trkpt>
      <trkpt lat="38.495586" lon="-0.695899">
        <ele>726</ele>
        <time>2019-04-21T06:41:29.000Z</time>
      </trkpt>
      <trkpt lat="38.495566" lon="-0.695882">
        <ele>726</ele>
        <time>2019-04-21T06:41:31.000Z</time>
      </trkpt>
      <trkpt lat="38.495549" lon="-0.695868">
        <ele>726</ele>
        <time>2019-04-21T06:41:33.000Z</time>
      </trkpt>
      <trkpt lat="38.495524" lon="-0.695864">
        <ele>726</ele>
        <time>2019-04-21T06:41:35.000Z</time>
      </trkpt>
      <trkpt lat="38.495505" lon="-0.695863">
        <ele>726</ele>
        <time>2019-04-21T06:41:37.000Z</time>
      </trkpt>
      <trkpt lat="38.495483" lon="-0.695867">
        <ele>726</ele>
        <time>2019-04-21T06:41:39.000Z</time>
      </trkpt>
      <trkpt lat="38.495464" lon="-0.695889">
        <ele>726.226798273974</ele>
        <time>2019-04-21T06:41:41.000Z</time>
      </trkpt>
      <trkpt lat="38.495441" lon="-0.695907">
        <ele>727</ele>
        <time>2019-04-21T06:41:43.000Z</time>
      </trkpt>
      <trkpt lat="38.49542" lon="-0.695915">
        <ele>728</ele>
        <time>2019-04-21T06:41:45.000Z</time>
      </trkpt>
      <trkpt lat="38.495401" lon="-0.695911">
        <ele>728</ele>
        <time>2019-04-21T06:41:47.000Z</time>
      </trkpt>
      <trkpt lat="38.495373" lon="-0.695903">
        <ele>728</ele>
        <time>2019-04-21T06:41:50.000Z</time>
      </trkpt>
      <trkpt lat="38.495352" lon="-0.695887">
        <ele>728</ele>
        <time>2019-04-21T06:41:52.000Z</time>
      </trkpt>
      <trkpt lat="38.495333" lon="-0.69588">
        <ele>729</ele>
        <time>2019-04-21T06:41:54.000Z</time>
      </trkpt>
      <trkpt lat="38.49531" lon="-0.695874">
        <ele>729</ele>
        <time>2019-04-21T06:41:56.000Z</time>
      </trkpt>
      <trkpt lat="38.495289" lon="-0.695864">
        <ele>729.2499968</ele>
        <time>2019-04-21T06:41:58.000Z</time>
      </trkpt>
      <trkpt lat="38.495279" lon="-0.695837">
        <ele>732</ele>
        <time>2019-04-21T06:42:01.000Z</time>
      </trkpt>
      <trkpt lat="38.495257" lon="-0.695829">
        <ele>732.2499968</ele>
        <time>2019-04-21T06:42:03.000Z</time>
      </trkpt>
      <trkpt lat="38.495237" lon="-0.695829">
        <ele>734</ele>
        <time>2019-04-21T06:42:06.000Z</time>
      </trkpt>
      <trkpt lat="38.495219" lon="-0.695821">
        <ele>734</ele>
        <time>2019-04-21T06:42:08.000Z</time>
      </trkpt>
      <trkpt lat="38.495198" lon="-0.6958">
        <ele>734</ele>
        <time>2019-04-21T06:42:10.000Z</time>
      </trkpt>
      <trkpt lat="38.49518" lon="-0.695788">
        <ele>734.2499968</ele>
        <time>2019-04-21T06:42:13.000Z</time>
      </trkpt>
      <trkpt lat="38.495163" lon="-0.695773">
        <ele>735</ele>
        <time>2019-04-21T06:42:16.000Z</time>
      </trkpt>
      <trkpt lat="38.49514" lon="-0.695757">
        <ele>736.247522368388</ele>
        <time>2019-04-21T06:42:18.000Z</time>
      </trkpt>
      <trkpt lat="38.495121" lon="-0.695749">
        <ele>738</ele>
        <time>2019-04-21T06:42:20.000Z</time>
      </trkpt>
      <trkpt lat="38.495099" lon="-0.695735">
        <ele>738.2499968</ele>
        <time>2019-04-21T06:42:22.000Z</time>
      </trkpt>
      <trkpt lat="38.495089" lon="-0.695709">
        <ele>740</ele>
        <time>2019-04-21T06:42:26.000Z</time>
      </trkpt>
      <trkpt lat="38.495071" lon="-0.695682">
        <ele>740.242423458833</ele>
        <time>2019-04-21T06:42:29.000Z</time>
      </trkpt>
      <trkpt lat="38.495095" lon="-0.695559">
        <ele>742</ele>
        <time>2019-04-21T06:42:37.000Z</time>
      </trkpt>
      <trkpt lat="38.495074" lon="-0.695456">
        <ele>742</ele>
        <time>2019-04-21T06:42:43.000Z</time>
      </trkpt>
      <trkpt lat="38.495085" lon="-0.695409">
        <ele>742</ele>
        <time>2019-04-21T06:42:46.000Z</time>
      </trkpt>
      <trkpt lat="38.495096" lon="-0.695376">
        <ele>742.240381538462</ele>
        <time>2019-04-21T06:42:48.000Z</time>
      </trkpt>
      <trkpt lat="38.495106" lon="-0.695356">
        <ele>743</ele>
        <time>2019-04-21T06:42:49.000Z</time>
      </trkpt>
      <trkpt lat="38.495115" lon="-0.695334">
        <ele>743</ele>
        <time>2019-04-21T06:42:50.000Z</time>
      </trkpt>
      <trkpt lat="38.495122" lon="-0.695294">
        <ele>743</ele>
        <time>2019-04-21T06:42:52.000Z</time>
      </trkpt>
      <trkpt lat="38.495126" lon="-0.695271">
        <ele>743</ele>
        <time>2019-04-21T06:42:53.000Z</time>
      </trkpt>
      <trkpt lat="38.495118" lon="-0.695234">
        <ele>743</ele>
        <time>2019-04-21T06:42:55.000Z</time>
      </trkpt>
      <trkpt lat="38.495106" lon="-0.695199">
        <ele>743</ele>
        <time>2019-04-21T06:42:57.000Z</time>
      </trkpt>
      <trkpt lat="38.495107" lon="-0.695168">
        <ele>743</ele>
        <time>2019-04-21T06:42:59.000Z</time>
      </trkpt>
      <trkpt lat="38.495108" lon="-0.695135">
        <ele>743</ele>
        <time>2019-04-21T06:43:01.000Z</time>
      </trkpt>
      <trkpt lat="38.495108" lon="-0.695099">
        <ele>743</ele>
        <time>2019-04-21T06:43:03.000Z</time>
      </trkpt>
      <trkpt lat="38.495102" lon="-0.695067">
        <ele>744</ele>
        <time>2019-04-21T06:43:05.000Z</time>
      </trkpt>
      <trkpt lat="38.495088" lon="-0.69504">
        <ele>744</ele>
        <time>2019-04-21T06:43:07.000Z</time>
      </trkpt>
      <trkpt lat="38.495078" lon="-0.695011">
        <ele>744</ele>
        <time>2019-04-21T06:43:09.000Z</time>
      </trkpt>
      <trkpt lat="38.495081" lon="-0.694985">
        <ele>744.231478518519</ele>
        <time>2019-04-21T06:43:11.000Z</time>
      </trkpt>
      <trkpt lat="38.495081" lon="-0.694945">
        <ele>747</ele>
        <time>2019-04-21T06:43:15.000Z</time>
      </trkpt>
      <trkpt lat="38.495058" lon="-0.694924">
        <ele>747</ele>
        <time>2019-04-21T06:43:21.000Z</time>
      </trkpt>
      <trkpt lat="38.495076" lon="-0.694907">
        <ele>748</ele>
        <time>2019-04-21T06:43:36.000Z</time>
      </trkpt>
      <trkpt lat="38.495078" lon="-0.69488">
        <ele>749</ele>
        <time>2019-04-21T06:43:39.000Z</time>
      </trkpt>
      <trkpt lat="38.495081" lon="-0.694857">
        <ele>749</ele>
        <time>2019-04-21T06:43:42.000Z</time>
      </trkpt>
      <trkpt lat="38.495091" lon="-0.694834">
        <ele>750</ele>
        <time>2019-04-21T06:43:45.000Z</time>
      </trkpt>
      <trkpt lat="38.495097" lon="-0.694808">
        <ele>750</ele>
        <time>2019-04-21T06:43:48.000Z</time>
      </trkpt>
      <trkpt lat="38.49511" lon="-0.694791">
        <ele>751</ele>
        <time>2019-04-21T06:43:51.000Z</time>
      </trkpt>
      <trkpt lat="38.495128" lon="-0.694771">
        <ele>752</ele>
        <time>2019-04-21T06:43:55.000Z</time>
      </trkpt>
      <trkpt lat="38.495141" lon="-0.69475">
        <ele>753</ele>
        <time>2019-04-21T06:43:57.000Z</time>
      </trkpt>
      <trkpt lat="38.495159" lon="-0.694731">
        <ele>753</ele>
        <time>2019-04-21T06:44:00.000Z</time>
      </trkpt>
      <trkpt lat="38.495175" lon="-0.69471">
        <ele>754.242717602028</ele>
        <time>2019-04-21T06:44:03.000Z</time>
      </trkpt>
      <trkpt lat="38.495186" lon="-0.694685">
        <ele>755</ele>
        <time>2019-04-21T06:44:07.000Z</time>
      </trkpt>
      <trkpt lat="38.495167" lon="-0.694668">
        <ele>755</ele>
        <time>2019-04-21T06:44:10.000Z</time>
      </trkpt>
      <trkpt lat="38.495146" lon="-0.694655">
        <ele>756.245096439821</ele>
        <time>2019-04-21T06:44:14.000Z</time>
      </trkpt>
      <trkpt lat="38.495127" lon="-0.694641">
        <ele>758.16666903702</ele>
        <time>2019-04-21T06:44:17.000Z</time>
      </trkpt>
      <trkpt lat="38.495109" lon="-0.694634">
        <ele>760</ele>
        <time>2019-04-21T06:44:20.000Z</time>
      </trkpt>
      <trkpt lat="38.495107" lon="-0.694608">
        <ele>760.242423458833</ele>
        <time>2019-04-21T06:44:25.000Z</time>
      </trkpt>
      <trkpt lat="38.495119" lon="-0.694587">
        <ele>761</ele>
        <time>2019-04-21T06:44:29.000Z</time>
      </trkpt>
      <trkpt lat="38.495127" lon="-0.694564">
        <ele>761</ele>
        <time>2019-04-21T06:44:33.000Z</time>
      </trkpt>
      <trkpt lat="38.495137" lon="-0.694534">
        <ele>764</ele>
        <time>2019-04-21T06:44:37.000Z</time>
      </trkpt>
      <trkpt lat="38.495135" lon="-0.694511">
        <ele>764</ele>
        <time>2019-04-21T06:44:40.000Z</time>
      </trkpt>
      <trkpt lat="38.49514" lon="-0.694486">
        <ele>766</ele>
        <time>2019-04-21T06:44:44.000Z</time>
      </trkpt>
      <trkpt lat="38.495128" lon="-0.694464">
        <ele>768</ele>
        <time>2019-04-21T06:44:49.000Z</time>
      </trkpt>
      <trkpt lat="38.49511" lon="-0.694451">
        <ele>768.2499968</ele>
        <time>2019-04-21T06:44:53.000Z</time>
      </trkpt>
      <trkpt lat="38.495102" lon="-0.694427">
        <ele>770.147723636364</ele>
        <time>2019-04-21T06:44:57.000Z</time>
      </trkpt>
      <trkpt lat="38.495101" lon="-0.694401">
        <ele>771</ele>
        <time>2019-04-21T06:45:00.000Z</time>
      </trkpt>
      <trkpt lat="38.495095" lon="-0.694377">
        <ele>771</ele>
        <time>2019-04-21T06:45:03.000Z</time>
      </trkpt>
      <trkpt lat="38.495094" lon="-0.694349">
        <ele>772</ele>
        <time>2019-04-21T06:45:07.000Z</time>
      </trkpt>
      <trkpt lat="38.495088" lon="-0.694325">
        <ele>772</ele>
        <time>2019-04-21T06:45:10.000Z</time>
      </trkpt>
      <trkpt lat="38.495089" lon="-0.6943">
        <ele>773</ele>
        <time>2019-04-21T06:45:13.000Z</time>
      </trkpt>
      <trkpt lat="38.495079" lon="-0.694273">
        <ele>775</ele>
        <time>2019-04-21T06:45:17.000Z</time>
      </trkpt>
      <trkpt lat="38.495061" lon="-0.694246">
        <ele>775.2499968</ele>
        <time>2019-04-21T06:45:20.000Z</time>
      </trkpt>
      <trkpt lat="38.49505" lon="-0.694224">
        <ele>776</ele>
        <time>2019-04-21T06:45:23.000Z</time>
      </trkpt>
      <trkpt lat="38.495042" lon="-0.694202">
        <ele>776</ele>
        <time>2019-04-21T06:45:26.000Z</time>
      </trkpt>
      <trkpt lat="38.495052" lon="-0.694173">
        <ele>778.219296669736</ele>
        <time>2019-04-21T06:45:29.000Z</time>
      </trkpt>
      <trkpt lat="38.495053" lon="-0.694144">
        <ele>779.202129687628</ele>
        <time>2019-04-21T06:45:33.000Z</time>
      </trkpt>
      <trkpt lat="38.495036" lon="-0.694128">
        <ele>780</ele>
        <time>2019-04-21T06:45:36.000Z</time>
      </trkpt>
      <trkpt lat="38.495013" lon="-0.694111">
        <ele>781</ele>
        <time>2019-04-21T06:45:39.000Z</time>
      </trkpt>
      <trkpt lat="38.494996" lon="-0.694092">
        <ele>781.23584746172</ele>
        <time>2019-04-21T06:45:42.000Z</time>
      </trkpt>
      <trkpt lat="38.494994" lon="-0.694066">
        <ele>782</ele>
        <time>2019-04-21T06:45:45.000Z</time>
      </trkpt>
      <trkpt lat="38.494994" lon="-0.694042">
        <ele>782</ele>
        <time>2019-04-21T06:45:48.000Z</time>
      </trkpt>
      <trkpt lat="38.494978" lon="-0.694028">
        <ele>784</ele>
        <time>2019-04-21T06:45:51.000Z</time>
      </trkpt>
      <trkpt lat="38.494962" lon="-0.694011">
        <ele>785</ele>
        <time>2019-04-21T06:45:54.000Z</time>
      </trkpt>
      <trkpt lat="38.494949" lon="-0.693988">
        <ele>785</ele>
        <time>2019-04-21T06:45:57.000Z</time>
      </trkpt>
      <trkpt lat="38.494927" lon="-0.693972">
        <ele>787</ele>
        <time>2019-04-21T06:46:00.000Z</time>
      </trkpt>
      <trkpt lat="38.494906" lon="-0.693963">
        <ele>787</ele>
        <time>2019-04-21T06:46:03.000Z</time>
      </trkpt>
      <trkpt lat="38.49489" lon="-0.693945">
        <ele>788.223211428571</ele>
        <time>2019-04-21T06:46:07.000Z</time>
      </trkpt>
      <trkpt lat="38.494874" lon="-0.693931">
        <ele>789</ele>
        <time>2019-04-21T06:46:10.000Z</time>
      </trkpt>
      <trkpt lat="38.494876" lon="-0.693908">
        <ele>789.147723636364</ele>
        <time>2019-04-21T06:46:13.000Z</time>
      </trkpt>
      <trkpt lat="38.494871" lon="-0.693878">
        <ele>790</ele>
        <time>2019-04-21T06:46:16.000Z</time>
      </trkpt>
      <trkpt lat="38.494868" lon="-0.69385">
        <ele>791</ele>
        <time>2019-04-21T06:46:19.000Z</time>
      </trkpt>
      <trkpt lat="38.49486" lon="-0.693819">
        <ele>792</ele>
        <time>2019-04-21T06:46:22.000Z</time>
      </trkpt>
      <trkpt lat="38.494854" lon="-0.693794">
        <ele>792.226808476947</ele>
        <time>2019-04-21T06:46:24.000Z</time>
      </trkpt>
      <trkpt lat="38.494856" lon="-0.693765">
        <ele>793.220184132651</ele>
        <time>2019-04-21T06:46:27.000Z</time>
      </trkpt>
      <trkpt lat="38.494844" lon="-0.693739">
        <ele>795</ele>
        <time>2019-04-21T06:46:31.000Z</time>
      </trkpt>
      <trkpt lat="38.49482" lon="-0.693736">
        <ele>796</ele>
        <time>2019-04-21T06:46:34.000Z</time>
      </trkpt>
      <trkpt lat="38.4948" lon="-0.693737">
        <ele>797</ele>
        <time>2019-04-21T06:46:36.000Z</time>
      </trkpt>
      <trkpt lat="38.494774" lon="-0.693732">
        <ele>797</ele>
        <time>2019-04-21T06:46:39.000Z</time>
      </trkpt>
      <trkpt lat="38.494754" lon="-0.693728">
        <ele>798</ele>
        <time>2019-04-21T06:46:41.000Z</time>
      </trkpt>
      <trkpt lat="38.494758" lon="-0.69375">
        <ele>798.24</ele>
        <time>2019-04-21T06:47:16.000Z</time>
      </trkpt>
      <trkpt lat="38.494735" lon="-0.693738">
        <ele>799.234695610151</ele>
        <time>2019-04-21T06:47:24.000Z</time>
      </trkpt>
      <trkpt lat="38.494719" lon="-0.693726">
        <ele>800.874129504646</ele>
        <time>2019-04-21T06:47:26.000Z</time>
      </trkpt>
      <trkpt lat="38.494704" lon="-0.693709">
        <ele>801</ele>
        <time>2019-04-21T06:47:29.000Z</time>
      </trkpt>
      <trkpt lat="38.494699" lon="-0.693684">
        <ele>802</ele>
        <time>2019-04-21T06:47:32.000Z</time>
      </trkpt>
      <trkpt lat="38.494701" lon="-0.69366">
        <ele>803</ele>
        <time>2019-04-21T06:47:35.000Z</time>
      </trkpt>
      <trkpt lat="38.494695" lon="-0.693638">
        <ele>803.178297496552</ele>
        <time>2019-04-21T06:47:38.000Z</time>
      </trkpt>
      <trkpt lat="38.494677" lon="-0.693618">
        <ele>804.223211428571</ele>
        <time>2019-04-21T06:47:42.000Z</time>
      </trkpt>
      <trkpt lat="38.494659" lon="-0.693602">
        <ele>805</ele>
        <time>2019-04-21T06:47:45.000Z</time>
      </trkpt>
      <trkpt lat="38.494651" lon="-0.693582">
        <ele>805.233641170419</ele>
        <time>2019-04-21T06:47:49.000Z</time>
      </trkpt>
      <trkpt lat="38.494655" lon="-0.693554">
        <ele>808</ele>
        <time>2019-04-21T06:47:52.000Z</time>
      </trkpt>
      <trkpt lat="38.494648" lon="-0.69353">
        <ele>809</ele>
        <time>2019-04-21T06:47:55.000Z</time>
      </trkpt>
      <trkpt lat="38.494639" lon="-0.693502">
        <ele>809</ele>
        <time>2019-04-21T06:47:58.000Z</time>
      </trkpt>
      <trkpt lat="38.494642" lon="-0.693472">
        <ele>811</ele>
        <time>2019-04-21T06:48:01.000Z</time>
      </trkpt>
      <trkpt lat="38.494638" lon="-0.69344">
        <ele>812</ele>
        <time>2019-04-21T06:48:04.000Z</time>
      </trkpt>
      <trkpt lat="38.494627" lon="-0.69341">
        <ele>812</ele>
        <time>2019-04-21T06:48:07.000Z</time>
      </trkpt>
      <trkpt lat="38.494612" lon="-0.693388">
        <ele>812</ele>
        <time>2019-04-21T06:48:10.000Z</time>
      </trkpt>
      <trkpt lat="38.49461" lon="-0.69336">
        <ele>813</ele>
        <time>2019-04-21T06:48:13.000Z</time>
      </trkpt>
      <trkpt lat="38.494601" lon="-0.693332">
        <ele>813</ele>
        <time>2019-04-21T06:48:16.000Z</time>
      </trkpt>
      <trkpt lat="38.494593" lon="-0.693308">
        <ele>814</ele>
        <time>2019-04-21T06:48:19.000Z</time>
      </trkpt>
      <trkpt lat="38.494583" lon="-0.693279">
        <ele>813.2499968</ele>
        <time>2019-04-21T06:48:22.000Z</time>
      </trkpt>
      <trkpt lat="38.494575" lon="-0.693256">
        <ele>815.221236732706</ele>
        <time>2019-04-21T06:48:25.000Z</time>
      </trkpt>
      <trkpt lat="38.494579" lon="-0.693234">
        <ele>817</ele>
        <time>2019-04-21T06:48:28.000Z</time>
      </trkpt>
      <trkpt lat="38.494566" lon="-0.693215">
        <ele>819.2499968</ele>
        <time>2019-04-21T06:48:32.000Z</time>
      </trkpt>
      <trkpt lat="38.494557" lon="-0.693194">
        <ele>820.176054877994</ele>
        <time>2019-04-21T06:48:35.000Z</time>
      </trkpt>
      <trkpt lat="38.494559" lon="-0.693167">
        <ele>820.781253333333</ele>
        <time>2019-04-21T06:48:39.000Z</time>
      </trkpt>
      <trkpt lat="38.494552" lon="-0.693142">
        <ele>821</ele>
        <time>2019-04-21T06:48:43.000Z</time>
      </trkpt>
      <trkpt lat="38.494538" lon="-0.693124">
        <ele>822</ele>
        <time>2019-04-21T06:48:46.000Z</time>
      </trkpt>
      <trkpt lat="38.494528" lon="-0.6931">
        <ele>823</ele>
        <time>2019-04-21T06:48:49.000Z</time>
      </trkpt>
      <trkpt lat="38.494518" lon="-0.69308">
        <ele>824</ele>
        <time>2019-04-21T06:48:52.000Z</time>
      </trkpt>
      <trkpt lat="38.494502" lon="-0.693066">
        <ele>824</ele>
        <time>2019-04-21T06:48:55.000Z</time>
      </trkpt>
      <trkpt lat="38.494478" lon="-0.693059">
        <ele>825.954203023167</ele>
        <time>2019-04-21T06:48:59.000Z</time>
      </trkpt>
      <trkpt lat="38.494457" lon="-0.693061">
        <ele>826</ele>
        <time>2019-04-21T06:49:02.000Z</time>
      </trkpt>
      <trkpt lat="38.494439" lon="-0.693071">
        <ele>826.2499968</ele>
        <time>2019-04-21T06:49:05.000Z</time>
      </trkpt>
      <trkpt lat="38.49442" lon="-0.693077">
        <ele>829</ele>
        <time>2019-04-21T06:49:09.000Z</time>
      </trkpt>
      <trkpt lat="38.494401" lon="-0.693077">
        <ele>830</ele>
        <time>2019-04-21T06:49:13.000Z</time>
      </trkpt>
      <trkpt lat="38.494383" lon="-0.69307">
        <ele>830</ele>
        <time>2019-04-21T06:49:17.000Z</time>
      </trkpt>
      <trkpt lat="38.494362" lon="-0.69306">
        <ele>832</ele>
        <time>2019-04-21T06:49:21.000Z</time>
      </trkpt>
      <trkpt lat="38.494343" lon="-0.693061">
        <ele>833</ele>
        <time>2019-04-21T06:49:24.000Z</time>
      </trkpt>
      <trkpt lat="38.494328" lon="-0.693081">
        <ele>835</ele>
        <time>2019-04-21T06:49:28.000Z</time>
      </trkpt>
      <trkpt lat="38.49431" lon="-0.693064">
        <ele>835</ele>
        <time>2019-04-21T06:49:33.000Z</time>
      </trkpt>
      <trkpt lat="38.494305" lon="-0.693041">
        <ele>837</ele>
        <time>2019-04-21T06:49:37.000Z</time>
      </trkpt>
      <trkpt lat="38.494302" lon="-0.693016">
        <ele>838</ele>
        <time>2019-04-21T06:49:41.000Z</time>
      </trkpt>
      <trkpt lat="38.494285" lon="-0.692996">
        <ele>838.185662863258</ele>
        <time>2019-04-21T06:49:45.000Z</time>
      </trkpt>
      <trkpt lat="38.494261" lon="-0.692995">
        <ele>842</ele>
        <time>2019-04-21T06:50:42.000Z</time>
      </trkpt>
      <trkpt lat="38.494239" lon="-0.692996">
        <ele>842</ele>
        <time>2019-04-21T06:50:45.000Z</time>
      </trkpt>
      <trkpt lat="38.494216" lon="-0.692992">
        <ele>843</ele>
        <time>2019-04-21T06:50:48.000Z</time>
      </trkpt>
      <trkpt lat="38.494198" lon="-0.69298">
        <ele>843.295447272727</ele>
        <time>2019-04-21T06:50:51.000Z</time>
      </trkpt>
      <trkpt lat="38.49418" lon="-0.692977">
        <ele>846</ele>
        <time>2019-04-21T06:51:02.000Z</time>
      </trkpt>
      <trkpt lat="38.494169" lon="-0.692953">
        <ele>848</ele>
        <time>2019-04-21T06:51:06.000Z</time>
      </trkpt>
      <trkpt lat="38.494164" lon="-0.692925">
        <ele>848</ele>
        <time>2019-04-21T06:51:09.000Z</time>
      </trkpt>
      <trkpt lat="38.494164" lon="-0.692901">
        <ele>848</ele>
        <time>2019-04-21T06:51:12.000Z</time>
      </trkpt>
      <trkpt lat="38.494146" lon="-0.692882">
        <ele>850</ele>
        <time>2019-04-21T06:51:15.000Z</time>
      </trkpt>
      <trkpt lat="38.494124" lon="-0.69287">
        <ele>852</ele>
        <time>2019-04-21T06:51:19.000Z</time>
      </trkpt>
      <trkpt lat="38.49411" lon="-0.692853">
        <ele>852</ele>
        <time>2019-04-21T06:51:23.000Z</time>
      </trkpt>
      <trkpt lat="38.494101" lon="-0.692831">
        <ele>854.95419369968</ele>
        <time>2019-04-21T06:51:40.000Z</time>
      </trkpt>
      <trkpt lat="38.494083" lon="-0.692818">
        <ele>856.234695610151</ele>
        <time>2019-04-21T06:51:43.000Z</time>
      </trkpt>
      <trkpt lat="38.494061" lon="-0.692825">
        <ele>858</ele>
        <time>2019-04-21T06:51:47.000Z</time>
      </trkpt>
      <trkpt lat="38.49404" lon="-0.692834">
        <ele>858</ele>
        <time>2019-04-21T06:51:53.000Z</time>
      </trkpt>
      <trkpt lat="38.494023" lon="-0.692817">
        <ele>859</ele>
        <time>2019-04-21T06:52:01.000Z</time>
      </trkpt>
      <trkpt lat="38.494016" lon="-0.692788">
        <ele>859</ele>
        <time>2019-04-21T06:52:04.000Z</time>
      </trkpt>
      <trkpt lat="38.494018" lon="-0.692765">
        <ele>859</ele>
        <time>2019-04-21T06:52:06.000Z</time>
      </trkpt>
      <trkpt lat="38.494024" lon="-0.692741">
        <ele>859.242423458833</ele>
        <time>2019-04-21T06:52:08.000Z</time>
      </trkpt>
      <trkpt lat="38.494022" lon="-0.692707">
        <ele>862</ele>
        <time>2019-04-21T06:52:11.000Z</time>
      </trkpt>
      <trkpt lat="38.494017" lon="-0.692684">
        <ele>862</ele>
        <time>2019-04-21T06:52:13.000Z</time>
      </trkpt>
      <trkpt lat="38.494018" lon="-0.692655">
        <ele>861.766356034596</ele>
        <time>2019-04-21T06:52:16.000Z</time>
      </trkpt>
      <trkpt lat="38.494017" lon="-0.69262">
        <ele>862.2499968</ele>
        <time>2019-04-21T06:52:19.000Z</time>
      </trkpt>
      <trkpt lat="38.49402" lon="-0.692592">
        <ele>863</ele>
        <time>2019-04-21T06:52:21.000Z</time>
      </trkpt>
      <trkpt lat="38.494018" lon="-0.692565">
        <ele>862.807693822493</ele>
        <time>2019-04-21T06:52:23.000Z</time>
      </trkpt>
      <trkpt lat="38.494014" lon="-0.692542">
        <ele>863</ele>
        <time>2019-04-21T06:52:25.000Z</time>
      </trkpt>
      <trkpt lat="38.494009" lon="-0.692515">
        <ele>863</ele>
        <time>2019-04-21T06:52:27.000Z</time>
      </trkpt>
      <trkpt lat="38.494002" lon="-0.692486">
        <ele>865.245096439821</ele>
        <time>2019-04-21T06:52:30.000Z</time>
      </trkpt>
      <trkpt lat="38.494004" lon="-0.692453">
        <ele>866</ele>
        <time>2019-04-21T06:52:33.000Z</time>
      </trkpt>
      <trkpt lat="38.494011" lon="-0.692424">
        <ele>867.234695610151</ele>
        <time>2019-04-21T06:52:36.000Z</time>
      </trkpt>
      <trkpt lat="38.494022" lon="-0.692393">
        <ele>868</ele>
        <time>2019-04-21T06:52:39.000Z</time>
      </trkpt>
      <trkpt lat="38.494027" lon="-0.692369">
        <ele>867.469391220302</ele>
        <time>2019-04-21T06:52:41.000Z</time>
      </trkpt>
      <trkpt lat="38.494032" lon="-0.692347">
        <ele>869.7500032</ele>
        <time>2019-04-21T06:52:55.000Z</time>
      </trkpt>
      <trkpt lat="38.494029" lon="-0.692323">
        <ele>869</ele>
        <time>2019-04-21T06:52:58.000Z</time>
      </trkpt>
      <trkpt lat="38.49402" lon="-0.692295">
        <ele>869</ele>
        <time>2019-04-21T06:53:00.000Z</time>
      </trkpt>
      <trkpt lat="38.49401" lon="-0.692267">
        <ele>869</ele>
        <time>2019-04-21T06:53:03.000Z</time>
      </trkpt>
      <trkpt lat="38.494032" lon="-0.69225">
        <ele>870.2499968</ele>
        <time>2019-04-21T06:53:07.000Z</time>
      </trkpt>
      <trkpt lat="38.494049" lon="-0.692237">
        <ele>872</ele>
        <time>2019-04-21T06:53:09.000Z</time>
      </trkpt>
      <trkpt lat="38.494063" lon="-0.692212">
        <ele>872.2499968</ele>
        <time>2019-04-21T06:53:12.000Z</time>
      </trkpt>
      <trkpt lat="38.494064" lon="-0.692183">
        <ele>873.240381538462</ele>
        <time>2019-04-21T06:53:15.000Z</time>
      </trkpt>
      <trkpt lat="38.494063" lon="-0.69216">
        <ele>875</ele>
        <time>2019-04-21T06:53:49.000Z</time>
      </trkpt>
      <trkpt lat="38.494061" lon="-0.692134">
        <ele>873</ele>
        <time>2019-04-21T06:53:56.000Z</time>
      </trkpt>
      <trkpt lat="38.494051" lon="-0.692105">
        <ele>871</ele>
        <time>2019-04-21T06:54:02.000Z</time>
      </trkpt>
      <trkpt lat="38.494041" lon="-0.692085">
        <ele>871</ele>
        <time>2019-04-21T06:54:04.000Z</time>
      </trkpt>
      <trkpt lat="38.494034" lon="-0.692056">
        <ele>871</ele>
        <time>2019-04-21T06:54:08.000Z</time>
      </trkpt>
      <trkpt lat="38.494033" lon="-0.692024">
        <ele>869.7500032</ele>
        <time>2019-04-21T06:54:15.000Z</time>
      </trkpt>
      <trkpt lat="38.494031" lon="-0.691994">
        <ele>869</ele>
        <time>2019-04-21T06:54:17.000Z</time>
      </trkpt>
      <trkpt lat="38.494027" lon="-0.691951">
        <ele>868</ele>
        <time>2019-04-21T06:54:19.000Z</time>
      </trkpt>
      <trkpt lat="38.49403" lon="-0.691905">
        <ele>867.7500032</ele>
        <time>2019-04-21T06:54:21.000Z</time>
      </trkpt>
      <trkpt lat="38.494023" lon="-0.691878">
        <ele>867</ele>
        <time>2019-04-21T06:54:22.000Z</time>
      </trkpt>
      <trkpt lat="38.494015" lon="-0.691836">
        <ele>867</ele>
        <time>2019-04-21T06:54:24.000Z</time>
      </trkpt>
      <trkpt lat="38.494013" lon="-0.69181">
        <ele>867</ele>
        <time>2019-04-21T06:54:25.000Z</time>
      </trkpt>
      <trkpt lat="38.494012" lon="-0.691785">
        <ele>867</ele>
        <time>2019-04-21T06:54:26.000Z</time>
      </trkpt>
      <trkpt lat="38.494012" lon="-0.691761">
        <ele>867</ele>
        <time>2019-04-21T06:54:27.000Z</time>
      </trkpt>
      <trkpt lat="38.494003" lon="-0.69172">
        <ele>867</ele>
        <time>2019-04-21T06:54:29.000Z</time>
      </trkpt>
      <trkpt lat="38.494" lon="-0.691696">
        <ele>868.2499968</ele>
        <time>2019-04-21T06:54:30.000Z</time>
      </trkpt>
      <trkpt lat="38.493993" lon="-0.69165">
        <ele>869</ele>
        <time>2019-04-21T06:54:32.000Z</time>
      </trkpt>
      <trkpt lat="38.493988" lon="-0.691624">
        <ele>869</ele>
        <time>2019-04-21T06:54:33.000Z</time>
      </trkpt>
      <trkpt lat="38.493988" lon="-0.691599">
        <ele>869.127909745788</ele>
        <time>2019-04-21T06:54:34.000Z</time>
      </trkpt>
      <trkpt lat="38.493992" lon="-0.691574">
        <ele>870</ele>
        <time>2019-04-21T06:54:35.000Z</time>
      </trkpt>
      <trkpt lat="38.493992" lon="-0.691548">
        <ele>870</ele>
        <time>2019-04-21T06:54:36.000Z</time>
      </trkpt>
      <trkpt lat="38.493994" lon="-0.69152">
        <ele>870</ele>
        <time>2019-04-21T06:54:37.000Z</time>
      </trkpt>
      <trkpt lat="38.493992" lon="-0.691492">
        <ele>870</ele>
        <time>2019-04-21T06:54:38.000Z</time>
      </trkpt>
      <trkpt lat="38.493994" lon="-0.691466">
        <ele>870</ele>
        <time>2019-04-21T06:54:39.000Z</time>
      </trkpt>
      <trkpt lat="38.493995" lon="-0.691439">
        <ele>869.7500032</ele>
        <time>2019-04-21T06:54:40.000Z</time>
      </trkpt>
      <trkpt lat="38.493997" lon="-0.691411">
        <ele>869</ele>
        <time>2019-04-21T06:54:41.000Z</time>
      </trkpt>
      <trkpt lat="38.493993" lon="-0.691386">
        <ele>869</ele>
        <time>2019-04-21T06:54:42.000Z</time>
      </trkpt>
      <trkpt lat="38.493989" lon="-0.691359">
        <ele>869</ele>
        <time>2019-04-21T06:54:43.000Z</time>
      </trkpt>
      <trkpt lat="38.493988" lon="-0.691315">
        <ele>869.2499968</ele>
        <time>2019-04-21T06:54:45.000Z</time>
      </trkpt>
      <trkpt lat="38.493978" lon="-0.691291">
        <ele>870</ele>
        <time>2019-04-21T06:54:46.000Z</time>
      </trkpt>
      <trkpt lat="38.493969" lon="-0.691267">
        <ele>870</ele>
        <time>2019-04-21T06:54:47.000Z</time>
      </trkpt>
      <trkpt lat="38.493959" lon="-0.691247">
        <ele>869.754903560179</ele>
        <time>2019-04-21T06:54:48.000Z</time>
      </trkpt>
      <trkpt lat="38.493944" lon="-0.691225">
        <ele>869</ele>
        <time>2019-04-21T06:54:49.000Z</time>
      </trkpt>
      <trkpt lat="38.493935" lon="-0.691204">
        <ele>869</ele>
        <time>2019-04-21T06:54:50.000Z</time>
      </trkpt>
      <trkpt lat="38.493919" lon="-0.691166">
        <ele>868.7500032</ele>
        <time>2019-04-21T06:54:52.000Z</time>
      </trkpt>
      <trkpt lat="38.493912" lon="-0.691127">
        <ele>868</ele>
        <time>2019-04-21T06:54:54.000Z</time>
      </trkpt>
      <trkpt lat="38.493904" lon="-0.691088">
        <ele>868</ele>
        <time>2019-04-21T06:54:56.000Z</time>
      </trkpt>
      <trkpt lat="38.493892" lon="-0.691055">
        <ele>868.175823557543</ele>
        <time>2019-04-21T06:54:58.000Z</time>
      </trkpt>
      <trkpt lat="38.493882" lon="-0.691012">
        <ele>869.247522368388</ele>
        <time>2019-04-21T06:55:00.000Z</time>
      </trkpt>
      <trkpt lat="38.493881" lon="-0.690989">
        <ele>870</ele>
        <time>2019-04-21T06:55:01.000Z</time>
      </trkpt>
      <trkpt lat="38.493885" lon="-0.690946">
        <ele>870</ele>
        <time>2019-04-21T06:55:03.000Z</time>
      </trkpt>
      <trkpt lat="38.493884" lon="-0.690922">
        <ele>870</ele>
        <time>2019-04-21T06:55:04.000Z</time>
      </trkpt>
      <trkpt lat="38.493876" lon="-0.690898">
        <ele>870</ele>
        <time>2019-04-21T06:55:05.000Z</time>
      </trkpt>
      <trkpt lat="38.493871" lon="-0.690875">
        <ele>870</ele>
        <time>2019-04-21T06:55:06.000Z</time>
      </trkpt>
      <trkpt lat="38.49386" lon="-0.690852">
        <ele>870</ele>
        <time>2019-04-21T06:55:07.000Z</time>
      </trkpt>
      <trkpt lat="38.493852" lon="-0.690829">
        <ele>870</ele>
        <time>2019-04-21T06:55:08.000Z</time>
      </trkpt>
      <trkpt lat="38.493848" lon="-0.690804">
        <ele>870.2499968</ele>
        <time>2019-04-21T06:55:09.000Z</time>
      </trkpt>
      <trkpt lat="38.493837" lon="-0.690762">
        <ele>870.757576541167</ele>
        <time>2019-04-21T06:55:11.000Z</time>
      </trkpt>
      <trkpt lat="38.493815" lon="-0.690717">
        <ele>870</ele>
        <time>2019-04-21T06:55:13.000Z</time>
      </trkpt>
      <trkpt lat="38.493797" lon="-0.690688">
        <ele>870</ele>
        <time>2019-04-21T06:55:14.000Z</time>
      </trkpt>
      <trkpt lat="38.493779" lon="-0.690661">
        <ele>870</ele>
        <time>2019-04-21T06:55:15.000Z</time>
      </trkpt>
      <trkpt lat="38.493764" lon="-0.690635">
        <ele>870</ele>
        <time>2019-04-21T06:55:16.000Z</time>
      </trkpt>
      <trkpt lat="38.493756" lon="-0.690611">
        <ele>870</ele>
        <time>2019-04-21T06:55:17.000Z</time>
      </trkpt>
      <trkpt lat="38.493748" lon="-0.690587">
        <ele>869.7500032</ele>
        <time>2019-04-21T06:55:18.000Z</time>
      </trkpt>
      <trkpt lat="38.493746" lon="-0.690564">
        <ele>869</ele>
        <time>2019-04-21T06:55:19.000Z</time>
      </trkpt>
      <trkpt lat="38.493745" lon="-0.690538">
        <ele>869</ele>
        <time>2019-04-21T06:55:20.000Z</time>
      </trkpt>
      <trkpt lat="38.493745" lon="-0.690515">
        <ele>869</ele>
        <time>2019-04-21T06:55:21.000Z</time>
      </trkpt>
      <trkpt lat="38.493749" lon="-0.690491">
        <ele>869</ele>
        <time>2019-04-21T06:55:22.000Z</time>
      </trkpt>
      <trkpt lat="38.493752" lon="-0.690467">
        <ele>869.2499968</ele>
        <time>2019-04-21T06:55:23.000Z</time>
      </trkpt>
      <trkpt lat="38.49375" lon="-0.690438">
        <ele>870</ele>
        <time>2019-04-21T06:55:24.000Z</time>
      </trkpt>
      <trkpt lat="38.49375" lon="-0.690411">
        <ele>870</ele>
        <time>2019-04-21T06:55:25.000Z</time>
      </trkpt>
      <trkpt lat="38.493751" lon="-0.690387">
        <ele>870</ele>
        <time>2019-04-21T06:55:26.000Z</time>
      </trkpt>
      <trkpt lat="38.493752" lon="-0.690363">
        <ele>870</ele>
        <time>2019-04-21T06:55:27.000Z</time>
      </trkpt>
      <trkpt lat="38.493755" lon="-0.690323">
        <ele>871</ele>
        <time>2019-04-21T06:55:29.000Z</time>
      </trkpt>
      <trkpt lat="38.493757" lon="-0.690294">
        <ele>871.2499968</ele>
        <time>2019-04-21T06:55:30.000Z</time>
      </trkpt>
      <trkpt lat="38.493759" lon="-0.690268">
        <ele>872</ele>
        <time>2019-04-21T06:55:31.000Z</time>
      </trkpt>
      <trkpt lat="38.493756" lon="-0.690238">
        <ele>872</ele>
        <time>2019-04-21T06:55:32.000Z</time>
      </trkpt>
      <trkpt lat="38.493753" lon="-0.690209">
        <ele>872</ele>
        <time>2019-04-21T06:55:33.000Z</time>
      </trkpt>
      <trkpt lat="38.493753" lon="-0.690181">
        <ele>872</ele>
        <time>2019-04-21T06:55:34.000Z</time>
      </trkpt>
      <trkpt lat="38.493745" lon="-0.69014">
        <ele>871</ele>
        <time>2019-04-21T06:55:36.000Z</time>
      </trkpt>
      <trkpt lat="38.493744" lon="-0.690102">
        <ele>872</ele>
        <time>2019-04-21T06:55:38.000Z</time>
      </trkpt>
      <trkpt lat="38.493737" lon="-0.690063">
        <ele>872</ele>
        <time>2019-04-21T06:55:40.000Z</time>
      </trkpt>
      <trkpt lat="38.493728" lon="-0.690019">
        <ele>873</ele>
        <time>2019-04-21T06:55:42.000Z</time>
      </trkpt>
      <trkpt lat="38.493727" lon="-0.689971">
        <ele>873</ele>
        <time>2019-04-21T06:55:44.000Z</time>
      </trkpt>
      <trkpt lat="38.493742" lon="-0.689884">
        <ele>873</ele>
        <time>2019-04-21T06:55:47.000Z</time>
      </trkpt>
      <trkpt lat="38.493743" lon="-0.689854">
        <ele>873</ele>
        <time>2019-04-21T06:55:48.000Z</time>
      </trkpt>
      <trkpt lat="38.493742" lon="-0.689807">
        <ele>873</ele>
        <time>2019-04-21T06:55:50.000Z</time>
      </trkpt>
      <trkpt lat="38.493739" lon="-0.68978">
        <ele>873.233641170419</ele>
        <time>2019-04-21T06:55:51.000Z</time>
      </trkpt>
      <trkpt lat="38.493731" lon="-0.689749">
        <ele>874</ele>
        <time>2019-04-21T06:55:52.000Z</time>
      </trkpt>
      <trkpt lat="38.493728" lon="-0.689718">
        <ele>874</ele>
        <time>2019-04-21T06:55:53.000Z</time>
      </trkpt>
      <trkpt lat="38.493729" lon="-0.689683">
        <ele>873</ele>
        <time>2019-04-21T06:55:54.000Z</time>
      </trkpt>
      <trkpt lat="38.493729" lon="-0.689653">
        <ele>873</ele>
        <time>2019-04-21T06:55:55.000Z</time>
      </trkpt>
      <trkpt lat="38.493726" lon="-0.689622">
        <ele>873</ele>
        <time>2019-04-21T06:55:56.000Z</time>
      </trkpt>
      <trkpt lat="38.493723" lon="-0.68959">
        <ele>872.7500032</ele>
        <time>2019-04-21T06:55:57.000Z</time>
      </trkpt>
      <trkpt lat="38.493723" lon="-0.689561">
        <ele>872</ele>
        <time>2019-04-21T06:55:58.000Z</time>
      </trkpt>
      <trkpt lat="38.493721" lon="-0.689535">
        <ele>872.233641170419</ele>
        <time>2019-04-21T06:55:59.000Z</time>
      </trkpt>
      <trkpt lat="38.493718" lon="-0.689511">
        <ele>873</ele>
        <time>2019-04-21T06:56:00.000Z</time>
      </trkpt>
      <trkpt lat="38.493715" lon="-0.689486">
        <ele>873</ele>
        <time>2019-04-21T06:56:01.000Z</time>
      </trkpt>
      <trkpt lat="38.493715" lon="-0.689461">
        <ele>873</ele>
        <time>2019-04-21T06:56:02.000Z</time>
      </trkpt>
      <trkpt lat="38.493721" lon="-0.689436">
        <ele>873.2499968</ele>
        <time>2019-04-21T06:56:03.000Z</time>
      </trkpt>
      <trkpt lat="38.493726" lon="-0.689412">
        <ele>874</ele>
        <time>2019-04-21T06:56:04.000Z</time>
      </trkpt>
      <trkpt lat="38.493732" lon="-0.689388">
        <ele>874</ele>
        <time>2019-04-21T06:56:05.000Z</time>
      </trkpt>
      <trkpt lat="38.493733" lon="-0.689362">
        <ele>874</ele>
        <time>2019-04-21T06:56:06.000Z</time>
      </trkpt>
      <trkpt lat="38.493736" lon="-0.689336">
        <ele>874</ele>
        <time>2019-04-21T06:56:07.000Z</time>
      </trkpt>
      <trkpt lat="38.493735" lon="-0.68931">
        <ele>874</ele>
        <time>2019-04-21T06:56:08.000Z</time>
      </trkpt>
      <trkpt lat="38.493737" lon="-0.689286">
        <ele>874</ele>
        <time>2019-04-21T06:56:09.000Z</time>
      </trkpt>
      <trkpt lat="38.493743" lon="-0.689261">
        <ele>874</ele>
        <time>2019-04-21T06:56:10.000Z</time>
      </trkpt>
      <trkpt lat="38.493747" lon="-0.689237">
        <ele>874</ele>
        <time>2019-04-21T06:56:11.000Z</time>
      </trkpt>
      <trkpt lat="38.493752" lon="-0.689211">
        <ele>874</ele>
        <time>2019-04-21T06:56:12.000Z</time>
      </trkpt>
      <trkpt lat="38.493758" lon="-0.689183">
        <ele>874</ele>
        <time>2019-04-21T06:56:13.000Z</time>
      </trkpt>
      <trkpt lat="38.493761" lon="-0.689155">
        <ele>874.193542171328</ele>
        <time>2019-04-21T06:56:14.000Z</time>
      </trkpt>
      <trkpt lat="38.493769" lon="-0.689129">
        <ele>875</ele>
        <time>2019-04-21T06:56:15.000Z</time>
      </trkpt>
      <trkpt lat="38.493775" lon="-0.689104">
        <ele>875</ele>
        <time>2019-04-21T06:56:16.000Z</time>
      </trkpt>
      <trkpt lat="38.493781" lon="-0.689079">
        <ele>875</ele>
        <time>2019-04-21T06:56:17.000Z</time>
      </trkpt>
      <trkpt lat="38.493786" lon="-0.689053">
        <ele>875</ele>
        <time>2019-04-21T06:56:18.000Z</time>
      </trkpt>
      <trkpt lat="38.493787" lon="-0.689027">
        <ele>875</ele>
        <time>2019-04-21T06:56:19.000Z</time>
      </trkpt>
      <trkpt lat="38.493788" lon="-0.689002">
        <ele>875</ele>
        <time>2019-04-21T06:56:20.000Z</time>
      </trkpt>
      <trkpt lat="38.493792" lon="-0.688976">
        <ele>875</ele>
        <time>2019-04-21T06:56:21.000Z</time>
      </trkpt>
      <trkpt lat="38.493794" lon="-0.688952">
        <ele>875</ele>
        <time>2019-04-21T06:56:22.000Z</time>
      </trkpt>
      <trkpt lat="38.493793" lon="-0.688927">
        <ele>875</ele>
        <time>2019-04-21T06:56:23.000Z</time>
      </trkpt>
      <trkpt lat="38.493796" lon="-0.688901">
        <ele>875</ele>
        <time>2019-04-21T06:56:24.000Z</time>
      </trkpt>
      <trkpt lat="38.493799" lon="-0.688873">
        <ele>875</ele>
        <time>2019-04-21T06:56:25.000Z</time>
      </trkpt>
      <trkpt lat="38.493802" lon="-0.688848">
        <ele>875</ele>
        <time>2019-04-21T06:56:26.000Z</time>
      </trkpt>
      <trkpt lat="38.4938" lon="-0.688823">
        <ele>875</ele>
        <time>2019-04-21T06:56:27.000Z</time>
      </trkpt>
      <trkpt lat="38.493793" lon="-0.688796">
        <ele>875</ele>
        <time>2019-04-21T06:56:28.000Z</time>
      </trkpt>
      <trkpt lat="38.493783" lon="-0.688766">
        <ele>875</ele>
        <time>2019-04-21T06:56:29.000Z</time>
      </trkpt>
      <trkpt lat="38.493774" lon="-0.688737">
        <ele>875</ele>
        <time>2019-04-21T06:56:30.000Z</time>
      </trkpt>
      <trkpt lat="38.493767" lon="-0.688711">
        <ele>875</ele>
        <time>2019-04-21T06:56:31.000Z</time>
      </trkpt>
      <trkpt lat="38.493758" lon="-0.688683">
        <ele>874</ele>
        <time>2019-04-21T06:56:32.000Z</time>
      </trkpt>
      <trkpt lat="38.493747" lon="-0.688655">
        <ele>874</ele>
        <time>2019-04-21T06:56:33.000Z</time>
      </trkpt>
      <trkpt lat="38.493736" lon="-0.688629">
        <ele>873.7500032</ele>
        <time>2019-04-21T06:56:34.000Z</time>
      </trkpt>
      <trkpt lat="38.493734" lon="-0.688605">
        <ele>873</ele>
        <time>2019-04-21T06:56:35.000Z</time>
      </trkpt>
      <trkpt lat="38.493733" lon="-0.688578">
        <ele>873</ele>
        <time>2019-04-21T06:56:36.000Z</time>
      </trkpt>
      <trkpt lat="38.493733" lon="-0.688553">
        <ele>872.770644464277</ele>
        <time>2019-04-21T06:56:37.000Z</time>
      </trkpt>
      <trkpt lat="38.493736" lon="-0.688509">
        <ele>872</ele>
        <time>2019-04-21T06:56:39.000Z</time>
      </trkpt>
      <trkpt lat="38.493741" lon="-0.688476">
        <ele>872</ele>
        <time>2019-04-21T06:56:41.000Z</time>
      </trkpt>
      <trkpt lat="38.493736" lon="-0.688453">
        <ele>872</ele>
        <time>2019-04-21T06:56:42.000Z</time>
      </trkpt>
      <trkpt lat="38.493735" lon="-0.688429">
        <ele>871.815220869565</ele>
        <time>2019-04-21T06:56:43.000Z</time>
      </trkpt>
      <trkpt lat="38.493727" lon="-0.688397">
        <ele>871</ele>
        <time>2019-04-21T06:56:45.000Z</time>
      </trkpt>
      <trkpt lat="38.493703" lon="-0.68837">
        <ele>871</ele>
        <time>2019-04-21T06:56:48.000Z</time>
      </trkpt>
      <trkpt lat="38.493683" lon="-0.688344">
        <ele>871</ele>
        <time>2019-04-21T06:56:50.000Z</time>
      </trkpt>
      <trkpt lat="38.493666" lon="-0.688319">
        <ele>871.16666903702</ele>
        <time>2019-04-21T06:56:52.000Z</time>
      </trkpt>
      <trkpt lat="38.493644" lon="-0.688286">
        <ele>873.247522368388</ele>
        <time>2019-04-21T06:56:54.000Z</time>
      </trkpt>
      <trkpt lat="38.493623" lon="-0.688255">
        <ele>874.227271140487</ele>
        <time>2019-04-21T06:56:56.000Z</time>
      </trkpt>
      <trkpt lat="38.493604" lon="-0.688224">
        <ele>875</ele>
        <time>2019-04-21T06:56:58.000Z</time>
      </trkpt>
      <trkpt lat="38.493583" lon="-0.688189">
        <ele>875</ele>
        <time>2019-04-21T06:57:00.000Z</time>
      </trkpt>
      <trkpt lat="38.493571" lon="-0.68817">
        <ele>875</ele>
        <time>2019-04-21T06:57:01.000Z</time>
      </trkpt>
      <trkpt lat="38.493556" lon="-0.688134">
        <ele>875</ele>
        <time>2019-04-21T06:57:03.000Z</time>
      </trkpt>
      <trkpt lat="38.493548" lon="-0.688112">
        <ele>875</ele>
        <time>2019-04-21T06:57:04.000Z</time>
      </trkpt>
      <trkpt lat="38.49353" lon="-0.68807">
        <ele>875</ele>
        <time>2019-04-21T06:57:06.000Z</time>
      </trkpt>
      <trkpt lat="38.493517" lon="-0.688032">
        <ele>875</ele>
        <time>2019-04-21T06:57:08.000Z</time>
      </trkpt>
      <trkpt lat="38.493506" lon="-0.687997">
        <ele>875</ele>
        <time>2019-04-21T06:57:10.000Z</time>
      </trkpt>
      <trkpt lat="38.493489" lon="-0.687962">
        <ele>875</ele>
        <time>2019-04-21T06:57:12.000Z</time>
      </trkpt>
      <trkpt lat="38.49348" lon="-0.68793">
        <ele>875</ele>
        <time>2019-04-21T06:57:14.000Z</time>
      </trkpt>
      <trkpt lat="38.493466" lon="-0.6879">
        <ele>875</ele>
        <time>2019-04-21T06:57:16.000Z</time>
      </trkpt>
      <trkpt lat="38.493457" lon="-0.687872">
        <ele>875</ele>
        <time>2019-04-21T06:57:18.000Z</time>
      </trkpt>
      <trkpt lat="38.493445" lon="-0.687833">
        <ele>876</ele>
        <time>2019-04-21T06:57:20.000Z</time>
      </trkpt>
      <trkpt lat="38.493429" lon="-0.687797">
        <ele>876</ele>
        <time>2019-04-21T06:57:22.000Z</time>
      </trkpt>
      <trkpt lat="38.493417" lon="-0.687761">
        <ele>876</ele>
        <time>2019-04-21T06:57:24.000Z</time>
      </trkpt>
      <trkpt lat="38.493405" lon="-0.687723">
        <ele>877</ele>
        <time>2019-04-21T06:57:26.000Z</time>
      </trkpt>
      <trkpt lat="38.493394" lon="-0.687684">
        <ele>877.95419369968</ele>
        <time>2019-04-21T06:57:28.000Z</time>
      </trkpt>
      <trkpt lat="38.493384" lon="-0.687646">
        <ele>878</ele>
        <time>2019-04-21T06:57:30.000Z</time>
      </trkpt>
      <trkpt lat="38.493377" lon="-0.68761">
        <ele>878</ele>
        <time>2019-04-21T06:57:32.000Z</time>
      </trkpt>
      <trkpt lat="38.493367" lon="-0.68758">
        <ele>878</ele>
        <time>2019-04-21T06:57:34.000Z</time>
      </trkpt>
      <trkpt lat="38.493354" lon="-0.68755">
        <ele>878.2499968</ele>
        <time>2019-04-21T06:57:36.000Z</time>
      </trkpt>
      <trkpt lat="38.493344" lon="-0.687518">
        <ele>879</ele>
        <time>2019-04-21T06:57:38.000Z</time>
      </trkpt>
      <trkpt lat="38.493335" lon="-0.687486">
        <ele>881</ele>
        <time>2019-04-21T06:57:40.000Z</time>
      </trkpt>
      <trkpt lat="38.493328" lon="-0.687454">
        <ele>881.225221693055</ele>
        <time>2019-04-21T06:57:42.000Z</time>
      </trkpt>
      <trkpt lat="38.493319" lon="-0.687424">
        <ele>882</ele>
        <time>2019-04-21T06:57:44.000Z</time>
      </trkpt>
      <trkpt lat="38.493311" lon="-0.687395">
        <ele>882</ele>
        <time>2019-04-21T06:57:46.000Z</time>
      </trkpt>
      <trkpt lat="38.493301" lon="-0.687366">
        <ele>883</ele>
        <time>2019-04-21T06:57:48.000Z</time>
      </trkpt>
      <trkpt lat="38.493289" lon="-0.687332">
        <ele>883</ele>
        <time>2019-04-21T06:57:50.000Z</time>
      </trkpt>
      <trkpt lat="38.493276" lon="-0.687302">
        <ele>884</ele>
        <time>2019-04-21T06:57:52.000Z</time>
      </trkpt>
      <trkpt lat="38.49327" lon="-0.68727">
        <ele>885</ele>
        <time>2019-04-21T06:57:54.000Z</time>
      </trkpt>
      <trkpt lat="38.49326" lon="-0.687238">
        <ele>885.137930527152</ele>
        <time>2019-04-21T06:57:56.000Z</time>
      </trkpt>
      <trkpt lat="38.493241" lon="-0.687204">
        <ele>886</ele>
        <time>2019-04-21T06:57:58.000Z</time>
      </trkpt>
      <trkpt lat="38.493231" lon="-0.687178">
        <ele>886</ele>
        <time>2019-04-21T06:58:00.000Z</time>
      </trkpt>
      <trkpt lat="38.493224" lon="-0.687152">
        <ele>887</ele>
        <time>2019-04-21T06:58:02.000Z</time>
      </trkpt>
      <trkpt lat="38.493214" lon="-0.687122">
        <ele>887</ele>
        <time>2019-04-21T06:58:04.000Z</time>
      </trkpt>
      <trkpt lat="38.493203" lon="-0.687096">
        <ele>887</ele>
        <time>2019-04-21T06:58:06.000Z</time>
      </trkpt>
      <trkpt lat="38.493193" lon="-0.687062">
        <ele>887</ele>
        <time>2019-04-21T06:58:08.000Z</time>
      </trkpt>
      <trkpt lat="38.49318" lon="-0.68703">
        <ele>888.247522368388</ele>
        <time>2019-04-21T06:58:10.000Z</time>
      </trkpt>
      <trkpt lat="38.493171" lon="-0.687">
        <ele>890</ele>
        <time>2019-04-21T06:58:12.000Z</time>
      </trkpt>
      <trkpt lat="38.493161" lon="-0.686966">
        <ele>891</ele>
        <time>2019-04-21T06:58:14.000Z</time>
      </trkpt>
      <trkpt lat="38.493148" lon="-0.686931">
        <ele>891</ele>
        <time>2019-04-21T06:58:16.000Z</time>
      </trkpt>
      <trkpt lat="38.493134" lon="-0.686896">
        <ele>891.2499968</ele>
        <time>2019-04-21T06:58:18.000Z</time>
      </trkpt>
      <trkpt lat="38.493117" lon="-0.686858">
        <ele>892.231478518519</ele>
        <time>2019-04-21T06:58:20.000Z</time>
      </trkpt>
      <trkpt lat="38.493103" lon="-0.686826">
        <ele>893</ele>
        <time>2019-04-21T06:58:22.000Z</time>
      </trkpt>
      <trkpt lat="38.493089" lon="-0.6868">
        <ele>893</ele>
        <time>2019-04-21T06:58:24.000Z</time>
      </trkpt>
      <trkpt lat="38.493081" lon="-0.686768">
        <ele>893</ele>
        <time>2019-04-21T06:58:26.000Z</time>
      </trkpt>
      <trkpt lat="38.49307" lon="-0.686736">
        <ele>893.214285714286</ele>
        <time>2019-04-21T06:58:28.000Z</time>
      </trkpt>
      <trkpt lat="38.493056" lon="-0.6867">
        <ele>894</ele>
        <time>2019-04-21T06:58:30.000Z</time>
      </trkpt>
      <trkpt lat="38.493045" lon="-0.68667">
        <ele>894</ele>
        <time>2019-04-21T06:58:32.000Z</time>
      </trkpt>
      <trkpt lat="38.493033" lon="-0.686638">
        <ele>894</ele>
        <time>2019-04-21T06:58:34.000Z</time>
      </trkpt>
      <trkpt lat="38.493026" lon="-0.686606">
        <ele>895</ele>
        <time>2019-04-21T06:58:36.000Z</time>
      </trkpt>
      <trkpt lat="38.493019" lon="-0.686573">
        <ele>896</ele>
        <time>2019-04-21T06:58:38.000Z</time>
      </trkpt>
      <trkpt lat="38.493007" lon="-0.686541">
        <ele>896</ele>
        <time>2019-04-21T06:58:40.000Z</time>
      </trkpt>
      <trkpt lat="38.492997" lon="-0.686508">
        <ele>896.218746666667</ele>
        <time>2019-04-21T06:58:42.000Z</time>
      </trkpt>
      <trkpt lat="38.492988" lon="-0.686476">
        <ele>897.874129504646</ele>
        <time>2019-04-21T06:58:44.000Z</time>
      </trkpt>
      <trkpt lat="38.492973" lon="-0.686442">
        <ele>898.240381538462</ele>
        <time>2019-04-21T06:58:46.000Z</time>
      </trkpt>
      <trkpt lat="38.492964" lon="-0.68641">
        <ele>899</ele>
        <time>2019-04-21T06:58:48.000Z</time>
      </trkpt>
      <trkpt lat="38.492953" lon="-0.686378">
        <ele>899</ele>
        <time>2019-04-21T06:58:50.000Z</time>
      </trkpt>
      <trkpt lat="38.49294" lon="-0.68634">
        <ele>899</ele>
        <time>2019-04-21T06:58:52.000Z</time>
      </trkpt>
      <trkpt lat="38.492927" lon="-0.686308">
        <ele>900</ele>
        <time>2019-04-21T06:58:54.000Z</time>
      </trkpt>
      <trkpt lat="38.492919" lon="-0.686278">
        <ele>900.2499968</ele>
        <time>2019-04-21T06:58:56.000Z</time>
      </trkpt>
      <trkpt lat="38.492908" lon="-0.686244">
        <ele>901</ele>
        <time>2019-04-21T06:58:58.000Z</time>
      </trkpt>
      <trkpt lat="38.492898" lon="-0.686208">
        <ele>902</ele>
        <time>2019-04-21T06:59:00.000Z</time>
      </trkpt>
      <trkpt lat="38.492882" lon="-0.686174">
        <ele>902</ele>
        <time>2019-04-21T06:59:02.000Z</time>
      </trkpt>
      <trkpt lat="38.492866" lon="-0.686138">
        <ele>902</ele>
        <time>2019-04-21T06:59:04.000Z</time>
      </trkpt>
      <trkpt lat="38.492858" lon="-0.686104">
        <ele>902</ele>
        <time>2019-04-21T06:59:06.000Z</time>
      </trkpt>
      <trkpt lat="38.492852" lon="-0.686069">
        <ele>902.2499968</ele>
        <time>2019-04-21T06:59:08.000Z</time>
      </trkpt>
      <trkpt lat="38.492842" lon="-0.686034">
        <ele>903</ele>
        <time>2019-04-21T06:59:10.000Z</time>
      </trkpt>
      <trkpt lat="38.492828" lon="-0.685997">
        <ele>903</ele>
        <time>2019-04-21T06:59:12.000Z</time>
      </trkpt>
      <trkpt lat="38.49282" lon="-0.685964">
        <ele>903</ele>
        <time>2019-04-21T06:59:14.000Z</time>
      </trkpt>
      <trkpt lat="38.492814" lon="-0.685931">
        <ele>903.2499968</ele>
        <time>2019-04-21T06:59:16.000Z</time>
      </trkpt>
      <trkpt lat="38.492812" lon="-0.685902">
        <ele>904</ele>
        <time>2019-04-21T06:59:18.000Z</time>
      </trkpt>
      <trkpt lat="38.492804" lon="-0.685871">
        <ele>905</ele>
        <time>2019-04-21T06:59:20.000Z</time>
      </trkpt>
      <trkpt lat="38.492802" lon="-0.685839">
        <ele>905</ele>
        <time>2019-04-21T06:59:22.000Z</time>
      </trkpt>
      <trkpt lat="38.492788" lon="-0.685805">
        <ele>905</ele>
        <time>2019-04-21T06:59:24.000Z</time>
      </trkpt>
      <trkpt lat="38.492778" lon="-0.685768">
        <ele>905.744045714286</ele>
        <time>2019-04-21T06:59:26.000Z</time>
      </trkpt>
      <trkpt lat="38.492768" lon="-0.685733">
        <ele>906</ele>
        <time>2019-04-21T06:59:28.000Z</time>
      </trkpt>
      <trkpt lat="38.49276" lon="-0.685694">
        <ele>906.223211428571</ele>
        <time>2019-04-21T06:59:30.000Z</time>
      </trkpt>
      <trkpt lat="38.492752" lon="-0.685659">
        <ele>907</ele>
        <time>2019-04-21T06:59:32.000Z</time>
      </trkpt>
      <trkpt lat="38.492742" lon="-0.685623">
        <ele>907</ele>
        <time>2019-04-21T06:59:34.000Z</time>
      </trkpt>
      <trkpt lat="38.492734" lon="-0.685584">
        <ele>907</ele>
        <time>2019-04-21T06:59:36.000Z</time>
      </trkpt>
      <trkpt lat="38.492726" lon="-0.685548">
        <ele>908</ele>
        <time>2019-04-21T06:59:38.000Z</time>
      </trkpt>
      <trkpt lat="38.49272" lon="-0.685514">
        <ele>908</ele>
        <time>2019-04-21T06:59:40.000Z</time>
      </trkpt>
      <trkpt lat="38.492714" lon="-0.685482">
        <ele>909</ele>
        <time>2019-04-21T06:59:42.000Z</time>
      </trkpt>
      <trkpt lat="38.492706" lon="-0.685447">
        <ele>909</ele>
        <time>2019-04-21T06:59:44.000Z</time>
      </trkpt>
      <trkpt lat="38.492696" lon="-0.685413">
        <ele>910</ele>
        <time>2019-04-21T06:59:46.000Z</time>
      </trkpt>
      <trkpt lat="38.492678" lon="-0.685382">
        <ele>910</ele>
        <time>2019-04-21T06:59:48.000Z</time>
      </trkpt>
      <trkpt lat="38.492661" lon="-0.685348">
        <ele>910.245096439821</ele>
        <time>2019-04-21T06:59:50.000Z</time>
      </trkpt>
      <trkpt lat="38.492642" lon="-0.685311">
        <ele>911</ele>
        <time>2019-04-21T06:59:52.000Z</time>
      </trkpt>
      <trkpt lat="38.492618" lon="-0.685282">
        <ele>911</ele>
        <time>2019-04-21T06:59:54.000Z</time>
      </trkpt>
      <trkpt lat="38.4926" lon="-0.685257">
        <ele>911</ele>
        <time>2019-04-21T06:59:56.000Z</time>
      </trkpt>
      <trkpt lat="38.492574" lon="-0.685233">
        <ele>911</ele>
        <time>2019-04-21T06:59:58.000Z</time>
      </trkpt>
      <trkpt lat="38.49254" lon="-0.685212">
        <ele>911</ele>
        <time>2019-04-21T07:00:00.000Z</time>
      </trkpt>
      <trkpt lat="38.492512" lon="-0.685195">
        <ele>912</ele>
        <time>2019-04-21T07:00:02.000Z</time>
      </trkpt>
      <trkpt lat="38.492484" lon="-0.685174">
        <ele>912</ele>
        <time>2019-04-21T07:00:04.000Z</time>
      </trkpt>
      <trkpt lat="38.492447" lon="-0.685166">
        <ele>912</ele>
        <time>2019-04-21T07:00:06.000Z</time>
      </trkpt>
      <trkpt lat="38.492428" lon="-0.685162">
        <ele>912</ele>
        <time>2019-04-21T07:00:07.000Z</time>
      </trkpt>
      <trkpt lat="38.492397" lon="-0.685156">
        <ele>912.16666903702</ele>
        <time>2019-04-21T07:00:09.000Z</time>
      </trkpt>
      <trkpt lat="38.492363" lon="-0.685147">
        <ele>913</ele>
        <time>2019-04-21T07:00:11.000Z</time>
      </trkpt>
      <trkpt lat="38.492345" lon="-0.685144">
        <ele>913</ele>
        <time>2019-04-21T07:00:12.000Z</time>
      </trkpt>
      <trkpt lat="38.492328" lon="-0.685138">
        <ele>913</ele>
        <time>2019-04-21T07:00:13.000Z</time>
      </trkpt>
      <trkpt lat="38.492293" lon="-0.685133">
        <ele>914</ele>
        <time>2019-04-21T07:00:15.000Z</time>
      </trkpt>
      <trkpt lat="38.492261" lon="-0.68513">
        <ele>914</ele>
        <time>2019-04-21T07:00:17.000Z</time>
      </trkpt>
      <trkpt lat="38.49223" lon="-0.685125">
        <ele>914.125002666667</ele>
        <time>2019-04-21T07:00:19.000Z</time>
      </trkpt>
      <trkpt lat="38.492201" lon="-0.685123">
        <ele>915</ele>
        <time>2019-04-21T07:00:21.000Z</time>
      </trkpt>
      <trkpt lat="38.492192" lon="-0.685144">
        <ele>916</ele>
        <time>2019-04-21T07:00:27.000Z</time>
      </trkpt>
      <trkpt lat="38.492171" lon="-0.685145">
        <ele>916</ele>
        <time>2019-04-21T07:00:29.000Z</time>
      </trkpt>
      <trkpt lat="38.492148" lon="-0.685143">
        <ele>916.240381538462</ele>
        <time>2019-04-21T07:00:31.000Z</time>
      </trkpt>
      <trkpt lat="38.492125" lon="-0.685143">
        <ele>918</ele>
        <time>2019-04-21T07:00:33.000Z</time>
      </trkpt>
      <trkpt lat="38.4921" lon="-0.685143">
        <ele>919</ele>
        <time>2019-04-21T07:00:35.000Z</time>
      </trkpt>
      <trkpt lat="38.492074" lon="-0.685149">
        <ele>919</ele>
        <time>2019-04-21T07:00:37.000Z</time>
      </trkpt>
      <trkpt lat="38.492053" lon="-0.685157">
        <ele>919</ele>
        <time>2019-04-21T07:00:39.000Z</time>
      </trkpt>
      <trkpt lat="38.492032" lon="-0.685164">
        <ele>919</ele>
        <time>2019-04-21T07:00:41.000Z</time>
      </trkpt>
      <trkpt lat="38.492022" lon="-0.685185">
        <ele>919</ele>
        <time>2019-04-21T07:00:49.000Z</time>
      </trkpt>
      <trkpt lat="38.492014" lon="-0.685207">
        <ele>919</ele>
        <time>2019-04-21T07:00:52.000Z</time>
      </trkpt>
      <trkpt lat="38.491996" lon="-0.68523">
        <ele>919</ele>
        <time>2019-04-21T07:00:55.000Z</time>
      </trkpt>
      <trkpt lat="38.491983" lon="-0.685252">
        <ele>919</ele>
        <time>2019-04-21T07:00:57.000Z</time>
      </trkpt>
      <trkpt lat="38.491971" lon="-0.685271">
        <ele>919</ele>
        <time>2019-04-21T07:00:59.000Z</time>
      </trkpt>
      <trkpt lat="38.491952" lon="-0.685294">
        <ele>919</ele>
        <time>2019-04-21T07:01:02.000Z</time>
      </trkpt>
      <trkpt lat="38.491938" lon="-0.685309">
        <ele>919.23584746172</ele>
        <time>2019-04-21T07:01:04.000Z</time>
      </trkpt>
      <trkpt lat="38.491922" lon="-0.68533">
        <ele>920</ele>
        <time>2019-04-21T07:01:07.000Z</time>
      </trkpt>
      <trkpt lat="38.49191" lon="-0.685349">
        <ele>921</ele>
        <time>2019-04-21T07:01:10.000Z</time>
      </trkpt>
      <trkpt lat="38.49189" lon="-0.685355">
        <ele>921</ele>
        <time>2019-04-21T07:01:12.000Z</time>
      </trkpt>
      <trkpt lat="38.491876" lon="-0.685371">
        <ele>922</ele>
        <time>2019-04-21T07:01:14.000Z</time>
      </trkpt>
      <trkpt lat="38.491861" lon="-0.685387">
        <ele>922</ele>
        <time>2019-04-21T07:01:16.000Z</time>
      </trkpt>
      <trkpt lat="38.491841" lon="-0.685398">
        <ele>922</ele>
        <time>2019-04-21T07:01:18.000Z</time>
      </trkpt>
      <trkpt lat="38.491823" lon="-0.685407">
        <ele>922.221236732706</ele>
        <time>2019-04-21T07:01:20.000Z</time>
      </trkpt>
      <trkpt lat="38.491798" lon="-0.685418">
        <ele>923</ele>
        <time>2019-04-21T07:01:23.000Z</time>
      </trkpt>
      <trkpt lat="38.491781" lon="-0.68543">
        <ele>923</ele>
        <time>2019-04-21T07:01:25.000Z</time>
      </trkpt>
      <trkpt lat="38.491759" lon="-0.685436">
        <ele>923</ele>
        <time>2019-04-21T07:01:28.000Z</time>
      </trkpt>
      <trkpt lat="38.491735" lon="-0.685442">
        <ele>924</ele>
        <time>2019-04-21T07:01:31.000Z</time>
      </trkpt>
      <trkpt lat="38.491717" lon="-0.685445">
        <ele>924</ele>
        <time>2019-04-21T07:01:33.000Z</time>
      </trkpt>
      <trkpt lat="38.491698" lon="-0.685463">
        <ele>924</ele>
        <time>2019-04-21T07:01:36.000Z</time>
      </trkpt>
      <trkpt lat="38.491679" lon="-0.685464">
        <ele>924.485429171482</ele>
        <time>2019-04-21T07:01:38.000Z</time>
      </trkpt>
      <trkpt lat="38.491658" lon="-0.68547">
        <ele>926.95312</ele>
        <time>2019-04-21T07:01:40.000Z</time>
      </trkpt>
      <trkpt lat="38.491642" lon="-0.685482">
        <ele>927</ele>
        <time>2019-04-21T07:01:42.000Z</time>
      </trkpt>
      <trkpt lat="38.491624" lon="-0.685492">
        <ele>927</ele>
        <time>2019-04-21T07:01:44.000Z</time>
      </trkpt>
      <trkpt lat="38.491607" lon="-0.685506">
        <ele>927.2499968</ele>
        <time>2019-04-21T07:01:46.000Z</time>
      </trkpt>
      <trkpt lat="38.491592" lon="-0.685523">
        <ele>928</ele>
        <time>2019-04-21T07:01:48.000Z</time>
      </trkpt>
      <trkpt lat="38.49158" lon="-0.685543">
        <ele>929</ele>
        <time>2019-04-21T07:01:50.000Z</time>
      </trkpt>
      <trkpt lat="38.491563" lon="-0.685554">
        <ele>929</ele>
        <time>2019-04-21T07:01:54.000Z</time>
      </trkpt>
      <trkpt lat="38.491546" lon="-0.685537">
        <ele>930</ele>
        <time>2019-04-21T07:01:58.000Z</time>
      </trkpt>
      <trkpt lat="38.491519" lon="-0.685536">
        <ele>930</ele>
        <time>2019-04-21T07:02:01.000Z</time>
      </trkpt>
      <trkpt lat="38.491495" lon="-0.685533">
        <ele>931</ele>
        <time>2019-04-21T07:02:05.000Z</time>
      </trkpt>
      <trkpt lat="38.491475" lon="-0.685538">
        <ele>933.242423458833</ele>
        <time>2019-04-21T07:02:08.000Z</time>
      </trkpt>
      <trkpt lat="38.491454" lon="-0.685544">
        <ele>935</ele>
        <time>2019-04-21T07:02:11.000Z</time>
      </trkpt>
      <trkpt lat="38.491433" lon="-0.685548">
        <ele>935</ele>
        <time>2019-04-21T07:02:14.000Z</time>
      </trkpt>
      <trkpt lat="38.491413" lon="-0.685551">
        <ele>935.231478518519</ele>
        <time>2019-04-21T07:02:20.000Z</time>
      </trkpt>
      <trkpt lat="38.491398" lon="-0.685571">
        <ele>936.242423458833</ele>
        <time>2019-04-21T07:02:24.000Z</time>
      </trkpt>
      <trkpt lat="38.491381" lon="-0.68558">
        <ele>937</ele>
        <time>2019-04-21T07:02:27.000Z</time>
      </trkpt>
      <trkpt lat="38.491361" lon="-0.685597">
        <ele>938</ele>
        <time>2019-04-21T07:02:30.000Z</time>
      </trkpt>
      <trkpt lat="38.491338" lon="-0.685599">
        <ele>938</ele>
        <time>2019-04-21T07:02:34.000Z</time>
      </trkpt>
      <trkpt lat="38.491315" lon="-0.685602">
        <ele>941</ele>
        <time>2019-04-21T07:02:38.000Z</time>
      </trkpt>
      <trkpt lat="38.491297" lon="-0.685603">
        <ele>941.2499968</ele>
        <time>2019-04-21T07:02:41.000Z</time>
      </trkpt>
      <trkpt lat="38.49128" lon="-0.685613">
        <ele>942</ele>
        <time>2019-04-21T07:02:44.000Z</time>
      </trkpt>
      <trkpt lat="38.491261" lon="-0.68563">
        <ele>943</ele>
        <time>2019-04-21T07:02:48.000Z</time>
      </trkpt>
      <trkpt lat="38.491246" lon="-0.685612">
        <ele>943.95419369968</ele>
        <time>2019-04-21T07:02:52.000Z</time>
      </trkpt>
      <trkpt lat="38.491237" lon="-0.685589">
        <ele>944.2499968</ele>
        <time>2019-04-21T07:02:55.000Z</time>
      </trkpt>
      <trkpt lat="38.491215" lon="-0.685592">
        <ele>945.95419369968</ele>
        <time>2019-04-21T07:02:58.000Z</time>
      </trkpt>
      <trkpt lat="38.491195" lon="-0.685601">
        <ele>947</ele>
        <time>2019-04-21T07:03:02.000Z</time>
      </trkpt>
      <trkpt lat="38.491174" lon="-0.685602">
        <ele>947</ele>
        <time>2019-04-21T07:03:06.000Z</time>
      </trkpt>
      <trkpt lat="38.491161" lon="-0.685623">
        <ele>947</ele>
        <time>2019-04-21T07:03:09.000Z</time>
      </trkpt>
      <trkpt lat="38.49115" lon="-0.685647">
        <ele>948</ele>
        <time>2019-04-21T07:03:12.000Z</time>
      </trkpt>
      <trkpt lat="38.491139" lon="-0.685672">
        <ele>948.2499968</ele>
        <time>2019-04-21T07:03:15.000Z</time>
      </trkpt>
      <trkpt lat="38.491132" lon="-0.685702">
        <ele>950</ele>
        <time>2019-04-21T07:03:18.000Z</time>
      </trkpt>
      <trkpt lat="38.491118" lon="-0.685724">
        <ele>950</ele>
        <time>2019-04-21T07:03:22.000Z</time>
      </trkpt>
      <trkpt lat="38.491099" lon="-0.685724">
        <ele>951</ele>
        <time>2019-04-21T07:03:25.000Z</time>
      </trkpt>
      <trkpt lat="38.491085" lon="-0.685739">
        <ele>952.191483856911</ele>
        <time>2019-04-21T07:03:28.000Z</time>
      </trkpt>
      <trkpt lat="38.491061" lon="-0.685746">
        <ele>954</ele>
        <time>2019-04-21T07:03:32.000Z</time>
      </trkpt>
      <trkpt lat="38.491039" lon="-0.685748">
        <ele>954.2499968</ele>
        <time>2019-04-21T07:03:35.000Z</time>
      </trkpt>
      <trkpt lat="38.491016" lon="-0.685751">
        <ele>956</ele>
        <time>2019-04-21T07:03:38.000Z</time>
      </trkpt>
      <trkpt lat="38.490999" lon="-0.685765">
        <ele>956.240381538462</ele>
        <time>2019-04-21T07:03:41.000Z</time>
      </trkpt>
      <trkpt lat="38.490984" lon="-0.685781">
        <ele>957</ele>
        <time>2019-04-21T07:03:44.000Z</time>
      </trkpt>
      <trkpt lat="38.490967" lon="-0.685791">
        <ele>958</ele>
        <time>2019-04-21T07:03:47.000Z</time>
      </trkpt>
      <trkpt lat="38.490952" lon="-0.685812">
        <ele>958</ele>
        <time>2019-04-21T07:03:51.000Z</time>
      </trkpt>
      <trkpt lat="38.490947" lon="-0.68584">
        <ele>959</ele>
        <time>2019-04-21T07:03:54.000Z</time>
      </trkpt>
      <trkpt lat="38.490935" lon="-0.685862">
        <ele>960.242423458833</ele>
        <time>2019-04-21T07:03:57.000Z</time>
      </trkpt>
      <trkpt lat="38.490915" lon="-0.685868">
        <ele>962.2499968</ele>
        <time>2019-04-21T07:04:00.000Z</time>
      </trkpt>
      <trkpt lat="38.490895" lon="-0.685872">
        <ele>963</ele>
        <time>2019-04-21T07:04:03.000Z</time>
      </trkpt>
      <trkpt lat="38.490879" lon="-0.685889">
        <ele>965</ele>
        <time>2019-04-21T07:04:06.000Z</time>
      </trkpt>
      <trkpt lat="38.49087" lon="-0.685915">
        <ele>965</ele>
        <time>2019-04-21T07:04:10.000Z</time>
      </trkpt>
      <trkpt lat="38.490853" lon="-0.685932">
        <ele>965</ele>
        <time>2019-04-21T07:04:13.000Z</time>
      </trkpt>
      <trkpt lat="38.490838" lon="-0.68595">
        <ele>966</ele>
        <time>2019-04-21T07:04:16.000Z</time>
      </trkpt>
      <trkpt lat="38.490825" lon="-0.685971">
        <ele>966</ele>
        <time>2019-04-21T07:04:19.000Z</time>
      </trkpt>
      <trkpt lat="38.490814" lon="-0.685992">
        <ele>966</ele>
        <time>2019-04-21T07:04:22.000Z</time>
      </trkpt>
      <trkpt lat="38.490797" lon="-0.686">
        <ele>966.2499968</ele>
        <time>2019-04-21T07:04:24.000Z</time>
      </trkpt>
      <trkpt lat="38.490778" lon="-0.686016">
        <ele>967</ele>
        <time>2019-04-21T07:04:27.000Z</time>
      </trkpt>
      <trkpt lat="38.490761" lon="-0.686031">
        <ele>968.2499968</ele>
        <time>2019-04-21T07:04:30.000Z</time>
      </trkpt>
      <trkpt lat="38.49075" lon="-0.686055">
        <ele>970</ele>
        <time>2019-04-21T07:04:33.000Z</time>
      </trkpt>
      <trkpt lat="38.490738" lon="-0.686074">
        <ele>970.495044736775</ele>
        <time>2019-04-21T07:04:36.000Z</time>
      </trkpt>
      <trkpt lat="38.490719" lon="-0.686084">
        <ele>972</ele>
        <time>2019-04-21T07:04:39.000Z</time>
      </trkpt>
      <trkpt lat="38.490698" lon="-0.686095">
        <ele>972</ele>
        <time>2019-04-21T07:04:42.000Z</time>
      </trkpt>
      <trkpt lat="38.490692" lon="-0.686118">
        <ele>973</ele>
        <time>2019-04-21T07:05:01.000Z</time>
      </trkpt>
      <trkpt lat="38.490685" lon="-0.686141">
        <ele>974</ele>
        <time>2019-04-21T07:05:03.000Z</time>
      </trkpt>
      <trkpt lat="38.490686" lon="-0.686168">
        <ele>974</ele>
        <time>2019-04-21T07:05:05.000Z</time>
      </trkpt>
      <trkpt lat="38.490678" lon="-0.686191">
        <ele>975.184779130435</ele>
        <time>2019-04-21T07:05:07.000Z</time>
      </trkpt>
      <trkpt lat="38.490662" lon="-0.686207">
        <ele>976</ele>
        <time>2019-04-21T07:05:09.000Z</time>
      </trkpt>
      <trkpt lat="38.490641" lon="-0.686218">
        <ele>976</ele>
        <time>2019-04-21T07:05:11.000Z</time>
      </trkpt>
      <trkpt lat="38.490624" lon="-0.686234">
        <ele>976</ele>
        <time>2019-04-21T07:05:13.000Z</time>
      </trkpt>
      <trkpt lat="38.490616" lon="-0.68626">
        <ele>976</ele>
        <time>2019-04-21T07:05:15.000Z</time>
      </trkpt>
      <trkpt lat="38.490617" lon="-0.686286">
        <ele>976</ele>
        <time>2019-04-21T07:05:17.000Z</time>
      </trkpt>
      <trkpt lat="38.490602" lon="-0.686304">
        <ele>976</ele>
        <time>2019-04-21T07:05:19.000Z</time>
      </trkpt>
      <trkpt lat="38.490585" lon="-0.686326">
        <ele>977</ele>
        <time>2019-04-21T07:05:21.000Z</time>
      </trkpt>
      <trkpt lat="38.490565" lon="-0.686342">
        <ele>976</ele>
        <time>2019-04-21T07:05:23.000Z</time>
      </trkpt>
      <trkpt lat="38.49055" lon="-0.68636">
        <ele>976</ele>
        <time>2019-04-21T07:05:25.000Z</time>
      </trkpt>
      <trkpt lat="38.490534" lon="-0.686378">
        <ele>976</ele>
        <time>2019-04-21T07:05:29.000Z</time>
      </trkpt>
      <trkpt lat="38.490514" lon="-0.686388">
        <ele>976</ele>
        <time>2019-04-21T07:05:31.000Z</time>
      </trkpt>
      <trkpt lat="38.490496" lon="-0.686383">
        <ele>976</ele>
        <time>2019-04-21T07:05:33.000Z</time>
      </trkpt>
      <trkpt lat="38.490469" lon="-0.686383">
        <ele>976.242714585741</ele>
        <time>2019-04-21T07:05:36.000Z</time>
      </trkpt>
      <trkpt lat="38.490448" lon="-0.686382">
        <ele>978.157296745337</ele>
        <time>2019-04-21T07:05:39.000Z</time>
      </trkpt>
      <trkpt lat="38.490429" lon="-0.686377">
        <ele>979.17188</ele>
        <time>2019-04-21T07:05:42.000Z</time>
      </trkpt>
      <trkpt lat="38.49041" lon="-0.686365">
        <ele>980.202129687628</ele>
        <time>2019-04-21T07:05:45.000Z</time>
      </trkpt>
      <trkpt lat="38.49039" lon="-0.686349">
        <ele>981.231478518519</ele>
        <time>2019-04-21T07:05:49.000Z</time>
      </trkpt>
      <trkpt lat="38.490381" lon="-0.686318">
        <ele>982</ele>
        <time>2019-04-21T07:05:52.000Z</time>
      </trkpt>
      <trkpt lat="38.490365" lon="-0.686303">
        <ele>983.2499968</ele>
        <time>2019-04-21T07:05:56.000Z</time>
      </trkpt>
      <trkpt lat="38.490349" lon="-0.686292">
        <ele>985.229355535723</ele>
        <time>2019-04-21T07:05:59.000Z</time>
      </trkpt>
      <trkpt lat="38.490342" lon="-0.686262">
        <ele>986.95419369968</ele>
        <time>2019-04-21T07:06:02.000Z</time>
      </trkpt>
      <trkpt lat="38.49034" lon="-0.686238">
        <ele>987</ele>
        <time>2019-04-21T07:06:05.000Z</time>
      </trkpt>
      <trkpt lat="38.490332" lon="-0.686214">
        <ele>988</ele>
        <time>2019-04-21T07:06:08.000Z</time>
      </trkpt>
      <trkpt lat="38.490328" lon="-0.68619">
        <ele>988</ele>
        <time>2019-04-21T07:06:10.000Z</time>
      </trkpt>
      <trkpt lat="38.490326" lon="-0.686164">
        <ele>988</ele>
        <time>2019-04-21T07:06:12.000Z</time>
      </trkpt>
      <trkpt lat="38.490324" lon="-0.686138">
        <ele>988</ele>
        <time>2019-04-21T07:06:14.000Z</time>
      </trkpt>
      <trkpt lat="38.49032" lon="-0.686112">
        <ele>988</ele>
        <time>2019-04-21T07:06:16.000Z</time>
      </trkpt>
      <trkpt lat="38.490314" lon="-0.686089">
        <ele>989</ele>
        <time>2019-04-21T07:06:18.000Z</time>
      </trkpt>
      <trkpt lat="38.49031" lon="-0.686064">
        <ele>988.809161349579</ele>
        <time>2019-04-21T07:06:20.000Z</time>
      </trkpt>
      <trkpt lat="38.49031" lon="-0.686042">
        <ele>987</ele>
        <time>2019-04-21T07:06:22.000Z</time>
      </trkpt>
      <trkpt lat="38.490308" lon="-0.686018">
        <ele>987.223211428571</ele>
        <time>2019-04-21T07:06:24.000Z</time>
      </trkpt>
      <trkpt lat="38.4903" lon="-0.685988">
        <ele>989.240381538462</ele>
        <time>2019-04-21T07:06:27.000Z</time>
      </trkpt>
      <trkpt lat="38.490288" lon="-0.685966">
        <ele>990.221236732706</ele>
        <time>2019-04-21T07:06:29.000Z</time>
      </trkpt>
      <trkpt lat="38.490272" lon="-0.685951">
        <ele>991</ele>
        <time>2019-04-21T07:06:32.000Z</time>
      </trkpt>
      <trkpt lat="38.49027" lon="-0.685926">
        <ele>989.823945122006</ele>
        <time>2019-04-21T07:06:39.000Z</time>
      </trkpt>
      <trkpt lat="38.490266" lon="-0.685904">
        <ele>990</ele>
        <time>2019-04-21T07:06:41.000Z</time>
      </trkpt>
      <trkpt lat="38.490258" lon="-0.685877">
        <ele>993.242423458833</ele>
        <time>2019-04-21T07:06:43.000Z</time>
      </trkpt>
      <trkpt lat="38.490246" lon="-0.685856">
        <ele>993.175823557543</ele>
        <time>2019-04-21T07:06:45.000Z</time>
      </trkpt>
      <trkpt lat="38.490234" lon="-0.685834">
        <ele>995</ele>
        <time>2019-04-21T07:06:47.000Z</time>
      </trkpt>
      <trkpt lat="38.490228" lon="-0.685812">
        <ele>995</ele>
        <time>2019-04-21T07:06:49.000Z</time>
      </trkpt>
      <trkpt lat="38.490228" lon="-0.685784">
        <ele>995</ele>
        <time>2019-04-21T07:06:51.000Z</time>
      </trkpt>
      <trkpt lat="38.49023" lon="-0.685753">
        <ele>995</ele>
        <time>2019-04-21T07:06:53.000Z</time>
      </trkpt>
      <trkpt lat="38.490226" lon="-0.685725">
        <ele>995</ele>
        <time>2019-04-21T07:06:55.000Z</time>
      </trkpt>
      <trkpt lat="38.490222" lon="-0.685698">
        <ele>993.752477631612</ele>
        <time>2019-04-21T07:06:57.000Z</time>
      </trkpt>
      <trkpt lat="38.490222" lon="-0.685669">
        <ele>993</ele>
        <time>2019-04-21T07:06:59.000Z</time>
      </trkpt>
      <trkpt lat="38.490222" lon="-0.68564">
        <ele>992</ele>
        <time>2019-04-21T07:07:01.000Z</time>
      </trkpt>
      <trkpt lat="38.490223" lon="-0.68561">
        <ele>993</ele>
        <time>2019-04-21T07:07:03.000Z</time>
      </trkpt>
      <trkpt lat="38.490218" lon="-0.685576">
        <ele>993</ele>
        <time>2019-04-21T07:07:05.000Z</time>
      </trkpt>
      <trkpt lat="38.490207" lon="-0.685556">
        <ele>994.2499968</ele>
        <time>2019-04-21T07:07:07.000Z</time>
      </trkpt>
      <trkpt lat="38.490184" lon="-0.685541">
        <ele>996</ele>
        <time>2019-04-21T07:07:10.000Z</time>
      </trkpt>
      <trkpt lat="38.490175" lon="-0.685512">
        <ele>996</ele>
        <time>2019-04-21T07:07:13.000Z</time>
      </trkpt>
      <trkpt lat="38.490176" lon="-0.685482">
        <ele>996</ele>
        <time>2019-04-21T07:07:15.000Z</time>
      </trkpt>
      <trkpt lat="38.490177" lon="-0.685452">
        <ele>996</ele>
        <time>2019-04-21T07:07:17.000Z</time>
      </trkpt>
      <trkpt lat="38.490172" lon="-0.685425">
        <ele>996</ele>
        <time>2019-04-21T07:07:19.000Z</time>
      </trkpt>
      <trkpt lat="38.490159" lon="-0.685404">
        <ele>998.21948889688</ele>
        <time>2019-04-21T07:07:21.000Z</time>
      </trkpt>
      <trkpt lat="38.490143" lon="-0.685374">
        <ele>999</ele>
        <time>2019-04-21T07:07:24.000Z</time>
      </trkpt>
      <trkpt lat="38.490128" lon="-0.685359">
        <ele>1000.24752236839</ele>
        <time>2019-04-21T07:07:26.000Z</time>
      </trkpt>
      <trkpt lat="38.49012" lon="-0.685337">
        <ele>1001</ele>
        <time>2019-04-21T07:07:28.000Z</time>
      </trkpt>
      <trkpt lat="38.490123" lon="-0.685307">
        <ele>1000</ele>
        <time>2019-04-21T07:07:30.000Z</time>
      </trkpt>
      <trkpt lat="38.490123" lon="-0.685279">
        <ele>1000.24242345883</ele>
        <time>2019-04-21T07:07:32.000Z</time>
      </trkpt>
      <trkpt lat="38.490119" lon="-0.68525">
        <ele>1000.82417644246</ele>
        <time>2019-04-21T07:07:34.000Z</time>
      </trkpt>
      <trkpt lat="38.490115" lon="-0.68522">
        <ele>999</ele>
        <time>2019-04-21T07:07:36.000Z</time>
      </trkpt>
      <trkpt lat="38.490112" lon="-0.68519">
        <ele>999</ele>
        <time>2019-04-21T07:07:38.000Z</time>
      </trkpt>
      <trkpt lat="38.49011" lon="-0.685164">
        <ele>998.7500032</ele>
        <time>2019-04-21T07:07:40.000Z</time>
      </trkpt>
      <trkpt lat="38.490107" lon="-0.685139">
        <ele>998.234695610151</ele>
        <time>2019-04-21T07:07:42.000Z</time>
      </trkpt>
      <trkpt lat="38.490091" lon="-0.685122">
        <ele>999.175823557543</ele>
        <time>2019-04-21T07:07:44.000Z</time>
      </trkpt>
      <trkpt lat="38.490077" lon="-0.685101">
        <ele>1000</ele>
        <time>2019-04-21T07:07:46.000Z</time>
      </trkpt>
      <trkpt lat="38.490071" lon="-0.685071">
        <ele>999</ele>
        <time>2019-04-21T07:07:48.000Z</time>
      </trkpt>
      <trkpt lat="38.490064" lon="-0.685043">
        <ele>999</ele>
        <time>2019-04-21T07:07:50.000Z</time>
      </trkpt>
      <trkpt lat="38.490063" lon="-0.685017">
        <ele>999</ele>
        <time>2019-04-21T07:07:52.000Z</time>
      </trkpt>
      <trkpt lat="38.49006" lon="-0.684994">
        <ele>999</ele>
        <time>2019-04-21T07:07:54.000Z</time>
      </trkpt>
      <trkpt lat="38.490076" lon="-0.685005">
        <ele>995</ele>
        <time>2019-04-21T07:08:33.000Z</time>
      </trkpt>
      <trkpt lat="38.490093" lon="-0.685022">
        <ele>998.774775709772</ele>
        <time>2019-04-21T07:08:57.000Z</time>
      </trkpt>
      <trkpt lat="38.49011" lon="-0.685005">
        <ele>994</ele>
        <time>2019-04-21T07:09:10.000Z</time>
      </trkpt>
      <trkpt lat="38.490131" lon="-0.684997">
        <ele>992.778763267294</ele>
        <time>2019-04-21T07:09:20.000Z</time>
      </trkpt>
      <trkpt lat="38.490139" lon="-0.684976">
        <ele>989</ele>
        <time>2019-04-21T07:09:29.000Z</time>
      </trkpt>
      <trkpt lat="38.490155" lon="-0.684965">
        <ele>986.772728859513</ele>
        <time>2019-04-21T07:09:40.000Z</time>
      </trkpt>
      <trkpt lat="38.490176" lon="-0.684972">
        <ele>985.754903560179</ele>
        <time>2019-04-21T07:09:43.000Z</time>
      </trkpt>
      <trkpt lat="38.490194" lon="-0.684974">
        <ele>983</ele>
        <time>2019-04-21T07:09:47.000Z</time>
      </trkpt>
      <trkpt lat="38.490205" lon="-0.684993">
        <ele>983</ele>
        <time>2019-04-21T07:09:58.000Z</time>
      </trkpt>
      <trkpt lat="38.490227" lon="-0.685012">
        <ele>982</ele>
        <time>2019-04-21T07:10:01.000Z</time>
      </trkpt>
      <trkpt lat="38.490244" lon="-0.685028">
        <ele>982.184779130435</ele>
        <time>2019-04-21T07:10:03.000Z</time>
      </trkpt>
      <trkpt lat="38.49026" lon="-0.685046">
        <ele>983</ele>
        <time>2019-04-21T07:10:05.000Z</time>
      </trkpt>
      <trkpt lat="38.490282" lon="-0.685063">
        <ele>980.876030085369</ele>
        <time>2019-04-21T07:10:08.000Z</time>
      </trkpt>
      <trkpt lat="38.490302" lon="-0.68508">
        <ele>979</ele>
        <time>2019-04-21T07:10:11.000Z</time>
      </trkpt>
      <trkpt lat="38.490322" lon="-0.685098">
        <ele>978</ele>
        <time>2019-04-21T07:10:14.000Z</time>
      </trkpt>
      <trkpt lat="38.490343" lon="-0.685088">
        <ele>977</ele>
        <time>2019-04-21T07:10:18.000Z</time>
      </trkpt>
      <trkpt lat="38.490365" lon="-0.685092">
        <ele>977</ele>
        <time>2019-04-21T07:10:21.000Z</time>
      </trkpt>
      <trkpt lat="38.490385" lon="-0.685094">
        <ele>977</ele>
        <time>2019-04-21T07:10:24.000Z</time>
      </trkpt>
      <trkpt lat="38.490407" lon="-0.685092">
        <ele>977</ele>
        <time>2019-04-21T07:10:27.000Z</time>
      </trkpt>
      <trkpt lat="38.490415" lon="-0.685064">
        <ele>976.781253333333</ele>
        <time>2019-04-21T07:10:30.000Z</time>
      </trkpt>
      <trkpt lat="38.490438" lon="-0.685054">
        <ele>974.761907083907</ele>
        <time>2019-04-21T07:10:34.000Z</time>
      </trkpt>
      <trkpt lat="38.490451" lon="-0.685036">
        <ele>974</ele>
        <time>2019-04-21T07:10:36.000Z</time>
      </trkpt>
      <trkpt lat="38.490471" lon="-0.685032">
        <ele>972.76415253828</ele>
        <time>2019-04-21T07:10:39.000Z</time>
      </trkpt>
      <trkpt lat="38.490493" lon="-0.685032">
        <ele>972</ele>
        <time>2019-04-21T07:10:41.000Z</time>
      </trkpt>
      <trkpt lat="38.490503" lon="-0.685014">
        <ele>971.7500032</ele>
        <time>2019-04-21T07:10:43.000Z</time>
      </trkpt>
      <trkpt lat="38.490521" lon="-0.684996">
        <ele>971.826391111111</ele>
        <time>2019-04-21T07:10:46.000Z</time>
      </trkpt>
      <trkpt lat="38.490533" lon="-0.68498">
        <ele>970</ele>
        <time>2019-04-21T07:10:48.000Z</time>
      </trkpt>
      <trkpt lat="38.490547" lon="-0.684964">
        <ele>970</ele>
        <time>2019-04-21T07:10:50.000Z</time>
      </trkpt>
      <trkpt lat="38.49056" lon="-0.684943">
        <ele>969.852276363636</ele>
        <time>2019-04-21T07:10:52.000Z</time>
      </trkpt>
      <trkpt lat="38.490571" lon="-0.684922">
        <ele>969</ele>
        <time>2019-04-21T07:10:54.000Z</time>
      </trkpt>
      <trkpt lat="38.490577" lon="-0.684893">
        <ele>969</ele>
        <time>2019-04-21T07:10:56.000Z</time>
      </trkpt>
      <trkpt lat="38.490577" lon="-0.684858">
        <ele>968.050425410621</ele>
        <time>2019-04-21T07:10:58.000Z</time>
      </trkpt>
      <trkpt lat="38.490579" lon="-0.684828">
        <ele>967</ele>
        <time>2019-04-21T07:11:00.000Z</time>
      </trkpt>
      <trkpt lat="38.490583" lon="-0.684799">
        <ele>967</ele>
        <time>2019-04-21T07:11:02.000Z</time>
      </trkpt>
      <trkpt lat="38.490582" lon="-0.684772">
        <ele>967</ele>
        <time>2019-04-21T07:11:04.000Z</time>
      </trkpt>
      <trkpt lat="38.49058" lon="-0.684746">
        <ele>967</ele>
        <time>2019-04-21T07:11:06.000Z</time>
      </trkpt>
      <trkpt lat="38.490585" lon="-0.68472">
        <ele>966.815220869565</ele>
        <time>2019-04-21T07:11:08.000Z</time>
      </trkpt>
      <trkpt lat="38.490581" lon="-0.684692">
        <ele>966</ele>
        <time>2019-04-21T07:11:10.000Z</time>
      </trkpt>
      <trkpt lat="38.490576" lon="-0.684667">
        <ele>966.842691135017</ele>
        <time>2019-04-21T07:11:12.000Z</time>
      </trkpt>
      <trkpt lat="38.490578" lon="-0.684638">
        <ele>966</ele>
        <time>2019-04-21T07:11:14.000Z</time>
      </trkpt>
      <trkpt lat="38.490576" lon="-0.684611">
        <ele>965.776788571429</ele>
        <time>2019-04-21T07:11:16.000Z</time>
      </trkpt>
      <trkpt lat="38.490584" lon="-0.684589">
        <ele>965</ele>
        <time>2019-04-21T07:11:18.000Z</time>
      </trkpt>
      <trkpt lat="38.490601" lon="-0.684572">
        <ele>965</ele>
        <time>2019-04-21T07:11:20.000Z</time>
      </trkpt>
      <trkpt lat="38.490615" lon="-0.68455">
        <ele>964.778763267294</ele>
        <time>2019-04-21T07:11:22.000Z</time>
      </trkpt>
      <trkpt lat="38.490635" lon="-0.684538">
        <ele>964</ele>
        <time>2019-04-21T07:11:24.000Z</time>
      </trkpt>
      <trkpt lat="38.490658" lon="-0.684531">
        <ele>964</ele>
        <time>2019-04-21T07:11:26.000Z</time>
      </trkpt>
      <trkpt lat="38.490677" lon="-0.684512">
        <ele>961.778763267294</ele>
        <time>2019-04-21T07:11:28.000Z</time>
      </trkpt>
      <trkpt lat="38.490688" lon="-0.684492">
        <ele>960.7500032</ele>
        <time>2019-04-21T07:11:30.000Z</time>
      </trkpt>
      <trkpt lat="38.490702" lon="-0.684475">
        <ele>960.202129687628</ele>
        <time>2019-04-21T07:11:32.000Z</time>
      </trkpt>
      <trkpt lat="38.490713" lon="-0.684455">
        <ele>959.7500032</ele>
        <time>2019-04-21T07:11:40.000Z</time>
      </trkpt>
      <trkpt lat="38.490728" lon="-0.684439">
        <ele>959</ele>
        <time>2019-04-21T07:11:42.000Z</time>
      </trkpt>
      <trkpt lat="38.490729" lon="-0.684413">
        <ele>958.04580630032</ele>
        <time>2019-04-21T07:11:44.000Z</time>
      </trkpt>
      <trkpt lat="38.490735" lon="-0.684389">
        <ele>957</ele>
        <time>2019-04-21T07:11:46.000Z</time>
      </trkpt>
      <trkpt lat="38.490751" lon="-0.684362">
        <ele>957</ele>
        <time>2019-04-21T07:11:49.000Z</time>
      </trkpt>
      <trkpt lat="38.490764" lon="-0.684344">
        <ele>956.087591445469</ele>
        <time>2019-04-21T07:11:51.000Z</time>
      </trkpt>
      <trkpt lat="38.490779" lon="-0.684315">
        <ele>956</ele>
        <time>2019-04-21T07:11:54.000Z</time>
      </trkpt>
      <trkpt lat="38.490791" lon="-0.684297">
        <ele>955.862069472848</ele>
        <time>2019-04-21T07:11:56.000Z</time>
      </trkpt>
      <trkpt lat="38.490806" lon="-0.68428">
        <ele>954.76415253828</ele>
        <time>2019-04-21T07:11:58.000Z</time>
      </trkpt>
      <trkpt lat="38.490831" lon="-0.684265">
        <ele>953.780703330264</ele>
        <time>2019-04-21T07:12:00.000Z</time>
      </trkpt>
      <trkpt lat="38.490856" lon="-0.684246">
        <ele>953</ele>
        <time>2019-04-21T07:12:02.000Z</time>
      </trkpt>
      <trkpt lat="38.49087" lon="-0.68423">
        <ele>953</ele>
        <time>2019-04-21T07:12:03.000Z</time>
      </trkpt>
      <trkpt lat="38.490882" lon="-0.684209">
        <ele>953</ele>
        <time>2019-04-21T07:12:04.000Z</time>
      </trkpt>
      <trkpt lat="38.490908" lon="-0.684187">
        <ele>951.7500032</ele>
        <time>2019-04-21T07:12:06.000Z</time>
      </trkpt>
      <trkpt lat="38.490944" lon="-0.684174">
        <ele>950</ele>
        <time>2019-04-21T07:12:08.000Z</time>
      </trkpt>
      <trkpt lat="38.490958" lon="-0.684159">
        <ele>950</ele>
        <time>2019-04-21T07:12:09.000Z</time>
      </trkpt>
      <trkpt lat="38.490982" lon="-0.684131">
        <ele>950</ele>
        <time>2019-04-21T07:12:11.000Z</time>
      </trkpt>
      <trkpt lat="38.490996" lon="-0.684114">
        <ele>950</ele>
        <time>2019-04-21T07:12:12.000Z</time>
      </trkpt>
      <trkpt lat="38.491006" lon="-0.684088">
        <ele>950</ele>
        <time>2019-04-21T07:12:13.000Z</time>
      </trkpt>
      <trkpt lat="38.491012" lon="-0.684058">
        <ele>950</ele>
        <time>2019-04-21T07:12:14.000Z</time>
      </trkpt>
      <trkpt lat="38.491017" lon="-0.684033">
        <ele>950</ele>
        <time>2019-04-21T07:12:15.000Z</time>
      </trkpt>
      <trkpt lat="38.491022" lon="-0.684008">
        <ele>949.7500032</ele>
        <time>2019-04-21T07:12:16.000Z</time>
      </trkpt>
      <trkpt lat="38.491026" lon="-0.68398">
        <ele>949</ele>
        <time>2019-04-21T07:12:17.000Z</time>
      </trkpt>
      <trkpt lat="38.491028" lon="-0.683955">
        <ele>948.7500032</ele>
        <time>2019-04-21T07:12:18.000Z</time>
      </trkpt>
      <trkpt lat="38.491036" lon="-0.683932">
        <ele>948</ele>
        <time>2019-04-21T07:12:19.000Z</time>
      </trkpt>
      <trkpt lat="38.491044" lon="-0.683909">
        <ele>948</ele>
        <time>2019-04-21T07:12:20.000Z</time>
      </trkpt>
      <trkpt lat="38.491054" lon="-0.683888">
        <ele>948</ele>
        <time>2019-04-21T07:12:21.000Z</time>
      </trkpt>
      <trkpt lat="38.49106" lon="-0.683864">
        <ele>948</ele>
        <time>2019-04-21T07:12:22.000Z</time>
      </trkpt>
      <trkpt lat="38.491066" lon="-0.683838">
        <ele>948</ele>
        <time>2019-04-21T07:12:23.000Z</time>
      </trkpt>
      <trkpt lat="38.491064" lon="-0.68381">
        <ele>947.815220869565</ele>
        <time>2019-04-21T07:12:24.000Z</time>
      </trkpt>
      <trkpt lat="38.491062" lon="-0.683783">
        <ele>947</ele>
        <time>2019-04-21T07:12:25.000Z</time>
      </trkpt>
      <trkpt lat="38.491058" lon="-0.683759">
        <ele>947</ele>
        <time>2019-04-21T07:12:26.000Z</time>
      </trkpt>
      <trkpt lat="38.49105" lon="-0.683738">
        <ele>947</ele>
        <time>2019-04-21T07:12:27.000Z</time>
      </trkpt>
      <trkpt lat="38.491044" lon="-0.683699">
        <ele>947</ele>
        <time>2019-04-21T07:12:29.000Z</time>
      </trkpt>
      <trkpt lat="38.49105" lon="-0.683661">
        <ele>948</ele>
        <time>2019-04-21T07:12:31.000Z</time>
      </trkpt>
      <trkpt lat="38.491056" lon="-0.683636">
        <ele>947.7500032</ele>
        <time>2019-04-21T07:12:32.000Z</time>
      </trkpt>
      <trkpt lat="38.491062" lon="-0.683608">
        <ele>946.761907083907</ele>
        <time>2019-04-21T07:12:33.000Z</time>
      </trkpt>
      <trkpt lat="38.49107" lon="-0.683583">
        <ele>946</ele>
        <time>2019-04-21T07:12:34.000Z</time>
      </trkpt>
      <trkpt lat="38.491071" lon="-0.683552">
        <ele>946</ele>
        <time>2019-04-21T07:12:35.000Z</time>
      </trkpt>
      <trkpt lat="38.491071" lon="-0.683522">
        <ele>946</ele>
        <time>2019-04-21T07:12:36.000Z</time>
      </trkpt>
      <trkpt lat="38.491072" lon="-0.683492">
        <ele>945.757576541167</ele>
        <time>2019-04-21T07:12:37.000Z</time>
      </trkpt>
      <trkpt lat="38.491076" lon="-0.683465">
        <ele>945</ele>
        <time>2019-04-21T07:12:38.000Z</time>
      </trkpt>
      <trkpt lat="38.491086" lon="-0.683437">
        <ele>945</ele>
        <time>2019-04-21T07:12:39.000Z</time>
      </trkpt>
      <trkpt lat="38.491096" lon="-0.683407">
        <ele>945</ele>
        <time>2019-04-21T07:12:40.000Z</time>
      </trkpt>
      <trkpt lat="38.49111" lon="-0.683378">
        <ele>945</ele>
        <time>2019-04-21T07:12:41.000Z</time>
      </trkpt>
      <trkpt lat="38.491114" lon="-0.683348">
        <ele>945</ele>
        <time>2019-04-21T07:12:42.000Z</time>
      </trkpt>
      <trkpt lat="38.491116" lon="-0.683319">
        <ele>944.7500032</ele>
        <time>2019-04-21T07:12:43.000Z</time>
      </trkpt>
      <trkpt lat="38.49111" lon="-0.683292">
        <ele>944</ele>
        <time>2019-04-21T07:12:44.000Z</time>
      </trkpt>
      <trkpt lat="38.49111" lon="-0.683265">
        <ele>944</ele>
        <time>2019-04-21T07:12:45.000Z</time>
      </trkpt>
      <trkpt lat="38.491112" lon="-0.683239">
        <ele>944</ele>
        <time>2019-04-21T07:12:46.000Z</time>
      </trkpt>
      <trkpt lat="38.491114" lon="-0.683212">
        <ele>944</ele>
        <time>2019-04-21T07:12:47.000Z</time>
      </trkpt>
      <trkpt lat="38.49112" lon="-0.683188">
        <ele>944</ele>
        <time>2019-04-21T07:12:48.000Z</time>
      </trkpt>
      <trkpt lat="38.49113" lon="-0.683166">
        <ele>944</ele>
        <time>2019-04-21T07:12:49.000Z</time>
      </trkpt>
      <trkpt lat="38.491138" lon="-0.683144">
        <ele>944</ele>
        <time>2019-04-21T07:12:50.000Z</time>
      </trkpt>
      <trkpt lat="38.491148" lon="-0.683121">
        <ele>944</ele>
        <time>2019-04-21T07:12:51.000Z</time>
      </trkpt>
      <trkpt lat="38.491156" lon="-0.683098">
        <ele>943.7500032</ele>
        <time>2019-04-21T07:12:52.000Z</time>
      </trkpt>
      <trkpt lat="38.49117" lon="-0.683072">
        <ele>943</ele>
        <time>2019-04-21T07:12:53.000Z</time>
      </trkpt>
      <trkpt lat="38.491178" lon="-0.683045">
        <ele>942.752477631612</ele>
        <time>2019-04-21T07:12:54.000Z</time>
      </trkpt>
      <trkpt lat="38.491185" lon="-0.683017">
        <ele>942</ele>
        <time>2019-04-21T07:12:55.000Z</time>
      </trkpt>
      <trkpt lat="38.491194" lon="-0.682992">
        <ele>941.7500032</ele>
        <time>2019-04-21T07:12:56.000Z</time>
      </trkpt>
      <trkpt lat="38.491208" lon="-0.682966">
        <ele>941</ele>
        <time>2019-04-21T07:12:57.000Z</time>
      </trkpt>
      <trkpt lat="38.49122" lon="-0.682945">
        <ele>941</ele>
        <time>2019-04-21T07:12:58.000Z</time>
      </trkpt>
      <trkpt lat="38.491237" lon="-0.682921">
        <ele>940.809163214258</ele>
        <time>2019-04-21T07:12:59.000Z</time>
      </trkpt>
      <trkpt lat="38.491248" lon="-0.682894">
        <ele>940.04580630032</ele>
        <time>2019-04-21T07:13:00.000Z</time>
      </trkpt>
      <trkpt lat="38.491259" lon="-0.682866">
        <ele>939</ele>
        <time>2019-04-21T07:13:01.000Z</time>
      </trkpt>
      <trkpt lat="38.491271" lon="-0.682836">
        <ele>939</ele>
        <time>2019-04-21T07:13:02.000Z</time>
      </trkpt>
      <trkpt lat="38.491283" lon="-0.682806">
        <ele>939</ele>
        <time>2019-04-21T07:13:03.000Z</time>
      </trkpt>
      <trkpt lat="38.491296" lon="-0.682781">
        <ele>939</ele>
        <time>2019-04-21T07:13:04.000Z</time>
      </trkpt>
      <trkpt lat="38.491312" lon="-0.682766">
        <ele>938.7500032</ele>
        <time>2019-04-21T07:13:05.000Z</time>
      </trkpt>
      <trkpt lat="38.491331" lon="-0.68276">
        <ele>938</ele>
        <time>2019-04-21T07:13:06.000Z</time>
      </trkpt>
      <trkpt lat="38.49135" lon="-0.682758">
        <ele>938</ele>
        <time>2019-04-21T07:13:07.000Z</time>
      </trkpt>
      <trkpt lat="38.491368" lon="-0.68276">
        <ele>938</ele>
        <time>2019-04-21T07:13:08.000Z</time>
      </trkpt>
      <trkpt lat="38.491386" lon="-0.682765">
        <ele>937.7500032</ele>
        <time>2019-04-21T07:13:09.000Z</time>
      </trkpt>
      <trkpt lat="38.491408" lon="-0.68277">
        <ele>936.7500032</ele>
        <time>2019-04-21T07:13:10.000Z</time>
      </trkpt>
      <trkpt lat="38.491432" lon="-0.682774">
        <ele>935.7500032</ele>
        <time>2019-04-21T07:13:11.000Z</time>
      </trkpt>
      <trkpt lat="38.491454" lon="-0.682772">
        <ele>934.766356034596</ele>
        <time>2019-04-21T07:13:12.000Z</time>
      </trkpt>
      <trkpt lat="38.491476" lon="-0.682764">
        <ele>934</ele>
        <time>2019-04-21T07:13:13.000Z</time>
      </trkpt>
      <trkpt lat="38.491498" lon="-0.682751">
        <ele>934.2499968</ele>
        <time>2019-04-21T07:13:14.000Z</time>
      </trkpt>
      <trkpt lat="38.491519" lon="-0.682734">
        <ele>935</ele>
        <time>2019-04-21T07:13:15.000Z</time>
      </trkpt>
      <trkpt lat="38.491541" lon="-0.682717">
        <ele>935</ele>
        <time>2019-04-21T07:13:16.000Z</time>
      </trkpt>
      <trkpt lat="38.491558" lon="-0.682696">
        <ele>935</ele>
        <time>2019-04-21T07:13:17.000Z</time>
      </trkpt>
      <trkpt lat="38.491573" lon="-0.682677">
        <ele>935.125002666667</ele>
        <time>2019-04-21T07:13:18.000Z</time>
      </trkpt>
      <trkpt lat="38.491587" lon="-0.682655">
        <ele>935.958336</ele>
        <time>2019-04-21T07:13:19.000Z</time>
      </trkpt>
      <trkpt lat="38.491601" lon="-0.682635">
        <ele>936</ele>
        <time>2019-04-21T07:13:20.000Z</time>
      </trkpt>
      <trkpt lat="38.491619" lon="-0.68262">
        <ele>936</ele>
        <time>2019-04-21T07:13:21.000Z</time>
      </trkpt>
      <trkpt lat="38.491637" lon="-0.682608">
        <ele>936</ele>
        <time>2019-04-21T07:13:22.000Z</time>
      </trkpt>
      <trkpt lat="38.491657" lon="-0.682596">
        <ele>935.872090254212</ele>
        <time>2019-04-21T07:13:23.000Z</time>
      </trkpt>
      <trkpt lat="38.491678" lon="-0.682584">
        <ele>935.2499968</ele>
        <time>2019-04-21T07:13:24.000Z</time>
      </trkpt>
      <trkpt lat="38.4917" lon="-0.682575">
        <ele>936</ele>
        <time>2019-04-21T07:13:25.000Z</time>
      </trkpt>
      <trkpt lat="38.49172" lon="-0.682566">
        <ele>936</ele>
        <time>2019-04-21T07:13:26.000Z</time>
      </trkpt>
      <trkpt lat="38.49174" lon="-0.682558">
        <ele>936</ele>
        <time>2019-04-21T07:13:27.000Z</time>
      </trkpt>
      <trkpt lat="38.491759" lon="-0.682545">
        <ele>936.2499968</ele>
        <time>2019-04-21T07:13:28.000Z</time>
      </trkpt>
      <trkpt lat="38.491777" lon="-0.682531">
        <ele>937</ele>
        <time>2019-04-21T07:13:29.000Z</time>
      </trkpt>
      <trkpt lat="38.491795" lon="-0.682515">
        <ele>937</ele>
        <time>2019-04-21T07:13:30.000Z</time>
      </trkpt>
      <trkpt lat="38.491812" lon="-0.682497">
        <ele>937</ele>
        <time>2019-04-21T07:13:31.000Z</time>
      </trkpt>
      <trkpt lat="38.491828" lon="-0.682475">
        <ele>937</ele>
        <time>2019-04-21T07:13:32.000Z</time>
      </trkpt>
      <trkpt lat="38.491842" lon="-0.682451">
        <ele>936.7500032</ele>
        <time>2019-04-21T07:13:33.000Z</time>
      </trkpt>
      <trkpt lat="38.491853" lon="-0.682424">
        <ele>935.7500032</ele>
        <time>2019-04-21T07:13:34.000Z</time>
      </trkpt>
      <trkpt lat="38.491867" lon="-0.682399">
        <ele>935.2499968</ele>
        <time>2019-04-21T07:13:35.000Z</time>
      </trkpt>
      <trkpt lat="38.491885" lon="-0.682379">
        <ele>936</ele>
        <time>2019-04-21T07:13:36.000Z</time>
      </trkpt>
      <trkpt lat="38.491904" lon="-0.682366">
        <ele>936.190836785742</ele>
        <time>2019-04-21T07:13:37.000Z</time>
      </trkpt>
      <trkpt lat="38.491922" lon="-0.682356">
        <ele>936.95419369968</ele>
        <time>2019-04-21T07:13:38.000Z</time>
      </trkpt>
      <trkpt lat="38.49194" lon="-0.682347">
        <ele>937</ele>
        <time>2019-04-21T07:13:39.000Z</time>
      </trkpt>
      <trkpt lat="38.49196" lon="-0.682339">
        <ele>937</ele>
        <time>2019-04-21T07:13:40.000Z</time>
      </trkpt>
      <trkpt lat="38.491993" lon="-0.682326">
        <ele>937</ele>
        <time>2019-04-21T07:13:42.000Z</time>
      </trkpt>
      <trkpt lat="38.492019" lon="-0.682307">
        <ele>938</ele>
        <time>2019-04-21T07:13:44.000Z</time>
      </trkpt>
      <trkpt lat="38.49204" lon="-0.68229">
        <ele>938.2499968</ele>
        <time>2019-04-21T07:13:46.000Z</time>
      </trkpt>
      <trkpt lat="38.492056" lon="-0.682271">
        <ele>939.2499968</ele>
        <time>2019-04-21T07:13:48.000Z</time>
      </trkpt>
      <trkpt lat="38.49207" lon="-0.682243">
        <ele>940</ele>
        <time>2019-04-21T07:13:50.000Z</time>
      </trkpt>
      <trkpt lat="38.492089" lon="-0.68222">
        <ele>940</ele>
        <time>2019-04-21T07:13:52.000Z</time>
      </trkpt>
      <trkpt lat="38.492104" lon="-0.682195">
        <ele>940</ele>
        <time>2019-04-21T07:13:54.000Z</time>
      </trkpt>
      <trkpt lat="38.492123" lon="-0.682177">
        <ele>941</ele>
        <time>2019-04-21T07:13:56.000Z</time>
      </trkpt>
      <trkpt lat="38.492144" lon="-0.682164">
        <ele>941</ele>
        <time>2019-04-21T07:13:58.000Z</time>
      </trkpt>
      <trkpt lat="38.492161" lon="-0.682138">
        <ele>941</ele>
        <time>2019-04-21T07:14:00.000Z</time>
      </trkpt>
      <trkpt lat="38.492177" lon="-0.682117">
        <ele>941</ele>
        <time>2019-04-21T07:14:02.000Z</time>
      </trkpt>
      <trkpt lat="38.492196" lon="-0.682093">
        <ele>942</ele>
        <time>2019-04-21T07:14:04.000Z</time>
      </trkpt>
      <trkpt lat="38.492212" lon="-0.682071">
        <ele>942</ele>
        <time>2019-04-21T07:14:06.000Z</time>
      </trkpt>
      <trkpt lat="38.492233" lon="-0.682065">
        <ele>942.2499968</ele>
        <time>2019-04-21T07:14:08.000Z</time>
      </trkpt>
      <trkpt lat="38.492252" lon="-0.682049">
        <ele>944</ele>
        <time>2019-04-21T07:14:10.000Z</time>
      </trkpt>
      <trkpt lat="38.492274" lon="-0.682028">
        <ele>945</ele>
        <time>2019-04-21T07:14:12.000Z</time>
      </trkpt>
      <trkpt lat="38.492289" lon="-0.682004">
        <ele>945</ele>
        <time>2019-04-21T07:14:14.000Z</time>
      </trkpt>
      <trkpt lat="38.492304" lon="-0.681971">
        <ele>945</ele>
        <time>2019-04-21T07:14:16.000Z</time>
      </trkpt>
      <trkpt lat="38.492317" lon="-0.681952">
        <ele>945</ele>
        <time>2019-04-21T07:14:18.000Z</time>
      </trkpt>
      <trkpt lat="38.492339" lon="-0.681947">
        <ele>945</ele>
        <time>2019-04-21T07:14:20.000Z</time>
      </trkpt>
      <trkpt lat="38.492358" lon="-0.681932">
        <ele>946</ele>
        <time>2019-04-21T07:14:22.000Z</time>
      </trkpt>
      <trkpt lat="38.492378" lon="-0.681921">
        <ele>946</ele>
        <time>2019-04-21T07:14:24.000Z</time>
      </trkpt>
      <trkpt lat="38.492394" lon="-0.681905">
        <ele>947.2499968</ele>
        <time>2019-04-21T07:14:26.000Z</time>
      </trkpt>
      <trkpt lat="38.492409" lon="-0.681881">
        <ele>948</ele>
        <time>2019-04-21T07:14:28.000Z</time>
      </trkpt>
      <trkpt lat="38.492423" lon="-0.681857">
        <ele>948</ele>
        <time>2019-04-21T07:14:30.000Z</time>
      </trkpt>
      <trkpt lat="38.492428" lon="-0.681834">
        <ele>948.23584746172</ele>
        <time>2019-04-21T07:14:32.000Z</time>
      </trkpt>
      <trkpt lat="38.492451" lon="-0.681843">
        <ele>949</ele>
        <time>2019-04-21T07:14:35.000Z</time>
      </trkpt>
      <trkpt lat="38.492473" lon="-0.681844">
        <ele>949.193553270848</ele>
        <time>2019-04-21T07:14:37.000Z</time>
      </trkpt>
      <trkpt lat="38.492497" lon="-0.68184">
        <ele>950</ele>
        <time>2019-04-21T07:14:40.000Z</time>
      </trkpt>
      <trkpt lat="38.492517" lon="-0.681848">
        <ele>950</ele>
        <time>2019-04-21T07:14:42.000Z</time>
      </trkpt>
      <trkpt lat="38.492542" lon="-0.681849">
        <ele>951</ele>
        <time>2019-04-21T07:14:44.000Z</time>
      </trkpt>
      <trkpt lat="38.492559" lon="-0.681827">
        <ele>951</ele>
        <time>2019-04-21T07:14:46.000Z</time>
      </trkpt>
      <trkpt lat="38.492575" lon="-0.681813">
        <ele>951</ele>
        <time>2019-04-21T07:14:48.000Z</time>
      </trkpt>
      <trkpt lat="38.49259" lon="-0.681797">
        <ele>950.752477631612</ele>
        <time>2019-04-21T07:14:50.000Z</time>
      </trkpt>
      <trkpt lat="38.492605" lon="-0.681778">
        <ele>949.768521481481</ele>
        <time>2019-04-21T07:14:52.000Z</time>
      </trkpt>
      <trkpt lat="38.49262" lon="-0.681758">
        <ele>948.04098119859</ele>
        <time>2019-04-21T07:14:54.000Z</time>
      </trkpt>
      <trkpt lat="38.492636" lon="-0.68173">
        <ele>947.797870312372</ele>
        <time>2019-04-21T07:14:56.000Z</time>
      </trkpt>
      <trkpt lat="38.492654" lon="-0.681708">
        <ele>945.873560005297</ele>
        <time>2019-04-21T07:14:58.000Z</time>
      </trkpt>
      <trkpt lat="38.492676" lon="-0.681679">
        <ele>944.7500032</ele>
        <time>2019-04-21T07:15:00.000Z</time>
      </trkpt>
      <trkpt lat="38.492693" lon="-0.681643">
        <ele>943</ele>
        <time>2019-04-21T07:15:02.000Z</time>
      </trkpt>
      <trkpt lat="38.492708" lon="-0.681605">
        <ele>943</ele>
        <time>2019-04-21T07:15:04.000Z</time>
      </trkpt>
      <trkpt lat="38.492716" lon="-0.681567">
        <ele>942.7500032</ele>
        <time>2019-04-21T07:15:06.000Z</time>
      </trkpt>
      <trkpt lat="38.49273" lon="-0.681549">
        <ele>941.7500032</ele>
        <time>2019-04-21T07:15:07.000Z</time>
      </trkpt>
      <trkpt lat="38.492748" lon="-0.681508">
        <ele>941</ele>
        <time>2019-04-21T07:15:09.000Z</time>
      </trkpt>
      <trkpt lat="38.492762" lon="-0.68149">
        <ele>941</ele>
        <time>2019-04-21T07:15:10.000Z</time>
      </trkpt>
      <trkpt lat="38.492783" lon="-0.681453">
        <ele>940.809161349579</ele>
        <time>2019-04-21T07:15:12.000Z</time>
      </trkpt>
      <trkpt lat="38.492795" lon="-0.681426">
        <ele>940.045796976833</ele>
        <time>2019-04-21T07:15:13.000Z</time>
      </trkpt>
      <trkpt lat="38.492806" lon="-0.681406">
        <ele>940</ele>
        <time>2019-04-21T07:15:14.000Z</time>
      </trkpt>
      <trkpt lat="38.49283" lon="-0.681389">
        <ele>938.7500032</ele>
        <time>2019-04-21T07:15:16.000Z</time>
      </trkpt>
      <trkpt lat="38.492847" lon="-0.681375">
        <ele>938</ele>
        <time>2019-04-21T07:15:17.000Z</time>
      </trkpt>
      <trkpt lat="38.492853" lon="-0.681352">
        <ele>938</ele>
        <time>2019-04-21T07:15:18.000Z</time>
      </trkpt>
      <trkpt lat="38.492851" lon="-0.681328">
        <ele>938</ele>
        <time>2019-04-21T07:15:19.000Z</time>
      </trkpt>
      <trkpt lat="38.492855" lon="-0.681293">
        <ele>938</ele>
        <time>2019-04-21T07:15:21.000Z</time>
      </trkpt>
      <trkpt lat="38.492875" lon="-0.681255">
        <ele>938</ele>
        <time>2019-04-21T07:15:23.000Z</time>
      </trkpt>
      <trkpt lat="38.492889" lon="-0.681238">
        <ele>938</ele>
        <time>2019-04-21T07:15:24.000Z</time>
      </trkpt>
      <trkpt lat="38.492907" lon="-0.681201">
        <ele>938</ele>
        <time>2019-04-21T07:15:26.000Z</time>
      </trkpt>
      <trkpt lat="38.492922" lon="-0.681159">
        <ele>938</ele>
        <time>2019-04-21T07:15:28.000Z</time>
      </trkpt>
      <trkpt lat="38.492934" lon="-0.681138">
        <ele>938</ele>
        <time>2019-04-21T07:15:29.000Z</time>
      </trkpt>
      <trkpt lat="38.492948" lon="-0.681115">
        <ele>938</ele>
        <time>2019-04-21T07:15:30.000Z</time>
      </trkpt>
      <trkpt lat="38.492961" lon="-0.68109">
        <ele>937.825175889293</ele>
        <time>2019-04-21T07:15:31.000Z</time>
      </trkpt>
      <trkpt lat="38.492973" lon="-0.681066">
        <ele>937.125870495354</ele>
        <time>2019-04-21T07:15:32.000Z</time>
      </trkpt>
      <trkpt lat="38.492986" lon="-0.681037">
        <ele>936</ele>
        <time>2019-04-21T07:15:34.000Z</time>
      </trkpt>
      <trkpt lat="38.493006" lon="-0.681019">
        <ele>935.778763267294</ele>
        <time>2019-04-21T07:15:36.000Z</time>
      </trkpt>
      <trkpt lat="38.49302" lon="-0.681001">
        <ele>935</ele>
        <time>2019-04-21T07:15:39.000Z</time>
      </trkpt>
      <trkpt lat="38.493036" lon="-0.680991">
        <ele>935.127909745788</ele>
        <time>2019-04-21T07:15:42.000Z</time>
      </trkpt>
      <trkpt lat="38.493066" lon="-0.680976">
        <ele>936</ele>
        <time>2019-04-21T07:15:44.000Z</time>
      </trkpt>
      <trkpt lat="38.493082" lon="-0.680964">
        <ele>935.797870312372</ele>
        <time>2019-04-21T07:15:45.000Z</time>
      </trkpt>
      <trkpt lat="38.49309" lon="-0.680942">
        <ele>934.780703330264</ele>
        <time>2019-04-21T07:15:46.000Z</time>
      </trkpt>
      <trkpt lat="38.493098" lon="-0.680902">
        <ele>934</ele>
        <time>2019-04-21T07:15:48.000Z</time>
      </trkpt>
      <trkpt lat="38.493113" lon="-0.68086">
        <ele>934</ele>
        <time>2019-04-21T07:15:50.000Z</time>
      </trkpt>
      <trkpt lat="38.493115" lon="-0.680837">
        <ele>934</ele>
        <time>2019-04-21T07:15:51.000Z</time>
      </trkpt>
      <trkpt lat="38.493125" lon="-0.680804">
        <ele>934</ele>
        <time>2019-04-21T07:15:53.000Z</time>
      </trkpt>
      <trkpt lat="38.493143" lon="-0.680764">
        <ele>934</ele>
        <time>2019-04-21T07:15:55.000Z</time>
      </trkpt>
      <trkpt lat="38.493152" lon="-0.680742">
        <ele>934</ele>
        <time>2019-04-21T07:15:56.000Z</time>
      </trkpt>
      <trkpt lat="38.493158" lon="-0.680718">
        <ele>934</ele>
        <time>2019-04-21T07:15:57.000Z</time>
      </trkpt>
      <trkpt lat="38.493168" lon="-0.680694">
        <ele>934</ele>
        <time>2019-04-21T07:15:58.000Z</time>
      </trkpt>
      <trkpt lat="38.493177" lon="-0.680671">
        <ele>934</ele>
        <time>2019-04-21T07:15:59.000Z</time>
      </trkpt>
      <trkpt lat="38.493191" lon="-0.680653">
        <ele>934</ele>
        <time>2019-04-21T07:16:00.000Z</time>
      </trkpt>
      <trkpt lat="38.493203" lon="-0.680636">
        <ele>934</ele>
        <time>2019-04-21T07:16:01.000Z</time>
      </trkpt>
      <trkpt lat="38.493228" lon="-0.680606">
        <ele>934</ele>
        <time>2019-04-21T07:16:03.000Z</time>
      </trkpt>
      <trkpt lat="38.493237" lon="-0.680583">
        <ele>934</ele>
        <time>2019-04-21T07:16:04.000Z</time>
      </trkpt>
      <trkpt lat="38.493247" lon="-0.680537">
        <ele>934</ele>
        <time>2019-04-21T07:16:06.000Z</time>
      </trkpt>
      <trkpt lat="38.493254" lon="-0.680512">
        <ele>934</ele>
        <time>2019-04-21T07:16:07.000Z</time>
      </trkpt>
      <trkpt lat="38.493258" lon="-0.680485">
        <ele>934</ele>
        <time>2019-04-21T07:16:08.000Z</time>
      </trkpt>
      <trkpt lat="38.493262" lon="-0.680461">
        <ele>934.190836785742</ele>
        <time>2019-04-21T07:16:09.000Z</time>
      </trkpt>
      <trkpt lat="38.493271" lon="-0.680439">
        <ele>934.95419369968</ele>
        <time>2019-04-21T07:16:10.000Z</time>
      </trkpt>
      <trkpt lat="38.493297" lon="-0.680413">
        <ele>936</ele>
        <time>2019-04-21T07:16:12.000Z</time>
      </trkpt>
      <trkpt lat="38.493313" lon="-0.680396">
        <ele>935.7500032</ele>
        <time>2019-04-21T07:16:13.000Z</time>
      </trkpt>
      <trkpt lat="38.493331" lon="-0.68038">
        <ele>935</ele>
        <time>2019-04-21T07:16:14.000Z</time>
      </trkpt>
      <trkpt lat="38.49335" lon="-0.680368">
        <ele>935</ele>
        <time>2019-04-21T07:16:15.000Z</time>
      </trkpt>
      <trkpt lat="38.493365" lon="-0.680348">
        <ele>934.768521481481</ele>
        <time>2019-04-21T07:16:16.000Z</time>
      </trkpt>
      <trkpt lat="38.493378" lon="-0.680324">
        <ele>934</ele>
        <time>2019-04-21T07:16:17.000Z</time>
      </trkpt>
      <trkpt lat="38.493396" lon="-0.680307">
        <ele>934.187967971051</ele>
        <time>2019-04-21T07:16:18.000Z</time>
      </trkpt>
      <trkpt lat="38.493419" lon="-0.680292">
        <ele>934.939849479337</ele>
        <time>2019-04-21T07:16:19.000Z</time>
      </trkpt>
      <trkpt lat="38.493439" lon="-0.680277">
        <ele>934</ele>
        <time>2019-04-21T07:16:20.000Z</time>
      </trkpt>
      <trkpt lat="38.493453" lon="-0.680257">
        <ele>934</ele>
        <time>2019-04-21T07:16:21.000Z</time>
      </trkpt>
      <trkpt lat="38.493465" lon="-0.680233">
        <ele>934</ele>
        <time>2019-04-21T07:16:22.000Z</time>
      </trkpt>
      <trkpt lat="38.493472" lon="-0.680207">
        <ele>934</ele>
        <time>2019-04-21T07:16:23.000Z</time>
      </trkpt>
      <trkpt lat="38.493469" lon="-0.680183">
        <ele>934</ele>
        <time>2019-04-21T07:16:24.000Z</time>
      </trkpt>
      <trkpt lat="38.493471" lon="-0.680142">
        <ele>934</ele>
        <time>2019-04-21T07:16:26.000Z</time>
      </trkpt>
      <trkpt lat="38.493487" lon="-0.680111">
        <ele>934</ele>
        <time>2019-04-21T07:16:28.000Z</time>
      </trkpt>
      <trkpt lat="38.493516" lon="-0.680092">
        <ele>934</ele>
        <time>2019-04-21T07:16:30.000Z</time>
      </trkpt>
      <trkpt lat="38.493541" lon="-0.680085">
        <ele>934.242717602028</ele>
        <time>2019-04-21T07:16:31.000Z</time>
      </trkpt>
      <trkpt lat="38.493558" lon="-0.680071">
        <ele>935</ele>
        <time>2019-04-21T07:16:32.000Z</time>
      </trkpt>
      <trkpt lat="38.493589" lon="-0.680052">
        <ele>935</ele>
        <time>2019-04-21T07:16:34.000Z</time>
      </trkpt>
      <trkpt lat="38.493618" lon="-0.680045">
        <ele>936</ele>
        <time>2019-04-21T07:16:36.000Z</time>
      </trkpt>
      <trkpt lat="38.493648" lon="-0.680044">
        <ele>936.223211428571</ele>
        <time>2019-04-21T07:16:38.000Z</time>
      </trkpt>
      <trkpt lat="38.493682" lon="-0.680047">
        <ele>937</ele>
        <time>2019-04-21T07:16:40.000Z</time>
      </trkpt>
      <trkpt lat="38.493711" lon="-0.68004">
        <ele>937</ele>
        <time>2019-04-21T07:16:42.000Z</time>
      </trkpt>
      <trkpt lat="38.493737" lon="-0.680041">
        <ele>937.147723636364</ele>
        <time>2019-04-21T07:16:44.000Z</time>
      </trkpt>
      <trkpt lat="38.493754" lon="-0.680054">
        <ele>938</ele>
        <time>2019-04-21T07:16:46.000Z</time>
      </trkpt>
      <trkpt lat="38.493776" lon="-0.680061">
        <ele>938.952750985194</ele>
        <time>2019-04-21T07:16:48.000Z</time>
      </trkpt>
      <trkpt lat="38.493794" lon="-0.680069">
        <ele>939</ele>
        <time>2019-04-21T07:16:50.000Z</time>
      </trkpt>
      <trkpt lat="38.493819" lon="-0.680076">
        <ele>940</ele>
        <time>2019-04-21T07:16:53.000Z</time>
      </trkpt>
      <trkpt lat="38.493838" lon="-0.680076">
        <ele>940.184779130435</ele>
        <time>2019-04-21T07:16:55.000Z</time>
      </trkpt>
      <trkpt lat="38.493858" lon="-0.680074">
        <ele>942</ele>
        <time>2019-04-21T07:16:57.000Z</time>
      </trkpt>
      <trkpt lat="38.493884" lon="-0.680064">
        <ele>943</ele>
        <time>2019-04-21T07:17:00.000Z</time>
      </trkpt>
      <trkpt lat="38.493902" lon="-0.680071">
        <ele>944.234695610151</ele>
        <time>2019-04-21T07:17:03.000Z</time>
      </trkpt>
      <trkpt lat="38.493916" lon="-0.680097">
        <ele>945.189391515152</ele>
        <time>2019-04-21T07:17:06.000Z</time>
      </trkpt>
      <trkpt lat="38.49393" lon="-0.680112">
        <ele>947</ele>
        <time>2019-04-21T07:17:08.000Z</time>
      </trkpt>
      <trkpt lat="38.493945" lon="-0.680097">
        <ele>947</ele>
        <time>2019-04-21T07:17:10.000Z</time>
      </trkpt>
      <trkpt lat="38.493961" lon="-0.680084">
        <ele>947</ele>
        <time>2019-04-21T07:17:13.000Z</time>
      </trkpt>
      <trkpt lat="38.493984" lon="-0.680076">
        <ele>948</ele>
        <time>2019-04-21T07:17:16.000Z</time>
      </trkpt>
      <trkpt lat="38.494007" lon="-0.680089">
        <ele>949</ele>
        <time>2019-04-21T07:17:19.000Z</time>
      </trkpt>
      <trkpt lat="38.494028" lon="-0.680087">
        <ele>950</ele>
        <time>2019-04-21T07:17:21.000Z</time>
      </trkpt>
      <trkpt lat="38.494037" lon="-0.680066">
        <ele>950</ele>
        <time>2019-04-21T07:17:23.000Z</time>
      </trkpt>
      <trkpt lat="38.494047" lon="-0.680043">
        <ele>951</ele>
        <time>2019-04-21T07:17:25.000Z</time>
      </trkpt>
      <trkpt lat="38.49406" lon="-0.680014">
        <ele>952</ele>
        <time>2019-04-21T07:17:28.000Z</time>
      </trkpt>
      <trkpt lat="38.494074" lon="-0.679999">
        <ele>953</ele>
        <time>2019-04-21T07:17:31.000Z</time>
      </trkpt>
      <trkpt lat="38.4941" lon="-0.680002">
        <ele>953.2499968</ele>
        <time>2019-04-21T07:17:34.000Z</time>
      </trkpt>
      <trkpt lat="38.494116" lon="-0.67998">
        <ele>955</ele>
        <time>2019-04-21T07:17:36.000Z</time>
      </trkpt>
      <trkpt lat="38.494133" lon="-0.679957">
        <ele>956</ele>
        <time>2019-04-21T07:17:38.000Z</time>
      </trkpt>
      <trkpt lat="38.494148" lon="-0.679929">
        <ele>956</ele>
        <time>2019-04-21T07:17:40.000Z</time>
      </trkpt>
      <trkpt lat="38.494156" lon="-0.679908">
        <ele>956</ele>
        <time>2019-04-21T07:17:42.000Z</time>
      </trkpt>
      <trkpt lat="38.494174" lon="-0.679899">
        <ele>956</ele>
        <time>2019-04-21T07:17:44.000Z</time>
      </trkpt>
      <trkpt lat="38.494195" lon="-0.679882">
        <ele>956</ele>
        <time>2019-04-21T07:17:46.000Z</time>
      </trkpt>
      <trkpt lat="38.494211" lon="-0.679854">
        <ele>957</ele>
        <time>2019-04-21T07:17:48.000Z</time>
      </trkpt>
      <trkpt lat="38.494221" lon="-0.679832">
        <ele>958</ele>
        <time>2019-04-21T07:17:50.000Z</time>
      </trkpt>
      <trkpt lat="38.494228" lon="-0.679808">
        <ele>959</ele>
        <time>2019-04-21T07:17:52.000Z</time>
      </trkpt>
      <trkpt lat="38.494237" lon="-0.679779">
        <ele>959</ele>
        <time>2019-04-21T07:17:54.000Z</time>
      </trkpt>
      <trkpt lat="38.494254" lon="-0.67976">
        <ele>960</ele>
        <time>2019-04-21T07:17:56.000Z</time>
      </trkpt>
      <trkpt lat="38.494277" lon="-0.679729">
        <ele>960</ele>
        <time>2019-04-21T07:17:58.000Z</time>
      </trkpt>
      <trkpt lat="38.494295" lon="-0.679692">
        <ele>959</ele>
        <time>2019-04-21T07:18:00.000Z</time>
      </trkpt>
      <trkpt lat="38.494308" lon="-0.67965">
        <ele>959</ele>
        <time>2019-04-21T07:18:02.000Z</time>
      </trkpt>
      <trkpt lat="38.494319" lon="-0.679632">
        <ele>959</ele>
        <time>2019-04-21T07:18:03.000Z</time>
      </trkpt>
      <trkpt lat="38.494337" lon="-0.679619">
        <ele>959</ele>
        <time>2019-04-21T07:18:04.000Z</time>
      </trkpt>
      <trkpt lat="38.494354" lon="-0.679602">
        <ele>959</ele>
        <time>2019-04-21T07:18:05.000Z</time>
      </trkpt>
      <trkpt lat="38.494364" lon="-0.67958">
        <ele>959</ele>
        <time>2019-04-21T07:18:06.000Z</time>
      </trkpt>
      <trkpt lat="38.494364" lon="-0.679554">
        <ele>959</ele>
        <time>2019-04-21T07:18:07.000Z</time>
      </trkpt>
      <trkpt lat="38.494362" lon="-0.679528">
        <ele>959</ele>
        <time>2019-04-21T07:18:08.000Z</time>
      </trkpt>
      <trkpt lat="38.49436" lon="-0.679502">
        <ele>959</ele>
        <time>2019-04-21T07:18:09.000Z</time>
      </trkpt>
      <trkpt lat="38.494358" lon="-0.679476">
        <ele>959</ele>
        <time>2019-04-21T07:18:10.000Z</time>
      </trkpt>
      <trkpt lat="38.494363" lon="-0.67943">
        <ele>959</ele>
        <time>2019-04-21T07:18:12.000Z</time>
      </trkpt>
      <trkpt lat="38.494371" lon="-0.679387">
        <ele>958</ele>
        <time>2019-04-21T07:18:14.000Z</time>
      </trkpt>
      <trkpt lat="38.494372" lon="-0.679363">
        <ele>958</ele>
        <time>2019-04-21T07:18:15.000Z</time>
      </trkpt>
      <trkpt lat="38.494375" lon="-0.679338">
        <ele>958</ele>
        <time>2019-04-21T07:18:16.000Z</time>
      </trkpt>
      <trkpt lat="38.494375" lon="-0.67931">
        <ele>957</ele>
        <time>2019-04-21T07:18:17.000Z</time>
      </trkpt>
      <trkpt lat="38.494373" lon="-0.679286">
        <ele>957</ele>
        <time>2019-04-21T07:18:18.000Z</time>
      </trkpt>
      <trkpt lat="38.494377" lon="-0.679246">
        <ele>956</ele>
        <time>2019-04-21T07:18:20.000Z</time>
      </trkpt>
      <trkpt lat="38.49438" lon="-0.679222">
        <ele>956</ele>
        <time>2019-04-21T07:18:21.000Z</time>
      </trkpt>
      <trkpt lat="38.494382" lon="-0.679198">
        <ele>956</ele>
        <time>2019-04-21T07:18:22.000Z</time>
      </trkpt>
      <trkpt lat="38.494383" lon="-0.679172">
        <ele>956</ele>
        <time>2019-04-21T07:18:23.000Z</time>
      </trkpt>
      <trkpt lat="38.494378" lon="-0.679148">
        <ele>956</ele>
        <time>2019-04-21T07:18:24.000Z</time>
      </trkpt>
      <trkpt lat="38.494373" lon="-0.679125">
        <ele>955.7500032</ele>
        <time>2019-04-21T07:18:25.000Z</time>
      </trkpt>
      <trkpt lat="38.494373" lon="-0.679084">
        <ele>954.7500032</ele>
        <time>2019-04-21T07:18:27.000Z</time>
      </trkpt>
      <trkpt lat="38.494378" lon="-0.679038">
        <ele>953</ele>
        <time>2019-04-21T07:18:29.000Z</time>
      </trkpt>
      <trkpt lat="38.494377" lon="-0.679013">
        <ele>953</ele>
        <time>2019-04-21T07:18:30.000Z</time>
      </trkpt>
      <trkpt lat="38.494383" lon="-0.67899">
        <ele>953</ele>
        <time>2019-04-21T07:18:31.000Z</time>
      </trkpt>
      <trkpt lat="38.494388" lon="-0.678964">
        <ele>952.752477631612</ele>
        <time>2019-04-21T07:18:32.000Z</time>
      </trkpt>
      <trkpt lat="38.494388" lon="-0.67894">
        <ele>951.757576541167</ele>
        <time>2019-04-21T07:18:33.000Z</time>
      </trkpt>
      <trkpt lat="38.494392" lon="-0.678896">
        <ele>952</ele>
        <time>2019-04-21T07:18:35.000Z</time>
      </trkpt>
      <trkpt lat="38.494404" lon="-0.678862">
        <ele>952</ele>
        <time>2019-04-21T07:18:37.000Z</time>
      </trkpt>
      <trkpt lat="38.494419" lon="-0.67883">
        <ele>950.7500032</ele>
        <time>2019-04-21T07:18:39.000Z</time>
      </trkpt>
      <trkpt lat="38.494417" lon="-0.678806">
        <ele>949.7500032</ele>
        <time>2019-04-21T07:18:40.000Z</time>
      </trkpt>
      <trkpt lat="38.494411" lon="-0.678766">
        <ele>949</ele>
        <time>2019-04-21T07:18:42.000Z</time>
      </trkpt>
      <trkpt lat="38.494425" lon="-0.678724">
        <ele>950</ele>
        <time>2019-04-21T07:18:44.000Z</time>
      </trkpt>
      <trkpt lat="38.494436" lon="-0.678684">
        <ele>948</ele>
        <time>2019-04-21T07:18:46.000Z</time>
      </trkpt>
      <trkpt lat="38.494437" lon="-0.67866">
        <ele>948</ele>
        <time>2019-04-21T07:18:47.000Z</time>
      </trkpt>
      <trkpt lat="38.494434" lon="-0.678634">
        <ele>947.809161349579</ele>
        <time>2019-04-21T07:18:48.000Z</time>
      </trkpt>
      <trkpt lat="38.494434" lon="-0.67861">
        <ele>947.045796976833</ele>
        <time>2019-04-21T07:18:49.000Z</time>
      </trkpt>
      <trkpt lat="38.494436" lon="-0.678586">
        <ele>947</ele>
        <time>2019-04-21T07:18:50.000Z</time>
      </trkpt>
      <trkpt lat="38.494445" lon="-0.67854">
        <ele>947</ele>
        <time>2019-04-21T07:18:52.000Z</time>
      </trkpt>
      <trkpt lat="38.494453" lon="-0.678518">
        <ele>947</ele>
        <time>2019-04-21T07:18:53.000Z</time>
      </trkpt>
      <trkpt lat="38.494469" lon="-0.678484">
        <ele>947</ele>
        <time>2019-04-21T07:18:55.000Z</time>
      </trkpt>
      <trkpt lat="38.494481" lon="-0.678448">
        <ele>945.7500032</ele>
        <time>2019-04-21T07:18:57.000Z</time>
      </trkpt>
      <trkpt lat="38.494491" lon="-0.678412">
        <ele>945.2499968</ele>
        <time>2019-04-21T07:18:59.000Z</time>
      </trkpt>
      <trkpt lat="38.49451" lon="-0.678376">
        <ele>946</ele>
        <time>2019-04-21T07:19:01.000Z</time>
      </trkpt>
      <trkpt lat="38.494529" lon="-0.678352">
        <ele>943.504955263225</ele>
        <time>2019-04-21T07:19:03.000Z</time>
      </trkpt>
      <trkpt lat="38.494538" lon="-0.678316">
        <ele>941</ele>
        <time>2019-04-21T07:19:05.000Z</time>
      </trkpt>
      <trkpt lat="38.494543" lon="-0.678294">
        <ele>941</ele>
        <time>2019-04-21T07:19:06.000Z</time>
      </trkpt>
      <trkpt lat="38.494551" lon="-0.678254">
        <ele>941.245096439821</ele>
        <time>2019-04-21T07:19:08.000Z</time>
      </trkpt>
      <trkpt lat="38.49457" lon="-0.678229">
        <ele>941.772728859513</ele>
        <time>2019-04-21T07:19:10.000Z</time>
      </trkpt>
      <trkpt lat="38.494572" lon="-0.678188">
        <ele>939.7500032</ele>
        <time>2019-04-21T07:19:12.000Z</time>
      </trkpt>
      <trkpt lat="38.49458" lon="-0.67815">
        <ele>937.765304389849</ele>
        <time>2019-04-21T07:19:14.000Z</time>
      </trkpt>
      <trkpt lat="38.494591" lon="-0.678117">
        <ele>937</ele>
        <time>2019-04-21T07:19:16.000Z</time>
      </trkpt>
      <trkpt lat="38.494597" lon="-0.678086">
        <ele>936</ele>
        <time>2019-04-21T07:19:18.000Z</time>
      </trkpt>
      <trkpt lat="38.494614" lon="-0.678062">
        <ele>936</ele>
        <time>2019-04-21T07:19:20.000Z</time>
      </trkpt>
      <trkpt lat="38.494626" lon="-0.678036">
        <ele>936</ele>
        <time>2019-04-21T07:19:22.000Z</time>
      </trkpt>
      <trkpt lat="38.494645" lon="-0.678009">
        <ele>934.752477631612</ele>
        <time>2019-04-21T07:19:24.000Z</time>
      </trkpt>
      <trkpt lat="38.494663" lon="-0.677988">
        <ele>933</ele>
        <time>2019-04-21T07:19:26.000Z</time>
      </trkpt>
      <trkpt lat="38.494688" lon="-0.677954">
        <ele>931.5000064</ele>
        <time>2019-04-21T07:19:28.000Z</time>
      </trkpt>
      <trkpt lat="38.494701" lon="-0.677914">
        <ele>929.2499968</ele>
        <time>2019-04-21T07:19:30.000Z</time>
      </trkpt>
      <trkpt lat="38.494716" lon="-0.677897">
        <ele>930</ele>
        <time>2019-04-21T07:19:31.000Z</time>
      </trkpt>
      <trkpt lat="38.494728" lon="-0.677876">
        <ele>930</ele>
        <time>2019-04-21T07:19:32.000Z</time>
      </trkpt>
      <trkpt lat="38.494739" lon="-0.677854">
        <ele>930</ele>
        <time>2019-04-21T07:19:33.000Z</time>
      </trkpt>
      <trkpt lat="38.494747" lon="-0.677828">
        <ele>930</ele>
        <time>2019-04-21T07:19:34.000Z</time>
      </trkpt>
      <trkpt lat="38.494754" lon="-0.677803">
        <ele>930</ele>
        <time>2019-04-21T07:19:35.000Z</time>
      </trkpt>
      <trkpt lat="38.494763" lon="-0.677778">
        <ele>929.768521481481</ele>
        <time>2019-04-21T07:19:36.000Z</time>
      </trkpt>
      <trkpt lat="38.494779" lon="-0.677756">
        <ele>929</ele>
        <time>2019-04-21T07:19:37.000Z</time>
      </trkpt>
      <trkpt lat="38.494795" lon="-0.677735">
        <ele>929.190838650421</ele>
        <time>2019-04-21T07:19:38.000Z</time>
      </trkpt>
      <trkpt lat="38.494807" lon="-0.677712">
        <ele>929.954203023167</ele>
        <time>2019-04-21T07:19:39.000Z</time>
      </trkpt>
      <trkpt lat="38.494827" lon="-0.677672">
        <ele>930</ele>
        <time>2019-04-21T07:19:41.000Z</time>
      </trkpt>
      <trkpt lat="38.494839" lon="-0.677636">
        <ele>930</ele>
        <time>2019-04-21T07:19:43.000Z</time>
      </trkpt>
      <trkpt lat="38.494843" lon="-0.677608">
        <ele>930</ele>
        <time>2019-04-21T07:19:46.000Z</time>
      </trkpt>
      <trkpt lat="38.494858" lon="-0.677594">
        <ele>924</ele>
        <time>2019-04-21T07:20:06.000Z</time>
      </trkpt>
      <trkpt lat="38.494877" lon="-0.67759">
        <ele>921.7500032</ele>
        <time>2019-04-21T07:20:08.000Z</time>
      </trkpt>
      <trkpt lat="38.494897" lon="-0.677599">
        <ele>920</ele>
        <time>2019-04-21T07:20:10.000Z</time>
      </trkpt>
      <trkpt lat="38.494879" lon="-0.677586">
        <ele>922</ele>
        <time>2019-04-21T07:20:38.000Z</time>
      </trkpt>
      <trkpt lat="38.494899" lon="-0.677589">
        <ele>921</ele>
        <time>2019-04-21T07:20:49.000Z</time>
      </trkpt>
      <trkpt lat="38.4949" lon="-0.677622">
        <ele>921</ele>
        <time>2019-04-21T07:20:52.000Z</time>
      </trkpt>
      <trkpt lat="38.494901" lon="-0.677649">
        <ele>920.045796976833</ele>
        <time>2019-04-21T07:20:55.000Z</time>
      </trkpt>
      <trkpt lat="38.494901" lon="-0.677675">
        <ele>918.7500032</ele>
        <time>2019-04-21T07:20:58.000Z</time>
      </trkpt>
      <trkpt lat="38.494906" lon="-0.677701">
        <ele>918</ele>
        <time>2019-04-21T07:21:00.000Z</time>
      </trkpt>
      <trkpt lat="38.494908" lon="-0.67773">
        <ele>917</ele>
        <time>2019-04-21T07:21:02.000Z</time>
      </trkpt>
      <trkpt lat="38.494913" lon="-0.677761">
        <ele>916.761907083907</ele>
        <time>2019-04-21T07:21:05.000Z</time>
      </trkpt>
      <trkpt lat="38.494918" lon="-0.67779">
        <ele>915</ele>
        <time>2019-04-21T07:21:08.000Z</time>
      </trkpt>
      <trkpt lat="38.494931" lon="-0.677808">
        <ele>913</ele>
        <time>2019-04-21T07:21:21.000Z</time>
      </trkpt>
      <trkpt lat="38.494954" lon="-0.677812">
        <ele>913</ele>
        <time>2019-04-21T07:21:25.000Z</time>
      </trkpt>
      <trkpt lat="38.494953" lon="-0.677839">
        <ele>911</ele>
        <time>2019-04-21T07:21:29.000Z</time>
      </trkpt>
      <trkpt lat="38.49496" lon="-0.677871">
        <ele>911</ele>
        <time>2019-04-21T07:21:32.000Z</time>
      </trkpt>
      <trkpt lat="38.494959" lon="-0.677894">
        <ele>911</ele>
        <time>2019-04-21T07:21:40.000Z</time>
      </trkpt>
      <trkpt lat="38.494976" lon="-0.677909">
        <ele>912.23584746172</ele>
        <time>2019-04-21T07:21:45.000Z</time>
      </trkpt>
      <trkpt lat="38.494994" lon="-0.677902">
        <ele>910.048391758537</ele>
        <time>2019-04-21T07:21:52.000Z</time>
      </trkpt>
      <trkpt lat="38.49501" lon="-0.677914">
        <ele>909</ele>
        <time>2019-04-21T07:21:56.000Z</time>
      </trkpt>
      <trkpt lat="38.495019" lon="-0.677893">
        <ele>909</ele>
        <time>2019-04-21T07:22:08.000Z</time>
      </trkpt>
      <trkpt lat="38.495021" lon="-0.677869">
        <ele>907.752477631612</ele>
        <time>2019-04-21T07:22:17.000Z</time>
      </trkpt>
      <trkpt lat="38.495034" lon="-0.677839">
        <ele>907</ele>
        <time>2019-04-21T07:22:27.000Z</time>
      </trkpt>
      <trkpt lat="38.495056" lon="-0.677828">
        <ele>905</ele>
        <time>2019-04-21T07:22:34.000Z</time>
      </trkpt>
      <trkpt lat="38.495073" lon="-0.677796">
        <ele>904.754903560179</ele>
        <time>2019-04-21T07:22:36.000Z</time>
      </trkpt>
      <trkpt lat="38.495087" lon="-0.677758">
        <ele>903</ele>
        <time>2019-04-21T07:22:38.000Z</time>
      </trkpt>
      <trkpt lat="38.495101" lon="-0.677738">
        <ele>903</ele>
        <time>2019-04-21T07:22:40.000Z</time>
      </trkpt>
      <trkpt lat="38.495118" lon="-0.677726">
        <ele>900</ele>
        <time>2019-04-21T07:22:50.000Z</time>
      </trkpt>
      <trkpt lat="38.495138" lon="-0.677701">
        <ele>898</ele>
        <time>2019-04-21T07:22:53.000Z</time>
      </trkpt>
      <trkpt lat="38.495149" lon="-0.67768">
        <ele>898</ele>
        <time>2019-04-21T07:22:55.000Z</time>
      </trkpt>
      <trkpt lat="38.495148" lon="-0.677653">
        <ele>898</ele>
        <time>2019-04-21T07:22:58.000Z</time>
      </trkpt>
      <trkpt lat="38.495149" lon="-0.677613">
        <ele>898</ele>
        <time>2019-04-21T07:23:01.000Z</time>
      </trkpt>
      <trkpt lat="38.495171" lon="-0.677598">
        <ele>898</ele>
        <time>2019-04-21T07:23:03.000Z</time>
      </trkpt>
      <trkpt lat="38.495189" lon="-0.677592">
        <ele>897.83333096298</ele>
        <time>2019-04-21T07:23:04.000Z</time>
      </trkpt>
      <trkpt lat="38.495222" lon="-0.677585">
        <ele>896.752477631612</ele>
        <time>2019-04-21T07:23:06.000Z</time>
      </trkpt>
      <trkpt lat="38.495228" lon="-0.677674">
        <ele>893.76415253828</ele>
        <time>2019-04-21T07:23:14.000Z</time>
      </trkpt>
      <trkpt lat="38.49523" lon="-0.677805">
        <ele>890</ele>
        <time>2019-04-21T07:23:30.000Z</time>
      </trkpt>
      <trkpt lat="38.495329" lon="-0.677823">
        <ele>887</ele>
        <time>2019-04-21T07:23:36.000Z</time>
      </trkpt>
      <trkpt lat="38.495351" lon="-0.67782">
        <ele>886</ele>
        <time>2019-04-21T07:23:38.000Z</time>
      </trkpt>
      <trkpt lat="38.495367" lon="-0.677795">
        <ele>885</ele>
        <time>2019-04-21T07:23:40.000Z</time>
      </trkpt>
      <trkpt lat="38.495391" lon="-0.677769">
        <ele>885</ele>
        <time>2019-04-21T07:23:42.000Z</time>
      </trkpt>
      <trkpt lat="38.495427" lon="-0.677749">
        <ele>884</ele>
        <time>2019-04-21T07:23:44.000Z</time>
      </trkpt>
      <trkpt lat="38.49545" lon="-0.677743">
        <ele>883.809163214258</ele>
        <time>2019-04-21T07:23:45.000Z</time>
      </trkpt>
      <trkpt lat="38.495468" lon="-0.677731">
        <ele>883.04580630032</ele>
        <time>2019-04-21T07:23:46.000Z</time>
      </trkpt>
      <trkpt lat="38.495492" lon="-0.67771">
        <ele>881.7500032</ele>
        <time>2019-04-21T07:23:48.000Z</time>
      </trkpt>
      <trkpt lat="38.495516" lon="-0.677691">
        <ele>879.7500032</ele>
        <time>2019-04-21T07:23:50.000Z</time>
      </trkpt>
      <trkpt lat="38.495554" lon="-0.67758">
        <ele>877</ele>
        <time>2019-04-21T07:23:57.000Z</time>
      </trkpt>
      <trkpt lat="38.495591" lon="-0.677452">
        <ele>878</ele>
        <time>2019-04-21T07:24:02.000Z</time>
      </trkpt>
      <trkpt lat="38.495597" lon="-0.677429">
        <ele>878</ele>
        <time>2019-04-21T07:24:03.000Z</time>
      </trkpt>
      <trkpt lat="38.495598" lon="-0.677406">
        <ele>878</ele>
        <time>2019-04-21T07:24:04.000Z</time>
      </trkpt>
      <trkpt lat="38.495606" lon="-0.67738">
        <ele>878</ele>
        <time>2019-04-21T07:24:05.000Z</time>
      </trkpt>
      <trkpt lat="38.495615" lon="-0.67735">
        <ele>878</ele>
        <time>2019-04-21T07:24:06.000Z</time>
      </trkpt>
      <trkpt lat="38.495622" lon="-0.677322">
        <ele>878</ele>
        <time>2019-04-21T07:24:07.000Z</time>
      </trkpt>
      <trkpt lat="38.495629" lon="-0.677294">
        <ele>878</ele>
        <time>2019-04-21T07:24:08.000Z</time>
      </trkpt>
      <trkpt lat="38.495629" lon="-0.677168">
        <ele>878</ele>
        <time>2019-04-21T07:24:13.000Z</time>
      </trkpt>
      <trkpt lat="38.495644" lon="-0.677144">
        <ele>878.2499968</ele>
        <time>2019-04-21T07:24:14.000Z</time>
      </trkpt>
      <trkpt lat="38.495647" lon="-0.67712">
        <ele>879</ele>
        <time>2019-04-21T07:24:15.000Z</time>
      </trkpt>
      <trkpt lat="38.495646" lon="-0.677098">
        <ele>879.233643965404</ele>
        <time>2019-04-21T07:24:16.000Z</time>
      </trkpt>
      <trkpt lat="38.495657" lon="-0.677052">
        <ele>880</ele>
        <time>2019-04-21T07:24:18.000Z</time>
      </trkpt>
      <trkpt lat="38.495663" lon="-0.677032">
        <ele>880</ele>
        <time>2019-04-21T07:24:19.000Z</time>
      </trkpt>
      <trkpt lat="38.495671" lon="-0.677009">
        <ele>880.2499968</ele>
        <time>2019-04-21T07:24:20.000Z</time>
      </trkpt>
      <trkpt lat="38.49569" lon="-0.676932">
        <ele>880</ele>
        <time>2019-04-21T07:24:23.000Z</time>
      </trkpt>
      <trkpt lat="38.495699" lon="-0.676904">
        <ele>880</ele>
        <time>2019-04-21T07:24:24.000Z</time>
      </trkpt>
      <trkpt lat="38.495718" lon="-0.676812">
        <ele>880</ele>
        <time>2019-04-21T07:24:27.000Z</time>
      </trkpt>
      <trkpt lat="38.495719" lon="-0.676788">
        <ele>881</ele>
        <time>2019-04-21T07:24:28.000Z</time>
      </trkpt>
      <trkpt lat="38.495721" lon="-0.676762">
        <ele>881</ele>
        <time>2019-04-21T07:24:29.000Z</time>
      </trkpt>
      <trkpt lat="38.495722" lon="-0.676734">
        <ele>881</ele>
        <time>2019-04-21T07:24:30.000Z</time>
      </trkpt>
      <trkpt lat="38.49572" lon="-0.676706">
        <ele>881.227271140487</ele>
        <time>2019-04-21T07:24:31.000Z</time>
      </trkpt>
      <trkpt lat="38.495725" lon="-0.676681">
        <ele>882.16666903702</ele>
        <time>2019-04-21T07:24:32.000Z</time>
      </trkpt>
      <trkpt lat="38.495724" lon="-0.676654">
        <ele>883</ele>
        <time>2019-04-21T07:24:33.000Z</time>
      </trkpt>
      <trkpt lat="38.495729" lon="-0.67663">
        <ele>883.2499968</ele>
        <time>2019-04-21T07:24:34.000Z</time>
      </trkpt>
      <trkpt lat="38.495732" lon="-0.676604">
        <ele>884</ele>
        <time>2019-04-21T07:24:35.000Z</time>
      </trkpt>
      <trkpt lat="38.495741" lon="-0.676582">
        <ele>883.772728859513</ele>
        <time>2019-04-21T07:24:36.000Z</time>
      </trkpt>
      <trkpt lat="38.495748" lon="-0.676538">
        <ele>883</ele>
        <time>2019-04-21T07:24:38.000Z</time>
      </trkpt>
      <trkpt lat="38.495754" lon="-0.676514">
        <ele>883</ele>
        <time>2019-04-21T07:24:39.000Z</time>
      </trkpt>
      <trkpt lat="38.495764" lon="-0.676488">
        <ele>883</ele>
        <time>2019-04-21T07:24:40.000Z</time>
      </trkpt>
      <trkpt lat="38.495768" lon="-0.676461">
        <ele>882.772728859513</ele>
        <time>2019-04-21T07:24:41.000Z</time>
      </trkpt>
      <trkpt lat="38.495771" lon="-0.676432">
        <ele>882</ele>
        <time>2019-04-21T07:24:42.000Z</time>
      </trkpt>
      <trkpt lat="38.495763" lon="-0.676406">
        <ele>882</ele>
        <time>2019-04-21T07:24:43.000Z</time>
      </trkpt>
      <trkpt lat="38.495766" lon="-0.67638">
        <ele>882</ele>
        <time>2019-04-21T07:24:44.000Z</time>
      </trkpt>
      <trkpt lat="38.495765" lon="-0.676352">
        <ele>882</ele>
        <time>2019-04-21T07:24:45.000Z</time>
      </trkpt>
      <trkpt lat="38.495767" lon="-0.676324">
        <ele>882</ele>
        <time>2019-04-21T07:24:46.000Z</time>
      </trkpt>
      <trkpt lat="38.495779" lon="-0.67626">
        <ele>882.242423458833</ele>
        <time>2019-04-21T07:24:48.000Z</time>
      </trkpt>
      <trkpt lat="38.49578" lon="-0.676225">
        <ele>883</ele>
        <time>2019-04-21T07:24:49.000Z</time>
      </trkpt>
      <trkpt lat="38.495787" lon="-0.676193">
        <ele>883</ele>
        <time>2019-04-21T07:24:50.000Z</time>
      </trkpt>
      <trkpt lat="38.495799" lon="-0.6761">
        <ele>883</ele>
        <time>2019-04-21T07:24:53.000Z</time>
      </trkpt>
      <trkpt lat="38.495795" lon="-0.676062">
        <ele>882.7500032</ele>
        <time>2019-04-21T07:24:54.000Z</time>
      </trkpt>
      <trkpt lat="38.495797" lon="-0.676032">
        <ele>882</ele>
        <time>2019-04-21T07:24:55.000Z</time>
      </trkpt>
      <trkpt lat="38.495797" lon="-0.675904">
        <ele>882.2499968</ele>
        <time>2019-04-21T07:24:59.000Z</time>
      </trkpt>
      <trkpt lat="38.495819" lon="-0.675762">
        <ele>883</ele>
        <time>2019-04-21T07:25:04.000Z</time>
      </trkpt>
      <trkpt lat="38.495817" lon="-0.675639">
        <ele>882.759618461538</ele>
        <time>2019-04-21T07:25:08.000Z</time>
      </trkpt>
      <trkpt lat="38.495824" lon="-0.67551">
        <ele>882</ele>
        <time>2019-04-21T07:25:12.000Z</time>
      </trkpt>
      <trkpt lat="38.495845" lon="-0.675397">
        <ele>882</ele>
        <time>2019-04-21T07:25:16.000Z</time>
      </trkpt>
      <trkpt lat="38.495857" lon="-0.675332">
        <ele>882</ele>
        <time>2019-04-21T07:25:18.000Z</time>
      </trkpt>
      <trkpt lat="38.495849" lon="-0.675217">
        <ele>883</ele>
        <time>2019-04-21T07:25:22.000Z</time>
      </trkpt>
      <trkpt lat="38.495843" lon="-0.675088">
        <ele>883</ele>
        <time>2019-04-21T07:25:26.000Z</time>
      </trkpt>
      <trkpt lat="38.495858" lon="-0.674963">
        <ele>883</ele>
        <time>2019-04-21T07:25:30.000Z</time>
      </trkpt>
      <trkpt lat="38.495837" lon="-0.674832">
        <ele>883</ele>
        <time>2019-04-21T07:25:36.000Z</time>
      </trkpt>
      <trkpt lat="38.495814" lon="-0.674706">
        <ele>886</ele>
        <time>2019-04-21T07:25:42.000Z</time>
      </trkpt>
      <trkpt lat="38.49581" lon="-0.674586">
        <ele>887.210525606651</ele>
        <time>2019-04-21T07:25:47.000Z</time>
      </trkpt>
      <trkpt lat="38.495835" lon="-0.674474">
        <ele>888</ele>
        <time>2019-04-21T07:25:52.000Z</time>
      </trkpt>
      <trkpt lat="38.495843" lon="-0.674386">
        <ele>888</ele>
        <time>2019-04-21T07:25:55.000Z</time>
      </trkpt>
      <trkpt lat="38.495851" lon="-0.674358">
        <ele>888</ele>
        <time>2019-04-21T07:25:56.000Z</time>
      </trkpt>
      <trkpt lat="38.495864" lon="-0.674329">
        <ele>888</ele>
        <time>2019-04-21T07:25:57.000Z</time>
      </trkpt>
      <trkpt lat="38.495872" lon="-0.674305">
        <ele>888</ele>
        <time>2019-04-21T07:25:58.000Z</time>
      </trkpt>
      <trkpt lat="38.495874" lon="-0.674262">
        <ele>888</ele>
        <time>2019-04-21T07:26:00.000Z</time>
      </trkpt>
      <trkpt lat="38.495874" lon="-0.674225">
        <ele>888</ele>
        <time>2019-04-21T07:26:02.000Z</time>
      </trkpt>
      <trkpt lat="38.495865" lon="-0.674197">
        <ele>888.242423458833</ele>
        <time>2019-04-21T07:26:04.000Z</time>
      </trkpt>
      <trkpt lat="38.49587" lon="-0.674173">
        <ele>889.231478518519</ele>
        <time>2019-04-21T07:26:05.000Z</time>
      </trkpt>
      <trkpt lat="38.49586" lon="-0.674137">
        <ele>890</ele>
        <time>2019-04-21T07:26:07.000Z</time>
      </trkpt>
      <trkpt lat="38.495841" lon="-0.674117">
        <ele>890</ele>
        <time>2019-04-21T07:26:11.000Z</time>
      </trkpt>
      <trkpt lat="38.495823" lon="-0.674102">
        <ele>890</ele>
        <time>2019-04-21T07:26:13.000Z</time>
      </trkpt>
      <trkpt lat="38.495812" lon="-0.674078">
        <ele>890</ele>
        <time>2019-04-21T07:26:15.000Z</time>
      </trkpt>
      <trkpt lat="38.495808" lon="-0.674049">
        <ele>890</ele>
        <time>2019-04-21T07:26:17.000Z</time>
      </trkpt>
      <trkpt lat="38.495809" lon="-0.674025">
        <ele>890</ele>
        <time>2019-04-21T07:26:19.000Z</time>
      </trkpt>
      <trkpt lat="38.495806" lon="-0.673998">
        <ele>890.202129687628</ele>
        <time>2019-04-21T07:26:21.000Z</time>
      </trkpt>
      <trkpt lat="38.49581" lon="-0.673973">
        <ele>892</ele>
        <time>2019-04-21T07:26:23.000Z</time>
      </trkpt>
      <trkpt lat="38.495819" lon="-0.673948">
        <ele>893</ele>
        <time>2019-04-21T07:26:25.000Z</time>
      </trkpt>
      <trkpt lat="38.495829" lon="-0.673924">
        <ele>893</ele>
        <time>2019-04-21T07:26:27.000Z</time>
      </trkpt>
      <trkpt lat="38.495836" lon="-0.673892">
        <ele>893.242423458833</ele>
        <time>2019-04-21T07:26:29.000Z</time>
      </trkpt>
      <trkpt lat="38.495836" lon="-0.673866">
        <ele>894</ele>
        <time>2019-04-21T07:26:32.000Z</time>
      </trkpt>
      <trkpt lat="38.495834" lon="-0.673837">
        <ele>894</ele>
        <time>2019-04-21T07:26:35.000Z</time>
      </trkpt>
      <trkpt lat="38.495836" lon="-0.673808">
        <ele>893.049581618728</ele>
        <time>2019-04-21T07:26:37.000Z</time>
      </trkpt>
      <trkpt lat="38.495842" lon="-0.673772">
        <ele>893</ele>
        <time>2019-04-21T07:26:39.000Z</time>
      </trkpt>
      <trkpt lat="38.495824" lon="-0.673734">
        <ele>893.939849479337</ele>
        <time>2019-04-21T07:26:41.000Z</time>
      </trkpt>
      <trkpt lat="38.495815" lon="-0.673714">
        <ele>894</ele>
        <time>2019-04-21T07:26:42.000Z</time>
      </trkpt>
      <trkpt lat="38.495808" lon="-0.67368">
        <ele>894.234695610151</ele>
        <time>2019-04-21T07:26:44.000Z</time>
      </trkpt>
      <trkpt lat="38.495807" lon="-0.673652">
        <ele>895</ele>
        <time>2019-04-21T07:26:46.000Z</time>
      </trkpt>
      <trkpt lat="38.495807" lon="-0.673628">
        <ele>894.754903560179</ele>
        <time>2019-04-21T07:26:48.000Z</time>
      </trkpt>
      <trkpt lat="38.495802" lon="-0.673601">
        <ele>894</ele>
        <time>2019-04-21T07:26:51.000Z</time>
      </trkpt>
      <trkpt lat="38.495815" lon="-0.673566">
        <ele>894</ele>
        <time>2019-04-21T07:26:53.000Z</time>
      </trkpt>
      <trkpt lat="38.495829" lon="-0.673547">
        <ele>894</ele>
        <time>2019-04-21T07:26:54.000Z</time>
      </trkpt>
      <trkpt lat="38.495844" lon="-0.673531">
        <ele>894</ele>
        <time>2019-04-21T07:26:55.000Z</time>
      </trkpt>
      <trkpt lat="38.49586" lon="-0.673498">
        <ele>894</ele>
        <time>2019-04-21T07:26:57.000Z</time>
      </trkpt>
      <trkpt lat="38.495876" lon="-0.673457">
        <ele>894.2499968</ele>
        <time>2019-04-21T07:26:59.000Z</time>
      </trkpt>
      <trkpt lat="38.49589" lon="-0.673432">
        <ele>895</ele>
        <time>2019-04-21T07:27:00.000Z</time>
      </trkpt>
      <trkpt lat="38.495902" lon="-0.673411">
        <ele>894.797870312372</ele>
        <time>2019-04-21T07:27:01.000Z</time>
      </trkpt>
      <trkpt lat="38.495908" lon="-0.673376">
        <ele>894</ele>
        <time>2019-04-21T07:27:03.000Z</time>
      </trkpt>
      <trkpt lat="38.49592" lon="-0.673333">
        <ele>895</ele>
        <time>2019-04-21T07:27:05.000Z</time>
      </trkpt>
      <trkpt lat="38.49593" lon="-0.67331">
        <ele>895</ele>
        <time>2019-04-21T07:27:06.000Z</time>
      </trkpt>
      <trkpt lat="38.495947" lon="-0.673281">
        <ele>895</ele>
        <time>2019-04-21T07:27:07.000Z</time>
      </trkpt>
      <trkpt lat="38.495959" lon="-0.673259">
        <ele>895.245096439821</ele>
        <time>2019-04-21T07:27:08.000Z</time>
      </trkpt>
      <trkpt lat="38.49597" lon="-0.67324">
        <ele>896</ele>
        <time>2019-04-21T07:27:09.000Z</time>
      </trkpt>
      <trkpt lat="38.495983" lon="-0.673223">
        <ele>896</ele>
        <time>2019-04-21T07:27:10.000Z</time>
      </trkpt>
      <trkpt lat="38.495992" lon="-0.673201">
        <ele>896</ele>
        <time>2019-04-21T07:27:11.000Z</time>
      </trkpt>
      <trkpt lat="38.496001" lon="-0.673163">
        <ele>896</ele>
        <time>2019-04-21T07:27:13.000Z</time>
      </trkpt>
      <trkpt lat="38.496003" lon="-0.673124">
        <ele>897</ele>
        <time>2019-04-21T07:27:15.000Z</time>
      </trkpt>
      <trkpt lat="38.496002" lon="-0.673098">
        <ele>897</ele>
        <time>2019-04-21T07:27:16.000Z</time>
      </trkpt>
      <trkpt lat="38.496007" lon="-0.673075">
        <ele>897</ele>
        <time>2019-04-21T07:27:17.000Z</time>
      </trkpt>
      <trkpt lat="38.496012" lon="-0.673053">
        <ele>897</ele>
        <time>2019-04-21T07:27:18.000Z</time>
      </trkpt>
      <trkpt lat="38.49602" lon="-0.67303">
        <ele>897</ele>
        <time>2019-04-21T07:27:19.000Z</time>
      </trkpt>
      <trkpt lat="38.496031" lon="-0.673009">
        <ele>897</ele>
        <time>2019-04-21T07:27:20.000Z</time>
      </trkpt>
      <trkpt lat="38.496041" lon="-0.672986">
        <ele>897</ele>
        <time>2019-04-21T07:27:21.000Z</time>
      </trkpt>
      <trkpt lat="38.49605" lon="-0.672965">
        <ele>898.628323195251</ele>
        <time>2019-04-21T07:27:22.000Z</time>
      </trkpt>
      <trkpt lat="38.496058" lon="-0.672925">
        <ele>899</ele>
        <time>2019-04-21T07:27:24.000Z</time>
      </trkpt>
      <trkpt lat="38.496067" lon="-0.672904">
        <ele>899.240381538462</ele>
        <time>2019-04-21T07:27:25.000Z</time>
      </trkpt>
      <trkpt lat="38.496075" lon="-0.672883">
        <ele>900</ele>
        <time>2019-04-21T07:27:26.000Z</time>
      </trkpt>
      <trkpt lat="38.496079" lon="-0.672842">
        <ele>900.210525606651</ele>
        <time>2019-04-21T07:27:28.000Z</time>
      </trkpt>
      <trkpt lat="38.496075" lon="-0.672803">
        <ele>901</ele>
        <time>2019-04-21T07:27:30.000Z</time>
      </trkpt>
      <trkpt lat="38.496068" lon="-0.672761">
        <ele>901</ele>
        <time>2019-04-21T07:27:32.000Z</time>
      </trkpt>
      <trkpt lat="38.496068" lon="-0.672721">
        <ele>901.951995248676</ele>
        <time>2019-04-21T07:27:34.000Z</time>
      </trkpt>
      <trkpt lat="38.496073" lon="-0.672698">
        <ele>902</ele>
        <time>2019-04-21T07:27:35.000Z</time>
      </trkpt>
      <trkpt lat="38.496087" lon="-0.672663">
        <ele>902</ele>
        <time>2019-04-21T07:27:37.000Z</time>
      </trkpt>
      <trkpt lat="38.496092" lon="-0.672639">
        <ele>902.137930527152</ele>
        <time>2019-04-21T07:27:38.000Z</time>
      </trkpt>
      <trkpt lat="38.496098" lon="-0.672614">
        <ele>903</ele>
        <time>2019-04-21T07:27:39.000Z</time>
      </trkpt>
      <trkpt lat="38.496105" lon="-0.672589">
        <ele>903.240381538462</ele>
        <time>2019-04-21T07:27:40.000Z</time>
      </trkpt>
      <trkpt lat="38.496125" lon="-0.67255">
        <ele>904</ele>
        <time>2019-04-21T07:27:42.000Z</time>
      </trkpt>
      <trkpt lat="38.49615" lon="-0.672519">
        <ele>904</ele>
        <time>2019-04-21T07:27:44.000Z</time>
      </trkpt>
      <trkpt lat="38.496168" lon="-0.672489">
        <ele>904</ele>
        <time>2019-04-21T07:27:46.000Z</time>
      </trkpt>
      <trkpt lat="38.496182" lon="-0.672463">
        <ele>904</ele>
        <time>2019-04-21T07:27:48.000Z</time>
      </trkpt>
      <trkpt lat="38.496197" lon="-0.672436">
        <ele>904</ele>
        <time>2019-04-21T07:27:50.000Z</time>
      </trkpt>
      <trkpt lat="38.496212" lon="-0.672412">
        <ele>904</ele>
        <time>2019-04-21T07:27:52.000Z</time>
      </trkpt>
      <trkpt lat="38.496224" lon="-0.67239">
        <ele>904</ele>
        <time>2019-04-21T07:27:54.000Z</time>
      </trkpt>
      <trkpt lat="38.496237" lon="-0.672366">
        <ele>904</ele>
        <time>2019-04-21T07:27:56.000Z</time>
      </trkpt>
      <trkpt lat="38.496249" lon="-0.672346">
        <ele>904</ele>
        <time>2019-04-21T07:27:58.000Z</time>
      </trkpt>
      <trkpt lat="38.496269" lon="-0.67233">
        <ele>904</ele>
        <time>2019-04-21T07:28:00.000Z</time>
      </trkpt>
      <trkpt lat="38.496288" lon="-0.672324">
        <ele>904.247522368388</ele>
        <time>2019-04-21T07:28:02.000Z</time>
      </trkpt>
      <trkpt lat="38.49631" lon="-0.672334">
        <ele>904.815220869565</ele>
        <time>2019-04-21T07:28:05.000Z</time>
      </trkpt>
      <trkpt lat="38.49633" lon="-0.67234">
        <ele>904</ele>
        <time>2019-04-21T07:28:06.000Z</time>
      </trkpt>
      <trkpt lat="38.496366" lon="-0.672349">
        <ele>904</ele>
        <time>2019-04-21T07:28:08.000Z</time>
      </trkpt>
      <trkpt lat="38.496386" lon="-0.672355">
        <ele>904</ele>
        <time>2019-04-21T07:28:09.000Z</time>
      </trkpt>
      <trkpt lat="38.496408" lon="-0.67236">
        <ele>904</ele>
        <time>2019-04-21T07:28:10.000Z</time>
      </trkpt>
      <trkpt lat="38.496428" lon="-0.672366">
        <ele>904</ele>
        <time>2019-04-21T07:28:11.000Z</time>
      </trkpt>
      <trkpt lat="38.496448" lon="-0.672369">
        <ele>904</ele>
        <time>2019-04-21T07:28:12.000Z</time>
      </trkpt>
      <trkpt lat="38.496472" lon="-0.672371">
        <ele>904</ele>
        <time>2019-04-21T07:28:13.000Z</time>
      </trkpt>
      <trkpt lat="38.496506" lon="-0.672377">
        <ele>904</ele>
        <time>2019-04-21T07:28:15.000Z</time>
      </trkpt>
      <trkpt lat="38.496527" lon="-0.67238">
        <ele>904</ele>
        <time>2019-04-21T07:28:16.000Z</time>
      </trkpt>
      <trkpt lat="38.496546" lon="-0.67238">
        <ele>904</ele>
        <time>2019-04-21T07:28:17.000Z</time>
      </trkpt>
      <trkpt lat="38.496576" lon="-0.672389">
        <ele>904.234695610151</ele>
        <time>2019-04-21T07:28:19.000Z</time>
      </trkpt>
      <trkpt lat="38.496602" lon="-0.672408">
        <ele>906</ele>
        <time>2019-04-21T07:28:21.000Z</time>
      </trkpt>
      <trkpt lat="38.496636" lon="-0.672431">
        <ele>906</ele>
        <time>2019-04-21T07:28:23.000Z</time>
      </trkpt>
      <trkpt lat="38.496668" lon="-0.672447">
        <ele>906</ele>
        <time>2019-04-21T07:28:25.000Z</time>
      </trkpt>
      <trkpt lat="38.496704" lon="-0.67246">
        <ele>906</ele>
        <time>2019-04-21T07:28:27.000Z</time>
      </trkpt>
      <trkpt lat="38.496725" lon="-0.672463">
        <ele>906.2499968</ele>
        <time>2019-04-21T07:28:28.000Z</time>
      </trkpt>
      <trkpt lat="38.496742" lon="-0.67247">
        <ele>907</ele>
        <time>2019-04-21T07:28:29.000Z</time>
      </trkpt>
      <trkpt lat="38.496762" lon="-0.672478">
        <ele>907</ele>
        <time>2019-04-21T07:28:30.000Z</time>
      </trkpt>
      <trkpt lat="38.496796" lon="-0.67249">
        <ele>907</ele>
        <time>2019-04-21T07:28:32.000Z</time>
      </trkpt>
      <trkpt lat="38.496816" lon="-0.672494">
        <ele>907</ele>
        <time>2019-04-21T07:28:33.000Z</time>
      </trkpt>
      <trkpt lat="38.496836" lon="-0.672498">
        <ele>907.242423458833</ele>
        <time>2019-04-21T07:28:34.000Z</time>
      </trkpt>
      <trkpt lat="38.496856" lon="-0.672501">
        <ele>908</ele>
        <time>2019-04-21T07:28:35.000Z</time>
      </trkpt>
      <trkpt lat="38.496878" lon="-0.672505">
        <ele>908</ele>
        <time>2019-04-21T07:28:36.000Z</time>
      </trkpt>
      <trkpt lat="38.4969" lon="-0.672508">
        <ele>908</ele>
        <time>2019-04-21T07:28:37.000Z</time>
      </trkpt>
      <trkpt lat="38.496924" lon="-0.672508">
        <ele>908</ele>
        <time>2019-04-21T07:28:38.000Z</time>
      </trkpt>
      <trkpt lat="38.496946" lon="-0.672509">
        <ele>908</ele>
        <time>2019-04-21T07:28:39.000Z</time>
      </trkpt>
      <trkpt lat="38.496966" lon="-0.672511">
        <ele>908</ele>
        <time>2019-04-21T07:28:40.000Z</time>
      </trkpt>
      <trkpt lat="38.496988" lon="-0.67251">
        <ele>908</ele>
        <time>2019-04-21T07:28:41.000Z</time>
      </trkpt>
      <trkpt lat="38.49701" lon="-0.67251">
        <ele>908</ele>
        <time>2019-04-21T07:28:42.000Z</time>
      </trkpt>
      <trkpt lat="38.49703" lon="-0.672506">
        <ele>908</ele>
        <time>2019-04-21T07:28:43.000Z</time>
      </trkpt>
      <trkpt lat="38.497054" lon="-0.672506">
        <ele>908</ele>
        <time>2019-04-21T07:28:44.000Z</time>
      </trkpt>
      <trkpt lat="38.497077" lon="-0.672511">
        <ele>908</ele>
        <time>2019-04-21T07:28:45.000Z</time>
      </trkpt>
      <trkpt lat="38.4971" lon="-0.672513">
        <ele>908</ele>
        <time>2019-04-21T07:28:46.000Z</time>
      </trkpt>
      <trkpt lat="38.497123" lon="-0.672516">
        <ele>908</ele>
        <time>2019-04-21T07:28:47.000Z</time>
      </trkpt>
      <trkpt lat="38.497146" lon="-0.672518">
        <ele>908</ele>
        <time>2019-04-21T07:28:48.000Z</time>
      </trkpt>
      <trkpt lat="38.497172" lon="-0.672517">
        <ele>908</ele>
        <time>2019-04-21T07:28:49.000Z</time>
      </trkpt>
      <trkpt lat="38.497196" lon="-0.672522">
        <ele>908</ele>
        <time>2019-04-21T07:28:50.000Z</time>
      </trkpt>
      <trkpt lat="38.49722" lon="-0.67253">
        <ele>908</ele>
        <time>2019-04-21T07:28:51.000Z</time>
      </trkpt>
      <trkpt lat="38.497239" lon="-0.672536">
        <ele>908</ele>
        <time>2019-04-21T07:28:52.000Z</time>
      </trkpt>
      <trkpt lat="38.497258" lon="-0.672533">
        <ele>908</ele>
        <time>2019-04-21T07:28:53.000Z</time>
      </trkpt>
      <trkpt lat="38.497288" lon="-0.672525">
        <ele>908</ele>
        <time>2019-04-21T07:28:55.000Z</time>
      </trkpt>
      <trkpt lat="38.497312" lon="-0.672519">
        <ele>908</ele>
        <time>2019-04-21T07:28:57.000Z</time>
      </trkpt>
      <trkpt lat="38.497342" lon="-0.672516">
        <ele>908</ele>
        <time>2019-04-21T07:29:00.000Z</time>
      </trkpt>
      <trkpt lat="38.497369" lon="-0.672513">
        <ele>908</ele>
        <time>2019-04-21T07:29:02.000Z</time>
      </trkpt>
      <trkpt lat="38.497397" lon="-0.672511">
        <ele>908</ele>
        <time>2019-04-21T07:29:04.000Z</time>
      </trkpt>
      <trkpt lat="38.497423" lon="-0.672509">
        <ele>908</ele>
        <time>2019-04-21T07:29:06.000Z</time>
      </trkpt>
      <trkpt lat="38.497443" lon="-0.672506">
        <ele>908</ele>
        <time>2019-04-21T07:29:08.000Z</time>
      </trkpt>
      <trkpt lat="38.497472" lon="-0.672499">
        <ele>908</ele>
        <time>2019-04-21T07:29:10.000Z</time>
      </trkpt>
      <trkpt lat="38.497493" lon="-0.672499">
        <ele>908</ele>
        <time>2019-04-21T07:29:11.000Z</time>
      </trkpt>
      <trkpt lat="38.497514" lon="-0.6725">
        <ele>908</ele>
        <time>2019-04-21T07:29:12.000Z</time>
      </trkpt>
      <trkpt lat="38.497532" lon="-0.672501">
        <ele>908</ele>
        <time>2019-04-21T07:29:13.000Z</time>
      </trkpt>
      <trkpt lat="38.497552" lon="-0.672501">
        <ele>908</ele>
        <time>2019-04-21T07:29:14.000Z</time>
      </trkpt>
      <trkpt lat="38.497572" lon="-0.672505">
        <ele>908</ele>
        <time>2019-04-21T07:29:15.000Z</time>
      </trkpt>
      <trkpt lat="38.497591" lon="-0.672502">
        <ele>908</ele>
        <time>2019-04-21T07:29:16.000Z</time>
      </trkpt>
      <trkpt lat="38.497628" lon="-0.672501">
        <ele>908</ele>
        <time>2019-04-21T07:29:18.000Z</time>
      </trkpt>
      <trkpt lat="38.49765" lon="-0.672504">
        <ele>908</ele>
        <time>2019-04-21T07:29:19.000Z</time>
      </trkpt>
      <trkpt lat="38.497671" lon="-0.672505">
        <ele>908</ele>
        <time>2019-04-21T07:29:20.000Z</time>
      </trkpt>
      <trkpt lat="38.497692" lon="-0.672505">
        <ele>908</ele>
        <time>2019-04-21T07:29:21.000Z</time>
      </trkpt>
      <trkpt lat="38.497711" lon="-0.672501">
        <ele>908</ele>
        <time>2019-04-21T07:29:22.000Z</time>
      </trkpt>
      <trkpt lat="38.49773" lon="-0.672499">
        <ele>908</ele>
        <time>2019-04-21T07:29:23.000Z</time>
      </trkpt>
      <trkpt lat="38.497751" lon="-0.672492">
        <ele>908</ele>
        <time>2019-04-21T07:29:24.000Z</time>
      </trkpt>
      <trkpt lat="38.497773" lon="-0.67248">
        <ele>908</ele>
        <time>2019-04-21T07:29:25.000Z</time>
      </trkpt>
      <trkpt lat="38.497797" lon="-0.67247">
        <ele>908</ele>
        <time>2019-04-21T07:29:26.000Z</time>
      </trkpt>
      <trkpt lat="38.497819" lon="-0.672464">
        <ele>908</ele>
        <time>2019-04-21T07:29:27.000Z</time>
      </trkpt>
      <trkpt lat="38.497838" lon="-0.672464">
        <ele>908</ele>
        <time>2019-04-21T07:29:28.000Z</time>
      </trkpt>
      <trkpt lat="38.497863" lon="-0.672461">
        <ele>908</ele>
        <time>2019-04-21T07:29:29.000Z</time>
      </trkpt>
      <trkpt lat="38.49789" lon="-0.672456">
        <ele>908</ele>
        <time>2019-04-21T07:29:30.000Z</time>
      </trkpt>
      <trkpt lat="38.497913" lon="-0.672454">
        <ele>908</ele>
        <time>2019-04-21T07:29:31.000Z</time>
      </trkpt>
      <trkpt lat="38.497936" lon="-0.672458">
        <ele>908</ele>
        <time>2019-04-21T07:29:32.000Z</time>
      </trkpt>
      <trkpt lat="38.497957" lon="-0.67246">
        <ele>908</ele>
        <time>2019-04-21T07:29:33.000Z</time>
      </trkpt>
      <trkpt lat="38.497989" lon="-0.672453">
        <ele>908</ele>
        <time>2019-04-21T07:29:35.000Z</time>
      </trkpt>
      <trkpt lat="38.498018" lon="-0.672453">
        <ele>908</ele>
        <time>2019-04-21T07:29:37.000Z</time>
      </trkpt>
      <trkpt lat="38.49804" lon="-0.672461">
        <ele>908</ele>
        <time>2019-04-21T07:29:38.000Z</time>
      </trkpt>
      <trkpt lat="38.498059" lon="-0.672473">
        <ele>907.7500032</ele>
        <time>2019-04-21T07:29:39.000Z</time>
      </trkpt>
      <trkpt lat="38.498079" lon="-0.672485">
        <ele>907</ele>
        <time>2019-04-21T07:29:40.000Z</time>
      </trkpt>
      <trkpt lat="38.498099" lon="-0.672489">
        <ele>907</ele>
        <time>2019-04-21T07:29:41.000Z</time>
      </trkpt>
      <trkpt lat="38.49812" lon="-0.672491">
        <ele>907</ele>
        <time>2019-04-21T07:29:42.000Z</time>
      </trkpt>
      <trkpt lat="38.498154" lon="-0.672499">
        <ele>907</ele>
        <time>2019-04-21T07:29:44.000Z</time>
      </trkpt>
      <trkpt lat="38.498172" lon="-0.67251">
        <ele>907</ele>
        <time>2019-04-21T07:29:45.000Z</time>
      </trkpt>
      <trkpt lat="38.498189" lon="-0.672524">
        <ele>907</ele>
        <time>2019-04-21T07:29:46.000Z</time>
      </trkpt>
      <trkpt lat="38.49821" lon="-0.672531">
        <ele>907</ele>
        <time>2019-04-21T07:29:47.000Z</time>
      </trkpt>
      <trkpt lat="38.498229" lon="-0.672538">
        <ele>907</ele>
        <time>2019-04-21T07:29:48.000Z</time>
      </trkpt>
      <trkpt lat="38.498248" lon="-0.67255">
        <ele>907</ele>
        <time>2019-04-21T07:29:49.000Z</time>
      </trkpt>
      <trkpt lat="38.498263" lon="-0.672569">
        <ele>907</ele>
        <time>2019-04-21T07:29:50.000Z</time>
      </trkpt>
      <trkpt lat="38.498277" lon="-0.672585">
        <ele>907</ele>
        <time>2019-04-21T07:29:51.000Z</time>
      </trkpt>
      <trkpt lat="38.498292" lon="-0.672599">
        <ele>907</ele>
        <time>2019-04-21T07:29:52.000Z</time>
      </trkpt>
      <trkpt lat="38.498307" lon="-0.672611">
        <ele>907</ele>
        <time>2019-04-21T07:29:53.000Z</time>
      </trkpt>
      <trkpt lat="38.498324" lon="-0.672619">
        <ele>907</ele>
        <time>2019-04-21T07:29:54.000Z</time>
      </trkpt>
      <trkpt lat="38.498342" lon="-0.67263">
        <ele>907</ele>
        <time>2019-04-21T07:29:55.000Z</time>
      </trkpt>
      <trkpt lat="38.49836" lon="-0.67264">
        <ele>907.247522368388</ele>
        <time>2019-04-21T07:29:56.000Z</time>
      </trkpt>
      <trkpt lat="38.498378" lon="-0.672647">
        <ele>908</ele>
        <time>2019-04-21T07:29:57.000Z</time>
      </trkpt>
      <trkpt lat="38.498396" lon="-0.672653">
        <ele>908</ele>
        <time>2019-04-21T07:29:58.000Z</time>
      </trkpt>
      <trkpt lat="38.498424" lon="-0.672681">
        <ele>908</ele>
        <time>2019-04-21T07:30:00.000Z</time>
      </trkpt>
      <trkpt lat="38.49844" lon="-0.672693">
        <ele>908</ele>
        <time>2019-04-21T07:30:01.000Z</time>
      </trkpt>
      <trkpt lat="38.498456" lon="-0.672707">
        <ele>908</ele>
        <time>2019-04-21T07:30:02.000Z</time>
      </trkpt>
      <trkpt lat="38.498472" lon="-0.67272">
        <ele>908</ele>
        <time>2019-04-21T07:30:03.000Z</time>
      </trkpt>
      <trkpt lat="38.49849" lon="-0.67273">
        <ele>908</ele>
        <time>2019-04-21T07:30:04.000Z</time>
      </trkpt>
      <trkpt lat="38.498508" lon="-0.672737">
        <ele>908.190836785742</ele>
        <time>2019-04-21T07:30:05.000Z</time>
      </trkpt>
      <trkpt lat="38.498525" lon="-0.672743">
        <ele>908.95419369968</ele>
        <time>2019-04-21T07:30:06.000Z</time>
      </trkpt>
      <trkpt lat="38.498554" lon="-0.672758">
        <ele>909.193542171328</ele>
        <time>2019-04-21T07:30:08.000Z</time>
      </trkpt>
      <trkpt lat="38.498568" lon="-0.672789">
        <ele>911</ele>
        <time>2019-04-21T07:30:10.000Z</time>
      </trkpt>
      <trkpt lat="38.498585" lon="-0.672821">
        <ele>910.766356034596</ele>
        <time>2019-04-21T07:30:12.000Z</time>
      </trkpt>
      <trkpt lat="38.498595" lon="-0.672855">
        <ele>910</ele>
        <time>2019-04-21T07:30:14.000Z</time>
      </trkpt>
      <trkpt lat="38.498604" lon="-0.672876">
        <ele>910</ele>
        <time>2019-04-21T07:30:15.000Z</time>
      </trkpt>
      <trkpt lat="38.498616" lon="-0.672894">
        <ele>910.234695610151</ele>
        <time>2019-04-21T07:30:16.000Z</time>
      </trkpt>
      <trkpt lat="38.49863" lon="-0.67291">
        <ele>911.229355535723</ele>
        <time>2019-04-21T07:30:17.000Z</time>
      </trkpt>
      <trkpt lat="38.498643" lon="-0.672926">
        <ele>912</ele>
        <time>2019-04-21T07:30:18.000Z</time>
      </trkpt>
      <trkpt lat="38.498668" lon="-0.672952">
        <ele>913</ele>
        <time>2019-04-21T07:30:20.000Z</time>
      </trkpt>
      <trkpt lat="38.498688" lon="-0.672979">
        <ele>913</ele>
        <time>2019-04-21T07:30:22.000Z</time>
      </trkpt>
      <trkpt lat="38.498701" lon="-0.673011">
        <ele>913</ele>
        <time>2019-04-21T07:30:24.000Z</time>
      </trkpt>
      <trkpt lat="38.498717" lon="-0.673048">
        <ele>913</ele>
        <time>2019-04-21T07:30:26.000Z</time>
      </trkpt>
      <trkpt lat="38.498739" lon="-0.673076">
        <ele>913</ele>
        <time>2019-04-21T07:30:28.000Z</time>
      </trkpt>
      <trkpt lat="38.498754" lon="-0.673111">
        <ele>914</ele>
        <time>2019-04-21T07:30:30.000Z</time>
      </trkpt>
      <trkpt lat="38.498771" lon="-0.673143">
        <ele>914</ele>
        <time>2019-04-21T07:30:32.000Z</time>
      </trkpt>
      <trkpt lat="38.498783" lon="-0.67317">
        <ele>914</ele>
        <time>2019-04-21T07:30:34.000Z</time>
      </trkpt>
      <trkpt lat="38.498795" lon="-0.673203">
        <ele>914</ele>
        <time>2019-04-21T07:30:36.000Z</time>
      </trkpt>
      <trkpt lat="38.498813" lon="-0.673237">
        <ele>914.2499968</ele>
        <time>2019-04-21T07:30:38.000Z</time>
      </trkpt>
      <trkpt lat="38.498835" lon="-0.673262">
        <ele>915</ele>
        <time>2019-04-21T07:30:40.000Z</time>
      </trkpt>
      <trkpt lat="38.498851" lon="-0.673282">
        <ele>915</ele>
        <time>2019-04-21T07:30:42.000Z</time>
      </trkpt>
      <trkpt lat="38.498877" lon="-0.673291">
        <ele>915.95419369968</ele>
        <time>2019-04-21T07:30:44.000Z</time>
      </trkpt>
      <trkpt lat="38.498895" lon="-0.673292">
        <ele>916.193542171328</ele>
        <time>2019-04-21T07:30:46.000Z</time>
      </trkpt>
      <trkpt lat="38.498915" lon="-0.673303">
        <ele>918</ele>
        <time>2019-04-21T07:30:48.000Z</time>
      </trkpt>
      <trkpt lat="38.498933" lon="-0.673323">
        <ele>918</ele>
        <time>2019-04-21T07:30:50.000Z</time>
      </trkpt>
      <trkpt lat="38.498959" lon="-0.673334">
        <ele>918</ele>
        <time>2019-04-21T07:30:52.000Z</time>
      </trkpt>
      <trkpt lat="38.498977" lon="-0.673326">
        <ele>919</ele>
        <time>2019-04-21T07:30:55.000Z</time>
      </trkpt>
      <trkpt lat="38.499006" lon="-0.673319">
        <ele>919</ele>
        <time>2019-04-21T07:30:57.000Z</time>
      </trkpt>
      <trkpt lat="38.499028" lon="-0.673317">
        <ele>920</ele>
        <time>2019-04-21T07:30:59.000Z</time>
      </trkpt>
      <trkpt lat="38.499053" lon="-0.673309">
        <ele>920</ele>
        <time>2019-04-21T07:31:02.000Z</time>
      </trkpt>
      <trkpt lat="38.499089" lon="-0.673318">
        <ele>920</ele>
        <time>2019-04-21T07:31:04.000Z</time>
      </trkpt>
      <trkpt lat="38.499108" lon="-0.673324">
        <ele>920</ele>
        <time>2019-04-21T07:31:05.000Z</time>
      </trkpt>
      <trkpt lat="38.499128" lon="-0.673326">
        <ele>920</ele>
        <time>2019-04-21T07:31:06.000Z</time>
      </trkpt>
      <trkpt lat="38.49915" lon="-0.673326">
        <ele>920</ele>
        <time>2019-04-21T07:31:07.000Z</time>
      </trkpt>
      <trkpt lat="38.499172" lon="-0.673328">
        <ele>920</ele>
        <time>2019-04-21T07:31:08.000Z</time>
      </trkpt>
      <trkpt lat="38.499194" lon="-0.67333">
        <ele>920</ele>
        <time>2019-04-21T07:31:09.000Z</time>
      </trkpt>
      <trkpt lat="38.499214" lon="-0.673326">
        <ele>920</ele>
        <time>2019-04-21T07:31:10.000Z</time>
      </trkpt>
      <trkpt lat="38.499234" lon="-0.673313">
        <ele>919</ele>
        <time>2019-04-21T07:31:11.000Z</time>
      </trkpt>
      <trkpt lat="38.499253" lon="-0.673296">
        <ele>919</ele>
        <time>2019-04-21T07:31:12.000Z</time>
      </trkpt>
      <trkpt lat="38.499271" lon="-0.673278">
        <ele>919</ele>
        <time>2019-04-21T07:31:13.000Z</time>
      </trkpt>
      <trkpt lat="38.499286" lon="-0.673261">
        <ele>919.23584746172</ele>
        <time>2019-04-21T07:31:14.000Z</time>
      </trkpt>
      <trkpt lat="38.499323" lon="-0.673264">
        <ele>920</ele>
        <time>2019-04-21T07:31:16.000Z</time>
      </trkpt>
      <trkpt lat="38.499346" lon="-0.673267">
        <ele>920</ele>
        <time>2019-04-21T07:31:17.000Z</time>
      </trkpt>
      <trkpt lat="38.499366" lon="-0.673262">
        <ele>920</ele>
        <time>2019-04-21T07:31:18.000Z</time>
      </trkpt>
      <trkpt lat="38.499385" lon="-0.673262">
        <ele>920</ele>
        <time>2019-04-21T07:31:19.000Z</time>
      </trkpt>
      <trkpt lat="38.499419" lon="-0.673291">
        <ele>918.809163214258</ele>
        <time>2019-04-21T07:31:21.000Z</time>
      </trkpt>
      <trkpt lat="38.499442" lon="-0.673309">
        <ele>918.04580630032</ele>
        <time>2019-04-21T07:31:22.000Z</time>
      </trkpt>
      <trkpt lat="38.499464" lon="-0.673323">
        <ele>918</ele>
        <time>2019-04-21T07:31:23.000Z</time>
      </trkpt>
      <trkpt lat="38.499481" lon="-0.673331">
        <ele>918</ele>
        <time>2019-04-21T07:31:24.000Z</time>
      </trkpt>
      <trkpt lat="38.499499" lon="-0.673341">
        <ele>918</ele>
        <time>2019-04-21T07:31:25.000Z</time>
      </trkpt>
      <trkpt lat="38.499516" lon="-0.673353">
        <ele>918</ele>
        <time>2019-04-21T07:31:26.000Z</time>
      </trkpt>
      <trkpt lat="38.499534" lon="-0.673363">
        <ele>917.7500032</ele>
        <time>2019-04-21T07:31:27.000Z</time>
      </trkpt>
      <trkpt lat="38.499551" lon="-0.673372">
        <ele>917</ele>
        <time>2019-04-21T07:31:28.000Z</time>
      </trkpt>
      <trkpt lat="38.499567" lon="-0.673382">
        <ele>917</ele>
        <time>2019-04-21T07:31:29.000Z</time>
      </trkpt>
      <trkpt lat="38.499599" lon="-0.673403">
        <ele>917</ele>
        <time>2019-04-21T07:31:31.000Z</time>
      </trkpt>
      <trkpt lat="38.499617" lon="-0.673413">
        <ele>917</ele>
        <time>2019-04-21T07:31:32.000Z</time>
      </trkpt>
      <trkpt lat="38.499648" lon="-0.673433">
        <ele>917</ele>
        <time>2019-04-21T07:31:34.000Z</time>
      </trkpt>
      <trkpt lat="38.499676" lon="-0.673458">
        <ele>917</ele>
        <time>2019-04-21T07:31:36.000Z</time>
      </trkpt>
      <trkpt lat="38.499701" lon="-0.673483">
        <ele>917</ele>
        <time>2019-04-21T07:31:38.000Z</time>
      </trkpt>
      <trkpt lat="38.499716" lon="-0.673509">
        <ele>917</ele>
        <time>2019-04-21T07:31:40.000Z</time>
      </trkpt>
      <trkpt lat="38.49971" lon="-0.673534">
        <ele>917</ele>
        <time>2019-04-21T07:31:42.000Z</time>
      </trkpt>
      <trkpt lat="38.499718" lon="-0.673569">
        <ele>917</ele>
        <time>2019-04-21T07:31:44.000Z</time>
      </trkpt>
      <trkpt lat="38.499728" lon="-0.673588">
        <ele>917.247522368388</ele>
        <time>2019-04-21T07:31:45.000Z</time>
      </trkpt>
      <trkpt lat="38.499735" lon="-0.67361">
        <ele>918</ele>
        <time>2019-04-21T07:31:46.000Z</time>
      </trkpt>
      <trkpt lat="38.499741" lon="-0.673636">
        <ele>918</ele>
        <time>2019-04-21T07:31:47.000Z</time>
      </trkpt>
      <trkpt lat="38.499748" lon="-0.67366">
        <ele>918</ele>
        <time>2019-04-21T07:31:48.000Z</time>
      </trkpt>
      <trkpt lat="38.499755" lon="-0.673686">
        <ele>918</ele>
        <time>2019-04-21T07:31:49.000Z</time>
      </trkpt>
      <trkpt lat="38.499763" lon="-0.67371">
        <ele>918</ele>
        <time>2019-04-21T07:31:50.000Z</time>
      </trkpt>
      <trkpt lat="38.499772" lon="-0.673733">
        <ele>918</ele>
        <time>2019-04-21T07:31:51.000Z</time>
      </trkpt>
      <trkpt lat="38.499777" lon="-0.673756">
        <ele>918</ele>
        <time>2019-04-21T07:31:52.000Z</time>
      </trkpt>
      <trkpt lat="38.49978" lon="-0.673803">
        <ele>918</ele>
        <time>2019-04-21T07:31:54.000Z</time>
      </trkpt>
      <trkpt lat="38.49978" lon="-0.673828">
        <ele>918</ele>
        <time>2019-04-21T07:31:55.000Z</time>
      </trkpt>
      <trkpt lat="38.499781" lon="-0.673855">
        <ele>918</ele>
        <time>2019-04-21T07:31:56.000Z</time>
      </trkpt>
      <trkpt lat="38.499782" lon="-0.673883">
        <ele>918</ele>
        <time>2019-04-21T07:31:57.000Z</time>
      </trkpt>
      <trkpt lat="38.499785" lon="-0.673912">
        <ele>918</ele>
        <time>2019-04-21T07:31:58.000Z</time>
      </trkpt>
      <trkpt lat="38.499787" lon="-0.673941">
        <ele>918</ele>
        <time>2019-04-21T07:31:59.000Z</time>
      </trkpt>
      <trkpt lat="38.499786" lon="-0.673972">
        <ele>918</ele>
        <time>2019-04-21T07:32:00.000Z</time>
      </trkpt>
      <trkpt lat="38.499784" lon="-0.674003">
        <ele>918</ele>
        <time>2019-04-21T07:32:01.000Z</time>
      </trkpt>
      <trkpt lat="38.499784" lon="-0.674028">
        <ele>918</ele>
        <time>2019-04-21T07:32:02.000Z</time>
      </trkpt>
      <trkpt lat="38.499787" lon="-0.674074">
        <ele>918</ele>
        <time>2019-04-21T07:32:04.000Z</time>
      </trkpt>
      <trkpt lat="38.499786" lon="-0.674099">
        <ele>918</ele>
        <time>2019-04-21T07:32:05.000Z</time>
      </trkpt>
      <trkpt lat="38.499785" lon="-0.674125">
        <ele>918</ele>
        <time>2019-04-21T07:32:06.000Z</time>
      </trkpt>
      <trkpt lat="38.499786" lon="-0.674152">
        <ele>918</ele>
        <time>2019-04-21T07:32:07.000Z</time>
      </trkpt>
      <trkpt lat="38.499788" lon="-0.674178">
        <ele>918</ele>
        <time>2019-04-21T07:32:08.000Z</time>
      </trkpt>
      <trkpt lat="38.499793" lon="-0.674206">
        <ele>918</ele>
        <time>2019-04-21T07:32:09.000Z</time>
      </trkpt>
      <trkpt lat="38.499796" lon="-0.674232">
        <ele>918</ele>
        <time>2019-04-21T07:32:10.000Z</time>
      </trkpt>
      <trkpt lat="38.4998" lon="-0.674261">
        <ele>918</ele>
        <time>2019-04-21T07:32:11.000Z</time>
      </trkpt>
      <trkpt lat="38.499801" lon="-0.674292">
        <ele>918</ele>
        <time>2019-04-21T07:32:12.000Z</time>
      </trkpt>
      <trkpt lat="38.499801" lon="-0.674323">
        <ele>918</ele>
        <time>2019-04-21T07:32:13.000Z</time>
      </trkpt>
      <trkpt lat="38.499798" lon="-0.674353">
        <ele>918</ele>
        <time>2019-04-21T07:32:14.000Z</time>
      </trkpt>
      <trkpt lat="38.499796" lon="-0.674386">
        <ele>918</ele>
        <time>2019-04-21T07:32:15.000Z</time>
      </trkpt>
      <trkpt lat="38.499794" lon="-0.674417">
        <ele>918</ele>
        <time>2019-04-21T07:32:16.000Z</time>
      </trkpt>
      <trkpt lat="38.499792" lon="-0.674449">
        <ele>918</ele>
        <time>2019-04-21T07:32:17.000Z</time>
      </trkpt>
      <trkpt lat="38.499791" lon="-0.674478">
        <ele>918</ele>
        <time>2019-04-21T07:32:18.000Z</time>
      </trkpt>
      <trkpt lat="38.49979" lon="-0.67451">
        <ele>918</ele>
        <time>2019-04-21T07:32:19.000Z</time>
      </trkpt>
      <trkpt lat="38.499791" lon="-0.674545">
        <ele>918</ele>
        <time>2019-04-21T07:32:20.000Z</time>
      </trkpt>
      <trkpt lat="38.499793" lon="-0.674579">
        <ele>918</ele>
        <time>2019-04-21T07:32:21.000Z</time>
      </trkpt>
      <trkpt lat="38.499795" lon="-0.674612">
        <ele>918</ele>
        <time>2019-04-21T07:32:22.000Z</time>
      </trkpt>
      <trkpt lat="38.499796" lon="-0.674643">
        <ele>918.190836785742</ele>
        <time>2019-04-21T07:32:23.000Z</time>
      </trkpt>
      <trkpt lat="38.499802" lon="-0.674673">
        <ele>918.95419369968</ele>
        <time>2019-04-21T07:32:24.000Z</time>
      </trkpt>
      <trkpt lat="38.499809" lon="-0.674704">
        <ele>919</ele>
        <time>2019-04-21T07:32:25.000Z</time>
      </trkpt>
      <trkpt lat="38.499816" lon="-0.674737">
        <ele>918.7500032</ele>
        <time>2019-04-21T07:32:26.000Z</time>
      </trkpt>
      <trkpt lat="38.499823" lon="-0.674767">
        <ele>918</ele>
        <time>2019-04-21T07:32:27.000Z</time>
      </trkpt>
      <trkpt lat="38.499834" lon="-0.674798">
        <ele>918</ele>
        <time>2019-04-21T07:32:28.000Z</time>
      </trkpt>
      <trkpt lat="38.49984" lon="-0.674829">
        <ele>918.2499968</ele>
        <time>2019-04-21T07:32:29.000Z</time>
      </trkpt>
      <trkpt lat="38.499847" lon="-0.674858">
        <ele>919</ele>
        <time>2019-04-21T07:32:30.000Z</time>
      </trkpt>
      <trkpt lat="38.499854" lon="-0.674887">
        <ele>918.7500032</ele>
        <time>2019-04-21T07:32:31.000Z</time>
      </trkpt>
      <trkpt lat="38.499863" lon="-0.674914">
        <ele>918</ele>
        <time>2019-04-21T07:32:32.000Z</time>
      </trkpt>
      <trkpt lat="38.499872" lon="-0.674943">
        <ele>918</ele>
        <time>2019-04-21T07:32:33.000Z</time>
      </trkpt>
      <trkpt lat="38.499884" lon="-0.674973">
        <ele>918</ele>
        <time>2019-04-21T07:32:34.000Z</time>
      </trkpt>
      <trkpt lat="38.499896" lon="-0.675">
        <ele>918</ele>
        <time>2019-04-21T07:32:35.000Z</time>
      </trkpt>
      <trkpt lat="38.499911" lon="-0.675023">
        <ele>918</ele>
        <time>2019-04-21T07:32:36.000Z</time>
      </trkpt>
      <trkpt lat="38.499928" lon="-0.675041">
        <ele>918</ele>
        <time>2019-04-21T07:32:37.000Z</time>
      </trkpt>
      <trkpt lat="38.499943" lon="-0.675053">
        <ele>918</ele>
        <time>2019-04-21T07:32:38.000Z</time>
      </trkpt>
      <trkpt lat="38.499972" lon="-0.675072">
        <ele>918.210525606651</ele>
        <time>2019-04-21T07:32:40.000Z</time>
      </trkpt>
      <trkpt lat="38.499996" lon="-0.675094">
        <ele>920</ele>
        <time>2019-04-21T07:32:42.000Z</time>
      </trkpt>
      <trkpt lat="38.500017" lon="-0.675126">
        <ele>920.23584746172</ele>
        <time>2019-04-21T07:32:44.000Z</time>
      </trkpt>
      <trkpt lat="38.500028" lon="-0.675151">
        <ele>921</ele>
        <time>2019-04-21T07:32:45.000Z</time>
      </trkpt>
      <trkpt lat="38.500038" lon="-0.675177">
        <ele>921</ele>
        <time>2019-04-21T07:32:46.000Z</time>
      </trkpt>
      <trkpt lat="38.500051" lon="-0.675199">
        <ele>921</ele>
        <time>2019-04-21T07:32:47.000Z</time>
      </trkpt>
      <trkpt lat="38.500069" lon="-0.675236">
        <ele>921</ele>
        <time>2019-04-21T07:32:49.000Z</time>
      </trkpt>
      <trkpt lat="38.500083" lon="-0.675265">
        <ele>922</ele>
        <time>2019-04-21T07:32:51.000Z</time>
      </trkpt>
      <trkpt lat="38.500103" lon="-0.675284">
        <ele>922.210525606651</ele>
        <time>2019-04-21T07:32:53.000Z</time>
      </trkpt>
      <trkpt lat="38.500124" lon="-0.675288">
        <ele>923</ele>
        <time>2019-04-21T07:32:55.000Z</time>
      </trkpt>
      <trkpt lat="38.500143" lon="-0.675305">
        <ele>923</ele>
        <time>2019-04-21T07:32:57.000Z</time>
      </trkpt>
      <trkpt lat="38.500161" lon="-0.675324">
        <ele>924</ele>
        <time>2019-04-21T07:32:59.000Z</time>
      </trkpt>
      <trkpt lat="38.500183" lon="-0.675337">
        <ele>924</ele>
        <time>2019-04-21T07:33:01.000Z</time>
      </trkpt>
      <trkpt lat="38.500206" lon="-0.675356">
        <ele>925.2499968</ele>
        <time>2019-04-21T07:33:03.000Z</time>
      </trkpt>
      <trkpt lat="38.500226" lon="-0.675383">
        <ele>927</ele>
        <time>2019-04-21T07:33:05.000Z</time>
      </trkpt>
      <trkpt lat="38.500238" lon="-0.6754">
        <ele>927</ele>
        <time>2019-04-21T07:33:06.000Z</time>
      </trkpt>
      <trkpt lat="38.500261" lon="-0.675419">
        <ele>927</ele>
        <time>2019-04-21T07:33:08.000Z</time>
      </trkpt>
      <trkpt lat="38.500284" lon="-0.675453">
        <ele>927</ele>
        <time>2019-04-21T07:33:10.000Z</time>
      </trkpt>
      <trkpt lat="38.500302" lon="-0.675469">
        <ele>927</ele>
        <time>2019-04-21T07:33:11.000Z</time>
      </trkpt>
      <trkpt lat="38.500319" lon="-0.67548">
        <ele>927</ele>
        <time>2019-04-21T07:33:12.000Z</time>
      </trkpt>
      <trkpt lat="38.500335" lon="-0.675493">
        <ele>927</ele>
        <time>2019-04-21T07:33:13.000Z</time>
      </trkpt>
      <trkpt lat="38.500354" lon="-0.675509">
        <ele>927</ele>
        <time>2019-04-21T07:33:14.000Z</time>
      </trkpt>
      <trkpt lat="38.50037" lon="-0.675524">
        <ele>927</ele>
        <time>2019-04-21T07:33:15.000Z</time>
      </trkpt>
      <trkpt lat="38.500387" lon="-0.675535">
        <ele>927</ele>
        <time>2019-04-21T07:33:16.000Z</time>
      </trkpt>
      <trkpt lat="38.500406" lon="-0.675544">
        <ele>927</ele>
        <time>2019-04-21T07:33:17.000Z</time>
      </trkpt>
      <trkpt lat="38.500428" lon="-0.675549">
        <ele>926.810608484848</ele>
        <time>2019-04-21T07:33:18.000Z</time>
      </trkpt>
      <trkpt lat="38.500447" lon="-0.675554">
        <ele>926.053032727273</ele>
        <time>2019-04-21T07:33:19.000Z</time>
      </trkpt>
      <trkpt lat="38.500478" lon="-0.675573">
        <ele>926</ele>
        <time>2019-04-21T07:33:21.000Z</time>
      </trkpt>
      <trkpt lat="38.500495" lon="-0.675609">
        <ele>924.770644464277</ele>
        <time>2019-04-21T07:33:23.000Z</time>
      </trkpt>
      <trkpt lat="38.500514" lon="-0.675644">
        <ele>924</ele>
        <time>2019-04-21T07:33:25.000Z</time>
      </trkpt>
      <trkpt lat="38.500541" lon="-0.675672">
        <ele>922.7500032</ele>
        <time>2019-04-21T07:33:27.000Z</time>
      </trkpt>
      <trkpt lat="38.500558" lon="-0.675687">
        <ele>922</ele>
        <time>2019-04-21T07:33:28.000Z</time>
      </trkpt>
      <trkpt lat="38.500586" lon="-0.67569">
        <ele>921</ele>
        <time>2019-04-21T07:33:30.000Z</time>
      </trkpt>
      <trkpt lat="38.500605" lon="-0.675673">
        <ele>921</ele>
        <time>2019-04-21T07:33:32.000Z</time>
      </trkpt>
      <trkpt lat="38.500624" lon="-0.675659">
        <ele>921</ele>
        <time>2019-04-21T07:33:36.000Z</time>
      </trkpt>
      <trkpt lat="38.500647" lon="-0.675652">
        <ele>919</ele>
        <time>2019-04-21T07:33:50.000Z</time>
      </trkpt>
      <trkpt lat="38.500665" lon="-0.675646">
        <ele>918</ele>
        <time>2019-04-21T07:33:54.000Z</time>
      </trkpt>
      <trkpt lat="38.500682" lon="-0.675657">
        <ele>918</ele>
        <time>2019-04-21T07:34:03.000Z</time>
      </trkpt>
      <trkpt lat="38.500699" lon="-0.675668">
        <ele>917</ele>
        <time>2019-04-21T07:34:06.000Z</time>
      </trkpt>
      <trkpt lat="38.500712" lon="-0.675651">
        <ele>917</ele>
        <time>2019-04-21T07:34:08.000Z</time>
      </trkpt>
      <trkpt lat="38.50073" lon="-0.675644">
        <ele>917</ele>
        <time>2019-04-21T07:34:19.000Z</time>
      </trkpt>
      <trkpt lat="38.500753" lon="-0.675626">
        <ele>917</ele>
        <time>2019-04-21T07:34:21.000Z</time>
      </trkpt>
      <trkpt lat="38.50077" lon="-0.67561">
        <ele>917.2499968</ele>
        <time>2019-04-21T07:34:23.000Z</time>
      </trkpt>
      <trkpt lat="38.500791" lon="-0.675608">
        <ele>918</ele>
        <time>2019-04-21T07:34:26.000Z</time>
      </trkpt>
      <trkpt lat="38.500811" lon="-0.675602">
        <ele>918</ele>
        <time>2019-04-21T07:34:30.000Z</time>
      </trkpt>
      <trkpt lat="38.500828" lon="-0.675593">
        <ele>917</ele>
        <time>2019-04-21T07:34:33.000Z</time>
      </trkpt>
      <trkpt lat="38.50085" lon="-0.675598">
        <ele>916.852276363636</ele>
        <time>2019-04-21T07:34:36.000Z</time>
      </trkpt>
      <trkpt lat="38.50087" lon="-0.675608">
        <ele>916</ele>
        <time>2019-04-21T07:34:38.000Z</time>
      </trkpt>
      <trkpt lat="38.500894" lon="-0.675614">
        <ele>915.7500032</ele>
        <time>2019-04-21T07:34:40.000Z</time>
      </trkpt>
      <trkpt lat="38.500919" lon="-0.675617">
        <ele>914.766356034596</ele>
        <time>2019-04-21T07:34:42.000Z</time>
      </trkpt>
      <trkpt lat="38.500946" lon="-0.675604">
        <ele>913.7500032</ele>
        <time>2019-04-21T07:34:44.000Z</time>
      </trkpt>
      <trkpt lat="38.500973" lon="-0.675593">
        <ele>913</ele>
        <time>2019-04-21T07:34:46.000Z</time>
      </trkpt>
      <trkpt lat="38.501005" lon="-0.675589">
        <ele>912</ele>
        <time>2019-04-21T07:34:48.000Z</time>
      </trkpt>
      <trkpt lat="38.501029" lon="-0.675568">
        <ele>912.192306177507</ele>
        <time>2019-04-21T07:34:50.000Z</time>
      </trkpt>
      <trkpt lat="38.501058" lon="-0.675556">
        <ele>913</ele>
        <time>2019-04-21T07:34:52.000Z</time>
      </trkpt>
      <trkpt lat="38.501082" lon="-0.675555">
        <ele>913</ele>
        <time>2019-04-21T07:34:53.000Z</time>
      </trkpt>
      <trkpt lat="38.501103" lon="-0.675563">
        <ele>913.2499968</ele>
        <time>2019-04-21T07:34:54.000Z</time>
      </trkpt>
      <trkpt lat="38.501126" lon="-0.675565">
        <ele>914</ele>
        <time>2019-04-21T07:34:55.000Z</time>
      </trkpt>
      <trkpt lat="38.501148" lon="-0.675561">
        <ele>913.815220869565</ele>
        <time>2019-04-21T07:34:56.000Z</time>
      </trkpt>
      <trkpt lat="38.501168" lon="-0.675559">
        <ele>913</ele>
        <time>2019-04-21T07:34:57.000Z</time>
      </trkpt>
      <trkpt lat="38.501186" lon="-0.675563">
        <ele>913</ele>
        <time>2019-04-21T07:34:58.000Z</time>
      </trkpt>
      <trkpt lat="38.501223" lon="-0.675567">
        <ele>914</ele>
        <time>2019-04-21T07:35:00.000Z</time>
      </trkpt>
      <trkpt lat="38.501243" lon="-0.675569">
        <ele>914</ele>
        <time>2019-04-21T07:35:01.000Z</time>
      </trkpt>
      <trkpt lat="38.501263" lon="-0.67557">
        <ele>914</ele>
        <time>2019-04-21T07:35:02.000Z</time>
      </trkpt>
      <trkpt lat="38.501283" lon="-0.675563">
        <ele>914.240381538462</ele>
        <time>2019-04-21T07:35:03.000Z</time>
      </trkpt>
      <trkpt lat="38.501308" lon="-0.675548">
        <ele>915.223211428571</ele>
        <time>2019-04-21T07:35:05.000Z</time>
      </trkpt>
      <trkpt lat="38.501331" lon="-0.675544">
        <ele>916</ele>
        <time>2019-04-21T07:35:07.000Z</time>
      </trkpt>
      <trkpt lat="38.501355" lon="-0.675543">
        <ele>916</ele>
        <time>2019-04-21T07:35:09.000Z</time>
      </trkpt>
      <trkpt lat="38.501377" lon="-0.675545">
        <ele>916</ele>
        <time>2019-04-21T07:35:11.000Z</time>
      </trkpt>
      <trkpt lat="38.501403" lon="-0.675537">
        <ele>916</ele>
        <time>2019-04-21T07:35:13.000Z</time>
      </trkpt>
      <trkpt lat="38.501425" lon="-0.675546">
        <ele>916</ele>
        <time>2019-04-21T07:35:15.000Z</time>
      </trkpt>
      <trkpt lat="38.501456" lon="-0.675552">
        <ele>915</ele>
        <time>2019-04-21T07:35:17.000Z</time>
      </trkpt>
      <trkpt lat="38.501488" lon="-0.675565">
        <ele>914</ele>
        <time>2019-04-21T07:35:19.000Z</time>
      </trkpt>
      <trkpt lat="38.501508" lon="-0.67557">
        <ele>914</ele>
        <time>2019-04-21T07:35:20.000Z</time>
      </trkpt>
      <trkpt lat="38.501527" lon="-0.675568">
        <ele>913.757282397972</ele>
        <time>2019-04-21T07:35:21.000Z</time>
      </trkpt>
      <trkpt lat="38.501545" lon="-0.675563">
        <ele>913</ele>
        <time>2019-04-21T07:35:22.000Z</time>
      </trkpt>
      <trkpt lat="38.501564" lon="-0.675562">
        <ele>912.7500032</ele>
        <time>2019-04-21T07:35:23.000Z</time>
      </trkpt>
      <trkpt lat="38.501603" lon="-0.675578">
        <ele>912</ele>
        <time>2019-04-21T07:35:25.000Z</time>
      </trkpt>
      <trkpt lat="38.501627" lon="-0.675585">
        <ele>912</ele>
        <time>2019-04-21T07:35:26.000Z</time>
      </trkpt>
      <trkpt lat="38.50165" lon="-0.675588">
        <ele>911.872090254212</ele>
        <time>2019-04-21T07:35:27.000Z</time>
      </trkpt>
      <trkpt lat="38.501675" lon="-0.675591">
        <ele>911</ele>
        <time>2019-04-21T07:35:28.000Z</time>
      </trkpt>
      <trkpt lat="38.501698" lon="-0.675589">
        <ele>911</ele>
        <time>2019-04-21T07:35:29.000Z</time>
      </trkpt>
      <trkpt lat="38.501721" lon="-0.675587">
        <ele>911</ele>
        <time>2019-04-21T07:35:30.000Z</time>
      </trkpt>
      <trkpt lat="38.501743" lon="-0.675591">
        <ele>911</ele>
        <time>2019-04-21T07:35:31.000Z</time>
      </trkpt>
      <trkpt lat="38.501765" lon="-0.675596">
        <ele>911</ele>
        <time>2019-04-21T07:35:32.000Z</time>
      </trkpt>
      <trkpt lat="38.501786" lon="-0.675604">
        <ele>911</ele>
        <time>2019-04-21T07:35:33.000Z</time>
      </trkpt>
      <trkpt lat="38.501807" lon="-0.675611">
        <ele>911</ele>
        <time>2019-04-21T07:35:34.000Z</time>
      </trkpt>
      <trkpt lat="38.501826" lon="-0.675614">
        <ele>911</ele>
        <time>2019-04-21T07:35:35.000Z</time>
      </trkpt>
      <trkpt lat="38.501847" lon="-0.675612">
        <ele>912</ele>
        <time>2019-04-21T07:35:36.000Z</time>
      </trkpt>
      <trkpt lat="38.501867" lon="-0.675607">
        <ele>912</ele>
        <time>2019-04-21T07:35:37.000Z</time>
      </trkpt>
      <trkpt lat="38.501887" lon="-0.675606">
        <ele>912</ele>
        <time>2019-04-21T07:35:38.000Z</time>
      </trkpt>
      <trkpt lat="38.501906" lon="-0.675606">
        <ele>912</ele>
        <time>2019-04-21T07:35:39.000Z</time>
      </trkpt>
      <trkpt lat="38.501926" lon="-0.675608">
        <ele>912</ele>
        <time>2019-04-21T07:35:40.000Z</time>
      </trkpt>
      <trkpt lat="38.501944" lon="-0.675611">
        <ele>912</ele>
        <time>2019-04-21T07:35:41.000Z</time>
      </trkpt>
      <trkpt lat="38.501965" lon="-0.675613">
        <ele>912</ele>
        <time>2019-04-21T07:35:42.000Z</time>
      </trkpt>
      <trkpt lat="38.501989" lon="-0.675612">
        <ele>912</ele>
        <time>2019-04-21T07:35:43.000Z</time>
      </trkpt>
      <trkpt lat="38.502013" lon="-0.675603">
        <ele>912</ele>
        <time>2019-04-21T07:35:44.000Z</time>
      </trkpt>
      <trkpt lat="38.502039" lon="-0.67559">
        <ele>912</ele>
        <time>2019-04-21T07:35:45.000Z</time>
      </trkpt>
      <trkpt lat="38.502061" lon="-0.675584">
        <ele>912</ele>
        <time>2019-04-21T07:35:46.000Z</time>
      </trkpt>
      <trkpt lat="38.502081" lon="-0.675582">
        <ele>912</ele>
        <time>2019-04-21T07:35:47.000Z</time>
      </trkpt>
      <trkpt lat="38.502116" lon="-0.675578">
        <ele>912</ele>
        <time>2019-04-21T07:35:49.000Z</time>
      </trkpt>
      <trkpt lat="38.502137" lon="-0.675576">
        <ele>912</ele>
        <time>2019-04-21T07:35:50.000Z</time>
      </trkpt>
      <trkpt lat="38.502171" lon="-0.675586">
        <ele>913</ele>
        <time>2019-04-21T07:35:52.000Z</time>
      </trkpt>
      <trkpt lat="38.502189" lon="-0.675595">
        <ele>913</ele>
        <time>2019-04-21T07:35:53.000Z</time>
      </trkpt>
      <trkpt lat="38.50222" lon="-0.675592">
        <ele>915.247522368388</ele>
        <time>2019-04-21T07:35:55.000Z</time>
      </trkpt>
      <trkpt lat="38.502255" lon="-0.675592">
        <ele>914.772728859513</ele>
        <time>2019-04-21T07:35:57.000Z</time>
      </trkpt>
      <trkpt lat="38.502275" lon="-0.675594">
        <ele>914</ele>
        <time>2019-04-21T07:35:58.000Z</time>
      </trkpt>
      <trkpt lat="38.502294" lon="-0.675599">
        <ele>913.7500032</ele>
        <time>2019-04-21T07:35:59.000Z</time>
      </trkpt>
      <trkpt lat="38.502328" lon="-0.675598">
        <ele>913</ele>
        <time>2019-04-21T07:36:01.000Z</time>
      </trkpt>
      <trkpt lat="38.502352" lon="-0.675601">
        <ele>913</ele>
        <time>2019-04-21T07:36:02.000Z</time>
      </trkpt>
      <trkpt lat="38.502379" lon="-0.675603">
        <ele>912.752477631612</ele>
        <time>2019-04-21T07:36:03.000Z</time>
      </trkpt>
      <trkpt lat="38.502401" lon="-0.675604">
        <ele>912</ele>
        <time>2019-04-21T07:36:04.000Z</time>
      </trkpt>
      <trkpt lat="38.502424" lon="-0.675607">
        <ele>912</ele>
        <time>2019-04-21T07:36:05.000Z</time>
      </trkpt>
      <trkpt lat="38.502443" lon="-0.675606">
        <ele>912</ele>
        <time>2019-04-21T07:36:06.000Z</time>
      </trkpt>
      <trkpt lat="38.502463" lon="-0.675607">
        <ele>912</ele>
        <time>2019-04-21T07:36:07.000Z</time>
      </trkpt>
      <trkpt lat="38.502481" lon="-0.67561">
        <ele>911.7500032</ele>
        <time>2019-04-21T07:36:08.000Z</time>
      </trkpt>
      <trkpt lat="38.502519" lon="-0.675607">
        <ele>911</ele>
        <time>2019-04-21T07:36:10.000Z</time>
      </trkpt>
      <trkpt lat="38.50255" lon="-0.675616">
        <ele>911</ele>
        <time>2019-04-21T07:36:12.000Z</time>
      </trkpt>
      <trkpt lat="38.502575" lon="-0.675624">
        <ele>910.7500032</ele>
        <time>2019-04-21T07:36:14.000Z</time>
      </trkpt>
      <trkpt lat="38.502611" lon="-0.675631">
        <ele>910</ele>
        <time>2019-04-21T07:36:16.000Z</time>
      </trkpt>
      <trkpt lat="38.502632" lon="-0.675642">
        <ele>909.752477631612</ele>
        <time>2019-04-21T07:36:17.000Z</time>
      </trkpt>
      <trkpt lat="38.502664" lon="-0.675662">
        <ele>908.7500032</ele>
        <time>2019-04-21T07:36:19.000Z</time>
      </trkpt>
      <trkpt lat="38.502685" lon="-0.675675">
        <ele>908</ele>
        <time>2019-04-21T07:36:20.000Z</time>
      </trkpt>
      <trkpt lat="38.502705" lon="-0.675687">
        <ele>908</ele>
        <time>2019-04-21T07:36:21.000Z</time>
      </trkpt>
      <trkpt lat="38.502728" lon="-0.675698">
        <ele>907.7500032</ele>
        <time>2019-04-21T07:36:22.000Z</time>
      </trkpt>
      <trkpt lat="38.502745" lon="-0.675712">
        <ele>906.761907083907</ele>
        <time>2019-04-21T07:36:23.000Z</time>
      </trkpt>
      <trkpt lat="38.502759" lon="-0.675738">
        <ele>905.789474393349</ele>
        <time>2019-04-21T07:36:24.000Z</time>
      </trkpt>
      <trkpt lat="38.502772" lon="-0.675769">
        <ele>905</ele>
        <time>2019-04-21T07:36:25.000Z</time>
      </trkpt>
      <trkpt lat="38.502781" lon="-0.675795">
        <ele>905</ele>
        <time>2019-04-21T07:36:26.000Z</time>
      </trkpt>
      <trkpt lat="38.502787" lon="-0.675817">
        <ele>905</ele>
        <time>2019-04-21T07:36:27.000Z</time>
      </trkpt>
      <trkpt lat="38.502796" lon="-0.67584">
        <ele>905</ele>
        <time>2019-04-21T07:36:28.000Z</time>
      </trkpt>
      <trkpt lat="38.502804" lon="-0.675866">
        <ele>905</ele>
        <time>2019-04-21T07:36:29.000Z</time>
      </trkpt>
      <trkpt lat="38.502815" lon="-0.675892">
        <ele>905</ele>
        <time>2019-04-21T07:36:30.000Z</time>
      </trkpt>
      <trkpt lat="38.502829" lon="-0.675918">
        <ele>905.225224290228</ele>
        <time>2019-04-21T07:36:31.000Z</time>
      </trkpt>
      <trkpt lat="38.502846" lon="-0.675939">
        <ele>906</ele>
        <time>2019-04-21T07:36:32.000Z</time>
      </trkpt>
      <trkpt lat="38.502864" lon="-0.675962">
        <ele>906</ele>
        <time>2019-04-21T07:36:33.000Z</time>
      </trkpt>
      <trkpt lat="38.50288" lon="-0.675981">
        <ele>906</ele>
        <time>2019-04-21T07:36:34.000Z</time>
      </trkpt>
      <trkpt lat="38.502897" lon="-0.676">
        <ele>906</ele>
        <time>2019-04-21T07:36:35.000Z</time>
      </trkpt>
      <trkpt lat="38.502914" lon="-0.676021">
        <ele>906</ele>
        <time>2019-04-21T07:36:36.000Z</time>
      </trkpt>
      <trkpt lat="38.502934" lon="-0.676039">
        <ele>905.772728859513</ele>
        <time>2019-04-21T07:36:37.000Z</time>
      </trkpt>
      <trkpt lat="38.502953" lon="-0.676059">
        <ele>905</ele>
        <time>2019-04-21T07:36:38.000Z</time>
      </trkpt>
      <trkpt lat="38.502969" lon="-0.676076">
        <ele>905</ele>
        <time>2019-04-21T07:36:39.000Z</time>
      </trkpt>
      <trkpt lat="38.502989" lon="-0.676096">
        <ele>905</ele>
        <time>2019-04-21T07:36:40.000Z</time>
      </trkpt>
      <trkpt lat="38.503008" lon="-0.67611">
        <ele>905.2499968</ele>
        <time>2019-04-21T07:36:41.000Z</time>
      </trkpt>
      <trkpt lat="38.503028" lon="-0.676125">
        <ele>906</ele>
        <time>2019-04-21T07:36:42.000Z</time>
      </trkpt>
      <trkpt lat="38.503047" lon="-0.676138">
        <ele>906</ele>
        <time>2019-04-21T07:36:43.000Z</time>
      </trkpt>
      <trkpt lat="38.503068" lon="-0.67615">
        <ele>906</ele>
        <time>2019-04-21T07:36:44.000Z</time>
      </trkpt>
      <trkpt lat="38.503089" lon="-0.676158">
        <ele>906</ele>
        <time>2019-04-21T07:36:45.000Z</time>
      </trkpt>
      <trkpt lat="38.50311" lon="-0.676171">
        <ele>906</ele>
        <time>2019-04-21T07:36:46.000Z</time>
      </trkpt>
      <trkpt lat="38.503131" lon="-0.676183">
        <ele>906</ele>
        <time>2019-04-21T07:36:47.000Z</time>
      </trkpt>
      <trkpt lat="38.503153" lon="-0.676187">
        <ele>906</ele>
        <time>2019-04-21T07:36:48.000Z</time>
      </trkpt>
      <trkpt lat="38.503174" lon="-0.676184">
        <ele>904.778763267294</ele>
        <time>2019-04-21T07:36:49.000Z</time>
      </trkpt>
      <trkpt lat="38.503209" lon="-0.67618">
        <ele>904</ele>
        <time>2019-04-21T07:36:51.000Z</time>
      </trkpt>
      <trkpt lat="38.50323" lon="-0.676182">
        <ele>904</ele>
        <time>2019-04-21T07:36:52.000Z</time>
      </trkpt>
      <trkpt lat="38.50325" lon="-0.676189">
        <ele>904</ele>
        <time>2019-04-21T07:36:53.000Z</time>
      </trkpt>
      <trkpt lat="38.503283" lon="-0.676204">
        <ele>904</ele>
        <time>2019-04-21T07:36:55.000Z</time>
      </trkpt>
      <trkpt lat="38.503309" lon="-0.676202">
        <ele>904</ele>
        <time>2019-04-21T07:36:56.000Z</time>
      </trkpt>
      <trkpt lat="38.503332" lon="-0.676197">
        <ele>903.761907083907</ele>
        <time>2019-04-21T07:36:57.000Z</time>
      </trkpt>
      <trkpt lat="38.503354" lon="-0.676193">
        <ele>903</ele>
        <time>2019-04-21T07:36:58.000Z</time>
      </trkpt>
      <trkpt lat="38.503376" lon="-0.676192">
        <ele>903</ele>
        <time>2019-04-21T07:36:59.000Z</time>
      </trkpt>
      <trkpt lat="38.503398" lon="-0.676185">
        <ele>903</ele>
        <time>2019-04-21T07:37:00.000Z</time>
      </trkpt>
      <trkpt lat="38.503422" lon="-0.676178">
        <ele>903</ele>
        <time>2019-04-21T07:37:01.000Z</time>
      </trkpt>
      <trkpt lat="38.503444" lon="-0.676169">
        <ele>903</ele>
        <time>2019-04-21T07:37:02.000Z</time>
      </trkpt>
      <trkpt lat="38.503466" lon="-0.67616">
        <ele>903</ele>
        <time>2019-04-21T07:37:03.000Z</time>
      </trkpt>
      <trkpt lat="38.503486" lon="-0.676153">
        <ele>903</ele>
        <time>2019-04-21T07:37:04.000Z</time>
      </trkpt>
      <trkpt lat="38.503508" lon="-0.67615">
        <ele>902</ele>
        <time>2019-04-21T07:37:05.000Z</time>
      </trkpt>
      <trkpt lat="38.50353" lon="-0.676147">
        <ele>902</ele>
        <time>2019-04-21T07:37:06.000Z</time>
      </trkpt>
      <trkpt lat="38.503554" lon="-0.67614">
        <ele>902</ele>
        <time>2019-04-21T07:37:07.000Z</time>
      </trkpt>
      <trkpt lat="38.503577" lon="-0.676143">
        <ele>901.862069472848</ele>
        <time>2019-04-21T07:37:08.000Z</time>
      </trkpt>
      <trkpt lat="38.503604" lon="-0.676147">
        <ele>901</ele>
        <time>2019-04-21T07:37:09.000Z</time>
      </trkpt>
      <trkpt lat="38.503632" lon="-0.67615">
        <ele>901</ele>
        <time>2019-04-21T07:37:10.000Z</time>
      </trkpt>
      <trkpt lat="38.503656" lon="-0.676146">
        <ele>901</ele>
        <time>2019-04-21T07:37:11.000Z</time>
      </trkpt>
      <trkpt lat="38.503682" lon="-0.676136">
        <ele>901</ele>
        <time>2019-04-21T07:37:12.000Z</time>
      </trkpt>
      <trkpt lat="38.503706" lon="-0.676123">
        <ele>901</ele>
        <time>2019-04-21T07:37:13.000Z</time>
      </trkpt>
      <trkpt lat="38.503732" lon="-0.67611">
        <ele>900.781253333333</ele>
        <time>2019-04-21T07:37:14.000Z</time>
      </trkpt>
      <trkpt lat="38.503754" lon="-0.676093">
        <ele>900</ele>
        <time>2019-04-21T07:37:15.000Z</time>
      </trkpt>
      <trkpt lat="38.50378" lon="-0.676082">
        <ele>900</ele>
        <time>2019-04-21T07:37:16.000Z</time>
      </trkpt>
      <trkpt lat="38.503804" lon="-0.676071">
        <ele>900</ele>
        <time>2019-04-21T07:37:17.000Z</time>
      </trkpt>
      <trkpt lat="38.50383" lon="-0.676061">
        <ele>900</ele>
        <time>2019-04-21T07:37:18.000Z</time>
      </trkpt>
      <trkpt lat="38.503854" lon="-0.676047">
        <ele>900</ele>
        <time>2019-04-21T07:37:19.000Z</time>
      </trkpt>
      <trkpt lat="38.503875" lon="-0.67603">
        <ele>900</ele>
        <time>2019-04-21T07:37:20.000Z</time>
      </trkpt>
      <trkpt lat="38.503898" lon="-0.676014">
        <ele>900</ele>
        <time>2019-04-21T07:37:21.000Z</time>
      </trkpt>
      <trkpt lat="38.50392" lon="-0.675999">
        <ele>900</ele>
        <time>2019-04-21T07:37:22.000Z</time>
      </trkpt>
      <trkpt lat="38.503942" lon="-0.675981">
        <ele>900</ele>
        <time>2019-04-21T07:37:23.000Z</time>
      </trkpt>
      <trkpt lat="38.503964" lon="-0.675965">
        <ele>899.7500032</ele>
        <time>2019-04-21T07:37:24.000Z</time>
      </trkpt>
      <trkpt lat="38.503984" lon="-0.675954">
        <ele>899</ele>
        <time>2019-04-21T07:37:25.000Z</time>
      </trkpt>
      <trkpt lat="38.504002" lon="-0.675939">
        <ele>899</ele>
        <time>2019-04-21T07:37:26.000Z</time>
      </trkpt>
      <trkpt lat="38.504022" lon="-0.675921">
        <ele>899</ele>
        <time>2019-04-21T07:37:27.000Z</time>
      </trkpt>
      <trkpt lat="38.504044" lon="-0.675908">
        <ele>899</ele>
        <time>2019-04-21T07:37:28.000Z</time>
      </trkpt>
      <trkpt lat="38.504068" lon="-0.675895">
        <ele>899</ele>
        <time>2019-04-21T07:37:29.000Z</time>
      </trkpt>
      <trkpt lat="38.50409" lon="-0.675882">
        <ele>899</ele>
        <time>2019-04-21T07:37:30.000Z</time>
      </trkpt>
      <trkpt lat="38.50411" lon="-0.675865">
        <ele>899</ele>
        <time>2019-04-21T07:37:31.000Z</time>
      </trkpt>
      <trkpt lat="38.504132" lon="-0.675841">
        <ele>898.872090254212</ele>
        <time>2019-04-21T07:37:32.000Z</time>
      </trkpt>
      <trkpt lat="38.504152" lon="-0.675822">
        <ele>898</ele>
        <time>2019-04-21T07:37:33.000Z</time>
      </trkpt>
      <trkpt lat="38.504172" lon="-0.675803">
        <ele>898</ele>
        <time>2019-04-21T07:37:34.000Z</time>
      </trkpt>
      <trkpt lat="38.504192" lon="-0.67578">
        <ele>898</ele>
        <time>2019-04-21T07:37:35.000Z</time>
      </trkpt>
      <trkpt lat="38.504212" lon="-0.675761">
        <ele>898</ele>
        <time>2019-04-21T07:37:36.000Z</time>
      </trkpt>
      <trkpt lat="38.504234" lon="-0.675738">
        <ele>898</ele>
        <time>2019-04-21T07:37:37.000Z</time>
      </trkpt>
      <trkpt lat="38.504252" lon="-0.675718">
        <ele>898</ele>
        <time>2019-04-21T07:37:38.000Z</time>
      </trkpt>
      <trkpt lat="38.50427" lon="-0.675701">
        <ele>898</ele>
        <time>2019-04-21T07:37:39.000Z</time>
      </trkpt>
      <trkpt lat="38.504288" lon="-0.675681">
        <ele>898.202129687628</ele>
        <time>2019-04-21T07:37:40.000Z</time>
      </trkpt>
      <trkpt lat="38.504304" lon="-0.675663">
        <ele>899</ele>
        <time>2019-04-21T07:37:41.000Z</time>
      </trkpt>
      <trkpt lat="38.504316" lon="-0.675644">
        <ele>899</ele>
        <time>2019-04-21T07:37:42.000Z</time>
      </trkpt>
      <trkpt lat="38.504328" lon="-0.675621">
        <ele>899</ele>
        <time>2019-04-21T07:37:43.000Z</time>
      </trkpt>
      <trkpt lat="38.504342" lon="-0.675597">
        <ele>899.247522368388</ele>
        <time>2019-04-21T07:37:44.000Z</time>
      </trkpt>
      <trkpt lat="38.504358" lon="-0.675573">
        <ele>900</ele>
        <time>2019-04-21T07:37:45.000Z</time>
      </trkpt>
      <trkpt lat="38.504376" lon="-0.67555">
        <ele>900</ele>
        <time>2019-04-21T07:37:46.000Z</time>
      </trkpt>
      <trkpt lat="38.504391" lon="-0.675525">
        <ele>900</ele>
        <time>2019-04-21T07:37:47.000Z</time>
      </trkpt>
      <trkpt lat="38.50441" lon="-0.675502">
        <ele>900</ele>
        <time>2019-04-21T07:37:48.000Z</time>
      </trkpt>
      <trkpt lat="38.504424" lon="-0.67548">
        <ele>900</ele>
        <time>2019-04-21T07:37:49.000Z</time>
      </trkpt>
      <trkpt lat="38.504438" lon="-0.675461">
        <ele>900</ele>
        <time>2019-04-21T07:37:50.000Z</time>
      </trkpt>
      <trkpt lat="38.504452" lon="-0.675443">
        <ele>900</ele>
        <time>2019-04-21T07:37:51.000Z</time>
      </trkpt>
      <trkpt lat="38.50447" lon="-0.675429">
        <ele>900</ele>
        <time>2019-04-21T07:37:52.000Z</time>
      </trkpt>
      <trkpt lat="38.504482" lon="-0.675411">
        <ele>900</ele>
        <time>2019-04-21T07:37:53.000Z</time>
      </trkpt>
      <trkpt lat="38.504502" lon="-0.675394">
        <ele>900</ele>
        <time>2019-04-21T07:37:54.000Z</time>
      </trkpt>
      <trkpt lat="38.504518" lon="-0.675379">
        <ele>900</ele>
        <time>2019-04-21T07:37:55.000Z</time>
      </trkpt>
      <trkpt lat="38.504548" lon="-0.675358">
        <ele>901.2499968</ele>
        <time>2019-04-21T07:37:57.000Z</time>
      </trkpt>
      <trkpt lat="38.504568" lon="-0.675346">
        <ele>902</ele>
        <time>2019-04-21T07:37:58.000Z</time>
      </trkpt>
      <trkpt lat="38.504588" lon="-0.675336">
        <ele>902</ele>
        <time>2019-04-21T07:37:59.000Z</time>
      </trkpt>
      <trkpt lat="38.504606" lon="-0.675327">
        <ele>902</ele>
        <time>2019-04-21T07:38:00.000Z</time>
      </trkpt>
      <trkpt lat="38.50464" lon="-0.675307">
        <ele>902</ele>
        <time>2019-04-21T07:38:02.000Z</time>
      </trkpt>
      <trkpt lat="38.504676" lon="-0.675289">
        <ele>900.780703330264</ele>
        <time>2019-04-21T07:38:04.000Z</time>
      </trkpt>
      <trkpt lat="38.504698" lon="-0.67528">
        <ele>900</ele>
        <time>2019-04-21T07:38:05.000Z</time>
      </trkpt>
      <trkpt lat="38.504716" lon="-0.675275">
        <ele>900</ele>
        <time>2019-04-21T07:38:06.000Z</time>
      </trkpt>
      <trkpt lat="38.504736" lon="-0.675276">
        <ele>900</ele>
        <time>2019-04-21T07:38:07.000Z</time>
      </trkpt>
      <trkpt lat="38.504757" lon="-0.675277">
        <ele>899.789474393349</ele>
        <time>2019-04-21T07:38:08.000Z</time>
      </trkpt>
      <trkpt lat="38.504784" lon="-0.675276">
        <ele>899</ele>
        <time>2019-04-21T07:38:09.000Z</time>
      </trkpt>
      <trkpt lat="38.504804" lon="-0.675272">
        <ele>898.872090254212</ele>
        <time>2019-04-21T07:38:10.000Z</time>
      </trkpt>
      <trkpt lat="38.504826" lon="-0.675266">
        <ele>898</ele>
        <time>2019-04-21T07:38:11.000Z</time>
      </trkpt>
      <trkpt lat="38.50485" lon="-0.675258">
        <ele>897.761907083907</ele>
        <time>2019-04-21T07:38:12.000Z</time>
      </trkpt>
      <trkpt lat="38.504873" lon="-0.675246">
        <ele>897</ele>
        <time>2019-04-21T07:38:13.000Z</time>
      </trkpt>
      <trkpt lat="38.504894" lon="-0.675233">
        <ele>897.174822545852</ele>
        <time>2019-04-21T07:38:14.000Z</time>
      </trkpt>
      <trkpt lat="38.504913" lon="-0.67522">
        <ele>897.874121680287</ele>
        <time>2019-04-21T07:38:15.000Z</time>
      </trkpt>
      <trkpt lat="38.504931" lon="-0.675205">
        <ele>898</ele>
        <time>2019-04-21T07:38:16.000Z</time>
      </trkpt>
      <trkpt lat="38.504966" lon="-0.675186">
        <ele>897.757576541167</ele>
        <time>2019-04-21T07:38:18.000Z</time>
      </trkpt>
      <trkpt lat="38.504983" lon="-0.675174">
        <ele>897</ele>
        <time>2019-04-21T07:38:19.000Z</time>
      </trkpt>
      <trkpt lat="38.505005" lon="-0.675162">
        <ele>897</ele>
        <time>2019-04-21T07:38:20.000Z</time>
      </trkpt>
      <trkpt lat="38.505026" lon="-0.675149">
        <ele>896.7500032</ele>
        <time>2019-04-21T07:38:21.000Z</time>
      </trkpt>
      <trkpt lat="38.505047" lon="-0.675139">
        <ele>896</ele>
        <time>2019-04-21T07:38:22.000Z</time>
      </trkpt>
      <trkpt lat="38.505067" lon="-0.675133">
        <ele>896</ele>
        <time>2019-04-21T07:38:23.000Z</time>
      </trkpt>
      <trkpt lat="38.505087" lon="-0.675123">
        <ele>896</ele>
        <time>2019-04-21T07:38:24.000Z</time>
      </trkpt>
      <trkpt lat="38.505109" lon="-0.675114">
        <ele>896</ele>
        <time>2019-04-21T07:38:25.000Z</time>
      </trkpt>
      <trkpt lat="38.505132" lon="-0.675109">
        <ele>895.76415253828</ele>
        <time>2019-04-21T07:38:26.000Z</time>
      </trkpt>
      <trkpt lat="38.505155" lon="-0.675101">
        <ele>895</ele>
        <time>2019-04-21T07:38:27.000Z</time>
      </trkpt>
      <trkpt lat="38.505178" lon="-0.675095">
        <ele>894.7500032</ele>
        <time>2019-04-21T07:38:28.000Z</time>
      </trkpt>
      <trkpt lat="38.505201" lon="-0.675086">
        <ele>894</ele>
        <time>2019-04-21T07:38:29.000Z</time>
      </trkpt>
      <trkpt lat="38.505222" lon="-0.67508">
        <ele>893.757576541167</ele>
        <time>2019-04-21T07:38:30.000Z</time>
      </trkpt>
      <trkpt lat="38.505245" lon="-0.675072">
        <ele>893</ele>
        <time>2019-04-21T07:38:31.000Z</time>
      </trkpt>
      <trkpt lat="38.505269" lon="-0.67506">
        <ele>893</ele>
        <time>2019-04-21T07:38:32.000Z</time>
      </trkpt>
      <trkpt lat="38.505289" lon="-0.675046">
        <ele>892.7500032</ele>
        <time>2019-04-21T07:38:33.000Z</time>
      </trkpt>
      <trkpt lat="38.505309" lon="-0.675031">
        <ele>891.754903560179</ele>
        <time>2019-04-21T07:38:34.000Z</time>
      </trkpt>
      <trkpt lat="38.505334" lon="-0.675013">
        <ele>891</ele>
        <time>2019-04-21T07:38:35.000Z</time>
      </trkpt>
      <trkpt lat="38.505353" lon="-0.674991">
        <ele>891</ele>
        <time>2019-04-21T07:38:36.000Z</time>
      </trkpt>
      <trkpt lat="38.505376" lon="-0.674965">
        <ele>891</ele>
        <time>2019-04-21T07:38:37.000Z</time>
      </trkpt>
      <trkpt lat="38.505398" lon="-0.674952">
        <ele>891</ele>
        <time>2019-04-21T07:38:38.000Z</time>
      </trkpt>
      <trkpt lat="38.505417" lon="-0.674942">
        <ele>891</ele>
        <time>2019-04-21T07:38:39.000Z</time>
      </trkpt>
      <trkpt lat="38.505441" lon="-0.674933">
        <ele>891</ele>
        <time>2019-04-21T07:38:40.000Z</time>
      </trkpt>
      <trkpt lat="38.505464" lon="-0.674923">
        <ele>891</ele>
        <time>2019-04-21T07:38:41.000Z</time>
      </trkpt>
      <trkpt lat="38.505488" lon="-0.674911">
        <ele>891</ele>
        <time>2019-04-21T07:38:42.000Z</time>
      </trkpt>
      <trkpt lat="38.505517" lon="-0.674898">
        <ele>891</ele>
        <time>2019-04-21T07:38:43.000Z</time>
      </trkpt>
      <trkpt lat="38.505541" lon="-0.674885">
        <ele>891</ele>
        <time>2019-04-21T07:38:44.000Z</time>
      </trkpt>
      <trkpt lat="38.505566" lon="-0.674873">
        <ele>891</ele>
        <time>2019-04-21T07:38:45.000Z</time>
      </trkpt>
      <trkpt lat="38.505594" lon="-0.674865">
        <ele>890.7500032</ele>
        <time>2019-04-21T07:38:46.000Z</time>
      </trkpt>
      <trkpt lat="38.505619" lon="-0.67485">
        <ele>890</ele>
        <time>2019-04-21T07:38:47.000Z</time>
      </trkpt>
      <trkpt lat="38.505639" lon="-0.674832">
        <ele>890</ele>
        <time>2019-04-21T07:38:48.000Z</time>
      </trkpt>
      <trkpt lat="38.505656" lon="-0.674813">
        <ele>889.824176442457</ele>
        <time>2019-04-21T07:38:49.000Z</time>
      </trkpt>
      <trkpt lat="38.505676" lon="-0.674799">
        <ele>889</ele>
        <time>2019-04-21T07:38:50.000Z</time>
      </trkpt>
      <trkpt lat="38.505701" lon="-0.674793">
        <ele>888.7500032</ele>
        <time>2019-04-21T07:38:51.000Z</time>
      </trkpt>
      <trkpt lat="38.505726" lon="-0.674789">
        <ele>888</ele>
        <time>2019-04-21T07:38:52.000Z</time>
      </trkpt>
      <trkpt lat="38.505756" lon="-0.674788">
        <ele>888</ele>
        <time>2019-04-21T07:38:53.000Z</time>
      </trkpt>
      <trkpt lat="38.505788" lon="-0.674787">
        <ele>888</ele>
        <time>2019-04-21T07:38:54.000Z</time>
      </trkpt>
      <trkpt lat="38.505821" lon="-0.67479">
        <ele>888</ele>
        <time>2019-04-21T07:38:55.000Z</time>
      </trkpt>
      <trkpt lat="38.505852" lon="-0.674793">
        <ele>887.7500032</ele>
        <time>2019-04-21T07:38:56.000Z</time>
      </trkpt>
      <trkpt lat="38.505883" lon="-0.674792">
        <ele>886.807693822493</ele>
        <time>2019-04-21T07:38:57.000Z</time>
      </trkpt>
      <trkpt lat="38.505915" lon="-0.674787">
        <ele>886.038459266261</ele>
        <time>2019-04-21T07:38:58.000Z</time>
      </trkpt>
      <trkpt lat="38.505946" lon="-0.674782">
        <ele>886</ele>
        <time>2019-04-21T07:38:59.000Z</time>
      </trkpt>
      <trkpt lat="38.505977" lon="-0.674782">
        <ele>886</ele>
        <time>2019-04-21T07:39:00.000Z</time>
      </trkpt>
      <trkpt lat="38.506003" lon="-0.674786">
        <ele>886</ele>
        <time>2019-04-21T07:39:01.000Z</time>
      </trkpt>
      <trkpt lat="38.506029" lon="-0.674794">
        <ele>886</ele>
        <time>2019-04-21T07:39:02.000Z</time>
      </trkpt>
      <trkpt lat="38.506051" lon="-0.674804">
        <ele>886</ele>
        <time>2019-04-21T07:39:03.000Z</time>
      </trkpt>
      <trkpt lat="38.50607" lon="-0.674814">
        <ele>886</ele>
        <time>2019-04-21T07:39:04.000Z</time>
      </trkpt>
      <trkpt lat="38.506094" lon="-0.674827">
        <ele>886.193553270848</ele>
        <time>2019-04-21T07:39:05.000Z</time>
      </trkpt>
      <trkpt lat="38.506115" lon="-0.674841">
        <ele>887</ele>
        <time>2019-04-21T07:39:06.000Z</time>
      </trkpt>
      <trkpt lat="38.506136" lon="-0.674857">
        <ele>887</ele>
        <time>2019-04-21T07:39:07.000Z</time>
      </trkpt>
      <trkpt lat="38.506158" lon="-0.674875">
        <ele>887</ele>
        <time>2019-04-21T07:39:08.000Z</time>
      </trkpt>
      <trkpt lat="38.506177" lon="-0.674891">
        <ele>886.770644464277</ele>
        <time>2019-04-21T07:39:09.000Z</time>
      </trkpt>
      <trkpt lat="38.506194" lon="-0.674907">
        <ele>886.175823557543</ele>
        <time>2019-04-21T07:39:10.000Z</time>
      </trkpt>
      <trkpt lat="38.506214" lon="-0.674924">
        <ele>887</ele>
        <time>2019-04-21T07:39:11.000Z</time>
      </trkpt>
      <trkpt lat="38.506229" lon="-0.674942">
        <ele>887</ele>
        <time>2019-04-21T07:39:12.000Z</time>
      </trkpt>
      <trkpt lat="38.506246" lon="-0.674958">
        <ele>887</ele>
        <time>2019-04-21T07:39:13.000Z</time>
      </trkpt>
      <trkpt lat="38.506263" lon="-0.67498">
        <ele>887</ele>
        <time>2019-04-21T07:39:14.000Z</time>
      </trkpt>
      <trkpt lat="38.506276" lon="-0.675003">
        <ele>887</ele>
        <time>2019-04-21T07:39:15.000Z</time>
      </trkpt>
      <trkpt lat="38.506283" lon="-0.675032">
        <ele>887</ele>
        <time>2019-04-21T07:39:16.000Z</time>
      </trkpt>
      <trkpt lat="38.50629" lon="-0.675059">
        <ele>887</ele>
        <time>2019-04-21T07:39:17.000Z</time>
      </trkpt>
      <trkpt lat="38.506297" lon="-0.675086">
        <ele>887</ele>
        <time>2019-04-21T07:39:18.000Z</time>
      </trkpt>
      <trkpt lat="38.506303" lon="-0.67511">
        <ele>887</ele>
        <time>2019-04-21T07:39:19.000Z</time>
      </trkpt>
      <trkpt lat="38.506308" lon="-0.675142">
        <ele>887</ele>
        <time>2019-04-21T07:39:20.000Z</time>
      </trkpt>
      <trkpt lat="38.506311" lon="-0.675175">
        <ele>887</ele>
        <time>2019-04-21T07:39:21.000Z</time>
      </trkpt>
      <trkpt lat="38.506315" lon="-0.675205">
        <ele>886.7500032</ele>
        <time>2019-04-21T07:39:22.000Z</time>
      </trkpt>
      <trkpt lat="38.50632" lon="-0.675232">
        <ele>886</ele>
        <time>2019-04-21T07:39:23.000Z</time>
      </trkpt>
      <trkpt lat="38.50633" lon="-0.675264">
        <ele>886</ele>
        <time>2019-04-21T07:39:24.000Z</time>
      </trkpt>
      <trkpt lat="38.506337" lon="-0.675297">
        <ele>886</ele>
        <time>2019-04-21T07:39:25.000Z</time>
      </trkpt>
      <trkpt lat="38.506345" lon="-0.675333">
        <ele>886</ele>
        <time>2019-04-21T07:39:26.000Z</time>
      </trkpt>
      <trkpt lat="38.506355" lon="-0.675364">
        <ele>886</ele>
        <time>2019-04-21T07:39:27.000Z</time>
      </trkpt>
      <trkpt lat="38.506364" lon="-0.675397">
        <ele>885.768521481481</ele>
        <time>2019-04-21T07:39:28.000Z</time>
      </trkpt>
      <trkpt lat="38.506377" lon="-0.67543">
        <ele>885</ele>
        <time>2019-04-21T07:39:29.000Z</time>
      </trkpt>
      <trkpt lat="38.506394" lon="-0.675461">
        <ele>885</ele>
        <time>2019-04-21T07:39:30.000Z</time>
      </trkpt>
      <trkpt lat="38.506409" lon="-0.675487">
        <ele>885</ele>
        <time>2019-04-21T07:39:31.000Z</time>
      </trkpt>
      <trkpt lat="38.506426" lon="-0.675512">
        <ele>885</ele>
        <time>2019-04-21T07:39:32.000Z</time>
      </trkpt>
      <trkpt lat="38.506447" lon="-0.675537">
        <ele>885</ele>
        <time>2019-04-21T07:39:33.000Z</time>
      </trkpt>
      <trkpt lat="38.506467" lon="-0.67556">
        <ele>885</ele>
        <time>2019-04-21T07:39:34.000Z</time>
      </trkpt>
      <trkpt lat="38.506487" lon="-0.675584">
        <ele>885</ele>
        <time>2019-04-21T07:39:35.000Z</time>
      </trkpt>
      <trkpt lat="38.506506" lon="-0.675606">
        <ele>885</ele>
        <time>2019-04-21T07:39:36.000Z</time>
      </trkpt>
      <trkpt lat="38.506527" lon="-0.675629">
        <ele>885</ele>
        <time>2019-04-21T07:39:37.000Z</time>
      </trkpt>
      <trkpt lat="38.506551" lon="-0.67565">
        <ele>885</ele>
        <time>2019-04-21T07:39:38.000Z</time>
      </trkpt>
      <trkpt lat="38.506573" lon="-0.675667">
        <ele>884.780703330264</ele>
        <time>2019-04-21T07:39:39.000Z</time>
      </trkpt>
      <trkpt lat="38.506595" lon="-0.675686">
        <ele>884.127909745788</ele>
        <time>2019-04-21T07:39:40.000Z</time>
      </trkpt>
      <trkpt lat="38.506618" lon="-0.675706">
        <ele>885</ele>
        <time>2019-04-21T07:39:41.000Z</time>
      </trkpt>
      <trkpt lat="38.506641" lon="-0.675721">
        <ele>885.2499968</ele>
        <time>2019-04-21T07:39:42.000Z</time>
      </trkpt>
      <trkpt lat="38.506664" lon="-0.675733">
        <ele>886</ele>
        <time>2019-04-21T07:39:43.000Z</time>
      </trkpt>
      <trkpt lat="38.506693" lon="-0.675748">
        <ele>885.780703330264</ele>
        <time>2019-04-21T07:39:44.000Z</time>
      </trkpt>
      <trkpt lat="38.506723" lon="-0.675762">
        <ele>885</ele>
        <time>2019-04-21T07:39:45.000Z</time>
      </trkpt>
      <trkpt lat="38.506754" lon="-0.675777">
        <ele>884.7500032</ele>
        <time>2019-04-21T07:39:46.000Z</time>
      </trkpt>
      <trkpt lat="38.506782" lon="-0.675788">
        <ele>884</ele>
        <time>2019-04-21T07:39:47.000Z</time>
      </trkpt>
      <trkpt lat="38.506812" lon="-0.675795">
        <ele>884</ele>
        <time>2019-04-21T07:39:48.000Z</time>
      </trkpt>
      <trkpt lat="38.506839" lon="-0.675803">
        <ele>884</ele>
        <time>2019-04-21T07:39:49.000Z</time>
      </trkpt>
      <trkpt lat="38.506864" lon="-0.675811">
        <ele>884</ele>
        <time>2019-04-21T07:39:50.000Z</time>
      </trkpt>
      <trkpt lat="38.506889" lon="-0.675819">
        <ele>884</ele>
        <time>2019-04-21T07:39:51.000Z</time>
      </trkpt>
      <trkpt lat="38.506915" lon="-0.675825">
        <ele>884</ele>
        <time>2019-04-21T07:39:52.000Z</time>
      </trkpt>
      <trkpt lat="38.50694" lon="-0.675829">
        <ele>884.2499968</ele>
        <time>2019-04-21T07:39:53.000Z</time>
      </trkpt>
      <trkpt lat="38.506965" lon="-0.675829">
        <ele>885</ele>
        <time>2019-04-21T07:39:54.000Z</time>
      </trkpt>
      <trkpt lat="38.506989" lon="-0.675828">
        <ele>885</ele>
        <time>2019-04-21T07:39:55.000Z</time>
      </trkpt>
      <trkpt lat="38.507016" lon="-0.675828">
        <ele>885</ele>
        <time>2019-04-21T07:39:56.000Z</time>
      </trkpt>
      <trkpt lat="38.507041" lon="-0.675826">
        <ele>885</ele>
        <time>2019-04-21T07:39:57.000Z</time>
      </trkpt>
      <trkpt lat="38.507066" lon="-0.675823">
        <ele>885.2499968</ele>
        <time>2019-04-21T07:39:58.000Z</time>
      </trkpt>
      <trkpt lat="38.507091" lon="-0.675823">
        <ele>886</ele>
        <time>2019-04-21T07:39:59.000Z</time>
      </trkpt>
      <trkpt lat="38.507118" lon="-0.675825">
        <ele>886</ele>
        <time>2019-04-21T07:40:00.000Z</time>
      </trkpt>
      <trkpt lat="38.507142" lon="-0.675832">
        <ele>886.231478518519</ele>
        <time>2019-04-21T07:40:01.000Z</time>
      </trkpt>
      <trkpt lat="38.507167" lon="-0.675838">
        <ele>887</ele>
        <time>2019-04-21T07:40:02.000Z</time>
      </trkpt>
      <trkpt lat="38.507189" lon="-0.675846">
        <ele>887.2499968</ele>
        <time>2019-04-21T07:40:03.000Z</time>
      </trkpt>
      <trkpt lat="38.50721" lon="-0.675854">
        <ele>888</ele>
        <time>2019-04-21T07:40:04.000Z</time>
      </trkpt>
      <trkpt lat="38.507227" lon="-0.675869">
        <ele>888</ele>
        <time>2019-04-21T07:40:05.000Z</time>
      </trkpt>
      <trkpt lat="38.507245" lon="-0.675887">
        <ele>888</ele>
        <time>2019-04-21T07:40:06.000Z</time>
      </trkpt>
      <trkpt lat="38.507258" lon="-0.675908">
        <ele>888</ele>
        <time>2019-04-21T07:40:07.000Z</time>
      </trkpt>
      <trkpt lat="38.50727" lon="-0.67593">
        <ele>888</ele>
        <time>2019-04-21T07:40:08.000Z</time>
      </trkpt>
      <trkpt lat="38.507281" lon="-0.675954">
        <ele>888</ele>
        <time>2019-04-21T07:40:09.000Z</time>
      </trkpt>
      <trkpt lat="38.507293" lon="-0.67598">
        <ele>888</ele>
        <time>2019-04-21T07:40:10.000Z</time>
      </trkpt>
      <trkpt lat="38.507304" lon="-0.676006">
        <ele>888</ele>
        <time>2019-04-21T07:40:11.000Z</time>
      </trkpt>
      <trkpt lat="38.507314" lon="-0.67603">
        <ele>888</ele>
        <time>2019-04-21T07:40:12.000Z</time>
      </trkpt>
      <trkpt lat="38.507325" lon="-0.676053">
        <ele>888</ele>
        <time>2019-04-21T07:40:13.000Z</time>
      </trkpt>
      <trkpt lat="38.507334" lon="-0.676078">
        <ele>888</ele>
        <time>2019-04-21T07:40:14.000Z</time>
      </trkpt>
      <trkpt lat="38.507345" lon="-0.676102">
        <ele>888</ele>
        <time>2019-04-21T07:40:15.000Z</time>
      </trkpt>
      <trkpt lat="38.507358" lon="-0.676121">
        <ele>888.33333807404</ele>
        <time>2019-04-21T07:40:16.000Z</time>
      </trkpt>
      <trkpt lat="38.50737" lon="-0.67614">
        <ele>890</ele>
        <time>2019-04-21T07:40:17.000Z</time>
      </trkpt>
      <trkpt lat="38.507377" lon="-0.676164">
        <ele>890</ele>
        <time>2019-04-21T07:40:18.000Z</time>
      </trkpt>
      <trkpt lat="38.507381" lon="-0.676189">
        <ele>890</ele>
        <time>2019-04-21T07:40:19.000Z</time>
      </trkpt>
      <trkpt lat="38.507385" lon="-0.676214">
        <ele>890</ele>
        <time>2019-04-21T07:40:20.000Z</time>
      </trkpt>
      <trkpt lat="38.507389" lon="-0.676242">
        <ele>890.157296745337</ele>
        <time>2019-04-21T07:40:21.000Z</time>
      </trkpt>
      <trkpt lat="38.507398" lon="-0.676268">
        <ele>891</ele>
        <time>2019-04-21T07:40:22.000Z</time>
      </trkpt>
      <trkpt lat="38.507412" lon="-0.676288">
        <ele>891</ele>
        <time>2019-04-21T07:40:23.000Z</time>
      </trkpt>
      <trkpt lat="38.507428" lon="-0.676302">
        <ele>891</ele>
        <time>2019-04-21T07:40:24.000Z</time>
      </trkpt>
      <trkpt lat="38.507444" lon="-0.676315">
        <ele>891</ele>
        <time>2019-04-21T07:40:25.000Z</time>
      </trkpt>
      <trkpt lat="38.507461" lon="-0.676326">
        <ele>891.16666903702</ele>
        <time>2019-04-21T07:40:26.000Z</time>
      </trkpt>
      <trkpt lat="38.507492" lon="-0.676344">
        <ele>892</ele>
        <time>2019-04-21T07:40:28.000Z</time>
      </trkpt>
      <trkpt lat="38.507523" lon="-0.676371">
        <ele>892</ele>
        <time>2019-04-21T07:40:30.000Z</time>
      </trkpt>
      <trkpt lat="38.507538" lon="-0.676386">
        <ele>892</ele>
        <time>2019-04-21T07:40:31.000Z</time>
      </trkpt>
      <trkpt lat="38.507555" lon="-0.676403">
        <ele>892.190838650421</ele>
        <time>2019-04-21T07:40:32.000Z</time>
      </trkpt>
      <trkpt lat="38.507571" lon="-0.676416">
        <ele>892.954203023167</ele>
        <time>2019-04-21T07:40:33.000Z</time>
      </trkpt>
      <trkpt lat="38.507591" lon="-0.676429">
        <ele>893</ele>
        <time>2019-04-21T07:40:34.000Z</time>
      </trkpt>
      <trkpt lat="38.507607" lon="-0.676439">
        <ele>893</ele>
        <time>2019-04-21T07:40:35.000Z</time>
      </trkpt>
      <trkpt lat="38.507638" lon="-0.676464">
        <ele>894</ele>
        <time>2019-04-21T07:40:37.000Z</time>
      </trkpt>
      <trkpt lat="38.507673" lon="-0.676488">
        <ele>894</ele>
        <time>2019-04-21T07:40:39.000Z</time>
      </trkpt>
      <trkpt lat="38.507692" lon="-0.6765">
        <ele>894</ele>
        <time>2019-04-21T07:40:40.000Z</time>
      </trkpt>
      <trkpt lat="38.507708" lon="-0.676514">
        <ele>894</ele>
        <time>2019-04-21T07:40:41.000Z</time>
      </trkpt>
      <trkpt lat="38.507723" lon="-0.676528">
        <ele>894</ele>
        <time>2019-04-21T07:40:42.000Z</time>
      </trkpt>
      <trkpt lat="38.507742" lon="-0.676541">
        <ele>894</ele>
        <time>2019-04-21T07:40:43.000Z</time>
      </trkpt>
      <trkpt lat="38.507762" lon="-0.676555">
        <ele>894</ele>
        <time>2019-04-21T07:40:44.000Z</time>
      </trkpt>
      <trkpt lat="38.507783" lon="-0.676567">
        <ele>894</ele>
        <time>2019-04-21T07:40:45.000Z</time>
      </trkpt>
      <trkpt lat="38.507801" lon="-0.676577">
        <ele>894</ele>
        <time>2019-04-21T07:40:46.000Z</time>
      </trkpt>
      <trkpt lat="38.50782" lon="-0.676586">
        <ele>894.242423458833</ele>
        <time>2019-04-21T07:40:47.000Z</time>
      </trkpt>
      <trkpt lat="38.507846" lon="-0.676594">
        <ele>895</ele>
        <time>2019-04-21T07:40:48.000Z</time>
      </trkpt>
      <trkpt lat="38.507872" lon="-0.676601">
        <ele>895.210525606651</ele>
        <time>2019-04-21T07:40:49.000Z</time>
      </trkpt>
      <trkpt lat="38.507896" lon="-0.676608">
        <ele>896</ele>
        <time>2019-04-21T07:40:50.000Z</time>
      </trkpt>
      <trkpt lat="38.50792" lon="-0.676612">
        <ele>896</ele>
        <time>2019-04-21T07:40:51.000Z</time>
      </trkpt>
      <trkpt lat="38.507945" lon="-0.676618">
        <ele>896</ele>
        <time>2019-04-21T07:40:52.000Z</time>
      </trkpt>
      <trkpt lat="38.507971" lon="-0.67662">
        <ele>896</ele>
        <time>2019-04-21T07:40:53.000Z</time>
      </trkpt>
      <trkpt lat="38.507997" lon="-0.676626">
        <ele>896</ele>
        <time>2019-04-21T07:40:54.000Z</time>
      </trkpt>
      <trkpt lat="38.508021" lon="-0.676629">
        <ele>895.7500032</ele>
        <time>2019-04-21T07:40:55.000Z</time>
      </trkpt>
      <trkpt lat="38.508046" lon="-0.676631">
        <ele>895</ele>
        <time>2019-04-21T07:40:56.000Z</time>
      </trkpt>
      <trkpt lat="38.508066" lon="-0.676632">
        <ele>895.2499968</ele>
        <time>2019-04-21T07:40:57.000Z</time>
      </trkpt>
      <trkpt lat="38.508089" lon="-0.676634">
        <ele>896</ele>
        <time>2019-04-21T07:40:58.000Z</time>
      </trkpt>
      <trkpt lat="38.508113" lon="-0.676631">
        <ele>896</ele>
        <time>2019-04-21T07:40:59.000Z</time>
      </trkpt>
      <trkpt lat="38.508136" lon="-0.676626">
        <ele>896</ele>
        <time>2019-04-21T07:41:00.000Z</time>
      </trkpt>
      <trkpt lat="38.508161" lon="-0.676621">
        <ele>896</ele>
        <time>2019-04-21T07:41:01.000Z</time>
      </trkpt>
      <trkpt lat="38.508184" lon="-0.676614">
        <ele>895</ele>
        <time>2019-04-21T07:41:02.000Z</time>
      </trkpt>
      <trkpt lat="38.508207" lon="-0.6766">
        <ele>895</ele>
        <time>2019-04-21T07:41:03.000Z</time>
      </trkpt>
      <trkpt lat="38.508231" lon="-0.676589">
        <ele>895</ele>
        <time>2019-04-21T07:41:04.000Z</time>
      </trkpt>
      <trkpt lat="38.508255" lon="-0.676575">
        <ele>895</ele>
        <time>2019-04-21T07:41:05.000Z</time>
      </trkpt>
      <trkpt lat="38.508273" lon="-0.676565">
        <ele>895</ele>
        <time>2019-04-21T07:41:06.000Z</time>
      </trkpt>
      <trkpt lat="38.508297" lon="-0.676551">
        <ele>895</ele>
        <time>2019-04-21T07:41:07.000Z</time>
      </trkpt>
      <trkpt lat="38.508323" lon="-0.676539">
        <ele>895</ele>
        <time>2019-04-21T07:41:08.000Z</time>
      </trkpt>
      <trkpt lat="38.50835" lon="-0.676535">
        <ele>895</ele>
        <time>2019-04-21T07:41:09.000Z</time>
      </trkpt>
      <trkpt lat="38.50838" lon="-0.676535">
        <ele>895</ele>
        <time>2019-04-21T07:41:10.000Z</time>
      </trkpt>
      <trkpt lat="38.508405" lon="-0.676542">
        <ele>895</ele>
        <time>2019-04-21T07:41:11.000Z</time>
      </trkpt>
      <trkpt lat="38.508429" lon="-0.676548">
        <ele>895</ele>
        <time>2019-04-21T07:41:12.000Z</time>
      </trkpt>
      <trkpt lat="38.508452" lon="-0.676555">
        <ele>895</ele>
        <time>2019-04-21T07:41:13.000Z</time>
      </trkpt>
      <trkpt lat="38.508476" lon="-0.676563">
        <ele>895</ele>
        <time>2019-04-21T07:41:14.000Z</time>
      </trkpt>
      <trkpt lat="38.508498" lon="-0.676568">
        <ele>895</ele>
        <time>2019-04-21T07:41:15.000Z</time>
      </trkpt>
      <trkpt lat="38.50852" lon="-0.676577">
        <ele>895</ele>
        <time>2019-04-21T07:41:16.000Z</time>
      </trkpt>
      <trkpt lat="38.508542" lon="-0.676588">
        <ele>895</ele>
        <time>2019-04-21T07:41:17.000Z</time>
      </trkpt>
      <trkpt lat="38.508562" lon="-0.676602">
        <ele>895</ele>
        <time>2019-04-21T07:41:18.000Z</time>
      </trkpt>
      <trkpt lat="38.508579" lon="-0.676618">
        <ele>895</ele>
        <time>2019-04-21T07:41:19.000Z</time>
      </trkpt>
      <trkpt lat="38.508596" lon="-0.676632">
        <ele>895</ele>
        <time>2019-04-21T07:41:20.000Z</time>
      </trkpt>
      <trkpt lat="38.508619" lon="-0.676663">
        <ele>895</ele>
        <time>2019-04-21T07:41:22.000Z</time>
      </trkpt>
      <trkpt lat="38.508628" lon="-0.676684">
        <ele>896</ele>
        <time>2019-04-21T07:41:23.000Z</time>
      </trkpt>
      <trkpt lat="38.50864" lon="-0.676709">
        <ele>896</ele>
        <time>2019-04-21T07:41:24.000Z</time>
      </trkpt>
      <trkpt lat="38.508649" lon="-0.676735">
        <ele>896</ele>
        <time>2019-04-21T07:41:25.000Z</time>
      </trkpt>
      <trkpt lat="38.50866" lon="-0.676759">
        <ele>896</ele>
        <time>2019-04-21T07:41:26.000Z</time>
      </trkpt>
      <trkpt lat="38.508683" lon="-0.676795">
        <ele>896</ele>
        <time>2019-04-21T07:41:28.000Z</time>
      </trkpt>
      <trkpt lat="38.508697" lon="-0.676816">
        <ele>896</ele>
        <time>2019-04-21T07:41:29.000Z</time>
      </trkpt>
      <trkpt lat="38.508711" lon="-0.676832">
        <ele>896</ele>
        <time>2019-04-21T07:41:30.000Z</time>
      </trkpt>
      <trkpt lat="38.508723" lon="-0.676851">
        <ele>896</ele>
        <time>2019-04-21T07:41:31.000Z</time>
      </trkpt>
      <trkpt lat="38.508737" lon="-0.676871">
        <ele>896.210525606651</ele>
        <time>2019-04-21T07:41:32.000Z</time>
      </trkpt>
      <trkpt lat="38.508754" lon="-0.676895">
        <ele>897</ele>
        <time>2019-04-21T07:41:33.000Z</time>
      </trkpt>
      <trkpt lat="38.508766" lon="-0.676921">
        <ele>897</ele>
        <time>2019-04-21T07:41:34.000Z</time>
      </trkpt>
      <trkpt lat="38.508772" lon="-0.676949">
        <ele>897</ele>
        <time>2019-04-21T07:41:35.000Z</time>
      </trkpt>
      <trkpt lat="38.508776" lon="-0.676981">
        <ele>897</ele>
        <time>2019-04-21T07:41:36.000Z</time>
      </trkpt>
      <trkpt lat="38.508777" lon="-0.677007">
        <ele>897</ele>
        <time>2019-04-21T07:41:37.000Z</time>
      </trkpt>
      <trkpt lat="38.508778" lon="-0.677036">
        <ele>897</ele>
        <time>2019-04-21T07:41:38.000Z</time>
      </trkpt>
      <trkpt lat="38.508777" lon="-0.677067">
        <ele>897</ele>
        <time>2019-04-21T07:41:39.000Z</time>
      </trkpt>
      <trkpt lat="38.508777" lon="-0.677097">
        <ele>897</ele>
        <time>2019-04-21T07:41:40.000Z</time>
      </trkpt>
      <trkpt lat="38.508773" lon="-0.677128">
        <ele>897</ele>
        <time>2019-04-21T07:41:41.000Z</time>
      </trkpt>
      <trkpt lat="38.50877" lon="-0.677154">
        <ele>897</ele>
        <time>2019-04-21T07:41:42.000Z</time>
      </trkpt>
      <trkpt lat="38.508767" lon="-0.67718">
        <ele>897</ele>
        <time>2019-04-21T07:41:43.000Z</time>
      </trkpt>
      <trkpt lat="38.508771" lon="-0.677208">
        <ele>897.094020086209</ele>
        <time>2019-04-21T07:41:44.000Z</time>
      </trkpt>
      <trkpt lat="38.508778" lon="-0.677237">
        <ele>897.948723278559</ele>
        <time>2019-04-21T07:41:45.000Z</time>
      </trkpt>
      <trkpt lat="38.508784" lon="-0.677261">
        <ele>898</ele>
        <time>2019-04-21T07:41:46.000Z</time>
      </trkpt>
      <trkpt lat="38.508788" lon="-0.677296">
        <ele>898</ele>
        <time>2019-04-21T07:41:48.000Z</time>
      </trkpt>
      <trkpt lat="38.508784" lon="-0.677331">
        <ele>898</ele>
        <time>2019-04-21T07:41:50.000Z</time>
      </trkpt>
      <trkpt lat="38.508786" lon="-0.67736">
        <ele>897</ele>
        <time>2019-04-21T07:41:52.000Z</time>
      </trkpt>
      <trkpt lat="38.508789" lon="-0.677384">
        <ele>897</ele>
        <time>2019-04-21T07:41:54.000Z</time>
      </trkpt>
      <trkpt lat="38.508805" lon="-0.677395">
        <ele>898</ele>
        <time>2019-04-21T07:42:04.000Z</time>
      </trkpt>
      <trkpt lat="38.508819" lon="-0.677418">
        <ele>899</ele>
        <time>2019-04-21T07:42:26.000Z</time>
      </trkpt>
      <trkpt lat="38.508823" lon="-0.677441">
        <ele>899</ele>
        <time>2019-04-21T07:42:29.000Z</time>
      </trkpt>
      <trkpt lat="38.508833" lon="-0.677473">
        <ele>899</ele>
        <time>2019-04-21T07:42:32.000Z</time>
      </trkpt>
      <trkpt lat="38.508853" lon="-0.67751">
        <ele>899</ele>
        <time>2019-04-21T07:42:34.000Z</time>
      </trkpt>
      <trkpt lat="38.508862" lon="-0.677533">
        <ele>898.7500032</ele>
        <time>2019-04-21T07:42:35.000Z</time>
      </trkpt>
      <trkpt lat="38.508874" lon="-0.677556">
        <ele>898</ele>
        <time>2019-04-21T07:42:36.000Z</time>
      </trkpt>
      <trkpt lat="38.508888" lon="-0.677578">
        <ele>897.815220869565</ele>
        <time>2019-04-21T07:42:37.000Z</time>
      </trkpt>
      <trkpt lat="38.508902" lon="-0.677599">
        <ele>897</ele>
        <time>2019-04-21T07:42:38.000Z</time>
      </trkpt>
      <trkpt lat="38.508918" lon="-0.677621">
        <ele>897</ele>
        <time>2019-04-21T07:42:39.000Z</time>
      </trkpt>
      <trkpt lat="38.508934" lon="-0.677641">
        <ele>897</ele>
        <time>2019-04-21T07:42:40.000Z</time>
      </trkpt>
      <trkpt lat="38.508953" lon="-0.677659">
        <ele>897</ele>
        <time>2019-04-21T07:42:41.000Z</time>
      </trkpt>
      <trkpt lat="38.50897" lon="-0.677677">
        <ele>897</ele>
        <time>2019-04-21T07:42:42.000Z</time>
      </trkpt>
      <trkpt lat="38.508986" lon="-0.677695">
        <ele>897</ele>
        <time>2019-04-21T07:42:43.000Z</time>
      </trkpt>
      <trkpt lat="38.509015" lon="-0.677725">
        <ele>897</ele>
        <time>2019-04-21T07:42:45.000Z</time>
      </trkpt>
      <trkpt lat="38.509029" lon="-0.677743">
        <ele>897</ele>
        <time>2019-04-21T07:42:46.000Z</time>
      </trkpt>
      <trkpt lat="38.50904" lon="-0.677764">
        <ele>897</ele>
        <time>2019-04-21T07:42:47.000Z</time>
      </trkpt>
      <trkpt lat="38.509053" lon="-0.677784">
        <ele>897</ele>
        <time>2019-04-21T07:42:48.000Z</time>
      </trkpt>
      <trkpt lat="38.509063" lon="-0.677807">
        <ele>896.7500032</ele>
        <time>2019-04-21T07:42:49.000Z</time>
      </trkpt>
      <trkpt lat="38.509067" lon="-0.67783">
        <ele>896</ele>
        <time>2019-04-21T07:42:50.000Z</time>
      </trkpt>
      <trkpt lat="38.509076" lon="-0.677854">
        <ele>896</ele>
        <time>2019-04-21T07:42:51.000Z</time>
      </trkpt>
      <trkpt lat="38.509088" lon="-0.677883">
        <ele>896</ele>
        <time>2019-04-21T07:42:52.000Z</time>
      </trkpt>
      <trkpt lat="38.509099" lon="-0.677912">
        <ele>896</ele>
        <time>2019-04-21T07:42:53.000Z</time>
      </trkpt>
      <trkpt lat="38.509114" lon="-0.677933">
        <ele>896</ele>
        <time>2019-04-21T07:42:54.000Z</time>
      </trkpt>
      <trkpt lat="38.509124" lon="-0.677958">
        <ele>896</ele>
        <time>2019-04-21T07:42:55.000Z</time>
      </trkpt>
      <trkpt lat="38.509131" lon="-0.677989">
        <ele>896</ele>
        <time>2019-04-21T07:42:56.000Z</time>
      </trkpt>
      <trkpt lat="38.509135" lon="-0.678025">
        <ele>896</ele>
        <time>2019-04-21T07:42:57.000Z</time>
      </trkpt>
      <trkpt lat="38.509139" lon="-0.678059">
        <ele>896</ele>
        <time>2019-04-21T07:42:58.000Z</time>
      </trkpt>
      <trkpt lat="38.509138" lon="-0.678094">
        <ele>896</ele>
        <time>2019-04-21T07:42:59.000Z</time>
      </trkpt>
      <trkpt lat="38.50914" lon="-0.678128">
        <ele>896</ele>
        <time>2019-04-21T07:43:00.000Z</time>
      </trkpt>
      <trkpt lat="38.50914" lon="-0.678162">
        <ele>895.757576541167</ele>
        <time>2019-04-21T07:43:01.000Z</time>
      </trkpt>
      <trkpt lat="38.509138" lon="-0.678192">
        <ele>895</ele>
        <time>2019-04-21T07:43:02.000Z</time>
      </trkpt>
      <trkpt lat="38.50914" lon="-0.678223">
        <ele>895.16666903702</ele>
        <time>2019-04-21T07:43:03.000Z</time>
      </trkpt>
      <trkpt lat="38.509138" lon="-0.678254">
        <ele>896</ele>
        <time>2019-04-21T07:43:04.000Z</time>
      </trkpt>
      <trkpt lat="38.509135" lon="-0.678283">
        <ele>896</ele>
        <time>2019-04-21T07:43:05.000Z</time>
      </trkpt>
      <trkpt lat="38.509132" lon="-0.678311">
        <ele>896</ele>
        <time>2019-04-21T07:43:06.000Z</time>
      </trkpt>
      <trkpt lat="38.50913" lon="-0.67834">
        <ele>896</ele>
        <time>2019-04-21T07:43:07.000Z</time>
      </trkpt>
      <trkpt lat="38.509126" lon="-0.678368">
        <ele>896</ele>
        <time>2019-04-21T07:43:08.000Z</time>
      </trkpt>
      <trkpt lat="38.509119" lon="-0.678399">
        <ele>896</ele>
        <time>2019-04-21T07:43:09.000Z</time>
      </trkpt>
      <trkpt lat="38.509112" lon="-0.678431">
        <ele>896</ele>
        <time>2019-04-21T07:43:10.000Z</time>
      </trkpt>
      <trkpt lat="38.509104" lon="-0.67846">
        <ele>896</ele>
        <time>2019-04-21T07:43:11.000Z</time>
      </trkpt>
      <trkpt lat="38.5091" lon="-0.678486">
        <ele>896</ele>
        <time>2019-04-21T07:43:12.000Z</time>
      </trkpt>
      <trkpt lat="38.50909" lon="-0.678513">
        <ele>896</ele>
        <time>2019-04-21T07:43:13.000Z</time>
      </trkpt>
      <trkpt lat="38.509078" lon="-0.678538">
        <ele>896</ele>
        <time>2019-04-21T07:43:14.000Z</time>
      </trkpt>
      <trkpt lat="38.50907" lon="-0.678563">
        <ele>896.2499968</ele>
        <time>2019-04-21T07:43:15.000Z</time>
      </trkpt>
      <trkpt lat="38.50906" lon="-0.678588">
        <ele>897</ele>
        <time>2019-04-21T07:43:16.000Z</time>
      </trkpt>
      <trkpt lat="38.50905" lon="-0.678613">
        <ele>897</ele>
        <time>2019-04-21T07:43:17.000Z</time>
      </trkpt>
      <trkpt lat="38.509044" lon="-0.678637">
        <ele>897</ele>
        <time>2019-04-21T07:43:18.000Z</time>
      </trkpt>
      <trkpt lat="38.509033" lon="-0.67866">
        <ele>897</ele>
        <time>2019-04-21T07:43:19.000Z</time>
      </trkpt>
      <trkpt lat="38.509024" lon="-0.678685">
        <ele>897</ele>
        <time>2019-04-21T07:43:20.000Z</time>
      </trkpt>
      <trkpt lat="38.509014" lon="-0.678713">
        <ele>897.247522368388</ele>
        <time>2019-04-21T07:43:21.000Z</time>
      </trkpt>
      <trkpt lat="38.509004" lon="-0.67874">
        <ele>898</ele>
        <time>2019-04-21T07:43:22.000Z</time>
      </trkpt>
      <trkpt lat="38.508992" lon="-0.678767">
        <ele>898.192306177507</ele>
        <time>2019-04-21T07:43:23.000Z</time>
      </trkpt>
      <trkpt lat="38.50898" lon="-0.678792">
        <ele>898.961540733739</ele>
        <time>2019-04-21T07:43:24.000Z</time>
      </trkpt>
      <trkpt lat="38.508974" lon="-0.678817">
        <ele>899</ele>
        <time>2019-04-21T07:43:25.000Z</time>
      </trkpt>
      <trkpt lat="38.50896" lon="-0.678845">
        <ele>899</ele>
        <time>2019-04-21T07:43:26.000Z</time>
      </trkpt>
      <trkpt lat="38.508952" lon="-0.678875">
        <ele>899</ele>
        <time>2019-04-21T07:43:27.000Z</time>
      </trkpt>
      <trkpt lat="38.508946" lon="-0.678903">
        <ele>899</ele>
        <time>2019-04-21T07:43:28.000Z</time>
      </trkpt>
      <trkpt lat="38.508934" lon="-0.678926">
        <ele>899</ele>
        <time>2019-04-21T07:43:29.000Z</time>
      </trkpt>
      <trkpt lat="38.508924" lon="-0.67895">
        <ele>900</ele>
        <time>2019-04-21T07:43:30.000Z</time>
      </trkpt>
      <trkpt lat="38.508916" lon="-0.678982">
        <ele>900</ele>
        <time>2019-04-21T07:43:31.000Z</time>
      </trkpt>
      <trkpt lat="38.508908" lon="-0.67901">
        <ele>900</ele>
        <time>2019-04-21T07:43:32.000Z</time>
      </trkpt>
      <trkpt lat="38.508906" lon="-0.67904">
        <ele>900</ele>
        <time>2019-04-21T07:43:33.000Z</time>
      </trkpt>
      <trkpt lat="38.5089" lon="-0.679065">
        <ele>900</ele>
        <time>2019-04-21T07:43:34.000Z</time>
      </trkpt>
      <trkpt lat="38.508888" lon="-0.67909">
        <ele>900</ele>
        <time>2019-04-21T07:43:35.000Z</time>
      </trkpt>
      <trkpt lat="38.508874" lon="-0.679115">
        <ele>900</ele>
        <time>2019-04-21T07:43:36.000Z</time>
      </trkpt>
      <trkpt lat="38.50886" lon="-0.67914">
        <ele>900</ele>
        <time>2019-04-21T07:43:37.000Z</time>
      </trkpt>
      <trkpt lat="38.508844" lon="-0.679163">
        <ele>900.828826439419</ele>
        <time>2019-04-21T07:43:38.000Z</time>
      </trkpt>
      <trkpt lat="38.508836" lon="-0.67919">
        <ele>901</ele>
        <time>2019-04-21T07:43:39.000Z</time>
      </trkpt>
      <trkpt lat="38.508826" lon="-0.679215">
        <ele>901</ele>
        <time>2019-04-21T07:43:40.000Z</time>
      </trkpt>
      <trkpt lat="38.508818" lon="-0.679246">
        <ele>901</ele>
        <time>2019-04-21T07:43:41.000Z</time>
      </trkpt>
      <trkpt lat="38.508814" lon="-0.679278">
        <ele>901</ele>
        <time>2019-04-21T07:43:42.000Z</time>
      </trkpt>
      <trkpt lat="38.508808" lon="-0.679307">
        <ele>901</ele>
        <time>2019-04-21T07:43:43.000Z</time>
      </trkpt>
      <trkpt lat="38.508802" lon="-0.67933">
        <ele>901</ele>
        <time>2019-04-21T07:43:44.000Z</time>
      </trkpt>
      <trkpt lat="38.508794" lon="-0.679357">
        <ele>901</ele>
        <time>2019-04-21T07:43:45.000Z</time>
      </trkpt>
      <trkpt lat="38.508794" lon="-0.679381">
        <ele>901</ele>
        <time>2019-04-21T07:43:46.000Z</time>
      </trkpt>
      <trkpt lat="38.508792" lon="-0.67941">
        <ele>901</ele>
        <time>2019-04-21T07:43:47.000Z</time>
      </trkpt>
      <trkpt lat="38.508788" lon="-0.679439">
        <ele>901</ele>
        <time>2019-04-21T07:43:48.000Z</time>
      </trkpt>
      <trkpt lat="38.508784" lon="-0.679465">
        <ele>901</ele>
        <time>2019-04-21T07:43:49.000Z</time>
      </trkpt>
      <trkpt lat="38.50878" lon="-0.679491">
        <ele>901</ele>
        <time>2019-04-21T07:43:50.000Z</time>
      </trkpt>
      <trkpt lat="38.508778" lon="-0.679518">
        <ele>901</ele>
        <time>2019-04-21T07:43:51.000Z</time>
      </trkpt>
      <trkpt lat="38.508768" lon="-0.679548">
        <ele>903</ele>
        <time>2019-04-21T07:43:52.000Z</time>
      </trkpt>
      <trkpt lat="38.508764" lon="-0.679575">
        <ele>902.7500032</ele>
        <time>2019-04-21T07:43:53.000Z</time>
      </trkpt>
      <trkpt lat="38.508764" lon="-0.679603">
        <ele>902</ele>
        <time>2019-04-21T07:43:54.000Z</time>
      </trkpt>
      <trkpt lat="38.508762" lon="-0.679631">
        <ele>902</ele>
        <time>2019-04-21T07:43:55.000Z</time>
      </trkpt>
      <trkpt lat="38.50876" lon="-0.679658">
        <ele>902.2499968</ele>
        <time>2019-04-21T07:43:56.000Z</time>
      </trkpt>
      <trkpt lat="38.508758" lon="-0.679683">
        <ele>903</ele>
        <time>2019-04-21T07:43:57.000Z</time>
      </trkpt>
      <trkpt lat="38.508748" lon="-0.679712">
        <ele>903</ele>
        <time>2019-04-21T07:43:59.000Z</time>
      </trkpt>
      <trkpt lat="38.508735" lon="-0.679688">
        <ele>903.966942061334</ele>
        <time>2019-04-21T07:44:02.000Z</time>
      </trkpt>
      <trkpt lat="38.508724" lon="-0.679659">
        <ele>904.218746666667</ele>
        <time>2019-04-21T07:44:04.000Z</time>
      </trkpt>
      <trkpt lat="38.508711" lon="-0.679644">
        <ele>907</ele>
        <time>2019-04-21T07:44:06.000Z</time>
      </trkpt>
      <trkpt lat="38.508689" lon="-0.679632">
        <ele>907</ele>
        <time>2019-04-21T07:44:09.000Z</time>
      </trkpt>
      <trkpt lat="38.508669" lon="-0.679626">
        <ele>907</ele>
        <time>2019-04-21T07:44:11.000Z</time>
      </trkpt>
      <trkpt lat="38.50865" lon="-0.679625">
        <ele>908.240381538462</ele>
        <time>2019-04-21T07:44:13.000Z</time>
      </trkpt>
      <trkpt lat="38.508632" lon="-0.679633">
        <ele>909</ele>
        <time>2019-04-21T07:44:15.000Z</time>
      </trkpt>
      <trkpt lat="38.508618" lon="-0.67965">
        <ele>907.757576541167</ele>
        <time>2019-04-21T07:44:17.000Z</time>
      </trkpt>
      <trkpt lat="38.508617" lon="-0.679684">
        <ele>907</ele>
        <time>2019-04-21T07:44:21.000Z</time>
      </trkpt>
      <trkpt lat="38.508617" lon="-0.679724">
        <ele>907.240381538462</ele>
        <time>2019-04-21T07:44:23.000Z</time>
      </trkpt>
      <trkpt lat="38.508619" lon="-0.679749">
        <ele>908.218746666667</ele>
        <time>2019-04-21T07:44:24.000Z</time>
      </trkpt>
      <trkpt lat="38.508625" lon="-0.679772">
        <ele>909</ele>
        <time>2019-04-21T07:44:25.000Z</time>
      </trkpt>
      <trkpt lat="38.508635" lon="-0.679811">
        <ele>909.2499968</ele>
        <time>2019-04-21T07:44:27.000Z</time>
      </trkpt>
      <trkpt lat="38.508641" lon="-0.679834">
        <ele>910</ele>
        <time>2019-04-21T07:44:28.000Z</time>
      </trkpt>
      <trkpt lat="38.508646" lon="-0.679856">
        <ele>910</ele>
        <time>2019-04-21T07:44:29.000Z</time>
      </trkpt>
      <trkpt lat="38.508654" lon="-0.679898">
        <ele>909.131946666667</ele>
        <time>2019-04-21T07:44:31.000Z</time>
      </trkpt>
      <trkpt lat="38.508656" lon="-0.679939">
        <ele>909</ele>
        <time>2019-04-21T07:44:33.000Z</time>
      </trkpt>
      <trkpt lat="38.508657" lon="-0.679978">
        <ele>909</ele>
        <time>2019-04-21T07:44:35.000Z</time>
      </trkpt>
      <trkpt lat="38.508657" lon="-0.680012">
        <ele>910</ele>
        <time>2019-04-21T07:44:37.000Z</time>
      </trkpt>
      <trkpt lat="38.508655" lon="-0.680046">
        <ele>910.111108679955</ele>
        <time>2019-04-21T07:44:39.000Z</time>
      </trkpt>
      <trkpt lat="38.508652" lon="-0.680077">
        <ele>911</ele>
        <time>2019-04-21T07:44:41.000Z</time>
      </trkpt>
      <trkpt lat="38.508651" lon="-0.680115">
        <ele>911.223211428571</ele>
        <time>2019-04-21T07:44:43.000Z</time>
      </trkpt>
      <trkpt lat="38.50865" lon="-0.680156">
        <ele>912</ele>
        <time>2019-04-21T07:44:45.000Z</time>
      </trkpt>
      <trkpt lat="38.508642" lon="-0.680194">
        <ele>912.218746666667</ele>
        <time>2019-04-21T07:44:47.000Z</time>
      </trkpt>
      <trkpt lat="38.508638" lon="-0.680237">
        <ele>914</ele>
        <time>2019-04-21T07:44:49.000Z</time>
      </trkpt>
      <trkpt lat="38.508645" lon="-0.680276">
        <ele>914.242717602028</ele>
        <time>2019-04-21T07:44:51.000Z</time>
      </trkpt>
      <trkpt lat="38.508648" lon="-0.680317">
        <ele>915</ele>
        <time>2019-04-21T07:44:53.000Z</time>
      </trkpt>
      <trkpt lat="38.508657" lon="-0.680359">
        <ele>914.7500032</ele>
        <time>2019-04-21T07:44:55.000Z</time>
      </trkpt>
      <trkpt lat="38.508671" lon="-0.680398">
        <ele>914</ele>
        <time>2019-04-21T07:44:57.000Z</time>
      </trkpt>
      <trkpt lat="38.508682" lon="-0.68044">
        <ele>914.880283404094</ele>
        <time>2019-04-21T07:44:59.000Z</time>
      </trkpt>
      <trkpt lat="38.508693" lon="-0.680476">
        <ele>915</ele>
        <time>2019-04-21T07:45:01.000Z</time>
      </trkpt>
      <trkpt lat="38.508704" lon="-0.68051">
        <ele>915</ele>
        <time>2019-04-21T07:45:03.000Z</time>
      </trkpt>
      <trkpt lat="38.508717" lon="-0.680546">
        <ele>916</ele>
        <time>2019-04-21T07:45:05.000Z</time>
      </trkpt>
      <trkpt lat="38.508723" lon="-0.680584">
        <ele>916</ele>
        <time>2019-04-21T07:45:07.000Z</time>
      </trkpt>
      <trkpt lat="38.508735" lon="-0.68062">
        <ele>916</ele>
        <time>2019-04-21T07:45:09.000Z</time>
      </trkpt>
      <trkpt lat="38.508749" lon="-0.68065">
        <ele>917</ele>
        <time>2019-04-21T07:45:11.000Z</time>
      </trkpt>
      <trkpt lat="38.508767" lon="-0.680684">
        <ele>917</ele>
        <time>2019-04-21T07:45:13.000Z</time>
      </trkpt>
      <trkpt lat="38.508785" lon="-0.680718">
        <ele>917</ele>
        <time>2019-04-21T07:45:15.000Z</time>
      </trkpt>
      <trkpt lat="38.508795" lon="-0.68074">
        <ele>917.24</ele>
        <time>2019-04-21T07:45:16.000Z</time>
      </trkpt>
      <trkpt lat="38.508807" lon="-0.680764">
        <ele>918</ele>
        <time>2019-04-21T07:45:17.000Z</time>
      </trkpt>
      <trkpt lat="38.508817" lon="-0.680786">
        <ele>918</ele>
        <time>2019-04-21T07:45:18.000Z</time>
      </trkpt>
      <trkpt lat="38.508825" lon="-0.68081">
        <ele>918</ele>
        <time>2019-04-21T07:45:19.000Z</time>
      </trkpt>
      <trkpt lat="38.508833" lon="-0.680835">
        <ele>918</ele>
        <time>2019-04-21T07:45:20.000Z</time>
      </trkpt>
      <trkpt lat="38.508839" lon="-0.680864">
        <ele>918</ele>
        <time>2019-04-21T07:45:21.000Z</time>
      </trkpt>
      <trkpt lat="38.508847" lon="-0.680888">
        <ele>918</ele>
        <time>2019-04-21T07:45:22.000Z</time>
      </trkpt>
      <trkpt lat="38.508857" lon="-0.68091">
        <ele>918</ele>
        <time>2019-04-21T07:45:23.000Z</time>
      </trkpt>
      <trkpt lat="38.508865" lon="-0.680932">
        <ele>918.2499968</ele>
        <time>2019-04-21T07:45:24.000Z</time>
      </trkpt>
      <trkpt lat="38.508875" lon="-0.680953">
        <ele>919</ele>
        <time>2019-04-21T07:45:25.000Z</time>
      </trkpt>
      <trkpt lat="38.508883" lon="-0.680976">
        <ele>919</ele>
        <time>2019-04-21T07:45:26.000Z</time>
      </trkpt>
      <trkpt lat="38.508899" lon="-0.681002">
        <ele>919</ele>
        <time>2019-04-21T07:45:28.000Z</time>
      </trkpt>
      <trkpt lat="38.508925" lon="-0.681031">
        <ele>919</ele>
        <time>2019-04-21T07:45:30.000Z</time>
      </trkpt>
      <trkpt lat="38.508951" lon="-0.681055">
        <ele>919</ele>
        <time>2019-04-21T07:45:32.000Z</time>
      </trkpt>
      <trkpt lat="38.508983" lon="-0.681071">
        <ele>919</ele>
        <time>2019-04-21T07:45:34.000Z</time>
      </trkpt>
      <trkpt lat="38.509" lon="-0.681084">
        <ele>919.193553270848</ele>
        <time>2019-04-21T07:45:35.000Z</time>
      </trkpt>
      <trkpt lat="38.509016" lon="-0.6811">
        <ele>920</ele>
        <time>2019-04-21T07:45:36.000Z</time>
      </trkpt>
      <trkpt lat="38.509031" lon="-0.681117">
        <ele>920</ele>
        <time>2019-04-21T07:45:37.000Z</time>
      </trkpt>
      <trkpt lat="38.509059" lon="-0.681146">
        <ele>921</ele>
        <time>2019-04-21T07:45:39.000Z</time>
      </trkpt>
      <trkpt lat="38.509076" lon="-0.681162">
        <ele>921</ele>
        <time>2019-04-21T07:45:40.000Z</time>
      </trkpt>
      <trkpt lat="38.509094" lon="-0.681176">
        <ele>920.768521481481</ele>
        <time>2019-04-21T07:45:41.000Z</time>
      </trkpt>
      <trkpt lat="38.509108" lon="-0.681192">
        <ele>920.184779130435</ele>
        <time>2019-04-21T07:45:42.000Z</time>
      </trkpt>
      <trkpt lat="38.509136" lon="-0.681222">
        <ele>922</ele>
        <time>2019-04-21T07:45:44.000Z</time>
      </trkpt>
      <trkpt lat="38.509151" lon="-0.681237">
        <ele>922</ele>
        <time>2019-04-21T07:45:45.000Z</time>
      </trkpt>
      <trkpt lat="38.509168" lon="-0.681254">
        <ele>922</ele>
        <time>2019-04-21T07:45:46.000Z</time>
      </trkpt>
      <trkpt lat="38.509194" lon="-0.68128">
        <ele>922</ele>
        <time>2019-04-21T07:45:48.000Z</time>
      </trkpt>
      <trkpt lat="38.509212" lon="-0.681313">
        <ele>922</ele>
        <time>2019-04-21T07:45:50.000Z</time>
      </trkpt>
      <trkpt lat="38.509233" lon="-0.681352">
        <ele>922</ele>
        <time>2019-04-21T07:45:52.000Z</time>
      </trkpt>
      <trkpt lat="38.509245" lon="-0.681374">
        <ele>922</ele>
        <time>2019-04-21T07:45:53.000Z</time>
      </trkpt>
      <trkpt lat="38.509258" lon="-0.681395">
        <ele>922</ele>
        <time>2019-04-21T07:45:54.000Z</time>
      </trkpt>
      <trkpt lat="38.509271" lon="-0.681418">
        <ele>922</ele>
        <time>2019-04-21T07:45:55.000Z</time>
      </trkpt>
      <trkpt lat="38.509283" lon="-0.681441">
        <ele>922</ele>
        <time>2019-04-21T07:45:56.000Z</time>
      </trkpt>
      <trkpt lat="38.509297" lon="-0.681466">
        <ele>922</ele>
        <time>2019-04-21T07:45:57.000Z</time>
      </trkpt>
      <trkpt lat="38.509308" lon="-0.681494">
        <ele>921.7500032</ele>
        <time>2019-04-21T07:45:58.000Z</time>
      </trkpt>
      <trkpt lat="38.509319" lon="-0.681522">
        <ele>921</ele>
        <time>2019-04-21T07:45:59.000Z</time>
      </trkpt>
      <trkpt lat="38.509329" lon="-0.681544">
        <ele>921</ele>
        <time>2019-04-21T07:46:00.000Z</time>
      </trkpt>
      <trkpt lat="38.509339" lon="-0.681566">
        <ele>921</ele>
        <time>2019-04-21T07:46:01.000Z</time>
      </trkpt>
      <trkpt lat="38.509346" lon="-0.681594">
        <ele>921</ele>
        <time>2019-04-21T07:46:02.000Z</time>
      </trkpt>
      <trkpt lat="38.509352" lon="-0.681627">
        <ele>921</ele>
        <time>2019-04-21T07:46:03.000Z</time>
      </trkpt>
      <trkpt lat="38.509358" lon="-0.681658">
        <ele>921</ele>
        <time>2019-04-21T07:46:04.000Z</time>
      </trkpt>
      <trkpt lat="38.509366" lon="-0.681686">
        <ele>921</ele>
        <time>2019-04-21T07:46:05.000Z</time>
      </trkpt>
      <trkpt lat="38.509376" lon="-0.681711">
        <ele>921.229355535723</ele>
        <time>2019-04-21T07:46:06.000Z</time>
      </trkpt>
      <trkpt lat="38.509385" lon="-0.681736">
        <ele>922</ele>
        <time>2019-04-21T07:46:07.000Z</time>
      </trkpt>
      <trkpt lat="38.509395" lon="-0.681764">
        <ele>922</ele>
        <time>2019-04-21T07:46:08.000Z</time>
      </trkpt>
      <trkpt lat="38.509406" lon="-0.681785">
        <ele>922.2499968</ele>
        <time>2019-04-21T07:46:09.000Z</time>
      </trkpt>
      <trkpt lat="38.509418" lon="-0.681808">
        <ele>923</ele>
        <time>2019-04-21T07:46:10.000Z</time>
      </trkpt>
      <trkpt lat="38.509429" lon="-0.68183">
        <ele>923</ele>
        <time>2019-04-21T07:46:11.000Z</time>
      </trkpt>
      <trkpt lat="38.509441" lon="-0.681852">
        <ele>923</ele>
        <time>2019-04-21T07:46:12.000Z</time>
      </trkpt>
      <trkpt lat="38.509452" lon="-0.681874">
        <ele>923</ele>
        <time>2019-04-21T07:46:13.000Z</time>
      </trkpt>
      <trkpt lat="38.509464" lon="-0.681894">
        <ele>923</ele>
        <time>2019-04-21T07:46:14.000Z</time>
      </trkpt>
      <trkpt lat="38.509475" lon="-0.681914">
        <ele>923</ele>
        <time>2019-04-21T07:46:15.000Z</time>
      </trkpt>
      <trkpt lat="38.509488" lon="-0.681934">
        <ele>923</ele>
        <time>2019-04-21T07:46:16.000Z</time>
      </trkpt>
      <trkpt lat="38.509502" lon="-0.68195">
        <ele>923.193553270848</ele>
        <time>2019-04-21T07:46:17.000Z</time>
      </trkpt>
      <trkpt lat="38.50953" lon="-0.681976">
        <ele>924.247522368388</ele>
        <time>2019-04-21T07:46:19.000Z</time>
      </trkpt>
      <trkpt lat="38.509558" lon="-0.682004">
        <ele>925</ele>
        <time>2019-04-21T07:46:21.000Z</time>
      </trkpt>
      <trkpt lat="38.509572" lon="-0.68202">
        <ele>925</ele>
        <time>2019-04-21T07:46:22.000Z</time>
      </trkpt>
      <trkpt lat="38.509588" lon="-0.682036">
        <ele>925</ele>
        <time>2019-04-21T07:46:23.000Z</time>
      </trkpt>
      <trkpt lat="38.509614" lon="-0.682062">
        <ele>926</ele>
        <time>2019-04-21T07:46:25.000Z</time>
      </trkpt>
      <trkpt lat="38.509636" lon="-0.68209">
        <ele>926</ele>
        <time>2019-04-21T07:46:27.000Z</time>
      </trkpt>
      <trkpt lat="38.509661" lon="-0.682121">
        <ele>926</ele>
        <time>2019-04-21T07:46:29.000Z</time>
      </trkpt>
      <trkpt lat="38.509672" lon="-0.68214">
        <ele>926</ele>
        <time>2019-04-21T07:46:30.000Z</time>
      </trkpt>
      <trkpt lat="38.509691" lon="-0.682179">
        <ele>927</ele>
        <time>2019-04-21T07:46:32.000Z</time>
      </trkpt>
      <trkpt lat="38.509717" lon="-0.682212">
        <ele>927</ele>
        <time>2019-04-21T07:46:34.000Z</time>
      </trkpt>
      <trkpt lat="38.509733" lon="-0.682225">
        <ele>927</ele>
        <time>2019-04-21T07:46:35.000Z</time>
      </trkpt>
      <trkpt lat="38.509749" lon="-0.68226">
        <ele>927.2499968</ele>
        <time>2019-04-21T07:46:37.000Z</time>
      </trkpt>
      <trkpt lat="38.509757" lon="-0.682284">
        <ele>928</ele>
        <time>2019-04-21T07:46:38.000Z</time>
      </trkpt>
      <trkpt lat="38.509765" lon="-0.68231">
        <ele>928.202129687628</ele>
        <time>2019-04-21T07:46:39.000Z</time>
      </trkpt>
      <trkpt lat="38.509775" lon="-0.682332">
        <ele>929</ele>
        <time>2019-04-21T07:46:40.000Z</time>
      </trkpt>
      <trkpt lat="38.509787" lon="-0.682352">
        <ele>929</ele>
        <time>2019-04-21T07:46:41.000Z</time>
      </trkpt>
      <trkpt lat="38.509796" lon="-0.682376">
        <ele>929</ele>
        <time>2019-04-21T07:46:42.000Z</time>
      </trkpt>
      <trkpt lat="38.509803" lon="-0.682402">
        <ele>929</ele>
        <time>2019-04-21T07:46:43.000Z</time>
      </trkpt>
      <trkpt lat="38.509809" lon="-0.682426">
        <ele>929</ele>
        <time>2019-04-21T07:46:44.000Z</time>
      </trkpt>
      <trkpt lat="38.509814" lon="-0.68245">
        <ele>929.219296669736</ele>
        <time>2019-04-21T07:46:45.000Z</time>
      </trkpt>
      <trkpt lat="38.509819" lon="-0.682475">
        <ele>930</ele>
        <time>2019-04-21T07:46:46.000Z</time>
      </trkpt>
      <trkpt lat="38.509825" lon="-0.682498">
        <ele>930</ele>
        <time>2019-04-21T07:46:47.000Z</time>
      </trkpt>
      <trkpt lat="38.509832" lon="-0.682524">
        <ele>930</ele>
        <time>2019-04-21T07:46:48.000Z</time>
      </trkpt>
      <trkpt lat="38.509838" lon="-0.682548">
        <ele>930</ele>
        <time>2019-04-21T07:46:49.000Z</time>
      </trkpt>
      <trkpt lat="38.509845" lon="-0.68257">
        <ele>930</ele>
        <time>2019-04-21T07:46:50.000Z</time>
      </trkpt>
      <trkpt lat="38.509854" lon="-0.682592">
        <ele>930</ele>
        <time>2019-04-21T07:46:51.000Z</time>
      </trkpt>
      <trkpt lat="38.509862" lon="-0.682613">
        <ele>930</ele>
        <time>2019-04-21T07:46:52.000Z</time>
      </trkpt>
      <trkpt lat="38.509849" lon="-0.68265">
        <ele>930</ele>
        <time>2019-04-21T07:46:54.000Z</time>
      </trkpt>
      <trkpt lat="38.509839" lon="-0.682673">
        <ele>930</ele>
        <time>2019-04-21T07:46:55.000Z</time>
      </trkpt>
      <trkpt lat="38.50983" lon="-0.682697">
        <ele>930</ele>
        <time>2019-04-21T07:46:56.000Z</time>
      </trkpt>
      <trkpt lat="38.509818" lon="-0.68272">
        <ele>929.761907083907</ele>
        <time>2019-04-21T07:46:57.000Z</time>
      </trkpt>
      <trkpt lat="38.509802" lon="-0.682738">
        <ele>929</ele>
        <time>2019-04-21T07:46:58.000Z</time>
      </trkpt>
      <trkpt lat="38.509784" lon="-0.682756">
        <ele>929</ele>
        <time>2019-04-21T07:46:59.000Z</time>
      </trkpt>
      <trkpt lat="38.509767" lon="-0.682772">
        <ele>929</ele>
        <time>2019-04-21T07:47:00.000Z</time>
      </trkpt>
      <trkpt lat="38.509749" lon="-0.682787">
        <ele>929</ele>
        <time>2019-04-21T07:47:01.000Z</time>
      </trkpt>
      <trkpt lat="38.50973" lon="-0.6828">
        <ele>929</ele>
        <time>2019-04-21T07:47:02.000Z</time>
      </trkpt>
      <trkpt lat="38.509709" lon="-0.682812">
        <ele>928.789474393349</ele>
        <time>2019-04-21T07:47:03.000Z</time>
      </trkpt>
      <trkpt lat="38.509688" lon="-0.682824">
        <ele>928</ele>
        <time>2019-04-21T07:47:04.000Z</time>
      </trkpt>
      <trkpt lat="38.509668" lon="-0.682835">
        <ele>928</ele>
        <time>2019-04-21T07:47:05.000Z</time>
      </trkpt>
      <trkpt lat="38.509648" lon="-0.682849">
        <ele>928</ele>
        <time>2019-04-21T07:47:06.000Z</time>
      </trkpt>
      <trkpt lat="38.50963" lon="-0.682863">
        <ele>928</ele>
        <time>2019-04-21T07:47:07.000Z</time>
      </trkpt>
      <trkpt lat="38.509611" lon="-0.682878">
        <ele>927.789474393349</ele>
        <time>2019-04-21T07:47:08.000Z</time>
      </trkpt>
      <trkpt lat="38.509593" lon="-0.682893">
        <ele>927</ele>
        <time>2019-04-21T07:47:09.000Z</time>
      </trkpt>
      <trkpt lat="38.509573" lon="-0.682905">
        <ele>927</ele>
        <time>2019-04-21T07:47:10.000Z</time>
      </trkpt>
      <trkpt lat="38.509554" lon="-0.682918">
        <ele>927</ele>
        <time>2019-04-21T07:47:11.000Z</time>
      </trkpt>
      <trkpt lat="38.509536" lon="-0.682932">
        <ele>927</ele>
        <time>2019-04-21T07:47:12.000Z</time>
      </trkpt>
      <trkpt lat="38.509518" lon="-0.682949">
        <ele>927</ele>
        <time>2019-04-21T07:47:13.000Z</time>
      </trkpt>
      <trkpt lat="38.509498" lon="-0.682964">
        <ele>927</ele>
        <time>2019-04-21T07:47:14.000Z</time>
      </trkpt>
      <trkpt lat="38.509479" lon="-0.682982">
        <ele>927</ele>
        <time>2019-04-21T07:47:15.000Z</time>
      </trkpt>
      <trkpt lat="38.509462" lon="-0.683003">
        <ele>927</ele>
        <time>2019-04-21T07:47:16.000Z</time>
      </trkpt>
      <trkpt lat="38.509446" lon="-0.683028">
        <ele>926.757576541167</ele>
        <time>2019-04-21T07:47:17.000Z</time>
      </trkpt>
      <trkpt lat="38.509436" lon="-0.683056">
        <ele>926</ele>
        <time>2019-04-21T07:47:18.000Z</time>
      </trkpt>
      <trkpt lat="38.509427" lon="-0.683086">
        <ele>926</ele>
        <time>2019-04-21T07:47:19.000Z</time>
      </trkpt>
      <trkpt lat="38.509423" lon="-0.683117">
        <ele>926</ele>
        <time>2019-04-21T07:47:20.000Z</time>
      </trkpt>
      <trkpt lat="38.509421" lon="-0.683146">
        <ele>925.7500032</ele>
        <time>2019-04-21T07:47:21.000Z</time>
      </trkpt>
      <trkpt lat="38.509417" lon="-0.683176">
        <ele>925</ele>
        <time>2019-04-21T07:47:22.000Z</time>
      </trkpt>
      <trkpt lat="38.509413" lon="-0.683207">
        <ele>925</ele>
        <time>2019-04-21T07:47:23.000Z</time>
      </trkpt>
      <trkpt lat="38.509411" lon="-0.68324">
        <ele>924.776788571429</ele>
        <time>2019-04-21T07:47:24.000Z</time>
      </trkpt>
      <trkpt lat="38.509409" lon="-0.683271">
        <ele>924</ele>
        <time>2019-04-21T07:47:25.000Z</time>
      </trkpt>
      <trkpt lat="38.509406" lon="-0.683302">
        <ele>924</ele>
        <time>2019-04-21T07:47:26.000Z</time>
      </trkpt>
      <trkpt lat="38.509404" lon="-0.683334">
        <ele>924</ele>
        <time>2019-04-21T07:47:27.000Z</time>
      </trkpt>
      <trkpt lat="38.509403" lon="-0.683362">
        <ele>923.7500032</ele>
        <time>2019-04-21T07:47:28.000Z</time>
      </trkpt>
      <trkpt lat="38.509401" lon="-0.683392">
        <ele>923</ele>
        <time>2019-04-21T07:47:29.000Z</time>
      </trkpt>
      <trkpt lat="38.509398" lon="-0.683421">
        <ele>922.8125</ele>
        <time>2019-04-21T07:47:30.000Z</time>
      </trkpt>
      <trkpt lat="38.509394" lon="-0.683455">
        <ele>922.03125</ele>
        <time>2019-04-21T07:47:31.000Z</time>
      </trkpt>
      <trkpt lat="38.509391" lon="-0.68349">
        <ele>922</ele>
        <time>2019-04-21T07:47:32.000Z</time>
      </trkpt>
      <trkpt lat="38.509387" lon="-0.683521">
        <ele>922</ele>
        <time>2019-04-21T07:47:33.000Z</time>
      </trkpt>
      <trkpt lat="38.509381" lon="-0.683554">
        <ele>921.765304389849</ele>
        <time>2019-04-21T07:47:34.000Z</time>
      </trkpt>
      <trkpt lat="38.509374" lon="-0.683589">
        <ele>921</ele>
        <time>2019-04-21T07:47:35.000Z</time>
      </trkpt>
      <trkpt lat="38.509369" lon="-0.683623">
        <ele>921</ele>
        <time>2019-04-21T07:47:36.000Z</time>
      </trkpt>
      <trkpt lat="38.509364" lon="-0.683661">
        <ele>920.781253333333</ele>
        <time>2019-04-21T07:47:37.000Z</time>
      </trkpt>
      <trkpt lat="38.509357" lon="-0.6837">
        <ele>920</ele>
        <time>2019-04-21T07:47:38.000Z</time>
      </trkpt>
      <trkpt lat="38.509351" lon="-0.683742">
        <ele>919.815220869565</ele>
        <time>2019-04-21T07:47:39.000Z</time>
      </trkpt>
      <trkpt lat="38.509347" lon="-0.683782">
        <ele>919</ele>
        <time>2019-04-21T07:47:40.000Z</time>
      </trkpt>
      <trkpt lat="38.509348" lon="-0.683821">
        <ele>918.761907083907</ele>
        <time>2019-04-21T07:47:41.000Z</time>
      </trkpt>
      <trkpt lat="38.50935" lon="-0.683859">
        <ele>918</ele>
        <time>2019-04-21T07:47:42.000Z</time>
      </trkpt>
      <trkpt lat="38.509351" lon="-0.683894">
        <ele>917.778763267294</ele>
        <time>2019-04-21T07:47:43.000Z</time>
      </trkpt>
      <trkpt lat="38.509356" lon="-0.683929">
        <ele>917</ele>
        <time>2019-04-21T07:47:44.000Z</time>
      </trkpt>
      <trkpt lat="38.509362" lon="-0.683961">
        <ele>917</ele>
        <time>2019-04-21T07:47:45.000Z</time>
      </trkpt>
      <trkpt lat="38.509372" lon="-0.683993">
        <ele>917</ele>
        <time>2019-04-21T07:47:46.000Z</time>
      </trkpt>
      <trkpt lat="38.50938" lon="-0.684023">
        <ele>917</ele>
        <time>2019-04-21T07:47:47.000Z</time>
      </trkpt>
      <trkpt lat="38.509391" lon="-0.684054">
        <ele>916.778763267294</ele>
        <time>2019-04-21T07:47:48.000Z</time>
      </trkpt>
      <trkpt lat="38.509401" lon="-0.684086">
        <ele>916</ele>
        <time>2019-04-21T07:47:49.000Z</time>
      </trkpt>
      <trkpt lat="38.509411" lon="-0.684115">
        <ele>916</ele>
        <time>2019-04-21T07:47:50.000Z</time>
      </trkpt>
      <trkpt lat="38.509421" lon="-0.684141">
        <ele>916</ele>
        <time>2019-04-21T07:47:51.000Z</time>
      </trkpt>
      <trkpt lat="38.50943" lon="-0.684164">
        <ele>916</ele>
        <time>2019-04-21T07:47:52.000Z</time>
      </trkpt>
      <trkpt lat="38.509436" lon="-0.68419">
        <ele>915.7500032</ele>
        <time>2019-04-21T07:47:53.000Z</time>
      </trkpt>
      <trkpt lat="38.509443" lon="-0.684232">
        <ele>915</ele>
        <time>2019-04-21T07:47:55.000Z</time>
      </trkpt>
      <trkpt lat="38.509445" lon="-0.684258">
        <ele>915</ele>
        <time>2019-04-21T07:47:56.000Z</time>
      </trkpt>
      <trkpt lat="38.509446" lon="-0.684288">
        <ele>915</ele>
        <time>2019-04-21T07:47:57.000Z</time>
      </trkpt>
      <trkpt lat="38.509448" lon="-0.684319">
        <ele>915</ele>
        <time>2019-04-21T07:47:58.000Z</time>
      </trkpt>
      <trkpt lat="38.50945" lon="-0.684348">
        <ele>915</ele>
        <time>2019-04-21T07:47:59.000Z</time>
      </trkpt>
      <trkpt lat="38.509452" lon="-0.684376">
        <ele>915</ele>
        <time>2019-04-21T07:48:00.000Z</time>
      </trkpt>
      <trkpt lat="38.509454" lon="-0.684403">
        <ele>915</ele>
        <time>2019-04-21T07:48:01.000Z</time>
      </trkpt>
      <trkpt lat="38.509455" lon="-0.684433">
        <ele>915</ele>
        <time>2019-04-21T07:48:02.000Z</time>
      </trkpt>
      <trkpt lat="38.509458" lon="-0.684462">
        <ele>915</ele>
        <time>2019-04-21T07:48:03.000Z</time>
      </trkpt>
      <trkpt lat="38.509462" lon="-0.68449">
        <ele>915.2499968</ele>
        <time>2019-04-21T07:48:04.000Z</time>
      </trkpt>
      <trkpt lat="38.509464" lon="-0.684519">
        <ele>916</ele>
        <time>2019-04-21T07:48:05.000Z</time>
      </trkpt>
      <trkpt lat="38.509467" lon="-0.684547">
        <ele>916</ele>
        <time>2019-04-21T07:48:06.000Z</time>
      </trkpt>
      <trkpt lat="38.50947" lon="-0.684575">
        <ele>916</ele>
        <time>2019-04-21T07:48:07.000Z</time>
      </trkpt>
      <trkpt lat="38.509472" lon="-0.684604">
        <ele>916</ele>
        <time>2019-04-21T07:48:08.000Z</time>
      </trkpt>
      <trkpt lat="38.509473" lon="-0.684631">
        <ele>916</ele>
        <time>2019-04-21T07:48:09.000Z</time>
      </trkpt>
      <trkpt lat="38.509475" lon="-0.684657">
        <ele>916</ele>
        <time>2019-04-21T07:48:10.000Z</time>
      </trkpt>
      <trkpt lat="38.509478" lon="-0.684684">
        <ele>916.175823557543</ele>
        <time>2019-04-21T07:48:11.000Z</time>
      </trkpt>
      <trkpt lat="38.509479" lon="-0.68471">
        <ele>917</ele>
        <time>2019-04-21T07:48:12.000Z</time>
      </trkpt>
      <trkpt lat="38.509477" lon="-0.684737">
        <ele>917.192306177507</ele>
        <time>2019-04-21T07:48:13.000Z</time>
      </trkpt>
      <trkpt lat="38.509475" lon="-0.684765">
        <ele>917.961540733739</ele>
        <time>2019-04-21T07:48:14.000Z</time>
      </trkpt>
      <trkpt lat="38.509474" lon="-0.684795">
        <ele>918</ele>
        <time>2019-04-21T07:48:15.000Z</time>
      </trkpt>
      <trkpt lat="38.509472" lon="-0.684824">
        <ele>918</ele>
        <time>2019-04-21T07:48:16.000Z</time>
      </trkpt>
      <trkpt lat="38.509471" lon="-0.684854">
        <ele>918</ele>
        <time>2019-04-21T07:48:17.000Z</time>
      </trkpt>
      <trkpt lat="38.50947" lon="-0.684885">
        <ele>918</ele>
        <time>2019-04-21T07:48:18.000Z</time>
      </trkpt>
      <trkpt lat="38.509472" lon="-0.68492">
        <ele>918</ele>
        <time>2019-04-21T07:48:19.000Z</time>
      </trkpt>
      <trkpt lat="38.50947" lon="-0.684951">
        <ele>918</ele>
        <time>2019-04-21T07:48:20.000Z</time>
      </trkpt>
      <trkpt lat="38.509469" lon="-0.68498">
        <ele>918</ele>
        <time>2019-04-21T07:48:21.000Z</time>
      </trkpt>
      <trkpt lat="38.509469" lon="-0.685009">
        <ele>918</ele>
        <time>2019-04-21T07:48:22.000Z</time>
      </trkpt>
      <trkpt lat="38.509469" lon="-0.685042">
        <ele>917.76415253828</ele>
        <time>2019-04-21T07:48:23.000Z</time>
      </trkpt>
      <trkpt lat="38.50947" lon="-0.685073">
        <ele>917</ele>
        <time>2019-04-21T07:48:24.000Z</time>
      </trkpt>
      <trkpt lat="38.50947" lon="-0.685107">
        <ele>917</ele>
        <time>2019-04-21T07:48:25.000Z</time>
      </trkpt>
      <trkpt lat="38.50947" lon="-0.685138">
        <ele>917</ele>
        <time>2019-04-21T07:48:26.000Z</time>
      </trkpt>
      <trkpt lat="38.509469" lon="-0.68517">
        <ele>917</ele>
        <time>2019-04-21T07:48:27.000Z</time>
      </trkpt>
      <trkpt lat="38.509469" lon="-0.685201">
        <ele>917</ele>
        <time>2019-04-21T07:48:28.000Z</time>
      </trkpt>
      <trkpt lat="38.50947" lon="-0.685229">
        <ele>917</ele>
        <time>2019-04-21T07:48:29.000Z</time>
      </trkpt>
      <trkpt lat="38.509472" lon="-0.685258">
        <ele>917</ele>
        <time>2019-04-21T07:48:30.000Z</time>
      </trkpt>
      <trkpt lat="38.509471" lon="-0.685288">
        <ele>917</ele>
        <time>2019-04-21T07:48:31.000Z</time>
      </trkpt>
      <trkpt lat="38.509468" lon="-0.685315">
        <ele>917</ele>
        <time>2019-04-21T07:48:32.000Z</time>
      </trkpt>
      <trkpt lat="38.509467" lon="-0.685344">
        <ele>917</ele>
        <time>2019-04-21T07:48:33.000Z</time>
      </trkpt>
      <trkpt lat="38.509465" lon="-0.685372">
        <ele>917.182479842289</ele>
        <time>2019-04-21T07:48:34.000Z</time>
      </trkpt>
      <trkpt lat="38.509461" lon="-0.685398">
        <ele>917.912408554531</ele>
        <time>2019-04-21T07:48:35.000Z</time>
      </trkpt>
      <trkpt lat="38.509458" lon="-0.685424">
        <ele>918</ele>
        <time>2019-04-21T07:48:36.000Z</time>
      </trkpt>
      <trkpt lat="38.509455" lon="-0.685451">
        <ele>918</ele>
        <time>2019-04-21T07:48:37.000Z</time>
      </trkpt>
      <trkpt lat="38.509452" lon="-0.68548">
        <ele>918</ele>
        <time>2019-04-21T07:48:38.000Z</time>
      </trkpt>
      <trkpt lat="38.509448" lon="-0.685509">
        <ele>918</ele>
        <time>2019-04-21T07:48:39.000Z</time>
      </trkpt>
      <trkpt lat="38.509447" lon="-0.685538">
        <ele>918.127909745788</ele>
        <time>2019-04-21T07:48:40.000Z</time>
      </trkpt>
      <trkpt lat="38.509447" lon="-0.685567">
        <ele>919.2499968</ele>
        <time>2019-04-21T07:48:41.000Z</time>
      </trkpt>
      <trkpt lat="38.509446" lon="-0.685596">
        <ele>920</ele>
        <time>2019-04-21T07:48:42.000Z</time>
      </trkpt>
      <trkpt lat="38.509446" lon="-0.685624">
        <ele>920</ele>
        <time>2019-04-21T07:48:43.000Z</time>
      </trkpt>
      <trkpt lat="38.509445" lon="-0.685654">
        <ele>920</ele>
        <time>2019-04-21T07:48:44.000Z</time>
      </trkpt>
      <trkpt lat="38.509446" lon="-0.685684">
        <ele>920</ele>
        <time>2019-04-21T07:48:45.000Z</time>
      </trkpt>
      <trkpt lat="38.509448" lon="-0.685713">
        <ele>920</ele>
        <time>2019-04-21T07:48:46.000Z</time>
      </trkpt>
      <trkpt lat="38.509446" lon="-0.685744">
        <ele>920</ele>
        <time>2019-04-21T07:48:47.000Z</time>
      </trkpt>
      <trkpt lat="38.509442" lon="-0.685775">
        <ele>920</ele>
        <time>2019-04-21T07:48:48.000Z</time>
      </trkpt>
      <trkpt lat="38.509435" lon="-0.685806">
        <ele>920</ele>
        <time>2019-04-21T07:48:49.000Z</time>
      </trkpt>
      <trkpt lat="38.50943" lon="-0.685836">
        <ele>920</ele>
        <time>2019-04-21T07:48:50.000Z</time>
      </trkpt>
      <trkpt lat="38.509428" lon="-0.685867">
        <ele>920.2499968</ele>
        <time>2019-04-21T07:48:51.000Z</time>
      </trkpt>
      <trkpt lat="38.509424" lon="-0.685898">
        <ele>921.2499968</ele>
        <time>2019-04-21T07:48:52.000Z</time>
      </trkpt>
      <trkpt lat="38.509419" lon="-0.685928">
        <ele>922</ele>
        <time>2019-04-21T07:48:53.000Z</time>
      </trkpt>
      <trkpt lat="38.509414" lon="-0.685957">
        <ele>922</ele>
        <time>2019-04-21T07:48:54.000Z</time>
      </trkpt>
      <trkpt lat="38.50941" lon="-0.685986">
        <ele>922</ele>
        <time>2019-04-21T07:48:55.000Z</time>
      </trkpt>
      <trkpt lat="38.509406" lon="-0.686015">
        <ele>922</ele>
        <time>2019-04-21T07:48:56.000Z</time>
      </trkpt>
      <trkpt lat="38.509403" lon="-0.686045">
        <ele>922</ele>
        <time>2019-04-21T07:48:57.000Z</time>
      </trkpt>
      <trkpt lat="38.509399" lon="-0.686077">
        <ele>922.240381538462</ele>
        <time>2019-04-21T07:48:58.000Z</time>
      </trkpt>
      <trkpt lat="38.509397" lon="-0.686107">
        <ele>923</ele>
        <time>2019-04-21T07:48:59.000Z</time>
      </trkpt>
      <trkpt lat="38.509397" lon="-0.686138">
        <ele>923</ele>
        <time>2019-04-21T07:49:00.000Z</time>
      </trkpt>
      <trkpt lat="38.509397" lon="-0.686172">
        <ele>923</ele>
        <time>2019-04-21T07:49:01.000Z</time>
      </trkpt>
      <trkpt lat="38.509398" lon="-0.686204">
        <ele>923</ele>
        <time>2019-04-21T07:49:02.000Z</time>
      </trkpt>
      <trkpt lat="38.509402" lon="-0.686234">
        <ele>923</ele>
        <time>2019-04-21T07:49:03.000Z</time>
      </trkpt>
      <trkpt lat="38.509406" lon="-0.686265">
        <ele>923</ele>
        <time>2019-04-21T07:49:04.000Z</time>
      </trkpt>
      <trkpt lat="38.509407" lon="-0.686295">
        <ele>922.812032028949</ele>
        <time>2019-04-21T07:49:05.000Z</time>
      </trkpt>
      <trkpt lat="38.509407" lon="-0.686327">
        <ele>922.060150520663</ele>
        <time>2019-04-21T07:49:06.000Z</time>
      </trkpt>
      <trkpt lat="38.50941" lon="-0.686362">
        <ele>922</ele>
        <time>2019-04-21T07:49:07.000Z</time>
      </trkpt>
      <trkpt lat="38.509416" lon="-0.686397">
        <ele>922</ele>
        <time>2019-04-21T07:49:08.000Z</time>
      </trkpt>
      <trkpt lat="38.509422" lon="-0.686429">
        <ele>922</ele>
        <time>2019-04-21T07:49:09.000Z</time>
      </trkpt>
      <trkpt lat="38.509426" lon="-0.686459">
        <ele>922</ele>
        <time>2019-04-21T07:49:10.000Z</time>
      </trkpt>
      <trkpt lat="38.509435" lon="-0.686484">
        <ele>922.231478518519</ele>
        <time>2019-04-21T07:49:12.000Z</time>
      </trkpt>
      <trkpt lat="38.509437" lon="-0.686513">
        <ele>922</ele>
        <time>2019-04-21T07:49:27.000Z</time>
      </trkpt>
      <trkpt lat="38.509439" lon="-0.68654">
        <ele>921.774778306945</ele>
        <time>2019-04-21T07:49:28.000Z</time>
      </trkpt>
      <trkpt lat="38.50944" lon="-0.68657">
        <ele>921</ele>
        <time>2019-04-21T07:49:29.000Z</time>
      </trkpt>
      <trkpt lat="38.509443" lon="-0.686604">
        <ele>921</ele>
        <time>2019-04-21T07:49:30.000Z</time>
      </trkpt>
      <trkpt lat="38.509446" lon="-0.686639">
        <ele>921</ele>
        <time>2019-04-21T07:49:31.000Z</time>
      </trkpt>
      <trkpt lat="38.50945" lon="-0.686673">
        <ele>921</ele>
        <time>2019-04-21T07:49:32.000Z</time>
      </trkpt>
      <trkpt lat="38.509454" lon="-0.686704">
        <ele>921</ele>
        <time>2019-04-21T07:49:33.000Z</time>
      </trkpt>
      <trkpt lat="38.50946" lon="-0.686738">
        <ele>921</ele>
        <time>2019-04-21T07:49:34.000Z</time>
      </trkpt>
      <trkpt lat="38.509464" lon="-0.686772">
        <ele>921</ele>
        <time>2019-04-21T07:49:35.000Z</time>
      </trkpt>
      <trkpt lat="38.509467" lon="-0.686805">
        <ele>921</ele>
        <time>2019-04-21T07:49:36.000Z</time>
      </trkpt>
      <trkpt lat="38.50947" lon="-0.686836">
        <ele>921</ele>
        <time>2019-04-21T07:49:37.000Z</time>
      </trkpt>
      <trkpt lat="38.509475" lon="-0.686868">
        <ele>921.2499968</ele>
        <time>2019-04-21T07:49:38.000Z</time>
      </trkpt>
      <trkpt lat="38.509479" lon="-0.6869">
        <ele>922</ele>
        <time>2019-04-21T07:49:39.000Z</time>
      </trkpt>
      <trkpt lat="38.509483" lon="-0.686932">
        <ele>922</ele>
        <time>2019-04-21T07:49:40.000Z</time>
      </trkpt>
      <trkpt lat="38.509486" lon="-0.686963">
        <ele>922</ele>
        <time>2019-04-21T07:49:41.000Z</time>
      </trkpt>
      <trkpt lat="38.50949" lon="-0.686991">
        <ele>921.824176442457</ele>
        <time>2019-04-21T07:49:42.000Z</time>
      </trkpt>
      <trkpt lat="38.509496" lon="-0.687029">
        <ele>921</ele>
        <time>2019-04-21T07:49:44.000Z</time>
      </trkpt>
      <trkpt lat="38.5095" lon="-0.687057">
        <ele>921.226808476947</ele>
        <time>2019-04-21T07:49:46.000Z</time>
      </trkpt>
      <trkpt lat="38.5095" lon="-0.687087">
        <ele>922</ele>
        <time>2019-04-21T07:49:48.000Z</time>
      </trkpt>
      <trkpt lat="38.509503" lon="-0.687118">
        <ele>922</ele>
        <time>2019-04-21T07:49:50.000Z</time>
      </trkpt>
      <trkpt lat="38.509503" lon="-0.68715">
        <ele>921.776788571429</ele>
        <time>2019-04-21T07:49:52.000Z</time>
      </trkpt>
      <trkpt lat="38.509501" lon="-0.687174">
        <ele>921</ele>
        <time>2019-04-21T07:49:53.000Z</time>
      </trkpt>
      <trkpt lat="38.509498" lon="-0.687205">
        <ele>921</ele>
        <time>2019-04-21T07:49:54.000Z</time>
      </trkpt>
      <trkpt lat="38.509494" lon="-0.687238">
        <ele>921</ele>
        <time>2019-04-21T07:49:55.000Z</time>
      </trkpt>
      <trkpt lat="38.509488" lon="-0.687273">
        <ele>921</ele>
        <time>2019-04-21T07:49:56.000Z</time>
      </trkpt>
      <trkpt lat="38.509483" lon="-0.687307">
        <ele>921</ele>
        <time>2019-04-21T07:49:57.000Z</time>
      </trkpt>
      <trkpt lat="38.509482" lon="-0.687341">
        <ele>921.2499968</ele>
        <time>2019-04-21T07:49:58.000Z</time>
      </trkpt>
      <trkpt lat="38.509482" lon="-0.687374">
        <ele>922</ele>
        <time>2019-04-21T07:49:59.000Z</time>
      </trkpt>
      <trkpt lat="38.509482" lon="-0.687406">
        <ele>922</ele>
        <time>2019-04-21T07:50:00.000Z</time>
      </trkpt>
      <trkpt lat="38.509481" lon="-0.687437">
        <ele>922</ele>
        <time>2019-04-21T07:50:01.000Z</time>
      </trkpt>
      <trkpt lat="38.509483" lon="-0.68747">
        <ele>922</ele>
        <time>2019-04-21T07:50:02.000Z</time>
      </trkpt>
      <trkpt lat="38.509485" lon="-0.687501">
        <ele>922</ele>
        <time>2019-04-21T07:50:03.000Z</time>
      </trkpt>
      <trkpt lat="38.509488" lon="-0.687532">
        <ele>922</ele>
        <time>2019-04-21T07:50:04.000Z</time>
      </trkpt>
      <trkpt lat="38.509487" lon="-0.687562">
        <ele>922</ele>
        <time>2019-04-21T07:50:05.000Z</time>
      </trkpt>
      <trkpt lat="38.509484" lon="-0.687593">
        <ele>922</ele>
        <time>2019-04-21T07:50:06.000Z</time>
      </trkpt>
      <trkpt lat="38.509483" lon="-0.687623">
        <ele>922</ele>
        <time>2019-04-21T07:50:07.000Z</time>
      </trkpt>
      <trkpt lat="38.509483" lon="-0.687656">
        <ele>922</ele>
        <time>2019-04-21T07:50:08.000Z</time>
      </trkpt>
      <trkpt lat="38.509482" lon="-0.687689">
        <ele>921.76415253828</ele>
        <time>2019-04-21T07:50:09.000Z</time>
      </trkpt>
      <trkpt lat="38.509483" lon="-0.687723">
        <ele>921</ele>
        <time>2019-04-21T07:50:10.000Z</time>
      </trkpt>
      <trkpt lat="38.509484" lon="-0.687757">
        <ele>921</ele>
        <time>2019-04-21T07:50:11.000Z</time>
      </trkpt>
      <trkpt lat="38.509485" lon="-0.687792">
        <ele>921</ele>
        <time>2019-04-21T07:50:12.000Z</time>
      </trkpt>
      <trkpt lat="38.509486" lon="-0.687829">
        <ele>921</ele>
        <time>2019-04-21T07:50:13.000Z</time>
      </trkpt>
      <trkpt lat="38.509488" lon="-0.687866">
        <ele>921.471694923441</ele>
        <time>2019-04-21T07:50:14.000Z</time>
      </trkpt>
      <trkpt lat="38.509487" lon="-0.687901">
        <ele>923</ele>
        <time>2019-04-21T07:50:15.000Z</time>
      </trkpt>
      <trkpt lat="38.509486" lon="-0.687937">
        <ele>923</ele>
        <time>2019-04-21T07:50:16.000Z</time>
      </trkpt>
      <trkpt lat="38.509486" lon="-0.68797">
        <ele>923</ele>
        <time>2019-04-21T07:50:17.000Z</time>
      </trkpt>
      <trkpt lat="38.509487" lon="-0.688003">
        <ele>923</ele>
        <time>2019-04-21T07:50:18.000Z</time>
      </trkpt>
      <trkpt lat="38.509488" lon="-0.688036">
        <ele>923</ele>
        <time>2019-04-21T07:50:19.000Z</time>
      </trkpt>
      <trkpt lat="38.50949" lon="-0.68807">
        <ele>923</ele>
        <time>2019-04-21T07:50:20.000Z</time>
      </trkpt>
      <trkpt lat="38.509493" lon="-0.688105">
        <ele>923</ele>
        <time>2019-04-21T07:50:21.000Z</time>
      </trkpt>
      <trkpt lat="38.509498" lon="-0.688139">
        <ele>923</ele>
        <time>2019-04-21T07:50:22.000Z</time>
      </trkpt>
      <trkpt lat="38.509501" lon="-0.688174">
        <ele>924</ele>
        <time>2019-04-21T07:50:23.000Z</time>
      </trkpt>
      <trkpt lat="38.509503" lon="-0.688211">
        <ele>924</ele>
        <time>2019-04-21T07:50:24.000Z</time>
      </trkpt>
      <trkpt lat="38.509503" lon="-0.688246">
        <ele>924</ele>
        <time>2019-04-21T07:50:25.000Z</time>
      </trkpt>
      <trkpt lat="38.509503" lon="-0.688282">
        <ele>924</ele>
        <time>2019-04-21T07:50:26.000Z</time>
      </trkpt>
      <trkpt lat="38.509501" lon="-0.688319">
        <ele>924</ele>
        <time>2019-04-21T07:50:27.000Z</time>
      </trkpt>
      <trkpt lat="38.509501" lon="-0.688355">
        <ele>924</ele>
        <time>2019-04-21T07:50:28.000Z</time>
      </trkpt>
      <trkpt lat="38.509499" lon="-0.68839">
        <ele>923.789474393349</ele>
        <time>2019-04-21T07:50:29.000Z</time>
      </trkpt>
      <trkpt lat="38.509493" lon="-0.688424">
        <ele>923</ele>
        <time>2019-04-21T07:50:30.000Z</time>
      </trkpt>
      <trkpt lat="38.509487" lon="-0.688452">
        <ele>923</ele>
        <time>2019-04-21T07:50:31.000Z</time>
      </trkpt>
      <trkpt lat="38.509479" lon="-0.688475">
        <ele>923</ele>
        <time>2019-04-21T07:50:32.000Z</time>
      </trkpt>
      <trkpt lat="38.509468" lon="-0.688494">
        <ele>923</ele>
        <time>2019-04-21T07:50:33.000Z</time>
      </trkpt>
      <trkpt lat="38.509456" lon="-0.688511">
        <ele>923</ele>
        <time>2019-04-21T07:50:34.000Z</time>
      </trkpt>
      <trkpt lat="38.509438" lon="-0.688537">
        <ele>923</ele>
        <time>2019-04-21T07:50:36.000Z</time>
      </trkpt>
      <trkpt lat="38.509419" lon="-0.68857">
        <ele>923</ele>
        <time>2019-04-21T07:50:38.000Z</time>
      </trkpt>
      <trkpt lat="38.509417" lon="-0.688593">
        <ele>923</ele>
        <time>2019-04-21T07:50:39.000Z</time>
      </trkpt>
      <trkpt lat="38.509415" lon="-0.688627">
        <ele>923</ele>
        <time>2019-04-21T07:50:41.000Z</time>
      </trkpt>
      <trkpt lat="38.509414" lon="-0.688651">
        <ele>923</ele>
        <time>2019-04-21T07:50:42.000Z</time>
      </trkpt>
      <trkpt lat="38.509411" lon="-0.688674">
        <ele>923</ele>
        <time>2019-04-21T07:50:43.000Z</time>
      </trkpt>
      <trkpt lat="38.509407" lon="-0.688696">
        <ele>923</ele>
        <time>2019-04-21T07:50:44.000Z</time>
      </trkpt>
      <trkpt lat="38.509404" lon="-0.688721">
        <ele>923</ele>
        <time>2019-04-21T07:50:45.000Z</time>
      </trkpt>
      <trkpt lat="38.509392" lon="-0.688764">
        <ele>923</ele>
        <time>2019-04-21T07:50:47.000Z</time>
      </trkpt>
      <trkpt lat="38.509383" lon="-0.688791">
        <ele>923</ele>
        <time>2019-04-21T07:50:48.000Z</time>
      </trkpt>
      <trkpt lat="38.509379" lon="-0.688825">
        <ele>922.7500032</ele>
        <time>2019-04-21T07:50:49.000Z</time>
      </trkpt>
      <trkpt lat="38.509375" lon="-0.688857">
        <ele>922</ele>
        <time>2019-04-21T07:50:50.000Z</time>
      </trkpt>
      <trkpt lat="38.509373" lon="-0.688889">
        <ele>922</ele>
        <time>2019-04-21T07:50:51.000Z</time>
      </trkpt>
      <trkpt lat="38.509369" lon="-0.688917">
        <ele>922</ele>
        <time>2019-04-21T07:50:52.000Z</time>
      </trkpt>
      <trkpt lat="38.50936" lon="-0.688945">
        <ele>921.83333096298</ele>
        <time>2019-04-21T07:50:53.000Z</time>
      </trkpt>
      <trkpt lat="38.50935" lon="-0.688976">
        <ele>920.7500032</ele>
        <time>2019-04-21T07:50:54.000Z</time>
      </trkpt>
      <trkpt lat="38.509341" lon="-0.689009">
        <ele>920</ele>
        <time>2019-04-21T07:50:55.000Z</time>
      </trkpt>
      <trkpt lat="38.509331" lon="-0.689041">
        <ele>920</ele>
        <time>2019-04-21T07:50:56.000Z</time>
      </trkpt>
      <trkpt lat="38.509322" lon="-0.689071">
        <ele>920</ele>
        <time>2019-04-21T07:50:57.000Z</time>
      </trkpt>
      <trkpt lat="38.509315" lon="-0.6891">
        <ele>920</ele>
        <time>2019-04-21T07:50:58.000Z</time>
      </trkpt>
      <trkpt lat="38.509307" lon="-0.689125">
        <ele>920</ele>
        <time>2019-04-21T07:50:59.000Z</time>
      </trkpt>
      <trkpt lat="38.5093" lon="-0.689152">
        <ele>920</ele>
        <time>2019-04-21T07:51:00.000Z</time>
      </trkpt>
      <trkpt lat="38.5093" lon="-0.689183">
        <ele>920</ele>
        <time>2019-04-21T07:51:01.000Z</time>
      </trkpt>
      <trkpt lat="38.509309" lon="-0.689207">
        <ele>920</ele>
        <time>2019-04-21T07:51:02.000Z</time>
      </trkpt>
      <trkpt lat="38.509315" lon="-0.689246">
        <ele>920</ele>
        <time>2019-04-21T07:51:04.000Z</time>
      </trkpt>
      <trkpt lat="38.509311" lon="-0.689275">
        <ele>920</ele>
        <time>2019-04-21T07:51:05.000Z</time>
      </trkpt>
      <trkpt lat="38.50931" lon="-0.689307">
        <ele>920</ele>
        <time>2019-04-21T07:51:06.000Z</time>
      </trkpt>
      <trkpt lat="38.509315" lon="-0.689335">
        <ele>920.1</ele>
        <time>2019-04-21T07:51:07.000Z</time>
      </trkpt>
      <trkpt lat="38.509319" lon="-0.689362">
        <ele>920.933333333333</ele>
        <time>2019-04-21T07:51:08.000Z</time>
      </trkpt>
      <trkpt lat="38.509317" lon="-0.689387">
        <ele>921</ele>
        <time>2019-04-21T07:51:09.000Z</time>
      </trkpt>
      <trkpt lat="38.509317" lon="-0.689419">
        <ele>921.2499968</ele>
        <time>2019-04-21T07:51:10.000Z</time>
      </trkpt>
      <trkpt lat="38.509319" lon="-0.689452">
        <ele>922.2499968</ele>
        <time>2019-04-21T07:51:11.000Z</time>
      </trkpt>
      <trkpt lat="38.509321" lon="-0.689483">
        <ele>922.768521481481</ele>
        <time>2019-04-21T07:51:12.000Z</time>
      </trkpt>
      <trkpt lat="38.509322" lon="-0.689513">
        <ele>922</ele>
        <time>2019-04-21T07:51:13.000Z</time>
      </trkpt>
      <trkpt lat="38.509323" lon="-0.689542">
        <ele>922</ele>
        <time>2019-04-21T07:51:14.000Z</time>
      </trkpt>
      <trkpt lat="38.509324" lon="-0.689567">
        <ele>922.2499968</ele>
        <time>2019-04-21T07:51:15.000Z</time>
      </trkpt>
      <trkpt lat="38.509318" lon="-0.689613">
        <ele>923</ele>
        <time>2019-04-21T07:51:17.000Z</time>
      </trkpt>
      <trkpt lat="38.509316" lon="-0.689639">
        <ele>923</ele>
        <time>2019-04-21T07:51:18.000Z</time>
      </trkpt>
      <trkpt lat="38.509314" lon="-0.689666">
        <ele>923</ele>
        <time>2019-04-21T07:51:19.000Z</time>
      </trkpt>
      <trkpt lat="38.50931" lon="-0.689698">
        <ele>922</ele>
        <time>2019-04-21T07:51:20.000Z</time>
      </trkpt>
      <trkpt lat="38.509307" lon="-0.689728">
        <ele>922</ele>
        <time>2019-04-21T07:51:21.000Z</time>
      </trkpt>
      <trkpt lat="38.509306" lon="-0.689758">
        <ele>921.810608484848</ele>
        <time>2019-04-21T07:51:22.000Z</time>
      </trkpt>
      <trkpt lat="38.509304" lon="-0.68979">
        <ele>921.053032727273</ele>
        <time>2019-04-21T07:51:23.000Z</time>
      </trkpt>
      <trkpt lat="38.509303" lon="-0.689826">
        <ele>921</ele>
        <time>2019-04-21T07:51:24.000Z</time>
      </trkpt>
      <trkpt lat="38.509308" lon="-0.689863">
        <ele>921</ele>
        <time>2019-04-21T07:51:25.000Z</time>
      </trkpt>
      <trkpt lat="38.50931" lon="-0.689897">
        <ele>920.7500032</ele>
        <time>2019-04-21T07:51:26.000Z</time>
      </trkpt>
      <trkpt lat="38.509307" lon="-0.689929">
        <ele>920</ele>
        <time>2019-04-21T07:51:27.000Z</time>
      </trkpt>
      <trkpt lat="38.509303" lon="-0.689963">
        <ele>919.815220869565</ele>
        <time>2019-04-21T07:51:28.000Z</time>
      </trkpt>
      <trkpt lat="38.509302" lon="-0.689995">
        <ele>919</ele>
        <time>2019-04-21T07:51:29.000Z</time>
      </trkpt>
      <trkpt lat="38.509302" lon="-0.690027">
        <ele>919.2499968</ele>
        <time>2019-04-21T07:51:30.000Z</time>
      </trkpt>
      <trkpt lat="38.509306" lon="-0.690061">
        <ele>920</ele>
        <time>2019-04-21T07:51:31.000Z</time>
      </trkpt>
      <trkpt lat="38.509308" lon="-0.690091">
        <ele>920</ele>
        <time>2019-04-21T07:51:32.000Z</time>
      </trkpt>
      <trkpt lat="38.509308" lon="-0.690119">
        <ele>920.193553270848</ele>
        <time>2019-04-21T07:51:33.000Z</time>
      </trkpt>
      <trkpt lat="38.50931" lon="-0.690146">
        <ele>921</ele>
        <time>2019-04-21T07:51:34.000Z</time>
      </trkpt>
      <trkpt lat="38.509309" lon="-0.690175">
        <ele>921</ele>
        <time>2019-04-21T07:51:35.000Z</time>
      </trkpt>
      <trkpt lat="38.509306" lon="-0.690205">
        <ele>921</ele>
        <time>2019-04-21T07:51:36.000Z</time>
      </trkpt>
      <trkpt lat="38.509302" lon="-0.690231">
        <ele>920.817520157711</ele>
        <time>2019-04-21T07:51:37.000Z</time>
      </trkpt>
      <trkpt lat="38.509297" lon="-0.690258">
        <ele>920.087591445469</ele>
        <time>2019-04-21T07:51:38.000Z</time>
      </trkpt>
      <trkpt lat="38.509292" lon="-0.690282">
        <ele>920</ele>
        <time>2019-04-21T07:51:39.000Z</time>
      </trkpt>
      <trkpt lat="38.509287" lon="-0.690306">
        <ele>919.66666192596</ele>
        <time>2019-04-21T07:51:40.000Z</time>
      </trkpt>
      <trkpt lat="38.509279" lon="-0.690333">
        <ele>918</ele>
        <time>2019-04-21T07:51:41.000Z</time>
      </trkpt>
      <trkpt lat="38.509277" lon="-0.690358">
        <ele>918</ele>
        <time>2019-04-21T07:51:42.000Z</time>
      </trkpt>
      <trkpt lat="38.509284" lon="-0.690403">
        <ele>918</ele>
        <time>2019-04-21T07:51:44.000Z</time>
      </trkpt>
      <trkpt lat="38.509286" lon="-0.690442">
        <ele>919.137930527152</ele>
        <time>2019-04-21T07:51:46.000Z</time>
      </trkpt>
      <trkpt lat="38.509273" lon="-0.69049">
        <ele>920</ele>
        <time>2019-04-21T07:51:48.000Z</time>
      </trkpt>
      <trkpt lat="38.509263" lon="-0.690516">
        <ele>920</ele>
        <time>2019-04-21T07:51:49.000Z</time>
      </trkpt>
      <trkpt lat="38.509251" lon="-0.690543">
        <ele>920</ele>
        <time>2019-04-21T07:51:50.000Z</time>
      </trkpt>
      <trkpt lat="38.509242" lon="-0.69057">
        <ele>920</ele>
        <time>2019-04-21T07:51:51.000Z</time>
      </trkpt>
      <trkpt lat="38.509234" lon="-0.690597">
        <ele>919.7500032</ele>
        <time>2019-04-21T07:51:52.000Z</time>
      </trkpt>
      <trkpt lat="38.509225" lon="-0.690625">
        <ele>919</ele>
        <time>2019-04-21T07:51:53.000Z</time>
      </trkpt>
      <trkpt lat="38.50922" lon="-0.690659">
        <ele>919</ele>
        <time>2019-04-21T07:51:54.000Z</time>
      </trkpt>
      <trkpt lat="38.509215" lon="-0.690692">
        <ele>919</ele>
        <time>2019-04-21T07:51:55.000Z</time>
      </trkpt>
      <trkpt lat="38.509207" lon="-0.690723">
        <ele>919</ele>
        <time>2019-04-21T07:51:56.000Z</time>
      </trkpt>
      <trkpt lat="38.509201" lon="-0.690753">
        <ele>919</ele>
        <time>2019-04-21T07:51:57.000Z</time>
      </trkpt>
      <trkpt lat="38.50919" lon="-0.690779">
        <ele>918</ele>
        <time>2019-04-21T07:51:58.000Z</time>
      </trkpt>
      <trkpt lat="38.509175" lon="-0.6908">
        <ele>918</ele>
        <time>2019-04-21T07:51:59.000Z</time>
      </trkpt>
      <trkpt lat="38.50916" lon="-0.69082">
        <ele>918</ele>
        <time>2019-04-21T07:52:00.000Z</time>
      </trkpt>
      <trkpt lat="38.509144" lon="-0.69084">
        <ele>918</ele>
        <time>2019-04-21T07:52:01.000Z</time>
      </trkpt>
      <trkpt lat="38.509127" lon="-0.69086">
        <ele>918</ele>
        <time>2019-04-21T07:52:02.000Z</time>
      </trkpt>
      <trkpt lat="38.509111" lon="-0.690883">
        <ele>918</ele>
        <time>2019-04-21T07:52:03.000Z</time>
      </trkpt>
      <trkpt lat="38.509094" lon="-0.690906">
        <ele>918</ele>
        <time>2019-04-21T07:52:04.000Z</time>
      </trkpt>
      <trkpt lat="38.509079" lon="-0.69093">
        <ele>918</ele>
        <time>2019-04-21T07:52:05.000Z</time>
      </trkpt>
      <trkpt lat="38.509065" lon="-0.690953">
        <ele>918</ele>
        <time>2019-04-21T07:52:06.000Z</time>
      </trkpt>
      <trkpt lat="38.50905" lon="-0.690976">
        <ele>918</ele>
        <time>2019-04-21T07:52:07.000Z</time>
      </trkpt>
      <trkpt lat="38.509037" lon="-0.691">
        <ele>918</ele>
        <time>2019-04-21T07:52:08.000Z</time>
      </trkpt>
      <trkpt lat="38.509023" lon="-0.691022">
        <ele>918.2499968</ele>
        <time>2019-04-21T07:52:09.000Z</time>
      </trkpt>
      <trkpt lat="38.509011" lon="-0.691043">
        <ele>919</ele>
        <time>2019-04-21T07:52:10.000Z</time>
      </trkpt>
      <trkpt lat="38.508996" lon="-0.691065">
        <ele>919.202129687628</ele>
        <time>2019-04-21T07:52:11.000Z</time>
      </trkpt>
      <trkpt lat="38.508983" lon="-0.691087">
        <ele>920</ele>
        <time>2019-04-21T07:52:12.000Z</time>
      </trkpt>
      <trkpt lat="38.50897" lon="-0.69111">
        <ele>920</ele>
        <time>2019-04-21T07:52:13.000Z</time>
      </trkpt>
      <trkpt lat="38.508958" lon="-0.691137">
        <ele>920</ele>
        <time>2019-04-21T07:52:14.000Z</time>
      </trkpt>
      <trkpt lat="38.50895" lon="-0.691168">
        <ele>920</ele>
        <time>2019-04-21T07:52:15.000Z</time>
      </trkpt>
      <trkpt lat="38.508941" lon="-0.691198">
        <ele>920</ele>
        <time>2019-04-21T07:52:16.000Z</time>
      </trkpt>
      <trkpt lat="38.50893" lon="-0.691223">
        <ele>921</ele>
        <time>2019-04-21T07:52:17.000Z</time>
      </trkpt>
      <trkpt lat="38.508921" lon="-0.69125">
        <ele>921</ele>
        <time>2019-04-21T07:52:18.000Z</time>
      </trkpt>
      <trkpt lat="38.508917" lon="-0.691279">
        <ele>921</ele>
        <time>2019-04-21T07:52:19.000Z</time>
      </trkpt>
      <trkpt lat="38.508921" lon="-0.691305">
        <ele>921</ele>
        <time>2019-04-21T07:52:20.000Z</time>
      </trkpt>
      <trkpt lat="38.508928" lon="-0.691328">
        <ele>921</ele>
        <time>2019-04-21T07:52:21.000Z</time>
      </trkpt>
      <trkpt lat="38.508932" lon="-0.691372">
        <ele>921</ele>
        <time>2019-04-21T07:52:23.000Z</time>
      </trkpt>
      <trkpt lat="38.50892" lon="-0.691413">
        <ele>921</ele>
        <time>2019-04-21T07:52:25.000Z</time>
      </trkpt>
      <trkpt lat="38.508907" lon="-0.691434">
        <ele>921</ele>
        <time>2019-04-21T07:52:26.000Z</time>
      </trkpt>
      <trkpt lat="38.508892" lon="-0.691464">
        <ele>921</ele>
        <time>2019-04-21T07:52:27.000Z</time>
      </trkpt>
      <trkpt lat="38.508884" lon="-0.691502">
        <ele>920.862905806452</ele>
        <time>2019-04-21T07:52:28.000Z</time>
      </trkpt>
      <trkpt lat="38.508878" lon="-0.69154">
        <ele>920.056454193548</ele>
        <time>2019-04-21T07:52:29.000Z</time>
      </trkpt>
      <trkpt lat="38.508871" lon="-0.691575">
        <ele>919</ele>
        <time>2019-04-21T07:52:30.000Z</time>
      </trkpt>
      <trkpt lat="38.508867" lon="-0.69161">
        <ele>918.752477631612</ele>
        <time>2019-04-21T07:52:31.000Z</time>
      </trkpt>
      <trkpt lat="38.508868" lon="-0.691644">
        <ele>918</ele>
        <time>2019-04-21T07:52:32.000Z</time>
      </trkpt>
      <trkpt lat="38.508869" lon="-0.691673">
        <ele>918</ele>
        <time>2019-04-21T07:52:33.000Z</time>
      </trkpt>
      <trkpt lat="38.508866" lon="-0.691702">
        <ele>918</ele>
        <time>2019-04-21T07:52:34.000Z</time>
      </trkpt>
      <trkpt lat="38.508861" lon="-0.691731">
        <ele>918</ele>
        <time>2019-04-21T07:52:35.000Z</time>
      </trkpt>
      <trkpt lat="38.508858" lon="-0.691764">
        <ele>918</ele>
        <time>2019-04-21T07:52:36.000Z</time>
      </trkpt>
      <trkpt lat="38.508853" lon="-0.691792">
        <ele>918</ele>
        <time>2019-04-21T07:52:37.000Z</time>
      </trkpt>
      <trkpt lat="38.508846" lon="-0.691817">
        <ele>918</ele>
        <time>2019-04-21T07:52:38.000Z</time>
      </trkpt>
      <trkpt lat="38.508837" lon="-0.691844">
        <ele>918</ele>
        <time>2019-04-21T07:52:39.000Z</time>
      </trkpt>
      <trkpt lat="38.508828" lon="-0.69187">
        <ele>918</ele>
        <time>2019-04-21T07:52:40.000Z</time>
      </trkpt>
      <trkpt lat="38.508818" lon="-0.691897">
        <ele>918</ele>
        <time>2019-04-21T07:52:41.000Z</time>
      </trkpt>
      <trkpt lat="38.508808" lon="-0.691923">
        <ele>918</ele>
        <time>2019-04-21T07:52:42.000Z</time>
      </trkpt>
      <trkpt lat="38.508796" lon="-0.691949">
        <ele>918</ele>
        <time>2019-04-21T07:52:43.000Z</time>
      </trkpt>
      <trkpt lat="38.50878" lon="-0.691971">
        <ele>918</ele>
        <time>2019-04-21T07:52:44.000Z</time>
      </trkpt>
      <trkpt lat="38.508763" lon="-0.691996">
        <ele>918</ele>
        <time>2019-04-21T07:52:45.000Z</time>
      </trkpt>
      <trkpt lat="38.508747" lon="-0.692018">
        <ele>918</ele>
        <time>2019-04-21T07:52:46.000Z</time>
      </trkpt>
      <trkpt lat="38.508732" lon="-0.692042">
        <ele>917.824176442457</ele>
        <time>2019-04-21T07:52:47.000Z</time>
      </trkpt>
      <trkpt lat="38.508712" lon="-0.692062">
        <ele>917</ele>
        <time>2019-04-21T07:52:48.000Z</time>
      </trkpt>
      <trkpt lat="38.50869" lon="-0.692087">
        <ele>917</ele>
        <time>2019-04-21T07:52:49.000Z</time>
      </trkpt>
      <trkpt lat="38.50867" lon="-0.692113">
        <ele>917</ele>
        <time>2019-04-21T07:52:50.000Z</time>
      </trkpt>
      <trkpt lat="38.508653" lon="-0.692133">
        <ele>916.752477631612</ele>
        <time>2019-04-21T07:52:51.000Z</time>
      </trkpt>
      <trkpt lat="38.508635" lon="-0.692153">
        <ele>916</ele>
        <time>2019-04-21T07:52:52.000Z</time>
      </trkpt>
      <trkpt lat="38.508618" lon="-0.692172">
        <ele>916</ele>
        <time>2019-04-21T07:52:53.000Z</time>
      </trkpt>
      <trkpt lat="38.5086" lon="-0.692192">
        <ele>916</ele>
        <time>2019-04-21T07:52:54.000Z</time>
      </trkpt>
      <trkpt lat="38.508579" lon="-0.692206">
        <ele>916</ele>
        <time>2019-04-21T07:52:55.000Z</time>
      </trkpt>
      <trkpt lat="38.508555" lon="-0.692221">
        <ele>915.852276363636</ele>
        <time>2019-04-21T07:52:56.000Z</time>
      </trkpt>
      <trkpt lat="38.50853" lon="-0.692243">
        <ele>914.7500032</ele>
        <time>2019-04-21T07:52:57.000Z</time>
      </trkpt>
      <trkpt lat="38.508505" lon="-0.69226">
        <ele>914</ele>
        <time>2019-04-21T07:52:58.000Z</time>
      </trkpt>
      <trkpt lat="38.508482" lon="-0.692273">
        <ele>913.773201726026</ele>
        <time>2019-04-21T07:52:59.000Z</time>
      </trkpt>
      <trkpt lat="38.508457" lon="-0.692286">
        <ele>913</ele>
        <time>2019-04-21T07:53:00.000Z</time>
      </trkpt>
      <trkpt lat="38.508434" lon="-0.692303">
        <ele>913</ele>
        <time>2019-04-21T07:53:01.000Z</time>
      </trkpt>
      <trkpt lat="38.508413" lon="-0.692327">
        <ele>913</ele>
        <time>2019-04-21T07:53:02.000Z</time>
      </trkpt>
      <trkpt lat="38.508393" lon="-0.692347">
        <ele>913</ele>
        <time>2019-04-21T07:53:03.000Z</time>
      </trkpt>
      <trkpt lat="38.508371" lon="-0.692365">
        <ele>913</ele>
        <time>2019-04-21T07:53:04.000Z</time>
      </trkpt>
      <trkpt lat="38.508346" lon="-0.692381">
        <ele>913</ele>
        <time>2019-04-21T07:53:05.000Z</time>
      </trkpt>
      <trkpt lat="38.508321" lon="-0.6924">
        <ele>913</ele>
        <time>2019-04-21T07:53:06.000Z</time>
      </trkpt>
      <trkpt lat="38.508298" lon="-0.692422">
        <ele>913</ele>
        <time>2019-04-21T07:53:07.000Z</time>
      </trkpt>
      <trkpt lat="38.508276" lon="-0.692443">
        <ele>913</ele>
        <time>2019-04-21T07:53:08.000Z</time>
      </trkpt>
      <trkpt lat="38.508253" lon="-0.692464">
        <ele>913</ele>
        <time>2019-04-21T07:53:09.000Z</time>
      </trkpt>
      <trkpt lat="38.508231" lon="-0.692482">
        <ele>912.7500032</ele>
        <time>2019-04-21T07:53:10.000Z</time>
      </trkpt>
      <trkpt lat="38.508206" lon="-0.692499">
        <ele>912</ele>
        <time>2019-04-21T07:53:11.000Z</time>
      </trkpt>
      <trkpt lat="38.508184" lon="-0.692518">
        <ele>912</ele>
        <time>2019-04-21T07:53:12.000Z</time>
      </trkpt>
      <trkpt lat="38.508168" lon="-0.692542">
        <ele>912</ele>
        <time>2019-04-21T07:53:13.000Z</time>
      </trkpt>
      <trkpt lat="38.508176" lon="-0.692568">
        <ele>911.2499968</ele>
        <time>2019-04-21T07:53:22.000Z</time>
      </trkpt>
      <trkpt lat="38.508186" lon="-0.692587">
        <ele>911</ele>
        <time>2019-04-21T07:53:34.000Z</time>
      </trkpt>
      <trkpt lat="38.508201" lon="-0.69262">
        <ele>911</ele>
        <time>2019-04-21T07:53:37.000Z</time>
      </trkpt>
      <trkpt lat="38.508212" lon="-0.692641">
        <ele>911</ele>
        <time>2019-04-21T07:53:38.000Z</time>
      </trkpt>
      <trkpt lat="38.508223" lon="-0.692662">
        <ele>911</ele>
        <time>2019-04-21T07:53:39.000Z</time>
      </trkpt>
      <trkpt lat="38.508239" lon="-0.692696">
        <ele>911</ele>
        <time>2019-04-21T07:53:41.000Z</time>
      </trkpt>
      <trkpt lat="38.508249" lon="-0.692737">
        <ele>911</ele>
        <time>2019-04-21T07:53:43.000Z</time>
      </trkpt>
      <trkpt lat="38.508254" lon="-0.692764">
        <ele>911</ele>
        <time>2019-04-21T07:53:44.000Z</time>
      </trkpt>
      <trkpt lat="38.508263" lon="-0.692794">
        <ele>911</ele>
        <time>2019-04-21T07:53:45.000Z</time>
      </trkpt>
      <trkpt lat="38.508273" lon="-0.692822">
        <ele>910.757576541167</ele>
        <time>2019-04-21T07:53:46.000Z</time>
      </trkpt>
      <trkpt lat="38.508284" lon="-0.692852">
        <ele>910</ele>
        <time>2019-04-21T07:53:47.000Z</time>
      </trkpt>
      <trkpt lat="38.508297" lon="-0.692882">
        <ele>909.7500032</ele>
        <time>2019-04-21T07:53:48.000Z</time>
      </trkpt>
      <trkpt lat="38.508311" lon="-0.692905">
        <ele>908.7500032</ele>
        <time>2019-04-21T07:53:49.000Z</time>
      </trkpt>
      <trkpt lat="38.508331" lon="-0.692923">
        <ele>908</ele>
        <time>2019-04-21T07:53:50.000Z</time>
      </trkpt>
      <trkpt lat="38.50835" lon="-0.692938">
        <ele>908</ele>
        <time>2019-04-21T07:53:51.000Z</time>
      </trkpt>
      <trkpt lat="38.508368" lon="-0.692975">
        <ele>906.5000064</ele>
        <time>2019-04-21T07:53:53.000Z</time>
      </trkpt>
      <trkpt lat="38.508375" lon="-0.692998">
        <ele>904.7500032</ele>
        <time>2019-04-21T07:53:54.000Z</time>
      </trkpt>
      <trkpt lat="38.508384" lon="-0.693018">
        <ele>904</ele>
        <time>2019-04-21T07:53:55.000Z</time>
      </trkpt>
      <trkpt lat="38.508401" lon="-0.693044">
        <ele>904</ele>
        <time>2019-04-21T07:53:57.000Z</time>
      </trkpt>
      <trkpt lat="38.508404" lon="-0.693078">
        <ele>904</ele>
        <time>2019-04-21T07:53:59.000Z</time>
      </trkpt>
      <trkpt lat="38.50842" lon="-0.693116">
        <ele>903</ele>
        <time>2019-04-21T07:54:01.000Z</time>
      </trkpt>
      <trkpt lat="38.50842" lon="-0.693151">
        <ele>903</ele>
        <time>2019-04-21T07:54:03.000Z</time>
      </trkpt>
      <trkpt lat="38.508407" lon="-0.693181">
        <ele>902</ele>
        <time>2019-04-21T07:54:05.000Z</time>
      </trkpt>
      <trkpt lat="38.508384" lon="-0.693198">
        <ele>901.7500032</ele>
        <time>2019-04-21T07:54:07.000Z</time>
      </trkpt>
      <trkpt lat="38.508363" lon="-0.693217">
        <ele>900.807693822493</ele>
        <time>2019-04-21T07:54:09.000Z</time>
      </trkpt>
      <trkpt lat="38.508341" lon="-0.693231">
        <ele>900</ele>
        <time>2019-04-21T07:54:11.000Z</time>
      </trkpt>
      <trkpt lat="38.508322" lon="-0.69324">
        <ele>898.776788571429</ele>
        <time>2019-04-21T07:54:13.000Z</time>
      </trkpt>
      <trkpt lat="38.508293" lon="-0.693256">
        <ele>898</ele>
        <time>2019-04-21T07:54:15.000Z</time>
      </trkpt>
      <trkpt lat="38.50826" lon="-0.693278">
        <ele>897</ele>
        <time>2019-04-21T07:54:17.000Z</time>
      </trkpt>
      <trkpt lat="38.508243" lon="-0.693291">
        <ele>897</ele>
        <time>2019-04-21T07:54:18.000Z</time>
      </trkpt>
      <trkpt lat="38.508228" lon="-0.693308">
        <ele>897</ele>
        <time>2019-04-21T07:54:19.000Z</time>
      </trkpt>
      <trkpt lat="38.508211" lon="-0.693324">
        <ele>896.7500032</ele>
        <time>2019-04-21T07:54:20.000Z</time>
      </trkpt>
      <trkpt lat="38.508193" lon="-0.693345">
        <ele>896</ele>
        <time>2019-04-21T07:54:21.000Z</time>
      </trkpt>
      <trkpt lat="38.508179" lon="-0.693368">
        <ele>896</ele>
        <time>2019-04-21T07:54:22.000Z</time>
      </trkpt>
      <trkpt lat="38.508163" lon="-0.693391">
        <ele>896</ele>
        <time>2019-04-21T07:54:23.000Z</time>
      </trkpt>
      <trkpt lat="38.508148" lon="-0.693415">
        <ele>896</ele>
        <time>2019-04-21T07:54:24.000Z</time>
      </trkpt>
      <trkpt lat="38.508135" lon="-0.693439">
        <ele>896</ele>
        <time>2019-04-21T07:54:25.000Z</time>
      </trkpt>
      <trkpt lat="38.508126" lon="-0.693464">
        <ele>896</ele>
        <time>2019-04-21T07:54:26.000Z</time>
      </trkpt>
      <trkpt lat="38.508124" lon="-0.693492">
        <ele>896</ele>
        <time>2019-04-21T07:54:27.000Z</time>
      </trkpt>
      <trkpt lat="38.508121" lon="-0.693517">
        <ele>895.867768245338</ele>
        <time>2019-04-21T07:54:28.000Z</time>
      </trkpt>
      <trkpt lat="38.508114" lon="-0.693539">
        <ele>895.041319778697</ele>
        <time>2019-04-21T07:54:29.000Z</time>
      </trkpt>
      <trkpt lat="38.508104" lon="-0.69356">
        <ele>895</ele>
        <time>2019-04-21T07:54:30.000Z</time>
      </trkpt>
      <trkpt lat="38.508076" lon="-0.693584">
        <ele>894.7500032</ele>
        <time>2019-04-21T07:54:32.000Z</time>
      </trkpt>
      <trkpt lat="38.508059" lon="-0.693595">
        <ele>893.752477631612</ele>
        <time>2019-04-21T07:54:33.000Z</time>
      </trkpt>
      <trkpt lat="38.508043" lon="-0.693612">
        <ele>892.757576541167</ele>
        <time>2019-04-21T07:54:34.000Z</time>
      </trkpt>
      <trkpt lat="38.508028" lon="-0.693632">
        <ele>891.7500032</ele>
        <time>2019-04-21T07:54:35.000Z</time>
      </trkpt>
      <trkpt lat="38.508014" lon="-0.693653">
        <ele>891</ele>
        <time>2019-04-21T07:54:36.000Z</time>
      </trkpt>
      <trkpt lat="38.508004" lon="-0.693678">
        <ele>891</ele>
        <time>2019-04-21T07:54:37.000Z</time>
      </trkpt>
      <trkpt lat="38.507998" lon="-0.693705">
        <ele>890.7500032</ele>
        <time>2019-04-21T07:54:38.000Z</time>
      </trkpt>
      <trkpt lat="38.507993" lon="-0.69373">
        <ele>890</ele>
        <time>2019-04-21T07:54:39.000Z</time>
      </trkpt>
      <trkpt lat="38.507985" lon="-0.693754">
        <ele>889.7500032</ele>
        <time>2019-04-21T07:54:40.000Z</time>
      </trkpt>
      <trkpt lat="38.507978" lon="-0.693778">
        <ele>888.7500032</ele>
        <time>2019-04-21T07:54:41.000Z</time>
      </trkpt>
      <trkpt lat="38.507973" lon="-0.693802">
        <ele>888</ele>
        <time>2019-04-21T07:54:42.000Z</time>
      </trkpt>
      <trkpt lat="38.507965" lon="-0.693824">
        <ele>888</ele>
        <time>2019-04-21T07:54:43.000Z</time>
      </trkpt>
      <trkpt lat="38.507958" lon="-0.693846">
        <ele>888</ele>
        <time>2019-04-21T07:54:44.000Z</time>
      </trkpt>
      <trkpt lat="38.507951" lon="-0.693868">
        <ele>887.76415253828</ele>
        <time>2019-04-21T07:54:45.000Z</time>
      </trkpt>
      <trkpt lat="38.507941" lon="-0.693887">
        <ele>887</ele>
        <time>2019-04-21T07:54:46.000Z</time>
      </trkpt>
      <trkpt lat="38.507928" lon="-0.693907">
        <ele>887</ele>
        <time>2019-04-21T07:54:47.000Z</time>
      </trkpt>
      <trkpt lat="38.507917" lon="-0.693927">
        <ele>886.0499968</ele>
        <time>2019-04-21T07:54:48.000Z</time>
      </trkpt>
      <trkpt lat="38.507897" lon="-0.693966">
        <ele>885.757576541167</ele>
        <time>2019-04-21T07:54:50.000Z</time>
      </trkpt>
      <trkpt lat="38.507887" lon="-0.693989">
        <ele>885</ele>
        <time>2019-04-21T07:54:51.000Z</time>
      </trkpt>
      <trkpt lat="38.507873" lon="-0.694008">
        <ele>884.862069472848</ele>
        <time>2019-04-21T07:54:52.000Z</time>
      </trkpt>
      <trkpt lat="38.507857" lon="-0.694023">
        <ele>884</ele>
        <time>2019-04-21T07:54:53.000Z</time>
      </trkpt>
      <trkpt lat="38.507838" lon="-0.694035">
        <ele>884</ele>
        <time>2019-04-21T07:54:54.000Z</time>
      </trkpt>
      <trkpt lat="38.507822" lon="-0.694053">
        <ele>884</ele>
        <time>2019-04-21T07:54:55.000Z</time>
      </trkpt>
      <trkpt lat="38.507811" lon="-0.694074">
        <ele>883.754903560179</ele>
        <time>2019-04-21T07:54:56.000Z</time>
      </trkpt>
      <trkpt lat="38.5078" lon="-0.694096">
        <ele>882.765304389849</ele>
        <time>2019-04-21T07:54:57.000Z</time>
      </trkpt>
      <trkpt lat="38.507789" lon="-0.694117">
        <ele>882</ele>
        <time>2019-04-21T07:54:58.000Z</time>
      </trkpt>
      <trkpt lat="38.507778" lon="-0.694139">
        <ele>881.761907083907</ele>
        <time>2019-04-21T07:54:59.000Z</time>
      </trkpt>
      <trkpt lat="38.507764" lon="-0.694161">
        <ele>881</ele>
        <time>2019-04-21T07:55:00.000Z</time>
      </trkpt>
      <trkpt lat="38.507753" lon="-0.694186">
        <ele>881</ele>
        <time>2019-04-21T07:55:01.000Z</time>
      </trkpt>
      <trkpt lat="38.507743" lon="-0.694209">
        <ele>881</ele>
        <time>2019-04-21T07:55:02.000Z</time>
      </trkpt>
      <trkpt lat="38.507733" lon="-0.69423">
        <ele>881</ele>
        <time>2019-04-21T07:55:03.000Z</time>
      </trkpt>
      <trkpt lat="38.507713" lon="-0.694264">
        <ele>879.789474393349</ele>
        <time>2019-04-21T07:55:05.000Z</time>
      </trkpt>
      <trkpt lat="38.507702" lon="-0.694282">
        <ele>879</ele>
        <time>2019-04-21T07:55:06.000Z</time>
      </trkpt>
      <trkpt lat="38.507688" lon="-0.6943">
        <ele>879</ele>
        <time>2019-04-21T07:55:07.000Z</time>
      </trkpt>
      <trkpt lat="38.507673" lon="-0.694317">
        <ele>879</ele>
        <time>2019-04-21T07:55:08.000Z</time>
      </trkpt>
      <trkpt lat="38.507658" lon="-0.694334">
        <ele>879</ele>
        <time>2019-04-21T07:55:09.000Z</time>
      </trkpt>
      <trkpt lat="38.507644" lon="-0.694352">
        <ele>878.7500032</ele>
        <time>2019-04-21T07:55:10.000Z</time>
      </trkpt>
      <trkpt lat="38.507617" lon="-0.694367">
        <ele>878</ele>
        <time>2019-04-21T07:55:12.000Z</time>
      </trkpt>
      <trkpt lat="38.507584" lon="-0.694382">
        <ele>877.038459266261</ele>
        <time>2019-04-21T07:55:14.000Z</time>
      </trkpt>
      <trkpt lat="38.507559" lon="-0.694416">
        <ele>874.7500032</ele>
        <time>2019-04-21T07:55:16.000Z</time>
      </trkpt>
      <trkpt lat="38.507545" lon="-0.694436">
        <ele>874</ele>
        <time>2019-04-21T07:55:17.000Z</time>
      </trkpt>
      <trkpt lat="38.507525" lon="-0.69445">
        <ele>873.76415253828</ele>
        <time>2019-04-21T07:55:18.000Z</time>
      </trkpt>
      <trkpt lat="38.507505" lon="-0.694466">
        <ele>873</ele>
        <time>2019-04-21T07:55:19.000Z</time>
      </trkpt>
      <trkpt lat="38.507483" lon="-0.694478">
        <ele>873</ele>
        <time>2019-04-21T07:55:20.000Z</time>
      </trkpt>
      <trkpt lat="38.507461" lon="-0.694486">
        <ele>872.752477631612</ele>
        <time>2019-04-21T07:55:21.000Z</time>
      </trkpt>
      <trkpt lat="38.507437" lon="-0.694484">
        <ele>872</ele>
        <time>2019-04-21T07:55:22.000Z</time>
      </trkpt>
      <trkpt lat="38.507413" lon="-0.694486">
        <ele>871.7500032</ele>
        <time>2019-04-21T07:55:23.000Z</time>
      </trkpt>
      <trkpt lat="38.507391" lon="-0.694497">
        <ele>871</ele>
        <time>2019-04-21T07:55:24.000Z</time>
      </trkpt>
      <trkpt lat="38.507372" lon="-0.694512">
        <ele>870.807693822493</ele>
        <time>2019-04-21T07:55:25.000Z</time>
      </trkpt>
      <trkpt lat="38.507354" lon="-0.694528">
        <ele>870.038459266261</ele>
        <time>2019-04-21T07:55:26.000Z</time>
      </trkpt>
      <trkpt lat="38.507338" lon="-0.694545">
        <ele>870</ele>
        <time>2019-04-21T07:55:27.000Z</time>
      </trkpt>
      <trkpt lat="38.507319" lon="-0.694562">
        <ele>870</ele>
        <time>2019-04-21T07:55:28.000Z</time>
      </trkpt>
      <trkpt lat="38.5073" lon="-0.694578">
        <ele>869.7500032</ele>
        <time>2019-04-21T07:55:29.000Z</time>
      </trkpt>
      <trkpt lat="38.507284" lon="-0.694594">
        <ele>869</ele>
        <time>2019-04-21T07:55:30.000Z</time>
      </trkpt>
      <trkpt lat="38.507266" lon="-0.69461">
        <ele>868.789474393349</ele>
        <time>2019-04-21T07:55:31.000Z</time>
      </trkpt>
      <trkpt lat="38.50725" lon="-0.694628">
        <ele>868</ele>
        <time>2019-04-21T07:55:32.000Z</time>
      </trkpt>
      <trkpt lat="38.507233" lon="-0.694645">
        <ele>868</ele>
        <time>2019-04-21T07:55:33.000Z</time>
      </trkpt>
      <trkpt lat="38.507217" lon="-0.694664">
        <ele>868</ele>
        <time>2019-04-21T07:55:34.000Z</time>
      </trkpt>
      <trkpt lat="38.507203" lon="-0.694678">
        <ele>867.761907083907</ele>
        <time>2019-04-21T07:55:35.000Z</time>
      </trkpt>
      <trkpt lat="38.507178" lon="-0.694703">
        <ele>867</ele>
        <time>2019-04-21T07:55:37.000Z</time>
      </trkpt>
      <trkpt lat="38.50715" lon="-0.694718">
        <ele>866</ele>
        <time>2019-04-21T07:55:39.000Z</time>
      </trkpt>
      <trkpt lat="38.507133" lon="-0.694728">
        <ele>865.7500032</ele>
        <time>2019-04-21T07:55:40.000Z</time>
      </trkpt>
      <trkpt lat="38.507103" lon="-0.694742">
        <ele>863.824176442457</ele>
        <time>2019-04-21T07:55:42.000Z</time>
      </trkpt>
      <trkpt lat="38.507073" lon="-0.694764">
        <ele>862.807693822493</ele>
        <time>2019-04-21T07:55:44.000Z</time>
      </trkpt>
      <trkpt lat="38.507057" lon="-0.694774">
        <ele>862.038459266261</ele>
        <time>2019-04-21T07:55:45.000Z</time>
      </trkpt>
      <trkpt lat="38.507023" lon="-0.694792">
        <ele>860.824176442457</ele>
        <time>2019-04-21T07:55:47.000Z</time>
      </trkpt>
      <trkpt lat="38.507004" lon="-0.694796">
        <ele>859.7500032</ele>
        <time>2019-04-21T07:55:48.000Z</time>
      </trkpt>
      <trkpt lat="38.50697" lon="-0.694804">
        <ele>859</ele>
        <time>2019-04-21T07:55:50.000Z</time>
      </trkpt>
      <trkpt lat="38.506951" lon="-0.694806">
        <ele>858.770644464277</ele>
        <time>2019-04-21T07:55:51.000Z</time>
      </trkpt>
      <trkpt lat="38.506933" lon="-0.69481">
        <ele>858</ele>
        <time>2019-04-21T07:55:52.000Z</time>
      </trkpt>
      <trkpt lat="38.506914" lon="-0.694816">
        <ele>857.7500032</ele>
        <time>2019-04-21T07:55:53.000Z</time>
      </trkpt>
      <trkpt lat="38.506895" lon="-0.694822">
        <ele>857</ele>
        <time>2019-04-21T07:55:54.000Z</time>
      </trkpt>
      <trkpt lat="38.506873" lon="-0.694826">
        <ele>856.7500032</ele>
        <time>2019-04-21T07:55:55.000Z</time>
      </trkpt>
      <trkpt lat="38.506853" lon="-0.694828">
        <ele>855.7500032</ele>
        <time>2019-04-21T07:55:56.000Z</time>
      </trkpt>
      <trkpt lat="38.506832" lon="-0.694827">
        <ele>855</ele>
        <time>2019-04-21T07:55:57.000Z</time>
      </trkpt>
      <trkpt lat="38.50681" lon="-0.694824">
        <ele>854.7500032</ele>
        <time>2019-04-21T07:55:58.000Z</time>
      </trkpt>
      <trkpt lat="38.506788" lon="-0.694815">
        <ele>854</ele>
        <time>2019-04-21T07:55:59.000Z</time>
      </trkpt>
      <trkpt lat="38.506767" lon="-0.694808">
        <ele>854</ele>
        <time>2019-04-21T07:56:00.000Z</time>
      </trkpt>
      <trkpt lat="38.506746" lon="-0.694807">
        <ele>854</ele>
        <time>2019-04-21T07:56:01.000Z</time>
      </trkpt>
      <trkpt lat="38.506727" lon="-0.69481">
        <ele>854</ele>
        <time>2019-04-21T07:56:02.000Z</time>
      </trkpt>
      <trkpt lat="38.506702" lon="-0.694831">
        <ele>854</ele>
        <time>2019-04-21T07:56:04.000Z</time>
      </trkpt>
      <trkpt lat="38.506688" lon="-0.694851">
        <ele>852</ele>
        <time>2019-04-21T07:56:09.000Z</time>
      </trkpt>
      <trkpt lat="38.506675" lon="-0.694871">
        <ele>852</ele>
        <time>2019-04-21T07:56:11.000Z</time>
      </trkpt>
      <trkpt lat="38.506668" lon="-0.694893">
        <ele>853</ele>
        <time>2019-04-21T07:56:13.000Z</time>
      </trkpt>
      <trkpt lat="38.506682" lon="-0.69491">
        <ele>852</ele>
        <time>2019-04-21T07:56:50.000Z</time>
      </trkpt>
      <trkpt lat="38.5067" lon="-0.694913">
        <ele>852</ele>
        <time>2019-04-21T07:57:31.000Z</time>
      </trkpt>
      <trkpt lat="38.506721" lon="-0.694934">
        <ele>853.754903560179</ele>
        <time>2019-04-21T07:57:55.000Z</time>
      </trkpt>
      <trkpt lat="38.50674" lon="-0.694964">
        <ele>853</ele>
        <time>2019-04-21T07:57:57.000Z</time>
      </trkpt>
      <trkpt lat="38.506745" lon="-0.694987">
        <ele>853</ele>
        <time>2019-04-21T07:57:58.000Z</time>
      </trkpt>
      <trkpt lat="38.506753" lon="-0.69501">
        <ele>853</ele>
        <time>2019-04-21T07:57:59.000Z</time>
      </trkpt>
      <trkpt lat="38.506765" lon="-0.695029">
        <ele>853.137930527152</ele>
        <time>2019-04-21T07:58:00.000Z</time>
      </trkpt>
      <trkpt lat="38.506774" lon="-0.695048">
        <ele>854</ele>
        <time>2019-04-21T07:58:01.000Z</time>
      </trkpt>
      <trkpt lat="38.506792" lon="-0.695085">
        <ele>855</ele>
        <time>2019-04-21T07:58:03.000Z</time>
      </trkpt>
      <trkpt lat="38.506798" lon="-0.695107">
        <ele>855</ele>
        <time>2019-04-21T07:58:04.000Z</time>
      </trkpt>
      <trkpt lat="38.506806" lon="-0.695129">
        <ele>855</ele>
        <time>2019-04-21T07:58:05.000Z</time>
      </trkpt>
      <trkpt lat="38.506814" lon="-0.695153">
        <ele>855</ele>
        <time>2019-04-21T07:58:06.000Z</time>
      </trkpt>
      <trkpt lat="38.506822" lon="-0.695177">
        <ele>855.240381538462</ele>
        <time>2019-04-21T07:58:07.000Z</time>
      </trkpt>
      <trkpt lat="38.506827" lon="-0.695204">
        <ele>856</ele>
        <time>2019-04-21T07:58:08.000Z</time>
      </trkpt>
      <trkpt lat="38.506831" lon="-0.695233">
        <ele>856</ele>
        <time>2019-04-21T07:58:09.000Z</time>
      </trkpt>
      <trkpt lat="38.506834" lon="-0.695262">
        <ele>856</ele>
        <time>2019-04-21T07:58:10.000Z</time>
      </trkpt>
      <trkpt lat="38.506837" lon="-0.695289">
        <ele>856</ele>
        <time>2019-04-21T07:58:11.000Z</time>
      </trkpt>
      <trkpt lat="38.506839" lon="-0.695316">
        <ele>856</ele>
        <time>2019-04-21T07:58:12.000Z</time>
      </trkpt>
      <trkpt lat="38.506837" lon="-0.695343">
        <ele>856</ele>
        <time>2019-04-21T07:58:13.000Z</time>
      </trkpt>
      <trkpt lat="38.506836" lon="-0.695368">
        <ele>856</ele>
        <time>2019-04-21T07:58:14.000Z</time>
      </trkpt>
      <trkpt lat="38.50684" lon="-0.695392">
        <ele>856</ele>
        <time>2019-04-21T07:58:15.000Z</time>
      </trkpt>
      <trkpt lat="38.506845" lon="-0.695415">
        <ele>856</ele>
        <time>2019-04-21T07:58:16.000Z</time>
      </trkpt>
      <trkpt lat="38.506851" lon="-0.695442">
        <ele>856</ele>
        <time>2019-04-21T07:58:17.000Z</time>
      </trkpt>
      <trkpt lat="38.506858" lon="-0.695469">
        <ele>857</ele>
        <time>2019-04-21T07:58:18.000Z</time>
      </trkpt>
      <trkpt lat="38.506864" lon="-0.695494">
        <ele>857</ele>
        <time>2019-04-21T07:58:19.000Z</time>
      </trkpt>
      <trkpt lat="38.506872" lon="-0.695518">
        <ele>857</ele>
        <time>2019-04-21T07:58:20.000Z</time>
      </trkpt>
      <trkpt lat="38.506882" lon="-0.695544">
        <ele>857.242423458833</ele>
        <time>2019-04-21T07:58:21.000Z</time>
      </trkpt>
      <trkpt lat="38.506891" lon="-0.695569">
        <ele>858</ele>
        <time>2019-04-21T07:58:22.000Z</time>
      </trkpt>
      <trkpt lat="38.506901" lon="-0.695595">
        <ele>858</ele>
        <time>2019-04-21T07:58:23.000Z</time>
      </trkpt>
      <trkpt lat="38.50691" lon="-0.695625">
        <ele>858</ele>
        <time>2019-04-21T07:58:24.000Z</time>
      </trkpt>
      <trkpt lat="38.506916" lon="-0.695646">
        <ele>858</ele>
        <time>2019-04-21T07:58:25.000Z</time>
      </trkpt>
      <trkpt lat="38.506938" lon="-0.695682">
        <ele>858</ele>
        <time>2019-04-21T07:58:29.000Z</time>
      </trkpt>
      <trkpt lat="38.506952" lon="-0.695705">
        <ele>858</ele>
        <time>2019-04-21T07:58:30.000Z</time>
      </trkpt>
      <trkpt lat="38.506969" lon="-0.695726">
        <ele>858.2499968</ele>
        <time>2019-04-21T07:58:31.000Z</time>
      </trkpt>
      <trkpt lat="38.506984" lon="-0.695747">
        <ele>859</ele>
        <time>2019-04-21T07:58:32.000Z</time>
      </trkpt>
      <trkpt lat="38.506999" lon="-0.695764">
        <ele>858.773201726026</ele>
        <time>2019-04-21T07:58:33.000Z</time>
      </trkpt>
      <trkpt lat="38.507017" lon="-0.695778">
        <ele>858</ele>
        <time>2019-04-21T07:58:34.000Z</time>
      </trkpt>
      <trkpt lat="38.507037" lon="-0.695795">
        <ele>858</ele>
        <time>2019-04-21T07:58:35.000Z</time>
      </trkpt>
      <trkpt lat="38.507053" lon="-0.695811">
        <ele>858</ele>
        <time>2019-04-21T07:58:36.000Z</time>
      </trkpt>
      <trkpt lat="38.50707" lon="-0.695827">
        <ele>858</ele>
        <time>2019-04-21T07:58:37.000Z</time>
      </trkpt>
      <trkpt lat="38.507087" lon="-0.695839">
        <ele>858</ele>
        <time>2019-04-21T07:58:38.000Z</time>
      </trkpt>
      <trkpt lat="38.507106" lon="-0.695853">
        <ele>858</ele>
        <time>2019-04-21T07:58:39.000Z</time>
      </trkpt>
      <trkpt lat="38.507126" lon="-0.695865">
        <ele>858</ele>
        <time>2019-04-21T07:58:40.000Z</time>
      </trkpt>
      <trkpt lat="38.507146" lon="-0.695878">
        <ele>858</ele>
        <time>2019-04-21T07:58:41.000Z</time>
      </trkpt>
      <trkpt lat="38.507167" lon="-0.695888">
        <ele>858</ele>
        <time>2019-04-21T07:58:42.000Z</time>
      </trkpt>
      <trkpt lat="38.507189" lon="-0.695895">
        <ele>858.175823557543</ele>
        <time>2019-04-21T07:58:43.000Z</time>
      </trkpt>
      <trkpt lat="38.507211" lon="-0.695902">
        <ele>859</ele>
        <time>2019-04-21T07:58:44.000Z</time>
      </trkpt>
      <trkpt lat="38.507233" lon="-0.695906">
        <ele>859</ele>
        <time>2019-04-21T07:58:45.000Z</time>
      </trkpt>
      <trkpt lat="38.507256" lon="-0.695911">
        <ele>859</ele>
        <time>2019-04-21T07:58:46.000Z</time>
      </trkpt>
      <trkpt lat="38.50728" lon="-0.695914">
        <ele>859</ele>
        <time>2019-04-21T07:58:47.000Z</time>
      </trkpt>
      <trkpt lat="38.507304" lon="-0.695914">
        <ele>859.175823557543</ele>
        <time>2019-04-21T07:58:48.000Z</time>
      </trkpt>
      <trkpt lat="38.507328" lon="-0.695916">
        <ele>860</ele>
        <time>2019-04-21T07:58:49.000Z</time>
      </trkpt>
      <trkpt lat="38.507353" lon="-0.695913">
        <ele>860</ele>
        <time>2019-04-21T07:58:50.000Z</time>
      </trkpt>
      <trkpt lat="38.507375" lon="-0.695916">
        <ele>860</ele>
        <time>2019-04-21T07:58:51.000Z</time>
      </trkpt>
      <trkpt lat="38.507398" lon="-0.695912">
        <ele>860</ele>
        <time>2019-04-21T07:58:52.000Z</time>
      </trkpt>
      <trkpt lat="38.507422" lon="-0.695907">
        <ele>860</ele>
        <time>2019-04-21T07:58:53.000Z</time>
      </trkpt>
      <trkpt lat="38.507446" lon="-0.695908">
        <ele>860</ele>
        <time>2019-04-21T07:58:54.000Z</time>
      </trkpt>
      <trkpt lat="38.507468" lon="-0.69591">
        <ele>860</ele>
        <time>2019-04-21T07:58:55.000Z</time>
      </trkpt>
      <trkpt lat="38.507491" lon="-0.695909">
        <ele>860</ele>
        <time>2019-04-21T07:58:56.000Z</time>
      </trkpt>
      <trkpt lat="38.507512" lon="-0.69591">
        <ele>860.137930527152</ele>
        <time>2019-04-21T07:58:57.000Z</time>
      </trkpt>
      <trkpt lat="38.507533" lon="-0.69591">
        <ele>861.2499968</ele>
        <time>2019-04-21T07:58:58.000Z</time>
      </trkpt>
      <trkpt lat="38.507552" lon="-0.695911">
        <ele>862</ele>
        <time>2019-04-21T07:58:59.000Z</time>
      </trkpt>
      <trkpt lat="38.507571" lon="-0.695911">
        <ele>862</ele>
        <time>2019-04-21T07:59:00.000Z</time>
      </trkpt>
      <trkpt lat="38.507589" lon="-0.695907">
        <ele>862</ele>
        <time>2019-04-21T07:59:01.000Z</time>
      </trkpt>
      <trkpt lat="38.507607" lon="-0.6959">
        <ele>862</ele>
        <time>2019-04-21T07:59:02.000Z</time>
      </trkpt>
      <trkpt lat="38.507626" lon="-0.695895">
        <ele>863</ele>
        <time>2019-04-21T07:59:03.000Z</time>
      </trkpt>
      <trkpt lat="38.507648" lon="-0.695892">
        <ele>863</ele>
        <time>2019-04-21T07:59:04.000Z</time>
      </trkpt>
      <trkpt lat="38.507671" lon="-0.695884">
        <ele>863.210525606651</ele>
        <time>2019-04-21T07:59:05.000Z</time>
      </trkpt>
      <trkpt lat="38.507692" lon="-0.695872">
        <ele>864</ele>
        <time>2019-04-21T07:59:06.000Z</time>
      </trkpt>
      <trkpt lat="38.507715" lon="-0.695864">
        <ele>864</ele>
        <time>2019-04-21T07:59:07.000Z</time>
      </trkpt>
      <trkpt lat="38.507735" lon="-0.695858">
        <ele>864.2499968</ele>
        <time>2019-04-21T07:59:08.000Z</time>
      </trkpt>
      <trkpt lat="38.507751" lon="-0.695846">
        <ele>865</ele>
        <time>2019-04-21T07:59:09.000Z</time>
      </trkpt>
      <trkpt lat="38.507765" lon="-0.695827">
        <ele>865</ele>
        <time>2019-04-21T07:59:10.000Z</time>
      </trkpt>
      <trkpt lat="38.507777" lon="-0.695807">
        <ele>865</ele>
        <time>2019-04-21T07:59:11.000Z</time>
      </trkpt>
      <trkpt lat="38.507789" lon="-0.695787">
        <ele>865</ele>
        <time>2019-04-21T07:59:12.000Z</time>
      </trkpt>
      <trkpt lat="38.507802" lon="-0.695768">
        <ele>865</ele>
        <time>2019-04-21T07:59:13.000Z</time>
      </trkpt>
      <trkpt lat="38.507818" lon="-0.695754">
        <ele>865</ele>
        <time>2019-04-21T07:59:14.000Z</time>
      </trkpt>
      <trkpt lat="38.507833" lon="-0.695737">
        <ele>865</ele>
        <time>2019-04-21T07:59:15.000Z</time>
      </trkpt>
      <trkpt lat="38.507846" lon="-0.695718">
        <ele>865</ele>
        <time>2019-04-21T07:59:16.000Z</time>
      </trkpt>
      <trkpt lat="38.507867" lon="-0.69568">
        <ele>866</ele>
        <time>2019-04-21T07:59:18.000Z</time>
      </trkpt>
      <trkpt lat="38.507877" lon="-0.695652">
        <ele>866.2499968</ele>
        <time>2019-04-21T07:59:19.000Z</time>
      </trkpt>
      <trkpt lat="38.507886" lon="-0.695627">
        <ele>867</ele>
        <time>2019-04-21T07:59:20.000Z</time>
      </trkpt>
      <trkpt lat="38.507892" lon="-0.6956">
        <ele>867</ele>
        <time>2019-04-21T07:59:21.000Z</time>
      </trkpt>
      <trkpt lat="38.507896" lon="-0.69557">
        <ele>867</ele>
        <time>2019-04-21T07:59:22.000Z</time>
      </trkpt>
      <trkpt lat="38.507899" lon="-0.695538">
        <ele>867</ele>
        <time>2019-04-21T07:59:23.000Z</time>
      </trkpt>
      <trkpt lat="38.507904" lon="-0.695507">
        <ele>867</ele>
        <time>2019-04-21T07:59:24.000Z</time>
      </trkpt>
      <trkpt lat="38.507909" lon="-0.695481">
        <ele>867</ele>
        <time>2019-04-21T07:59:25.000Z</time>
      </trkpt>
      <trkpt lat="38.507913" lon="-0.695456">
        <ele>867</ele>
        <time>2019-04-21T07:59:26.000Z</time>
      </trkpt>
      <trkpt lat="38.507917" lon="-0.695434">
        <ele>867</ele>
        <time>2019-04-21T07:59:27.000Z</time>
      </trkpt>
      <trkpt lat="38.507926" lon="-0.69541">
        <ele>867.247522368388</ele>
        <time>2019-04-21T07:59:28.000Z</time>
      </trkpt>
      <trkpt lat="38.507937" lon="-0.695386">
        <ele>868</ele>
        <time>2019-04-21T07:59:29.000Z</time>
      </trkpt>
      <trkpt lat="38.507951" lon="-0.695365">
        <ele>868</ele>
        <time>2019-04-21T07:59:30.000Z</time>
      </trkpt>
      <trkpt lat="38.507964" lon="-0.695349">
        <ele>868</ele>
        <time>2019-04-21T07:59:31.000Z</time>
      </trkpt>
      <trkpt lat="38.507997" lon="-0.69533">
        <ele>868</ele>
        <time>2019-04-21T07:59:33.000Z</time>
      </trkpt>
      <trkpt lat="38.508017" lon="-0.695327">
        <ele>869</ele>
        <time>2019-04-21T07:59:34.000Z</time>
      </trkpt>
      <trkpt lat="38.508036" lon="-0.695331">
        <ele>869</ele>
        <time>2019-04-21T07:59:35.000Z</time>
      </trkpt>
      <trkpt lat="38.508057" lon="-0.695335">
        <ele>869</ele>
        <time>2019-04-21T07:59:36.000Z</time>
      </trkpt>
      <trkpt lat="38.508076" lon="-0.695342">
        <ele>869</ele>
        <time>2019-04-21T07:59:37.000Z</time>
      </trkpt>
      <trkpt lat="38.508099" lon="-0.695382">
        <ele>869</ele>
        <time>2019-04-21T07:59:39.000Z</time>
      </trkpt>
      <trkpt lat="38.508112" lon="-0.695404">
        <ele>869.175823557543</ele>
        <time>2019-04-21T07:59:40.000Z</time>
      </trkpt>
      <trkpt lat="38.508129" lon="-0.695419">
        <ele>870.2499968</ele>
        <time>2019-04-21T07:59:41.000Z</time>
      </trkpt>
      <trkpt lat="38.508147" lon="-0.695429">
        <ele>871</ele>
        <time>2019-04-21T07:59:42.000Z</time>
      </trkpt>
      <trkpt lat="38.508168" lon="-0.695437">
        <ele>871</ele>
        <time>2019-04-21T07:59:43.000Z</time>
      </trkpt>
      <trkpt lat="38.508187" lon="-0.695444">
        <ele>871.231478518519</ele>
        <time>2019-04-21T07:59:44.000Z</time>
      </trkpt>
      <trkpt lat="38.508207" lon="-0.695451">
        <ele>872</ele>
        <time>2019-04-21T07:59:45.000Z</time>
      </trkpt>
      <trkpt lat="38.508227" lon="-0.695455">
        <ele>872</ele>
        <time>2019-04-21T07:59:46.000Z</time>
      </trkpt>
      <trkpt lat="38.508252" lon="-0.695454">
        <ele>872</ele>
        <time>2019-04-21T07:59:47.000Z</time>
      </trkpt>
      <trkpt lat="38.508276" lon="-0.695452">
        <ele>872</ele>
        <time>2019-04-21T07:59:48.000Z</time>
      </trkpt>
      <trkpt lat="38.508301" lon="-0.695452">
        <ele>872</ele>
        <time>2019-04-21T07:59:49.000Z</time>
      </trkpt>
      <trkpt lat="38.508321" lon="-0.695453">
        <ele>872</ele>
        <time>2019-04-21T07:59:50.000Z</time>
      </trkpt>
      <trkpt lat="38.508343" lon="-0.695455">
        <ele>872</ele>
        <time>2019-04-21T07:59:51.000Z</time>
      </trkpt>
      <trkpt lat="38.508363" lon="-0.695457">
        <ele>872</ele>
        <time>2019-04-21T07:59:52.000Z</time>
      </trkpt>
      <trkpt lat="38.508385" lon="-0.69546">
        <ele>872</ele>
        <time>2019-04-21T07:59:53.000Z</time>
      </trkpt>
      <trkpt lat="38.508406" lon="-0.695456">
        <ele>872</ele>
        <time>2019-04-21T07:59:54.000Z</time>
      </trkpt>
      <trkpt lat="38.50843" lon="-0.695453">
        <ele>872</ele>
        <time>2019-04-21T07:59:55.000Z</time>
      </trkpt>
      <trkpt lat="38.50845" lon="-0.695452">
        <ele>872</ele>
        <time>2019-04-21T07:59:56.000Z</time>
      </trkpt>
      <trkpt lat="38.508488" lon="-0.695451">
        <ele>873</ele>
        <time>2019-04-21T07:59:58.000Z</time>
      </trkpt>
      <trkpt lat="38.50851" lon="-0.695443">
        <ele>873</ele>
        <time>2019-04-21T07:59:59.000Z</time>
      </trkpt>
      <trkpt lat="38.508528" lon="-0.695436">
        <ele>873</ele>
        <time>2019-04-21T08:00:00.000Z</time>
      </trkpt>
      <trkpt lat="38.508548" lon="-0.695427">
        <ele>873</ele>
        <time>2019-04-21T08:00:01.000Z</time>
      </trkpt>
      <trkpt lat="38.508571" lon="-0.695424">
        <ele>873</ele>
        <time>2019-04-21T08:00:02.000Z</time>
      </trkpt>
      <trkpt lat="38.50859" lon="-0.695424">
        <ele>873.234695610151</ele>
        <time>2019-04-21T08:00:03.000Z</time>
      </trkpt>
      <trkpt lat="38.508608" lon="-0.695423">
        <ele>874.227271140487</ele>
        <time>2019-04-21T08:00:04.000Z</time>
      </trkpt>
      <trkpt lat="38.508628" lon="-0.69542">
        <ele>875</ele>
        <time>2019-04-21T08:00:05.000Z</time>
      </trkpt>
      <trkpt lat="38.508648" lon="-0.695418">
        <ele>875</ele>
        <time>2019-04-21T08:00:06.000Z</time>
      </trkpt>
      <trkpt lat="38.50867" lon="-0.695409">
        <ele>875</ele>
        <time>2019-04-21T08:00:07.000Z</time>
      </trkpt>
      <trkpt lat="38.50869" lon="-0.695402">
        <ele>875</ele>
        <time>2019-04-21T08:00:08.000Z</time>
      </trkpt>
      <trkpt lat="38.508712" lon="-0.695393">
        <ele>875</ele>
        <time>2019-04-21T08:00:09.000Z</time>
      </trkpt>
      <trkpt lat="38.508736" lon="-0.69539">
        <ele>875</ele>
        <time>2019-04-21T08:00:10.000Z</time>
      </trkpt>
      <trkpt lat="38.508758" lon="-0.695386">
        <ele>875</ele>
        <time>2019-04-21T08:00:11.000Z</time>
      </trkpt>
      <trkpt lat="38.508778" lon="-0.695382">
        <ele>875</ele>
        <time>2019-04-21T08:00:12.000Z</time>
      </trkpt>
      <trkpt lat="38.508798" lon="-0.695374">
        <ele>875</ele>
        <time>2019-04-21T08:00:13.000Z</time>
      </trkpt>
      <trkpt lat="38.508814" lon="-0.695364">
        <ele>875</ele>
        <time>2019-04-21T08:00:14.000Z</time>
      </trkpt>
      <trkpt lat="38.508832" lon="-0.695357">
        <ele>875</ele>
        <time>2019-04-21T08:00:15.000Z</time>
      </trkpt>
      <trkpt lat="38.508852" lon="-0.695349">
        <ele>875</ele>
        <time>2019-04-21T08:00:16.000Z</time>
      </trkpt>
      <trkpt lat="38.508874" lon="-0.695345">
        <ele>875.221236732706</ele>
        <time>2019-04-21T08:00:17.000Z</time>
      </trkpt>
      <trkpt lat="38.508894" lon="-0.695349">
        <ele>876</ele>
        <time>2019-04-21T08:00:18.000Z</time>
      </trkpt>
      <trkpt lat="38.508912" lon="-0.695357">
        <ele>876</ele>
        <time>2019-04-21T08:00:19.000Z</time>
      </trkpt>
      <trkpt lat="38.508928" lon="-0.695369">
        <ele>876</ele>
        <time>2019-04-21T08:00:20.000Z</time>
      </trkpt>
      <trkpt lat="38.508948" lon="-0.695402">
        <ele>876.9375</ele>
        <time>2019-04-21T08:00:22.000Z</time>
      </trkpt>
      <trkpt lat="38.508952" lon="-0.695425">
        <ele>877</ele>
        <time>2019-04-21T08:00:23.000Z</time>
      </trkpt>
      <trkpt lat="38.508948" lon="-0.695448">
        <ele>877.2499968</ele>
        <time>2019-04-21T08:00:24.000Z</time>
      </trkpt>
      <trkpt lat="38.508944" lon="-0.695473">
        <ele>878</ele>
        <time>2019-04-21T08:00:25.000Z</time>
      </trkpt>
      <trkpt lat="38.508938" lon="-0.695498">
        <ele>878</ele>
        <time>2019-04-21T08:00:26.000Z</time>
      </trkpt>
      <trkpt lat="38.508928" lon="-0.695518">
        <ele>878</ele>
        <time>2019-04-21T08:00:27.000Z</time>
      </trkpt>
      <trkpt lat="38.508904" lon="-0.695554">
        <ele>878</ele>
        <time>2019-04-21T08:00:29.000Z</time>
      </trkpt>
      <trkpt lat="38.50888" lon="-0.695583">
        <ele>878</ele>
        <time>2019-04-21T08:00:31.000Z</time>
      </trkpt>
      <trkpt lat="38.508856" lon="-0.695624">
        <ele>878</ele>
        <time>2019-04-21T08:00:33.000Z</time>
      </trkpt>
      <trkpt lat="38.508844" lon="-0.695646">
        <ele>878</ele>
        <time>2019-04-21T08:00:34.000Z</time>
      </trkpt>
      <trkpt lat="38.50883" lon="-0.695668">
        <ele>878</ele>
        <time>2019-04-21T08:00:35.000Z</time>
      </trkpt>
      <trkpt lat="38.508821" lon="-0.695691">
        <ele>878</ele>
        <time>2019-04-21T08:00:36.000Z</time>
      </trkpt>
      <trkpt lat="38.508814" lon="-0.695717">
        <ele>878</ele>
        <time>2019-04-21T08:00:37.000Z</time>
      </trkpt>
      <trkpt lat="38.508812" lon="-0.695744">
        <ele>878.225221693055</ele>
        <time>2019-04-21T08:00:38.000Z</time>
      </trkpt>
      <trkpt lat="38.508814" lon="-0.695774">
        <ele>879</ele>
        <time>2019-04-21T08:00:39.000Z</time>
      </trkpt>
      <trkpt lat="38.508817" lon="-0.695802">
        <ele>879</ele>
        <time>2019-04-21T08:00:40.000Z</time>
      </trkpt>
      <trkpt lat="38.508821" lon="-0.69583">
        <ele>879</ele>
        <time>2019-04-21T08:00:41.000Z</time>
      </trkpt>
      <trkpt lat="38.508828" lon="-0.695859">
        <ele>879.137930527152</ele>
        <time>2019-04-21T08:00:42.000Z</time>
      </trkpt>
      <trkpt lat="38.508838" lon="-0.695888">
        <ele>880</ele>
        <time>2019-04-21T08:00:43.000Z</time>
      </trkpt>
      <trkpt lat="38.508848" lon="-0.695914">
        <ele>880</ele>
        <time>2019-04-21T08:00:44.000Z</time>
      </trkpt>
      <trkpt lat="38.508864" lon="-0.695937">
        <ele>880</ele>
        <time>2019-04-21T08:00:45.000Z</time>
      </trkpt>
      <trkpt lat="38.508882" lon="-0.695958">
        <ele>880</ele>
        <time>2019-04-21T08:00:46.000Z</time>
      </trkpt>
      <trkpt lat="38.508899" lon="-0.695977">
        <ele>880.137930527152</ele>
        <time>2019-04-21T08:00:47.000Z</time>
      </trkpt>
      <trkpt lat="38.50891" lon="-0.696">
        <ele>881</ele>
        <time>2019-04-21T08:00:48.000Z</time>
      </trkpt>
      <trkpt lat="38.508916" lon="-0.696025">
        <ele>881</ele>
        <time>2019-04-21T08:00:49.000Z</time>
      </trkpt>
      <trkpt lat="38.508918" lon="-0.696053">
        <ele>881</ele>
        <time>2019-04-21T08:00:50.000Z</time>
      </trkpt>
      <trkpt lat="38.50892" lon="-0.69608">
        <ele>881</ele>
        <time>2019-04-21T08:00:51.000Z</time>
      </trkpt>
      <trkpt lat="38.508922" lon="-0.696108">
        <ele>881</ele>
        <time>2019-04-21T08:00:52.000Z</time>
      </trkpt>
      <trkpt lat="38.508924" lon="-0.696135">
        <ele>881</ele>
        <time>2019-04-21T08:00:53.000Z</time>
      </trkpt>
      <trkpt lat="38.508926" lon="-0.696164">
        <ele>881</ele>
        <time>2019-04-21T08:00:54.000Z</time>
      </trkpt>
      <trkpt lat="38.508924" lon="-0.696189">
        <ele>881</ele>
        <time>2019-04-21T08:00:55.000Z</time>
      </trkpt>
      <trkpt lat="38.508918" lon="-0.696213">
        <ele>881</ele>
        <time>2019-04-21T08:00:56.000Z</time>
      </trkpt>
      <trkpt lat="38.50891" lon="-0.696234">
        <ele>881.225224290228</ele>
        <time>2019-04-21T08:00:57.000Z</time>
      </trkpt>
      <trkpt lat="38.508901" lon="-0.696257">
        <ele>882</ele>
        <time>2019-04-21T08:00:58.000Z</time>
      </trkpt>
      <trkpt lat="38.508892" lon="-0.696278">
        <ele>882</ele>
        <time>2019-04-21T08:00:59.000Z</time>
      </trkpt>
      <trkpt lat="38.508878" lon="-0.696298">
        <ele>882</ele>
        <time>2019-04-21T08:01:00.000Z</time>
      </trkpt>
      <trkpt lat="38.508863" lon="-0.696317">
        <ele>882.226798273974</ele>
        <time>2019-04-21T08:01:01.000Z</time>
      </trkpt>
      <trkpt lat="38.508845" lon="-0.696336">
        <ele>883</ele>
        <time>2019-04-21T08:01:02.000Z</time>
      </trkpt>
      <trkpt lat="38.508828" lon="-0.696355">
        <ele>883</ele>
        <time>2019-04-21T08:01:03.000Z</time>
      </trkpt>
      <trkpt lat="38.508813" lon="-0.696377">
        <ele>883</ele>
        <time>2019-04-21T08:01:04.000Z</time>
      </trkpt>
      <trkpt lat="38.508804" lon="-0.696404">
        <ele>883</ele>
        <time>2019-04-21T08:01:05.000Z</time>
      </trkpt>
      <trkpt lat="38.5088" lon="-0.696433">
        <ele>883</ele>
        <time>2019-04-21T08:01:06.000Z</time>
      </trkpt>
      <trkpt lat="38.508797" lon="-0.696461">
        <ele>883</ele>
        <time>2019-04-21T08:01:07.000Z</time>
      </trkpt>
      <trkpt lat="38.508798" lon="-0.69649">
        <ele>883</ele>
        <time>2019-04-21T08:01:08.000Z</time>
      </trkpt>
      <trkpt lat="38.508798" lon="-0.69652">
        <ele>882</ele>
        <time>2019-04-21T08:01:09.000Z</time>
      </trkpt>
      <trkpt lat="38.508802" lon="-0.696552">
        <ele>882</ele>
        <time>2019-04-21T08:01:10.000Z</time>
      </trkpt>
      <trkpt lat="38.508808" lon="-0.696583">
        <ele>882</ele>
        <time>2019-04-21T08:01:11.000Z</time>
      </trkpt>
      <trkpt lat="38.508812" lon="-0.696615">
        <ele>882</ele>
        <time>2019-04-21T08:01:12.000Z</time>
      </trkpt>
      <trkpt lat="38.508815" lon="-0.696643">
        <ele>882.2499968</ele>
        <time>2019-04-21T08:01:13.000Z</time>
      </trkpt>
      <trkpt lat="38.508816" lon="-0.696671">
        <ele>883</ele>
        <time>2019-04-21T08:01:14.000Z</time>
      </trkpt>
      <trkpt lat="38.508817" lon="-0.6967">
        <ele>883</ele>
        <time>2019-04-21T08:01:15.000Z</time>
      </trkpt>
      <trkpt lat="38.508819" lon="-0.69673">
        <ele>883.225221693055</ele>
        <time>2019-04-21T08:01:16.000Z</time>
      </trkpt>
      <trkpt lat="38.508825" lon="-0.696756">
        <ele>884</ele>
        <time>2019-04-21T08:01:17.000Z</time>
      </trkpt>
      <trkpt lat="38.508832" lon="-0.696783">
        <ele>884</ele>
        <time>2019-04-21T08:01:18.000Z</time>
      </trkpt>
      <trkpt lat="38.508842" lon="-0.696805">
        <ele>884</ele>
        <time>2019-04-21T08:01:19.000Z</time>
      </trkpt>
      <trkpt lat="38.508853" lon="-0.696827">
        <ele>884</ele>
        <time>2019-04-21T08:01:20.000Z</time>
      </trkpt>
      <trkpt lat="38.508867" lon="-0.696851">
        <ele>884</ele>
        <time>2019-04-21T08:01:21.000Z</time>
      </trkpt>
      <trkpt lat="38.508879" lon="-0.696875">
        <ele>884</ele>
        <time>2019-04-21T08:01:22.000Z</time>
      </trkpt>
      <trkpt lat="38.508889" lon="-0.696897">
        <ele>884</ele>
        <time>2019-04-21T08:01:23.000Z</time>
      </trkpt>
      <trkpt lat="38.508901" lon="-0.696919">
        <ele>884</ele>
        <time>2019-04-21T08:01:24.000Z</time>
      </trkpt>
      <trkpt lat="38.508915" lon="-0.69694">
        <ele>884</ele>
        <time>2019-04-21T08:01:25.000Z</time>
      </trkpt>
      <trkpt lat="38.508928" lon="-0.696961">
        <ele>885</ele>
        <time>2019-04-21T08:01:26.000Z</time>
      </trkpt>
      <trkpt lat="38.508944" lon="-0.696978">
        <ele>885</ele>
        <time>2019-04-21T08:01:27.000Z</time>
      </trkpt>
      <trkpt lat="38.508962" lon="-0.696987">
        <ele>886</ele>
        <time>2019-04-21T08:01:28.000Z</time>
      </trkpt>
      <trkpt lat="38.50898" lon="-0.696995">
        <ele>886</ele>
        <time>2019-04-21T08:01:29.000Z</time>
      </trkpt>
      <trkpt lat="38.509001" lon="-0.697003">
        <ele>886</ele>
        <time>2019-04-21T08:01:30.000Z</time>
      </trkpt>
      <trkpt lat="38.509021" lon="-0.697013">
        <ele>886</ele>
        <time>2019-04-21T08:01:31.000Z</time>
      </trkpt>
      <trkpt lat="38.509039" lon="-0.697024">
        <ele>886</ele>
        <time>2019-04-21T08:01:32.000Z</time>
      </trkpt>
      <trkpt lat="38.509056" lon="-0.697033">
        <ele>886.242717602028</ele>
        <time>2019-04-21T08:01:33.000Z</time>
      </trkpt>
      <trkpt lat="38.509075" lon="-0.697036">
        <ele>887</ele>
        <time>2019-04-21T08:01:34.000Z</time>
      </trkpt>
      <trkpt lat="38.509098" lon="-0.697036">
        <ele>887</ele>
        <time>2019-04-21T08:01:35.000Z</time>
      </trkpt>
      <trkpt lat="38.509123" lon="-0.697033">
        <ele>887.157308864983</ele>
        <time>2019-04-21T08:01:36.000Z</time>
      </trkpt>
      <trkpt lat="38.509149" lon="-0.69703">
        <ele>888</ele>
        <time>2019-04-21T08:01:37.000Z</time>
      </trkpt>
      <trkpt lat="38.509176" lon="-0.697026">
        <ele>888</ele>
        <time>2019-04-21T08:01:38.000Z</time>
      </trkpt>
      <trkpt lat="38.509202" lon="-0.697022">
        <ele>888</ele>
        <time>2019-04-21T08:01:39.000Z</time>
      </trkpt>
      <trkpt lat="38.509224" lon="-0.697022">
        <ele>888</ele>
        <time>2019-04-21T08:01:40.000Z</time>
      </trkpt>
      <trkpt lat="38.509246" lon="-0.697025">
        <ele>888</ele>
        <time>2019-04-21T08:01:41.000Z</time>
      </trkpt>
      <trkpt lat="38.509267" lon="-0.69703">
        <ele>888</ele>
        <time>2019-04-21T08:01:42.000Z</time>
      </trkpt>
      <trkpt lat="38.509289" lon="-0.697034">
        <ele>888</ele>
        <time>2019-04-21T08:01:43.000Z</time>
      </trkpt>
      <trkpt lat="38.509312" lon="-0.697038">
        <ele>888</ele>
        <time>2019-04-21T08:01:44.000Z</time>
      </trkpt>
      <trkpt lat="38.509335" lon="-0.697044">
        <ele>888</ele>
        <time>2019-04-21T08:01:45.000Z</time>
      </trkpt>
      <trkpt lat="38.509352" lon="-0.697055">
        <ele>888</ele>
        <time>2019-04-21T08:01:46.000Z</time>
      </trkpt>
      <trkpt lat="38.509368" lon="-0.697067">
        <ele>888</ele>
        <time>2019-04-21T08:01:47.000Z</time>
      </trkpt>
      <trkpt lat="38.509384" lon="-0.697081">
        <ele>888</ele>
        <time>2019-04-21T08:01:48.000Z</time>
      </trkpt>
      <trkpt lat="38.509401" lon="-0.697093">
        <ele>888</ele>
        <time>2019-04-21T08:01:49.000Z</time>
      </trkpt>
      <trkpt lat="38.509417" lon="-0.697106">
        <ele>888</ele>
        <time>2019-04-21T08:01:50.000Z</time>
      </trkpt>
      <trkpt lat="38.509433" lon="-0.697118">
        <ele>888</ele>
        <time>2019-04-21T08:01:51.000Z</time>
      </trkpt>
      <trkpt lat="38.50945" lon="-0.697134">
        <ele>888</ele>
        <time>2019-04-21T08:01:52.000Z</time>
      </trkpt>
      <trkpt lat="38.509466" lon="-0.697147">
        <ele>888.193553270848</ele>
        <time>2019-04-21T08:01:53.000Z</time>
      </trkpt>
      <trkpt lat="38.509482" lon="-0.69716">
        <ele>889</ele>
        <time>2019-04-21T08:01:54.000Z</time>
      </trkpt>
      <trkpt lat="38.509498" lon="-0.697176">
        <ele>889.2499968</ele>
        <time>2019-04-21T08:01:55.000Z</time>
      </trkpt>
      <trkpt lat="38.509515" lon="-0.697196">
        <ele>890</ele>
        <time>2019-04-21T08:01:56.000Z</time>
      </trkpt>
      <trkpt lat="38.509531" lon="-0.697211">
        <ele>890</ele>
        <time>2019-04-21T08:01:57.000Z</time>
      </trkpt>
      <trkpt lat="38.509548" lon="-0.697228">
        <ele>890</ele>
        <time>2019-04-21T08:01:58.000Z</time>
      </trkpt>
      <trkpt lat="38.509564" lon="-0.697243">
        <ele>890</ele>
        <time>2019-04-21T08:01:59.000Z</time>
      </trkpt>
      <trkpt lat="38.509584" lon="-0.697255">
        <ele>890</ele>
        <time>2019-04-21T08:02:00.000Z</time>
      </trkpt>
      <trkpt lat="38.509604" lon="-0.697268">
        <ele>890</ele>
        <time>2019-04-21T08:02:01.000Z</time>
      </trkpt>
      <trkpt lat="38.509622" lon="-0.697282">
        <ele>890</ele>
        <time>2019-04-21T08:02:02.000Z</time>
      </trkpt>
      <trkpt lat="38.509636" lon="-0.697296">
        <ele>890</ele>
        <time>2019-04-21T08:02:03.000Z</time>
      </trkpt>
      <trkpt lat="38.509651" lon="-0.697313">
        <ele>890</ele>
        <time>2019-04-21T08:02:04.000Z</time>
      </trkpt>
      <trkpt lat="38.509666" lon="-0.69733">
        <ele>890</ele>
        <time>2019-04-21T08:02:05.000Z</time>
      </trkpt>
      <trkpt lat="38.509677" lon="-0.697349">
        <ele>890</ele>
        <time>2019-04-21T08:02:06.000Z</time>
      </trkpt>
      <trkpt lat="38.509686" lon="-0.697371">
        <ele>890.193553270848</ele>
        <time>2019-04-21T08:02:07.000Z</time>
      </trkpt>
      <trkpt lat="38.509695" lon="-0.697399">
        <ele>891</ele>
        <time>2019-04-21T08:02:08.000Z</time>
      </trkpt>
      <trkpt lat="38.509704" lon="-0.697427">
        <ele>891</ele>
        <time>2019-04-21T08:02:09.000Z</time>
      </trkpt>
      <trkpt lat="38.509715" lon="-0.697452">
        <ele>891.2499968</ele>
        <time>2019-04-21T08:02:10.000Z</time>
      </trkpt>
      <trkpt lat="38.509729" lon="-0.697475">
        <ele>892</ele>
        <time>2019-04-21T08:02:11.000Z</time>
      </trkpt>
      <trkpt lat="38.509743" lon="-0.697493">
        <ele>892</ele>
        <time>2019-04-21T08:02:12.000Z</time>
      </trkpt>
      <trkpt lat="38.509759" lon="-0.697509">
        <ele>893</ele>
        <time>2019-04-21T08:02:13.000Z</time>
      </trkpt>
      <trkpt lat="38.509776" lon="-0.697522">
        <ele>893</ele>
        <time>2019-04-21T08:02:14.000Z</time>
      </trkpt>
      <trkpt lat="38.509796" lon="-0.697532">
        <ele>893</ele>
        <time>2019-04-21T08:02:15.000Z</time>
      </trkpt>
      <trkpt lat="38.509821" lon="-0.697549">
        <ele>894</ele>
        <time>2019-04-21T08:02:17.000Z</time>
      </trkpt>
      <trkpt lat="38.509847" lon="-0.69755">
        <ele>894</ele>
        <time>2019-04-21T08:02:19.000Z</time>
      </trkpt>
      <trkpt lat="38.50986" lon="-0.697529">
        <ele>893</ele>
        <time>2019-04-21T08:02:24.000Z</time>
      </trkpt>
      <trkpt lat="38.509881" lon="-0.697528">
        <ele>893</ele>
        <time>2019-04-21T08:02:37.000Z</time>
      </trkpt>
      <trkpt lat="38.509902" lon="-0.69753">
        <ele>893</ele>
        <time>2019-04-21T08:02:40.000Z</time>
      </trkpt>
      <trkpt lat="38.509911" lon="-0.697557">
        <ele>892.2499968</ele>
        <time>2019-04-21T08:03:11.000Z</time>
      </trkpt>
      <trkpt lat="38.509907" lon="-0.69758">
        <ele>893</ele>
        <time>2019-04-21T08:03:12.000Z</time>
      </trkpt>
      <trkpt lat="38.509901" lon="-0.697607">
        <ele>893</ele>
        <time>2019-04-21T08:03:13.000Z</time>
      </trkpt>
      <trkpt lat="38.509896" lon="-0.697634">
        <ele>893</ele>
        <time>2019-04-21T08:03:14.000Z</time>
      </trkpt>
      <trkpt lat="38.509891" lon="-0.697659">
        <ele>893</ele>
        <time>2019-04-21T08:03:15.000Z</time>
      </trkpt>
      <trkpt lat="38.509875" lon="-0.697696">
        <ele>893</ele>
        <time>2019-04-21T08:03:17.000Z</time>
      </trkpt>
      <trkpt lat="38.509866" lon="-0.697729">
        <ele>893</ele>
        <time>2019-04-21T08:03:19.000Z</time>
      </trkpt>
      <trkpt lat="38.509854" lon="-0.697757">
        <ele>893</ele>
        <time>2019-04-21T08:03:25.000Z</time>
      </trkpt>
      <trkpt lat="38.509855" lon="-0.697794">
        <ele>892</ele>
        <time>2019-04-21T08:03:27.000Z</time>
      </trkpt>
      <trkpt lat="38.509848" lon="-0.697833">
        <ele>890.776788571429</ele>
        <time>2019-04-21T08:03:29.000Z</time>
      </trkpt>
      <trkpt lat="38.509843" lon="-0.697859">
        <ele>890</ele>
        <time>2019-04-21T08:03:30.000Z</time>
      </trkpt>
      <trkpt lat="38.509844" lon="-0.697888">
        <ele>890</ele>
        <time>2019-04-21T08:03:31.000Z</time>
      </trkpt>
      <trkpt lat="38.509847" lon="-0.697918">
        <ele>890</ele>
        <time>2019-04-21T08:03:32.000Z</time>
      </trkpt>
      <trkpt lat="38.50985" lon="-0.697949">
        <ele>891</ele>
        <time>2019-04-21T08:03:33.000Z</time>
      </trkpt>
      <trkpt lat="38.509852" lon="-0.69798">
        <ele>891.2499968</ele>
        <time>2019-04-21T08:03:34.000Z</time>
      </trkpt>
      <trkpt lat="38.509855" lon="-0.698012">
        <ele>892</ele>
        <time>2019-04-21T08:03:35.000Z</time>
      </trkpt>
      <trkpt lat="38.509859" lon="-0.698043">
        <ele>892</ele>
        <time>2019-04-21T08:03:36.000Z</time>
      </trkpt>
      <trkpt lat="38.509858" lon="-0.698073">
        <ele>892</ele>
        <time>2019-04-21T08:03:37.000Z</time>
      </trkpt>
      <trkpt lat="38.509856" lon="-0.698103">
        <ele>892</ele>
        <time>2019-04-21T08:03:38.000Z</time>
      </trkpt>
      <trkpt lat="38.50985" lon="-0.698134">
        <ele>892.193796449728</ele>
        <time>2019-04-21T08:03:39.000Z</time>
      </trkpt>
      <trkpt lat="38.509842" lon="-0.698164">
        <ele>892.968992171143</ele>
        <time>2019-04-21T08:03:40.000Z</time>
      </trkpt>
      <trkpt lat="38.509833" lon="-0.698195">
        <ele>894</ele>
        <time>2019-04-21T08:03:41.000Z</time>
      </trkpt>
      <trkpt lat="38.509826" lon="-0.698225">
        <ele>894</ele>
        <time>2019-04-21T08:03:42.000Z</time>
      </trkpt>
      <trkpt lat="38.509817" lon="-0.698258">
        <ele>894</ele>
        <time>2019-04-21T08:03:43.000Z</time>
      </trkpt>
      <trkpt lat="38.509811" lon="-0.698291">
        <ele>893.7500032</ele>
        <time>2019-04-21T08:03:44.000Z</time>
      </trkpt>
      <trkpt lat="38.509804" lon="-0.698324">
        <ele>893</ele>
        <time>2019-04-21T08:03:45.000Z</time>
      </trkpt>
      <trkpt lat="38.509797" lon="-0.698358">
        <ele>893</ele>
        <time>2019-04-21T08:03:46.000Z</time>
      </trkpt>
      <trkpt lat="38.509791" lon="-0.698394">
        <ele>892.797870312372</ele>
        <time>2019-04-21T08:03:47.000Z</time>
      </trkpt>
      <trkpt lat="38.50979" lon="-0.698431">
        <ele>892</ele>
        <time>2019-04-21T08:03:48.000Z</time>
      </trkpt>
      <trkpt lat="38.509788" lon="-0.698467">
        <ele>892</ele>
        <time>2019-04-21T08:03:49.000Z</time>
      </trkpt>
      <trkpt lat="38.509784" lon="-0.698502">
        <ele>892</ele>
        <time>2019-04-21T08:03:50.000Z</time>
      </trkpt>
      <trkpt lat="38.509777" lon="-0.698538">
        <ele>892</ele>
        <time>2019-04-21T08:03:51.000Z</time>
      </trkpt>
      <trkpt lat="38.509771" lon="-0.698573">
        <ele>892</ele>
        <time>2019-04-21T08:03:52.000Z</time>
      </trkpt>
      <trkpt lat="38.509769" lon="-0.698607">
        <ele>892</ele>
        <time>2019-04-21T08:03:53.000Z</time>
      </trkpt>
      <trkpt lat="38.509771" lon="-0.698641">
        <ele>892</ele>
        <time>2019-04-21T08:03:54.000Z</time>
      </trkpt>
      <trkpt lat="38.509773" lon="-0.698672">
        <ele>892</ele>
        <time>2019-04-21T08:03:55.000Z</time>
      </trkpt>
      <trkpt lat="38.509772" lon="-0.698698">
        <ele>892.2499968</ele>
        <time>2019-04-21T08:03:56.000Z</time>
      </trkpt>
      <trkpt lat="38.509771" lon="-0.698725">
        <ele>893</ele>
        <time>2019-04-21T08:03:57.000Z</time>
      </trkpt>
      <trkpt lat="38.50977" lon="-0.698751">
        <ele>893.181157941602</ele>
        <time>2019-04-21T08:03:58.000Z</time>
      </trkpt>
      <trkpt lat="38.509766" lon="-0.698777">
        <ele>893.905798983416</ele>
        <time>2019-04-21T08:03:59.000Z</time>
      </trkpt>
      <trkpt lat="38.509762" lon="-0.698802">
        <ele>895</ele>
        <time>2019-04-21T08:04:00.000Z</time>
      </trkpt>
      <trkpt lat="38.509762" lon="-0.698829">
        <ele>895.247522368388</ele>
        <time>2019-04-21T08:04:01.000Z</time>
      </trkpt>
      <trkpt lat="38.509766" lon="-0.698859">
        <ele>896</ele>
        <time>2019-04-21T08:04:02.000Z</time>
      </trkpt>
      <trkpt lat="38.509777" lon="-0.698885">
        <ele>896</ele>
        <time>2019-04-21T08:04:03.000Z</time>
      </trkpt>
      <trkpt lat="38.509785" lon="-0.698912">
        <ele>896</ele>
        <time>2019-04-21T08:04:04.000Z</time>
      </trkpt>
      <trkpt lat="38.509791" lon="-0.698941">
        <ele>896</ele>
        <time>2019-04-21T08:04:05.000Z</time>
      </trkpt>
      <trkpt lat="38.509795" lon="-0.698967">
        <ele>895.752477631612</ele>
        <time>2019-04-21T08:04:06.000Z</time>
      </trkpt>
      <trkpt lat="38.509802" lon="-0.698992">
        <ele>895.242423458833</ele>
        <time>2019-04-21T08:04:07.000Z</time>
      </trkpt>
      <trkpt lat="38.509814" lon="-0.699013">
        <ele>896</ele>
        <time>2019-04-21T08:04:08.000Z</time>
      </trkpt>
      <trkpt lat="38.50982" lon="-0.699035">
        <ele>895.824176442457</ele>
        <time>2019-04-21T08:04:09.000Z</time>
      </trkpt>
      <trkpt lat="38.509822" lon="-0.699062">
        <ele>895</ele>
        <time>2019-04-21T08:04:10.000Z</time>
      </trkpt>
      <trkpt lat="38.509825" lon="-0.699093">
        <ele>895</ele>
        <time>2019-04-21T08:04:11.000Z</time>
      </trkpt>
      <trkpt lat="38.509828" lon="-0.699123">
        <ele>895</ele>
        <time>2019-04-21T08:04:12.000Z</time>
      </trkpt>
      <trkpt lat="38.50983" lon="-0.699152">
        <ele>895</ele>
        <time>2019-04-21T08:04:13.000Z</time>
      </trkpt>
      <trkpt lat="38.509832" lon="-0.699181">
        <ele>895</ele>
        <time>2019-04-21T08:04:14.000Z</time>
      </trkpt>
      <trkpt lat="38.509837" lon="-0.69921">
        <ele>896</ele>
        <time>2019-04-21T08:04:15.000Z</time>
      </trkpt>
      <trkpt lat="38.509842" lon="-0.699238">
        <ele>896</ele>
        <time>2019-04-21T08:04:16.000Z</time>
      </trkpt>
      <trkpt lat="38.509849" lon="-0.699266">
        <ele>896.153228387097</ele>
        <time>2019-04-21T08:04:17.000Z</time>
      </trkpt>
      <trkpt lat="38.509855" lon="-0.699296">
        <ele>896.95968</ele>
        <time>2019-04-21T08:04:18.000Z</time>
      </trkpt>
      <trkpt lat="38.50986" lon="-0.699326">
        <ele>897</ele>
        <time>2019-04-21T08:04:19.000Z</time>
      </trkpt>
      <trkpt lat="38.509866" lon="-0.699355">
        <ele>897</ele>
        <time>2019-04-21T08:04:20.000Z</time>
      </trkpt>
      <trkpt lat="38.509873" lon="-0.699384">
        <ele>897.219296669736</ele>
        <time>2019-04-21T08:04:21.000Z</time>
      </trkpt>
      <trkpt lat="38.509884" lon="-0.699412">
        <ele>898.127909745788</ele>
        <time>2019-04-21T08:04:22.000Z</time>
      </trkpt>
      <trkpt lat="38.509891" lon="-0.699441">
        <ele>899</ele>
        <time>2019-04-21T08:04:23.000Z</time>
      </trkpt>
      <trkpt lat="38.509894" lon="-0.699471">
        <ele>899</ele>
        <time>2019-04-21T08:04:24.000Z</time>
      </trkpt>
      <trkpt lat="38.509898" lon="-0.699502">
        <ele>898.789474393349</ele>
        <time>2019-04-21T08:04:25.000Z</time>
      </trkpt>
      <trkpt lat="38.509904" lon="-0.699534">
        <ele>898.221236732706</ele>
        <time>2019-04-21T08:04:26.000Z</time>
      </trkpt>
      <trkpt lat="38.509909" lon="-0.699564">
        <ele>899</ele>
        <time>2019-04-21T08:04:27.000Z</time>
      </trkpt>
      <trkpt lat="38.509915" lon="-0.699595">
        <ele>899</ele>
        <time>2019-04-21T08:04:28.000Z</time>
      </trkpt>
      <trkpt lat="38.509922" lon="-0.699625">
        <ele>899</ele>
        <time>2019-04-21T08:04:29.000Z</time>
      </trkpt>
      <trkpt lat="38.509928" lon="-0.699655">
        <ele>898.789474393349</ele>
        <time>2019-04-21T08:04:30.000Z</time>
      </trkpt>
      <trkpt lat="38.509933" lon="-0.699688">
        <ele>897.778763267294</ele>
        <time>2019-04-21T08:04:31.000Z</time>
      </trkpt>
      <trkpt lat="38.50994" lon="-0.69972">
        <ele>897</ele>
        <time>2019-04-21T08:04:32.000Z</time>
      </trkpt>
      <trkpt lat="38.509947" lon="-0.699754">
        <ele>897</ele>
        <time>2019-04-21T08:04:33.000Z</time>
      </trkpt>
      <trkpt lat="38.509955" lon="-0.699788">
        <ele>897</ele>
        <time>2019-04-21T08:04:34.000Z</time>
      </trkpt>
      <trkpt lat="38.509965" lon="-0.699821">
        <ele>897.219296669736</ele>
        <time>2019-04-21T08:04:35.000Z</time>
      </trkpt>
      <trkpt lat="38.509978" lon="-0.699851">
        <ele>898.094830344828</ele>
        <time>2019-04-21T08:04:36.000Z</time>
      </trkpt>
      <trkpt lat="38.509992" lon="-0.69988">
        <ele>898.956899310345</ele>
        <time>2019-04-21T08:04:37.000Z</time>
      </trkpt>
      <trkpt lat="38.510004" lon="-0.699907">
        <ele>899</ele>
        <time>2019-04-21T08:04:38.000Z</time>
      </trkpt>
      <trkpt lat="38.510014" lon="-0.699935">
        <ele>899</ele>
        <time>2019-04-21T08:04:39.000Z</time>
      </trkpt>
      <trkpt lat="38.510019" lon="-0.699966">
        <ele>899</ele>
        <time>2019-04-21T08:04:40.000Z</time>
      </trkpt>
      <trkpt lat="38.51002" lon="-0.699997">
        <ele>898.7500032</ele>
        <time>2019-04-21T08:04:41.000Z</time>
      </trkpt>
      <trkpt lat="38.510016" lon="-0.700029">
        <ele>898</ele>
        <time>2019-04-21T08:04:42.000Z</time>
      </trkpt>
      <trkpt lat="38.510011" lon="-0.70006">
        <ele>898</ele>
        <time>2019-04-21T08:04:43.000Z</time>
      </trkpt>
      <trkpt lat="38.510006" lon="-0.700088">
        <ele>898</ele>
        <time>2019-04-21T08:04:44.000Z</time>
      </trkpt>
      <trkpt lat="38.509999" lon="-0.700125">
        <ele>898</ele>
        <time>2019-04-21T08:04:45.000Z</time>
      </trkpt>
      <trkpt lat="38.509994" lon="-0.700166">
        <ele>898</ele>
        <time>2019-04-21T08:04:46.000Z</time>
      </trkpt>
      <trkpt lat="38.50999" lon="-0.700203">
        <ele>897.7500032</ele>
        <time>2019-04-21T08:04:47.000Z</time>
      </trkpt>
      <trkpt lat="38.509982" lon="-0.700234">
        <ele>897</ele>
        <time>2019-04-21T08:04:48.000Z</time>
      </trkpt>
      <trkpt lat="38.509975" lon="-0.700264">
        <ele>897</ele>
        <time>2019-04-21T08:04:49.000Z</time>
      </trkpt>
      <trkpt lat="38.509961" lon="-0.700293">
        <ele>897</ele>
        <time>2019-04-21T08:04:50.000Z</time>
      </trkpt>
      <trkpt lat="38.50995" lon="-0.70032">
        <ele>897</ele>
        <time>2019-04-21T08:04:51.000Z</time>
      </trkpt>
      <trkpt lat="38.509942" lon="-0.700347">
        <ele>897</ele>
        <time>2019-04-21T08:04:52.000Z</time>
      </trkpt>
      <trkpt lat="38.509932" lon="-0.700374">
        <ele>896.817520157711</ele>
        <time>2019-04-21T08:04:53.000Z</time>
      </trkpt>
      <trkpt lat="38.509919" lon="-0.700398">
        <ele>896.087591445469</ele>
        <time>2019-04-21T08:04:54.000Z</time>
      </trkpt>
      <trkpt lat="38.509904" lon="-0.70042">
        <ele>896</ele>
        <time>2019-04-21T08:04:55.000Z</time>
      </trkpt>
      <trkpt lat="38.509886" lon="-0.700441">
        <ele>896</ele>
        <time>2019-04-21T08:04:56.000Z</time>
      </trkpt>
      <trkpt lat="38.50987" lon="-0.700461">
        <ele>896</ele>
        <time>2019-04-21T08:04:57.000Z</time>
      </trkpt>
      <trkpt lat="38.509853" lon="-0.70049">
        <ele>895.7500032</ele>
        <time>2019-04-21T08:04:58.000Z</time>
      </trkpt>
      <trkpt lat="38.509843" lon="-0.700515">
        <ele>894.776788571429</ele>
        <time>2019-04-21T08:04:59.000Z</time>
      </trkpt>
      <trkpt lat="38.509833" lon="-0.700543">
        <ele>894</ele>
        <time>2019-04-21T08:05:00.000Z</time>
      </trkpt>
      <trkpt lat="38.509824" lon="-0.700577">
        <ele>893.7500032</ele>
        <time>2019-04-21T08:05:01.000Z</time>
      </trkpt>
      <trkpt lat="38.509815" lon="-0.700605">
        <ele>893</ele>
        <time>2019-04-21T08:05:02.000Z</time>
      </trkpt>
      <trkpt lat="38.509806" lon="-0.700627">
        <ele>892.773201726026</ele>
        <time>2019-04-21T08:05:03.000Z</time>
      </trkpt>
      <trkpt lat="38.509793" lon="-0.700649">
        <ele>891.774778306945</ele>
        <time>2019-04-21T08:05:04.000Z</time>
      </trkpt>
      <trkpt lat="38.509783" lon="-0.700676">
        <ele>890.842703254663</ele>
        <time>2019-04-21T08:05:05.000Z</time>
      </trkpt>
      <trkpt lat="38.509778" lon="-0.700705">
        <ele>890</ele>
        <time>2019-04-21T08:05:06.000Z</time>
      </trkpt>
      <trkpt lat="38.509775" lon="-0.700731">
        <ele>890</ele>
        <time>2019-04-21T08:05:07.000Z</time>
      </trkpt>
      <trkpt lat="38.509773" lon="-0.700758">
        <ele>889.757576541167</ele>
        <time>2019-04-21T08:05:08.000Z</time>
      </trkpt>
      <trkpt lat="38.50977" lon="-0.700783">
        <ele>889</ele>
        <time>2019-04-21T08:05:09.000Z</time>
      </trkpt>
      <trkpt lat="38.509761" lon="-0.700806">
        <ele>889</ele>
        <time>2019-04-21T08:05:10.000Z</time>
      </trkpt>
      <trkpt lat="38.50975" lon="-0.700827">
        <ele>889</ele>
        <time>2019-04-21T08:05:11.000Z</time>
      </trkpt>
      <trkpt lat="38.509738" lon="-0.700848">
        <ele>888.7500032</ele>
        <time>2019-04-21T08:05:12.000Z</time>
      </trkpt>
      <trkpt lat="38.509726" lon="-0.70087">
        <ele>888</ele>
        <time>2019-04-21T08:05:13.000Z</time>
      </trkpt>
      <trkpt lat="38.509718" lon="-0.700895">
        <ele>887.807693822493</ele>
        <time>2019-04-21T08:05:14.000Z</time>
      </trkpt>
      <trkpt lat="38.509714" lon="-0.700927">
        <ele>887.038459266261</ele>
        <time>2019-04-21T08:05:15.000Z</time>
      </trkpt>
      <trkpt lat="38.509712" lon="-0.700959">
        <ele>886.0499968</ele>
        <time>2019-04-21T08:05:16.000Z</time>
      </trkpt>
      <trkpt lat="38.509717" lon="-0.700995">
        <ele>885.2500096</ele>
        <time>2019-04-21T08:05:17.000Z</time>
      </trkpt>
      <trkpt lat="38.509725" lon="-0.701028">
        <ele>882.7500032</ele>
        <time>2019-04-21T08:05:18.000Z</time>
      </trkpt>
      <trkpt lat="38.509725" lon="-0.701055">
        <ele>882</ele>
        <time>2019-04-21T08:05:19.000Z</time>
      </trkpt>
      <trkpt lat="38.50972" lon="-0.701082">
        <ele>882</ele>
        <time>2019-04-21T08:05:20.000Z</time>
      </trkpt>
      <trkpt lat="38.509711" lon="-0.701104">
        <ele>882</ele>
        <time>2019-04-21T08:05:21.000Z</time>
      </trkpt>
      <trkpt lat="38.509703" lon="-0.701131">
        <ele>882</ele>
        <time>2019-04-21T08:05:22.000Z</time>
      </trkpt>
      <trkpt lat="38.509697" lon="-0.701156">
        <ele>882</ele>
        <time>2019-04-21T08:05:23.000Z</time>
      </trkpt>
      <trkpt lat="38.509696" lon="-0.701184">
        <ele>882</ele>
        <time>2019-04-21T08:05:24.000Z</time>
      </trkpt>
      <trkpt lat="38.509687" lon="-0.701213">
        <ele>881.7500032</ele>
        <time>2019-04-21T08:05:25.000Z</time>
      </trkpt>
      <trkpt lat="38.509679" lon="-0.701244">
        <ele>881</ele>
        <time>2019-04-21T08:05:26.000Z</time>
      </trkpt>
      <trkpt lat="38.509673" lon="-0.70128">
        <ele>880.7500032</ele>
        <time>2019-04-21T08:05:27.000Z</time>
      </trkpt>
      <trkpt lat="38.509666" lon="-0.701319">
        <ele>880</ele>
        <time>2019-04-21T08:05:28.000Z</time>
      </trkpt>
      <trkpt lat="38.509655" lon="-0.701352">
        <ele>879.7500032</ele>
        <time>2019-04-21T08:05:29.000Z</time>
      </trkpt>
      <trkpt lat="38.509646" lon="-0.70139">
        <ele>879</ele>
        <time>2019-04-21T08:05:30.000Z</time>
      </trkpt>
      <trkpt lat="38.509641" lon="-0.701426">
        <ele>879</ele>
        <time>2019-04-21T08:05:31.000Z</time>
      </trkpt>
      <trkpt lat="38.509632" lon="-0.701462">
        <ele>878.842691135017</ele>
        <time>2019-04-21T08:05:32.000Z</time>
      </trkpt>
      <trkpt lat="38.509624" lon="-0.701502">
        <ele>877.806203550272</ele>
        <time>2019-04-21T08:05:33.000Z</time>
      </trkpt>
      <trkpt lat="38.509617" lon="-0.701541">
        <ele>877.031007828857</ele>
        <time>2019-04-21T08:05:34.000Z</time>
      </trkpt>
      <trkpt lat="38.509612" lon="-0.701581">
        <ele>877</ele>
        <time>2019-04-21T08:05:35.000Z</time>
      </trkpt>
      <trkpt lat="38.509604" lon="-0.701615">
        <ele>876.7500032</ele>
        <time>2019-04-21T08:05:36.000Z</time>
      </trkpt>
      <trkpt lat="38.509595" lon="-0.701654">
        <ele>876.2499968</ele>
        <time>2019-04-21T08:05:37.000Z</time>
      </trkpt>
      <trkpt lat="38.509589" lon="-0.701691">
        <ele>877.2499968</ele>
        <time>2019-04-21T08:05:38.000Z</time>
      </trkpt>
      <trkpt lat="38.509585" lon="-0.701731">
        <ele>878.231478518519</ele>
        <time>2019-04-21T08:05:39.000Z</time>
      </trkpt>
      <trkpt lat="38.509575" lon="-0.701757">
        <ele>879</ele>
        <time>2019-04-21T08:05:40.000Z</time>
      </trkpt>
      <trkpt lat="38.509566" lon="-0.701791">
        <ele>878.7500032</ele>
        <time>2019-04-21T08:05:41.000Z</time>
      </trkpt>
      <trkpt lat="38.509559" lon="-0.701824">
        <ele>877.7500032</ele>
        <time>2019-04-21T08:05:42.000Z</time>
      </trkpt>
      <trkpt lat="38.509553" lon="-0.701861">
        <ele>876.7500032</ele>
        <time>2019-04-21T08:05:43.000Z</time>
      </trkpt>
      <trkpt lat="38.509543" lon="-0.701897">
        <ele>876</ele>
        <time>2019-04-21T08:05:44.000Z</time>
      </trkpt>
      <trkpt lat="38.509533" lon="-0.70193">
        <ele>875.815220869565</ele>
        <time>2019-04-21T08:05:45.000Z</time>
      </trkpt>
      <trkpt lat="38.509518" lon="-0.701959">
        <ele>875</ele>
        <time>2019-04-21T08:05:46.000Z</time>
      </trkpt>
      <trkpt lat="38.509503" lon="-0.701989">
        <ele>875</ele>
        <time>2019-04-21T08:05:47.000Z</time>
      </trkpt>
      <trkpt lat="38.50949" lon="-0.702017">
        <ele>875</ele>
        <time>2019-04-21T08:05:48.000Z</time>
      </trkpt>
      <trkpt lat="38.509478" lon="-0.702047">
        <ele>875</ele>
        <time>2019-04-21T08:05:49.000Z</time>
      </trkpt>
      <trkpt lat="38.509467" lon="-0.702082">
        <ele>875</ele>
        <time>2019-04-21T08:05:50.000Z</time>
      </trkpt>
      <trkpt lat="38.509458" lon="-0.702115">
        <ele>874.7500032</ele>
        <time>2019-04-21T08:05:51.000Z</time>
      </trkpt>
      <trkpt lat="38.509447" lon="-0.702147">
        <ele>873.849398937442</ele>
        <time>2019-04-21T08:05:52.000Z</time>
      </trkpt>
      <trkpt lat="38.509432" lon="-0.702172">
        <ele>873.246986976335</ele>
        <time>2019-04-21T08:05:53.000Z</time>
      </trkpt>
      <trkpt lat="38.509419" lon="-0.702194">
        <ele>872</ele>
        <time>2019-04-21T08:05:54.000Z</time>
      </trkpt>
      <trkpt lat="38.509405" lon="-0.702221">
        <ele>871.83333096298</ele>
        <time>2019-04-21T08:05:55.000Z</time>
      </trkpt>
      <trkpt lat="38.509392" lon="-0.702249">
        <ele>870.7500032</ele>
        <time>2019-04-21T08:05:56.000Z</time>
      </trkpt>
      <trkpt lat="38.509383" lon="-0.702284">
        <ele>869.752477631612</ele>
        <time>2019-04-21T08:05:57.000Z</time>
      </trkpt>
      <trkpt lat="38.509375" lon="-0.70232">
        <ele>869</ele>
        <time>2019-04-21T08:05:58.000Z</time>
      </trkpt>
      <trkpt lat="38.509372" lon="-0.702357">
        <ele>869</ele>
        <time>2019-04-21T08:05:59.000Z</time>
      </trkpt>
      <trkpt lat="38.509374" lon="-0.702395">
        <ele>869</ele>
        <time>2019-04-21T08:06:00.000Z</time>
      </trkpt>
      <trkpt lat="38.509371" lon="-0.702427">
        <ele>868.5000064</ele>
        <time>2019-04-21T08:06:01.000Z</time>
      </trkpt>
      <trkpt lat="38.509364" lon="-0.702462">
        <ele>867</ele>
        <time>2019-04-21T08:06:02.000Z</time>
      </trkpt>
      <trkpt lat="38.509353" lon="-0.702495">
        <ele>867</ele>
        <time>2019-04-21T08:06:03.000Z</time>
      </trkpt>
      <trkpt lat="38.509341" lon="-0.702527">
        <ele>867</ele>
        <time>2019-04-21T08:06:04.000Z</time>
      </trkpt>
      <trkpt lat="38.509329" lon="-0.70256">
        <ele>867</ele>
        <time>2019-04-21T08:06:05.000Z</time>
      </trkpt>
      <trkpt lat="38.509316" lon="-0.702598">
        <ele>866.7500032</ele>
        <time>2019-04-21T08:06:06.000Z</time>
      </trkpt>
      <trkpt lat="38.509308" lon="-0.70264">
        <ele>865.7500032</ele>
        <time>2019-04-21T08:06:07.000Z</time>
      </trkpt>
      <trkpt lat="38.5093" lon="-0.702684">
        <ele>865</ele>
        <time>2019-04-21T08:06:08.000Z</time>
      </trkpt>
      <trkpt lat="38.509291" lon="-0.702721">
        <ele>864.807693822493</ele>
        <time>2019-04-21T08:06:09.000Z</time>
      </trkpt>
      <trkpt lat="38.509285" lon="-0.702752">
        <ele>864.038459266261</ele>
        <time>2019-04-21T08:06:10.000Z</time>
      </trkpt>
      <trkpt lat="38.509282" lon="-0.702788">
        <ele>863.806203550272</ele>
        <time>2019-04-21T08:06:11.000Z</time>
      </trkpt>
      <trkpt lat="38.50928" lon="-0.702825">
        <ele>863.031007828857</ele>
        <time>2019-04-21T08:06:12.000Z</time>
      </trkpt>
      <trkpt lat="38.509277" lon="-0.702863">
        <ele>863</ele>
        <time>2019-04-21T08:06:13.000Z</time>
      </trkpt>
      <trkpt lat="38.509278" lon="-0.702899">
        <ele>863</ele>
        <time>2019-04-21T08:06:14.000Z</time>
      </trkpt>
      <trkpt lat="38.509269" lon="-0.702935">
        <ele>863</ele>
        <time>2019-04-21T08:06:15.000Z</time>
      </trkpt>
      <trkpt lat="38.509266" lon="-0.702977">
        <ele>862.852276363636</ele>
        <time>2019-04-21T08:06:16.000Z</time>
      </trkpt>
      <trkpt lat="38.509263" lon="-0.703014">
        <ele>862</ele>
        <time>2019-04-21T08:06:17.000Z</time>
      </trkpt>
      <trkpt lat="38.50926" lon="-0.703053">
        <ele>862</ele>
        <time>2019-04-21T08:06:18.000Z</time>
      </trkpt>
      <trkpt lat="38.509255" lon="-0.703087">
        <ele>861.773201726026</ele>
        <time>2019-04-21T08:06:19.000Z</time>
      </trkpt>
      <trkpt lat="38.509245" lon="-0.703117">
        <ele>861</ele>
        <time>2019-04-21T08:06:20.000Z</time>
      </trkpt>
      <trkpt lat="38.509234" lon="-0.703143">
        <ele>861</ele>
        <time>2019-04-21T08:06:21.000Z</time>
      </trkpt>
      <trkpt lat="38.509224" lon="-0.703175">
        <ele>861</ele>
        <time>2019-04-21T08:06:22.000Z</time>
      </trkpt>
      <trkpt lat="38.509212" lon="-0.703202">
        <ele>861</ele>
        <time>2019-04-21T08:06:23.000Z</time>
      </trkpt>
      <trkpt lat="38.5092" lon="-0.703236">
        <ele>861</ele>
        <time>2019-04-21T08:06:24.000Z</time>
      </trkpt>
      <trkpt lat="38.509185" lon="-0.703269">
        <ele>861</ele>
        <time>2019-04-21T08:06:25.000Z</time>
      </trkpt>
      <trkpt lat="38.509173" lon="-0.703303">
        <ele>861</ele>
        <time>2019-04-21T08:06:26.000Z</time>
      </trkpt>
      <trkpt lat="38.509169" lon="-0.703345">
        <ele>861</ele>
        <time>2019-04-21T08:06:27.000Z</time>
      </trkpt>
      <trkpt lat="38.509163" lon="-0.703382">
        <ele>861</ele>
        <time>2019-04-21T08:06:28.000Z</time>
      </trkpt>
      <trkpt lat="38.509159" lon="-0.703423">
        <ele>860</ele>
        <time>2019-04-21T08:06:29.000Z</time>
      </trkpt>
      <trkpt lat="38.509155" lon="-0.70346">
        <ele>859.904345309648</ele>
        <time>2019-04-21T08:06:30.000Z</time>
      </trkpt>
      <trkpt lat="38.509151" lon="-0.703499">
        <ele>859.03478251191</ele>
        <time>2019-04-21T08:06:31.000Z</time>
      </trkpt>
      <trkpt lat="38.509147" lon="-0.703536">
        <ele>858.7500032</ele>
        <time>2019-04-21T08:06:32.000Z</time>
      </trkpt>
      <trkpt lat="38.509147" lon="-0.703575">
        <ele>858</ele>
        <time>2019-04-21T08:06:33.000Z</time>
      </trkpt>
      <trkpt lat="38.509138" lon="-0.703609">
        <ele>858</ele>
        <time>2019-04-21T08:06:34.000Z</time>
      </trkpt>
      <trkpt lat="38.509131" lon="-0.703641">
        <ele>858</ele>
        <time>2019-04-21T08:06:35.000Z</time>
      </trkpt>
      <trkpt lat="38.509128" lon="-0.703671">
        <ele>857.7500032</ele>
        <time>2019-04-21T08:06:36.000Z</time>
      </trkpt>
      <trkpt lat="38.50912" lon="-0.703704">
        <ele>856.761907083907</ele>
        <time>2019-04-21T08:06:37.000Z</time>
      </trkpt>
      <trkpt lat="38.509105" lon="-0.703741">
        <ele>855.789474393349</ele>
        <time>2019-04-21T08:06:38.000Z</time>
      </trkpt>
      <trkpt lat="38.509087" lon="-0.703782">
        <ele>854.778763267294</ele>
        <time>2019-04-21T08:06:39.000Z</time>
      </trkpt>
      <trkpt lat="38.509071" lon="-0.703819">
        <ele>853.862069472848</ele>
        <time>2019-04-21T08:06:40.000Z</time>
      </trkpt>
      <trkpt lat="38.509057" lon="-0.703854">
        <ele>852.7500032</ele>
        <time>2019-04-21T08:06:41.000Z</time>
      </trkpt>
      <trkpt lat="38.509048" lon="-0.703893">
        <ele>852</ele>
        <time>2019-04-21T08:06:42.000Z</time>
      </trkpt>
      <trkpt lat="38.509049" lon="-0.70393">
        <ele>852</ele>
        <time>2019-04-21T08:06:43.000Z</time>
      </trkpt>
      <trkpt lat="38.509039" lon="-0.703963">
        <ele>852</ele>
        <time>2019-04-21T08:06:44.000Z</time>
      </trkpt>
      <trkpt lat="38.50902" lon="-0.703984">
        <ele>851</ele>
        <time>2019-04-21T08:06:45.000Z</time>
      </trkpt>
      <trkpt lat="38.508996" lon="-0.703998">
        <ele>850.7500032</ele>
        <time>2019-04-21T08:06:46.000Z</time>
      </trkpt>
      <trkpt lat="38.508973" lon="-0.704024">
        <ele>850</ele>
        <time>2019-04-21T08:06:47.000Z</time>
      </trkpt>
      <trkpt lat="38.50895" lon="-0.704056">
        <ele>849.76415253828</ele>
        <time>2019-04-21T08:06:48.000Z</time>
      </trkpt>
      <trkpt lat="38.508931" lon="-0.704085">
        <ele>849</ele>
        <time>2019-04-21T08:06:49.000Z</time>
      </trkpt>
      <trkpt lat="38.508909" lon="-0.704107">
        <ele>849</ele>
        <time>2019-04-21T08:06:50.000Z</time>
      </trkpt>
      <trkpt lat="38.508894" lon="-0.704125">
        <ele>849</ele>
        <time>2019-04-21T08:06:51.000Z</time>
      </trkpt>
      <trkpt lat="38.508911" lon="-0.704136">
        <ele>852</ele>
        <time>2019-04-21T08:07:00.000Z</time>
      </trkpt>
      <trkpt lat="38.508898" lon="-0.704154">
        <ele>852</ele>
        <time>2019-04-21T08:07:07.000Z</time>
      </trkpt>
      <trkpt lat="38.50888" lon="-0.704158">
        <ele>850</ele>
        <time>2019-04-21T08:07:49.000Z</time>
      </trkpt>
      <trkpt lat="38.508894" lon="-0.704173">
        <ele>851</ele>
        <time>2019-04-21T08:09:31.000Z</time>
      </trkpt>
      <trkpt lat="38.508895" lon="-0.704198">
        <ele>849.768521481481</ele>
        <time>2019-04-21T08:09:33.000Z</time>
      </trkpt>
      <trkpt lat="38.508896" lon="-0.70423">
        <ele>849</ele>
        <time>2019-04-21T08:09:35.000Z</time>
      </trkpt>
      <trkpt lat="38.508889" lon="-0.70427">
        <ele>849</ele>
        <time>2019-04-21T08:09:37.000Z</time>
      </trkpt>
      <trkpt lat="38.508887" lon="-0.704297">
        <ele>848.768521481481</ele>
        <time>2019-04-21T08:09:38.000Z</time>
      </trkpt>
      <trkpt lat="38.508885" lon="-0.704322">
        <ele>848</ele>
        <time>2019-04-21T08:09:39.000Z</time>
      </trkpt>
      <trkpt lat="38.508885" lon="-0.704346">
        <ele>848</ele>
        <time>2019-04-21T08:09:40.000Z</time>
      </trkpt>
      <trkpt lat="38.508884" lon="-0.704388">
        <ele>848</ele>
        <time>2019-04-21T08:09:42.000Z</time>
      </trkpt>
      <trkpt lat="38.508878" lon="-0.704418">
        <ele>845.7500032</ele>
        <time>2019-04-21T08:09:44.000Z</time>
      </trkpt>
      <trkpt lat="38.508862" lon="-0.704464">
        <ele>845</ele>
        <time>2019-04-21T08:09:46.000Z</time>
      </trkpt>
      <trkpt lat="38.508855" lon="-0.704491">
        <ele>844.780703330264</ele>
        <time>2019-04-21T08:09:47.000Z</time>
      </trkpt>
      <trkpt lat="38.508852" lon="-0.704519">
        <ele>843.872090254212</ele>
        <time>2019-04-21T08:09:48.000Z</time>
      </trkpt>
      <trkpt lat="38.508855" lon="-0.704548">
        <ele>843</ele>
        <time>2019-04-21T08:09:49.000Z</time>
      </trkpt>
      <trkpt lat="38.508862" lon="-0.704571">
        <ele>843</ele>
        <time>2019-04-21T08:09:50.000Z</time>
      </trkpt>
      <trkpt lat="38.50887" lon="-0.704594">
        <ele>843</ele>
        <time>2019-04-21T08:09:51.000Z</time>
      </trkpt>
      <trkpt lat="38.508863" lon="-0.704641">
        <ele>843</ele>
        <time>2019-04-21T08:09:53.000Z</time>
      </trkpt>
      <trkpt lat="38.508855" lon="-0.704663">
        <ele>842.7500032</ele>
        <time>2019-04-21T08:09:54.000Z</time>
      </trkpt>
      <trkpt lat="38.508845" lon="-0.704699">
        <ele>841</ele>
        <time>2019-04-21T08:09:56.000Z</time>
      </trkpt>
      <trkpt lat="38.508845" lon="-0.704745">
        <ele>840.852276363636</ele>
        <time>2019-04-21T08:09:58.000Z</time>
      </trkpt>
      <trkpt lat="38.508836" lon="-0.704766">
        <ele>840</ele>
        <time>2019-04-21T08:09:59.000Z</time>
      </trkpt>
      <trkpt lat="38.508826" lon="-0.704788">
        <ele>840</ele>
        <time>2019-04-21T08:10:00.000Z</time>
      </trkpt>
      <trkpt lat="38.508815" lon="-0.70481">
        <ele>839.7500032</ele>
        <time>2019-04-21T08:10:01.000Z</time>
      </trkpt>
      <trkpt lat="38.508808" lon="-0.704833">
        <ele>839</ele>
        <time>2019-04-21T08:10:02.000Z</time>
      </trkpt>
      <trkpt lat="38.508806" lon="-0.704857">
        <ele>839</ele>
        <time>2019-04-21T08:10:03.000Z</time>
      </trkpt>
      <trkpt lat="38.50881" lon="-0.704882">
        <ele>839</ele>
        <time>2019-04-21T08:10:04.000Z</time>
      </trkpt>
      <trkpt lat="38.508812" lon="-0.704909">
        <ele>838.824176442457</ele>
        <time>2019-04-21T08:10:05.000Z</time>
      </trkpt>
      <trkpt lat="38.508812" lon="-0.704935">
        <ele>837.7500032</ele>
        <time>2019-04-21T08:10:06.000Z</time>
      </trkpt>
      <trkpt lat="38.508816" lon="-0.704964">
        <ele>836.7500032</ele>
        <time>2019-04-21T08:10:07.000Z</time>
      </trkpt>
      <trkpt lat="38.508819" lon="-0.704992">
        <ele>836</ele>
        <time>2019-04-21T08:10:08.000Z</time>
      </trkpt>
      <trkpt lat="38.50882" lon="-0.705017">
        <ele>836</ele>
        <time>2019-04-21T08:10:09.000Z</time>
      </trkpt>
      <trkpt lat="38.508831" lon="-0.705063">
        <ele>836</ele>
        <time>2019-04-21T08:10:11.000Z</time>
      </trkpt>
      <trkpt lat="38.508839" lon="-0.705088">
        <ele>835</ele>
        <time>2019-04-21T08:10:12.000Z</time>
      </trkpt>
      <trkpt lat="38.508844" lon="-0.705115">
        <ele>834.5000064</ele>
        <time>2019-04-21T08:10:13.000Z</time>
      </trkpt>
      <trkpt lat="38.508842" lon="-0.705143">
        <ele>832.7500032</ele>
        <time>2019-04-21T08:10:14.000Z</time>
      </trkpt>
      <trkpt lat="38.50884" lon="-0.705174">
        <ele>832</ele>
        <time>2019-04-21T08:10:15.000Z</time>
      </trkpt>
      <trkpt lat="38.508837" lon="-0.705204">
        <ele>832</ele>
        <time>2019-04-21T08:10:16.000Z</time>
      </trkpt>
      <trkpt lat="38.508833" lon="-0.705232">
        <ele>832</ele>
        <time>2019-04-21T08:10:17.000Z</time>
      </trkpt>
      <trkpt lat="38.508831" lon="-0.70526">
        <ele>832.147057494805</ele>
        <time>2019-04-21T08:10:18.000Z</time>
      </trkpt>
      <trkpt lat="38.508832" lon="-0.705287">
        <ele>832.735295003464</ele>
        <time>2019-04-21T08:10:19.000Z</time>
      </trkpt>
      <trkpt lat="38.508833" lon="-0.705313">
        <ele>833</ele>
        <time>2019-04-21T08:10:20.000Z</time>
      </trkpt>
      <trkpt lat="38.508833" lon="-0.705339">
        <ele>833</ele>
        <time>2019-04-21T08:10:21.000Z</time>
      </trkpt>
      <trkpt lat="38.508832" lon="-0.705366">
        <ele>832.7500032</ele>
        <time>2019-04-21T08:10:22.000Z</time>
      </trkpt>
      <trkpt lat="38.508835" lon="-0.705392">
        <ele>831.7500032</ele>
        <time>2019-04-21T08:10:23.000Z</time>
      </trkpt>
      <trkpt lat="38.508833" lon="-0.705421">
        <ele>831</ele>
        <time>2019-04-21T08:10:24.000Z</time>
      </trkpt>
      <trkpt lat="38.508834" lon="-0.705444">
        <ele>831</ele>
        <time>2019-04-21T08:10:25.000Z</time>
      </trkpt>
      <trkpt lat="38.508831" lon="-0.705492">
        <ele>830.7500032</ele>
        <time>2019-04-21T08:10:27.000Z</time>
      </trkpt>
      <trkpt lat="38.508825" lon="-0.70552">
        <ele>830</ele>
        <time>2019-04-21T08:10:28.000Z</time>
      </trkpt>
      <trkpt lat="38.50882" lon="-0.705547">
        <ele>830</ele>
        <time>2019-04-21T08:10:29.000Z</time>
      </trkpt>
      <trkpt lat="38.508814" lon="-0.705571">
        <ele>830</ele>
        <time>2019-04-21T08:10:30.000Z</time>
      </trkpt>
      <trkpt lat="38.508809" lon="-0.705596">
        <ele>830</ele>
        <time>2019-04-21T08:10:31.000Z</time>
      </trkpt>
      <trkpt lat="38.508806" lon="-0.705626">
        <ele>830</ele>
        <time>2019-04-21T08:10:33.000Z</time>
      </trkpt>
      <trkpt lat="38.508792" lon="-0.705665">
        <ele>829</ele>
        <time>2019-04-21T08:10:36.000Z</time>
      </trkpt>
      <trkpt lat="38.508789" lon="-0.70569">
        <ele>829</ele>
        <time>2019-04-21T08:10:37.000Z</time>
      </trkpt>
      <trkpt lat="38.508784" lon="-0.705719">
        <ele>829</ele>
        <time>2019-04-21T08:10:38.000Z</time>
      </trkpt>
      <trkpt lat="38.508777" lon="-0.705743">
        <ele>828</ele>
        <time>2019-04-21T08:10:39.000Z</time>
      </trkpt>
      <trkpt lat="38.508768" lon="-0.70577">
        <ele>828</ele>
        <time>2019-04-21T08:10:40.000Z</time>
      </trkpt>
      <trkpt lat="38.508757" lon="-0.705792">
        <ele>827.7500032</ele>
        <time>2019-04-21T08:10:41.000Z</time>
      </trkpt>
      <trkpt lat="38.508742" lon="-0.705814">
        <ele>826.7500032</ele>
        <time>2019-04-21T08:10:42.000Z</time>
      </trkpt>
      <trkpt lat="38.508732" lon="-0.705834">
        <ele>826</ele>
        <time>2019-04-21T08:10:43.000Z</time>
      </trkpt>
      <trkpt lat="38.50873" lon="-0.705881">
        <ele>825</ele>
        <time>2019-04-21T08:10:45.000Z</time>
      </trkpt>
      <trkpt lat="38.508735" lon="-0.705912">
        <ele>825</ele>
        <time>2019-04-21T08:10:46.000Z</time>
      </trkpt>
      <trkpt lat="38.508741" lon="-0.705939">
        <ele>825</ele>
        <time>2019-04-21T08:10:47.000Z</time>
      </trkpt>
      <trkpt lat="38.508744" lon="-0.705965">
        <ele>825</ele>
        <time>2019-04-21T08:10:48.000Z</time>
      </trkpt>
      <trkpt lat="38.508739" lon="-0.70599">
        <ele>825</ele>
        <time>2019-04-21T08:10:49.000Z</time>
      </trkpt>
      <trkpt lat="38.508733" lon="-0.706019">
        <ele>824.7500032</ele>
        <time>2019-04-21T08:10:50.000Z</time>
      </trkpt>
      <trkpt lat="38.508729" lon="-0.706049">
        <ele>823.7500032</ele>
        <time>2019-04-21T08:10:51.000Z</time>
      </trkpt>
      <trkpt lat="38.508724" lon="-0.706076">
        <ele>823</ele>
        <time>2019-04-21T08:10:52.000Z</time>
      </trkpt>
      <trkpt lat="38.508717" lon="-0.706102">
        <ele>823</ele>
        <time>2019-04-21T08:10:53.000Z</time>
      </trkpt>
      <trkpt lat="38.50871" lon="-0.706142">
        <ele>822.7500032</ele>
        <time>2019-04-21T08:10:55.000Z</time>
      </trkpt>
      <trkpt lat="38.508706" lon="-0.706189">
        <ele>822</ele>
        <time>2019-04-21T08:10:57.000Z</time>
      </trkpt>
      <trkpt lat="38.508704" lon="-0.706212">
        <ele>822</ele>
        <time>2019-04-21T08:10:58.000Z</time>
      </trkpt>
      <trkpt lat="38.508718" lon="-0.706249">
        <ele>822</ele>
        <time>2019-04-21T08:11:00.000Z</time>
      </trkpt>
      <trkpt lat="38.508735" lon="-0.706279">
        <ele>821</ele>
        <time>2019-04-21T08:11:02.000Z</time>
      </trkpt>
      <trkpt lat="38.508753" lon="-0.70632">
        <ele>821</ele>
        <time>2019-04-21T08:11:04.000Z</time>
      </trkpt>
      <trkpt lat="38.508759" lon="-0.706346">
        <ele>821</ele>
        <time>2019-04-21T08:11:05.000Z</time>
      </trkpt>
      <trkpt lat="38.508764" lon="-0.70637">
        <ele>820.7500032</ele>
        <time>2019-04-21T08:11:06.000Z</time>
      </trkpt>
      <trkpt lat="38.508766" lon="-0.706394">
        <ele>820</ele>
        <time>2019-04-21T08:11:07.000Z</time>
      </trkpt>
      <trkpt lat="38.508765" lon="-0.706419">
        <ele>819.76415253828</ele>
        <time>2019-04-21T08:11:08.000Z</time>
      </trkpt>
      <trkpt lat="38.508764" lon="-0.706445">
        <ele>819</ele>
        <time>2019-04-21T08:11:09.000Z</time>
      </trkpt>
      <trkpt lat="38.508767" lon="-0.706471">
        <ele>818.780703330264</ele>
        <time>2019-04-21T08:11:10.000Z</time>
      </trkpt>
      <trkpt lat="38.508767" lon="-0.706498">
        <ele>818</ele>
        <time>2019-04-21T08:11:11.000Z</time>
      </trkpt>
      <trkpt lat="38.508767" lon="-0.706528">
        <ele>817.7500032</ele>
        <time>2019-04-21T08:11:12.000Z</time>
      </trkpt>
      <trkpt lat="38.508769" lon="-0.706552">
        <ele>817</ele>
        <time>2019-04-21T08:11:13.000Z</time>
      </trkpt>
      <trkpt lat="38.508772" lon="-0.706576">
        <ele>817</ele>
        <time>2019-04-21T08:11:14.000Z</time>
      </trkpt>
      <trkpt lat="38.508774" lon="-0.706604">
        <ele>817</ele>
        <time>2019-04-21T08:11:15.000Z</time>
      </trkpt>
      <trkpt lat="38.508781" lon="-0.70663">
        <ele>817</ele>
        <time>2019-04-21T08:11:16.000Z</time>
      </trkpt>
      <trkpt lat="38.508786" lon="-0.706654">
        <ele>817</ele>
        <time>2019-04-21T08:11:17.000Z</time>
      </trkpt>
      <trkpt lat="38.508784" lon="-0.706699">
        <ele>816.038459266261</ele>
        <time>2019-04-21T08:11:19.000Z</time>
      </trkpt>
      <trkpt lat="38.508775" lon="-0.706722">
        <ele>816</ele>
        <time>2019-04-21T08:11:20.000Z</time>
      </trkpt>
      <trkpt lat="38.508764" lon="-0.706748">
        <ele>816</ele>
        <time>2019-04-21T08:11:21.000Z</time>
      </trkpt>
      <trkpt lat="38.508752" lon="-0.706769">
        <ele>815.7500032</ele>
        <time>2019-04-21T08:11:22.000Z</time>
      </trkpt>
      <trkpt lat="38.508736" lon="-0.70679">
        <ele>815</ele>
        <time>2019-04-21T08:11:23.000Z</time>
      </trkpt>
      <trkpt lat="38.508722" lon="-0.70681">
        <ele>814.757576541167</ele>
        <time>2019-04-21T08:11:24.000Z</time>
      </trkpt>
      <trkpt lat="38.508708" lon="-0.70683">
        <ele>814</ele>
        <time>2019-04-21T08:11:25.000Z</time>
      </trkpt>
      <trkpt lat="38.508697" lon="-0.70685">
        <ele>814</ele>
        <time>2019-04-21T08:11:26.000Z</time>
      </trkpt>
      <trkpt lat="38.50869" lon="-0.706874">
        <ele>814</ele>
        <time>2019-04-21T08:11:27.000Z</time>
      </trkpt>
      <trkpt lat="38.508683" lon="-0.706899">
        <ele>814</ele>
        <time>2019-04-21T08:11:28.000Z</time>
      </trkpt>
      <trkpt lat="38.508679" lon="-0.706924">
        <ele>814</ele>
        <time>2019-04-21T08:11:29.000Z</time>
      </trkpt>
      <trkpt lat="38.508676" lon="-0.706949">
        <ele>813.872090254212</ele>
        <time>2019-04-21T08:11:30.000Z</time>
      </trkpt>
      <trkpt lat="38.508675" lon="-0.706973">
        <ele>813</ele>
        <time>2019-04-21T08:11:31.000Z</time>
      </trkpt>
      <trkpt lat="38.508673" lon="-0.707">
        <ele>813</ele>
        <time>2019-04-21T08:11:32.000Z</time>
      </trkpt>
      <trkpt lat="38.508667" lon="-0.707022">
        <ele>812.7500032</ele>
        <time>2019-04-21T08:11:33.000Z</time>
      </trkpt>
      <trkpt lat="38.508658" lon="-0.707059">
        <ele>811.045796976833</ele>
        <time>2019-04-21T08:11:35.000Z</time>
      </trkpt>
      <trkpt lat="38.508651" lon="-0.707082">
        <ele>811</ele>
        <time>2019-04-21T08:11:36.000Z</time>
      </trkpt>
      <trkpt lat="38.50865" lon="-0.707105">
        <ele>811</ele>
        <time>2019-04-21T08:11:37.000Z</time>
      </trkpt>
      <trkpt lat="38.508656" lon="-0.707139">
        <ele>810.7500032</ele>
        <time>2019-04-21T08:11:39.000Z</time>
      </trkpt>
      <trkpt lat="38.508668" lon="-0.707175">
        <ele>810</ele>
        <time>2019-04-21T08:11:41.000Z</time>
      </trkpt>
      <trkpt lat="38.508663" lon="-0.707214">
        <ele>808.7500032</ele>
        <time>2019-04-21T08:11:43.000Z</time>
      </trkpt>
      <trkpt lat="38.508668" lon="-0.707237">
        <ele>808</ele>
        <time>2019-04-21T08:11:44.000Z</time>
      </trkpt>
      <trkpt lat="38.50867" lon="-0.707261">
        <ele>807.7500032</ele>
        <time>2019-04-21T08:11:45.000Z</time>
      </trkpt>
      <trkpt lat="38.508668" lon="-0.707288">
        <ele>807</ele>
        <time>2019-04-21T08:11:46.000Z</time>
      </trkpt>
      <trkpt lat="38.508679" lon="-0.707309">
        <ele>807</ele>
        <time>2019-04-21T08:11:47.000Z</time>
      </trkpt>
      <trkpt lat="38.508683" lon="-0.707332">
        <ele>807</ele>
        <time>2019-04-21T08:11:48.000Z</time>
      </trkpt>
      <trkpt lat="38.508695" lon="-0.707375">
        <ele>807</ele>
        <time>2019-04-21T08:11:50.000Z</time>
      </trkpt>
      <trkpt lat="38.508699" lon="-0.707401">
        <ele>806.770644464277</ele>
        <time>2019-04-21T08:11:51.000Z</time>
      </trkpt>
      <trkpt lat="38.508699" lon="-0.707426">
        <ele>805.824176442457</ele>
        <time>2019-04-21T08:11:52.000Z</time>
      </trkpt>
      <trkpt lat="38.508697" lon="-0.707453">
        <ele>805</ele>
        <time>2019-04-21T08:11:53.000Z</time>
      </trkpt>
      <trkpt lat="38.508695" lon="-0.707496">
        <ele>805</ele>
        <time>2019-04-21T08:11:55.000Z</time>
      </trkpt>
      <trkpt lat="38.508704" lon="-0.707539">
        <ele>805</ele>
        <time>2019-04-21T08:11:57.000Z</time>
      </trkpt>
      <trkpt lat="38.508715" lon="-0.707582">
        <ele>806</ele>
        <time>2019-04-21T08:11:59.000Z</time>
      </trkpt>
      <trkpt lat="38.508713" lon="-0.707607">
        <ele>805.7500032</ele>
        <time>2019-04-21T08:12:00.000Z</time>
      </trkpt>
      <trkpt lat="38.508713" lon="-0.707634">
        <ele>804.7500032</ele>
        <time>2019-04-21T08:12:01.000Z</time>
      </trkpt>
      <trkpt lat="38.508719" lon="-0.707658">
        <ele>804</ele>
        <time>2019-04-21T08:12:02.000Z</time>
      </trkpt>
      <trkpt lat="38.508723" lon="-0.707684">
        <ele>804</ele>
        <time>2019-04-21T08:12:03.000Z</time>
      </trkpt>
      <trkpt lat="38.508727" lon="-0.70771">
        <ele>803.757576541167</ele>
        <time>2019-04-21T08:12:04.000Z</time>
      </trkpt>
      <trkpt lat="38.508725" lon="-0.707736">
        <ele>802.7500032</ele>
        <time>2019-04-21T08:12:05.000Z</time>
      </trkpt>
      <trkpt lat="38.508728" lon="-0.707763">
        <ele>801.7500032</ele>
        <time>2019-04-21T08:12:06.000Z</time>
      </trkpt>
      <trkpt lat="38.508723" lon="-0.707791">
        <ele>801</ele>
        <time>2019-04-21T08:12:07.000Z</time>
      </trkpt>
      <trkpt lat="38.508716" lon="-0.707817">
        <ele>800.776788571429</ele>
        <time>2019-04-21T08:12:08.000Z</time>
      </trkpt>
      <trkpt lat="38.508707" lon="-0.707856">
        <ele>799.7500032</ele>
        <time>2019-04-21T08:12:10.000Z</time>
      </trkpt>
      <trkpt lat="38.508702" lon="-0.70788">
        <ele>799</ele>
        <time>2019-04-21T08:12:11.000Z</time>
      </trkpt>
      <trkpt lat="38.508697" lon="-0.707903">
        <ele>799</ele>
        <time>2019-04-21T08:12:12.000Z</time>
      </trkpt>
      <trkpt lat="38.508699" lon="-0.707946">
        <ele>798.7500032</ele>
        <time>2019-04-21T08:12:14.000Z</time>
      </trkpt>
      <trkpt lat="38.508705" lon="-0.707972">
        <ele>798</ele>
        <time>2019-04-21T08:12:15.000Z</time>
      </trkpt>
      <trkpt lat="38.508707" lon="-0.707999">
        <ele>798</ele>
        <time>2019-04-21T08:12:16.000Z</time>
      </trkpt>
      <trkpt lat="38.508699" lon="-0.708029">
        <ele>798</ele>
        <time>2019-04-21T08:12:17.000Z</time>
      </trkpt>
      <trkpt lat="38.508693" lon="-0.708059">
        <ele>798</ele>
        <time>2019-04-21T08:12:18.000Z</time>
      </trkpt>
      <trkpt lat="38.508686" lon="-0.708088">
        <ele>797.807693822493</ele>
        <time>2019-04-21T08:12:19.000Z</time>
      </trkpt>
      <trkpt lat="38.508683" lon="-0.708121">
        <ele>797.038459266261</ele>
        <time>2019-04-21T08:12:20.000Z</time>
      </trkpt>
      <trkpt lat="38.508683" lon="-0.708154">
        <ele>796.7500032</ele>
        <time>2019-04-21T08:12:21.000Z</time>
      </trkpt>
      <trkpt lat="38.50868" lon="-0.708185">
        <ele>796</ele>
        <time>2019-04-21T08:12:22.000Z</time>
      </trkpt>
      <trkpt lat="38.508672" lon="-0.708228">
        <ele>796</ele>
        <time>2019-04-21T08:12:24.000Z</time>
      </trkpt>
      <trkpt lat="38.508671" lon="-0.708254">
        <ele>795.806446729152</ele>
        <time>2019-04-21T08:12:25.000Z</time>
      </trkpt>
      <trkpt lat="38.508657" lon="-0.708279">
        <ele>795</ele>
        <time>2019-04-21T08:12:26.000Z</time>
      </trkpt>
      <trkpt lat="38.508643" lon="-0.708305">
        <ele>795</ele>
        <time>2019-04-21T08:12:27.000Z</time>
      </trkpt>
      <trkpt lat="38.508631" lon="-0.70833">
        <ele>795</ele>
        <time>2019-04-21T08:12:28.000Z</time>
      </trkpt>
      <trkpt lat="38.508628" lon="-0.708359">
        <ele>795</ele>
        <time>2019-04-21T08:12:29.000Z</time>
      </trkpt>
      <trkpt lat="38.508625" lon="-0.70839">
        <ele>794.7500032</ele>
        <time>2019-04-21T08:12:30.000Z</time>
      </trkpt>
      <trkpt lat="38.508628" lon="-0.708417">
        <ele>794</ele>
        <time>2019-04-21T08:12:31.000Z</time>
      </trkpt>
      <trkpt lat="38.508637" lon="-0.708445">
        <ele>794</ele>
        <time>2019-04-21T08:12:32.000Z</time>
      </trkpt>
      <trkpt lat="38.508648" lon="-0.708473">
        <ele>794</ele>
        <time>2019-04-21T08:12:33.000Z</time>
      </trkpt>
      <trkpt lat="38.508654" lon="-0.708505">
        <ele>793.7500032</ele>
        <time>2019-04-21T08:12:34.000Z</time>
      </trkpt>
      <trkpt lat="38.508657" lon="-0.708537">
        <ele>793</ele>
        <time>2019-04-21T08:12:35.000Z</time>
      </trkpt>
      <trkpt lat="38.508657" lon="-0.708577">
        <ele>792.766356034596</ele>
        <time>2019-04-21T08:12:36.000Z</time>
      </trkpt>
      <trkpt lat="38.508658" lon="-0.708653">
        <ele>791.7500032</ele>
        <time>2019-04-21T08:12:38.000Z</time>
      </trkpt>
      <trkpt lat="38.50866" lon="-0.708686">
        <ele>791</ele>
        <time>2019-04-21T08:12:39.000Z</time>
      </trkpt>
      <trkpt lat="38.508645" lon="-0.708718">
        <ele>791</ele>
        <time>2019-04-21T08:12:40.000Z</time>
      </trkpt>
      <trkpt lat="38.508635" lon="-0.708747">
        <ele>791</ele>
        <time>2019-04-21T08:12:41.000Z</time>
      </trkpt>
      <trkpt lat="38.508634" lon="-0.708779">
        <ele>791</ele>
        <time>2019-04-21T08:12:42.000Z</time>
      </trkpt>
      <trkpt lat="38.50864" lon="-0.70881">
        <ele>791</ele>
        <time>2019-04-21T08:12:43.000Z</time>
      </trkpt>
      <trkpt lat="38.508642" lon="-0.708841">
        <ele>791</ele>
        <time>2019-04-21T08:12:44.000Z</time>
      </trkpt>
      <trkpt lat="38.508648" lon="-0.708868">
        <ele>791</ele>
        <time>2019-04-21T08:12:45.000Z</time>
      </trkpt>
      <trkpt lat="38.508656" lon="-0.708895">
        <ele>791</ele>
        <time>2019-04-21T08:12:46.000Z</time>
      </trkpt>
      <trkpt lat="38.508665" lon="-0.708927">
        <ele>791</ele>
        <time>2019-04-21T08:12:47.000Z</time>
      </trkpt>
      <trkpt lat="38.508672" lon="-0.70896">
        <ele>791</ele>
        <time>2019-04-21T08:12:48.000Z</time>
      </trkpt>
      <trkpt lat="38.508685" lon="-0.708993">
        <ele>791</ele>
        <time>2019-04-21T08:12:49.000Z</time>
      </trkpt>
      <trkpt lat="38.508695" lon="-0.709024">
        <ele>791</ele>
        <time>2019-04-21T08:12:50.000Z</time>
      </trkpt>
      <trkpt lat="38.508698" lon="-0.709056">
        <ele>791</ele>
        <time>2019-04-21T08:12:51.000Z</time>
      </trkpt>
      <trkpt lat="38.508698" lon="-0.709088">
        <ele>791</ele>
        <time>2019-04-21T08:12:52.000Z</time>
      </trkpt>
      <trkpt lat="38.508699" lon="-0.709119">
        <ele>791</ele>
        <time>2019-04-21T08:12:53.000Z</time>
      </trkpt>
      <trkpt lat="38.508699" lon="-0.709146">
        <ele>791</ele>
        <time>2019-04-21T08:12:54.000Z</time>
      </trkpt>
      <trkpt lat="38.508702" lon="-0.709174">
        <ele>791</ele>
        <time>2019-04-21T08:12:55.000Z</time>
      </trkpt>
      <trkpt lat="38.508704" lon="-0.709204">
        <ele>791</ele>
        <time>2019-04-21T08:12:56.000Z</time>
      </trkpt>
      <trkpt lat="38.508727" lon="-0.709316">
        <ele>791</ele>
        <time>2019-04-21T08:13:00.000Z</time>
      </trkpt>
      <trkpt lat="38.50872" lon="-0.709413">
        <ele>791</ele>
        <time>2019-04-21T08:13:03.000Z</time>
      </trkpt>
      <trkpt lat="38.508715" lon="-0.709443">
        <ele>791</ele>
        <time>2019-04-21T08:13:04.000Z</time>
      </trkpt>
      <trkpt lat="38.508717" lon="-0.70947">
        <ele>791</ele>
        <time>2019-04-21T08:13:05.000Z</time>
      </trkpt>
      <trkpt lat="38.508725" lon="-0.709495">
        <ele>791</ele>
        <time>2019-04-21T08:13:06.000Z</time>
      </trkpt>
      <trkpt lat="38.508736" lon="-0.709519">
        <ele>791</ele>
        <time>2019-04-21T08:13:07.000Z</time>
      </trkpt>
      <trkpt lat="38.508743" lon="-0.709547">
        <ele>791</ele>
        <time>2019-04-21T08:13:08.000Z</time>
      </trkpt>
      <trkpt lat="38.508755" lon="-0.709569">
        <ele>791</ele>
        <time>2019-04-21T08:13:09.000Z</time>
      </trkpt>
      <trkpt lat="38.508763" lon="-0.709598">
        <ele>791</ele>
        <time>2019-04-21T08:13:10.000Z</time>
      </trkpt>
      <trkpt lat="38.508776" lon="-0.709626">
        <ele>791</ele>
        <time>2019-04-21T08:13:11.000Z</time>
      </trkpt>
      <trkpt lat="38.508788" lon="-0.709658">
        <ele>791.2499968</ele>
        <time>2019-04-21T08:13:12.000Z</time>
      </trkpt>
      <trkpt lat="38.5088" lon="-0.709688">
        <ele>792</ele>
        <time>2019-04-21T08:13:13.000Z</time>
      </trkpt>
      <trkpt lat="38.508814" lon="-0.709714">
        <ele>792</ele>
        <time>2019-04-21T08:13:14.000Z</time>
      </trkpt>
      <trkpt lat="38.508821" lon="-0.709739">
        <ele>792</ele>
        <time>2019-04-21T08:13:15.000Z</time>
      </trkpt>
      <trkpt lat="38.508827" lon="-0.709769">
        <ele>792</ele>
        <time>2019-04-21T08:13:16.000Z</time>
      </trkpt>
      <trkpt lat="38.508836" lon="-0.709796">
        <ele>792</ele>
        <time>2019-04-21T08:13:17.000Z</time>
      </trkpt>
      <trkpt lat="38.508841" lon="-0.709819">
        <ele>792</ele>
        <time>2019-04-21T08:13:18.000Z</time>
      </trkpt>
      <trkpt lat="38.508846" lon="-0.709862">
        <ele>792</ele>
        <time>2019-04-21T08:13:20.000Z</time>
      </trkpt>
      <trkpt lat="38.508855" lon="-0.70991">
        <ele>792</ele>
        <time>2019-04-21T08:13:22.000Z</time>
      </trkpt>
      <trkpt lat="38.508868" lon="-0.709935">
        <ele>791.807693822493</ele>
        <time>2019-04-21T08:13:23.000Z</time>
      </trkpt>
      <trkpt lat="38.508879" lon="-0.70996">
        <ele>791.038459266261</ele>
        <time>2019-04-21T08:13:24.000Z</time>
      </trkpt>
      <trkpt lat="38.50889" lon="-0.709984">
        <ele>790.7500032</ele>
        <time>2019-04-21T08:13:25.000Z</time>
      </trkpt>
      <trkpt lat="38.508902" lon="-0.710009">
        <ele>790</ele>
        <time>2019-04-21T08:13:26.000Z</time>
      </trkpt>
      <trkpt lat="38.508915" lon="-0.71003">
        <ele>790</ele>
        <time>2019-04-21T08:13:27.000Z</time>
      </trkpt>
      <trkpt lat="38.508925" lon="-0.71005">
        <ele>789.806203550272</ele>
        <time>2019-04-21T08:13:28.000Z</time>
      </trkpt>
      <trkpt lat="38.508937" lon="-0.710068">
        <ele>789.031007828857</ele>
        <time>2019-04-21T08:13:29.000Z</time>
      </trkpt>
      <trkpt lat="38.508951" lon="-0.710088">
        <ele>789</ele>
        <time>2019-04-21T08:13:30.000Z</time>
      </trkpt>
      <trkpt lat="38.508976" lon="-0.71012">
        <ele>788.7500032</ele>
        <time>2019-04-21T08:13:32.000Z</time>
      </trkpt>
      <trkpt lat="38.508985" lon="-0.710162">
        <ele>788</ele>
        <time>2019-04-21T08:13:34.000Z</time>
      </trkpt>
      <trkpt lat="38.508986" lon="-0.710188">
        <ele>787.7500032</ele>
        <time>2019-04-21T08:13:35.000Z</time>
      </trkpt>
      <trkpt lat="38.508989" lon="-0.710212">
        <ele>787</ele>
        <time>2019-04-21T08:13:36.000Z</time>
      </trkpt>
      <trkpt lat="38.508994" lon="-0.710239">
        <ele>786.757282397972</ele>
        <time>2019-04-21T08:13:37.000Z</time>
      </trkpt>
      <trkpt lat="38.509002" lon="-0.710264">
        <ele>786</ele>
        <time>2019-04-21T08:13:38.000Z</time>
      </trkpt>
      <trkpt lat="38.509012" lon="-0.710289">
        <ele>785.7500032</ele>
        <time>2019-04-21T08:13:39.000Z</time>
      </trkpt>
      <trkpt lat="38.509023" lon="-0.710315">
        <ele>785</ele>
        <time>2019-04-21T08:13:40.000Z</time>
      </trkpt>
      <trkpt lat="38.509033" lon="-0.710345">
        <ele>784.797870312372</ele>
        <time>2019-04-21T08:13:41.000Z</time>
      </trkpt>
      <trkpt lat="38.509041" lon="-0.710372">
        <ele>784</ele>
        <time>2019-04-21T08:13:42.000Z</time>
      </trkpt>
      <trkpt lat="38.509059" lon="-0.710393">
        <ele>784</ele>
        <time>2019-04-21T08:13:43.000Z</time>
      </trkpt>
      <trkpt lat="38.509081" lon="-0.710407">
        <ele>783.7500032</ele>
        <time>2019-04-21T08:13:44.000Z</time>
      </trkpt>
      <trkpt lat="38.5091" lon="-0.71042">
        <ele>783</ele>
        <time>2019-04-21T08:13:45.000Z</time>
      </trkpt>
      <trkpt lat="38.509121" lon="-0.710429">
        <ele>783</ele>
        <time>2019-04-21T08:13:46.000Z</time>
      </trkpt>
      <trkpt lat="38.509141" lon="-0.710437">
        <ele>783</ele>
        <time>2019-04-21T08:13:47.000Z</time>
      </trkpt>
      <trkpt lat="38.509159" lon="-0.710446">
        <ele>782.04</ele>
        <time>2019-04-21T08:13:48.000Z</time>
      </trkpt>
      <trkpt lat="38.509188" lon="-0.710467">
        <ele>781.781253333333</ele>
        <time>2019-04-21T08:13:50.000Z</time>
      </trkpt>
      <trkpt lat="38.509206" lon="-0.710477">
        <ele>781</ele>
        <time>2019-04-21T08:13:51.000Z</time>
      </trkpt>
      <trkpt lat="38.509225" lon="-0.710485">
        <ele>780.757576541167</ele>
        <time>2019-04-21T08:13:52.000Z</time>
      </trkpt>
      <trkpt lat="38.509241" lon="-0.710496">
        <ele>780</ele>
        <time>2019-04-21T08:13:53.000Z</time>
      </trkpt>
      <trkpt lat="38.509256" lon="-0.710509">
        <ele>780</ele>
        <time>2019-04-21T08:13:54.000Z</time>
      </trkpt>
      <trkpt lat="38.509276" lon="-0.710517">
        <ele>780</ele>
        <time>2019-04-21T08:13:55.000Z</time>
      </trkpt>
      <trkpt lat="38.509293" lon="-0.710525">
        <ele>779.752477631612</ele>
        <time>2019-04-21T08:13:56.000Z</time>
      </trkpt>
      <trkpt lat="38.509321" lon="-0.71055">
        <ele>778.7500032</ele>
        <time>2019-04-21T08:13:58.000Z</time>
      </trkpt>
      <trkpt lat="38.509333" lon="-0.710568">
        <ele>778</ele>
        <time>2019-04-21T08:13:59.000Z</time>
      </trkpt>
      <trkpt lat="38.509345" lon="-0.710609">
        <ele>778</ele>
        <time>2019-04-21T08:14:01.000Z</time>
      </trkpt>
      <trkpt lat="38.50935" lon="-0.710633">
        <ele>778</ele>
        <time>2019-04-21T08:14:02.000Z</time>
      </trkpt>
      <trkpt lat="38.509349" lon="-0.710656">
        <ele>777.7500032</ele>
        <time>2019-04-21T08:14:03.000Z</time>
      </trkpt>
      <trkpt lat="38.509348" lon="-0.71068">
        <ele>776.7500032</ele>
        <time>2019-04-21T08:14:04.000Z</time>
      </trkpt>
      <trkpt lat="38.509356" lon="-0.710722">
        <ele>775.807693822493</ele>
        <time>2019-04-21T08:14:06.000Z</time>
      </trkpt>
      <trkpt lat="38.509366" lon="-0.710743">
        <ele>775.038459266261</ele>
        <time>2019-04-21T08:14:07.000Z</time>
      </trkpt>
      <trkpt lat="38.509378" lon="-0.71076">
        <ele>774</ele>
        <time>2019-04-21T08:14:08.000Z</time>
      </trkpt>
      <trkpt lat="38.509405" lon="-0.710791">
        <ele>773</ele>
        <time>2019-04-21T08:14:10.000Z</time>
      </trkpt>
      <trkpt lat="38.509416" lon="-0.710812">
        <ele>773</ele>
        <time>2019-04-21T08:14:11.000Z</time>
      </trkpt>
      <trkpt lat="38.509426" lon="-0.710837">
        <ele>773</ele>
        <time>2019-04-21T08:14:12.000Z</time>
      </trkpt>
      <trkpt lat="38.50943" lon="-0.71086">
        <ele>773</ele>
        <time>2019-04-21T08:14:13.000Z</time>
      </trkpt>
      <trkpt lat="38.509423" lon="-0.710904">
        <ele>772.053032727273</ele>
        <time>2019-04-21T08:14:15.000Z</time>
      </trkpt>
      <trkpt lat="38.509413" lon="-0.710929">
        <ele>770.7500032</ele>
        <time>2019-04-21T08:14:16.000Z</time>
      </trkpt>
      <trkpt lat="38.509402" lon="-0.710949">
        <ele>769.7500032</ele>
        <time>2019-04-21T08:14:17.000Z</time>
      </trkpt>
      <trkpt lat="38.509388" lon="-0.710963">
        <ele>769</ele>
        <time>2019-04-21T08:14:18.000Z</time>
      </trkpt>
      <trkpt lat="38.509373" lon="-0.710978">
        <ele>769</ele>
        <time>2019-04-21T08:14:19.000Z</time>
      </trkpt>
      <trkpt lat="38.50936" lon="-0.710995">
        <ele>768.824176442457</ele>
        <time>2019-04-21T08:14:20.000Z</time>
      </trkpt>
      <trkpt lat="38.509336" lon="-0.711029">
        <ele>768</ele>
        <time>2019-04-21T08:14:22.000Z</time>
      </trkpt>
      <trkpt lat="38.509313" lon="-0.711063">
        <ele>768</ele>
        <time>2019-04-21T08:14:24.000Z</time>
      </trkpt>
      <trkpt lat="38.509301" lon="-0.711082">
        <ele>768</ele>
        <time>2019-04-21T08:14:25.000Z</time>
      </trkpt>
      <trkpt lat="38.509288" lon="-0.711099">
        <ele>768</ele>
        <time>2019-04-21T08:14:26.000Z</time>
      </trkpt>
      <trkpt lat="38.509275" lon="-0.711115">
        <ele>767</ele>
        <time>2019-04-21T08:14:27.000Z</time>
      </trkpt>
      <trkpt lat="38.509262" lon="-0.711136">
        <ele>766.562506666667</ele>
        <time>2019-04-21T08:14:28.000Z</time>
      </trkpt>
      <trkpt lat="38.50925" lon="-0.711156">
        <ele>764.768521481481</ele>
        <time>2019-04-21T08:14:29.000Z</time>
      </trkpt>
      <trkpt lat="38.50924" lon="-0.711176">
        <ele>764</ele>
        <time>2019-04-21T08:14:30.000Z</time>
      </trkpt>
      <trkpt lat="38.509228" lon="-0.711196">
        <ele>764</ele>
        <time>2019-04-21T08:14:31.000Z</time>
      </trkpt>
      <trkpt lat="38.509217" lon="-0.711219">
        <ele>764</ele>
        <time>2019-04-21T08:14:32.000Z</time>
      </trkpt>
      <trkpt lat="38.509207" lon="-0.711242">
        <ele>764</ele>
        <time>2019-04-21T08:14:33.000Z</time>
      </trkpt>
      <trkpt lat="38.5092" lon="-0.711269">
        <ele>764</ele>
        <time>2019-04-21T08:14:34.000Z</time>
      </trkpt>
      <trkpt lat="38.509191" lon="-0.711297">
        <ele>764</ele>
        <time>2019-04-21T08:14:35.000Z</time>
      </trkpt>
      <trkpt lat="38.509183" lon="-0.711324">
        <ele>764</ele>
        <time>2019-04-21T08:14:36.000Z</time>
      </trkpt>
      <trkpt lat="38.509177" lon="-0.71135">
        <ele>764</ele>
        <time>2019-04-21T08:14:37.000Z</time>
      </trkpt>
      <trkpt lat="38.509173" lon="-0.711374">
        <ele>763.7500032</ele>
        <time>2019-04-21T08:14:38.000Z</time>
      </trkpt>
      <trkpt lat="38.509167" lon="-0.711397">
        <ele>762.752477631612</ele>
        <time>2019-04-21T08:14:39.000Z</time>
      </trkpt>
      <trkpt lat="38.509159" lon="-0.711419">
        <ele>761.816794340655</ele>
        <time>2019-04-21T08:14:40.000Z</time>
      </trkpt>
      <trkpt lat="38.509151" lon="-0.711445">
        <ele>761.053437426718</ele>
        <time>2019-04-21T08:14:41.000Z</time>
      </trkpt>
      <trkpt lat="38.509144" lon="-0.711471">
        <ele>759.7500032</ele>
        <time>2019-04-21T08:14:42.000Z</time>
      </trkpt>
      <trkpt lat="38.509136" lon="-0.711497">
        <ele>758.7500032</ele>
        <time>2019-04-21T08:14:43.000Z</time>
      </trkpt>
      <trkpt lat="38.509131" lon="-0.711525">
        <ele>758</ele>
        <time>2019-04-21T08:14:44.000Z</time>
      </trkpt>
      <trkpt lat="38.509128" lon="-0.711552">
        <ele>758</ele>
        <time>2019-04-21T08:14:45.000Z</time>
      </trkpt>
      <trkpt lat="38.509126" lon="-0.71158">
        <ele>758</ele>
        <time>2019-04-21T08:14:46.000Z</time>
      </trkpt>
      <trkpt lat="38.509122" lon="-0.711606">
        <ele>758</ele>
        <time>2019-04-21T08:14:47.000Z</time>
      </trkpt>
      <trkpt lat="38.509119" lon="-0.711632">
        <ele>757.7500032</ele>
        <time>2019-04-21T08:14:48.000Z</time>
      </trkpt>
      <trkpt lat="38.509119" lon="-0.711657">
        <ele>757</ele>
        <time>2019-04-21T08:14:49.000Z</time>
      </trkpt>
      <trkpt lat="38.50912" lon="-0.711685">
        <ele>756.7500032</ele>
        <time>2019-04-21T08:14:50.000Z</time>
      </trkpt>
      <trkpt lat="38.509117" lon="-0.711714">
        <ele>756</ele>
        <time>2019-04-21T08:14:51.000Z</time>
      </trkpt>
      <trkpt lat="38.509109" lon="-0.711743">
        <ele>756</ele>
        <time>2019-04-21T08:14:52.000Z</time>
      </trkpt>
      <trkpt lat="38.509103" lon="-0.711774">
        <ele>756</ele>
        <time>2019-04-21T08:14:53.000Z</time>
      </trkpt>
      <trkpt lat="38.509096" lon="-0.711805">
        <ele>756</ele>
        <time>2019-04-21T08:14:54.000Z</time>
      </trkpt>
      <trkpt lat="38.509093" lon="-0.711833">
        <ele>756</ele>
        <time>2019-04-21T08:14:55.000Z</time>
      </trkpt>
      <trkpt lat="38.509087" lon="-0.711863">
        <ele>755.7500032</ele>
        <time>2019-04-21T08:14:56.000Z</time>
      </trkpt>
      <trkpt lat="38.509083" lon="-0.711896">
        <ele>754.757282397972</ele>
        <time>2019-04-21T08:14:57.000Z</time>
      </trkpt>
      <trkpt lat="38.509081" lon="-0.71193">
        <ele>754</ele>
        <time>2019-04-21T08:14:58.000Z</time>
      </trkpt>
      <trkpt lat="38.509079" lon="-0.711963">
        <ele>754</ele>
        <time>2019-04-21T08:14:59.000Z</time>
      </trkpt>
      <trkpt lat="38.509069" lon="-0.711988">
        <ele>754</ele>
        <time>2019-04-21T08:15:00.000Z</time>
      </trkpt>
      <trkpt lat="38.509053" lon="-0.712011">
        <ele>754</ele>
        <time>2019-04-21T08:15:01.000Z</time>
      </trkpt>
      <trkpt lat="38.509038" lon="-0.712025">
        <ele>754</ele>
        <time>2019-04-21T08:15:02.000Z</time>
      </trkpt>
      <trkpt lat="38.509013" lon="-0.712004">
        <ele>751.125870495354</ele>
        <time>2019-04-21T08:15:04.000Z</time>
      </trkpt>
      <trkpt lat="38.509008" lon="-0.711981">
        <ele>751</ele>
        <time>2019-04-21T08:15:05.000Z</time>
      </trkpt>
      <trkpt lat="38.509" lon="-0.711935">
        <ele>751</ele>
        <time>2019-04-21T08:15:07.000Z</time>
      </trkpt>
      <trkpt lat="38.508992" lon="-0.711895">
        <ele>751.2499968</ele>
        <time>2019-04-21T08:15:09.000Z</time>
      </trkpt>
      <trkpt lat="38.509" lon="-0.711852">
        <ele>753</ele>
        <time>2019-04-21T08:15:11.000Z</time>
      </trkpt>
      <trkpt lat="38.508987" lon="-0.711818">
        <ele>753</ele>
        <time>2019-04-21T08:15:13.000Z</time>
      </trkpt>
      <trkpt lat="38.508982" lon="-0.711792">
        <ele>752.842691135017</ele>
        <time>2019-04-21T08:15:14.000Z</time>
      </trkpt>
      <trkpt lat="38.508978" lon="-0.711761">
        <ele>751.7500032</ele>
        <time>2019-04-21T08:15:15.000Z</time>
      </trkpt>
      <trkpt lat="38.508977" lon="-0.711729">
        <ele>751</ele>
        <time>2019-04-21T08:15:16.000Z</time>
      </trkpt>
      <trkpt lat="38.508972" lon="-0.711699">
        <ele>751</ele>
        <time>2019-04-21T08:15:17.000Z</time>
      </trkpt>
      <trkpt lat="38.508965" lon="-0.711673">
        <ele>751</ele>
        <time>2019-04-21T08:15:18.000Z</time>
      </trkpt>
      <trkpt lat="38.508962" lon="-0.71165">
        <ele>751</ele>
        <time>2019-04-21T08:15:19.000Z</time>
      </trkpt>
      <trkpt lat="38.508953" lon="-0.711625">
        <ele>751</ele>
        <time>2019-04-21T08:15:20.000Z</time>
      </trkpt>
      <trkpt lat="38.50894" lon="-0.711603">
        <ele>751.242717602028</ele>
        <time>2019-04-21T08:15:21.000Z</time>
      </trkpt>
      <trkpt lat="38.508925" lon="-0.711583">
        <ele>752</ele>
        <time>2019-04-21T08:15:22.000Z</time>
      </trkpt>
      <trkpt lat="38.508914" lon="-0.711562">
        <ele>752</ele>
        <time>2019-04-21T08:15:23.000Z</time>
      </trkpt>
      <trkpt lat="38.508903" lon="-0.711538">
        <ele>752</ele>
        <time>2019-04-21T08:15:24.000Z</time>
      </trkpt>
      <trkpt lat="38.508891" lon="-0.711514">
        <ele>752</ele>
        <time>2019-04-21T08:15:25.000Z</time>
      </trkpt>
      <trkpt lat="38.508879" lon="-0.71149">
        <ele>752</ele>
        <time>2019-04-21T08:15:26.000Z</time>
      </trkpt>
      <trkpt lat="38.508864" lon="-0.711469">
        <ele>752</ele>
        <time>2019-04-21T08:15:27.000Z</time>
      </trkpt>
      <trkpt lat="38.508847" lon="-0.711449">
        <ele>752</ele>
        <time>2019-04-21T08:15:28.000Z</time>
      </trkpt>
      <trkpt lat="38.508828" lon="-0.711434">
        <ele>752</ele>
        <time>2019-04-21T08:15:29.000Z</time>
      </trkpt>
      <trkpt lat="38.508811" lon="-0.711422">
        <ele>752</ele>
        <time>2019-04-21T08:15:30.000Z</time>
      </trkpt>
      <trkpt lat="38.508793" lon="-0.711414">
        <ele>752</ele>
        <time>2019-04-21T08:15:31.000Z</time>
      </trkpt>
      <trkpt lat="38.508756" lon="-0.711413">
        <ele>752</ele>
        <time>2019-04-21T08:15:33.000Z</time>
      </trkpt>
      <trkpt lat="38.508739" lon="-0.711407">
        <ele>752</ele>
        <time>2019-04-21T08:15:34.000Z</time>
      </trkpt>
      <trkpt lat="38.508722" lon="-0.711392">
        <ele>752</ele>
        <time>2019-04-21T08:15:35.000Z</time>
      </trkpt>
      <trkpt lat="38.508689" lon="-0.711368">
        <ele>752</ele>
        <time>2019-04-21T08:15:37.000Z</time>
      </trkpt>
      <trkpt lat="38.508667" lon="-0.711361">
        <ele>752</ele>
        <time>2019-04-21T08:15:38.000Z</time>
      </trkpt>
      <trkpt lat="38.508649" lon="-0.711356">
        <ele>752</ele>
        <time>2019-04-21T08:15:39.000Z</time>
      </trkpt>
      <trkpt lat="38.508626" lon="-0.711344">
        <ele>752</ele>
        <time>2019-04-21T08:15:40.000Z</time>
      </trkpt>
      <trkpt lat="38.508606" lon="-0.711334">
        <ele>752</ele>
        <time>2019-04-21T08:15:41.000Z</time>
      </trkpt>
      <trkpt lat="38.508586" lon="-0.711332">
        <ele>752</ele>
        <time>2019-04-21T08:15:42.000Z</time>
      </trkpt>
      <trkpt lat="38.508563" lon="-0.711332">
        <ele>752</ele>
        <time>2019-04-21T08:15:43.000Z</time>
      </trkpt>
      <trkpt lat="38.508541" lon="-0.711329">
        <ele>752</ele>
        <time>2019-04-21T08:15:44.000Z</time>
      </trkpt>
      <trkpt lat="38.508512" lon="-0.71131">
        <ele>753</ele>
        <time>2019-04-21T08:15:46.000Z</time>
      </trkpt>
      <trkpt lat="38.508493" lon="-0.711295">
        <ele>753</ele>
        <time>2019-04-21T08:15:47.000Z</time>
      </trkpt>
      <trkpt lat="38.508473" lon="-0.711285">
        <ele>753</ele>
        <time>2019-04-21T08:15:48.000Z</time>
      </trkpt>
      <trkpt lat="38.508453" lon="-0.711279">
        <ele>753</ele>
        <time>2019-04-21T08:15:49.000Z</time>
      </trkpt>
      <trkpt lat="38.508432" lon="-0.711276">
        <ele>753</ele>
        <time>2019-04-21T08:15:50.000Z</time>
      </trkpt>
      <trkpt lat="38.508412" lon="-0.711273">
        <ele>753</ele>
        <time>2019-04-21T08:15:51.000Z</time>
      </trkpt>
      <trkpt lat="38.508391" lon="-0.711275">
        <ele>753</ele>
        <time>2019-04-21T08:15:52.000Z</time>
      </trkpt>
      <trkpt lat="38.508368" lon="-0.711278">
        <ele>753</ele>
        <time>2019-04-21T08:15:53.000Z</time>
      </trkpt>
      <trkpt lat="38.508344" lon="-0.711279">
        <ele>753.137930527152</ele>
        <time>2019-04-21T08:15:54.000Z</time>
      </trkpt>
      <trkpt lat="38.508321" lon="-0.711283">
        <ele>754</ele>
        <time>2019-04-21T08:15:55.000Z</time>
      </trkpt>
      <trkpt lat="38.508296" lon="-0.711291">
        <ele>754</ele>
        <time>2019-04-21T08:15:56.000Z</time>
      </trkpt>
      <trkpt lat="38.508277" lon="-0.711303">
        <ele>754</ele>
        <time>2019-04-21T08:15:57.000Z</time>
      </trkpt>
      <trkpt lat="38.508255" lon="-0.711316">
        <ele>754</ele>
        <time>2019-04-21T08:15:58.000Z</time>
      </trkpt>
      <trkpt lat="38.508235" lon="-0.711328">
        <ele>754</ele>
        <time>2019-04-21T08:15:59.000Z</time>
      </trkpt>
      <trkpt lat="38.508199" lon="-0.711338">
        <ele>754</ele>
        <time>2019-04-21T08:16:01.000Z</time>
      </trkpt>
      <trkpt lat="38.508176" lon="-0.71134">
        <ele>754</ele>
        <time>2019-04-21T08:16:02.000Z</time>
      </trkpt>
      <trkpt lat="38.508156" lon="-0.711341">
        <ele>754</ele>
        <time>2019-04-21T08:16:03.000Z</time>
      </trkpt>
      <trkpt lat="38.508136" lon="-0.711345">
        <ele>754</ele>
        <time>2019-04-21T08:16:04.000Z</time>
      </trkpt>
      <trkpt lat="38.508113" lon="-0.71135">
        <ele>754</ele>
        <time>2019-04-21T08:16:05.000Z</time>
      </trkpt>
      <trkpt lat="38.508088" lon="-0.711357">
        <ele>754</ele>
        <time>2019-04-21T08:16:06.000Z</time>
      </trkpt>
      <trkpt lat="38.508065" lon="-0.711365">
        <ele>754</ele>
        <time>2019-04-21T08:16:07.000Z</time>
      </trkpt>
      <trkpt lat="38.508043" lon="-0.711374">
        <ele>754</ele>
        <time>2019-04-21T08:16:08.000Z</time>
      </trkpt>
      <trkpt lat="38.508019" lon="-0.711383">
        <ele>754</ele>
        <time>2019-04-21T08:16:09.000Z</time>
      </trkpt>
      <trkpt lat="38.507993" lon="-0.71139">
        <ele>754</ele>
        <time>2019-04-21T08:16:10.000Z</time>
      </trkpt>
      <trkpt lat="38.507967" lon="-0.7114">
        <ele>754</ele>
        <time>2019-04-21T08:16:11.000Z</time>
      </trkpt>
      <trkpt lat="38.507943" lon="-0.711416">
        <ele>754</ele>
        <time>2019-04-21T08:16:12.000Z</time>
      </trkpt>
      <trkpt lat="38.507917" lon="-0.711427">
        <ele>753.853653714072</ele>
        <time>2019-04-21T08:16:13.000Z</time>
      </trkpt>
      <trkpt lat="38.50789" lon="-0.711443">
        <ele>753.040647699128</ele>
        <time>2019-04-21T08:16:14.000Z</time>
      </trkpt>
      <trkpt lat="38.507863" lon="-0.711459">
        <ele>753</ele>
        <time>2019-04-21T08:16:15.000Z</time>
      </trkpt>
      <trkpt lat="38.507838" lon="-0.711477">
        <ele>753</ele>
        <time>2019-04-21T08:16:16.000Z</time>
      </trkpt>
      <trkpt lat="38.507815" lon="-0.711497">
        <ele>753</ele>
        <time>2019-04-21T08:16:17.000Z</time>
      </trkpt>
      <trkpt lat="38.50779" lon="-0.711516">
        <ele>753</ele>
        <time>2019-04-21T08:16:18.000Z</time>
      </trkpt>
      <trkpt lat="38.507765" lon="-0.711528">
        <ele>753</ele>
        <time>2019-04-21T08:16:19.000Z</time>
      </trkpt>
      <trkpt lat="38.507742" lon="-0.711538">
        <ele>753</ele>
        <time>2019-04-21T08:16:20.000Z</time>
      </trkpt>
      <trkpt lat="38.507719" lon="-0.711543">
        <ele>752</ele>
        <time>2019-04-21T08:16:21.000Z</time>
      </trkpt>
      <trkpt lat="38.507695" lon="-0.711551">
        <ele>752</ele>
        <time>2019-04-21T08:16:22.000Z</time>
      </trkpt>
      <trkpt lat="38.507672" lon="-0.711561">
        <ele>752</ele>
        <time>2019-04-21T08:16:23.000Z</time>
      </trkpt>
      <trkpt lat="38.50765" lon="-0.711578">
        <ele>752</ele>
        <time>2019-04-21T08:16:24.000Z</time>
      </trkpt>
      <trkpt lat="38.507628" lon="-0.711591">
        <ele>752</ele>
        <time>2019-04-21T08:16:25.000Z</time>
      </trkpt>
      <trkpt lat="38.507602" lon="-0.711597">
        <ele>752</ele>
        <time>2019-04-21T08:16:26.000Z</time>
      </trkpt>
      <trkpt lat="38.507576" lon="-0.711609">
        <ele>752</ele>
        <time>2019-04-21T08:16:27.000Z</time>
      </trkpt>
      <trkpt lat="38.507553" lon="-0.711622">
        <ele>752</ele>
        <time>2019-04-21T08:16:28.000Z</time>
      </trkpt>
      <trkpt lat="38.507533" lon="-0.711634">
        <ele>752</ele>
        <time>2019-04-21T08:16:29.000Z</time>
      </trkpt>
      <trkpt lat="38.507514" lon="-0.711645">
        <ele>752</ele>
        <time>2019-04-21T08:16:30.000Z</time>
      </trkpt>
      <trkpt lat="38.507478" lon="-0.711662">
        <ele>752</ele>
        <time>2019-04-21T08:16:32.000Z</time>
      </trkpt>
      <trkpt lat="38.507456" lon="-0.711671">
        <ele>752</ele>
        <time>2019-04-21T08:16:33.000Z</time>
      </trkpt>
      <trkpt lat="38.507434" lon="-0.711681">
        <ele>752</ele>
        <time>2019-04-21T08:16:34.000Z</time>
      </trkpt>
      <trkpt lat="38.507413" lon="-0.711696">
        <ele>752</ele>
        <time>2019-04-21T08:16:35.000Z</time>
      </trkpt>
      <trkpt lat="38.50739" lon="-0.711714">
        <ele>752</ele>
        <time>2019-04-21T08:16:36.000Z</time>
      </trkpt>
      <trkpt lat="38.507365" lon="-0.71173">
        <ele>752</ele>
        <time>2019-04-21T08:16:37.000Z</time>
      </trkpt>
      <trkpt lat="38.507337" lon="-0.711744">
        <ele>751.806203550272</ele>
        <time>2019-04-21T08:16:38.000Z</time>
      </trkpt>
      <trkpt lat="38.507312" lon="-0.711763">
        <ele>751.031007828857</ele>
        <time>2019-04-21T08:16:39.000Z</time>
      </trkpt>
      <trkpt lat="38.507288" lon="-0.711784">
        <ele>751</ele>
        <time>2019-04-21T08:16:40.000Z</time>
      </trkpt>
      <trkpt lat="38.507266" lon="-0.7118">
        <ele>751</ele>
        <time>2019-04-21T08:16:41.000Z</time>
      </trkpt>
      <trkpt lat="38.507242" lon="-0.711812">
        <ele>750.7500032</ele>
        <time>2019-04-21T08:16:42.000Z</time>
      </trkpt>
      <trkpt lat="38.507218" lon="-0.711822">
        <ele>750</ele>
        <time>2019-04-21T08:16:43.000Z</time>
      </trkpt>
      <trkpt lat="38.507197" lon="-0.71183">
        <ele>750</ele>
        <time>2019-04-21T08:16:44.000Z</time>
      </trkpt>
      <trkpt lat="38.507174" lon="-0.711841">
        <ele>750</ele>
        <time>2019-04-21T08:16:45.000Z</time>
      </trkpt>
      <trkpt lat="38.507155" lon="-0.711856">
        <ele>750</ele>
        <time>2019-04-21T08:16:46.000Z</time>
      </trkpt>
      <trkpt lat="38.507132" lon="-0.711869">
        <ele>750</ele>
        <time>2019-04-21T08:16:47.000Z</time>
      </trkpt>
      <trkpt lat="38.507108" lon="-0.711879">
        <ele>750</ele>
        <time>2019-04-21T08:16:48.000Z</time>
      </trkpt>
      <trkpt lat="38.507084" lon="-0.711891">
        <ele>750</ele>
        <time>2019-04-21T08:16:49.000Z</time>
      </trkpt>
      <trkpt lat="38.507061" lon="-0.711903">
        <ele>749.768521481481</ele>
        <time>2019-04-21T08:16:50.000Z</time>
      </trkpt>
      <trkpt lat="38.507036" lon="-0.711918">
        <ele>749</ele>
        <time>2019-04-21T08:16:51.000Z</time>
      </trkpt>
      <trkpt lat="38.507008" lon="-0.711935">
        <ele>749</ele>
        <time>2019-04-21T08:16:52.000Z</time>
      </trkpt>
      <trkpt lat="38.506982" lon="-0.711951">
        <ele>749</ele>
        <time>2019-04-21T08:16:53.000Z</time>
      </trkpt>
      <trkpt lat="38.506955" lon="-0.711965">
        <ele>749</ele>
        <time>2019-04-21T08:16:54.000Z</time>
      </trkpt>
      <trkpt lat="38.506928" lon="-0.711974">
        <ele>749</ele>
        <time>2019-04-21T08:16:55.000Z</time>
      </trkpt>
      <trkpt lat="38.506902" lon="-0.71198">
        <ele>748.7500032</ele>
        <time>2019-04-21T08:16:56.000Z</time>
      </trkpt>
      <trkpt lat="38.506876" lon="-0.711986">
        <ele>748</ele>
        <time>2019-04-21T08:16:57.000Z</time>
      </trkpt>
      <trkpt lat="38.506853" lon="-0.711991">
        <ele>748</ele>
        <time>2019-04-21T08:16:58.000Z</time>
      </trkpt>
      <trkpt lat="38.506831" lon="-0.712">
        <ele>748</ele>
        <time>2019-04-21T08:16:59.000Z</time>
      </trkpt>
      <trkpt lat="38.506804" lon="-0.71201">
        <ele>747.852276363636</ele>
        <time>2019-04-21T08:17:00.000Z</time>
      </trkpt>
      <trkpt lat="38.506777" lon="-0.712021">
        <ele>746.7500032</ele>
        <time>2019-04-21T08:17:01.000Z</time>
      </trkpt>
      <trkpt lat="38.506756" lon="-0.712032">
        <ele>746</ele>
        <time>2019-04-21T08:17:02.000Z</time>
      </trkpt>
      <trkpt lat="38.506732" lon="-0.712037">
        <ele>746</ele>
        <time>2019-04-21T08:17:03.000Z</time>
      </trkpt>
      <trkpt lat="38.506708" lon="-0.712041">
        <ele>746</ele>
        <time>2019-04-21T08:17:04.000Z</time>
      </trkpt>
      <trkpt lat="38.506684" lon="-0.712048">
        <ele>746</ele>
        <time>2019-04-21T08:17:05.000Z</time>
      </trkpt>
      <trkpt lat="38.506663" lon="-0.712059">
        <ele>745.7500032</ele>
        <time>2019-04-21T08:17:06.000Z</time>
      </trkpt>
      <trkpt lat="38.506645" lon="-0.712066">
        <ele>744.757282397972</ele>
        <time>2019-04-21T08:17:07.000Z</time>
      </trkpt>
      <trkpt lat="38.506624" lon="-0.712072">
        <ele>744</ele>
        <time>2019-04-21T08:17:08.000Z</time>
      </trkpt>
      <trkpt lat="38.506599" lon="-0.712079">
        <ele>743.7500032</ele>
        <time>2019-04-21T08:17:09.000Z</time>
      </trkpt>
      <trkpt lat="38.506576" lon="-0.712091">
        <ele>743</ele>
        <time>2019-04-21T08:17:10.000Z</time>
      </trkpt>
      <trkpt lat="38.506558" lon="-0.712105">
        <ele>743</ele>
        <time>2019-04-21T08:17:11.000Z</time>
      </trkpt>
      <trkpt lat="38.506539" lon="-0.712115">
        <ele>742.852942505195</ele>
        <time>2019-04-21T08:17:12.000Z</time>
      </trkpt>
      <trkpt lat="38.506519" lon="-0.712123">
        <ele>742.264704996536</ele>
        <time>2019-04-21T08:17:13.000Z</time>
      </trkpt>
      <trkpt lat="38.506498" lon="-0.712132">
        <ele>742</ele>
        <time>2019-04-21T08:17:14.000Z</time>
      </trkpt>
      <trkpt lat="38.506473" lon="-0.712142">
        <ele>742</ele>
        <time>2019-04-21T08:17:15.000Z</time>
      </trkpt>
      <trkpt lat="38.506446" lon="-0.712149">
        <ele>741.650354908297</ele>
        <time>2019-04-21T08:17:16.000Z</time>
      </trkpt>
      <trkpt lat="38.506424" lon="-0.712155">
        <ele>740.251756639426</ele>
        <time>2019-04-21T08:17:17.000Z</time>
      </trkpt>
      <trkpt lat="38.506404" lon="-0.712161">
        <ele>739</ele>
        <time>2019-04-21T08:17:18.000Z</time>
      </trkpt>
      <trkpt lat="38.506384" lon="-0.712169">
        <ele>739</ele>
        <time>2019-04-21T08:17:19.000Z</time>
      </trkpt>
      <trkpt lat="38.506364" lon="-0.712178">
        <ele>738.818181818182</ele>
        <time>2019-04-21T08:17:20.000Z</time>
      </trkpt>
      <trkpt lat="38.506336" lon="-0.712192">
        <ele>738</ele>
        <time>2019-04-21T08:17:22.000Z</time>
      </trkpt>
      <trkpt lat="38.506303" lon="-0.712205">
        <ele>737.872090254212</ele>
        <time>2019-04-21T08:17:24.000Z</time>
      </trkpt>
      <trkpt lat="38.506284" lon="-0.712222">
        <ele>736.7500032</ele>
        <time>2019-04-21T08:17:25.000Z</time>
      </trkpt>
      <trkpt lat="38.50626" lon="-0.712239">
        <ele>736</ele>
        <time>2019-04-21T08:17:26.000Z</time>
      </trkpt>
      <trkpt lat="38.506234" lon="-0.71226">
        <ele>735.789474393349</ele>
        <time>2019-04-21T08:17:27.000Z</time>
      </trkpt>
      <trkpt lat="38.506211" lon="-0.712284">
        <ele>734.778763267294</ele>
        <time>2019-04-21T08:17:28.000Z</time>
      </trkpt>
      <trkpt lat="38.50619" lon="-0.712304">
        <ele>734</ele>
        <time>2019-04-21T08:17:29.000Z</time>
      </trkpt>
      <trkpt lat="38.506169" lon="-0.712324">
        <ele>734</ele>
        <time>2019-04-21T08:17:30.000Z</time>
      </trkpt>
      <trkpt lat="38.50615" lon="-0.712343">
        <ele>734</ele>
        <time>2019-04-21T08:17:31.000Z</time>
      </trkpt>
      <trkpt lat="38.506131" lon="-0.712364">
        <ele>734</ele>
        <time>2019-04-21T08:17:32.000Z</time>
      </trkpt>
      <trkpt lat="38.506113" lon="-0.712382">
        <ele>734</ele>
        <time>2019-04-21T08:17:33.000Z</time>
      </trkpt>
      <trkpt lat="38.506094" lon="-0.712399">
        <ele>734</ele>
        <time>2019-04-21T08:17:34.000Z</time>
      </trkpt>
      <trkpt lat="38.506078" lon="-0.712415">
        <ele>734</ele>
        <time>2019-04-21T08:17:35.000Z</time>
      </trkpt>
      <trkpt lat="38.506058" lon="-0.712435">
        <ele>733.051017476032</ele>
        <time>2019-04-21T08:17:36.000Z</time>
      </trkpt>
      <trkpt lat="38.506039" lon="-0.712456">
        <ele>733</ele>
        <time>2019-04-21T08:17:37.000Z</time>
      </trkpt>
      <trkpt lat="38.50602" lon="-0.712475">
        <ele>733</ele>
        <time>2019-04-21T08:17:38.000Z</time>
      </trkpt>
      <trkpt lat="38.506" lon="-0.712499">
        <ele>733</ele>
        <time>2019-04-21T08:17:39.000Z</time>
      </trkpt>
      <trkpt lat="38.50598" lon="-0.712519">
        <ele>733</ele>
        <time>2019-04-21T08:17:40.000Z</time>
      </trkpt>
      <trkpt lat="38.505961" lon="-0.712531">
        <ele>733</ele>
        <time>2019-04-21T08:17:41.000Z</time>
      </trkpt>
      <trkpt lat="38.505927" lon="-0.712542">
        <ele>733</ele>
        <time>2019-04-21T08:17:43.000Z</time>
      </trkpt>
      <trkpt lat="38.505908" lon="-0.712565">
        <ele>734</ele>
        <time>2019-04-21T08:17:45.000Z</time>
      </trkpt>
      <trkpt lat="38.505885" lon="-0.712588">
        <ele>735</ele>
        <time>2019-04-21T08:17:47.000Z</time>
      </trkpt>
      <trkpt lat="38.505863" lon="-0.712605">
        <ele>736.219296669736</ele>
        <time>2019-04-21T08:17:49.000Z</time>
      </trkpt>
      <trkpt lat="38.505851" lon="-0.712629">
        <ele>737</ele>
        <time>2019-04-21T08:17:51.000Z</time>
      </trkpt>
      <trkpt lat="38.50585" lon="-0.712659">
        <ele>737</ele>
        <time>2019-04-21T08:17:56.000Z</time>
      </trkpt>
      <trkpt lat="38.505855" lon="-0.712697">
        <ele>737</ele>
        <time>2019-04-21T08:17:58.000Z</time>
      </trkpt>
      <trkpt lat="38.505859" lon="-0.712733">
        <ele>737</ele>
        <time>2019-04-21T08:18:00.000Z</time>
      </trkpt>
      <trkpt lat="38.505857" lon="-0.712762">
        <ele>737</ele>
        <time>2019-04-21T08:18:02.000Z</time>
      </trkpt>
      <trkpt lat="38.505843" lon="-0.712785">
        <ele>737</ele>
        <time>2019-04-21T08:18:04.000Z</time>
      </trkpt>
      <trkpt lat="38.505827" lon="-0.712806">
        <ele>737</ele>
        <time>2019-04-21T08:18:06.000Z</time>
      </trkpt>
      <trkpt lat="38.505812" lon="-0.712826">
        <ele>737</ele>
        <time>2019-04-21T08:18:08.000Z</time>
      </trkpt>
      <trkpt lat="38.505801" lon="-0.712848">
        <ele>737</ele>
        <time>2019-04-21T08:18:10.000Z</time>
      </trkpt>
      <trkpt lat="38.505789" lon="-0.712868">
        <ele>737</ele>
        <time>2019-04-21T08:18:14.000Z</time>
      </trkpt>
      <trkpt lat="38.505779" lon="-0.712889">
        <ele>737</ele>
        <time>2019-04-21T08:18:16.000Z</time>
      </trkpt>
      <trkpt lat="38.505762" lon="-0.712914">
        <ele>737</ele>
        <time>2019-04-21T08:18:18.000Z</time>
      </trkpt>
      <trkpt lat="38.505747" lon="-0.712939">
        <ele>737</ele>
        <time>2019-04-21T08:18:20.000Z</time>
      </trkpt>
      <trkpt lat="38.505736" lon="-0.712965">
        <ele>737</ele>
        <time>2019-04-21T08:18:22.000Z</time>
      </trkpt>
      <trkpt lat="38.505725" lon="-0.712991">
        <ele>737</ele>
        <time>2019-04-21T08:18:24.000Z</time>
      </trkpt>
      <trkpt lat="38.505711" lon="-0.713009">
        <ele>736.7500032</ele>
        <time>2019-04-21T08:18:26.000Z</time>
      </trkpt>
      <trkpt lat="38.505684" lon="-0.713028">
        <ele>736</ele>
        <time>2019-04-21T08:18:29.000Z</time>
      </trkpt>
      <trkpt lat="38.505667" lon="-0.713043">
        <ele>736</ele>
        <time>2019-04-21T08:18:31.000Z</time>
      </trkpt>
      <trkpt lat="38.505651" lon="-0.713055">
        <ele>736</ele>
        <time>2019-04-21T08:18:33.000Z</time>
      </trkpt>
      <trkpt lat="38.505627" lon="-0.713072">
        <ele>736</ele>
        <time>2019-04-21T08:18:35.000Z</time>
      </trkpt>
      <trkpt lat="38.505611" lon="-0.713087">
        <ele>736</ele>
        <time>2019-04-21T08:18:36.000Z</time>
      </trkpt>
      <trkpt lat="38.505597" lon="-0.713101">
        <ele>736</ele>
        <time>2019-04-21T08:18:37.000Z</time>
      </trkpt>
      <trkpt lat="38.505582" lon="-0.713116">
        <ele>736.2499968</ele>
        <time>2019-04-21T08:18:38.000Z</time>
      </trkpt>
      <trkpt lat="38.505564" lon="-0.713131">
        <ele>737</ele>
        <time>2019-04-21T08:18:39.000Z</time>
      </trkpt>
      <trkpt lat="38.505544" lon="-0.713145">
        <ele>737</ele>
        <time>2019-04-21T08:18:40.000Z</time>
      </trkpt>
      <trkpt lat="38.505524" lon="-0.713159">
        <ele>737</ele>
        <time>2019-04-21T08:18:41.000Z</time>
      </trkpt>
      <trkpt lat="38.505501" lon="-0.713174">
        <ele>737</ele>
        <time>2019-04-21T08:18:42.000Z</time>
      </trkpt>
      <trkpt lat="38.50548" lon="-0.713192">
        <ele>737</ele>
        <time>2019-04-21T08:18:43.000Z</time>
      </trkpt>
      <trkpt lat="38.505459" lon="-0.713211">
        <ele>737</ele>
        <time>2019-04-21T08:18:44.000Z</time>
      </trkpt>
      <trkpt lat="38.50544" lon="-0.713228">
        <ele>737</ele>
        <time>2019-04-21T08:18:45.000Z</time>
      </trkpt>
      <trkpt lat="38.50542" lon="-0.713244">
        <ele>737</ele>
        <time>2019-04-21T08:18:46.000Z</time>
      </trkpt>
      <trkpt lat="38.505398" lon="-0.71326">
        <ele>737</ele>
        <time>2019-04-21T08:18:47.000Z</time>
      </trkpt>
      <trkpt lat="38.505378" lon="-0.713277">
        <ele>736</ele>
        <time>2019-04-21T08:18:48.000Z</time>
      </trkpt>
      <trkpt lat="38.505358" lon="-0.713297">
        <ele>736</ele>
        <time>2019-04-21T08:18:49.000Z</time>
      </trkpt>
      <trkpt lat="38.505339" lon="-0.713316">
        <ele>736</ele>
        <time>2019-04-21T08:18:50.000Z</time>
      </trkpt>
      <trkpt lat="38.505318" lon="-0.713334">
        <ele>736</ele>
        <time>2019-04-21T08:18:51.000Z</time>
      </trkpt>
      <trkpt lat="38.505298" lon="-0.713349">
        <ele>736</ele>
        <time>2019-04-21T08:18:52.000Z</time>
      </trkpt>
      <trkpt lat="38.505276" lon="-0.713365">
        <ele>736</ele>
        <time>2019-04-21T08:18:53.000Z</time>
      </trkpt>
      <trkpt lat="38.505253" lon="-0.713378">
        <ele>736</ele>
        <time>2019-04-21T08:18:54.000Z</time>
      </trkpt>
      <trkpt lat="38.505229" lon="-0.713394">
        <ele>736</ele>
        <time>2019-04-21T08:18:55.000Z</time>
      </trkpt>
      <trkpt lat="38.505206" lon="-0.713409">
        <ele>736</ele>
        <time>2019-04-21T08:18:56.000Z</time>
      </trkpt>
      <trkpt lat="38.505184" lon="-0.713425">
        <ele>736</ele>
        <time>2019-04-21T08:18:57.000Z</time>
      </trkpt>
      <trkpt lat="38.505163" lon="-0.713442">
        <ele>736</ele>
        <time>2019-04-21T08:18:58.000Z</time>
      </trkpt>
      <trkpt lat="38.505142" lon="-0.713459">
        <ele>736</ele>
        <time>2019-04-21T08:18:59.000Z</time>
      </trkpt>
      <trkpt lat="38.505122" lon="-0.713477">
        <ele>736</ele>
        <time>2019-04-21T08:19:00.000Z</time>
      </trkpt>
      <trkpt lat="38.5051" lon="-0.713497">
        <ele>736</ele>
        <time>2019-04-21T08:19:01.000Z</time>
      </trkpt>
      <trkpt lat="38.505078" lon="-0.713519">
        <ele>736</ele>
        <time>2019-04-21T08:19:02.000Z</time>
      </trkpt>
      <trkpt lat="38.505057" lon="-0.713537">
        <ele>736</ele>
        <time>2019-04-21T08:19:03.000Z</time>
      </trkpt>
      <trkpt lat="38.505034" lon="-0.713555">
        <ele>736</ele>
        <time>2019-04-21T08:19:04.000Z</time>
      </trkpt>
      <trkpt lat="38.505013" lon="-0.713574">
        <ele>736</ele>
        <time>2019-04-21T08:19:05.000Z</time>
      </trkpt>
      <trkpt lat="38.504991" lon="-0.713596">
        <ele>736</ele>
        <time>2019-04-21T08:19:06.000Z</time>
      </trkpt>
      <trkpt lat="38.504969" lon="-0.713617">
        <ele>736</ele>
        <time>2019-04-21T08:19:07.000Z</time>
      </trkpt>
      <trkpt lat="38.504948" lon="-0.713638">
        <ele>736</ele>
        <time>2019-04-21T08:19:08.000Z</time>
      </trkpt>
      <trkpt lat="38.504926" lon="-0.713659">
        <ele>736</ele>
        <time>2019-04-21T08:19:09.000Z</time>
      </trkpt>
      <trkpt lat="38.504905" lon="-0.71368">
        <ele>736</ele>
        <time>2019-04-21T08:19:10.000Z</time>
      </trkpt>
      <trkpt lat="38.504887" lon="-0.713702">
        <ele>736</ele>
        <time>2019-04-21T08:19:11.000Z</time>
      </trkpt>
      <trkpt lat="38.504865" lon="-0.713722">
        <ele>736</ele>
        <time>2019-04-21T08:19:12.000Z</time>
      </trkpt>
      <trkpt lat="38.504845" lon="-0.713744">
        <ele>736</ele>
        <time>2019-04-21T08:19:13.000Z</time>
      </trkpt>
      <trkpt lat="38.504824" lon="-0.713764">
        <ele>736</ele>
        <time>2019-04-21T08:19:14.000Z</time>
      </trkpt>
      <trkpt lat="38.504803" lon="-0.713785">
        <ele>736</ele>
        <time>2019-04-21T08:19:15.000Z</time>
      </trkpt>
      <trkpt lat="38.504783" lon="-0.713807">
        <ele>736</ele>
        <time>2019-04-21T08:19:16.000Z</time>
      </trkpt>
      <trkpt lat="38.504764" lon="-0.71383">
        <ele>736</ele>
        <time>2019-04-21T08:19:17.000Z</time>
      </trkpt>
      <trkpt lat="38.504744" lon="-0.71385">
        <ele>736</ele>
        <time>2019-04-21T08:19:18.000Z</time>
      </trkpt>
      <trkpt lat="38.504725" lon="-0.713871">
        <ele>736</ele>
        <time>2019-04-21T08:19:19.000Z</time>
      </trkpt>
      <trkpt lat="38.504706" lon="-0.713892">
        <ele>736</ele>
        <time>2019-04-21T08:19:20.000Z</time>
      </trkpt>
      <trkpt lat="38.504688" lon="-0.713913">
        <ele>736</ele>
        <time>2019-04-21T08:19:21.000Z</time>
      </trkpt>
      <trkpt lat="38.504668" lon="-0.713936">
        <ele>736</ele>
        <time>2019-04-21T08:19:22.000Z</time>
      </trkpt>
      <trkpt lat="38.504652" lon="-0.713959">
        <ele>736</ele>
        <time>2019-04-21T08:19:23.000Z</time>
      </trkpt>
      <trkpt lat="38.504636" lon="-0.713981">
        <ele>736</ele>
        <time>2019-04-21T08:19:24.000Z</time>
      </trkpt>
      <trkpt lat="38.504622" lon="-0.713998">
        <ele>736</ele>
        <time>2019-04-21T08:19:25.000Z</time>
      </trkpt>
      <trkpt lat="38.504601" lon="-0.714025">
        <ele>736</ele>
        <time>2019-04-21T08:19:27.000Z</time>
      </trkpt>
      <trkpt lat="38.504582" lon="-0.714049">
        <ele>736</ele>
        <time>2019-04-21T08:19:29.000Z</time>
      </trkpt>
      <trkpt lat="38.504568" lon="-0.714065">
        <ele>736</ele>
        <time>2019-04-21T08:19:30.000Z</time>
      </trkpt>
      <trkpt lat="38.504549" lon="-0.714084">
        <ele>736</ele>
        <time>2019-04-21T08:19:31.000Z</time>
      </trkpt>
      <trkpt lat="38.504529" lon="-0.714104">
        <ele>736</ele>
        <time>2019-04-21T08:19:32.000Z</time>
      </trkpt>
      <trkpt lat="38.504509" lon="-0.714127">
        <ele>736</ele>
        <time>2019-04-21T08:19:33.000Z</time>
      </trkpt>
      <trkpt lat="38.504492" lon="-0.71415">
        <ele>736</ele>
        <time>2019-04-21T08:19:34.000Z</time>
      </trkpt>
      <trkpt lat="38.504476" lon="-0.714178">
        <ele>736</ele>
        <time>2019-04-21T08:19:35.000Z</time>
      </trkpt>
      <trkpt lat="38.504462" lon="-0.714206">
        <ele>736</ele>
        <time>2019-04-21T08:19:36.000Z</time>
      </trkpt>
      <trkpt lat="38.504449" lon="-0.71424">
        <ele>736</ele>
        <time>2019-04-21T08:19:37.000Z</time>
      </trkpt>
      <trkpt lat="38.504436" lon="-0.714274">
        <ele>736</ele>
        <time>2019-04-21T08:19:38.000Z</time>
      </trkpt>
      <trkpt lat="38.504427" lon="-0.714307">
        <ele>735.862069472848</ele>
        <time>2019-04-21T08:19:39.000Z</time>
      </trkpt>
      <trkpt lat="38.504416" lon="-0.714335">
        <ele>735</ele>
        <time>2019-04-21T08:19:40.000Z</time>
      </trkpt>
      <trkpt lat="38.504404" lon="-0.714364">
        <ele>735</ele>
        <time>2019-04-21T08:19:41.000Z</time>
      </trkpt>
      <trkpt lat="38.50439" lon="-0.714396">
        <ele>735</ele>
        <time>2019-04-21T08:19:42.000Z</time>
      </trkpt>
      <trkpt lat="38.504377" lon="-0.714429">
        <ele>735</ele>
        <time>2019-04-21T08:19:43.000Z</time>
      </trkpt>
      <trkpt lat="38.504365" lon="-0.71446">
        <ele>735</ele>
        <time>2019-04-21T08:19:44.000Z</time>
      </trkpt>
      <trkpt lat="38.504352" lon="-0.714493">
        <ele>735</ele>
        <time>2019-04-21T08:19:45.000Z</time>
      </trkpt>
      <trkpt lat="38.504341" lon="-0.714527">
        <ele>735</ele>
        <time>2019-04-21T08:19:46.000Z</time>
      </trkpt>
      <trkpt lat="38.50433" lon="-0.714562">
        <ele>735</ele>
        <time>2019-04-21T08:19:47.000Z</time>
      </trkpt>
      <trkpt lat="38.504319" lon="-0.714598">
        <ele>735</ele>
        <time>2019-04-21T08:19:48.000Z</time>
      </trkpt>
      <trkpt lat="38.50431" lon="-0.714633">
        <ele>735</ele>
        <time>2019-04-21T08:19:49.000Z</time>
      </trkpt>
      <trkpt lat="38.5043" lon="-0.714667">
        <ele>735</ele>
        <time>2019-04-21T08:19:50.000Z</time>
      </trkpt>
      <trkpt lat="38.504287" lon="-0.7147">
        <ele>735</ele>
        <time>2019-04-21T08:19:51.000Z</time>
      </trkpt>
      <trkpt lat="38.504277" lon="-0.714733">
        <ele>735</ele>
        <time>2019-04-21T08:19:52.000Z</time>
      </trkpt>
      <trkpt lat="38.504269" lon="-0.714767">
        <ele>735</ele>
        <time>2019-04-21T08:19:53.000Z</time>
      </trkpt>
      <trkpt lat="38.504259" lon="-0.714805">
        <ele>735</ele>
        <time>2019-04-21T08:19:54.000Z</time>
      </trkpt>
      <trkpt lat="38.504251" lon="-0.714841">
        <ele>735</ele>
        <time>2019-04-21T08:19:55.000Z</time>
      </trkpt>
      <trkpt lat="38.504244" lon="-0.714876">
        <ele>734.797870312372</ele>
        <time>2019-04-21T08:19:56.000Z</time>
      </trkpt>
      <trkpt lat="38.504236" lon="-0.71491">
        <ele>734</ele>
        <time>2019-04-21T08:19:57.000Z</time>
      </trkpt>
      <trkpt lat="38.50423" lon="-0.714945">
        <ele>734</ele>
        <time>2019-04-21T08:19:58.000Z</time>
      </trkpt>
      <trkpt lat="38.504225" lon="-0.714982">
        <ele>734</ele>
        <time>2019-04-21T08:19:59.000Z</time>
      </trkpt>
      <trkpt lat="38.504221" lon="-0.715021">
        <ele>734</ele>
        <time>2019-04-21T08:20:00.000Z</time>
      </trkpt>
      <trkpt lat="38.504213" lon="-0.715056">
        <ele>734</ele>
        <time>2019-04-21T08:20:01.000Z</time>
      </trkpt>
      <trkpt lat="38.504206" lon="-0.715092">
        <ele>734</ele>
        <time>2019-04-21T08:20:02.000Z</time>
      </trkpt>
      <trkpt lat="38.504199" lon="-0.715126">
        <ele>734</ele>
        <time>2019-04-21T08:20:03.000Z</time>
      </trkpt>
      <trkpt lat="38.504195" lon="-0.715159">
        <ele>734</ele>
        <time>2019-04-21T08:20:04.000Z</time>
      </trkpt>
      <trkpt lat="38.50419" lon="-0.715196">
        <ele>734</ele>
        <time>2019-04-21T08:20:05.000Z</time>
      </trkpt>
      <trkpt lat="38.504182" lon="-0.715232">
        <ele>734</ele>
        <time>2019-04-21T08:20:06.000Z</time>
      </trkpt>
      <trkpt lat="38.504177" lon="-0.715266">
        <ele>734</ele>
        <time>2019-04-21T08:20:07.000Z</time>
      </trkpt>
      <trkpt lat="38.504171" lon="-0.7153">
        <ele>734</ele>
        <time>2019-04-21T08:20:08.000Z</time>
      </trkpt>
      <trkpt lat="38.504163" lon="-0.715334">
        <ele>734</ele>
        <time>2019-04-21T08:20:09.000Z</time>
      </trkpt>
      <trkpt lat="38.504158" lon="-0.715368">
        <ele>733.752477631612</ele>
        <time>2019-04-21T08:20:10.000Z</time>
      </trkpt>
      <trkpt lat="38.504152" lon="-0.715401">
        <ele>732.757576541167</ele>
        <time>2019-04-21T08:20:11.000Z</time>
      </trkpt>
      <trkpt lat="38.504144" lon="-0.715438">
        <ele>732</ele>
        <time>2019-04-21T08:20:12.000Z</time>
      </trkpt>
      <trkpt lat="38.504137" lon="-0.715472">
        <ele>732</ele>
        <time>2019-04-21T08:20:13.000Z</time>
      </trkpt>
      <trkpt lat="38.504129" lon="-0.71551">
        <ele>732</ele>
        <time>2019-04-21T08:20:14.000Z</time>
      </trkpt>
      <trkpt lat="38.504121" lon="-0.715548">
        <ele>732.2499968</ele>
        <time>2019-04-21T08:20:15.000Z</time>
      </trkpt>
      <trkpt lat="38.504113" lon="-0.715586">
        <ele>733</ele>
        <time>2019-04-21T08:20:16.000Z</time>
      </trkpt>
      <trkpt lat="38.504106" lon="-0.715624">
        <ele>732.766358829581</ele>
        <time>2019-04-21T08:20:17.000Z</time>
      </trkpt>
      <trkpt lat="38.504101" lon="-0.715662">
        <ele>732</ele>
        <time>2019-04-21T08:20:18.000Z</time>
      </trkpt>
      <trkpt lat="38.504096" lon="-0.715699">
        <ele>732</ele>
        <time>2019-04-21T08:20:19.000Z</time>
      </trkpt>
      <trkpt lat="38.50409" lon="-0.715735">
        <ele>732</ele>
        <time>2019-04-21T08:20:20.000Z</time>
      </trkpt>
      <trkpt lat="38.504085" lon="-0.715774">
        <ele>732</ele>
        <time>2019-04-21T08:20:21.000Z</time>
      </trkpt>
      <trkpt lat="38.50408" lon="-0.715811">
        <ele>732</ele>
        <time>2019-04-21T08:20:22.000Z</time>
      </trkpt>
      <trkpt lat="38.504077" lon="-0.715846">
        <ele>732</ele>
        <time>2019-04-21T08:20:23.000Z</time>
      </trkpt>
      <trkpt lat="38.504074" lon="-0.715882">
        <ele>732</ele>
        <time>2019-04-21T08:20:24.000Z</time>
      </trkpt>
      <trkpt lat="38.50407" lon="-0.715918">
        <ele>731.761907083907</ele>
        <time>2019-04-21T08:20:25.000Z</time>
      </trkpt>
      <trkpt lat="38.504066" lon="-0.715954">
        <ele>731</ele>
        <time>2019-04-21T08:20:26.000Z</time>
      </trkpt>
      <trkpt lat="38.504064" lon="-0.71599">
        <ele>731</ele>
        <time>2019-04-21T08:20:27.000Z</time>
      </trkpt>
      <trkpt lat="38.504061" lon="-0.716024">
        <ele>731</ele>
        <time>2019-04-21T08:20:28.000Z</time>
      </trkpt>
      <trkpt lat="38.504057" lon="-0.716058">
        <ele>731</ele>
        <time>2019-04-21T08:20:29.000Z</time>
      </trkpt>
      <trkpt lat="38.504053" lon="-0.716092">
        <ele>731</ele>
        <time>2019-04-21T08:20:30.000Z</time>
      </trkpt>
      <trkpt lat="38.504048" lon="-0.716127">
        <ele>731</ele>
        <time>2019-04-21T08:20:31.000Z</time>
      </trkpt>
      <trkpt lat="38.504042" lon="-0.71616">
        <ele>731</ele>
        <time>2019-04-21T08:20:32.000Z</time>
      </trkpt>
      <trkpt lat="38.504036" lon="-0.716196">
        <ele>731.231478518519</ele>
        <time>2019-04-21T08:20:33.000Z</time>
      </trkpt>
      <trkpt lat="38.50403" lon="-0.71623">
        <ele>732</ele>
        <time>2019-04-21T08:20:34.000Z</time>
      </trkpt>
      <trkpt lat="38.504022" lon="-0.716263">
        <ele>732</ele>
        <time>2019-04-21T08:20:35.000Z</time>
      </trkpt>
      <trkpt lat="38.50401" lon="-0.716294">
        <ele>732</ele>
        <time>2019-04-21T08:20:36.000Z</time>
      </trkpt>
      <trkpt lat="38.504" lon="-0.716324">
        <ele>732</ele>
        <time>2019-04-21T08:20:37.000Z</time>
      </trkpt>
      <trkpt lat="38.503987" lon="-0.71635">
        <ele>732</ele>
        <time>2019-04-21T08:20:38.000Z</time>
      </trkpt>
      <trkpt lat="38.503972" lon="-0.716378">
        <ele>732</ele>
        <time>2019-04-21T08:20:39.000Z</time>
      </trkpt>
      <trkpt lat="38.503956" lon="-0.716404">
        <ele>732</ele>
        <time>2019-04-21T08:20:40.000Z</time>
      </trkpt>
      <trkpt lat="38.50394" lon="-0.716428">
        <ele>732</ele>
        <time>2019-04-21T08:20:41.000Z</time>
      </trkpt>
      <trkpt lat="38.503924" lon="-0.716448">
        <ele>732</ele>
        <time>2019-04-21T08:20:42.000Z</time>
      </trkpt>
      <trkpt lat="38.503906" lon="-0.716468">
        <ele>732.2499968</ele>
        <time>2019-04-21T08:20:43.000Z</time>
      </trkpt>
      <trkpt lat="38.503887" lon="-0.716488">
        <ele>733</ele>
        <time>2019-04-21T08:20:44.000Z</time>
      </trkpt>
      <trkpt lat="38.503871" lon="-0.71651">
        <ele>733.192306177507</ele>
        <time>2019-04-21T08:20:45.000Z</time>
      </trkpt>
      <trkpt lat="38.503857" lon="-0.716525">
        <ele>733.961540733739</ele>
        <time>2019-04-21T08:20:46.000Z</time>
      </trkpt>
      <trkpt lat="38.503833" lon="-0.716525">
        <ele>734</ele>
        <time>2019-04-21T08:20:48.000Z</time>
      </trkpt>
      <trkpt lat="38.503805" lon="-0.716504">
        <ele>734</ele>
        <time>2019-04-21T08:20:50.000Z</time>
      </trkpt>
      <trkpt lat="38.503776" lon="-0.716497">
        <ele>734</ele>
        <time>2019-04-21T08:20:52.000Z</time>
      </trkpt>
      <trkpt lat="38.503748" lon="-0.716483">
        <ele>734</ele>
        <time>2019-04-21T08:20:54.000Z</time>
      </trkpt>
      <trkpt lat="38.503722" lon="-0.716462">
        <ele>735</ele>
        <time>2019-04-21T08:20:56.000Z</time>
      </trkpt>
      <trkpt lat="38.503696" lon="-0.716436">
        <ele>735</ele>
        <time>2019-04-21T08:20:58.000Z</time>
      </trkpt>
      <trkpt lat="38.503672" lon="-0.716406">
        <ele>735</ele>
        <time>2019-04-21T08:21:00.000Z</time>
      </trkpt>
      <trkpt lat="38.503657" lon="-0.716393">
        <ele>735</ele>
        <time>2019-04-21T08:21:01.000Z</time>
      </trkpt>
      <trkpt lat="38.503634" lon="-0.716364">
        <ele>735</ele>
        <time>2019-04-21T08:21:03.000Z</time>
      </trkpt>
      <trkpt lat="38.503614" lon="-0.716328">
        <ele>735</ele>
        <time>2019-04-21T08:21:05.000Z</time>
      </trkpt>
      <trkpt lat="38.503594" lon="-0.716293">
        <ele>735</ele>
        <time>2019-04-21T08:21:07.000Z</time>
      </trkpt>
      <trkpt lat="38.503572" lon="-0.716253">
        <ele>735.961242694555</ele>
        <time>2019-04-21T08:21:09.000Z</time>
      </trkpt>
      <trkpt lat="38.50356" lon="-0.716234">
        <ele>736.2499968</ele>
        <time>2019-04-21T08:21:10.000Z</time>
      </trkpt>
      <trkpt lat="38.50355" lon="-0.716213">
        <ele>737.2499968</ele>
        <time>2019-04-21T08:21:11.000Z</time>
      </trkpt>
      <trkpt lat="38.503537" lon="-0.716196">
        <ele>738</ele>
        <time>2019-04-21T08:21:12.000Z</time>
      </trkpt>
      <trkpt lat="38.503521" lon="-0.716179">
        <ele>738.233641170419</ele>
        <time>2019-04-21T08:21:13.000Z</time>
      </trkpt>
      <trkpt lat="38.5035" lon="-0.716146">
        <ele>739</ele>
        <time>2019-04-21T08:21:15.000Z</time>
      </trkpt>
      <trkpt lat="38.503477" lon="-0.716111">
        <ele>739.2499968</ele>
        <time>2019-04-21T08:21:17.000Z</time>
      </trkpt>
      <trkpt lat="38.50345" lon="-0.716082">
        <ele>740.200002694728</ele>
        <time>2019-04-21T08:21:19.000Z</time>
      </trkpt>
      <trkpt lat="38.503432" lon="-0.716075">
        <ele>741</ele>
        <time>2019-04-21T08:21:20.000Z</time>
      </trkpt>
      <trkpt lat="38.503408" lon="-0.716069">
        <ele>741</ele>
        <time>2019-04-21T08:21:21.000Z</time>
      </trkpt>
      <trkpt lat="38.503387" lon="-0.716064">
        <ele>741.2499968</ele>
        <time>2019-04-21T08:21:22.000Z</time>
      </trkpt>
      <trkpt lat="38.503367" lon="-0.71606">
        <ele>742</ele>
        <time>2019-04-21T08:21:23.000Z</time>
      </trkpt>
      <trkpt lat="38.503334" lon="-0.716054">
        <ele>741</ele>
        <time>2019-04-21T08:21:25.000Z</time>
      </trkpt>
      <trkpt lat="38.503315" lon="-0.716054">
        <ele>741</ele>
        <time>2019-04-21T08:21:26.000Z</time>
      </trkpt>
      <trkpt lat="38.503293" lon="-0.716055">
        <ele>741</ele>
        <time>2019-04-21T08:21:27.000Z</time>
      </trkpt>
      <trkpt lat="38.503272" lon="-0.716054">
        <ele>741</ele>
        <time>2019-04-21T08:21:28.000Z</time>
      </trkpt>
      <trkpt lat="38.503251" lon="-0.716057">
        <ele>741</ele>
        <time>2019-04-21T08:21:29.000Z</time>
      </trkpt>
      <trkpt lat="38.503232" lon="-0.716061">
        <ele>741</ele>
        <time>2019-04-21T08:21:30.000Z</time>
      </trkpt>
      <trkpt lat="38.503207" lon="-0.716064">
        <ele>741</ele>
        <time>2019-04-21T08:21:31.000Z</time>
      </trkpt>
      <trkpt lat="38.503181" lon="-0.716068">
        <ele>741.189391515152</ele>
        <time>2019-04-21T08:21:32.000Z</time>
      </trkpt>
      <trkpt lat="38.503152" lon="-0.716068">
        <ele>741.946967272727</ele>
        <time>2019-04-21T08:21:33.000Z</time>
      </trkpt>
      <trkpt lat="38.503126" lon="-0.71607">
        <ele>742</ele>
        <time>2019-04-21T08:21:34.000Z</time>
      </trkpt>
      <trkpt lat="38.5031" lon="-0.716075">
        <ele>742</ele>
        <time>2019-04-21T08:21:35.000Z</time>
      </trkpt>
      <trkpt lat="38.503075" lon="-0.716078">
        <ele>742</ele>
        <time>2019-04-21T08:21:36.000Z</time>
      </trkpt>
      <trkpt lat="38.503053" lon="-0.71608">
        <ele>742</ele>
        <time>2019-04-21T08:21:37.000Z</time>
      </trkpt>
      <trkpt lat="38.503031" lon="-0.716081">
        <ele>742</ele>
        <time>2019-04-21T08:21:38.000Z</time>
      </trkpt>
      <trkpt lat="38.503008" lon="-0.716082">
        <ele>742</ele>
        <time>2019-04-21T08:21:39.000Z</time>
      </trkpt>
      <trkpt lat="38.502986" lon="-0.71608">
        <ele>742</ele>
        <time>2019-04-21T08:21:40.000Z</time>
      </trkpt>
      <trkpt lat="38.502966" lon="-0.716078">
        <ele>742</ele>
        <time>2019-04-21T08:21:41.000Z</time>
      </trkpt>
      <trkpt lat="38.502946" lon="-0.716075">
        <ele>742</ele>
        <time>2019-04-21T08:21:42.000Z</time>
      </trkpt>
      <trkpt lat="38.502928" lon="-0.716073">
        <ele>742</ele>
        <time>2019-04-21T08:21:43.000Z</time>
      </trkpt>
      <trkpt lat="38.502895" lon="-0.716068">
        <ele>742.247522368388</ele>
        <time>2019-04-21T08:21:45.000Z</time>
      </trkpt>
      <trkpt lat="38.502878" lon="-0.716061">
        <ele>743.242423458833</ele>
        <time>2019-04-21T08:21:46.000Z</time>
      </trkpt>
      <trkpt lat="38.502844" lon="-0.716045">
        <ele>744</ele>
        <time>2019-04-21T08:21:48.000Z</time>
      </trkpt>
      <trkpt lat="38.502826" lon="-0.716037">
        <ele>744</ele>
        <time>2019-04-21T08:21:49.000Z</time>
      </trkpt>
      <trkpt lat="38.502796" lon="-0.716012">
        <ele>744</ele>
        <time>2019-04-21T08:21:51.000Z</time>
      </trkpt>
      <trkpt lat="38.50277" lon="-0.715986">
        <ele>745</ele>
        <time>2019-04-21T08:21:53.000Z</time>
      </trkpt>
      <trkpt lat="38.502743" lon="-0.71596">
        <ele>745</ele>
        <time>2019-04-21T08:21:55.000Z</time>
      </trkpt>
      <trkpt lat="38.502718" lon="-0.715925">
        <ele>745.2499968</ele>
        <time>2019-04-21T08:21:57.000Z</time>
      </trkpt>
      <trkpt lat="38.502692" lon="-0.715896">
        <ele>746.899284484267</ele>
        <time>2019-04-21T08:21:59.000Z</time>
      </trkpt>
      <trkpt lat="38.502672" lon="-0.71586">
        <ele>747.186565667179</ele>
        <time>2019-04-21T08:22:01.000Z</time>
      </trkpt>
      <trkpt lat="38.50266" lon="-0.715841">
        <ele>747.932837888181</ele>
        <time>2019-04-21T08:22:02.000Z</time>
      </trkpt>
      <trkpt lat="38.50265" lon="-0.715822">
        <ele>749</ele>
        <time>2019-04-21T08:22:03.000Z</time>
      </trkpt>
      <trkpt lat="38.502641" lon="-0.715801">
        <ele>749</ele>
        <time>2019-04-21T08:22:04.000Z</time>
      </trkpt>
      <trkpt lat="38.502625" lon="-0.715763">
        <ele>749</ele>
        <time>2019-04-21T08:22:06.000Z</time>
      </trkpt>
      <trkpt lat="38.502615" lon="-0.715743">
        <ele>749</ele>
        <time>2019-04-21T08:22:07.000Z</time>
      </trkpt>
      <trkpt lat="38.502593" lon="-0.71571">
        <ele>749</ele>
        <time>2019-04-21T08:22:09.000Z</time>
      </trkpt>
      <trkpt lat="38.50258" lon="-0.715693">
        <ele>749.2499968</ele>
        <time>2019-04-21T08:22:10.000Z</time>
      </trkpt>
      <trkpt lat="38.50257" lon="-0.715673">
        <ele>750</ele>
        <time>2019-04-21T08:22:11.000Z</time>
      </trkpt>
      <trkpt lat="38.502558" lon="-0.715635">
        <ele>751</ele>
        <time>2019-04-21T08:22:13.000Z</time>
      </trkpt>
      <trkpt lat="38.502549" lon="-0.715614">
        <ele>751.16666903702</ele>
        <time>2019-04-21T08:22:14.000Z</time>
      </trkpt>
      <trkpt lat="38.502537" lon="-0.715591">
        <ele>752</ele>
        <time>2019-04-21T08:22:15.000Z</time>
      </trkpt>
      <trkpt lat="38.502522" lon="-0.715558">
        <ele>752</ele>
        <time>2019-04-21T08:22:17.000Z</time>
      </trkpt>
      <trkpt lat="38.502508" lon="-0.715524">
        <ele>752</ele>
        <time>2019-04-21T08:22:19.000Z</time>
      </trkpt>
      <trkpt lat="38.502501" lon="-0.715484">
        <ele>752</ele>
        <time>2019-04-21T08:22:21.000Z</time>
      </trkpt>
      <trkpt lat="38.502496" lon="-0.715439">
        <ele>753.184779130435</ele>
        <time>2019-04-21T08:22:23.000Z</time>
      </trkpt>
      <trkpt lat="38.502489" lon="-0.715399">
        <ele>754.247522368388</ele>
        <time>2019-04-21T08:22:25.000Z</time>
      </trkpt>
      <trkpt lat="38.502483" lon="-0.715362">
        <ele>756</ele>
        <time>2019-04-21T08:22:27.000Z</time>
      </trkpt>
      <trkpt lat="38.502483" lon="-0.715325">
        <ele>756</ele>
        <time>2019-04-21T08:22:29.000Z</time>
      </trkpt>
      <trkpt lat="38.502477" lon="-0.715284">
        <ele>757</ele>
        <time>2019-04-21T08:22:31.000Z</time>
      </trkpt>
      <trkpt lat="38.502471" lon="-0.715241">
        <ele>757.227271140487</ele>
        <time>2019-04-21T08:22:33.000Z</time>
      </trkpt>
      <trkpt lat="38.502468" lon="-0.715198">
        <ele>759</ele>
        <time>2019-04-21T08:22:35.000Z</time>
      </trkpt>
      <trkpt lat="38.50246" lon="-0.715158">
        <ele>759</ele>
        <time>2019-04-21T08:22:37.000Z</time>
      </trkpt>
      <trkpt lat="38.50245" lon="-0.715117">
        <ele>759</ele>
        <time>2019-04-21T08:22:39.000Z</time>
      </trkpt>
      <trkpt lat="38.502446" lon="-0.715078">
        <ele>759</ele>
        <time>2019-04-21T08:22:41.000Z</time>
      </trkpt>
      <trkpt lat="38.502443" lon="-0.715041">
        <ele>759</ele>
        <time>2019-04-21T08:22:43.000Z</time>
      </trkpt>
      <trkpt lat="38.502435" lon="-0.715001">
        <ele>759</ele>
        <time>2019-04-21T08:22:45.000Z</time>
      </trkpt>
      <trkpt lat="38.50243" lon="-0.714958">
        <ele>760</ele>
        <time>2019-04-21T08:22:47.000Z</time>
      </trkpt>
      <trkpt lat="38.502424" lon="-0.714912">
        <ele>761</ele>
        <time>2019-04-21T08:22:49.000Z</time>
      </trkpt>
      <trkpt lat="38.502413" lon="-0.714873">
        <ele>761.245096439821</ele>
        <time>2019-04-21T08:22:51.000Z</time>
      </trkpt>
      <trkpt lat="38.502412" lon="-0.714831">
        <ele>762</ele>
        <time>2019-04-21T08:22:53.000Z</time>
      </trkpt>
      <trkpt lat="38.50241" lon="-0.714793">
        <ele>762</ele>
        <time>2019-04-21T08:22:55.000Z</time>
      </trkpt>
      <trkpt lat="38.502412" lon="-0.714755">
        <ele>762</ele>
        <time>2019-04-21T08:22:57.000Z</time>
      </trkpt>
      <trkpt lat="38.502405" lon="-0.714716">
        <ele>762</ele>
        <time>2019-04-21T08:22:59.000Z</time>
      </trkpt>
      <trkpt lat="38.502405" lon="-0.714675">
        <ele>762</ele>
        <time>2019-04-21T08:23:01.000Z</time>
      </trkpt>
      <trkpt lat="38.502402" lon="-0.714635">
        <ele>763</ele>
        <time>2019-04-21T08:23:03.000Z</time>
      </trkpt>
      <trkpt lat="38.502395" lon="-0.714599">
        <ele>763.2499968</ele>
        <time>2019-04-21T08:23:05.000Z</time>
      </trkpt>
      <trkpt lat="38.502387" lon="-0.714557">
        <ele>764</ele>
        <time>2019-04-21T08:23:07.000Z</time>
      </trkpt>
      <trkpt lat="38.502382" lon="-0.714532">
        <ele>764</ele>
        <time>2019-04-21T08:23:08.000Z</time>
      </trkpt>
      <trkpt lat="38.502376" lon="-0.714507">
        <ele>764.184779130435</ele>
        <time>2019-04-21T08:23:09.000Z</time>
      </trkpt>
      <trkpt lat="38.502366" lon="-0.714485">
        <ele>765</ele>
        <time>2019-04-21T08:23:10.000Z</time>
      </trkpt>
      <trkpt lat="38.502359" lon="-0.714462">
        <ele>765</ele>
        <time>2019-04-21T08:23:11.000Z</time>
      </trkpt>
      <trkpt lat="38.502351" lon="-0.714439">
        <ele>765.2499968</ele>
        <time>2019-04-21T08:23:12.000Z</time>
      </trkpt>
      <trkpt lat="38.502343" lon="-0.714418">
        <ele>766.231478518519</ele>
        <time>2019-04-21T08:23:13.000Z</time>
      </trkpt>
      <trkpt lat="38.502334" lon="-0.714394">
        <ele>767</ele>
        <time>2019-04-21T08:23:14.000Z</time>
      </trkpt>
      <trkpt lat="38.502324" lon="-0.714371">
        <ele>767</ele>
        <time>2019-04-21T08:23:15.000Z</time>
      </trkpt>
      <trkpt lat="38.502314" lon="-0.714347">
        <ele>767</ele>
        <time>2019-04-21T08:23:16.000Z</time>
      </trkpt>
      <trkpt lat="38.502307" lon="-0.714323">
        <ele>767</ele>
        <time>2019-04-21T08:23:17.000Z</time>
      </trkpt>
      <trkpt lat="38.502301" lon="-0.7143">
        <ele>767</ele>
        <time>2019-04-21T08:23:18.000Z</time>
      </trkpt>
      <trkpt lat="38.502291" lon="-0.714275">
        <ele>767</ele>
        <time>2019-04-21T08:23:19.000Z</time>
      </trkpt>
      <trkpt lat="38.502282" lon="-0.714251">
        <ele>767.210525606651</ele>
        <time>2019-04-21T08:23:20.000Z</time>
      </trkpt>
      <trkpt lat="38.502267" lon="-0.714213">
        <ele>768</ele>
        <time>2019-04-21T08:23:22.000Z</time>
      </trkpt>
      <trkpt lat="38.502257" lon="-0.714192">
        <ele>768</ele>
        <time>2019-04-21T08:23:23.000Z</time>
      </trkpt>
      <trkpt lat="38.502245" lon="-0.71417">
        <ele>768</ele>
        <time>2019-04-21T08:23:24.000Z</time>
      </trkpt>
      <trkpt lat="38.502233" lon="-0.714147">
        <ele>768</ele>
        <time>2019-04-21T08:23:25.000Z</time>
      </trkpt>
      <trkpt lat="38.502222" lon="-0.714123">
        <ele>768</ele>
        <time>2019-04-21T08:23:26.000Z</time>
      </trkpt>
      <trkpt lat="38.502213" lon="-0.714098">
        <ele>768</ele>
        <time>2019-04-21T08:23:27.000Z</time>
      </trkpt>
      <trkpt lat="38.502202" lon="-0.714074">
        <ele>768</ele>
        <time>2019-04-21T08:23:28.000Z</time>
      </trkpt>
      <trkpt lat="38.502192" lon="-0.71405">
        <ele>768</ele>
        <time>2019-04-21T08:23:29.000Z</time>
      </trkpt>
      <trkpt lat="38.502183" lon="-0.714027">
        <ele>768.238092916093</ele>
        <time>2019-04-21T08:23:30.000Z</time>
      </trkpt>
      <trkpt lat="38.502176" lon="-0.714005">
        <ele>769</ele>
        <time>2019-04-21T08:23:31.000Z</time>
      </trkpt>
      <trkpt lat="38.502167" lon="-0.713981">
        <ele>769</ele>
        <time>2019-04-21T08:23:32.000Z</time>
      </trkpt>
      <trkpt lat="38.502155" lon="-0.713961">
        <ele>769</ele>
        <time>2019-04-21T08:23:33.000Z</time>
      </trkpt>
      <trkpt lat="38.502134" lon="-0.713921">
        <ele>770</ele>
        <time>2019-04-21T08:23:35.000Z</time>
      </trkpt>
      <trkpt lat="38.502122" lon="-0.713899">
        <ele>770.160000409601</ele>
        <time>2019-04-21T08:23:36.000Z</time>
      </trkpt>
      <trkpt lat="38.502111" lon="-0.713876">
        <ele>770.960002457606</ele>
        <time>2019-04-21T08:23:37.000Z</time>
      </trkpt>
      <trkpt lat="38.502104" lon="-0.713853">
        <ele>771</ele>
        <time>2019-04-21T08:23:38.000Z</time>
      </trkpt>
      <trkpt lat="38.502091" lon="-0.713831">
        <ele>771.202129687628</ele>
        <time>2019-04-21T08:23:39.000Z</time>
      </trkpt>
      <trkpt lat="38.502079" lon="-0.713811">
        <ele>772.2499968</ele>
        <time>2019-04-21T08:23:40.000Z</time>
      </trkpt>
      <trkpt lat="38.502071" lon="-0.713788">
        <ele>773</ele>
        <time>2019-04-21T08:23:41.000Z</time>
      </trkpt>
      <trkpt lat="38.502064" lon="-0.713764">
        <ele>773.2499968</ele>
        <time>2019-04-21T08:23:42.000Z</time>
      </trkpt>
      <trkpt lat="38.502056" lon="-0.713738">
        <ele>774</ele>
        <time>2019-04-21T08:23:43.000Z</time>
      </trkpt>
      <trkpt lat="38.502048" lon="-0.713712">
        <ele>774</ele>
        <time>2019-04-21T08:23:44.000Z</time>
      </trkpt>
      <trkpt lat="38.502041" lon="-0.713685">
        <ele>774</ele>
        <time>2019-04-21T08:23:45.000Z</time>
      </trkpt>
      <trkpt lat="38.502037" lon="-0.713663">
        <ele>773.7500032</ele>
        <time>2019-04-21T08:23:46.000Z</time>
      </trkpt>
      <trkpt lat="38.502031" lon="-0.713641">
        <ele>773</ele>
        <time>2019-04-21T08:23:47.000Z</time>
      </trkpt>
      <trkpt lat="38.502024" lon="-0.713617">
        <ele>773</ele>
        <time>2019-04-21T08:23:48.000Z</time>
      </trkpt>
      <trkpt lat="38.502015" lon="-0.713592">
        <ele>772.820146601101</ele>
        <time>2019-04-21T08:23:49.000Z</time>
      </trkpt>
      <trkpt lat="38.502007" lon="-0.713568">
        <ele>772.100723796895</ele>
        <time>2019-04-21T08:23:50.000Z</time>
      </trkpt>
      <trkpt lat="38.501998" lon="-0.713544">
        <ele>772</ele>
        <time>2019-04-21T08:23:51.000Z</time>
      </trkpt>
      <trkpt lat="38.501991" lon="-0.713518">
        <ele>772</ele>
        <time>2019-04-21T08:23:52.000Z</time>
      </trkpt>
      <trkpt lat="38.501984" lon="-0.713493">
        <ele>772</ele>
        <time>2019-04-21T08:23:53.000Z</time>
      </trkpt>
      <trkpt lat="38.501977" lon="-0.71347">
        <ele>772.2499968</ele>
        <time>2019-04-21T08:23:54.000Z</time>
      </trkpt>
      <trkpt lat="38.501967" lon="-0.713446">
        <ele>773</ele>
        <time>2019-04-21T08:23:55.000Z</time>
      </trkpt>
      <trkpt lat="38.501958" lon="-0.713424">
        <ele>773</ele>
        <time>2019-04-21T08:23:56.000Z</time>
      </trkpt>
      <trkpt lat="38.501949" lon="-0.713401">
        <ele>773</ele>
        <time>2019-04-21T08:23:57.000Z</time>
      </trkpt>
      <trkpt lat="38.501941" lon="-0.713379">
        <ele>773</ele>
        <time>2019-04-21T08:23:58.000Z</time>
      </trkpt>
      <trkpt lat="38.501932" lon="-0.713357">
        <ele>773.223211428571</ele>
        <time>2019-04-21T08:23:59.000Z</time>
      </trkpt>
      <trkpt lat="38.501919" lon="-0.713332">
        <ele>773.852276363636</ele>
        <time>2019-04-21T08:24:00.000Z</time>
      </trkpt>
      <trkpt lat="38.501905" lon="-0.713305">
        <ele>773.2499968</ele>
        <time>2019-04-21T08:24:01.000Z</time>
      </trkpt>
      <trkpt lat="38.501893" lon="-0.71328">
        <ele>774</ele>
        <time>2019-04-21T08:24:02.000Z</time>
      </trkpt>
      <trkpt lat="38.50188" lon="-0.713256">
        <ele>774</ele>
        <time>2019-04-21T08:24:03.000Z</time>
      </trkpt>
      <trkpt lat="38.501872" lon="-0.713234">
        <ele>774</ele>
        <time>2019-04-21T08:24:04.000Z</time>
      </trkpt>
      <trkpt lat="38.501864" lon="-0.713212">
        <ele>774</ele>
        <time>2019-04-21T08:24:05.000Z</time>
      </trkpt>
      <trkpt lat="38.501855" lon="-0.713189">
        <ele>774</ele>
        <time>2019-04-21T08:24:06.000Z</time>
      </trkpt>
      <trkpt lat="38.501845" lon="-0.713164">
        <ele>774</ele>
        <time>2019-04-21T08:24:07.000Z</time>
      </trkpt>
      <trkpt lat="38.501836" lon="-0.71314">
        <ele>773.765304389849</ele>
        <time>2019-04-21T08:24:08.000Z</time>
      </trkpt>
      <trkpt lat="38.501824" lon="-0.713116">
        <ele>773</ele>
        <time>2019-04-21T08:24:09.000Z</time>
      </trkpt>
      <trkpt lat="38.501813" lon="-0.713094">
        <ele>773.157308864983</ele>
        <time>2019-04-21T08:24:10.000Z</time>
      </trkpt>
      <trkpt lat="38.501803" lon="-0.713068">
        <ele>774</ele>
        <time>2019-04-21T08:24:11.000Z</time>
      </trkpt>
      <trkpt lat="38.501793" lon="-0.713044">
        <ele>774</ele>
        <time>2019-04-21T08:24:12.000Z</time>
      </trkpt>
      <trkpt lat="38.501782" lon="-0.71302">
        <ele>774</ele>
        <time>2019-04-21T08:24:13.000Z</time>
      </trkpt>
      <trkpt lat="38.501771" lon="-0.712994">
        <ele>774</ele>
        <time>2019-04-21T08:24:14.000Z</time>
      </trkpt>
      <trkpt lat="38.501762" lon="-0.71297">
        <ele>774.9500032</ele>
        <time>2019-04-21T08:24:15.000Z</time>
      </trkpt>
      <trkpt lat="38.501752" lon="-0.712947">
        <ele>775</ele>
        <time>2019-04-21T08:24:16.000Z</time>
      </trkpt>
      <trkpt lat="38.501738" lon="-0.712922">
        <ele>774.806446729152</ele>
        <time>2019-04-21T08:24:17.000Z</time>
      </trkpt>
      <trkpt lat="38.501727" lon="-0.712897">
        <ele>774.2499968</ele>
        <time>2019-04-21T08:24:18.000Z</time>
      </trkpt>
      <trkpt lat="38.501715" lon="-0.712873">
        <ele>775</ele>
        <time>2019-04-21T08:24:19.000Z</time>
      </trkpt>
      <trkpt lat="38.501704" lon="-0.712849">
        <ele>775</ele>
        <time>2019-04-21T08:24:20.000Z</time>
      </trkpt>
      <trkpt lat="38.501696" lon="-0.712824">
        <ele>775</ele>
        <time>2019-04-21T08:24:21.000Z</time>
      </trkpt>
      <trkpt lat="38.501684" lon="-0.712798">
        <ele>775</ele>
        <time>2019-04-21T08:24:22.000Z</time>
      </trkpt>
      <trkpt lat="38.501673" lon="-0.712772">
        <ele>775</ele>
        <time>2019-04-21T08:24:23.000Z</time>
      </trkpt>
      <trkpt lat="38.501661" lon="-0.71275">
        <ele>775</ele>
        <time>2019-04-21T08:24:24.000Z</time>
      </trkpt>
      <trkpt lat="38.501653" lon="-0.712724">
        <ele>775</ele>
        <time>2019-04-21T08:24:25.000Z</time>
      </trkpt>
      <trkpt lat="38.501643" lon="-0.712699">
        <ele>775.23584746172</ele>
        <time>2019-04-21T08:24:26.000Z</time>
      </trkpt>
      <trkpt lat="38.501634" lon="-0.712675">
        <ele>776</ele>
        <time>2019-04-21T08:24:27.000Z</time>
      </trkpt>
      <trkpt lat="38.501626" lon="-0.712652">
        <ele>776</ele>
        <time>2019-04-21T08:24:28.000Z</time>
      </trkpt>
      <trkpt lat="38.501619" lon="-0.712628">
        <ele>776</ele>
        <time>2019-04-21T08:24:29.000Z</time>
      </trkpt>
      <trkpt lat="38.50161" lon="-0.712602">
        <ele>776.2499968</ele>
        <time>2019-04-21T08:24:30.000Z</time>
      </trkpt>
      <trkpt lat="38.5016" lon="-0.712579">
        <ele>777</ele>
        <time>2019-04-21T08:24:31.000Z</time>
      </trkpt>
      <trkpt lat="38.501588" lon="-0.712555">
        <ele>777</ele>
        <time>2019-04-21T08:24:32.000Z</time>
      </trkpt>
      <trkpt lat="38.501579" lon="-0.71253">
        <ele>777</ele>
        <time>2019-04-21T08:24:33.000Z</time>
      </trkpt>
      <trkpt lat="38.501571" lon="-0.712508">
        <ele>777</ele>
        <time>2019-04-21T08:24:34.000Z</time>
      </trkpt>
      <trkpt lat="38.501561" lon="-0.712488">
        <ele>778</ele>
        <time>2019-04-21T08:24:35.000Z</time>
      </trkpt>
      <trkpt lat="38.501555" lon="-0.712466">
        <ele>778.146197779824</ele>
        <time>2019-04-21T08:24:36.000Z</time>
      </trkpt>
      <trkpt lat="38.501551" lon="-0.712442">
        <ele>778.730996384541</ele>
        <time>2019-04-21T08:24:37.000Z</time>
      </trkpt>
      <trkpt lat="38.501544" lon="-0.712418">
        <ele>780</ele>
        <time>2019-04-21T08:24:38.000Z</time>
      </trkpt>
      <trkpt lat="38.501533" lon="-0.712394">
        <ele>780</ele>
        <time>2019-04-21T08:24:39.000Z</time>
      </trkpt>
      <trkpt lat="38.501521" lon="-0.712367">
        <ele>780</ele>
        <time>2019-04-21T08:24:40.000Z</time>
      </trkpt>
      <trkpt lat="38.501507" lon="-0.712344">
        <ele>780.233641170419</ele>
        <time>2019-04-21T08:24:41.000Z</time>
      </trkpt>
      <trkpt lat="38.501494" lon="-0.712322">
        <ele>781</ele>
        <time>2019-04-21T08:24:42.000Z</time>
      </trkpt>
      <trkpt lat="38.501482" lon="-0.7123">
        <ele>781</ele>
        <time>2019-04-21T08:24:43.000Z</time>
      </trkpt>
      <trkpt lat="38.50147" lon="-0.712274">
        <ele>781</ele>
        <time>2019-04-21T08:24:44.000Z</time>
      </trkpt>
      <trkpt lat="38.501462" lon="-0.71225">
        <ele>781</ele>
        <time>2019-04-21T08:24:45.000Z</time>
      </trkpt>
      <trkpt lat="38.501455" lon="-0.712224">
        <ele>781</ele>
        <time>2019-04-21T08:24:46.000Z</time>
      </trkpt>
      <trkpt lat="38.501448" lon="-0.7122">
        <ele>781</ele>
        <time>2019-04-21T08:24:47.000Z</time>
      </trkpt>
      <trkpt lat="38.501439" lon="-0.712174">
        <ele>781</ele>
        <time>2019-04-21T08:24:48.000Z</time>
      </trkpt>
      <trkpt lat="38.50143" lon="-0.712148">
        <ele>781</ele>
        <time>2019-04-21T08:24:49.000Z</time>
      </trkpt>
      <trkpt lat="38.501423" lon="-0.712123">
        <ele>781</ele>
        <time>2019-04-21T08:24:50.000Z</time>
      </trkpt>
      <trkpt lat="38.501414" lon="-0.712082">
        <ele>781.192306177507</ele>
        <time>2019-04-21T08:24:52.000Z</time>
      </trkpt>
      <trkpt lat="38.501411" lon="-0.712054">
        <ele>782</ele>
        <time>2019-04-21T08:24:54.000Z</time>
      </trkpt>
      <trkpt lat="38.501423" lon="-0.712037">
        <ele>783</ele>
        <time>2019-04-21T08:25:24.000Z</time>
      </trkpt>
      <trkpt lat="38.501456" lon="-0.712022">
        <ele>782</ele>
        <time>2019-04-21T08:25:26.000Z</time>
      </trkpt>
      <trkpt lat="38.50148" lon="-0.712013">
        <ele>782</ele>
        <time>2019-04-21T08:25:27.000Z</time>
      </trkpt>
      <trkpt lat="38.501505" lon="-0.712002">
        <ele>781.7500032</ele>
        <time>2019-04-21T08:25:28.000Z</time>
      </trkpt>
      <trkpt lat="38.501528" lon="-0.711994">
        <ele>780.7500032</ele>
        <time>2019-04-21T08:25:29.000Z</time>
      </trkpt>
      <trkpt lat="38.501552" lon="-0.711984">
        <ele>780</ele>
        <time>2019-04-21T08:25:30.000Z</time>
      </trkpt>
      <trkpt lat="38.501575" lon="-0.711977">
        <ele>780</ele>
        <time>2019-04-21T08:25:31.000Z</time>
      </trkpt>
      <trkpt lat="38.501599" lon="-0.711966">
        <ele>779</ele>
        <time>2019-04-21T08:25:32.000Z</time>
      </trkpt>
      <trkpt lat="38.501621" lon="-0.711954">
        <ele>779</ele>
        <time>2019-04-21T08:25:33.000Z</time>
      </trkpt>
      <trkpt lat="38.501643" lon="-0.711938">
        <ele>779.238092916093</ele>
        <time>2019-04-21T08:25:34.000Z</time>
      </trkpt>
      <trkpt lat="38.501662" lon="-0.711925">
        <ele>780</ele>
        <time>2019-04-21T08:25:35.000Z</time>
      </trkpt>
      <trkpt lat="38.501683" lon="-0.711911">
        <ele>780</ele>
        <time>2019-04-21T08:25:36.000Z</time>
      </trkpt>
      <trkpt lat="38.501704" lon="-0.711898">
        <ele>780</ele>
        <time>2019-04-21T08:25:37.000Z</time>
      </trkpt>
      <trkpt lat="38.501722" lon="-0.711884">
        <ele>780.2499968</ele>
        <time>2019-04-21T08:25:38.000Z</time>
      </trkpt>
      <trkpt lat="38.50174" lon="-0.711873">
        <ele>781.238092916093</ele>
        <time>2019-04-21T08:25:39.000Z</time>
      </trkpt>
      <trkpt lat="38.501758" lon="-0.711864">
        <ele>782</ele>
        <time>2019-04-21T08:25:40.000Z</time>
      </trkpt>
      <trkpt lat="38.501777" lon="-0.711853">
        <ele>782</ele>
        <time>2019-04-21T08:25:41.000Z</time>
      </trkpt>
      <trkpt lat="38.501796" lon="-0.711845">
        <ele>782</ele>
        <time>2019-04-21T08:25:42.000Z</time>
      </trkpt>
      <trkpt lat="38.501815" lon="-0.711837">
        <ele>782</ele>
        <time>2019-04-21T08:25:43.000Z</time>
      </trkpt>
      <trkpt lat="38.501836" lon="-0.711829">
        <ele>782</ele>
        <time>2019-04-21T08:25:44.000Z</time>
      </trkpt>
      <trkpt lat="38.501855" lon="-0.711822">
        <ele>782</ele>
        <time>2019-04-21T08:25:45.000Z</time>
      </trkpt>
      <trkpt lat="38.501874" lon="-0.711812">
        <ele>782.223211428571</ele>
        <time>2019-04-21T08:25:46.000Z</time>
      </trkpt>
      <trkpt lat="38.501893" lon="-0.711799">
        <ele>783</ele>
        <time>2019-04-21T08:25:47.000Z</time>
      </trkpt>
      <trkpt lat="38.50191" lon="-0.711789">
        <ele>782.7500032</ele>
        <time>2019-04-21T08:25:48.000Z</time>
      </trkpt>
      <trkpt lat="38.501928" lon="-0.71178">
        <ele>782</ele>
        <time>2019-04-21T08:25:49.000Z</time>
      </trkpt>
      <trkpt lat="38.501959" lon="-0.711769">
        <ele>782</ele>
        <time>2019-04-21T08:25:51.000Z</time>
      </trkpt>
      <trkpt lat="38.501987" lon="-0.711763">
        <ele>782.2499968</ele>
        <time>2019-04-21T08:25:53.000Z</time>
      </trkpt>
      <trkpt lat="38.502013" lon="-0.71176">
        <ele>783.2499968</ele>
        <time>2019-04-21T08:25:55.000Z</time>
      </trkpt>
      <trkpt lat="38.502033" lon="-0.711751">
        <ele>784</ele>
        <time>2019-04-21T08:25:57.000Z</time>
      </trkpt>
      <trkpt lat="38.502057" lon="-0.711745">
        <ele>784</ele>
        <time>2019-04-21T08:26:00.000Z</time>
      </trkpt>
      <trkpt lat="38.502081" lon="-0.711735">
        <ele>785.137930527152</ele>
        <time>2019-04-21T08:26:02.000Z</time>
      </trkpt>
      <trkpt lat="38.502102" lon="-0.711723">
        <ele>786.238092916093</ele>
        <time>2019-04-21T08:26:04.000Z</time>
      </trkpt>
      <trkpt lat="38.502123" lon="-0.711714">
        <ele>787.221236732706</ele>
        <time>2019-04-21T08:26:06.000Z</time>
      </trkpt>
      <trkpt lat="38.502149" lon="-0.711695">
        <ele>788</ele>
        <time>2019-04-21T08:26:08.000Z</time>
      </trkpt>
      <trkpt lat="38.502169" lon="-0.711678">
        <ele>788</ele>
        <time>2019-04-21T08:26:10.000Z</time>
      </trkpt>
      <trkpt lat="38.502194" lon="-0.711662">
        <ele>789</ele>
        <time>2019-04-21T08:26:12.000Z</time>
      </trkpt>
      <trkpt lat="38.502219" lon="-0.711645">
        <ele>789</ele>
        <time>2019-04-21T08:26:14.000Z</time>
      </trkpt>
      <trkpt lat="38.502248" lon="-0.711631">
        <ele>790</ele>
        <time>2019-04-21T08:26:16.000Z</time>
      </trkpt>
      <trkpt lat="38.502273" lon="-0.711627">
        <ele>790</ele>
        <time>2019-04-21T08:26:18.000Z</time>
      </trkpt>
      <trkpt lat="38.502299" lon="-0.711623">
        <ele>789</ele>
        <time>2019-04-21T08:26:20.000Z</time>
      </trkpt>
      <trkpt lat="38.502325" lon="-0.711605">
        <ele>789.221236732706</ele>
        <time>2019-04-21T08:26:22.000Z</time>
      </trkpt>
      <trkpt lat="38.502343" lon="-0.711589">
        <ele>790.2499968</ele>
        <time>2019-04-21T08:26:24.000Z</time>
      </trkpt>
      <trkpt lat="38.502366" lon="-0.711569">
        <ele>791</ele>
        <time>2019-04-21T08:26:26.000Z</time>
      </trkpt>
      <trkpt lat="38.502383" lon="-0.711546">
        <ele>791.880283404094</ele>
        <time>2019-04-21T08:26:28.000Z</time>
      </trkpt>
      <trkpt lat="38.5024" lon="-0.711525">
        <ele>792</ele>
        <time>2019-04-21T08:26:30.000Z</time>
      </trkpt>
      <trkpt lat="38.502417" lon="-0.71151">
        <ele>793</ele>
        <time>2019-04-21T08:26:32.000Z</time>
      </trkpt>
      <trkpt lat="38.502432" lon="-0.711493">
        <ele>793.226808476947</ele>
        <time>2019-04-21T08:26:34.000Z</time>
      </trkpt>
      <trkpt lat="38.502452" lon="-0.71147">
        <ele>794</ele>
        <time>2019-04-21T08:26:36.000Z</time>
      </trkpt>
      <trkpt lat="38.502468" lon="-0.711447">
        <ele>794</ele>
        <time>2019-04-21T08:26:38.000Z</time>
      </trkpt>
      <trkpt lat="38.502487" lon="-0.711425">
        <ele>795.2499968</ele>
        <time>2019-04-21T08:26:40.000Z</time>
      </trkpt>
      <trkpt lat="38.502503" lon="-0.711409">
        <ele>796</ele>
        <time>2019-04-21T08:26:42.000Z</time>
      </trkpt>
      <trkpt lat="38.502524" lon="-0.711389">
        <ele>796.2499968</ele>
        <time>2019-04-21T08:26:44.000Z</time>
      </trkpt>
      <trkpt lat="38.502545" lon="-0.711377">
        <ele>797</ele>
        <time>2019-04-21T08:26:46.000Z</time>
      </trkpt>
      <trkpt lat="38.502571" lon="-0.711362">
        <ele>798</ele>
        <time>2019-04-21T08:26:48.000Z</time>
      </trkpt>
      <trkpt lat="38.502595" lon="-0.711334">
        <ele>799</ele>
        <time>2019-04-21T08:26:50.000Z</time>
      </trkpt>
      <trkpt lat="38.502623" lon="-0.711311">
        <ele>799</ele>
        <time>2019-04-21T08:26:52.000Z</time>
      </trkpt>
      <trkpt lat="38.50265" lon="-0.711294">
        <ele>799</ele>
        <time>2019-04-21T08:26:54.000Z</time>
      </trkpt>
      <trkpt lat="38.502673" lon="-0.711275">
        <ele>800</ele>
        <time>2019-04-21T08:26:56.000Z</time>
      </trkpt>
      <trkpt lat="38.502695" lon="-0.711252">
        <ele>800.233643965404</ele>
        <time>2019-04-21T08:26:58.000Z</time>
      </trkpt>
      <trkpt lat="38.502712" lon="-0.711232">
        <ele>801</ele>
        <time>2019-04-21T08:27:00.000Z</time>
      </trkpt>
      <trkpt lat="38.502734" lon="-0.71121">
        <ele>802</ele>
        <time>2019-04-21T08:27:03.000Z</time>
      </trkpt>
      <trkpt lat="38.502754" lon="-0.711196">
        <ele>802</ele>
        <time>2019-04-21T08:27:05.000Z</time>
      </trkpt>
      <trkpt lat="38.502776" lon="-0.711185">
        <ele>802</ele>
        <time>2019-04-21T08:27:07.000Z</time>
      </trkpt>
      <trkpt lat="38.502797" lon="-0.711163">
        <ele>802.778763267294</ele>
        <time>2019-04-21T08:27:09.000Z</time>
      </trkpt>
      <trkpt lat="38.502818" lon="-0.711136">
        <ele>803</ele>
        <time>2019-04-21T08:27:11.000Z</time>
      </trkpt>
      <trkpt lat="38.502838" lon="-0.711107">
        <ele>803</ele>
        <time>2019-04-21T08:27:13.000Z</time>
      </trkpt>
      <trkpt lat="38.502856" lon="-0.711079">
        <ele>804</ele>
        <time>2019-04-21T08:27:15.000Z</time>
      </trkpt>
      <trkpt lat="38.50287" lon="-0.711053">
        <ele>804</ele>
        <time>2019-04-21T08:27:17.000Z</time>
      </trkpt>
      <trkpt lat="38.502886" lon="-0.711026">
        <ele>804</ele>
        <time>2019-04-21T08:27:19.000Z</time>
      </trkpt>
      <trkpt lat="38.502902" lon="-0.711001">
        <ele>805</ele>
        <time>2019-04-21T08:27:21.000Z</time>
      </trkpt>
      <trkpt lat="38.502924" lon="-0.710979">
        <ele>805</ele>
        <time>2019-04-21T08:27:23.000Z</time>
      </trkpt>
      <trkpt lat="38.502942" lon="-0.710964">
        <ele>805</ele>
        <time>2019-04-21T08:27:25.000Z</time>
      </trkpt>
      <trkpt lat="38.502961" lon="-0.710952">
        <ele>805.184779130435</ele>
        <time>2019-04-21T08:27:27.000Z</time>
      </trkpt>
      <trkpt lat="38.502978" lon="-0.71094">
        <ele>807</ele>
        <time>2019-04-21T08:27:29.000Z</time>
      </trkpt>
      <trkpt lat="38.502996" lon="-0.710925">
        <ele>807.2499968</ele>
        <time>2019-04-21T08:27:31.000Z</time>
      </trkpt>
      <trkpt lat="38.503012" lon="-0.710905">
        <ele>808</ele>
        <time>2019-04-21T08:27:33.000Z</time>
      </trkpt>
      <trkpt lat="38.503032" lon="-0.710892">
        <ele>808</ele>
        <time>2019-04-21T08:27:35.000Z</time>
      </trkpt>
      <trkpt lat="38.503063" lon="-0.710885">
        <ele>808</ele>
        <time>2019-04-21T08:27:37.000Z</time>
      </trkpt>
      <trkpt lat="38.503094" lon="-0.710869">
        <ele>808.7500032</ele>
        <time>2019-04-21T08:27:39.000Z</time>
      </trkpt>
      <trkpt lat="38.50311" lon="-0.710849">
        <ele>808.218746666667</ele>
        <time>2019-04-21T08:27:41.000Z</time>
      </trkpt>
      <trkpt lat="38.50312" lon="-0.710829">
        <ele>810</ele>
        <time>2019-04-21T08:27:43.000Z</time>
      </trkpt>
      <trkpt lat="38.503138" lon="-0.710815">
        <ele>810</ele>
        <time>2019-04-21T08:27:45.000Z</time>
      </trkpt>
      <trkpt lat="38.503147" lon="-0.71079">
        <ele>810</ele>
        <time>2019-04-21T08:27:47.000Z</time>
      </trkpt>
      <trkpt lat="38.503164" lon="-0.710764">
        <ele>810</ele>
        <time>2019-04-21T08:27:49.000Z</time>
      </trkpt>
      <trkpt lat="38.503175" lon="-0.71073">
        <ele>811</ele>
        <time>2019-04-21T08:27:51.000Z</time>
      </trkpt>
      <trkpt lat="38.503184" lon="-0.710697">
        <ele>811</ele>
        <time>2019-04-21T08:27:53.000Z</time>
      </trkpt>
      <trkpt lat="38.503178" lon="-0.710665">
        <ele>812.242717602028</ele>
        <time>2019-04-21T08:27:55.000Z</time>
      </trkpt>
      <trkpt lat="38.503176" lon="-0.710639">
        <ele>813.886524565162</ele>
        <time>2019-04-21T08:27:58.000Z</time>
      </trkpt>
      <trkpt lat="38.503196" lon="-0.710625">
        <ele>815.175823557543</ele>
        <time>2019-04-21T08:28:01.000Z</time>
      </trkpt>
      <trkpt lat="38.503207" lon="-0.710604">
        <ele>816</ele>
        <time>2019-04-21T08:28:03.000Z</time>
      </trkpt>
      <trkpt lat="38.503215" lon="-0.710572">
        <ele>817</ele>
        <time>2019-04-21T08:28:05.000Z</time>
      </trkpt>
      <trkpt lat="38.503226" lon="-0.710538">
        <ele>817</ele>
        <time>2019-04-21T08:28:07.000Z</time>
      </trkpt>
      <trkpt lat="38.503227" lon="-0.710504">
        <ele>818</ele>
        <time>2019-04-21T08:28:09.000Z</time>
      </trkpt>
      <trkpt lat="38.503242" lon="-0.710479">
        <ele>819</ele>
        <time>2019-04-21T08:28:11.000Z</time>
      </trkpt>
      <trkpt lat="38.503248" lon="-0.71045">
        <ele>819</ele>
        <time>2019-04-21T08:28:14.000Z</time>
      </trkpt>
      <trkpt lat="38.503261" lon="-0.710432">
        <ele>819.223211428571</ele>
        <time>2019-04-21T08:28:16.000Z</time>
      </trkpt>
      <trkpt lat="38.503267" lon="-0.710398">
        <ele>820.242423458833</ele>
        <time>2019-04-21T08:28:18.000Z</time>
      </trkpt>
      <trkpt lat="38.503273" lon="-0.710364">
        <ele>821</ele>
        <time>2019-04-21T08:28:20.000Z</time>
      </trkpt>
      <trkpt lat="38.503282" lon="-0.710331">
        <ele>821</ele>
        <time>2019-04-21T08:28:22.000Z</time>
      </trkpt>
      <trkpt lat="38.50329" lon="-0.710301">
        <ele>821.245096439821</ele>
        <time>2019-04-21T08:28:24.000Z</time>
      </trkpt>
      <trkpt lat="38.5033" lon="-0.710273">
        <ele>822</ele>
        <time>2019-04-21T08:28:26.000Z</time>
      </trkpt>
      <trkpt lat="38.50331" lon="-0.710248">
        <ele>823</ele>
        <time>2019-04-21T08:28:28.000Z</time>
      </trkpt>
      <trkpt lat="38.503317" lon="-0.71022">
        <ele>823</ele>
        <time>2019-04-21T08:28:30.000Z</time>
      </trkpt>
      <trkpt lat="38.503318" lon="-0.710188">
        <ele>823.175823557543</ele>
        <time>2019-04-21T08:28:32.000Z</time>
      </trkpt>
      <trkpt lat="38.503327" lon="-0.710159">
        <ele>824</ele>
        <time>2019-04-21T08:28:34.000Z</time>
      </trkpt>
      <trkpt lat="38.503318" lon="-0.710135">
        <ele>825</ele>
        <time>2019-04-21T08:28:38.000Z</time>
      </trkpt>
      <trkpt lat="38.50332" lon="-0.710106">
        <ele>824.789474393349</ele>
        <time>2019-04-21T08:28:43.000Z</time>
      </trkpt>
      <trkpt lat="38.50331" lon="-0.710069">
        <ele>824</ele>
        <time>2019-04-21T08:28:45.000Z</time>
      </trkpt>
      <trkpt lat="38.503295" lon="-0.710033">
        <ele>825.221236732706</ele>
        <time>2019-04-21T08:28:47.000Z</time>
      </trkpt>
      <trkpt lat="38.503278" lon="-0.710005">
        <ele>826</ele>
        <time>2019-04-21T08:28:49.000Z</time>
      </trkpt>
      <trkpt lat="38.50326" lon="-0.70998">
        <ele>826</ele>
        <time>2019-04-21T08:28:51.000Z</time>
      </trkpt>
      <trkpt lat="38.503241" lon="-0.709948">
        <ele>826</ele>
        <time>2019-04-21T08:28:53.000Z</time>
      </trkpt>
      <trkpt lat="38.50322" lon="-0.709918">
        <ele>826</ele>
        <time>2019-04-21T08:28:55.000Z</time>
      </trkpt>
      <trkpt lat="38.503202" lon="-0.709885">
        <ele>827</ele>
        <time>2019-04-21T08:28:57.000Z</time>
      </trkpt>
      <trkpt lat="38.503189" lon="-0.709853">
        <ele>827.192306177507</ele>
        <time>2019-04-21T08:28:59.000Z</time>
      </trkpt>
      <trkpt lat="38.503179" lon="-0.709823">
        <ele>828</ele>
        <time>2019-04-21T08:29:01.000Z</time>
      </trkpt>
      <trkpt lat="38.503175" lon="-0.709792">
        <ele>829</ele>
        <time>2019-04-21T08:29:03.000Z</time>
      </trkpt>
      <trkpt lat="38.503173" lon="-0.709755">
        <ele>829</ele>
        <time>2019-04-21T08:29:05.000Z</time>
      </trkpt>
      <trkpt lat="38.503177" lon="-0.709717">
        <ele>829</ele>
        <time>2019-04-21T08:29:07.000Z</time>
      </trkpt>
      <trkpt lat="38.503175" lon="-0.709674">
        <ele>829</ele>
        <time>2019-04-21T08:29:09.000Z</time>
      </trkpt>
      <trkpt lat="38.503171" lon="-0.709636">
        <ele>829</ele>
        <time>2019-04-21T08:29:11.000Z</time>
      </trkpt>
      <trkpt lat="38.503163" lon="-0.709601">
        <ele>829</ele>
        <time>2019-04-21T08:29:13.000Z</time>
      </trkpt>
      <trkpt lat="38.503154" lon="-0.709564">
        <ele>829</ele>
        <time>2019-04-21T08:29:15.000Z</time>
      </trkpt>
      <trkpt lat="38.50315" lon="-0.709527">
        <ele>830</ele>
        <time>2019-04-21T08:29:17.000Z</time>
      </trkpt>
      <trkpt lat="38.503145" lon="-0.709487">
        <ele>830.696631718226</ele>
        <time>2019-04-21T08:29:19.000Z</time>
      </trkpt>
      <trkpt lat="38.503136" lon="-0.709453">
        <ele>830.76415253828</ele>
        <time>2019-04-21T08:29:21.000Z</time>
      </trkpt>
      <trkpt lat="38.503128" lon="-0.709419">
        <ele>830.219296669736</ele>
        <time>2019-04-21T08:29:23.000Z</time>
      </trkpt>
      <trkpt lat="38.503125" lon="-0.709384">
        <ele>831</ele>
        <time>2019-04-21T08:29:25.000Z</time>
      </trkpt>
      <trkpt lat="38.503128" lon="-0.709352">
        <ele>831.202129687628</ele>
        <time>2019-04-21T08:29:27.000Z</time>
      </trkpt>
      <trkpt lat="38.503138" lon="-0.709318">
        <ele>832</ele>
        <time>2019-04-21T08:29:29.000Z</time>
      </trkpt>
      <trkpt lat="38.503139" lon="-0.70928">
        <ele>832</ele>
        <time>2019-04-21T08:29:31.000Z</time>
      </trkpt>
      <trkpt lat="38.503136" lon="-0.709243">
        <ele>832</ele>
        <time>2019-04-21T08:29:33.000Z</time>
      </trkpt>
      <trkpt lat="38.503133" lon="-0.709219">
        <ele>832.137930527152</ele>
        <time>2019-04-21T08:29:34.000Z</time>
      </trkpt>
      <trkpt lat="38.503127" lon="-0.709196">
        <ele>833</ele>
        <time>2019-04-21T08:29:35.000Z</time>
      </trkpt>
      <trkpt lat="38.503122" lon="-0.709171">
        <ele>833</ele>
        <time>2019-04-21T08:29:36.000Z</time>
      </trkpt>
      <trkpt lat="38.50312" lon="-0.709145">
        <ele>833</ele>
        <time>2019-04-21T08:29:37.000Z</time>
      </trkpt>
      <trkpt lat="38.503118" lon="-0.709117">
        <ele>833</ele>
        <time>2019-04-21T08:29:38.000Z</time>
      </trkpt>
      <trkpt lat="38.503115" lon="-0.70909">
        <ele>833</ele>
        <time>2019-04-21T08:29:39.000Z</time>
      </trkpt>
      <trkpt lat="38.503112" lon="-0.709063">
        <ele>833.210525606651</ele>
        <time>2019-04-21T08:29:40.000Z</time>
      </trkpt>
      <trkpt lat="38.503109" lon="-0.709037">
        <ele>834</ele>
        <time>2019-04-21T08:29:41.000Z</time>
      </trkpt>
      <trkpt lat="38.503107" lon="-0.709013">
        <ele>834</ele>
        <time>2019-04-21T08:29:42.000Z</time>
      </trkpt>
      <trkpt lat="38.503108" lon="-0.708989">
        <ele>834</ele>
        <time>2019-04-21T08:29:43.000Z</time>
      </trkpt>
      <trkpt lat="38.503109" lon="-0.708945">
        <ele>834</ele>
        <time>2019-04-21T08:29:45.000Z</time>
      </trkpt>
      <trkpt lat="38.50311" lon="-0.708921">
        <ele>834</ele>
        <time>2019-04-21T08:29:46.000Z</time>
      </trkpt>
      <trkpt lat="38.503109" lon="-0.708883">
        <ele>835</ele>
        <time>2019-04-21T08:29:48.000Z</time>
      </trkpt>
      <trkpt lat="38.5031" lon="-0.70885">
        <ele>835.932837888181</ele>
        <time>2019-04-21T08:29:50.000Z</time>
      </trkpt>
      <trkpt lat="38.503099" lon="-0.708814">
        <ele>835</ele>
        <time>2019-04-21T08:29:52.000Z</time>
      </trkpt>
      <trkpt lat="38.503094" lon="-0.708775">
        <ele>836.225221693055</ele>
        <time>2019-04-21T08:29:54.000Z</time>
      </trkpt>
      <trkpt lat="38.503078" lon="-0.708735">
        <ele>837</ele>
        <time>2019-04-21T08:29:56.000Z</time>
      </trkpt>
      <trkpt lat="38.503067" lon="-0.708695">
        <ele>836</ele>
        <time>2019-04-21T08:29:58.000Z</time>
      </trkpt>
      <trkpt lat="38.503061" lon="-0.708657">
        <ele>836.2499968</ele>
        <time>2019-04-21T08:30:00.000Z</time>
      </trkpt>
      <trkpt lat="38.50306" lon="-0.708617">
        <ele>837</ele>
        <time>2019-04-21T08:30:02.000Z</time>
      </trkpt>
      <trkpt lat="38.50306" lon="-0.708578">
        <ele>837</ele>
        <time>2019-04-21T08:30:04.000Z</time>
      </trkpt>
      <trkpt lat="38.503061" lon="-0.708536">
        <ele>838</ele>
        <time>2019-04-21T08:30:06.000Z</time>
      </trkpt>
      <trkpt lat="38.503056" lon="-0.708494">
        <ele>838</ele>
        <time>2019-04-21T08:30:08.000Z</time>
      </trkpt>
      <trkpt lat="38.503048" lon="-0.708471">
        <ele>838</ele>
        <time>2019-04-21T08:30:09.000Z</time>
      </trkpt>
      <trkpt lat="38.503042" lon="-0.70843">
        <ele>838</ele>
        <time>2019-04-21T08:30:11.000Z</time>
      </trkpt>
      <trkpt lat="38.50304" lon="-0.708388">
        <ele>838</ele>
        <time>2019-04-21T08:30:13.000Z</time>
      </trkpt>
      <trkpt lat="38.50304" lon="-0.708363">
        <ele>838</ele>
        <time>2019-04-21T08:30:14.000Z</time>
      </trkpt>
      <trkpt lat="38.503039" lon="-0.70832">
        <ele>838</ele>
        <time>2019-04-21T08:30:16.000Z</time>
      </trkpt>
      <trkpt lat="38.50304" lon="-0.708296">
        <ele>838</ele>
        <time>2019-04-21T08:30:17.000Z</time>
      </trkpt>
      <trkpt lat="38.503043" lon="-0.708272">
        <ele>838.275861054304</ele>
        <time>2019-04-21T08:30:18.000Z</time>
      </trkpt>
      <trkpt lat="38.503044" lon="-0.708249">
        <ele>840</ele>
        <time>2019-04-21T08:30:19.000Z</time>
      </trkpt>
      <trkpt lat="38.503047" lon="-0.708204">
        <ele>840</ele>
        <time>2019-04-21T08:30:21.000Z</time>
      </trkpt>
      <trkpt lat="38.503053" lon="-0.708162">
        <ele>840</ele>
        <time>2019-04-21T08:30:23.000Z</time>
      </trkpt>
      <trkpt lat="38.503054" lon="-0.708139">
        <ele>840</ele>
        <time>2019-04-21T08:30:24.000Z</time>
      </trkpt>
      <trkpt lat="38.503057" lon="-0.708091">
        <ele>841</ele>
        <time>2019-04-21T08:30:26.000Z</time>
      </trkpt>
      <trkpt lat="38.503056" lon="-0.708067">
        <ele>841</ele>
        <time>2019-04-21T08:30:27.000Z</time>
      </trkpt>
      <trkpt lat="38.503053" lon="-0.708043">
        <ele>841</ele>
        <time>2019-04-21T08:30:28.000Z</time>
      </trkpt>
      <trkpt lat="38.503047" lon="-0.708004">
        <ele>841</ele>
        <time>2019-04-21T08:30:30.000Z</time>
      </trkpt>
      <trkpt lat="38.503039" lon="-0.707964">
        <ele>841.2499968</ele>
        <time>2019-04-21T08:30:32.000Z</time>
      </trkpt>
      <trkpt lat="38.503036" lon="-0.707926">
        <ele>842</ele>
        <time>2019-04-21T08:30:34.000Z</time>
      </trkpt>
      <trkpt lat="38.503029" lon="-0.707885">
        <ele>842</ele>
        <time>2019-04-21T08:30:36.000Z</time>
      </trkpt>
      <trkpt lat="38.503026" lon="-0.707842">
        <ele>844</ele>
        <time>2019-04-21T08:30:38.000Z</time>
      </trkpt>
      <trkpt lat="38.503022" lon="-0.707801">
        <ele>844</ele>
        <time>2019-04-21T08:30:40.000Z</time>
      </trkpt>
      <trkpt lat="38.503013" lon="-0.707761">
        <ele>843</ele>
        <time>2019-04-21T08:30:42.000Z</time>
      </trkpt>
      <trkpt lat="38.503007" lon="-0.707726">
        <ele>844</ele>
        <time>2019-04-21T08:30:44.000Z</time>
      </trkpt>
      <trkpt lat="38.502997" lon="-0.707687">
        <ele>844</ele>
        <time>2019-04-21T08:30:46.000Z</time>
      </trkpt>
      <trkpt lat="38.502986" lon="-0.707645">
        <ele>844.219296669736</ele>
        <time>2019-04-21T08:30:48.000Z</time>
      </trkpt>
      <trkpt lat="38.502976" lon="-0.707607">
        <ele>845.965217488091</ele>
        <time>2019-04-21T08:30:50.000Z</time>
      </trkpt>
      <trkpt lat="38.502967" lon="-0.707569">
        <ele>846</ele>
        <time>2019-04-21T08:30:52.000Z</time>
      </trkpt>
      <trkpt lat="38.502953" lon="-0.707535">
        <ele>846.968992171143</ele>
        <time>2019-04-21T08:30:54.000Z</time>
      </trkpt>
      <trkpt lat="38.502941" lon="-0.707497">
        <ele>847</ele>
        <time>2019-04-21T08:30:56.000Z</time>
      </trkpt>
      <trkpt lat="38.502933" lon="-0.707463">
        <ele>847.238092916093</ele>
        <time>2019-04-21T08:30:58.000Z</time>
      </trkpt>
      <trkpt lat="38.502929" lon="-0.707434">
        <ele>848</ele>
        <time>2019-04-21T08:31:00.000Z</time>
      </trkpt>
      <trkpt lat="38.502921" lon="-0.707402">
        <ele>849</ele>
        <time>2019-04-21T08:31:02.000Z</time>
      </trkpt>
      <trkpt lat="38.502917" lon="-0.707367">
        <ele>850</ele>
        <time>2019-04-21T08:31:04.000Z</time>
      </trkpt>
      <trkpt lat="38.502916" lon="-0.707334">
        <ele>850.137930527152</ele>
        <time>2019-04-21T08:31:06.000Z</time>
      </trkpt>
      <trkpt lat="38.502908" lon="-0.707298">
        <ele>851</ele>
        <time>2019-04-21T08:31:08.000Z</time>
      </trkpt>
      <trkpt lat="38.502897" lon="-0.707265">
        <ele>851.221236732706</ele>
        <time>2019-04-21T08:31:10.000Z</time>
      </trkpt>
      <trkpt lat="38.502888" lon="-0.707235">
        <ele>852</ele>
        <time>2019-04-21T08:31:12.000Z</time>
      </trkpt>
      <trkpt lat="38.502886" lon="-0.707208">
        <ele>853</ele>
        <time>2019-04-21T08:31:17.000Z</time>
      </trkpt>
      <trkpt lat="38.502892" lon="-0.70717">
        <ele>853</ele>
        <time>2019-04-21T08:31:19.000Z</time>
      </trkpt>
      <trkpt lat="38.502895" lon="-0.707126">
        <ele>853</ele>
        <time>2019-04-21T08:31:21.000Z</time>
      </trkpt>
      <trkpt lat="38.502895" lon="-0.707101">
        <ele>852.862069472848</ele>
        <time>2019-04-21T08:31:22.000Z</time>
      </trkpt>
      <trkpt lat="38.502896" lon="-0.707076">
        <ele>852</ele>
        <time>2019-04-21T08:31:23.000Z</time>
      </trkpt>
      <trkpt lat="38.502893" lon="-0.70705">
        <ele>852.238092916093</ele>
        <time>2019-04-21T08:31:24.000Z</time>
      </trkpt>
      <trkpt lat="38.502886" lon="-0.707022">
        <ele>853</ele>
        <time>2019-04-21T08:31:25.000Z</time>
      </trkpt>
      <trkpt lat="38.502884" lon="-0.706998">
        <ele>853</ele>
        <time>2019-04-21T08:31:26.000Z</time>
      </trkpt>
      <trkpt lat="38.502882" lon="-0.706973">
        <ele>853</ele>
        <time>2019-04-21T08:31:27.000Z</time>
      </trkpt>
      <trkpt lat="38.502881" lon="-0.706928">
        <ele>852</ele>
        <time>2019-04-21T08:31:29.000Z</time>
      </trkpt>
      <trkpt lat="38.50288" lon="-0.706884">
        <ele>850.806203550272</ele>
        <time>2019-04-21T08:31:31.000Z</time>
      </trkpt>
      <trkpt lat="38.502877" lon="-0.706856">
        <ele>850.031007828857</ele>
        <time>2019-04-21T08:31:32.000Z</time>
      </trkpt>
      <trkpt lat="38.502871" lon="-0.706826">
        <ele>851</ele>
        <time>2019-04-21T08:31:33.000Z</time>
      </trkpt>
      <trkpt lat="38.502869" lon="-0.706794">
        <ele>850.5000064</ele>
        <time>2019-04-21T08:31:34.000Z</time>
      </trkpt>
      <trkpt lat="38.502861" lon="-0.706761">
        <ele>848.7500032</ele>
        <time>2019-04-21T08:31:35.000Z</time>
      </trkpt>
      <trkpt lat="38.502854" lon="-0.70673">
        <ele>848</ele>
        <time>2019-04-21T08:31:36.000Z</time>
      </trkpt>
      <trkpt lat="38.502848" lon="-0.706702">
        <ele>848</ele>
        <time>2019-04-21T08:31:37.000Z</time>
      </trkpt>
      <trkpt lat="38.502844" lon="-0.706672">
        <ele>848</ele>
        <time>2019-04-21T08:31:38.000Z</time>
      </trkpt>
      <trkpt lat="38.502847" lon="-0.706646">
        <ele>847.7500032</ele>
        <time>2019-04-21T08:31:39.000Z</time>
      </trkpt>
      <trkpt lat="38.502848" lon="-0.70662">
        <ele>846.7500032</ele>
        <time>2019-04-21T08:31:40.000Z</time>
      </trkpt>
      <trkpt lat="38.502851" lon="-0.70659">
        <ele>846</ele>
        <time>2019-04-21T08:31:41.000Z</time>
      </trkpt>
      <trkpt lat="38.502854" lon="-0.706564">
        <ele>846</ele>
        <time>2019-04-21T08:31:42.000Z</time>
      </trkpt>
      <trkpt lat="38.502856" lon="-0.706536">
        <ele>846</ele>
        <time>2019-04-21T08:31:43.000Z</time>
      </trkpt>
      <trkpt lat="38.50286" lon="-0.706509">
        <ele>846</ele>
        <time>2019-04-21T08:31:44.000Z</time>
      </trkpt>
      <trkpt lat="38.502862" lon="-0.706479">
        <ele>846</ele>
        <time>2019-04-21T08:31:45.000Z</time>
      </trkpt>
      <trkpt lat="38.502868" lon="-0.706452">
        <ele>846</ele>
        <time>2019-04-21T08:31:46.000Z</time>
      </trkpt>
      <trkpt lat="38.502876" lon="-0.706426">
        <ele>846</ele>
        <time>2019-04-21T08:31:47.000Z</time>
      </trkpt>
      <trkpt lat="38.502885" lon="-0.706402">
        <ele>846</ele>
        <time>2019-04-21T08:31:48.000Z</time>
      </trkpt>
      <trkpt lat="38.502891" lon="-0.706378">
        <ele>845.807693822493</ele>
        <time>2019-04-21T08:31:49.000Z</time>
      </trkpt>
      <trkpt lat="38.502902" lon="-0.706354">
        <ele>845.038459266261</ele>
        <time>2019-04-21T08:31:50.000Z</time>
      </trkpt>
      <trkpt lat="38.502911" lon="-0.706325">
        <ele>844.0499968</ele>
        <time>2019-04-21T08:31:51.000Z</time>
      </trkpt>
      <trkpt lat="38.502924" lon="-0.706295">
        <ele>843</ele>
        <time>2019-04-21T08:31:52.000Z</time>
      </trkpt>
      <trkpt lat="38.502929" lon="-0.70627">
        <ele>843</ele>
        <time>2019-04-21T08:31:53.000Z</time>
      </trkpt>
      <trkpt lat="38.502933" lon="-0.706242">
        <ele>843</ele>
        <time>2019-04-21T08:31:54.000Z</time>
      </trkpt>
      <trkpt lat="38.502936" lon="-0.706212">
        <ele>842.7500032</ele>
        <time>2019-04-21T08:31:55.000Z</time>
      </trkpt>
      <trkpt lat="38.502939" lon="-0.706178">
        <ele>841.7500032</ele>
        <time>2019-04-21T08:31:56.000Z</time>
      </trkpt>
      <trkpt lat="38.502945" lon="-0.706143">
        <ele>840.768521481481</ele>
        <time>2019-04-21T08:31:57.000Z</time>
      </trkpt>
      <trkpt lat="38.502955" lon="-0.706116">
        <ele>839.815220869565</ele>
        <time>2019-04-21T08:31:58.000Z</time>
      </trkpt>
      <trkpt lat="38.50296" lon="-0.706088">
        <ele>839</ele>
        <time>2019-04-21T08:31:59.000Z</time>
      </trkpt>
      <trkpt lat="38.502959" lon="-0.706053">
        <ele>838.7500032</ele>
        <time>2019-04-21T08:32:00.000Z</time>
      </trkpt>
      <trkpt lat="38.502956" lon="-0.706021">
        <ele>838</ele>
        <time>2019-04-21T08:32:01.000Z</time>
      </trkpt>
      <trkpt lat="38.502958" lon="-0.705991">
        <ele>838</ele>
        <time>2019-04-21T08:32:02.000Z</time>
      </trkpt>
      <trkpt lat="38.502964" lon="-0.705962">
        <ele>838</ele>
        <time>2019-04-21T08:32:03.000Z</time>
      </trkpt>
      <trkpt lat="38.50297" lon="-0.705932">
        <ele>838</ele>
        <time>2019-04-21T08:32:04.000Z</time>
      </trkpt>
      <trkpt lat="38.502974" lon="-0.705901">
        <ele>837.752477631612</ele>
        <time>2019-04-21T08:32:05.000Z</time>
      </trkpt>
      <trkpt lat="38.50298" lon="-0.705872">
        <ele>837</ele>
        <time>2019-04-21T08:32:06.000Z</time>
      </trkpt>
      <trkpt lat="38.502988" lon="-0.705843">
        <ele>837</ele>
        <time>2019-04-21T08:32:07.000Z</time>
      </trkpt>
      <trkpt lat="38.502998" lon="-0.705817">
        <ele>837</ele>
        <time>2019-04-21T08:32:08.000Z</time>
      </trkpt>
      <trkpt lat="38.503008" lon="-0.70579">
        <ele>837</ele>
        <time>2019-04-21T08:32:09.000Z</time>
      </trkpt>
      <trkpt lat="38.503014" lon="-0.70576">
        <ele>837</ele>
        <time>2019-04-21T08:32:10.000Z</time>
      </trkpt>
      <trkpt lat="38.503016" lon="-0.70573">
        <ele>836.068630157615</ele>
        <time>2019-04-21T08:32:11.000Z</time>
      </trkpt>
      <trkpt lat="38.503018" lon="-0.705702">
        <ele>836</ele>
        <time>2019-04-21T08:32:12.000Z</time>
      </trkpt>
      <trkpt lat="38.503015" lon="-0.705673">
        <ele>835.7500032</ele>
        <time>2019-04-21T08:32:13.000Z</time>
      </trkpt>
      <trkpt lat="38.503014" lon="-0.705645">
        <ele>835</ele>
        <time>2019-04-21T08:32:14.000Z</time>
      </trkpt>
      <trkpt lat="38.503014" lon="-0.705616">
        <ele>835</ele>
        <time>2019-04-21T08:32:15.000Z</time>
      </trkpt>
      <trkpt lat="38.503015" lon="-0.70559">
        <ele>835</ele>
        <time>2019-04-21T08:32:16.000Z</time>
      </trkpt>
      <trkpt lat="38.503022" lon="-0.705565">
        <ele>835</ele>
        <time>2019-04-21T08:32:17.000Z</time>
      </trkpt>
      <trkpt lat="38.503026" lon="-0.70554">
        <ele>835</ele>
        <time>2019-04-21T08:32:18.000Z</time>
      </trkpt>
      <trkpt lat="38.503026" lon="-0.705516">
        <ele>834.7500032</ele>
        <time>2019-04-21T08:32:19.000Z</time>
      </trkpt>
      <trkpt lat="38.503022" lon="-0.705488">
        <ele>833.770644464277</ele>
        <time>2019-04-21T08:32:20.000Z</time>
      </trkpt>
      <trkpt lat="38.503018" lon="-0.70546">
        <ele>833</ele>
        <time>2019-04-21T08:32:21.000Z</time>
      </trkpt>
      <trkpt lat="38.503018" lon="-0.705436">
        <ele>833</ele>
        <time>2019-04-21T08:32:22.000Z</time>
      </trkpt>
      <trkpt lat="38.503022" lon="-0.705411">
        <ele>833</ele>
        <time>2019-04-21T08:32:23.000Z</time>
      </trkpt>
      <trkpt lat="38.503028" lon="-0.705381">
        <ele>833</ele>
        <time>2019-04-21T08:32:24.000Z</time>
      </trkpt>
      <trkpt lat="38.50303" lon="-0.705353">
        <ele>833</ele>
        <time>2019-04-21T08:32:25.000Z</time>
      </trkpt>
      <trkpt lat="38.503032" lon="-0.705328">
        <ele>832.815220869565</ele>
        <time>2019-04-21T08:32:26.000Z</time>
      </trkpt>
      <trkpt lat="38.50303" lon="-0.705305">
        <ele>831.7500032</ele>
        <time>2019-04-21T08:32:27.000Z</time>
      </trkpt>
      <trkpt lat="38.503024" lon="-0.705278">
        <ele>831</ele>
        <time>2019-04-21T08:32:28.000Z</time>
      </trkpt>
      <trkpt lat="38.503022" lon="-0.705248">
        <ele>831</ele>
        <time>2019-04-21T08:32:29.000Z</time>
      </trkpt>
      <trkpt lat="38.503024" lon="-0.70522">
        <ele>831</ele>
        <time>2019-04-21T08:32:30.000Z</time>
      </trkpt>
      <trkpt lat="38.50303" lon="-0.705193">
        <ele>831</ele>
        <time>2019-04-21T08:32:31.000Z</time>
      </trkpt>
      <trkpt lat="38.503044" lon="-0.705145">
        <ele>830</ele>
        <time>2019-04-21T08:32:33.000Z</time>
      </trkpt>
      <trkpt lat="38.503052" lon="-0.705116">
        <ele>830</ele>
        <time>2019-04-21T08:32:34.000Z</time>
      </trkpt>
      <trkpt lat="38.503063" lon="-0.705084">
        <ele>828.7500032</ele>
        <time>2019-04-21T08:32:35.000Z</time>
      </trkpt>
      <trkpt lat="38.503074" lon="-0.705049">
        <ele>827.7500032</ele>
        <time>2019-04-21T08:32:36.000Z</time>
      </trkpt>
      <trkpt lat="38.503084" lon="-0.705017">
        <ele>826.7500032</ele>
        <time>2019-04-21T08:32:37.000Z</time>
      </trkpt>
      <trkpt lat="38.50309" lon="-0.704982">
        <ele>826</ele>
        <time>2019-04-21T08:32:38.000Z</time>
      </trkpt>
      <trkpt lat="38.503096" lon="-0.704947">
        <ele>826</ele>
        <time>2019-04-21T08:32:39.000Z</time>
      </trkpt>
      <trkpt lat="38.503098" lon="-0.704915">
        <ele>825.7500032</ele>
        <time>2019-04-21T08:32:40.000Z</time>
      </trkpt>
      <trkpt lat="38.503104" lon="-0.704892">
        <ele>825</ele>
        <time>2019-04-21T08:32:41.000Z</time>
      </trkpt>
      <trkpt lat="38.50312" lon="-0.704853">
        <ele>826</ele>
        <time>2019-04-21T08:32:43.000Z</time>
      </trkpt>
      <trkpt lat="38.503122" lon="-0.704828">
        <ele>825.815220869565</ele>
        <time>2019-04-21T08:32:44.000Z</time>
      </trkpt>
      <trkpt lat="38.503112" lon="-0.704804">
        <ele>825</ele>
        <time>2019-04-21T08:32:45.000Z</time>
      </trkpt>
      <trkpt lat="38.503102" lon="-0.704784">
        <ele>825</ele>
        <time>2019-04-21T08:32:46.000Z</time>
      </trkpt>
      <trkpt lat="38.503086" lon="-0.704766">
        <ele>825</ele>
        <time>2019-04-21T08:32:47.000Z</time>
      </trkpt>
      <trkpt lat="38.503074" lon="-0.704745">
        <ele>825</ele>
        <time>2019-04-21T08:32:48.000Z</time>
      </trkpt>
      <trkpt lat="38.503058" lon="-0.704727">
        <ele>824</ele>
        <time>2019-04-21T08:32:49.000Z</time>
      </trkpt>
      <trkpt lat="38.503042" lon="-0.704708">
        <ele>824.193542171328</ele>
        <time>2019-04-21T08:32:50.000Z</time>
      </trkpt>
      <trkpt lat="38.503024" lon="-0.704689">
        <ele>824.7500032</ele>
        <time>2019-04-21T08:32:51.000Z</time>
      </trkpt>
      <trkpt lat="38.503006" lon="-0.704677">
        <ele>823.7500032</ele>
        <time>2019-04-21T08:32:52.000Z</time>
      </trkpt>
      <trkpt lat="38.50298" lon="-0.704645">
        <ele>822.766356034596</ele>
        <time>2019-04-21T08:32:54.000Z</time>
      </trkpt>
      <trkpt lat="38.502968" lon="-0.704615">
        <ele>822</ele>
        <time>2019-04-21T08:32:55.000Z</time>
      </trkpt>
      <trkpt lat="38.502954" lon="-0.704587">
        <ele>822</ele>
        <time>2019-04-21T08:32:56.000Z</time>
      </trkpt>
      <trkpt lat="38.502946" lon="-0.70456">
        <ele>820.7500032</ele>
        <time>2019-04-21T08:32:57.000Z</time>
      </trkpt>
      <trkpt lat="38.502936" lon="-0.704534">
        <ele>820</ele>
        <time>2019-04-21T08:32:58.000Z</time>
      </trkpt>
      <trkpt lat="38.502926" lon="-0.704511">
        <ele>820</ele>
        <time>2019-04-21T08:32:59.000Z</time>
      </trkpt>
      <trkpt lat="38.502916" lon="-0.704489">
        <ele>820</ele>
        <time>2019-04-21T08:33:00.000Z</time>
      </trkpt>
      <trkpt lat="38.502908" lon="-0.704464">
        <ele>820</ele>
        <time>2019-04-21T08:33:01.000Z</time>
      </trkpt>
      <trkpt lat="38.502898" lon="-0.704437">
        <ele>820</ele>
        <time>2019-04-21T08:33:02.000Z</time>
      </trkpt>
      <trkpt lat="38.502888" lon="-0.704414">
        <ele>819.7500032</ele>
        <time>2019-04-21T08:33:03.000Z</time>
      </trkpt>
      <trkpt lat="38.502872" lon="-0.704395">
        <ele>819</ele>
        <time>2019-04-21T08:33:04.000Z</time>
      </trkpt>
      <trkpt lat="38.502854" lon="-0.704384">
        <ele>818.76415253828</ele>
        <time>2019-04-21T08:33:05.000Z</time>
      </trkpt>
      <trkpt lat="38.502836" lon="-0.704372">
        <ele>818</ele>
        <time>2019-04-21T08:33:06.000Z</time>
      </trkpt>
      <trkpt lat="38.502824" lon="-0.70435">
        <ele>818</ele>
        <time>2019-04-21T08:33:07.000Z</time>
      </trkpt>
      <trkpt lat="38.502818" lon="-0.704322">
        <ele>817</ele>
        <time>2019-04-21T08:33:08.000Z</time>
      </trkpt>
      <trkpt lat="38.50281" lon="-0.704293">
        <ele>817</ele>
        <time>2019-04-21T08:33:09.000Z</time>
      </trkpt>
      <trkpt lat="38.502808" lon="-0.704266">
        <ele>817</ele>
        <time>2019-04-21T08:33:10.000Z</time>
      </trkpt>
      <trkpt lat="38.502806" lon="-0.704243">
        <ele>817</ele>
        <time>2019-04-21T08:33:11.000Z</time>
      </trkpt>
      <trkpt lat="38.502797" lon="-0.704208">
        <ele>817</ele>
        <time>2019-04-21T08:33:13.000Z</time>
      </trkpt>
      <trkpt lat="38.502792" lon="-0.704177">
        <ele>817</ele>
        <time>2019-04-21T08:33:15.000Z</time>
      </trkpt>
      <trkpt lat="38.502784" lon="-0.704142">
        <ele>817</ele>
        <time>2019-04-21T08:33:17.000Z</time>
      </trkpt>
      <trkpt lat="38.502776" lon="-0.704115">
        <ele>816.824176442457</ele>
        <time>2019-04-21T08:33:19.000Z</time>
      </trkpt>
      <trkpt lat="38.502768" lon="-0.704085">
        <ele>816</ele>
        <time>2019-04-21T08:33:21.000Z</time>
      </trkpt>
      <trkpt lat="38.502758" lon="-0.704048">
        <ele>814.817520157711</ele>
        <time>2019-04-21T08:33:23.000Z</time>
      </trkpt>
      <trkpt lat="38.502748" lon="-0.704027">
        <ele>814.087591445469</ele>
        <time>2019-04-21T08:33:24.000Z</time>
      </trkpt>
      <trkpt lat="38.502744" lon="-0.704005">
        <ele>813</ele>
        <time>2019-04-21T08:33:25.000Z</time>
      </trkpt>
      <trkpt lat="38.502728" lon="-0.70396">
        <ele>813</ele>
        <time>2019-04-21T08:33:27.000Z</time>
      </trkpt>
      <trkpt lat="38.502718" lon="-0.703935">
        <ele>812.546383046106</ele>
        <time>2019-04-21T08:33:28.000Z</time>
      </trkpt>
      <trkpt lat="38.50271" lon="-0.70391">
        <ele>810.774775709772</ele>
        <time>2019-04-21T08:33:29.000Z</time>
      </trkpt>
      <trkpt lat="38.502698" lon="-0.703886">
        <ele>810.157308864983</ele>
        <time>2019-04-21T08:33:30.000Z</time>
      </trkpt>
      <trkpt lat="38.50269" lon="-0.703858">
        <ele>811</ele>
        <time>2019-04-21T08:33:31.000Z</time>
      </trkpt>
      <trkpt lat="38.50269" lon="-0.703833">
        <ele>810.754903560179</ele>
        <time>2019-04-21T08:33:32.000Z</time>
      </trkpt>
      <trkpt lat="38.50268" lon="-0.703787">
        <ele>809.774778306945</ele>
        <time>2019-04-21T08:33:34.000Z</time>
      </trkpt>
      <trkpt lat="38.502672" lon="-0.70376">
        <ele>809</ele>
        <time>2019-04-21T08:33:35.000Z</time>
      </trkpt>
      <trkpt lat="38.502668" lon="-0.703735">
        <ele>809</ele>
        <time>2019-04-21T08:33:36.000Z</time>
      </trkpt>
      <trkpt lat="38.50266" lon="-0.703712">
        <ele>808.754903560179</ele>
        <time>2019-04-21T08:33:37.000Z</time>
      </trkpt>
      <trkpt lat="38.502654" lon="-0.70369">
        <ele>808</ele>
        <time>2019-04-21T08:33:38.000Z</time>
      </trkpt>
      <trkpt lat="38.502648" lon="-0.703668">
        <ele>808</ele>
        <time>2019-04-21T08:33:39.000Z</time>
      </trkpt>
      <trkpt lat="38.502635" lon="-0.703649">
        <ele>807.842691135017</ele>
        <time>2019-04-21T08:33:40.000Z</time>
      </trkpt>
      <trkpt lat="38.50262" lon="-0.703604">
        <ele>807</ele>
        <time>2019-04-21T08:33:42.000Z</time>
      </trkpt>
      <trkpt lat="38.502614" lon="-0.703578">
        <ele>807</ele>
        <time>2019-04-21T08:33:43.000Z</time>
      </trkpt>
      <trkpt lat="38.502608" lon="-0.703551">
        <ele>807</ele>
        <time>2019-04-21T08:33:44.000Z</time>
      </trkpt>
      <trkpt lat="38.502602" lon="-0.703527">
        <ele>807</ele>
        <time>2019-04-21T08:33:45.000Z</time>
      </trkpt>
      <trkpt lat="38.502596" lon="-0.7035">
        <ele>807</ele>
        <time>2019-04-21T08:33:46.000Z</time>
      </trkpt>
      <trkpt lat="38.502592" lon="-0.70347">
        <ele>806.2500096</ele>
        <time>2019-04-21T08:33:47.000Z</time>
      </trkpt>
      <trkpt lat="38.502588" lon="-0.703443">
        <ele>803.850301604213</ele>
        <time>2019-04-21T08:33:48.000Z</time>
      </trkpt>
      <trkpt lat="38.502588" lon="-0.703416">
        <ele>803.251500356407</ele>
        <time>2019-04-21T08:33:49.000Z</time>
      </trkpt>
      <trkpt lat="38.502584" lon="-0.703386">
        <ele>803</ele>
        <time>2019-04-21T08:33:50.000Z</time>
      </trkpt>
      <trkpt lat="38.502585" lon="-0.703354">
        <ele>803</ele>
        <time>2019-04-21T08:33:51.000Z</time>
      </trkpt>
      <trkpt lat="38.502584" lon="-0.703323">
        <ele>803</ele>
        <time>2019-04-21T08:33:52.000Z</time>
      </trkpt>
      <trkpt lat="38.502582" lon="-0.703296">
        <ele>803</ele>
        <time>2019-04-21T08:33:53.000Z</time>
      </trkpt>
      <trkpt lat="38.502584" lon="-0.703269">
        <ele>803.226808476947</ele>
        <time>2019-04-21T08:33:54.000Z</time>
      </trkpt>
      <trkpt lat="38.502585" lon="-0.703239">
        <ele>804</ele>
        <time>2019-04-21T08:33:55.000Z</time>
      </trkpt>
      <trkpt lat="38.502584" lon="-0.703214">
        <ele>804</ele>
        <time>2019-04-21T08:33:56.000Z</time>
      </trkpt>
      <trkpt lat="38.50257" lon="-0.70317">
        <ele>804</ele>
        <time>2019-04-21T08:33:58.000Z</time>
      </trkpt>
      <trkpt lat="38.502556" lon="-0.703144">
        <ele>804</ele>
        <time>2019-04-21T08:33:59.000Z</time>
      </trkpt>
      <trkpt lat="38.502546" lon="-0.703112">
        <ele>804</ele>
        <time>2019-04-21T08:34:00.000Z</time>
      </trkpt>
      <trkpt lat="38.502541" lon="-0.70308">
        <ele>803.83333096298</ele>
        <time>2019-04-21T08:34:01.000Z</time>
      </trkpt>
      <trkpt lat="38.502534" lon="-0.70305">
        <ele>803</ele>
        <time>2019-04-21T08:34:02.000Z</time>
      </trkpt>
      <trkpt lat="38.502523" lon="-0.703021">
        <ele>803</ele>
        <time>2019-04-21T08:34:03.000Z</time>
      </trkpt>
      <trkpt lat="38.502509" lon="-0.702989">
        <ele>803</ele>
        <time>2019-04-21T08:34:04.000Z</time>
      </trkpt>
      <trkpt lat="38.502502" lon="-0.702956">
        <ele>803</ele>
        <time>2019-04-21T08:34:05.000Z</time>
      </trkpt>
      <trkpt lat="38.502495" lon="-0.702925">
        <ele>802.774778306945</ele>
        <time>2019-04-21T08:34:06.000Z</time>
      </trkpt>
      <trkpt lat="38.502481" lon="-0.702899">
        <ele>801.842703254663</ele>
        <time>2019-04-21T08:34:07.000Z</time>
      </trkpt>
      <trkpt lat="38.502465" lon="-0.702874">
        <ele>801</ele>
        <time>2019-04-21T08:34:08.000Z</time>
      </trkpt>
      <trkpt lat="38.502445" lon="-0.702853">
        <ele>801</ele>
        <time>2019-04-21T08:34:09.000Z</time>
      </trkpt>
      <trkpt lat="38.502427" lon="-0.70284">
        <ele>801</ele>
        <time>2019-04-21T08:34:10.000Z</time>
      </trkpt>
      <trkpt lat="38.502407" lon="-0.70283">
        <ele>800.7500032</ele>
        <time>2019-04-21T08:34:11.000Z</time>
      </trkpt>
      <trkpt lat="38.502386" lon="-0.702815">
        <ele>800</ele>
        <time>2019-04-21T08:34:12.000Z</time>
      </trkpt>
      <trkpt lat="38.502374" lon="-0.702794">
        <ele>800</ele>
        <time>2019-04-21T08:34:13.000Z</time>
      </trkpt>
      <trkpt lat="38.502362" lon="-0.702765">
        <ele>800</ele>
        <time>2019-04-21T08:34:14.000Z</time>
      </trkpt>
      <trkpt lat="38.502351" lon="-0.702737">
        <ele>800</ele>
        <time>2019-04-21T08:34:15.000Z</time>
      </trkpt>
      <trkpt lat="38.502335" lon="-0.702711">
        <ele>800</ele>
        <time>2019-04-21T08:34:16.000Z</time>
      </trkpt>
      <trkpt lat="38.502316" lon="-0.702687">
        <ele>800</ele>
        <time>2019-04-21T08:34:17.000Z</time>
      </trkpt>
      <trkpt lat="38.5023" lon="-0.702661">
        <ele>799.163631497492</ele>
        <time>2019-04-21T08:34:18.000Z</time>
      </trkpt>
      <trkpt lat="38.502283" lon="-0.702635">
        <ele>799</ele>
        <time>2019-04-21T08:34:19.000Z</time>
      </trkpt>
      <trkpt lat="38.502264" lon="-0.702609">
        <ele>798.757576541167</ele>
        <time>2019-04-21T08:34:20.000Z</time>
      </trkpt>
      <trkpt lat="38.502245" lon="-0.70258">
        <ele>798</ele>
        <time>2019-04-21T08:34:21.000Z</time>
      </trkpt>
      <trkpt lat="38.502231" lon="-0.702553">
        <ele>798</ele>
        <time>2019-04-21T08:34:22.000Z</time>
      </trkpt>
      <trkpt lat="38.50222" lon="-0.702524">
        <ele>798</ele>
        <time>2019-04-21T08:34:23.000Z</time>
      </trkpt>
      <trkpt lat="38.502214" lon="-0.702496">
        <ele>797</ele>
        <time>2019-04-21T08:34:24.000Z</time>
      </trkpt>
      <trkpt lat="38.502212" lon="-0.702467">
        <ele>797</ele>
        <time>2019-04-21T08:34:25.000Z</time>
      </trkpt>
      <trkpt lat="38.502206" lon="-0.702436">
        <ele>797</ele>
        <time>2019-04-21T08:34:26.000Z</time>
      </trkpt>
      <trkpt lat="38.502199" lon="-0.702401">
        <ele>796.7500032</ele>
        <time>2019-04-21T08:34:27.000Z</time>
      </trkpt>
      <trkpt lat="38.502192" lon="-0.702359">
        <ele>796</ele>
        <time>2019-04-21T08:34:28.000Z</time>
      </trkpt>
      <trkpt lat="38.502186" lon="-0.70232">
        <ele>796</ele>
        <time>2019-04-21T08:34:29.000Z</time>
      </trkpt>
      <trkpt lat="38.502177" lon="-0.702284">
        <ele>795</ele>
        <time>2019-04-21T08:34:30.000Z</time>
      </trkpt>
      <trkpt lat="38.502169" lon="-0.702251">
        <ele>794.752477631612</ele>
        <time>2019-04-21T08:34:31.000Z</time>
      </trkpt>
      <trkpt lat="38.50216" lon="-0.70222">
        <ele>794</ele>
        <time>2019-04-21T08:34:32.000Z</time>
      </trkpt>
      <trkpt lat="38.502153" lon="-0.70219">
        <ele>793.770644464277</ele>
        <time>2019-04-21T08:34:33.000Z</time>
      </trkpt>
      <trkpt lat="38.502147" lon="-0.702158">
        <ele>793</ele>
        <time>2019-04-21T08:34:34.000Z</time>
      </trkpt>
      <trkpt lat="38.502141" lon="-0.702125">
        <ele>792.7500032</ele>
        <time>2019-04-21T08:34:35.000Z</time>
      </trkpt>
      <trkpt lat="38.502135" lon="-0.702092">
        <ele>792</ele>
        <time>2019-04-21T08:34:36.000Z</time>
      </trkpt>
      <trkpt lat="38.502132" lon="-0.702059">
        <ele>792</ele>
        <time>2019-04-21T08:34:37.000Z</time>
      </trkpt>
      <trkpt lat="38.502127" lon="-0.702025">
        <ele>792</ele>
        <time>2019-04-21T08:34:38.000Z</time>
      </trkpt>
      <trkpt lat="38.50212" lon="-0.701991">
        <ele>792</ele>
        <time>2019-04-21T08:34:39.000Z</time>
      </trkpt>
      <trkpt lat="38.502117" lon="-0.701962">
        <ele>791.7500032</ele>
        <time>2019-04-21T08:34:40.000Z</time>
      </trkpt>
      <trkpt lat="38.502112" lon="-0.701928">
        <ele>791.193796449728</ele>
        <time>2019-04-21T08:34:41.000Z</time>
      </trkpt>
      <trkpt lat="38.502104" lon="-0.701893">
        <ele>791.968992171143</ele>
        <time>2019-04-21T08:34:42.000Z</time>
      </trkpt>
      <trkpt lat="38.502095" lon="-0.701861">
        <ele>792</ele>
        <time>2019-04-21T08:34:43.000Z</time>
      </trkpt>
      <trkpt lat="38.502084" lon="-0.701832">
        <ele>792</ele>
        <time>2019-04-21T08:34:44.000Z</time>
      </trkpt>
      <trkpt lat="38.50207" lon="-0.701801">
        <ele>791.7500032</ele>
        <time>2019-04-21T08:34:45.000Z</time>
      </trkpt>
      <trkpt lat="38.50206" lon="-0.701768">
        <ele>790.7500032</ele>
        <time>2019-04-21T08:34:46.000Z</time>
      </trkpt>
      <trkpt lat="38.502059" lon="-0.701736">
        <ele>790</ele>
        <time>2019-04-21T08:34:47.000Z</time>
      </trkpt>
      <trkpt lat="38.502055" lon="-0.701707">
        <ele>790</ele>
        <time>2019-04-21T08:34:48.000Z</time>
      </trkpt>
      <trkpt lat="38.502041" lon="-0.701682">
        <ele>790</ele>
        <time>2019-04-21T08:34:49.000Z</time>
      </trkpt>
      <trkpt lat="38.502019" lon="-0.701667">
        <ele>789.862069472848</ele>
        <time>2019-04-21T08:34:50.000Z</time>
      </trkpt>
      <trkpt lat="38.502005" lon="-0.70165">
        <ele>788.7500032</ele>
        <time>2019-04-21T08:34:51.000Z</time>
      </trkpt>
      <trkpt lat="38.501991" lon="-0.701619">
        <ele>788</ele>
        <time>2019-04-21T08:34:52.000Z</time>
      </trkpt>
      <trkpt lat="38.501975" lon="-0.701588">
        <ele>787.789474393349</ele>
        <time>2019-04-21T08:34:53.000Z</time>
      </trkpt>
      <trkpt lat="38.501955" lon="-0.701562">
        <ele>787</ele>
        <time>2019-04-21T08:34:54.000Z</time>
      </trkpt>
      <trkpt lat="38.501934" lon="-0.701539">
        <ele>786.7500032</ele>
        <time>2019-04-21T08:34:55.000Z</time>
      </trkpt>
      <trkpt lat="38.501912" lon="-0.701515">
        <ele>786</ele>
        <time>2019-04-21T08:34:56.000Z</time>
      </trkpt>
      <trkpt lat="38.501891" lon="-0.701488">
        <ele>786</ele>
        <time>2019-04-21T08:34:57.000Z</time>
      </trkpt>
      <trkpt lat="38.501879" lon="-0.701458">
        <ele>786</ele>
        <time>2019-04-21T08:34:58.000Z</time>
      </trkpt>
      <trkpt lat="38.501869" lon="-0.701426">
        <ele>786</ele>
        <time>2019-04-21T08:34:59.000Z</time>
      </trkpt>
      <trkpt lat="38.50186" lon="-0.701395">
        <ele>786</ele>
        <time>2019-04-21T08:35:00.000Z</time>
      </trkpt>
      <trkpt lat="38.501851" lon="-0.701367">
        <ele>786</ele>
        <time>2019-04-21T08:35:01.000Z</time>
      </trkpt>
      <trkpt lat="38.50184" lon="-0.701341">
        <ele>785</ele>
        <time>2019-04-21T08:35:02.000Z</time>
      </trkpt>
      <trkpt lat="38.501827" lon="-0.701313">
        <ele>785</ele>
        <time>2019-04-21T08:35:03.000Z</time>
      </trkpt>
      <trkpt lat="38.501813" lon="-0.701284">
        <ele>784.7500032</ele>
        <time>2019-04-21T08:35:04.000Z</time>
      </trkpt>
      <trkpt lat="38.501797" lon="-0.701253">
        <ele>784</ele>
        <time>2019-04-21T08:35:05.000Z</time>
      </trkpt>
      <trkpt lat="38.501779" lon="-0.701222">
        <ele>783.823075332552</ele>
        <time>2019-04-21T08:35:06.000Z</time>
      </trkpt>
      <trkpt lat="38.501761" lon="-0.701193">
        <ele>783.053848350285</ele>
        <time>2019-04-21T08:35:07.000Z</time>
      </trkpt>
      <trkpt lat="38.501741" lon="-0.701166">
        <ele>783</ele>
        <time>2019-04-21T08:35:08.000Z</time>
      </trkpt>
      <trkpt lat="38.501724" lon="-0.701141">
        <ele>783</ele>
        <time>2019-04-21T08:35:09.000Z</time>
      </trkpt>
      <trkpt lat="38.501706" lon="-0.701115">
        <ele>782.7500032</ele>
        <time>2019-04-21T08:35:10.000Z</time>
      </trkpt>
      <trkpt lat="38.501689" lon="-0.701091">
        <ele>782</ele>
        <time>2019-04-21T08:35:11.000Z</time>
      </trkpt>
      <trkpt lat="38.501674" lon="-0.70107">
        <ele>782</ele>
        <time>2019-04-21T08:35:12.000Z</time>
      </trkpt>
      <trkpt lat="38.501664" lon="-0.701044">
        <ele>781.7500032</ele>
        <time>2019-04-21T08:35:13.000Z</time>
      </trkpt>
      <trkpt lat="38.501653" lon="-0.701018">
        <ele>781</ele>
        <time>2019-04-21T08:35:14.000Z</time>
      </trkpt>
      <trkpt lat="38.501641" lon="-0.700991">
        <ele>781</ele>
        <time>2019-04-21T08:35:15.000Z</time>
      </trkpt>
      <trkpt lat="38.501623" lon="-0.700964">
        <ele>781</ele>
        <time>2019-04-21T08:35:16.000Z</time>
      </trkpt>
      <trkpt lat="38.501605" lon="-0.700936">
        <ele>781</ele>
        <time>2019-04-21T08:35:17.000Z</time>
      </trkpt>
      <trkpt lat="38.501592" lon="-0.700907">
        <ele>781</ele>
        <time>2019-04-21T08:35:18.000Z</time>
      </trkpt>
      <trkpt lat="38.501577" lon="-0.700876">
        <ele>781</ele>
        <time>2019-04-21T08:35:19.000Z</time>
      </trkpt>
      <trkpt lat="38.50156" lon="-0.700846">
        <ele>781</ele>
        <time>2019-04-21T08:35:20.000Z</time>
      </trkpt>
      <trkpt lat="38.50154" lon="-0.70082">
        <ele>780.780703330264</ele>
        <time>2019-04-21T08:35:21.000Z</time>
      </trkpt>
      <trkpt lat="38.501521" lon="-0.700796">
        <ele>780</ele>
        <time>2019-04-21T08:35:22.000Z</time>
      </trkpt>
      <trkpt lat="38.501504" lon="-0.700769">
        <ele>780</ele>
        <time>2019-04-21T08:35:23.000Z</time>
      </trkpt>
      <trkpt lat="38.50148" lon="-0.700742">
        <ele>780</ele>
        <time>2019-04-21T08:35:24.000Z</time>
      </trkpt>
      <trkpt lat="38.501457" lon="-0.700713">
        <ele>780</ele>
        <time>2019-04-21T08:35:25.000Z</time>
      </trkpt>
      <trkpt lat="38.50143" lon="-0.700695">
        <ele>779.7500032</ele>
        <time>2019-04-21T08:35:26.000Z</time>
      </trkpt>
      <trkpt lat="38.501408" lon="-0.70068">
        <ele>778.754903560179</ele>
        <time>2019-04-21T08:35:27.000Z</time>
      </trkpt>
      <trkpt lat="38.501388" lon="-0.70066">
        <ele>778</ele>
        <time>2019-04-21T08:35:28.000Z</time>
      </trkpt>
      <trkpt lat="38.501371" lon="-0.700636">
        <ele>778</ele>
        <time>2019-04-21T08:35:29.000Z</time>
      </trkpt>
      <trkpt lat="38.501347" lon="-0.700613">
        <ele>777.842691135017</ele>
        <time>2019-04-21T08:35:30.000Z</time>
      </trkpt>
      <trkpt lat="38.501328" lon="-0.700592">
        <ele>776.7500032</ele>
        <time>2019-04-21T08:35:31.000Z</time>
      </trkpt>
      <trkpt lat="38.501307" lon="-0.700563">
        <ele>776</ele>
        <time>2019-04-21T08:35:32.000Z</time>
      </trkpt>
      <trkpt lat="38.501283" lon="-0.700536">
        <ele>775.765304389849</ele>
        <time>2019-04-21T08:35:33.000Z</time>
      </trkpt>
      <trkpt lat="38.501258" lon="-0.70051">
        <ele>775</ele>
        <time>2019-04-21T08:35:34.000Z</time>
      </trkpt>
      <trkpt lat="38.501228" lon="-0.70049">
        <ele>774.842703254663</ele>
        <time>2019-04-21T08:35:35.000Z</time>
      </trkpt>
      <trkpt lat="38.501206" lon="-0.700473">
        <ele>774</ele>
        <time>2019-04-21T08:35:36.000Z</time>
      </trkpt>
      <trkpt lat="38.501181" lon="-0.700464">
        <ele>773.754903560179</ele>
        <time>2019-04-21T08:35:37.000Z</time>
      </trkpt>
      <trkpt lat="38.501155" lon="-0.700457">
        <ele>773</ele>
        <time>2019-04-21T08:35:38.000Z</time>
      </trkpt>
      <trkpt lat="38.501121" lon="-0.70045">
        <ele>773</ele>
        <time>2019-04-21T08:35:39.000Z</time>
      </trkpt>
      <trkpt lat="38.50109" lon="-0.700446">
        <ele>772</ele>
        <time>2019-04-21T08:35:40.000Z</time>
      </trkpt>
      <trkpt lat="38.501058" lon="-0.700439">
        <ele>772</ele>
        <time>2019-04-21T08:35:41.000Z</time>
      </trkpt>
      <trkpt lat="38.501025" lon="-0.700432">
        <ele>772</ele>
        <time>2019-04-21T08:35:42.000Z</time>
      </trkpt>
      <trkpt lat="38.500995" lon="-0.700424">
        <ele>772</ele>
        <time>2019-04-21T08:35:43.000Z</time>
      </trkpt>
      <trkpt lat="38.500965" lon="-0.700411">
        <ele>772</ele>
        <time>2019-04-21T08:35:44.000Z</time>
      </trkpt>
      <trkpt lat="38.500935" lon="-0.700401">
        <ele>772</ele>
        <time>2019-04-21T08:35:45.000Z</time>
      </trkpt>
      <trkpt lat="38.500907" lon="-0.700387">
        <ele>771.752477631612</ele>
        <time>2019-04-21T08:35:46.000Z</time>
      </trkpt>
      <trkpt lat="38.500877" lon="-0.700377">
        <ele>770.757576541167</ele>
        <time>2019-04-21T08:35:47.000Z</time>
      </trkpt>
      <trkpt lat="38.500843" lon="-0.700371">
        <ele>769.772728859513</ele>
        <time>2019-04-21T08:35:48.000Z</time>
      </trkpt>
      <trkpt lat="38.500814" lon="-0.70037">
        <ele>769.16666903702</ele>
        <time>2019-04-21T08:35:49.000Z</time>
      </trkpt>
      <trkpt lat="38.50079" lon="-0.700359">
        <ele>770</ele>
        <time>2019-04-21T08:35:50.000Z</time>
      </trkpt>
      <trkpt lat="38.500766" lon="-0.700347">
        <ele>769.754903560179</ele>
        <time>2019-04-21T08:35:51.000Z</time>
      </trkpt>
      <trkpt lat="38.500738" lon="-0.700335">
        <ele>769</ele>
        <time>2019-04-21T08:35:52.000Z</time>
      </trkpt>
      <trkpt lat="38.500714" lon="-0.700325">
        <ele>769.227271140487</ele>
        <time>2019-04-21T08:35:53.000Z</time>
      </trkpt>
      <trkpt lat="38.500692" lon="-0.700316">
        <ele>770</ele>
        <time>2019-04-21T08:35:54.000Z</time>
      </trkpt>
      <trkpt lat="38.500662" lon="-0.700306">
        <ele>770</ele>
        <time>2019-04-21T08:35:55.000Z</time>
      </trkpt>
      <trkpt lat="38.500631" lon="-0.700295">
        <ele>769.752477631612</ele>
        <time>2019-04-21T08:35:56.000Z</time>
      </trkpt>
      <trkpt lat="38.500598" lon="-0.700286">
        <ele>769</ele>
        <time>2019-04-21T08:35:57.000Z</time>
      </trkpt>
      <trkpt lat="38.500566" lon="-0.700275">
        <ele>769</ele>
        <time>2019-04-21T08:35:58.000Z</time>
      </trkpt>
      <trkpt lat="38.500536" lon="-0.700268">
        <ele>768.058817623954</ele>
        <time>2019-04-21T08:35:59.000Z</time>
      </trkpt>
      <trkpt lat="38.500511" lon="-0.700258">
        <ele>767.7500032</ele>
        <time>2019-04-21T08:36:00.000Z</time>
      </trkpt>
      <trkpt lat="38.500489" lon="-0.700254">
        <ele>767</ele>
        <time>2019-04-21T08:36:01.000Z</time>
      </trkpt>
      <trkpt lat="38.500466" lon="-0.70025">
        <ele>767</ele>
        <time>2019-04-21T08:36:02.000Z</time>
      </trkpt>
      <trkpt lat="38.500448" lon="-0.700238">
        <ele>767</ele>
        <time>2019-04-21T08:36:03.000Z</time>
      </trkpt>
      <trkpt lat="38.500431" lon="-0.70022">
        <ele>767</ele>
        <time>2019-04-21T08:36:04.000Z</time>
      </trkpt>
      <trkpt lat="38.500415" lon="-0.700203">
        <ele>767</ele>
        <time>2019-04-21T08:36:05.000Z</time>
      </trkpt>
      <trkpt lat="38.500392" lon="-0.700193">
        <ele>766.752477631612</ele>
        <time>2019-04-21T08:36:06.000Z</time>
      </trkpt>
      <trkpt lat="38.500371" lon="-0.700187">
        <ele>766</ele>
        <time>2019-04-21T08:36:07.000Z</time>
      </trkpt>
      <trkpt lat="38.500354" lon="-0.700177">
        <ele>766</ele>
        <time>2019-04-21T08:36:08.000Z</time>
      </trkpt>
      <trkpt lat="38.500334" lon="-0.70017">
        <ele>766</ele>
        <time>2019-04-21T08:36:09.000Z</time>
      </trkpt>
      <trkpt lat="38.500308" lon="-0.700169">
        <ele>765.7500032</ele>
        <time>2019-04-21T08:36:10.000Z</time>
      </trkpt>
      <trkpt lat="38.500285" lon="-0.700165">
        <ele>764.7500032</ele>
        <time>2019-04-21T08:36:11.000Z</time>
      </trkpt>
      <trkpt lat="38.500264" lon="-0.700156">
        <ele>764</ele>
        <time>2019-04-21T08:36:12.000Z</time>
      </trkpt>
      <trkpt lat="38.500243" lon="-0.700151">
        <ele>764</ele>
        <time>2019-04-21T08:36:13.000Z</time>
      </trkpt>
      <trkpt lat="38.500219" lon="-0.700147">
        <ele>764</ele>
        <time>2019-04-21T08:36:14.000Z</time>
      </trkpt>
      <trkpt lat="38.500195" lon="-0.700141">
        <ele>764</ele>
        <time>2019-04-21T08:36:15.000Z</time>
      </trkpt>
      <trkpt lat="38.500169" lon="-0.700131">
        <ele>764</ele>
        <time>2019-04-21T08:36:16.000Z</time>
      </trkpt>
      <trkpt lat="38.500145" lon="-0.700122">
        <ele>764</ele>
        <time>2019-04-21T08:36:17.000Z</time>
      </trkpt>
      <trkpt lat="38.500122" lon="-0.700115">
        <ele>763.224298394622</ele>
        <time>2019-04-21T08:36:18.000Z</time>
      </trkpt>
      <trkpt lat="38.500095" lon="-0.70011">
        <ele>764</ele>
        <time>2019-04-21T08:36:19.000Z</time>
      </trkpt>
      <trkpt lat="38.500067" lon="-0.700103">
        <ele>764</ele>
        <time>2019-04-21T08:36:20.000Z</time>
      </trkpt>
      <trkpt lat="38.500041" lon="-0.700098">
        <ele>763.778763267294</ele>
        <time>2019-04-21T08:36:21.000Z</time>
      </trkpt>
      <trkpt lat="38.500015" lon="-0.70009">
        <ele>763</ele>
        <time>2019-04-21T08:36:22.000Z</time>
      </trkpt>
      <trkpt lat="38.49999" lon="-0.700082">
        <ele>763</ele>
        <time>2019-04-21T08:36:23.000Z</time>
      </trkpt>
      <trkpt lat="38.499966" lon="-0.700074">
        <ele>763</ele>
        <time>2019-04-21T08:36:24.000Z</time>
      </trkpt>
      <trkpt lat="38.49994" lon="-0.700065">
        <ele>763</ele>
        <time>2019-04-21T08:36:25.000Z</time>
      </trkpt>
      <trkpt lat="38.49992" lon="-0.700055">
        <ele>763</ele>
        <time>2019-04-21T08:36:26.000Z</time>
      </trkpt>
      <trkpt lat="38.499897" lon="-0.700057">
        <ele>763.2499968</ele>
        <time>2019-04-21T08:36:28.000Z</time>
      </trkpt>
      <trkpt lat="38.499882" lon="-0.700073">
        <ele>764</ele>
        <time>2019-04-21T08:36:30.000Z</time>
      </trkpt>
      <trkpt lat="38.499882" lon="-0.700097">
        <ele>763.818842058398</ele>
        <time>2019-04-21T08:36:35.000Z</time>
      </trkpt>
      <trkpt lat="38.49988" lon="-0.700121">
        <ele>763</ele>
        <time>2019-04-21T08:36:38.000Z</time>
      </trkpt>
      <trkpt lat="38.499859" lon="-0.700131">
        <ele>764.226798273974</ele>
        <time>2019-04-21T08:36:41.000Z</time>
      </trkpt>
      <trkpt lat="38.499839" lon="-0.700131">
        <ele>764</ele>
        <time>2019-04-21T08:36:51.000Z</time>
      </trkpt>
      <trkpt lat="38.499817" lon="-0.700109">
        <ele>764.806203550272</ele>
        <time>2019-04-21T08:37:13.000Z</time>
      </trkpt>
      <trkpt lat="38.499795" lon="-0.700116">
        <ele>765</ele>
        <time>2019-04-21T08:37:27.000Z</time>
      </trkpt>
      <trkpt lat="38.499774" lon="-0.700124">
        <ele>765</ele>
        <time>2019-04-21T08:37:29.000Z</time>
      </trkpt>
      <trkpt lat="38.499756" lon="-0.700128">
        <ele>765</ele>
        <time>2019-04-21T08:37:30.000Z</time>
      </trkpt>
      <trkpt lat="38.499722" lon="-0.700131">
        <ele>765</ele>
        <time>2019-04-21T08:37:32.000Z</time>
      </trkpt>
      <trkpt lat="38.499704" lon="-0.700128">
        <ele>765</ele>
        <time>2019-04-21T08:37:33.000Z</time>
      </trkpt>
      <trkpt lat="38.499682" lon="-0.700124">
        <ele>765</ele>
        <time>2019-04-21T08:37:34.000Z</time>
      </trkpt>
      <trkpt lat="38.499658" lon="-0.700123">
        <ele>765</ele>
        <time>2019-04-21T08:37:35.000Z</time>
      </trkpt>
      <trkpt lat="38.499634" lon="-0.700124">
        <ele>764.816794340655</ele>
        <time>2019-04-21T08:37:36.000Z</time>
      </trkpt>
      <trkpt lat="38.499611" lon="-0.700123">
        <ele>764.053437426718</ele>
        <time>2019-04-21T08:37:37.000Z</time>
      </trkpt>
      <trkpt lat="38.499589" lon="-0.70012">
        <ele>764</ele>
        <time>2019-04-21T08:37:38.000Z</time>
      </trkpt>
      <trkpt lat="38.499568" lon="-0.700123">
        <ele>764</ele>
        <time>2019-04-21T08:37:39.000Z</time>
      </trkpt>
      <trkpt lat="38.49955" lon="-0.700132">
        <ele>764</ele>
        <time>2019-04-21T08:37:40.000Z</time>
      </trkpt>
      <trkpt lat="38.49952" lon="-0.700157">
        <ele>764</ele>
        <time>2019-04-21T08:37:42.000Z</time>
      </trkpt>
      <trkpt lat="38.499492" lon="-0.700181">
        <ele>763</ele>
        <time>2019-04-21T08:37:44.000Z</time>
      </trkpt>
      <trkpt lat="38.499476" lon="-0.700194">
        <ele>763</ele>
        <time>2019-04-21T08:37:45.000Z</time>
      </trkpt>
      <trkpt lat="38.499448" lon="-0.700216">
        <ele>761.824176442457</ele>
        <time>2019-04-21T08:37:47.000Z</time>
      </trkpt>
      <trkpt lat="38.499428" lon="-0.700224">
        <ele>761</ele>
        <time>2019-04-21T08:37:48.000Z</time>
      </trkpt>
      <trkpt lat="38.499406" lon="-0.700235">
        <ele>760.752477631612</ele>
        <time>2019-04-21T08:37:49.000Z</time>
      </trkpt>
      <trkpt lat="38.499377" lon="-0.700245">
        <ele>759.757576541167</ele>
        <time>2019-04-21T08:37:50.000Z</time>
      </trkpt>
      <trkpt lat="38.49935" lon="-0.700256">
        <ele>759</ele>
        <time>2019-04-21T08:37:51.000Z</time>
      </trkpt>
      <trkpt lat="38.499327" lon="-0.700267">
        <ele>759</ele>
        <time>2019-04-21T08:37:52.000Z</time>
      </trkpt>
      <trkpt lat="38.499305" lon="-0.700284">
        <ele>758</ele>
        <time>2019-04-21T08:37:53.000Z</time>
      </trkpt>
      <trkpt lat="38.499286" lon="-0.700305">
        <ele>757.852276363636</ele>
        <time>2019-04-21T08:37:54.000Z</time>
      </trkpt>
      <trkpt lat="38.499266" lon="-0.700321">
        <ele>756.7500032</ele>
        <time>2019-04-21T08:37:55.000Z</time>
      </trkpt>
      <trkpt lat="38.499249" lon="-0.700337">
        <ele>756</ele>
        <time>2019-04-21T08:37:56.000Z</time>
      </trkpt>
      <trkpt lat="38.499231" lon="-0.700355">
        <ele>756</ele>
        <time>2019-04-21T08:37:57.000Z</time>
      </trkpt>
      <trkpt lat="38.499216" lon="-0.700372">
        <ele>756</ele>
        <time>2019-04-21T08:37:58.000Z</time>
      </trkpt>
      <trkpt lat="38.499199" lon="-0.70039">
        <ele>756</ele>
        <time>2019-04-21T08:37:59.000Z</time>
      </trkpt>
      <trkpt lat="38.499181" lon="-0.700406">
        <ele>756</ele>
        <time>2019-04-21T08:38:00.000Z</time>
      </trkpt>
      <trkpt lat="38.499162" lon="-0.700419">
        <ele>755.7500032</ele>
        <time>2019-04-21T08:38:01.000Z</time>
      </trkpt>
      <trkpt lat="38.499138" lon="-0.700436">
        <ele>755</ele>
        <time>2019-04-21T08:38:02.000Z</time>
      </trkpt>
      <trkpt lat="38.499117" lon="-0.700454">
        <ele>754.7500032</ele>
        <time>2019-04-21T08:38:03.000Z</time>
      </trkpt>
      <trkpt lat="38.499096" lon="-0.700481">
        <ele>753.7500032</ele>
        <time>2019-04-21T08:38:04.000Z</time>
      </trkpt>
      <trkpt lat="38.499082" lon="-0.700508">
        <ele>753</ele>
        <time>2019-04-21T08:38:05.000Z</time>
      </trkpt>
      <trkpt lat="38.499066" lon="-0.70053">
        <ele>752.752477631612</ele>
        <time>2019-04-21T08:38:06.000Z</time>
      </trkpt>
      <trkpt lat="38.499046" lon="-0.700551">
        <ele>752</ele>
        <time>2019-04-21T08:38:07.000Z</time>
      </trkpt>
      <trkpt lat="38.499028" lon="-0.700572">
        <ele>751.7500032</ele>
        <time>2019-04-21T08:38:08.000Z</time>
      </trkpt>
      <trkpt lat="38.499014" lon="-0.700594">
        <ele>751</ele>
        <time>2019-04-21T08:38:09.000Z</time>
      </trkpt>
      <trkpt lat="38.499" lon="-0.700611">
        <ele>750.859506405306</ele>
        <time>2019-04-21T08:38:10.000Z</time>
      </trkpt>
      <trkpt lat="38.49898" lon="-0.700629">
        <ele>750.033057938666</ele>
        <time>2019-04-21T08:38:11.000Z</time>
      </trkpt>
      <trkpt lat="38.498964" lon="-0.70065">
        <ele>749</ele>
        <time>2019-04-21T08:38:12.000Z</time>
      </trkpt>
      <trkpt lat="38.498948" lon="-0.70067">
        <ele>749</ele>
        <time>2019-04-21T08:38:13.000Z</time>
      </trkpt>
      <trkpt lat="38.498934" lon="-0.700686">
        <ele>749</ele>
        <time>2019-04-21T08:38:14.000Z</time>
      </trkpt>
      <trkpt lat="38.498918" lon="-0.700705">
        <ele>748.7500032</ele>
        <time>2019-04-21T08:38:15.000Z</time>
      </trkpt>
      <trkpt lat="38.498904" lon="-0.700724">
        <ele>747.7500032</ele>
        <time>2019-04-21T08:38:16.000Z</time>
      </trkpt>
      <trkpt lat="38.49889" lon="-0.700746">
        <ele>747</ele>
        <time>2019-04-21T08:38:17.000Z</time>
      </trkpt>
      <trkpt lat="38.498872" lon="-0.700767">
        <ele>746.815220869565</ele>
        <time>2019-04-21T08:38:18.000Z</time>
      </trkpt>
      <trkpt lat="38.498858" lon="-0.700789">
        <ele>746</ele>
        <time>2019-04-21T08:38:19.000Z</time>
      </trkpt>
      <trkpt lat="38.49884" lon="-0.700811">
        <ele>745.809161349579</ele>
        <time>2019-04-21T08:38:20.000Z</time>
      </trkpt>
      <trkpt lat="38.498822" lon="-0.700835">
        <ele>745.045796976833</ele>
        <time>2019-04-21T08:38:21.000Z</time>
      </trkpt>
      <trkpt lat="38.498814" lon="-0.700864">
        <ele>744.7500032</ele>
        <time>2019-04-21T08:38:22.000Z</time>
      </trkpt>
      <trkpt lat="38.498804" lon="-0.700892">
        <ele>744</ele>
        <time>2019-04-21T08:38:23.000Z</time>
      </trkpt>
      <trkpt lat="38.498798" lon="-0.70092">
        <ele>743.7500032</ele>
        <time>2019-04-21T08:38:24.000Z</time>
      </trkpt>
      <trkpt lat="38.498792" lon="-0.700947">
        <ele>743</ele>
        <time>2019-04-21T08:38:25.000Z</time>
      </trkpt>
      <trkpt lat="38.49878" lon="-0.70097">
        <ele>743</ele>
        <time>2019-04-21T08:38:26.000Z</time>
      </trkpt>
      <trkpt lat="38.498766" lon="-0.700985">
        <ele>743</ele>
        <time>2019-04-21T08:38:27.000Z</time>
      </trkpt>
      <trkpt lat="38.498742" lon="-0.700995">
        <ele>742</ele>
        <time>2019-04-21T08:38:29.000Z</time>
      </trkpt>
      <trkpt lat="38.49872" lon="-0.700983">
        <ele>742</ele>
        <time>2019-04-21T08:38:31.000Z</time>
      </trkpt>
      <trkpt lat="38.49869" lon="-0.700981">
        <ele>739.553577142857</ele>
        <time>2019-04-21T08:38:33.000Z</time>
      </trkpt>
      <trkpt lat="38.498666" lon="-0.700979">
        <ele>738</ele>
        <time>2019-04-21T08:38:35.000Z</time>
      </trkpt>
      <trkpt lat="38.498634" lon="-0.701008">
        <ele>737</ele>
        <time>2019-04-21T08:38:37.000Z</time>
      </trkpt>
      <trkpt lat="38.498616" lon="-0.701039">
        <ele>737</ele>
        <time>2019-04-21T08:38:38.000Z</time>
      </trkpt>
      <trkpt lat="38.498606" lon="-0.701072">
        <ele>737</ele>
        <time>2019-04-21T08:38:39.000Z</time>
      </trkpt>
      <trkpt lat="38.4986" lon="-0.701106">
        <ele>737</ele>
        <time>2019-04-21T08:38:40.000Z</time>
      </trkpt>
      <trkpt lat="38.498596" lon="-0.701141">
        <ele>737.242717602028</ele>
        <time>2019-04-21T08:38:41.000Z</time>
      </trkpt>
      <trkpt lat="38.498594" lon="-0.701177">
        <ele>738</ele>
        <time>2019-04-21T08:38:42.000Z</time>
      </trkpt>
      <trkpt lat="38.4986" lon="-0.701215">
        <ele>738</ele>
        <time>2019-04-21T08:38:43.000Z</time>
      </trkpt>
      <trkpt lat="38.498604" lon="-0.701252">
        <ele>738</ele>
        <time>2019-04-21T08:38:44.000Z</time>
      </trkpt>
      <trkpt lat="38.49861" lon="-0.701286">
        <ele>738</ele>
        <time>2019-04-21T08:38:45.000Z</time>
      </trkpt>
      <trkpt lat="38.498612" lon="-0.701318">
        <ele>738.2499968</ele>
        <time>2019-04-21T08:38:46.000Z</time>
      </trkpt>
      <trkpt lat="38.498614" lon="-0.701351">
        <ele>739</ele>
        <time>2019-04-21T08:38:47.000Z</time>
      </trkpt>
      <trkpt lat="38.498614" lon="-0.701381">
        <ele>739</ele>
        <time>2019-04-21T08:38:48.000Z</time>
      </trkpt>
      <trkpt lat="38.498612" lon="-0.701412">
        <ele>739</ele>
        <time>2019-04-21T08:38:49.000Z</time>
      </trkpt>
      <trkpt lat="38.498612" lon="-0.701446">
        <ele>739</ele>
        <time>2019-04-21T08:38:50.000Z</time>
      </trkpt>
      <trkpt lat="38.498608" lon="-0.701481">
        <ele>739</ele>
        <time>2019-04-21T08:38:51.000Z</time>
      </trkpt>
      <trkpt lat="38.49861" lon="-0.701514">
        <ele>739</ele>
        <time>2019-04-21T08:38:52.000Z</time>
      </trkpt>
      <trkpt lat="38.49861" lon="-0.701547">
        <ele>739.2499968</ele>
        <time>2019-04-21T08:38:53.000Z</time>
      </trkpt>
      <trkpt lat="38.49861" lon="-0.701578">
        <ele>740</ele>
        <time>2019-04-21T08:38:54.000Z</time>
      </trkpt>
      <trkpt lat="38.498612" lon="-0.701604">
        <ele>740</ele>
        <time>2019-04-21T08:38:55.000Z</time>
      </trkpt>
      <trkpt lat="38.498614" lon="-0.701637">
        <ele>740</ele>
        <time>2019-04-21T08:38:57.000Z</time>
      </trkpt>
      <trkpt lat="38.498597" lon="-0.701649">
        <ele>740</ele>
        <time>2019-04-21T08:39:01.000Z</time>
      </trkpt>
      <trkpt lat="38.498568" lon="-0.701645">
        <ele>740</ele>
        <time>2019-04-21T08:39:03.000Z</time>
      </trkpt>
      <trkpt lat="38.49854" lon="-0.701637">
        <ele>739.770644464277</ele>
        <time>2019-04-21T08:39:05.000Z</time>
      </trkpt>
      <trkpt lat="38.498517" lon="-0.701634">
        <ele>738</ele>
        <time>2019-04-21T08:39:07.000Z</time>
      </trkpt>
      <trkpt lat="38.4985" lon="-0.701664">
        <ele>738</ele>
        <time>2019-04-21T08:39:09.000Z</time>
      </trkpt>
      <trkpt lat="38.4985" lon="-0.701693">
        <ele>737.781253333333</ele>
        <time>2019-04-21T08:39:10.000Z</time>
      </trkpt>
      <trkpt lat="38.498504" lon="-0.701718">
        <ele>737</ele>
        <time>2019-04-21T08:39:11.000Z</time>
      </trkpt>
      <trkpt lat="38.498507" lon="-0.701737">
        <ele>737</ele>
        <time>2019-04-21T08:39:12.000Z</time>
      </trkpt>
    </trkseg>
  </trk>
</gpx>
